<?xml version="1.0" encoding="UTF-8"?>
<gpx version="1.1" creator="https://www.youtrack.es" xsi:schemaLocation="http://www.topografix.com/GPX/1/1 http://www.topografix.com/GPX/1/1/gpx.xsd http://www.garmin.com/xmlschemas/GpxExtensions/v3 http://www.garmin.com/xmlschemas/GpxExtensionsv3.xsd http://www.garmin.com/xmlschemas/TrackPointExtension/v1 http://www.garmin.com/xmlschemas/TrackPointExtensionv1.xsd" xmlns:gpxtpx="http://www.garmin.com/xmlschemas/TrackPointExtension/v1" xmlns:gpxx="http://www.garmin.com/xmlschemas/GpxExtensions/v3" xmlns:xsi="http://www.w3.org/2001/XMLSchema-instance">
  <metadata>
    <link href="https://www.youtrack.es">
      <text>YouTrack.es</text>
    </link>
    <time>2026-05-09T03:22:19Z</time>
  </metadata>
  <trk>
    <src>https://www.youtrack.es</src>
    <link href="https://www.youtrack.es/ruta/19536-el-fario">
      <text>YouTrack.es</text>
    </link>
    <trkseg>
      <trkpt lat="43.468185" lon="-5.601603">
        <ele>327.0</ele>
        <time>2021-02-14T09:39:55Z</time>
      </trkpt>
      <trkpt lat="43.468185" lon="-5.601599">
        <ele>327.0</ele>
        <time>2021-02-14T09:39:57Z</time>
      </trkpt>
      <trkpt lat="43.4682" lon="-5.601591">
        <ele>327.0</ele>
        <time>2021-02-14T09:39:57Z</time>
      </trkpt>
      <trkpt lat="43.468212" lon="-5.6015797">
        <ele>327.0</ele>
        <time>2021-02-14T09:39:58Z</time>
      </trkpt>
      <trkpt lat="43.468216" lon="-5.601575">
        <ele>327.0</ele>
        <time>2021-02-14T09:39:59Z</time>
      </trkpt>
      <trkpt lat="43.46822" lon="-5.60157">
        <ele>327.0</ele>
        <time>2021-02-14T09:40:00Z</time>
      </trkpt>
      <trkpt lat="43.46823" lon="-5.6015596">
        <ele>327.0</ele>
        <time>2021-02-14T09:40:01Z</time>
      </trkpt>
      <trkpt lat="43.468246" lon="-5.6015425">
        <ele>327.0</ele>
        <time>2021-02-14T09:40:03Z</time>
      </trkpt>
      <trkpt lat="43.46826" lon="-5.6015215">
        <ele>327.0</ele>
        <time>2021-02-14T09:40:03Z</time>
      </trkpt>
      <trkpt lat="43.46827" lon="-5.6015015">
        <ele>327.0</ele>
        <time>2021-02-14T09:40:04Z</time>
      </trkpt>
      <trkpt lat="43.468273" lon="-5.601489">
        <ele>327.0</ele>
        <time>2021-02-14T09:40:05Z</time>
      </trkpt>
      <trkpt lat="43.468277" lon="-5.6014824">
        <ele>327.0</ele>
        <time>2021-02-14T09:40:06Z</time>
      </trkpt>
      <trkpt lat="43.468277" lon="-5.6014752">
        <ele>327.0</ele>
        <time>2021-02-14T09:40:07Z</time>
      </trkpt>
      <trkpt lat="43.46829" lon="-5.601468">
        <ele>327.0</ele>
        <time>2021-02-14T09:40:08Z</time>
      </trkpt>
      <trkpt lat="43.468292" lon="-5.601461">
        <ele>327.0</ele>
        <time>2021-02-14T09:40:10Z</time>
      </trkpt>
      <trkpt lat="43.468292" lon="-5.601455">
        <ele>327.0</ele>
        <time>2021-02-14T09:40:10Z</time>
      </trkpt>
      <trkpt lat="43.4683" lon="-5.6014485">
        <ele>327.0</ele>
        <time>2021-02-14T09:40:11Z</time>
      </trkpt>
      <trkpt lat="43.468304" lon="-5.601442">
        <ele>327.0</ele>
        <time>2021-02-14T09:40:12Z</time>
      </trkpt>
      <trkpt lat="43.468307" lon="-5.6014357">
        <ele>327.0</ele>
        <time>2021-02-14T09:40:13Z</time>
      </trkpt>
      <trkpt lat="43.468315" lon="-5.6014304">
        <ele>327.0</ele>
        <time>2021-02-14T09:40:14Z</time>
      </trkpt>
      <trkpt lat="43.46832" lon="-5.6014285">
        <ele>327.0</ele>
        <time>2021-02-14T09:40:15Z</time>
      </trkpt>
      <trkpt lat="43.46832" lon="-5.601429">
        <ele>327.0</ele>
        <time>2021-02-14T09:40:16Z</time>
      </trkpt>
      <trkpt lat="43.468323" lon="-5.601434">
        <ele>327.0</ele>
        <time>2021-02-14T09:40:17Z</time>
      </trkpt>
      <trkpt lat="43.468323" lon="-5.6014385">
        <ele>327.0</ele>
        <time>2021-02-14T09:40:19Z</time>
      </trkpt>
      <trkpt lat="43.468334" lon="-5.6014414">
        <ele>327.0</ele>
        <time>2021-02-14T09:40:19Z</time>
      </trkpt>
      <trkpt lat="43.468353" lon="-5.601445">
        <ele>327.0</ele>
        <time>2021-02-14T09:40:21Z</time>
      </trkpt>
      <trkpt lat="43.46836" lon="-5.601445">
        <ele>327.0</ele>
        <time>2021-02-14T09:40:22Z</time>
      </trkpt>
      <trkpt lat="43.468365" lon="-5.601445">
        <ele>327.0</ele>
        <time>2021-02-14T09:40:23Z</time>
      </trkpt>
      <trkpt lat="43.46837" lon="-5.601445">
        <ele>327.0</ele>
        <time>2021-02-14T09:40:24Z</time>
      </trkpt>
      <trkpt lat="43.468376" lon="-5.6014457">
        <ele>327.0</ele>
        <time>2021-02-14T09:40:25Z</time>
      </trkpt>
      <trkpt lat="43.46838" lon="-5.6014514">
        <ele>327.0</ele>
        <time>2021-02-14T09:40:27Z</time>
      </trkpt>
      <trkpt lat="43.468422" lon="-5.60146">
        <ele>327.0</ele>
        <time>2021-02-14T09:40:30Z</time>
      </trkpt>
      <trkpt lat="43.468422" lon="-5.601462">
        <ele>327.0</ele>
        <time>2021-02-14T09:40:31Z</time>
      </trkpt>
      <trkpt lat="43.468426" lon="-5.601464">
        <ele>327.0</ele>
        <time>2021-02-14T09:40:32Z</time>
      </trkpt>
      <trkpt lat="43.468422" lon="-5.6014647">
        <ele>327.0</ele>
        <time>2021-02-14T09:40:33Z</time>
      </trkpt>
      <trkpt lat="43.468422" lon="-5.6014667">
        <ele>327.0</ele>
        <time>2021-02-14T09:40:34Z</time>
      </trkpt>
      <trkpt lat="43.468414" lon="-5.6014686">
        <ele>327.0</ele>
        <time>2021-02-14T09:40:35Z</time>
      </trkpt>
      <trkpt lat="43.46841" lon="-5.601472">
        <ele>327.0</ele>
        <time>2021-02-14T09:40:36Z</time>
      </trkpt>
      <trkpt lat="43.4684" lon="-5.6014733">
        <ele>327.0</ele>
        <time>2021-02-14T09:40:37Z</time>
      </trkpt>
      <trkpt lat="43.468395" lon="-5.601475">
        <ele>327.0</ele>
        <time>2021-02-14T09:40:38Z</time>
      </trkpt>
      <trkpt lat="43.468384" lon="-5.601473">
        <ele>327.0</ele>
        <time>2021-02-14T09:40:39Z</time>
      </trkpt>
      <trkpt lat="43.46838" lon="-5.6014695">
        <ele>327.0</ele>
        <time>2021-02-14T09:40:40Z</time>
      </trkpt>
      <trkpt lat="43.468376" lon="-5.6014695">
        <ele>327.0</ele>
        <time>2021-02-14T09:40:41Z</time>
      </trkpt>
      <trkpt lat="43.468376" lon="-5.601468">
        <ele>327.0</ele>
        <time>2021-02-14T09:40:42Z</time>
      </trkpt>
      <trkpt lat="43.468376" lon="-5.6014676">
        <ele>327.0</ele>
        <time>2021-02-14T09:40:43Z</time>
      </trkpt>
      <trkpt lat="43.46837" lon="-5.601464">
        <ele>327.0</ele>
        <time>2021-02-14T09:40:44Z</time>
      </trkpt>
      <trkpt lat="43.46837" lon="-5.601459">
        <ele>327.0</ele>
        <time>2021-02-14T09:40:45Z</time>
      </trkpt>
      <trkpt lat="43.468365" lon="-5.6014543">
        <ele>327.0</ele>
        <time>2021-02-14T09:40:46Z</time>
      </trkpt>
      <trkpt lat="43.46836" lon="-5.601449">
        <ele>327.0</ele>
        <time>2021-02-14T09:40:47Z</time>
      </trkpt>
      <trkpt lat="43.468353" lon="-5.6014414">
        <ele>327.0</ele>
        <time>2021-02-14T09:40:48Z</time>
      </trkpt>
      <trkpt lat="43.46835" lon="-5.6014304">
        <ele>327.0</ele>
        <time>2021-02-14T09:40:49Z</time>
      </trkpt>
      <trkpt lat="43.468346" lon="-5.601417">
        <ele>327.0</ele>
        <time>2021-02-14T09:40:50Z</time>
      </trkpt>
      <trkpt lat="43.468338" lon="-5.6014004">
        <ele>327.0</ele>
        <time>2021-02-14T09:40:51Z</time>
      </trkpt>
      <trkpt lat="43.468338" lon="-5.601385">
        <ele>327.0</ele>
        <time>2021-02-14T09:40:52Z</time>
      </trkpt>
      <trkpt lat="43.468334" lon="-5.6013722">
        <ele>327.0</ele>
        <time>2021-02-14T09:40:53Z</time>
      </trkpt>
      <trkpt lat="43.46833" lon="-5.6013618">
        <ele>327.0</ele>
        <time>2021-02-14T09:40:54Z</time>
      </trkpt>
      <trkpt lat="43.46833" lon="-5.601356">
        <ele>327.0</ele>
        <time>2021-02-14T09:40:55Z</time>
      </trkpt>
      <trkpt lat="43.468323" lon="-5.6013536">
        <ele>327.0</ele>
        <time>2021-02-14T09:40:56Z</time>
      </trkpt>
      <trkpt lat="43.46832" lon="-5.6013503">
        <ele>327.0</ele>
        <time>2021-02-14T09:40:57Z</time>
      </trkpt>
      <trkpt lat="43.46832" lon="-5.601343">
        <ele>327.0</ele>
        <time>2021-02-14T09:40:58Z</time>
      </trkpt>
      <trkpt lat="43.468307" lon="-5.6013317">
        <ele>327.0</ele>
        <time>2021-02-14T09:40:59Z</time>
      </trkpt>
      <trkpt lat="43.468304" lon="-5.601319">
        <ele>327.0</ele>
        <time>2021-02-14T09:41:00Z</time>
      </trkpt>
      <trkpt lat="43.468292" lon="-5.601307">
        <ele>327.0</ele>
        <time>2021-02-14T09:41:01Z</time>
      </trkpt>
      <trkpt lat="43.46829" lon="-5.601296">
        <ele>327.0</ele>
        <time>2021-02-14T09:41:02Z</time>
      </trkpt>
      <trkpt lat="43.468285" lon="-5.6012883">
        <ele>326.0</ele>
        <time>2021-02-14T09:41:03Z</time>
      </trkpt>
      <trkpt lat="43.468277" lon="-5.601282">
        <ele>326.0</ele>
        <time>2021-02-14T09:41:04Z</time>
      </trkpt>
      <trkpt lat="43.46827" lon="-5.6012774">
        <ele>326.0</ele>
        <time>2021-02-14T09:41:05Z</time>
      </trkpt>
      <trkpt lat="43.46826" lon="-5.6012716">
        <ele>326.0</ele>
        <time>2021-02-14T09:41:06Z</time>
      </trkpt>
      <trkpt lat="43.468258" lon="-5.6012664">
        <ele>326.0</ele>
        <time>2021-02-14T09:41:07Z</time>
      </trkpt>
      <trkpt lat="43.468246" lon="-5.601264">
        <ele>325.0</ele>
        <time>2021-02-14T09:41:08Z</time>
      </trkpt>
      <trkpt lat="43.468243" lon="-5.601264">
        <ele>325.0</ele>
        <time>2021-02-14T09:41:10Z</time>
      </trkpt>
      <trkpt lat="43.46823" lon="-5.601264">
        <ele>325.0</ele>
        <time>2021-02-14T09:41:10Z</time>
      </trkpt>
      <trkpt lat="43.468227" lon="-5.6012645">
        <ele>325.0</ele>
        <time>2021-02-14T09:41:11Z</time>
      </trkpt>
      <trkpt lat="43.468216" lon="-5.6012626">
        <ele>325.0</ele>
        <time>2021-02-14T09:41:12Z</time>
      </trkpt>
      <trkpt lat="43.468212" lon="-5.6012588">
        <ele>325.0</ele>
        <time>2021-02-14T09:41:13Z</time>
      </trkpt>
      <trkpt lat="43.468204" lon="-5.601255">
        <ele>325.0</ele>
        <time>2021-02-14T09:41:14Z</time>
      </trkpt>
      <trkpt lat="43.468204" lon="-5.601251">
        <ele>324.0</ele>
        <time>2021-02-14T09:41:15Z</time>
      </trkpt>
      <trkpt lat="43.4682" lon="-5.601246">
        <ele>324.0</ele>
        <time>2021-02-14T09:41:16Z</time>
      </trkpt>
      <trkpt lat="43.468197" lon="-5.601239">
        <ele>324.0</ele>
        <time>2021-02-14T09:41:18Z</time>
      </trkpt>
      <trkpt lat="43.468197" lon="-5.6012316">
        <ele>324.0</ele>
        <time>2021-02-14T09:41:18Z</time>
      </trkpt>
      <trkpt lat="43.46819" lon="-5.6012244">
        <ele>324.0</ele>
        <time>2021-02-14T09:41:19Z</time>
      </trkpt>
      <trkpt lat="43.46819" lon="-5.6012187">
        <ele>324.0</ele>
        <time>2021-02-14T09:41:20Z</time>
      </trkpt>
      <trkpt lat="43.46819" lon="-5.6012135">
        <ele>324.0</ele>
        <time>2021-02-14T09:41:21Z</time>
      </trkpt>
      <trkpt lat="43.46819" lon="-5.601208">
        <ele>324.0</ele>
        <time>2021-02-14T09:41:22Z</time>
      </trkpt>
      <trkpt lat="43.468185" lon="-5.601201">
        <ele>324.0</ele>
        <time>2021-02-14T09:41:23Z</time>
      </trkpt>
      <trkpt lat="43.468185" lon="-5.6011944">
        <ele>324.0</ele>
        <time>2021-02-14T09:41:25Z</time>
      </trkpt>
      <trkpt lat="43.46818" lon="-5.6011767">
        <ele>323.0</ele>
        <time>2021-02-14T09:41:26Z</time>
      </trkpt>
      <trkpt lat="43.46818" lon="-5.6011763">
        <ele>323.0</ele>
        <time>2021-02-14T09:41:27Z</time>
      </trkpt>
      <trkpt lat="43.468174" lon="-5.601176">
        <ele>323.0</ele>
        <time>2021-02-14T09:41:28Z</time>
      </trkpt>
      <trkpt lat="43.468174" lon="-5.6011724">
        <ele>323.0</ele>
        <time>2021-02-14T09:41:29Z</time>
      </trkpt>
      <trkpt lat="43.46817" lon="-5.601168">
        <ele>323.0</ele>
        <time>2021-02-14T09:41:30Z</time>
      </trkpt>
      <trkpt lat="43.468166" lon="-5.6011615">
        <ele>323.0</ele>
        <time>2021-02-14T09:41:31Z</time>
      </trkpt>
      <trkpt lat="43.46816" lon="-5.6011558">
        <ele>323.0</ele>
        <time>2021-02-14T09:41:32Z</time>
      </trkpt>
      <trkpt lat="43.46816" lon="-5.6011496">
        <ele>323.0</ele>
        <time>2021-02-14T09:41:33Z</time>
      </trkpt>
      <trkpt lat="43.468155" lon="-5.6011443">
        <ele>323.0</ele>
        <time>2021-02-14T09:41:34Z</time>
      </trkpt>
      <trkpt lat="43.46815" lon="-5.6011386">
        <ele>323.0</ele>
        <time>2021-02-14T09:41:35Z</time>
      </trkpt>
      <trkpt lat="43.46814" lon="-5.6011324">
        <ele>323.0</ele>
        <time>2021-02-14T09:41:36Z</time>
      </trkpt>
      <trkpt lat="43.468136" lon="-5.6011257">
        <ele>323.0</ele>
        <time>2021-02-14T09:41:37Z</time>
      </trkpt>
      <trkpt lat="43.46813" lon="-5.601118">
        <ele>322.0</ele>
        <time>2021-02-14T09:41:38Z</time>
      </trkpt>
      <trkpt lat="43.46813" lon="-5.6011105">
        <ele>322.0</ele>
        <time>2021-02-14T09:41:39Z</time>
      </trkpt>
      <trkpt lat="43.46813" lon="-5.601102">
        <ele>322.0</ele>
        <time>2021-02-14T09:41:40Z</time>
      </trkpt>
      <trkpt lat="43.46813" lon="-5.6010923">
        <ele>322.0</ele>
        <time>2021-02-14T09:41:41Z</time>
      </trkpt>
      <trkpt lat="43.468124" lon="-5.6010823">
        <ele>322.0</ele>
        <time>2021-02-14T09:41:42Z</time>
      </trkpt>
      <trkpt lat="43.468124" lon="-5.601071">
        <ele>321.0</ele>
        <time>2021-02-14T09:41:43Z</time>
      </trkpt>
      <trkpt lat="43.46812" lon="-5.601057">
        <ele>321.0</ele>
        <time>2021-02-14T09:41:44Z</time>
      </trkpt>
      <trkpt lat="43.46812" lon="-5.6010437">
        <ele>321.0</ele>
        <time>2021-02-14T09:41:45Z</time>
      </trkpt>
      <trkpt lat="43.468113" lon="-5.6010323">
        <ele>321.0</ele>
        <time>2021-02-14T09:41:46Z</time>
      </trkpt>
      <trkpt lat="43.46811" lon="-5.6010222">
        <ele>321.0</ele>
        <time>2021-02-14T09:41:47Z</time>
      </trkpt>
      <trkpt lat="43.468105" lon="-5.6010118">
        <ele>320.0</ele>
        <time>2021-02-14T09:41:48Z</time>
      </trkpt>
      <trkpt lat="43.468098" lon="-5.601002">
        <ele>320.0</ele>
        <time>2021-02-14T09:41:49Z</time>
      </trkpt>
      <trkpt lat="43.468098" lon="-5.6009927">
        <ele>320.0</ele>
        <time>2021-02-14T09:41:50Z</time>
      </trkpt>
      <trkpt lat="43.468094" lon="-5.600985">
        <ele>320.0</ele>
        <time>2021-02-14T09:41:51Z</time>
      </trkpt>
      <trkpt lat="43.468082" lon="-5.6009784">
        <ele>320.0</ele>
        <time>2021-02-14T09:41:52Z</time>
      </trkpt>
      <trkpt lat="43.46808" lon="-5.6009717">
        <ele>319.0</ele>
        <time>2021-02-14T09:41:53Z</time>
      </trkpt>
      <trkpt lat="43.468063" lon="-5.600964">
        <ele>319.0</ele>
        <time>2021-02-14T09:41:54Z</time>
      </trkpt>
      <trkpt lat="43.468052" lon="-5.6009536">
        <ele>319.0</ele>
        <time>2021-02-14T09:41:55Z</time>
      </trkpt>
      <trkpt lat="43.46805" lon="-5.6009407">
        <ele>319.0</ele>
        <time>2021-02-14T09:41:56Z</time>
      </trkpt>
      <trkpt lat="43.46804" lon="-5.6009293">
        <ele>319.0</ele>
        <time>2021-02-14T09:41:57Z</time>
      </trkpt>
      <trkpt lat="43.468037" lon="-5.6009183">
        <ele>318.0</ele>
        <time>2021-02-14T09:41:58Z</time>
      </trkpt>
      <trkpt lat="43.468037" lon="-5.6009088">
        <ele>318.0</ele>
        <time>2021-02-14T09:41:59Z</time>
      </trkpt>
      <trkpt lat="43.468033" lon="-5.6009007">
        <ele>318.0</ele>
        <time>2021-02-14T09:42:00Z</time>
      </trkpt>
      <trkpt lat="43.468025" lon="-5.6008916">
        <ele>318.0</ele>
        <time>2021-02-14T09:42:01Z</time>
      </trkpt>
      <trkpt lat="43.468025" lon="-5.600883">
        <ele>318.0</ele>
        <time>2021-02-14T09:42:02Z</time>
      </trkpt>
      <trkpt lat="43.46802" lon="-5.6008744">
        <ele>317.0</ele>
        <time>2021-02-14T09:42:03Z</time>
      </trkpt>
      <trkpt lat="43.46802" lon="-5.6008635">
        <ele>317.0</ele>
        <time>2021-02-14T09:42:04Z</time>
      </trkpt>
      <trkpt lat="43.468018" lon="-5.600852">
        <ele>317.0</ele>
        <time>2021-02-14T09:42:05Z</time>
      </trkpt>
      <trkpt lat="43.46801" lon="-5.600843">
        <ele>317.0</ele>
        <time>2021-02-14T09:42:06Z</time>
      </trkpt>
      <trkpt lat="43.468002" lon="-5.600836">
        <ele>317.0</ele>
        <time>2021-02-14T09:42:07Z</time>
      </trkpt>
      <trkpt lat="43.467995" lon="-5.600828">
        <ele>316.0</ele>
        <time>2021-02-14T09:42:08Z</time>
      </trkpt>
      <trkpt lat="43.46799" lon="-5.600819">
        <ele>316.0</ele>
        <time>2021-02-14T09:42:09Z</time>
      </trkpt>
      <trkpt lat="43.46799" lon="-5.6008096">
        <ele>316.0</ele>
        <time>2021-02-14T09:42:10Z</time>
      </trkpt>
      <trkpt lat="43.467987" lon="-5.6008">
        <ele>316.0</ele>
        <time>2021-02-14T09:42:11Z</time>
      </trkpt>
      <trkpt lat="43.46798" lon="-5.600789">
        <ele>316.0</ele>
        <time>2021-02-14T09:42:12Z</time>
      </trkpt>
      <trkpt lat="43.467976" lon="-5.600777">
        <ele>316.0</ele>
        <time>2021-02-14T09:42:13Z</time>
      </trkpt>
      <trkpt lat="43.467976" lon="-5.600765">
        <ele>316.0</ele>
        <time>2021-02-14T09:42:15Z</time>
      </trkpt>
      <trkpt lat="43.46797" lon="-5.600753">
        <ele>316.0</ele>
        <time>2021-02-14T09:42:15Z</time>
      </trkpt>
      <trkpt lat="43.46797" lon="-5.600739">
        <ele>315.0</ele>
        <time>2021-02-14T09:42:16Z</time>
      </trkpt>
      <trkpt lat="43.46797" lon="-5.6007266">
        <ele>315.0</ele>
        <time>2021-02-14T09:42:17Z</time>
      </trkpt>
      <trkpt lat="43.46797" lon="-5.6007137">
        <ele>315.0</ele>
        <time>2021-02-14T09:42:18Z</time>
      </trkpt>
      <trkpt lat="43.46797" lon="-5.600701">
        <ele>315.0</ele>
        <time>2021-02-14T09:42:19Z</time>
      </trkpt>
      <trkpt lat="43.46796" lon="-5.6006885">
        <ele>315.0</ele>
        <time>2021-02-14T09:42:21Z</time>
      </trkpt>
      <trkpt lat="43.467957" lon="-5.600678">
        <ele>315.0</ele>
        <time>2021-02-14T09:42:21Z</time>
      </trkpt>
      <trkpt lat="43.46795" lon="-5.600666">
        <ele>314.0</ele>
        <time>2021-02-14T09:42:22Z</time>
      </trkpt>
      <trkpt lat="43.467945" lon="-5.6006517">
        <ele>314.0</ele>
        <time>2021-02-14T09:42:23Z</time>
      </trkpt>
      <trkpt lat="43.46794" lon="-5.600637">
        <ele>314.0</ele>
        <time>2021-02-14T09:42:24Z</time>
      </trkpt>
      <trkpt lat="43.467934" lon="-5.6006227">
        <ele>314.0</ele>
        <time>2021-02-14T09:42:25Z</time>
      </trkpt>
      <trkpt lat="43.467934" lon="-5.60061">
        <ele>313.0</ele>
        <time>2021-02-14T09:42:26Z</time>
      </trkpt>
      <trkpt lat="43.467934" lon="-5.600598">
        <ele>313.0</ele>
        <time>2021-02-14T09:42:27Z</time>
      </trkpt>
      <trkpt lat="43.46793" lon="-5.600585">
        <ele>313.0</ele>
        <time>2021-02-14T09:42:29Z</time>
      </trkpt>
      <trkpt lat="43.46793" lon="-5.6005735">
        <ele>313.0</ele>
        <time>2021-02-14T09:42:29Z</time>
      </trkpt>
      <trkpt lat="43.467926" lon="-5.6005626">
        <ele>313.0</ele>
        <time>2021-02-14T09:42:30Z</time>
      </trkpt>
      <trkpt lat="43.467915" lon="-5.600534">
        <ele>312.0</ele>
        <time>2021-02-14T09:42:32Z</time>
      </trkpt>
      <trkpt lat="43.467915" lon="-5.600532">
        <ele>312.0</ele>
        <time>2021-02-14T09:42:33Z</time>
      </trkpt>
      <trkpt lat="43.46791" lon="-5.6005287">
        <ele>312.0</ele>
        <time>2021-02-14T09:42:34Z</time>
      </trkpt>
      <trkpt lat="43.467903" lon="-5.600526">
        <ele>312.0</ele>
        <time>2021-02-14T09:42:35Z</time>
      </trkpt>
      <trkpt lat="43.4679" lon="-5.6005216">
        <ele>311.0</ele>
        <time>2021-02-14T09:42:36Z</time>
      </trkpt>
      <trkpt lat="43.467888" lon="-5.6005154">
        <ele>311.0</ele>
        <time>2021-02-14T09:42:38Z</time>
      </trkpt>
      <trkpt lat="43.467888" lon="-5.6005034">
        <ele>311.0</ele>
        <time>2021-02-14T09:42:38Z</time>
      </trkpt>
      <trkpt lat="43.467884" lon="-5.6004915">
        <ele>311.0</ele>
        <time>2021-02-14T09:42:39Z</time>
      </trkpt>
      <trkpt lat="43.467884" lon="-5.6004806">
        <ele>310.0</ele>
        <time>2021-02-14T09:42:40Z</time>
      </trkpt>
      <trkpt lat="43.467884" lon="-5.6004705">
        <ele>310.0</ele>
        <time>2021-02-14T09:42:41Z</time>
      </trkpt>
      <trkpt lat="43.467884" lon="-5.600461">
        <ele>310.0</ele>
        <time>2021-02-14T09:42:42Z</time>
      </trkpt>
      <trkpt lat="43.46788" lon="-5.6004505">
        <ele>310.0</ele>
        <time>2021-02-14T09:42:43Z</time>
      </trkpt>
      <trkpt lat="43.467873" lon="-5.6004395">
        <ele>309.0</ele>
        <time>2021-02-14T09:42:44Z</time>
      </trkpt>
      <trkpt lat="43.467873" lon="-5.6004295">
        <ele>309.0</ele>
        <time>2021-02-14T09:42:45Z</time>
      </trkpt>
      <trkpt lat="43.467873" lon="-5.600419">
        <ele>309.0</ele>
        <time>2021-02-14T09:42:46Z</time>
      </trkpt>
      <trkpt lat="43.467873" lon="-5.6004095">
        <ele>309.0</ele>
        <time>2021-02-14T09:42:47Z</time>
      </trkpt>
      <trkpt lat="43.46787" lon="-5.6003985">
        <ele>309.0</ele>
        <time>2021-02-14T09:42:48Z</time>
      </trkpt>
      <trkpt lat="43.46787" lon="-5.6003885">
        <ele>309.0</ele>
        <time>2021-02-14T09:42:49Z</time>
      </trkpt>
      <trkpt lat="43.46786" lon="-5.6003776">
        <ele>309.0</ele>
        <time>2021-02-14T09:42:50Z</time>
      </trkpt>
      <trkpt lat="43.467857" lon="-5.6003666">
        <ele>309.0</ele>
        <time>2021-02-14T09:42:51Z</time>
      </trkpt>
      <trkpt lat="43.467854" lon="-5.6003566">
        <ele>309.0</ele>
        <time>2021-02-14T09:42:52Z</time>
      </trkpt>
      <trkpt lat="43.467854" lon="-5.6003437">
        <ele>308.0</ele>
        <time>2021-02-14T09:42:53Z</time>
      </trkpt>
      <trkpt lat="43.467846" lon="-5.600331">
        <ele>308.0</ele>
        <time>2021-02-14T09:42:55Z</time>
      </trkpt>
      <trkpt lat="43.467846" lon="-5.600317">
        <ele>308.0</ele>
        <time>2021-02-14T09:42:55Z</time>
      </trkpt>
      <trkpt lat="43.467846" lon="-5.600303">
        <ele>308.0</ele>
        <time>2021-02-14T09:42:56Z</time>
      </trkpt>
      <trkpt lat="43.467842" lon="-5.6002893">
        <ele>307.0</ele>
        <time>2021-02-14T09:42:57Z</time>
      </trkpt>
      <trkpt lat="43.46784" lon="-5.600276">
        <ele>307.0</ele>
        <time>2021-02-14T09:42:58Z</time>
      </trkpt>
      <trkpt lat="43.46783" lon="-5.6002617">
        <ele>307.0</ele>
        <time>2021-02-14T09:42:59Z</time>
      </trkpt>
      <trkpt lat="43.46783" lon="-5.600248">
        <ele>307.0</ele>
        <time>2021-02-14T09:43:01Z</time>
      </trkpt>
      <trkpt lat="43.467827" lon="-5.6002316">
        <ele>306.0</ele>
        <time>2021-02-14T09:43:01Z</time>
      </trkpt>
      <trkpt lat="43.46783" lon="-5.6002164">
        <ele>306.0</ele>
        <time>2021-02-14T09:43:02Z</time>
      </trkpt>
      <trkpt lat="43.46784" lon="-5.600198">
        <ele>306.0</ele>
        <time>2021-02-14T09:43:03Z</time>
      </trkpt>
      <trkpt lat="43.467846" lon="-5.6001787">
        <ele>306.0</ele>
        <time>2021-02-14T09:43:04Z</time>
      </trkpt>
      <trkpt lat="43.467854" lon="-5.600161">
        <ele>306.0</ele>
        <time>2021-02-14T09:43:05Z</time>
      </trkpt>
      <trkpt lat="43.467857" lon="-5.6001453">
        <ele>305.0</ele>
        <time>2021-02-14T09:43:06Z</time>
      </trkpt>
      <trkpt lat="43.467857" lon="-5.600129">
        <ele>305.0</ele>
        <time>2021-02-14T09:43:07Z</time>
      </trkpt>
      <trkpt lat="43.467857" lon="-5.6001177">
        <ele>305.0</ele>
        <time>2021-02-14T09:43:08Z</time>
      </trkpt>
      <trkpt lat="43.467854" lon="-5.6001077">
        <ele>304.0</ele>
        <time>2021-02-14T09:43:10Z</time>
      </trkpt>
      <trkpt lat="43.467846" lon="-5.6000986">
        <ele>304.0</ele>
        <time>2021-02-14T09:43:10Z</time>
      </trkpt>
      <trkpt lat="43.467842" lon="-5.6000896">
        <ele>304.0</ele>
        <time>2021-02-14T09:43:11Z</time>
      </trkpt>
      <trkpt lat="43.46783" lon="-5.6000657">
        <ele>304.0</ele>
        <time>2021-02-14T09:43:13Z</time>
      </trkpt>
      <trkpt lat="43.46783" lon="-5.600064">
        <ele>303.0</ele>
        <time>2021-02-14T09:43:14Z</time>
      </trkpt>
      <trkpt lat="43.467827" lon="-5.600061">
        <ele>303.0</ele>
        <time>2021-02-14T09:43:15Z</time>
      </trkpt>
      <trkpt lat="43.467827" lon="-5.6000576">
        <ele>303.0</ele>
        <time>2021-02-14T09:43:16Z</time>
      </trkpt>
      <trkpt lat="43.467823" lon="-5.6000504">
        <ele>303.0</ele>
        <time>2021-02-14T09:43:17Z</time>
      </trkpt>
      <trkpt lat="43.467823" lon="-5.6000423">
        <ele>302.0</ele>
        <time>2021-02-14T09:43:19Z</time>
      </trkpt>
      <trkpt lat="43.467815" lon="-5.6000347">
        <ele>302.0</ele>
        <time>2021-02-14T09:43:19Z</time>
      </trkpt>
      <trkpt lat="43.467815" lon="-5.600025">
        <ele>302.0</ele>
        <time>2021-02-14T09:43:20Z</time>
      </trkpt>
      <trkpt lat="43.46781" lon="-5.600011">
        <ele>302.0</ele>
        <time>2021-02-14T09:43:21Z</time>
      </trkpt>
      <trkpt lat="43.4678" lon="-5.5999947">
        <ele>302.0</ele>
        <time>2021-02-14T09:43:22Z</time>
      </trkpt>
      <trkpt lat="43.467796" lon="-5.5999794">
        <ele>302.0</ele>
        <time>2021-02-14T09:43:23Z</time>
      </trkpt>
      <trkpt lat="43.467785" lon="-5.599964">
        <ele>301.0</ele>
        <time>2021-02-14T09:43:24Z</time>
      </trkpt>
      <trkpt lat="43.467777" lon="-5.5999513">
        <ele>301.0</ele>
        <time>2021-02-14T09:43:25Z</time>
      </trkpt>
      <trkpt lat="43.467766" lon="-5.5999355">
        <ele>301.0</ele>
        <time>2021-02-14T09:43:27Z</time>
      </trkpt>
      <trkpt lat="43.467754" lon="-5.599919">
        <ele>301.0</ele>
        <time>2021-02-14T09:43:27Z</time>
      </trkpt>
      <trkpt lat="43.46775" lon="-5.599906">
        <ele>300.0</ele>
        <time>2021-02-14T09:43:28Z</time>
      </trkpt>
      <trkpt lat="43.467747" lon="-5.5998945">
        <ele>300.0</ele>
        <time>2021-02-14T09:43:29Z</time>
      </trkpt>
      <trkpt lat="43.46774" lon="-5.599885">
        <ele>300.0</ele>
        <time>2021-02-14T09:43:30Z</time>
      </trkpt>
      <trkpt lat="43.467735" lon="-5.5998726">
        <ele>300.0</ele>
        <time>2021-02-14T09:43:31Z</time>
      </trkpt>
      <trkpt lat="43.467724" lon="-5.5998607">
        <ele>299.0</ele>
        <time>2021-02-14T09:43:32Z</time>
      </trkpt>
      <trkpt lat="43.467716" lon="-5.599848">
        <ele>299.0</ele>
        <time>2021-02-14T09:43:33Z</time>
      </trkpt>
      <trkpt lat="43.4677" lon="-5.599835">
        <ele>299.0</ele>
        <time>2021-02-14T09:43:35Z</time>
      </trkpt>
      <trkpt lat="43.46769" lon="-5.5998244">
        <ele>299.0</ele>
        <time>2021-02-14T09:43:35Z</time>
      </trkpt>
      <trkpt lat="43.467678" lon="-5.5998144">
        <ele>298.0</ele>
        <time>2021-02-14T09:43:36Z</time>
      </trkpt>
      <trkpt lat="43.467667" lon="-5.599802">
        <ele>298.0</ele>
        <time>2021-02-14T09:43:37Z</time>
      </trkpt>
      <trkpt lat="43.46765" lon="-5.5997896">
        <ele>298.0</ele>
        <time>2021-02-14T09:43:38Z</time>
      </trkpt>
      <trkpt lat="43.467644" lon="-5.5997753">
        <ele>298.0</ele>
        <time>2021-02-14T09:43:39Z</time>
      </trkpt>
      <trkpt lat="43.467636" lon="-5.5997634">
        <ele>297.0</ele>
        <time>2021-02-14T09:43:40Z</time>
      </trkpt>
      <trkpt lat="43.46763" lon="-5.5997505">
        <ele>297.0</ele>
        <time>2021-02-14T09:43:41Z</time>
      </trkpt>
      <trkpt lat="43.46762" lon="-5.5997396">
        <ele>297.0</ele>
        <time>2021-02-14T09:43:42Z</time>
      </trkpt>
      <trkpt lat="43.467613" lon="-5.599728">
        <ele>297.0</ele>
        <time>2021-02-14T09:43:44Z</time>
      </trkpt>
      <trkpt lat="43.4676" lon="-5.5997167">
        <ele>296.0</ele>
        <time>2021-02-14T09:43:44Z</time>
      </trkpt>
      <trkpt lat="43.467598" lon="-5.599706">
        <ele>296.0</ele>
        <time>2021-02-14T09:43:45Z</time>
      </trkpt>
      <trkpt lat="43.467587" lon="-5.5996943">
        <ele>296.0</ele>
        <time>2021-02-14T09:43:46Z</time>
      </trkpt>
      <trkpt lat="43.467575" lon="-5.5996833">
        <ele>296.0</ele>
        <time>2021-02-14T09:43:47Z</time>
      </trkpt>
      <trkpt lat="43.467567" lon="-5.599673">
        <ele>295.0</ele>
        <time>2021-02-14T09:43:48Z</time>
      </trkpt>
      <trkpt lat="43.467556" lon="-5.599663">
        <ele>295.0</ele>
        <time>2021-02-14T09:43:49Z</time>
      </trkpt>
      <trkpt lat="43.467545" lon="-5.5996532">
        <ele>295.0</ele>
        <time>2021-02-14T09:43:50Z</time>
      </trkpt>
      <trkpt lat="43.46753" lon="-5.5996437">
        <ele>295.0</ele>
        <time>2021-02-14T09:43:51Z</time>
      </trkpt>
      <trkpt lat="43.46752" lon="-5.599635">
        <ele>294.0</ele>
        <time>2021-02-14T09:43:53Z</time>
      </trkpt>
      <trkpt lat="43.467506" lon="-5.599625">
        <ele>294.0</ele>
        <time>2021-02-14T09:43:53Z</time>
      </trkpt>
      <trkpt lat="43.467495" lon="-5.5996137">
        <ele>294.0</ele>
        <time>2021-02-14T09:43:54Z</time>
      </trkpt>
      <trkpt lat="43.46748" lon="-5.5996013">
        <ele>294.0</ele>
        <time>2021-02-14T09:43:55Z</time>
      </trkpt>
      <trkpt lat="43.467464" lon="-5.59959">
        <ele>294.0</ele>
        <time>2021-02-14T09:43:56Z</time>
      </trkpt>
      <trkpt lat="43.467453" lon="-5.599579">
        <ele>293.0</ele>
        <time>2021-02-14T09:43:57Z</time>
      </trkpt>
      <trkpt lat="43.46744" lon="-5.5995674">
        <ele>293.0</ele>
        <time>2021-02-14T09:43:58Z</time>
      </trkpt>
      <trkpt lat="43.467438" lon="-5.599557">
        <ele>293.0</ele>
        <time>2021-02-14T09:43:59Z</time>
      </trkpt>
      <trkpt lat="43.467426" lon="-5.599549">
        <ele>293.0</ele>
        <time>2021-02-14T09:44:00Z</time>
      </trkpt>
      <trkpt lat="43.46742" lon="-5.5995407">
        <ele>293.0</ele>
        <time>2021-02-14T09:44:01Z</time>
      </trkpt>
      <trkpt lat="43.46741" lon="-5.599532">
        <ele>293.0</ele>
        <time>2021-02-14T09:44:02Z</time>
      </trkpt>
      <trkpt lat="43.467403" lon="-5.599522">
        <ele>293.0</ele>
        <time>2021-02-14T09:44:03Z</time>
      </trkpt>
      <trkpt lat="43.467392" lon="-5.5995083">
        <ele>293.0</ele>
        <time>2021-02-14T09:44:04Z</time>
      </trkpt>
      <trkpt lat="43.46739" lon="-5.599492">
        <ele>293.0</ele>
        <time>2021-02-14T09:44:05Z</time>
      </trkpt>
      <trkpt lat="43.467377" lon="-5.599474">
        <ele>293.0</ele>
        <time>2021-02-14T09:44:06Z</time>
      </trkpt>
      <trkpt lat="43.467373" lon="-5.5994596">
        <ele>292.0</ele>
        <time>2021-02-14T09:44:07Z</time>
      </trkpt>
      <trkpt lat="43.467365" lon="-5.5994425">
        <ele>292.0</ele>
        <time>2021-02-14T09:44:08Z</time>
      </trkpt>
      <trkpt lat="43.46736" lon="-5.599427">
        <ele>292.0</ele>
        <time>2021-02-14T09:44:08Z</time>
      </trkpt>
      <trkpt lat="43.46736" lon="-5.599414">
        <ele>292.0</ele>
        <time>2021-02-14T09:44:09Z</time>
      </trkpt>
      <trkpt lat="43.467358" lon="-5.5993996">
        <ele>292.0</ele>
        <time>2021-02-14T09:44:10Z</time>
      </trkpt>
      <trkpt lat="43.467358" lon="-5.5993867">
        <ele>291.0</ele>
        <time>2021-02-14T09:44:11Z</time>
      </trkpt>
      <trkpt lat="43.46735" lon="-5.5993743">
        <ele>291.0</ele>
        <time>2021-02-14T09:44:12Z</time>
      </trkpt>
      <trkpt lat="43.467346" lon="-5.5993614">
        <ele>291.0</ele>
        <time>2021-02-14T09:44:13Z</time>
      </trkpt>
      <trkpt lat="43.467346" lon="-5.5993485">
        <ele>291.0</ele>
        <time>2021-02-14T09:44:14Z</time>
      </trkpt>
      <trkpt lat="43.467342" lon="-5.5993323">
        <ele>291.0</ele>
        <time>2021-02-14T09:44:15Z</time>
      </trkpt>
      <trkpt lat="43.467342" lon="-5.5993166">
        <ele>290.0</ele>
        <time>2021-02-14T09:44:16Z</time>
      </trkpt>
      <trkpt lat="43.467335" lon="-5.5993">
        <ele>290.0</ele>
        <time>2021-02-14T09:44:17Z</time>
      </trkpt>
      <trkpt lat="43.467335" lon="-5.599285">
        <ele>290.0</ele>
        <time>2021-02-14T09:44:18Z</time>
      </trkpt>
      <trkpt lat="43.46733" lon="-5.5992703">
        <ele>290.0</ele>
        <time>2021-02-14T09:44:19Z</time>
      </trkpt>
      <trkpt lat="43.467327" lon="-5.5992556">
        <ele>290.0</ele>
        <time>2021-02-14T09:44:21Z</time>
      </trkpt>
      <trkpt lat="43.467327" lon="-5.599241">
        <ele>290.0</ele>
        <time>2021-02-14T09:44:21Z</time>
      </trkpt>
      <trkpt lat="43.46732" lon="-5.5992265">
        <ele>290.0</ele>
        <time>2021-02-14T09:44:22Z</time>
      </trkpt>
      <trkpt lat="43.467316" lon="-5.5992126">
        <ele>290.0</ele>
        <time>2021-02-14T09:44:23Z</time>
      </trkpt>
      <trkpt lat="43.46731" lon="-5.599201">
        <ele>290.0</ele>
        <time>2021-02-14T09:44:24Z</time>
      </trkpt>
      <trkpt lat="43.4673" lon="-5.59919">
        <ele>289.0</ele>
        <time>2021-02-14T09:44:25Z</time>
      </trkpt>
      <trkpt lat="43.467297" lon="-5.599179">
        <ele>289.0</ele>
        <time>2021-02-14T09:44:26Z</time>
      </trkpt>
      <trkpt lat="43.46729" lon="-5.599168">
        <ele>289.0</ele>
        <time>2021-02-14T09:44:27Z</time>
      </trkpt>
      <trkpt lat="43.467285" lon="-5.5991573">
        <ele>289.0</ele>
        <time>2021-02-14T09:44:28Z</time>
      </trkpt>
      <trkpt lat="43.467278" lon="-5.5991454">
        <ele>289.0</ele>
        <time>2021-02-14T09:44:29Z</time>
      </trkpt>
      <trkpt lat="43.46727" lon="-5.5991354">
        <ele>289.0</ele>
        <time>2021-02-14T09:44:30Z</time>
      </trkpt>
      <trkpt lat="43.467262" lon="-5.5991244">
        <ele>289.0</ele>
        <time>2021-02-14T09:44:31Z</time>
      </trkpt>
      <trkpt lat="43.46726" lon="-5.5991144">
        <ele>289.0</ele>
        <time>2021-02-14T09:44:32Z</time>
      </trkpt>
      <trkpt lat="43.467255" lon="-5.5991035">
        <ele>289.0</ele>
        <time>2021-02-14T09:44:33Z</time>
      </trkpt>
      <trkpt lat="43.467255" lon="-5.599094">
        <ele>289.0</ele>
        <time>2021-02-14T09:44:34Z</time>
      </trkpt>
      <trkpt lat="43.467247" lon="-5.5990863">
        <ele>289.0</ele>
        <time>2021-02-14T09:44:35Z</time>
      </trkpt>
      <trkpt lat="43.467243" lon="-5.599079">
        <ele>289.0</ele>
        <time>2021-02-14T09:44:36Z</time>
      </trkpt>
      <trkpt lat="43.46724" lon="-5.5990734">
        <ele>289.0</ele>
        <time>2021-02-14T09:44:38Z</time>
      </trkpt>
      <trkpt lat="43.46723" lon="-5.5990667">
        <ele>289.0</ele>
        <time>2021-02-14T09:44:38Z</time>
      </trkpt>
      <trkpt lat="43.467228" lon="-5.5990567">
        <ele>289.0</ele>
        <time>2021-02-14T09:44:39Z</time>
      </trkpt>
      <trkpt lat="43.467228" lon="-5.599047">
        <ele>289.0</ele>
        <time>2021-02-14T09:44:40Z</time>
      </trkpt>
      <trkpt lat="43.467224" lon="-5.5990357">
        <ele>289.0</ele>
        <time>2021-02-14T09:44:41Z</time>
      </trkpt>
      <trkpt lat="43.467216" lon="-5.599024">
        <ele>289.0</ele>
        <time>2021-02-14T09:44:42Z</time>
      </trkpt>
      <trkpt lat="43.467213" lon="-5.5990124">
        <ele>289.0</ele>
        <time>2021-02-14T09:44:43Z</time>
      </trkpt>
      <trkpt lat="43.467213" lon="-5.5990005">
        <ele>289.0</ele>
        <time>2021-02-14T09:44:44Z</time>
      </trkpt>
      <trkpt lat="43.467213" lon="-5.598987">
        <ele>289.0</ele>
        <time>2021-02-14T09:44:45Z</time>
      </trkpt>
      <trkpt lat="43.46721" lon="-5.5989747">
        <ele>289.0</ele>
        <time>2021-02-14T09:44:46Z</time>
      </trkpt>
      <trkpt lat="43.46721" lon="-5.598961">
        <ele>289.0</ele>
        <time>2021-02-14T09:44:47Z</time>
      </trkpt>
      <trkpt lat="43.4672" lon="-5.598948">
        <ele>289.0</ele>
        <time>2021-02-14T09:44:48Z</time>
      </trkpt>
      <trkpt lat="43.4672" lon="-5.598933">
        <ele>289.0</ele>
        <time>2021-02-14T09:44:49Z</time>
      </trkpt>
      <trkpt lat="43.4672" lon="-5.5989184">
        <ele>289.0</ele>
        <time>2021-02-14T09:44:50Z</time>
      </trkpt>
      <trkpt lat="43.4672" lon="-5.598903">
        <ele>289.0</ele>
        <time>2021-02-14T09:44:51Z</time>
      </trkpt>
      <trkpt lat="43.467197" lon="-5.5988865">
        <ele>289.0</ele>
        <time>2021-02-14T09:44:52Z</time>
      </trkpt>
      <trkpt lat="43.467197" lon="-5.5988693">
        <ele>289.0</ele>
        <time>2021-02-14T09:44:53Z</time>
      </trkpt>
      <trkpt lat="43.467197" lon="-5.5988517">
        <ele>289.0</ele>
        <time>2021-02-14T09:44:55Z</time>
      </trkpt>
      <trkpt lat="43.467197" lon="-5.598836">
        <ele>289.0</ele>
        <time>2021-02-14T09:44:55Z</time>
      </trkpt>
      <trkpt lat="43.467197" lon="-5.5988193">
        <ele>289.0</ele>
        <time>2021-02-14T09:44:56Z</time>
      </trkpt>
      <trkpt lat="43.467197" lon="-5.598801">
        <ele>289.0</ele>
        <time>2021-02-14T09:44:57Z</time>
      </trkpt>
      <trkpt lat="43.4672" lon="-5.5987844">
        <ele>289.0</ele>
        <time>2021-02-14T09:44:58Z</time>
      </trkpt>
      <trkpt lat="43.4672" lon="-5.598769">
        <ele>289.0</ele>
        <time>2021-02-14T09:44:59Z</time>
      </trkpt>
      <trkpt lat="43.467197" lon="-5.5987525">
        <ele>289.0</ele>
        <time>2021-02-14T09:45:01Z</time>
      </trkpt>
      <trkpt lat="43.467197" lon="-5.598739">
        <ele>289.0</ele>
        <time>2021-02-14T09:45:01Z</time>
      </trkpt>
      <trkpt lat="43.467194" lon="-5.5987225">
        <ele>289.0</ele>
        <time>2021-02-14T09:45:02Z</time>
      </trkpt>
      <trkpt lat="43.467186" lon="-5.5987053">
        <ele>289.0</ele>
        <time>2021-02-14T09:45:03Z</time>
      </trkpt>
      <trkpt lat="43.46718" lon="-5.598691">
        <ele>289.0</ele>
        <time>2021-02-14T09:45:04Z</time>
      </trkpt>
      <trkpt lat="43.46717" lon="-5.5986753">
        <ele>289.0</ele>
        <time>2021-02-14T09:45:05Z</time>
      </trkpt>
      <trkpt lat="43.467167" lon="-5.598661">
        <ele>289.0</ele>
        <time>2021-02-14T09:45:06Z</time>
      </trkpt>
      <trkpt lat="43.467155" lon="-5.5986476">
        <ele>289.0</ele>
        <time>2021-02-14T09:45:07Z</time>
      </trkpt>
      <trkpt lat="43.46715" lon="-5.5986357">
        <ele>289.0</ele>
        <time>2021-02-14T09:45:08Z</time>
      </trkpt>
      <trkpt lat="43.467148" lon="-5.598625">
        <ele>289.0</ele>
        <time>2021-02-14T09:45:10Z</time>
      </trkpt>
      <trkpt lat="43.467136" lon="-5.5986137">
        <ele>289.0</ele>
        <time>2021-02-14T09:45:10Z</time>
      </trkpt>
      <trkpt lat="43.467125" lon="-5.598602">
        <ele>289.0</ele>
        <time>2021-02-14T09:45:11Z</time>
      </trkpt>
      <trkpt lat="43.46712" lon="-5.598588">
        <ele>289.0</ele>
        <time>2021-02-14T09:45:12Z</time>
      </trkpt>
      <trkpt lat="43.467117" lon="-5.5985756">
        <ele>289.0</ele>
        <time>2021-02-14T09:45:13Z</time>
      </trkpt>
      <trkpt lat="43.467106" lon="-5.598563">
        <ele>289.0</ele>
        <time>2021-02-14T09:45:14Z</time>
      </trkpt>
      <trkpt lat="43.467102" lon="-5.59855">
        <ele>289.0</ele>
        <time>2021-02-14T09:45:15Z</time>
      </trkpt>
      <trkpt lat="43.46709" lon="-5.5985374">
        <ele>289.0</ele>
        <time>2021-02-14T09:45:16Z</time>
      </trkpt>
      <trkpt lat="43.467083" lon="-5.5985246">
        <ele>289.0</ele>
        <time>2021-02-14T09:45:17Z</time>
      </trkpt>
      <trkpt lat="43.46708" lon="-5.598513">
        <ele>289.0</ele>
        <time>2021-02-14T09:45:18Z</time>
      </trkpt>
      <trkpt lat="43.467068" lon="-5.5985">
        <ele>289.0</ele>
        <time>2021-02-14T09:45:19Z</time>
      </trkpt>
      <trkpt lat="43.46706" lon="-5.5984883">
        <ele>289.0</ele>
        <time>2021-02-14T09:45:20Z</time>
      </trkpt>
      <trkpt lat="43.46705" lon="-5.598475">
        <ele>289.0</ele>
        <time>2021-02-14T09:45:21Z</time>
      </trkpt>
      <trkpt lat="43.467033" lon="-5.598462">
        <ele>289.0</ele>
        <time>2021-02-14T09:45:22Z</time>
      </trkpt>
      <trkpt lat="43.467022" lon="-5.5984507">
        <ele>289.0</ele>
        <time>2021-02-14T09:45:23Z</time>
      </trkpt>
      <trkpt lat="43.467007" lon="-5.59844">
        <ele>289.0</ele>
        <time>2021-02-14T09:45:24Z</time>
      </trkpt>
      <trkpt lat="43.467" lon="-5.598429">
        <ele>289.0</ele>
        <time>2021-02-14T09:45:25Z</time>
      </trkpt>
      <trkpt lat="43.46699" lon="-5.5984178">
        <ele>289.0</ele>
        <time>2021-02-14T09:45:26Z</time>
      </trkpt>
      <trkpt lat="43.466984" lon="-5.598406">
        <ele>289.0</ele>
        <time>2021-02-14T09:45:27Z</time>
      </trkpt>
      <trkpt lat="43.466976" lon="-5.5983934">
        <ele>289.0</ele>
        <time>2021-02-14T09:45:28Z</time>
      </trkpt>
      <trkpt lat="43.46697" lon="-5.5983834">
        <ele>289.0</ele>
        <time>2021-02-14T09:45:29Z</time>
      </trkpt>
      <trkpt lat="43.46696" lon="-5.598373">
        <ele>289.0</ele>
        <time>2021-02-14T09:45:30Z</time>
      </trkpt>
      <trkpt lat="43.466953" lon="-5.5983634">
        <ele>289.0</ele>
        <time>2021-02-14T09:45:31Z</time>
      </trkpt>
      <trkpt lat="43.466946" lon="-5.5983524">
        <ele>289.0</ele>
        <time>2021-02-14T09:45:32Z</time>
      </trkpt>
      <trkpt lat="43.466938" lon="-5.598342">
        <ele>289.0</ele>
        <time>2021-02-14T09:45:33Z</time>
      </trkpt>
      <trkpt lat="43.46693" lon="-5.598331">
        <ele>289.0</ele>
        <time>2021-02-14T09:45:35Z</time>
      </trkpt>
      <trkpt lat="43.466927" lon="-5.598322">
        <ele>289.0</ele>
        <time>2021-02-14T09:45:35Z</time>
      </trkpt>
      <trkpt lat="43.466915" lon="-5.5983143">
        <ele>289.0</ele>
        <time>2021-02-14T09:45:36Z</time>
      </trkpt>
      <trkpt lat="43.46691" lon="-5.5983067">
        <ele>289.0</ele>
        <time>2021-02-14T09:45:37Z</time>
      </trkpt>
      <trkpt lat="43.466908" lon="-5.598298">
        <ele>289.0</ele>
        <time>2021-02-14T09:45:38Z</time>
      </trkpt>
      <trkpt lat="43.4669" lon="-5.5982895">
        <ele>289.0</ele>
        <time>2021-02-14T09:45:39Z</time>
      </trkpt>
      <trkpt lat="43.466896" lon="-5.5982776">
        <ele>289.0</ele>
        <time>2021-02-14T09:45:40Z</time>
      </trkpt>
      <trkpt lat="43.46689" lon="-5.598268">
        <ele>289.0</ele>
        <time>2021-02-14T09:45:41Z</time>
      </trkpt>
      <trkpt lat="43.46689" lon="-5.598257">
        <ele>289.0</ele>
        <time>2021-02-14T09:45:42Z</time>
      </trkpt>
      <trkpt lat="43.466885" lon="-5.5982456">
        <ele>289.0</ele>
        <time>2021-02-14T09:45:44Z</time>
      </trkpt>
      <trkpt lat="43.46688" lon="-5.598236">
        <ele>289.0</ele>
        <time>2021-02-14T09:45:44Z</time>
      </trkpt>
      <trkpt lat="43.46688" lon="-5.598224">
        <ele>289.0</ele>
        <time>2021-02-14T09:45:45Z</time>
      </trkpt>
      <trkpt lat="43.46688" lon="-5.5982084">
        <ele>289.0</ele>
        <time>2021-02-14T09:45:46Z</time>
      </trkpt>
      <trkpt lat="43.46688" lon="-5.598192">
        <ele>289.0</ele>
        <time>2021-02-14T09:45:47Z</time>
      </trkpt>
      <trkpt lat="43.46688" lon="-5.5981736">
        <ele>289.0</ele>
        <time>2021-02-14T09:45:48Z</time>
      </trkpt>
      <trkpt lat="43.46688" lon="-5.5981536">
        <ele>289.0</ele>
        <time>2021-02-14T09:45:49Z</time>
      </trkpt>
      <trkpt lat="43.466873" lon="-5.5981345">
        <ele>289.0</ele>
        <time>2021-02-14T09:45:50Z</time>
      </trkpt>
      <trkpt lat="43.466866" lon="-5.598118">
        <ele>289.0</ele>
        <time>2021-02-14T09:45:51Z</time>
      </trkpt>
      <trkpt lat="43.466866" lon="-5.598099">
        <ele>289.0</ele>
        <time>2021-02-14T09:45:52Z</time>
      </trkpt>
      <trkpt lat="43.466858" lon="-5.59808">
        <ele>289.0</ele>
        <time>2021-02-14T09:45:53Z</time>
      </trkpt>
      <trkpt lat="43.46685" lon="-5.598062">
        <ele>289.0</ele>
        <time>2021-02-14T09:45:54Z</time>
      </trkpt>
      <trkpt lat="43.466843" lon="-5.5980444">
        <ele>289.0</ele>
        <time>2021-02-14T09:45:55Z</time>
      </trkpt>
      <trkpt lat="43.466835" lon="-5.5980277">
        <ele>289.0</ele>
        <time>2021-02-14T09:45:56Z</time>
      </trkpt>
      <trkpt lat="43.466835" lon="-5.598014">
        <ele>289.0</ele>
        <time>2021-02-14T09:45:57Z</time>
      </trkpt>
      <trkpt lat="43.46684" lon="-5.598002">
        <ele>289.0</ele>
        <time>2021-02-14T09:45:58Z</time>
      </trkpt>
      <trkpt lat="43.466843" lon="-5.5979905">
        <ele>290.0</ele>
        <time>2021-02-14T09:45:59Z</time>
      </trkpt>
      <trkpt lat="43.46685" lon="-5.5979795">
        <ele>290.0</ele>
        <time>2021-02-14T09:46:00Z</time>
      </trkpt>
      <trkpt lat="43.466854" lon="-5.5979686">
        <ele>290.0</ele>
        <time>2021-02-14T09:46:01Z</time>
      </trkpt>
      <trkpt lat="43.466858" lon="-5.5979557">
        <ele>290.0</ele>
        <time>2021-02-14T09:46:02Z</time>
      </trkpt>
      <trkpt lat="43.466866" lon="-5.597943">
        <ele>290.0</ele>
        <time>2021-02-14T09:46:03Z</time>
      </trkpt>
      <trkpt lat="43.46687" lon="-5.5979295">
        <ele>290.0</ele>
        <time>2021-02-14T09:46:04Z</time>
      </trkpt>
      <trkpt lat="43.466873" lon="-5.5979166">
        <ele>290.0</ele>
        <time>2021-02-14T09:46:05Z</time>
      </trkpt>
      <trkpt lat="43.466873" lon="-5.597904">
        <ele>290.0</ele>
        <time>2021-02-14T09:46:06Z</time>
      </trkpt>
      <trkpt lat="43.46688" lon="-5.5978923">
        <ele>290.0</ele>
        <time>2021-02-14T09:46:07Z</time>
      </trkpt>
      <trkpt lat="43.46688" lon="-5.5978823">
        <ele>291.0</ele>
        <time>2021-02-14T09:46:08Z</time>
      </trkpt>
      <trkpt lat="43.46688" lon="-5.5978727">
        <ele>291.0</ele>
        <time>2021-02-14T09:46:09Z</time>
      </trkpt>
      <trkpt lat="43.46688" lon="-5.597863">
        <ele>291.0</ele>
        <time>2021-02-14T09:46:10Z</time>
      </trkpt>
      <trkpt lat="43.466885" lon="-5.5978546">
        <ele>291.0</ele>
        <time>2021-02-14T09:46:11Z</time>
      </trkpt>
      <trkpt lat="43.466885" lon="-5.5978475">
        <ele>291.0</ele>
        <time>2021-02-14T09:46:12Z</time>
      </trkpt>
      <trkpt lat="43.466885" lon="-5.597838">
        <ele>291.0</ele>
        <time>2021-02-14T09:46:13Z</time>
      </trkpt>
      <trkpt lat="43.46689" lon="-5.5978265">
        <ele>292.0</ele>
        <time>2021-02-14T09:46:15Z</time>
      </trkpt>
      <trkpt lat="43.46689" lon="-5.5978136">
        <ele>292.0</ele>
        <time>2021-02-14T09:46:15Z</time>
      </trkpt>
      <trkpt lat="43.466896" lon="-5.5978017">
        <ele>292.0</ele>
        <time>2021-02-14T09:46:16Z</time>
      </trkpt>
      <trkpt lat="43.466896" lon="-5.597789">
        <ele>292.0</ele>
        <time>2021-02-14T09:46:17Z</time>
      </trkpt>
      <trkpt lat="43.466896" lon="-5.5977764">
        <ele>292.0</ele>
        <time>2021-02-14T09:46:18Z</time>
      </trkpt>
      <trkpt lat="43.4669" lon="-5.597763">
        <ele>293.0</ele>
        <time>2021-02-14T09:46:19Z</time>
      </trkpt>
      <trkpt lat="43.466908" lon="-5.597751">
        <ele>293.0</ele>
        <time>2021-02-14T09:46:20Z</time>
      </trkpt>
      <trkpt lat="43.46691" lon="-5.59774">
        <ele>293.0</ele>
        <time>2021-02-14T09:46:21Z</time>
      </trkpt>
      <trkpt lat="43.466923" lon="-5.5977287">
        <ele>293.0</ele>
        <time>2021-02-14T09:46:22Z</time>
      </trkpt>
      <trkpt lat="43.466923" lon="-5.597718">
        <ele>293.0</ele>
        <time>2021-02-14T09:46:23Z</time>
      </trkpt>
      <trkpt lat="43.466927" lon="-5.5977097">
        <ele>294.0</ele>
        <time>2021-02-14T09:46:24Z</time>
      </trkpt>
      <trkpt lat="43.46693" lon="-5.5976996">
        <ele>294.0</ele>
        <time>2021-02-14T09:46:25Z</time>
      </trkpt>
      <trkpt lat="43.466938" lon="-5.597691">
        <ele>294.0</ele>
        <time>2021-02-14T09:46:26Z</time>
      </trkpt>
      <trkpt lat="43.46694" lon="-5.597682">
        <ele>294.0</ele>
        <time>2021-02-14T09:46:27Z</time>
      </trkpt>
      <trkpt lat="43.46694" lon="-5.597673">
        <ele>294.0</ele>
        <time>2021-02-14T09:46:28Z</time>
      </trkpt>
      <trkpt lat="43.46694" lon="-5.597665">
        <ele>294.0</ele>
        <time>2021-02-14T09:46:29Z</time>
      </trkpt>
      <trkpt lat="43.46694" lon="-5.597656">
        <ele>294.0</ele>
        <time>2021-02-14T09:46:30Z</time>
      </trkpt>
      <trkpt lat="43.46694" lon="-5.597647">
        <ele>294.0</ele>
        <time>2021-02-14T09:46:31Z</time>
      </trkpt>
      <trkpt lat="43.466946" lon="-5.5976377">
        <ele>294.0</ele>
        <time>2021-02-14T09:46:32Z</time>
      </trkpt>
      <trkpt lat="43.466946" lon="-5.597628">
        <ele>295.0</ele>
        <time>2021-02-14T09:46:33Z</time>
      </trkpt>
      <trkpt lat="43.466946" lon="-5.5976167">
        <ele>295.0</ele>
        <time>2021-02-14T09:46:34Z</time>
      </trkpt>
      <trkpt lat="43.466953" lon="-5.597604">
        <ele>295.0</ele>
        <time>2021-02-14T09:46:35Z</time>
      </trkpt>
      <trkpt lat="43.466953" lon="-5.5975924">
        <ele>295.0</ele>
        <time>2021-02-14T09:46:36Z</time>
      </trkpt>
      <trkpt lat="43.466953" lon="-5.597582">
        <ele>296.0</ele>
        <time>2021-02-14T09:46:37Z</time>
      </trkpt>
      <trkpt lat="43.466953" lon="-5.597572">
        <ele>296.0</ele>
        <time>2021-02-14T09:46:38Z</time>
      </trkpt>
      <trkpt lat="43.466953" lon="-5.5975595">
        <ele>296.0</ele>
        <time>2021-02-14T09:46:39Z</time>
      </trkpt>
      <trkpt lat="43.466957" lon="-5.597547">
        <ele>296.0</ele>
        <time>2021-02-14T09:46:40Z</time>
      </trkpt>
      <trkpt lat="43.466957" lon="-5.597536">
        <ele>297.0</ele>
        <time>2021-02-14T09:46:41Z</time>
      </trkpt>
      <trkpt lat="43.466957" lon="-5.5975237">
        <ele>297.0</ele>
        <time>2021-02-14T09:46:42Z</time>
      </trkpt>
      <trkpt lat="43.466957" lon="-5.597515">
        <ele>297.0</ele>
        <time>2021-02-14T09:46:43Z</time>
      </trkpt>
      <trkpt lat="43.466953" lon="-5.5975046">
        <ele>297.0</ele>
        <time>2021-02-14T09:46:44Z</time>
      </trkpt>
      <trkpt lat="43.466953" lon="-5.5974946">
        <ele>297.0</ele>
        <time>2021-02-14T09:46:45Z</time>
      </trkpt>
      <trkpt lat="43.466953" lon="-5.597484">
        <ele>298.0</ele>
        <time>2021-02-14T09:46:46Z</time>
      </trkpt>
      <trkpt lat="43.466953" lon="-5.597474">
        <ele>298.0</ele>
        <time>2021-02-14T09:46:48Z</time>
      </trkpt>
      <trkpt lat="43.466953" lon="-5.597463">
        <ele>298.0</ele>
        <time>2021-02-14T09:46:48Z</time>
      </trkpt>
      <trkpt lat="43.466957" lon="-5.597449">
        <ele>298.0</ele>
        <time>2021-02-14T09:46:49Z</time>
      </trkpt>
      <trkpt lat="43.466957" lon="-5.5974355">
        <ele>298.0</ele>
        <time>2021-02-14T09:46:50Z</time>
      </trkpt>
      <trkpt lat="43.466957" lon="-5.597424">
        <ele>299.0</ele>
        <time>2021-02-14T09:46:51Z</time>
      </trkpt>
      <trkpt lat="43.466957" lon="-5.5974116">
        <ele>299.0</ele>
        <time>2021-02-14T09:46:52Z</time>
      </trkpt>
      <trkpt lat="43.466953" lon="-5.5974">
        <ele>299.0</ele>
        <time>2021-02-14T09:46:53Z</time>
      </trkpt>
      <trkpt lat="43.466953" lon="-5.5973907">
        <ele>299.0</ele>
        <time>2021-02-14T09:46:54Z</time>
      </trkpt>
      <trkpt lat="43.466946" lon="-5.5973835">
        <ele>299.0</ele>
        <time>2021-02-14T09:46:55Z</time>
      </trkpt>
      <trkpt lat="43.46694" lon="-5.597377">
        <ele>299.0</ele>
        <time>2021-02-14T09:46:56Z</time>
      </trkpt>
      <trkpt lat="43.46694" lon="-5.597371">
        <ele>300.0</ele>
        <time>2021-02-14T09:46:57Z</time>
      </trkpt>
      <trkpt lat="43.466938" lon="-5.597362">
        <ele>300.0</ele>
        <time>2021-02-14T09:46:58Z</time>
      </trkpt>
      <trkpt lat="43.46693" lon="-5.5973535">
        <ele>300.0</ele>
        <time>2021-02-14T09:46:59Z</time>
      </trkpt>
      <trkpt lat="43.46693" lon="-5.5973434">
        <ele>300.0</ele>
        <time>2021-02-14T09:47:00Z</time>
      </trkpt>
      <trkpt lat="43.466927" lon="-5.5973325">
        <ele>300.0</ele>
        <time>2021-02-14T09:47:01Z</time>
      </trkpt>
      <trkpt lat="43.466923" lon="-5.5973215">
        <ele>300.0</ele>
        <time>2021-02-14T09:47:02Z</time>
      </trkpt>
      <trkpt lat="43.46691" lon="-5.5973105">
        <ele>301.0</ele>
        <time>2021-02-14T09:47:03Z</time>
      </trkpt>
      <trkpt lat="43.466908" lon="-5.597299">
        <ele>301.0</ele>
        <time>2021-02-14T09:47:04Z</time>
      </trkpt>
      <trkpt lat="43.466896" lon="-5.597289">
        <ele>301.0</ele>
        <time>2021-02-14T09:47:05Z</time>
      </trkpt>
      <trkpt lat="43.46689" lon="-5.5972795">
        <ele>301.0</ele>
        <time>2021-02-14T09:47:06Z</time>
      </trkpt>
      <trkpt lat="43.466885" lon="-5.5972695">
        <ele>301.0</ele>
        <time>2021-02-14T09:47:07Z</time>
      </trkpt>
      <trkpt lat="43.46688" lon="-5.59726">
        <ele>301.0</ele>
        <time>2021-02-14T09:47:08Z</time>
      </trkpt>
      <trkpt lat="43.466873" lon="-5.5972505">
        <ele>301.0</ele>
        <time>2021-02-14T09:47:09Z</time>
      </trkpt>
      <trkpt lat="43.46687" lon="-5.5972404">
        <ele>301.0</ele>
        <time>2021-02-14T09:47:11Z</time>
      </trkpt>
      <trkpt lat="43.466866" lon="-5.597231">
        <ele>301.0</ele>
        <time>2021-02-14T09:47:11Z</time>
      </trkpt>
      <trkpt lat="43.466858" lon="-5.597223">
        <ele>301.0</ele>
        <time>2021-02-14T09:47:12Z</time>
      </trkpt>
      <trkpt lat="43.466854" lon="-5.597215">
        <ele>301.0</ele>
        <time>2021-02-14T09:47:13Z</time>
      </trkpt>
      <trkpt lat="43.466843" lon="-5.5972075">
        <ele>301.0</ele>
        <time>2021-02-14T09:47:14Z</time>
      </trkpt>
      <trkpt lat="43.46684" lon="-5.597198">
        <ele>302.0</ele>
        <time>2021-02-14T09:47:15Z</time>
      </trkpt>
      <trkpt lat="43.466835" lon="-5.597187">
        <ele>302.0</ele>
        <time>2021-02-14T09:47:16Z</time>
      </trkpt>
      <trkpt lat="43.466827" lon="-5.597175">
        <ele>302.0</ele>
        <time>2021-02-14T09:47:17Z</time>
      </trkpt>
      <trkpt lat="43.466824" lon="-5.5971627">
        <ele>302.0</ele>
        <time>2021-02-14T09:47:18Z</time>
      </trkpt>
      <trkpt lat="43.466824" lon="-5.597151">
        <ele>302.0</ele>
        <time>2021-02-14T09:47:20Z</time>
      </trkpt>
      <trkpt lat="43.46682" lon="-5.5971384">
        <ele>303.0</ele>
        <time>2021-02-14T09:47:20Z</time>
      </trkpt>
      <trkpt lat="43.46681" lon="-5.597127">
        <ele>303.0</ele>
        <time>2021-02-14T09:47:21Z</time>
      </trkpt>
      <trkpt lat="43.46681" lon="-5.597115">
        <ele>303.0</ele>
        <time>2021-02-14T09:47:22Z</time>
      </trkpt>
      <trkpt lat="43.466805" lon="-5.597102">
        <ele>303.0</ele>
        <time>2021-02-14T09:47:23Z</time>
      </trkpt>
      <trkpt lat="43.466797" lon="-5.59709">
        <ele>303.0</ele>
        <time>2021-02-14T09:47:24Z</time>
      </trkpt>
      <trkpt lat="43.466793" lon="-5.5970793">
        <ele>303.0</ele>
        <time>2021-02-14T09:47:25Z</time>
      </trkpt>
      <trkpt lat="43.46678" lon="-5.5970683">
        <ele>304.0</ele>
        <time>2021-02-14T09:47:26Z</time>
      </trkpt>
      <trkpt lat="43.466778" lon="-5.597057">
        <ele>304.0</ele>
        <time>2021-02-14T09:47:28Z</time>
      </trkpt>
      <trkpt lat="43.466774" lon="-5.5970483">
        <ele>304.0</ele>
        <time>2021-02-14T09:47:28Z</time>
      </trkpt>
      <trkpt lat="43.46676" lon="-5.5970325">
        <ele>304.0</ele>
        <time>2021-02-14T09:47:30Z</time>
      </trkpt>
      <trkpt lat="43.466747" lon="-5.5970187">
        <ele>305.0</ele>
        <time>2021-02-14T09:47:32Z</time>
      </trkpt>
      <trkpt lat="43.466747" lon="-5.597015">
        <ele>305.0</ele>
        <time>2021-02-14T09:47:33Z</time>
      </trkpt>
      <trkpt lat="43.466743" lon="-5.597009">
        <ele>305.0</ele>
        <time>2021-02-14T09:47:34Z</time>
      </trkpt>
      <trkpt lat="43.466736" lon="-5.597001">
        <ele>305.0</ele>
        <time>2021-02-14T09:47:35Z</time>
      </trkpt>
      <trkpt lat="43.46673" lon="-5.5969896">
        <ele>306.0</ele>
        <time>2021-02-14T09:47:36Z</time>
      </trkpt>
      <trkpt lat="43.466717" lon="-5.596976">
        <ele>306.0</ele>
        <time>2021-02-14T09:47:38Z</time>
      </trkpt>
      <trkpt lat="43.466705" lon="-5.5969596">
        <ele>306.0</ele>
        <time>2021-02-14T09:47:38Z</time>
      </trkpt>
      <trkpt lat="43.466694" lon="-5.596941">
        <ele>306.0</ele>
        <time>2021-02-14T09:47:39Z</time>
      </trkpt>
      <trkpt lat="43.466686" lon="-5.5969195">
        <ele>306.0</ele>
        <time>2021-02-14T09:47:40Z</time>
      </trkpt>
      <trkpt lat="43.466675" lon="-5.596899">
        <ele>307.0</ele>
        <time>2021-02-14T09:47:41Z</time>
      </trkpt>
      <trkpt lat="43.466663" lon="-5.5968814">
        <ele>307.0</ele>
        <time>2021-02-14T09:47:42Z</time>
      </trkpt>
      <trkpt lat="43.466656" lon="-5.5968666">
        <ele>307.0</ele>
        <time>2021-02-14T09:47:43Z</time>
      </trkpt>
      <trkpt lat="43.46665" lon="-5.5968523">
        <ele>307.0</ele>
        <time>2021-02-14T09:47:44Z</time>
      </trkpt>
      <trkpt lat="43.46664" lon="-5.596837">
        <ele>307.0</ele>
        <time>2021-02-14T09:47:45Z</time>
      </trkpt>
      <trkpt lat="43.46663" lon="-5.596823">
        <ele>307.0</ele>
        <time>2021-02-14T09:47:46Z</time>
      </trkpt>
      <trkpt lat="43.466618" lon="-5.5968094">
        <ele>307.0</ele>
        <time>2021-02-14T09:47:47Z</time>
      </trkpt>
      <trkpt lat="43.46661" lon="-5.596795">
        <ele>307.0</ele>
        <time>2021-02-14T09:47:48Z</time>
      </trkpt>
      <trkpt lat="43.4666" lon="-5.5967793">
        <ele>307.0</ele>
        <time>2021-02-14T09:47:49Z</time>
      </trkpt>
      <trkpt lat="43.466587" lon="-5.596762">
        <ele>307.0</ele>
        <time>2021-02-14T09:47:50Z</time>
      </trkpt>
      <trkpt lat="43.46658" lon="-5.596747">
        <ele>308.0</ele>
        <time>2021-02-14T09:47:51Z</time>
      </trkpt>
      <trkpt lat="43.46657" lon="-5.596734">
        <ele>308.0</ele>
        <time>2021-02-14T09:47:52Z</time>
      </trkpt>
      <trkpt lat="43.466568" lon="-5.5967207">
        <ele>308.0</ele>
        <time>2021-02-14T09:47:53Z</time>
      </trkpt>
      <trkpt lat="43.466564" lon="-5.5967083">
        <ele>308.0</ele>
        <time>2021-02-14T09:47:55Z</time>
      </trkpt>
      <trkpt lat="43.466557" lon="-5.596697">
        <ele>308.0</ele>
        <time>2021-02-14T09:47:55Z</time>
      </trkpt>
      <trkpt lat="43.466553" lon="-5.596686">
        <ele>309.0</ele>
        <time>2021-02-14T09:47:56Z</time>
      </trkpt>
      <trkpt lat="43.46655" lon="-5.5966744">
        <ele>309.0</ele>
        <time>2021-02-14T09:47:57Z</time>
      </trkpt>
      <trkpt lat="43.46654" lon="-5.5966616">
        <ele>309.0</ele>
        <time>2021-02-14T09:47:58Z</time>
      </trkpt>
      <trkpt lat="43.466537" lon="-5.5966496">
        <ele>309.0</ele>
        <time>2021-02-14T09:47:59Z</time>
      </trkpt>
      <trkpt lat="43.466534" lon="-5.5966387">
        <ele>309.0</ele>
        <time>2021-02-14T09:48:01Z</time>
      </trkpt>
      <trkpt lat="43.466526" lon="-5.5966306">
        <ele>309.0</ele>
        <time>2021-02-14T09:48:01Z</time>
      </trkpt>
      <trkpt lat="43.466522" lon="-5.5966234">
        <ele>310.0</ele>
        <time>2021-02-14T09:48:02Z</time>
      </trkpt>
      <trkpt lat="43.466522" lon="-5.596618">
        <ele>310.0</ele>
        <time>2021-02-14T09:48:03Z</time>
      </trkpt>
      <trkpt lat="43.466515" lon="-5.5966144">
        <ele>310.0</ele>
        <time>2021-02-14T09:48:04Z</time>
      </trkpt>
      <trkpt lat="43.466507" lon="-5.5966053">
        <ele>310.0</ele>
        <time>2021-02-14T09:48:06Z</time>
      </trkpt>
      <trkpt lat="43.466507" lon="-5.5966043">
        <ele>310.0</ele>
        <time>2021-02-14T09:48:07Z</time>
      </trkpt>
      <trkpt lat="43.466507" lon="-5.596601">
        <ele>310.0</ele>
        <time>2021-02-14T09:48:08Z</time>
      </trkpt>
      <trkpt lat="43.4665" lon="-5.5965967">
        <ele>311.0</ele>
        <time>2021-02-14T09:48:09Z</time>
      </trkpt>
      <trkpt lat="43.466496" lon="-5.596588">
        <ele>311.0</ele>
        <time>2021-02-14T09:48:10Z</time>
      </trkpt>
      <trkpt lat="43.466484" lon="-5.5965767">
        <ele>311.0</ele>
        <time>2021-02-14T09:48:11Z</time>
      </trkpt>
      <trkpt lat="43.46648" lon="-5.5965643">
        <ele>311.0</ele>
        <time>2021-02-14T09:48:12Z</time>
      </trkpt>
      <trkpt lat="43.46648" lon="-5.596552">
        <ele>311.0</ele>
        <time>2021-02-14T09:48:13Z</time>
      </trkpt>
      <trkpt lat="43.466476" lon="-5.596541">
        <ele>311.0</ele>
        <time>2021-02-14T09:48:14Z</time>
      </trkpt>
      <trkpt lat="43.46647" lon="-5.596532">
        <ele>312.0</ele>
        <time>2021-02-14T09:48:15Z</time>
      </trkpt>
      <trkpt lat="43.46647" lon="-5.596523">
        <ele>312.0</ele>
        <time>2021-02-14T09:48:16Z</time>
      </trkpt>
      <trkpt lat="43.466465" lon="-5.5965133">
        <ele>312.0</ele>
        <time>2021-02-14T09:48:17Z</time>
      </trkpt>
      <trkpt lat="43.46646" lon="-5.5965023">
        <ele>312.0</ele>
        <time>2021-02-14T09:48:18Z</time>
      </trkpt>
      <trkpt lat="43.466454" lon="-5.596493">
        <ele>312.0</ele>
        <time>2021-02-14T09:48:19Z</time>
      </trkpt>
      <trkpt lat="43.466454" lon="-5.5964828">
        <ele>312.0</ele>
        <time>2021-02-14T09:48:20Z</time>
      </trkpt>
      <trkpt lat="43.46645" lon="-5.5964704">
        <ele>313.0</ele>
        <time>2021-02-14T09:48:21Z</time>
      </trkpt>
      <trkpt lat="43.466446" lon="-5.5964556">
        <ele>313.0</ele>
        <time>2021-02-14T09:48:22Z</time>
      </trkpt>
      <trkpt lat="43.466434" lon="-5.5964403">
        <ele>313.0</ele>
        <time>2021-02-14T09:48:23Z</time>
      </trkpt>
      <trkpt lat="43.466434" lon="-5.5964293">
        <ele>313.0</ele>
        <time>2021-02-14T09:48:23Z</time>
      </trkpt>
      <trkpt lat="43.46643" lon="-5.596424">
        <ele>314.0</ele>
        <time>2021-02-14T09:48:24Z</time>
      </trkpt>
      <trkpt lat="43.46643" lon="-5.596424">
        <ele>314.0</ele>
        <time>2021-02-14T09:48:26Z</time>
      </trkpt>
      <trkpt lat="43.466423" lon="-5.596422">
        <ele>314.0</ele>
        <time>2021-02-14T09:48:26Z</time>
      </trkpt>
      <trkpt lat="43.46642" lon="-5.5964193">
        <ele>314.0</ele>
        <time>2021-02-14T09:48:27Z</time>
      </trkpt>
      <trkpt lat="43.46642" lon="-5.5964136">
        <ele>314.0</ele>
        <time>2021-02-14T09:48:28Z</time>
      </trkpt>
      <trkpt lat="43.466415" lon="-5.596404">
        <ele>314.0</ele>
        <time>2021-02-14T09:48:29Z</time>
      </trkpt>
      <trkpt lat="43.466408" lon="-5.596394">
        <ele>314.0</ele>
        <time>2021-02-14T09:48:30Z</time>
      </trkpt>
      <trkpt lat="43.466404" lon="-5.596382">
        <ele>314.0</ele>
        <time>2021-02-14T09:48:31Z</time>
      </trkpt>
      <trkpt lat="43.4664" lon="-5.5963717">
        <ele>314.0</ele>
        <time>2021-02-14T09:48:32Z</time>
      </trkpt>
      <trkpt lat="43.466393" lon="-5.596361">
        <ele>314.0</ele>
        <time>2021-02-14T09:48:33Z</time>
      </trkpt>
      <trkpt lat="43.46639" lon="-5.596351">
        <ele>314.0</ele>
        <time>2021-02-14T09:48:34Z</time>
      </trkpt>
      <trkpt lat="43.466385" lon="-5.596341">
        <ele>315.0</ele>
        <time>2021-02-14T09:48:35Z</time>
      </trkpt>
      <trkpt lat="43.466377" lon="-5.5963297">
        <ele>315.0</ele>
        <time>2021-02-14T09:48:36Z</time>
      </trkpt>
      <trkpt lat="43.466373" lon="-5.596317">
        <ele>315.0</ele>
        <time>2021-02-14T09:48:37Z</time>
      </trkpt>
      <trkpt lat="43.46637" lon="-5.596302">
        <ele>315.0</ele>
        <time>2021-02-14T09:48:38Z</time>
      </trkpt>
      <trkpt lat="43.466362" lon="-5.596289">
        <ele>315.0</ele>
        <time>2021-02-14T09:48:39Z</time>
      </trkpt>
      <trkpt lat="43.46636" lon="-5.596276">
        <ele>315.0</ele>
        <time>2021-02-14T09:48:40Z</time>
      </trkpt>
      <trkpt lat="43.466354" lon="-5.5962644">
        <ele>316.0</ele>
        <time>2021-02-14T09:48:41Z</time>
      </trkpt>
      <trkpt lat="43.466347" lon="-5.596253">
        <ele>316.0</ele>
        <time>2021-02-14T09:48:42Z</time>
      </trkpt>
      <trkpt lat="43.466343" lon="-5.5962415">
        <ele>316.0</ele>
        <time>2021-02-14T09:48:44Z</time>
      </trkpt>
      <trkpt lat="43.46634" lon="-5.5962296">
        <ele>316.0</ele>
        <time>2021-02-14T09:48:44Z</time>
      </trkpt>
      <trkpt lat="43.46633" lon="-5.596216">
        <ele>316.0</ele>
        <time>2021-02-14T09:48:45Z</time>
      </trkpt>
      <trkpt lat="43.466328" lon="-5.5962024">
        <ele>316.0</ele>
        <time>2021-02-14T09:48:46Z</time>
      </trkpt>
      <trkpt lat="43.46632" lon="-5.596186">
        <ele>317.0</ele>
        <time>2021-02-14T09:48:47Z</time>
      </trkpt>
      <trkpt lat="43.466316" lon="-5.5961723">
        <ele>317.0</ele>
        <time>2021-02-14T09:48:48Z</time>
      </trkpt>
      <trkpt lat="43.466312" lon="-5.59616">
        <ele>317.0</ele>
        <time>2021-02-14T09:48:49Z</time>
      </trkpt>
      <trkpt lat="43.4663" lon="-5.596147">
        <ele>317.0</ele>
        <time>2021-02-14T09:48:50Z</time>
      </trkpt>
      <trkpt lat="43.466297" lon="-5.596135">
        <ele>317.0</ele>
        <time>2021-02-14T09:48:52Z</time>
      </trkpt>
      <trkpt lat="43.46629" lon="-5.5961266">
        <ele>317.0</ele>
        <time>2021-02-14T09:48:52Z</time>
      </trkpt>
      <trkpt lat="43.466286" lon="-5.5961165">
        <ele>318.0</ele>
        <time>2021-02-14T09:48:53Z</time>
      </trkpt>
      <trkpt lat="43.466274" lon="-5.596105">
        <ele>318.0</ele>
        <time>2021-02-14T09:48:54Z</time>
      </trkpt>
      <trkpt lat="43.46627" lon="-5.5960956">
        <ele>318.0</ele>
        <time>2021-02-14T09:48:55Z</time>
      </trkpt>
      <trkpt lat="43.466267" lon="-5.5960846">
        <ele>318.0</ele>
        <time>2021-02-14T09:48:56Z</time>
      </trkpt>
      <trkpt lat="43.466267" lon="-5.596076">
        <ele>318.0</ele>
        <time>2021-02-14T09:48:58Z</time>
      </trkpt>
      <trkpt lat="43.466255" lon="-5.596066">
        <ele>318.0</ele>
        <time>2021-02-14T09:48:58Z</time>
      </trkpt>
      <trkpt lat="43.46625" lon="-5.596055">
        <ele>319.0</ele>
        <time>2021-02-14T09:48:59Z</time>
      </trkpt>
      <trkpt lat="43.466244" lon="-5.596047">
        <ele>319.0</ele>
        <time>2021-02-14T09:49:00Z</time>
      </trkpt>
      <trkpt lat="43.46624" lon="-5.5960383">
        <ele>319.0</ele>
        <time>2021-02-14T09:49:01Z</time>
      </trkpt>
      <trkpt lat="43.466236" lon="-5.5960326">
        <ele>319.0</ele>
        <time>2021-02-14T09:49:02Z</time>
      </trkpt>
      <trkpt lat="43.46623" lon="-5.5960293">
        <ele>319.0</ele>
        <time>2021-02-14T09:49:03Z</time>
      </trkpt>
      <trkpt lat="43.466225" lon="-5.5960255">
        <ele>319.0</ele>
        <time>2021-02-14T09:49:04Z</time>
      </trkpt>
      <trkpt lat="43.466213" lon="-5.5960207">
        <ele>319.0</ele>
        <time>2021-02-14T09:49:05Z</time>
      </trkpt>
      <trkpt lat="43.46621" lon="-5.596014">
        <ele>319.0</ele>
        <time>2021-02-14T09:49:07Z</time>
      </trkpt>
      <trkpt lat="43.466206" lon="-5.596008">
        <ele>319.0</ele>
        <time>2021-02-14T09:49:07Z</time>
      </trkpt>
      <trkpt lat="43.466198" lon="-5.596001">
        <ele>319.0</ele>
        <time>2021-02-14T09:49:08Z</time>
      </trkpt>
      <trkpt lat="43.466194" lon="-5.595995">
        <ele>319.0</ele>
        <time>2021-02-14T09:49:09Z</time>
      </trkpt>
      <trkpt lat="43.46619" lon="-5.595991">
        <ele>319.0</ele>
        <time>2021-02-14T09:49:10Z</time>
      </trkpt>
      <trkpt lat="43.46618" lon="-5.595986">
        <ele>319.0</ele>
        <time>2021-02-14T09:49:11Z</time>
      </trkpt>
      <trkpt lat="43.466175" lon="-5.5959797">
        <ele>320.0</ele>
        <time>2021-02-14T09:49:12Z</time>
      </trkpt>
      <trkpt lat="43.466167" lon="-5.5959725">
        <ele>320.0</ele>
        <time>2021-02-14T09:49:13Z</time>
      </trkpt>
      <trkpt lat="43.466167" lon="-5.5959654">
        <ele>320.0</ele>
        <time>2021-02-14T09:49:14Z</time>
      </trkpt>
      <trkpt lat="43.466164" lon="-5.5959578">
        <ele>320.0</ele>
        <time>2021-02-14T09:49:15Z</time>
      </trkpt>
      <trkpt lat="43.46616" lon="-5.595948">
        <ele>320.0</ele>
        <time>2021-02-14T09:49:16Z</time>
      </trkpt>
      <trkpt lat="43.466152" lon="-5.5959373">
        <ele>320.0</ele>
        <time>2021-02-14T09:49:17Z</time>
      </trkpt>
      <trkpt lat="43.46615" lon="-5.595926">
        <ele>321.0</ele>
        <time>2021-02-14T09:49:18Z</time>
      </trkpt>
      <trkpt lat="43.466145" lon="-5.5959144">
        <ele>321.0</ele>
        <time>2021-02-14T09:49:19Z</time>
      </trkpt>
      <trkpt lat="43.466137" lon="-5.595902">
        <ele>321.0</ele>
        <time>2021-02-14T09:49:20Z</time>
      </trkpt>
      <trkpt lat="43.466133" lon="-5.595891">
        <ele>321.0</ele>
        <time>2021-02-14T09:49:21Z</time>
      </trkpt>
      <trkpt lat="43.466125" lon="-5.595879">
        <ele>321.0</ele>
        <time>2021-02-14T09:49:22Z</time>
      </trkpt>
      <trkpt lat="43.46612" lon="-5.5958695">
        <ele>321.0</ele>
        <time>2021-02-14T09:49:24Z</time>
      </trkpt>
      <trkpt lat="43.466118" lon="-5.5958605">
        <ele>322.0</ele>
        <time>2021-02-14T09:49:24Z</time>
      </trkpt>
      <trkpt lat="43.46611" lon="-5.5958476">
        <ele>322.0</ele>
        <time>2021-02-14T09:49:25Z</time>
      </trkpt>
      <trkpt lat="43.466106" lon="-5.5958343">
        <ele>322.0</ele>
        <time>2021-02-14T09:49:26Z</time>
      </trkpt>
      <trkpt lat="43.466103" lon="-5.5958214">
        <ele>322.0</ele>
        <time>2021-02-14T09:49:27Z</time>
      </trkpt>
      <trkpt lat="43.466095" lon="-5.5958095">
        <ele>322.0</ele>
        <time>2021-02-14T09:49:28Z</time>
      </trkpt>
      <trkpt lat="43.466095" lon="-5.5957994">
        <ele>322.0</ele>
        <time>2021-02-14T09:49:29Z</time>
      </trkpt>
      <trkpt lat="43.466087" lon="-5.5957813">
        <ele>323.0</ele>
        <time>2021-02-14T09:49:31Z</time>
      </trkpt>
      <trkpt lat="43.466087" lon="-5.5957785">
        <ele>323.0</ele>
        <time>2021-02-14T09:49:33Z</time>
      </trkpt>
      <trkpt lat="43.466087" lon="-5.595773">
        <ele>323.0</ele>
        <time>2021-02-14T09:49:33Z</time>
      </trkpt>
      <trkpt lat="43.46608" lon="-5.5957665">
        <ele>323.0</ele>
        <time>2021-02-14T09:49:34Z</time>
      </trkpt>
      <trkpt lat="43.466076" lon="-5.5957575">
        <ele>323.0</ele>
        <time>2021-02-14T09:49:35Z</time>
      </trkpt>
      <trkpt lat="43.466064" lon="-5.595749">
        <ele>323.0</ele>
        <time>2021-02-14T09:49:36Z</time>
      </trkpt>
      <trkpt lat="43.46606" lon="-5.5957403">
        <ele>324.0</ele>
        <time>2021-02-14T09:49:37Z</time>
      </trkpt>
      <trkpt lat="43.46605" lon="-5.5957294">
        <ele>324.0</ele>
        <time>2021-02-14T09:49:38Z</time>
      </trkpt>
      <trkpt lat="43.46604" lon="-5.595719">
        <ele>324.0</ele>
        <time>2021-02-14T09:49:39Z</time>
      </trkpt>
      <trkpt lat="43.46603" lon="-5.5957093">
        <ele>324.0</ele>
        <time>2021-02-14T09:49:40Z</time>
      </trkpt>
      <trkpt lat="43.466026" lon="-5.5957003">
        <ele>324.0</ele>
        <time>2021-02-14T09:49:41Z</time>
      </trkpt>
      <trkpt lat="43.46602" lon="-5.5956903">
        <ele>324.0</ele>
        <time>2021-02-14T09:49:42Z</time>
      </trkpt>
      <trkpt lat="43.46601" lon="-5.595679">
        <ele>324.0</ele>
        <time>2021-02-14T09:49:43Z</time>
      </trkpt>
      <trkpt lat="43.466" lon="-5.59567">
        <ele>324.0</ele>
        <time>2021-02-14T09:49:44Z</time>
      </trkpt>
      <trkpt lat="43.465996" lon="-5.5956635">
        <ele>324.0</ele>
        <time>2021-02-14T09:49:45Z</time>
      </trkpt>
      <trkpt lat="43.46599" lon="-5.595658">
        <ele>324.0</ele>
        <time>2021-02-14T09:49:46Z</time>
      </trkpt>
      <trkpt lat="43.46599" lon="-5.595651">
        <ele>324.0</ele>
        <time>2021-02-14T09:49:47Z</time>
      </trkpt>
      <trkpt lat="43.465984" lon="-5.595644">
        <ele>324.0</ele>
        <time>2021-02-14T09:49:48Z</time>
      </trkpt>
      <trkpt lat="43.46598" lon="-5.5956364">
        <ele>324.0</ele>
        <time>2021-02-14T09:49:50Z</time>
      </trkpt>
      <trkpt lat="43.465973" lon="-5.5956287">
        <ele>324.0</ele>
        <time>2021-02-14T09:49:50Z</time>
      </trkpt>
      <trkpt lat="43.46597" lon="-5.595621">
        <ele>324.0</ele>
        <time>2021-02-14T09:49:51Z</time>
      </trkpt>
      <trkpt lat="43.465958" lon="-5.595613">
        <ele>324.0</ele>
        <time>2021-02-14T09:49:52Z</time>
      </trkpt>
      <trkpt lat="43.465954" lon="-5.595605">
        <ele>324.0</ele>
        <time>2021-02-14T09:49:53Z</time>
      </trkpt>
      <trkpt lat="43.46595" lon="-5.595597">
        <ele>324.0</ele>
        <time>2021-02-14T09:49:54Z</time>
      </trkpt>
      <trkpt lat="43.46594" lon="-5.5955896">
        <ele>324.0</ele>
        <time>2021-02-14T09:49:55Z</time>
      </trkpt>
      <trkpt lat="43.46593" lon="-5.5955815">
        <ele>324.0</ele>
        <time>2021-02-14T09:49:56Z</time>
      </trkpt>
      <trkpt lat="43.465923" lon="-5.595574">
        <ele>324.0</ele>
        <time>2021-02-14T09:49:57Z</time>
      </trkpt>
      <trkpt lat="43.465916" lon="-5.5955663">
        <ele>324.0</ele>
        <time>2021-02-14T09:49:58Z</time>
      </trkpt>
      <trkpt lat="43.465908" lon="-5.595557">
        <ele>324.0</ele>
        <time>2021-02-14T09:49:59Z</time>
      </trkpt>
      <trkpt lat="43.465897" lon="-5.595548">
        <ele>324.0</ele>
        <time>2021-02-14T09:50:00Z</time>
      </trkpt>
      <trkpt lat="43.465893" lon="-5.59554">
        <ele>324.0</ele>
        <time>2021-02-14T09:50:01Z</time>
      </trkpt>
      <trkpt lat="43.46588" lon="-5.595532">
        <ele>324.0</ele>
        <time>2021-02-14T09:50:02Z</time>
      </trkpt>
      <trkpt lat="43.46587" lon="-5.5955243">
        <ele>324.0</ele>
        <time>2021-02-14T09:50:03Z</time>
      </trkpt>
      <trkpt lat="43.465866" lon="-5.5955176">
        <ele>324.0</ele>
        <time>2021-02-14T09:50:04Z</time>
      </trkpt>
      <trkpt lat="43.465855" lon="-5.595512">
        <ele>324.0</ele>
        <time>2021-02-14T09:50:05Z</time>
      </trkpt>
      <trkpt lat="43.46585" lon="-5.5955033">
        <ele>324.0</ele>
        <time>2021-02-14T09:50:06Z</time>
      </trkpt>
      <trkpt lat="43.46584" lon="-5.595495">
        <ele>324.0</ele>
        <time>2021-02-14T09:50:07Z</time>
      </trkpt>
      <trkpt lat="43.465836" lon="-5.5954866">
        <ele>325.0</ele>
        <time>2021-02-14T09:50:08Z</time>
      </trkpt>
      <trkpt lat="43.465824" lon="-5.595479">
        <ele>325.0</ele>
        <time>2021-02-14T09:50:09Z</time>
      </trkpt>
      <trkpt lat="43.46582" lon="-5.5954733">
        <ele>325.0</ele>
        <time>2021-02-14T09:50:10Z</time>
      </trkpt>
      <trkpt lat="43.46581" lon="-5.595466">
        <ele>325.0</ele>
        <time>2021-02-14T09:50:11Z</time>
      </trkpt>
      <trkpt lat="43.4658" lon="-5.59546">
        <ele>325.0</ele>
        <time>2021-02-14T09:50:13Z</time>
      </trkpt>
      <trkpt lat="43.46579" lon="-5.5954523">
        <ele>325.0</ele>
        <time>2021-02-14T09:50:13Z</time>
      </trkpt>
      <trkpt lat="43.465786" lon="-5.5954447">
        <ele>325.0</ele>
        <time>2021-02-14T09:50:14Z</time>
      </trkpt>
      <trkpt lat="43.46578" lon="-5.595434">
        <ele>325.0</ele>
        <time>2021-02-14T09:50:15Z</time>
      </trkpt>
      <trkpt lat="43.465775" lon="-5.595424">
        <ele>325.0</ele>
        <time>2021-02-14T09:50:16Z</time>
      </trkpt>
      <trkpt lat="43.465763" lon="-5.595413">
        <ele>325.0</ele>
        <time>2021-02-14T09:50:17Z</time>
      </trkpt>
      <trkpt lat="43.465755" lon="-5.5954027">
        <ele>325.0</ele>
        <time>2021-02-14T09:50:18Z</time>
      </trkpt>
      <trkpt lat="43.465744" lon="-5.595393">
        <ele>325.0</ele>
        <time>2021-02-14T09:50:19Z</time>
      </trkpt>
      <trkpt lat="43.465736" lon="-5.5953836">
        <ele>325.0</ele>
        <time>2021-02-14T09:50:21Z</time>
      </trkpt>
      <trkpt lat="43.46573" lon="-5.595374">
        <ele>325.0</ele>
        <time>2021-02-14T09:50:21Z</time>
      </trkpt>
      <trkpt lat="43.465717" lon="-5.5953646">
        <ele>326.0</ele>
        <time>2021-02-14T09:50:22Z</time>
      </trkpt>
      <trkpt lat="43.465706" lon="-5.595354">
        <ele>326.0</ele>
        <time>2021-02-14T09:50:23Z</time>
      </trkpt>
      <trkpt lat="43.4657" lon="-5.5953426">
        <ele>326.0</ele>
        <time>2021-02-14T09:50:24Z</time>
      </trkpt>
      <trkpt lat="43.465687" lon="-5.595329">
        <ele>326.0</ele>
        <time>2021-02-14T09:50:25Z</time>
      </trkpt>
      <trkpt lat="43.465683" lon="-5.595316">
        <ele>326.0</ele>
        <time>2021-02-14T09:50:26Z</time>
      </trkpt>
      <trkpt lat="43.46567" lon="-5.5953045">
        <ele>326.0</ele>
        <time>2021-02-14T09:50:27Z</time>
      </trkpt>
      <trkpt lat="43.465668" lon="-5.5952935">
        <ele>326.0</ele>
        <time>2021-02-14T09:50:28Z</time>
      </trkpt>
      <trkpt lat="43.465656" lon="-5.595284">
        <ele>326.0</ele>
        <time>2021-02-14T09:50:30Z</time>
      </trkpt>
      <trkpt lat="43.465645" lon="-5.5952735">
        <ele>326.0</ele>
        <time>2021-02-14T09:50:30Z</time>
      </trkpt>
      <trkpt lat="43.465637" lon="-5.5952644">
        <ele>326.0</ele>
        <time>2021-02-14T09:50:31Z</time>
      </trkpt>
      <trkpt lat="43.465626" lon="-5.595256">
        <ele>326.0</ele>
        <time>2021-02-14T09:50:32Z</time>
      </trkpt>
      <trkpt lat="43.465614" lon="-5.5952473">
        <ele>326.0</ele>
        <time>2021-02-14T09:50:33Z</time>
      </trkpt>
      <trkpt lat="43.465607" lon="-5.5952435">
        <ele>326.0</ele>
        <time>2021-02-14T09:50:34Z</time>
      </trkpt>
      <trkpt lat="43.465595" lon="-5.595253">
        <ele>326.0</ele>
        <time>2021-02-14T09:50:35Z</time>
      </trkpt>
      <trkpt lat="43.465584" lon="-5.595264">
        <ele>326.0</ele>
        <time>2021-02-14T09:50:36Z</time>
      </trkpt>
      <trkpt lat="43.465576" lon="-5.595268">
        <ele>326.0</ele>
        <time>2021-02-14T09:50:38Z</time>
      </trkpt>
      <trkpt lat="43.465565" lon="-5.5952725">
        <ele>326.0</ele>
        <time>2021-02-14T09:50:38Z</time>
      </trkpt>
      <trkpt lat="43.46556" lon="-5.5952845">
        <ele>326.0</ele>
        <time>2021-02-14T09:50:39Z</time>
      </trkpt>
      <trkpt lat="43.465553" lon="-5.5952897">
        <ele>326.0</ele>
        <time>2021-02-14T09:50:40Z</time>
      </trkpt>
      <trkpt lat="43.46555" lon="-5.5952888">
        <ele>326.0</ele>
        <time>2021-02-14T09:50:41Z</time>
      </trkpt>
      <trkpt lat="43.46555" lon="-5.595281">
        <ele>326.0</ele>
        <time>2021-02-14T09:50:42Z</time>
      </trkpt>
      <trkpt lat="43.465538" lon="-5.5952725">
        <ele>326.0</ele>
        <time>2021-02-14T09:50:43Z</time>
      </trkpt>
      <trkpt lat="43.465534" lon="-5.5952635">
        <ele>326.0</ele>
        <time>2021-02-14T09:50:44Z</time>
      </trkpt>
      <trkpt lat="43.465523" lon="-5.595256">
        <ele>326.0</ele>
        <time>2021-02-14T09:50:45Z</time>
      </trkpt>
      <trkpt lat="43.46551" lon="-5.595247">
        <ele>326.0</ele>
        <time>2021-02-14T09:50:47Z</time>
      </trkpt>
      <trkpt lat="43.465504" lon="-5.5952377">
        <ele>326.0</ele>
        <time>2021-02-14T09:50:47Z</time>
      </trkpt>
      <trkpt lat="43.465492" lon="-5.595228">
        <ele>326.0</ele>
        <time>2021-02-14T09:50:48Z</time>
      </trkpt>
      <trkpt lat="43.46549" lon="-5.595219">
        <ele>326.0</ele>
        <time>2021-02-14T09:50:49Z</time>
      </trkpt>
      <trkpt lat="43.465477" lon="-5.59521">
        <ele>326.0</ele>
        <time>2021-02-14T09:50:50Z</time>
      </trkpt>
      <trkpt lat="43.465473" lon="-5.5952005">
        <ele>326.0</ele>
        <time>2021-02-14T09:50:51Z</time>
      </trkpt>
      <trkpt lat="43.465466" lon="-5.595189">
        <ele>326.0</ele>
        <time>2021-02-14T09:50:52Z</time>
      </trkpt>
      <trkpt lat="43.46546" lon="-5.595178">
        <ele>326.0</ele>
        <time>2021-02-14T09:50:53Z</time>
      </trkpt>
      <trkpt lat="43.465458" lon="-5.595166">
        <ele>326.0</ele>
        <time>2021-02-14T09:50:55Z</time>
      </trkpt>
      <trkpt lat="43.465446" lon="-5.5951552">
        <ele>326.0</ele>
        <time>2021-02-14T09:50:55Z</time>
      </trkpt>
      <trkpt lat="43.465443" lon="-5.5951424">
        <ele>326.0</ele>
        <time>2021-02-14T09:50:56Z</time>
      </trkpt>
      <trkpt lat="43.465435" lon="-5.5951276">
        <ele>326.0</ele>
        <time>2021-02-14T09:50:57Z</time>
      </trkpt>
      <trkpt lat="43.46543" lon="-5.595113">
        <ele>326.0</ele>
        <time>2021-02-14T09:50:58Z</time>
      </trkpt>
      <trkpt lat="43.46542" lon="-5.5950994">
        <ele>326.0</ele>
        <time>2021-02-14T09:50:59Z</time>
      </trkpt>
      <trkpt lat="43.465416" lon="-5.5950856">
        <ele>326.0</ele>
        <time>2021-02-14T09:51:01Z</time>
      </trkpt>
      <trkpt lat="43.465405" lon="-5.5950713">
        <ele>326.0</ele>
        <time>2021-02-14T09:51:01Z</time>
      </trkpt>
      <trkpt lat="43.4654" lon="-5.5950565">
        <ele>326.0</ele>
        <time>2021-02-14T09:51:02Z</time>
      </trkpt>
      <trkpt lat="43.46539" lon="-5.595043">
        <ele>326.0</ele>
        <time>2021-02-14T09:51:03Z</time>
      </trkpt>
      <trkpt lat="43.46538" lon="-5.595033">
        <ele>326.0</ele>
        <time>2021-02-14T09:51:04Z</time>
      </trkpt>
      <trkpt lat="43.46537" lon="-5.5950227">
        <ele>326.0</ele>
        <time>2021-02-14T09:51:05Z</time>
      </trkpt>
      <trkpt lat="43.46536" lon="-5.5950127">
        <ele>326.0</ele>
        <time>2021-02-14T09:51:06Z</time>
      </trkpt>
      <trkpt lat="43.465347" lon="-5.5950017">
        <ele>326.0</ele>
        <time>2021-02-14T09:51:07Z</time>
      </trkpt>
      <trkpt lat="43.465343" lon="-5.5949907">
        <ele>326.0</ele>
        <time>2021-02-14T09:51:09Z</time>
      </trkpt>
      <trkpt lat="43.465332" lon="-5.5949783">
        <ele>326.0</ele>
        <time>2021-02-14T09:51:09Z</time>
      </trkpt>
      <trkpt lat="43.465324" lon="-5.594966">
        <ele>326.0</ele>
        <time>2021-02-14T09:51:10Z</time>
      </trkpt>
      <trkpt lat="43.465317" lon="-5.594951">
        <ele>326.0</ele>
        <time>2021-02-14T09:51:11Z</time>
      </trkpt>
      <trkpt lat="43.465313" lon="-5.5949364">
        <ele>326.0</ele>
        <time>2021-02-14T09:51:12Z</time>
      </trkpt>
      <trkpt lat="43.4653" lon="-5.594923">
        <ele>326.0</ele>
        <time>2021-02-14T09:51:13Z</time>
      </trkpt>
      <trkpt lat="43.465294" lon="-5.5949097">
        <ele>326.0</ele>
        <time>2021-02-14T09:51:14Z</time>
      </trkpt>
      <trkpt lat="43.465282" lon="-5.5948954">
        <ele>326.0</ele>
        <time>2021-02-14T09:51:15Z</time>
      </trkpt>
      <trkpt lat="43.46528" lon="-5.594879">
        <ele>326.0</ele>
        <time>2021-02-14T09:51:16Z</time>
      </trkpt>
      <trkpt lat="43.465267" lon="-5.5948634">
        <ele>326.0</ele>
        <time>2021-02-14T09:51:18Z</time>
      </trkpt>
      <trkpt lat="43.465256" lon="-5.594848">
        <ele>326.0</ele>
        <time>2021-02-14T09:51:18Z</time>
      </trkpt>
      <trkpt lat="43.465252" lon="-5.5948334">
        <ele>326.0</ele>
        <time>2021-02-14T09:51:19Z</time>
      </trkpt>
      <trkpt lat="43.46525" lon="-5.5948167">
        <ele>326.0</ele>
        <time>2021-02-14T09:51:20Z</time>
      </trkpt>
      <trkpt lat="43.46524" lon="-5.5948005">
        <ele>326.0</ele>
        <time>2021-02-14T09:51:21Z</time>
      </trkpt>
      <trkpt lat="43.465233" lon="-5.5947857">
        <ele>326.0</ele>
        <time>2021-02-14T09:51:22Z</time>
      </trkpt>
      <trkpt lat="43.465225" lon="-5.594772">
        <ele>326.0</ele>
        <time>2021-02-14T09:51:23Z</time>
      </trkpt>
      <trkpt lat="43.465218" lon="-5.5947595">
        <ele>326.0</ele>
        <time>2021-02-14T09:51:24Z</time>
      </trkpt>
      <trkpt lat="43.46521" lon="-5.594748">
        <ele>326.0</ele>
        <time>2021-02-14T09:51:26Z</time>
      </trkpt>
      <trkpt lat="43.465202" lon="-5.594738">
        <ele>326.0</ele>
        <time>2021-02-14T09:51:26Z</time>
      </trkpt>
      <trkpt lat="43.465195" lon="-5.5947285">
        <ele>326.0</ele>
        <time>2021-02-14T09:51:27Z</time>
      </trkpt>
      <trkpt lat="43.46519" lon="-5.5947175">
        <ele>326.0</ele>
        <time>2021-02-14T09:51:28Z</time>
      </trkpt>
      <trkpt lat="43.465187" lon="-5.594706">
        <ele>326.0</ele>
        <time>2021-02-14T09:51:29Z</time>
      </trkpt>
      <trkpt lat="43.46518" lon="-5.5946956">
        <ele>326.0</ele>
        <time>2021-02-14T09:51:30Z</time>
      </trkpt>
      <trkpt lat="43.465176" lon="-5.5946846">
        <ele>326.0</ele>
        <time>2021-02-14T09:51:31Z</time>
      </trkpt>
      <trkpt lat="43.46517" lon="-5.594676">
        <ele>326.0</ele>
        <time>2021-02-14T09:51:32Z</time>
      </trkpt>
      <trkpt lat="43.46516" lon="-5.594667">
        <ele>325.0</ele>
        <time>2021-02-14T09:51:33Z</time>
      </trkpt>
      <trkpt lat="43.46515" lon="-5.5946574">
        <ele>325.0</ele>
        <time>2021-02-14T09:51:34Z</time>
      </trkpt>
      <trkpt lat="43.465137" lon="-5.594647">
        <ele>325.0</ele>
        <time>2021-02-14T09:51:35Z</time>
      </trkpt>
      <trkpt lat="43.46513" lon="-5.5946355">
        <ele>325.0</ele>
        <time>2021-02-14T09:51:36Z</time>
      </trkpt>
      <trkpt lat="43.46512" lon="-5.594622">
        <ele>325.0</ele>
        <time>2021-02-14T09:51:37Z</time>
      </trkpt>
      <trkpt lat="43.465107" lon="-5.594609">
        <ele>325.0</ele>
        <time>2021-02-14T09:51:38Z</time>
      </trkpt>
      <trkpt lat="43.4651" lon="-5.594598">
        <ele>325.0</ele>
        <time>2021-02-14T09:51:39Z</time>
      </trkpt>
      <trkpt lat="43.465088" lon="-5.594587">
        <ele>325.0</ele>
        <time>2021-02-14T09:51:40Z</time>
      </trkpt>
      <trkpt lat="43.465073" lon="-5.594576">
        <ele>325.0</ele>
        <time>2021-02-14T09:51:41Z</time>
      </trkpt>
      <trkpt lat="43.46506" lon="-5.5945644">
        <ele>324.0</ele>
        <time>2021-02-14T09:51:43Z</time>
      </trkpt>
      <trkpt lat="43.465054" lon="-5.5945497">
        <ele>324.0</ele>
        <time>2021-02-14T09:51:43Z</time>
      </trkpt>
      <trkpt lat="43.465042" lon="-5.594534">
        <ele>324.0</ele>
        <time>2021-02-14T09:51:44Z</time>
      </trkpt>
      <trkpt lat="43.46504" lon="-5.594517">
        <ele>324.0</ele>
        <time>2021-02-14T09:51:45Z</time>
      </trkpt>
      <trkpt lat="43.465027" lon="-5.594502">
        <ele>324.0</ele>
        <time>2021-02-14T09:51:46Z</time>
      </trkpt>
      <trkpt lat="43.465015" lon="-5.5944858">
        <ele>324.0</ele>
        <time>2021-02-14T09:51:47Z</time>
      </trkpt>
      <trkpt lat="43.46501" lon="-5.5944705">
        <ele>324.0</ele>
        <time>2021-02-14T09:51:48Z</time>
      </trkpt>
      <trkpt lat="43.465008" lon="-5.5944557">
        <ele>324.0</ele>
        <time>2021-02-14T09:51:49Z</time>
      </trkpt>
      <trkpt lat="43.465" lon="-5.594443">
        <ele>324.0</ele>
        <time>2021-02-14T09:51:50Z</time>
      </trkpt>
      <trkpt lat="43.464996" lon="-5.5944295">
        <ele>323.0</ele>
        <time>2021-02-14T09:51:51Z</time>
      </trkpt>
      <trkpt lat="43.464996" lon="-5.594411">
        <ele>323.0</ele>
        <time>2021-02-14T09:51:52Z</time>
      </trkpt>
      <trkpt lat="43.464996" lon="-5.594391">
        <ele>323.0</ele>
        <time>2021-02-14T09:51:53Z</time>
      </trkpt>
      <trkpt lat="43.464993" lon="-5.5943704">
        <ele>323.0</ele>
        <time>2021-02-14T09:51:54Z</time>
      </trkpt>
      <trkpt lat="43.464993" lon="-5.5943513">
        <ele>323.0</ele>
        <time>2021-02-14T09:51:55Z</time>
      </trkpt>
      <trkpt lat="43.464985" lon="-5.594334">
        <ele>323.0</ele>
        <time>2021-02-14T09:51:56Z</time>
      </trkpt>
      <trkpt lat="43.464985" lon="-5.5943213">
        <ele>323.0</ele>
        <time>2021-02-14T09:51:57Z</time>
      </trkpt>
      <trkpt lat="43.46498" lon="-5.5943117">
        <ele>322.0</ele>
        <time>2021-02-14T09:51:58Z</time>
      </trkpt>
      <trkpt lat="43.46498" lon="-5.594299">
        <ele>322.0</ele>
        <time>2021-02-14T09:51:59Z</time>
      </trkpt>
      <trkpt lat="43.46498" lon="-5.5942874">
        <ele>322.0</ele>
        <time>2021-02-14T09:52:00Z</time>
      </trkpt>
      <trkpt lat="43.464977" lon="-5.594276">
        <ele>322.0</ele>
        <time>2021-02-14T09:52:01Z</time>
      </trkpt>
      <trkpt lat="43.464977" lon="-5.594263">
        <ele>322.0</ele>
        <time>2021-02-14T09:52:02Z</time>
      </trkpt>
      <trkpt lat="43.464966" lon="-5.5942535">
        <ele>322.0</ele>
        <time>2021-02-14T09:52:03Z</time>
      </trkpt>
      <trkpt lat="43.46496" lon="-5.594245">
        <ele>322.0</ele>
        <time>2021-02-14T09:52:04Z</time>
      </trkpt>
      <trkpt lat="43.464954" lon="-5.594237">
        <ele>322.0</ele>
        <time>2021-02-14T09:52:06Z</time>
      </trkpt>
      <trkpt lat="43.46495" lon="-5.5942273">
        <ele>322.0</ele>
        <time>2021-02-14T09:52:06Z</time>
      </trkpt>
      <trkpt lat="43.46495" lon="-5.5942183">
        <ele>322.0</ele>
        <time>2021-02-14T09:52:07Z</time>
      </trkpt>
      <trkpt lat="43.464943" lon="-5.594209">
        <ele>322.0</ele>
        <time>2021-02-14T09:52:08Z</time>
      </trkpt>
      <trkpt lat="43.46494" lon="-5.5941997">
        <ele>322.0</ele>
        <time>2021-02-14T09:52:09Z</time>
      </trkpt>
      <trkpt lat="43.464935" lon="-5.5941906">
        <ele>322.0</ele>
        <time>2021-02-14T09:52:10Z</time>
      </trkpt>
      <trkpt lat="43.464928" lon="-5.5941806">
        <ele>322.0</ele>
        <time>2021-02-14T09:52:11Z</time>
      </trkpt>
      <trkpt lat="43.464924" lon="-5.594173">
        <ele>322.0</ele>
        <time>2021-02-14T09:52:12Z</time>
      </trkpt>
      <trkpt lat="43.464413" lon="-5.593923">
        <ele>330.0</ele>
        <time>2021-02-14T09:53:12Z</time>
      </trkpt>
      <trkpt lat="43.464413" lon="-5.593922">
        <ele>330.0</ele>
        <time>2021-02-14T09:53:13Z</time>
      </trkpt>
      <trkpt lat="43.464413" lon="-5.5939207">
        <ele>330.0</ele>
        <time>2021-02-14T09:53:14Z</time>
      </trkpt>
      <trkpt lat="43.464413" lon="-5.5939174">
        <ele>330.0</ele>
        <time>2021-02-14T09:53:16Z</time>
      </trkpt>
      <trkpt lat="43.46441" lon="-5.593915">
        <ele>330.0</ele>
        <time>2021-02-14T09:53:16Z</time>
      </trkpt>
      <trkpt lat="43.4644" lon="-5.593913">
        <ele>330.0</ele>
        <time>2021-02-14T09:53:17Z</time>
      </trkpt>
      <trkpt lat="43.464397" lon="-5.593913">
        <ele>330.0</ele>
        <time>2021-02-14T09:53:18Z</time>
      </trkpt>
      <trkpt lat="43.46439" lon="-5.5939093">
        <ele>330.0</ele>
        <time>2021-02-14T09:53:19Z</time>
      </trkpt>
      <trkpt lat="43.464382" lon="-5.593904">
        <ele>330.0</ele>
        <time>2021-02-14T09:53:20Z</time>
      </trkpt>
      <trkpt lat="43.464367" lon="-5.593899">
        <ele>330.0</ele>
        <time>2021-02-14T09:53:21Z</time>
      </trkpt>
      <trkpt lat="43.464355" lon="-5.593895">
        <ele>330.0</ele>
        <time>2021-02-14T09:53:22Z</time>
      </trkpt>
      <trkpt lat="43.46434" lon="-5.5938916">
        <ele>330.0</ele>
        <time>2021-02-14T09:53:23Z</time>
      </trkpt>
      <trkpt lat="43.46433" lon="-5.5938907">
        <ele>330.0</ele>
        <time>2021-02-14T09:53:24Z</time>
      </trkpt>
      <trkpt lat="43.46432" lon="-5.5938888">
        <ele>330.0</ele>
        <time>2021-02-14T09:53:25Z</time>
      </trkpt>
      <trkpt lat="43.46431" lon="-5.593889">
        <ele>330.0</ele>
        <time>2021-02-14T09:53:26Z</time>
      </trkpt>
      <trkpt lat="43.4643" lon="-5.5938888">
        <ele>330.0</ele>
        <time>2021-02-14T09:53:27Z</time>
      </trkpt>
      <trkpt lat="43.46429" lon="-5.5938854">
        <ele>330.0</ele>
        <time>2021-02-14T09:53:28Z</time>
      </trkpt>
      <trkpt lat="43.46428" lon="-5.593882">
        <ele>330.0</ele>
        <time>2021-02-14T09:53:29Z</time>
      </trkpt>
      <trkpt lat="43.464268" lon="-5.593876">
        <ele>331.0</ele>
        <time>2021-02-14T09:53:31Z</time>
      </trkpt>
      <trkpt lat="43.464264" lon="-5.59387">
        <ele>331.0</ele>
        <time>2021-02-14T09:53:31Z</time>
      </trkpt>
      <trkpt lat="43.464252" lon="-5.5938644">
        <ele>331.0</ele>
        <time>2021-02-14T09:53:32Z</time>
      </trkpt>
      <trkpt lat="43.464245" lon="-5.5938587">
        <ele>331.0</ele>
        <time>2021-02-14T09:53:33Z</time>
      </trkpt>
      <trkpt lat="43.464233" lon="-5.5938554">
        <ele>331.0</ele>
        <time>2021-02-14T09:53:34Z</time>
      </trkpt>
      <trkpt lat="43.46423" lon="-5.593852">
        <ele>331.0</ele>
        <time>2021-02-14T09:53:35Z</time>
      </trkpt>
      <trkpt lat="43.46422" lon="-5.593848">
        <ele>331.0</ele>
        <time>2021-02-14T09:53:36Z</time>
      </trkpt>
      <trkpt lat="43.464214" lon="-5.5938425">
        <ele>332.0</ele>
        <time>2021-02-14T09:53:37Z</time>
      </trkpt>
      <trkpt lat="43.464207" lon="-5.593837">
        <ele>332.0</ele>
        <time>2021-02-14T09:53:38Z</time>
      </trkpt>
      <trkpt lat="43.464203" lon="-5.593833">
        <ele>332.0</ele>
        <time>2021-02-14T09:53:39Z</time>
      </trkpt>
      <trkpt lat="43.46419" lon="-5.5938272">
        <ele>332.0</ele>
        <time>2021-02-14T09:53:40Z</time>
      </trkpt>
      <trkpt lat="43.46418" lon="-5.5938215">
        <ele>332.0</ele>
        <time>2021-02-14T09:53:41Z</time>
      </trkpt>
      <trkpt lat="43.464172" lon="-5.5938106">
        <ele>332.0</ele>
        <time>2021-02-14T09:53:42Z</time>
      </trkpt>
      <trkpt lat="43.46416" lon="-5.5937977">
        <ele>332.0</ele>
        <time>2021-02-14T09:53:43Z</time>
      </trkpt>
      <trkpt lat="43.46415" lon="-5.593784">
        <ele>333.0</ele>
        <time>2021-02-14T09:53:44Z</time>
      </trkpt>
      <trkpt lat="43.46414" lon="-5.5937734">
        <ele>333.0</ele>
        <time>2021-02-14T09:53:45Z</time>
      </trkpt>
      <trkpt lat="43.46413" lon="-5.5937653">
        <ele>333.0</ele>
        <time>2021-02-14T09:53:46Z</time>
      </trkpt>
      <trkpt lat="43.46412" lon="-5.593756">
        <ele>333.0</ele>
        <time>2021-02-14T09:53:48Z</time>
      </trkpt>
      <trkpt lat="43.46411" lon="-5.5937486">
        <ele>333.0</ele>
        <time>2021-02-14T09:53:48Z</time>
      </trkpt>
      <trkpt lat="43.4641" lon="-5.593742">
        <ele>333.0</ele>
        <time>2021-02-14T09:53:49Z</time>
      </trkpt>
      <trkpt lat="43.46409" lon="-5.593736">
        <ele>333.0</ele>
        <time>2021-02-14T09:53:50Z</time>
      </trkpt>
      <trkpt lat="43.46408" lon="-5.5937333">
        <ele>333.0</ele>
        <time>2021-02-14T09:53:51Z</time>
      </trkpt>
      <trkpt lat="43.46407" lon="-5.5937304">
        <ele>334.0</ele>
        <time>2021-02-14T09:53:52Z</time>
      </trkpt>
      <trkpt lat="43.464058" lon="-5.59373">
        <ele>334.0</ele>
        <time>2021-02-14T09:53:53Z</time>
      </trkpt>
      <trkpt lat="43.46405" lon="-5.5937295">
        <ele>334.0</ele>
        <time>2021-02-14T09:53:54Z</time>
      </trkpt>
      <trkpt lat="43.464035" lon="-5.5937285">
        <ele>334.0</ele>
        <time>2021-02-14T09:53:55Z</time>
      </trkpt>
      <trkpt lat="43.464024" lon="-5.593725">
        <ele>334.0</ele>
        <time>2021-02-14T09:53:56Z</time>
      </trkpt>
      <trkpt lat="43.464012" lon="-5.5937185">
        <ele>334.0</ele>
        <time>2021-02-14T09:53:57Z</time>
      </trkpt>
      <trkpt lat="43.464" lon="-5.5937095">
        <ele>334.0</ele>
        <time>2021-02-14T09:53:58Z</time>
      </trkpt>
      <trkpt lat="43.463997" lon="-5.593698">
        <ele>335.0</ele>
        <time>2021-02-14T09:53:59Z</time>
      </trkpt>
      <trkpt lat="43.463993" lon="-5.5936885">
        <ele>335.0</ele>
        <time>2021-02-14T09:54:00Z</time>
      </trkpt>
      <trkpt lat="43.463985" lon="-5.5936832">
        <ele>335.0</ele>
        <time>2021-02-14T09:54:01Z</time>
      </trkpt>
      <trkpt lat="43.46398" lon="-5.593679">
        <ele>335.0</ele>
        <time>2021-02-14T09:54:03Z</time>
      </trkpt>
      <trkpt lat="43.463978" lon="-5.5936747">
        <ele>335.0</ele>
        <time>2021-02-14T09:54:03Z</time>
      </trkpt>
      <trkpt lat="43.463966" lon="-5.593669">
        <ele>335.0</ele>
        <time>2021-02-14T09:54:04Z</time>
      </trkpt>
      <trkpt lat="43.463963" lon="-5.5936646">
        <ele>336.0</ele>
        <time>2021-02-14T09:54:05Z</time>
      </trkpt>
      <trkpt lat="43.46395" lon="-5.593661">
        <ele>336.0</ele>
        <time>2021-02-14T09:54:06Z</time>
      </trkpt>
      <trkpt lat="43.463947" lon="-5.593659">
        <ele>336.0</ele>
        <time>2021-02-14T09:54:07Z</time>
      </trkpt>
      <trkpt lat="43.46394" lon="-5.5936565">
        <ele>336.0</ele>
        <time>2021-02-14T09:54:08Z</time>
      </trkpt>
      <trkpt lat="43.463932" lon="-5.593655">
        <ele>336.0</ele>
        <time>2021-02-14T09:54:09Z</time>
      </trkpt>
      <trkpt lat="43.463924" lon="-5.5936537">
        <ele>336.0</ele>
        <time>2021-02-14T09:54:10Z</time>
      </trkpt>
      <trkpt lat="43.463917" lon="-5.593652">
        <ele>336.0</ele>
        <time>2021-02-14T09:54:11Z</time>
      </trkpt>
      <trkpt lat="43.463905" lon="-5.5936503">
        <ele>336.0</ele>
        <time>2021-02-14T09:54:12Z</time>
      </trkpt>
      <trkpt lat="43.4639" lon="-5.593648">
        <ele>336.0</ele>
        <time>2021-02-14T09:54:13Z</time>
      </trkpt>
      <trkpt lat="43.46389" lon="-5.5936456">
        <ele>336.0</ele>
        <time>2021-02-14T09:54:14Z</time>
      </trkpt>
      <trkpt lat="43.46388" lon="-5.5936437">
        <ele>336.0</ele>
        <time>2021-02-14T09:54:15Z</time>
      </trkpt>
      <trkpt lat="43.46387" lon="-5.5936418">
        <ele>336.0</ele>
        <time>2021-02-14T09:54:16Z</time>
      </trkpt>
      <trkpt lat="43.46386" lon="-5.5936384">
        <ele>337.0</ele>
        <time>2021-02-14T09:54:17Z</time>
      </trkpt>
      <trkpt lat="43.46385" lon="-5.593637">
        <ele>337.0</ele>
        <time>2021-02-14T09:54:18Z</time>
      </trkpt>
      <trkpt lat="43.463844" lon="-5.593636">
        <ele>337.0</ele>
        <time>2021-02-14T09:54:19Z</time>
      </trkpt>
      <trkpt lat="43.463833" lon="-5.593634">
        <ele>337.0</ele>
        <time>2021-02-14T09:54:20Z</time>
      </trkpt>
      <trkpt lat="43.463825" lon="-5.5936313">
        <ele>337.0</ele>
        <time>2021-02-14T09:54:21Z</time>
      </trkpt>
      <trkpt lat="43.463818" lon="-5.5936294">
        <ele>337.0</ele>
        <time>2021-02-14T09:54:22Z</time>
      </trkpt>
      <trkpt lat="43.463806" lon="-5.5936275">
        <ele>337.0</ele>
        <time>2021-02-14T09:54:23Z</time>
      </trkpt>
      <trkpt lat="43.4638" lon="-5.5936255">
        <ele>338.0</ele>
        <time>2021-02-14T09:54:25Z</time>
      </trkpt>
      <trkpt lat="43.463787" lon="-5.593624">
        <ele>338.0</ele>
        <time>2021-02-14T09:54:25Z</time>
      </trkpt>
      <trkpt lat="43.463783" lon="-5.5936217">
        <ele>338.0</ele>
        <time>2021-02-14T09:54:26Z</time>
      </trkpt>
      <trkpt lat="43.46377" lon="-5.5936193">
        <ele>338.0</ele>
        <time>2021-02-14T09:54:27Z</time>
      </trkpt>
      <trkpt lat="43.46376" lon="-5.593616">
        <ele>338.0</ele>
        <time>2021-02-14T09:54:28Z</time>
      </trkpt>
      <trkpt lat="43.463753" lon="-5.5936117">
        <ele>338.0</ele>
        <time>2021-02-14T09:54:29Z</time>
      </trkpt>
      <trkpt lat="43.46374" lon="-5.5936084">
        <ele>339.0</ele>
        <time>2021-02-14T09:54:30Z</time>
      </trkpt>
      <trkpt lat="43.46373" lon="-5.593605">
        <ele>339.0</ele>
        <time>2021-02-14T09:54:31Z</time>
      </trkpt>
      <trkpt lat="43.463722" lon="-5.5936027">
        <ele>339.0</ele>
        <time>2021-02-14T09:54:32Z</time>
      </trkpt>
      <trkpt lat="43.463715" lon="-5.593601">
        <ele>339.0</ele>
        <time>2021-02-14T09:54:33Z</time>
      </trkpt>
      <trkpt lat="43.463707" lon="-5.5935993">
        <ele>339.0</ele>
        <time>2021-02-14T09:54:34Z</time>
      </trkpt>
      <trkpt lat="43.463696" lon="-5.593597">
        <ele>339.0</ele>
        <time>2021-02-14T09:54:35Z</time>
      </trkpt>
      <trkpt lat="43.46369" lon="-5.593595">
        <ele>340.0</ele>
        <time>2021-02-14T09:54:36Z</time>
      </trkpt>
      <trkpt lat="43.46368" lon="-5.5935936">
        <ele>340.0</ele>
        <time>2021-02-14T09:54:37Z</time>
      </trkpt>
      <trkpt lat="43.46367" lon="-5.593592">
        <ele>340.0</ele>
        <time>2021-02-14T09:54:38Z</time>
      </trkpt>
      <trkpt lat="43.46366" lon="-5.5935903">
        <ele>340.0</ele>
        <time>2021-02-14T09:54:39Z</time>
      </trkpt>
      <trkpt lat="43.463654" lon="-5.593588">
        <ele>341.0</ele>
        <time>2021-02-14T09:54:40Z</time>
      </trkpt>
      <trkpt lat="43.463646" lon="-5.593586">
        <ele>341.0</ele>
        <time>2021-02-14T09:54:41Z</time>
      </trkpt>
      <trkpt lat="43.463634" lon="-5.5935826">
        <ele>341.0</ele>
        <time>2021-02-14T09:54:42Z</time>
      </trkpt>
      <trkpt lat="43.46363" lon="-5.5935793">
        <ele>341.0</ele>
        <time>2021-02-14T09:54:43Z</time>
      </trkpt>
      <trkpt lat="43.46362" lon="-5.593579">
        <ele>342.0</ele>
        <time>2021-02-14T09:54:44Z</time>
      </trkpt>
      <trkpt lat="43.463608" lon="-5.5935783">
        <ele>342.0</ele>
        <time>2021-02-14T09:54:45Z</time>
      </trkpt>
      <trkpt lat="43.463593" lon="-5.5935764">
        <ele>342.0</ele>
        <time>2021-02-14T09:54:46Z</time>
      </trkpt>
      <trkpt lat="43.46358" lon="-5.5935755">
        <ele>342.0</ele>
        <time>2021-02-14T09:54:47Z</time>
      </trkpt>
      <trkpt lat="43.463573" lon="-5.593575">
        <ele>342.0</ele>
        <time>2021-02-14T09:54:48Z</time>
      </trkpt>
      <trkpt lat="43.463562" lon="-5.5935764">
        <ele>342.0</ele>
        <time>2021-02-14T09:54:50Z</time>
      </trkpt>
      <trkpt lat="43.46355" lon="-5.593577">
        <ele>342.0</ele>
        <time>2021-02-14T09:54:50Z</time>
      </trkpt>
      <trkpt lat="43.463543" lon="-5.5935774">
        <ele>342.0</ele>
        <time>2021-02-14T09:54:51Z</time>
      </trkpt>
      <trkpt lat="43.46353" lon="-5.5935774">
        <ele>342.0</ele>
        <time>2021-02-14T09:54:52Z</time>
      </trkpt>
      <trkpt lat="43.46352" lon="-5.5935774">
        <ele>343.0</ele>
        <time>2021-02-14T09:54:53Z</time>
      </trkpt>
      <trkpt lat="43.463512" lon="-5.5935783">
        <ele>343.0</ele>
        <time>2021-02-14T09:54:54Z</time>
      </trkpt>
      <trkpt lat="43.463505" lon="-5.5935793">
        <ele>343.0</ele>
        <time>2021-02-14T09:54:56Z</time>
      </trkpt>
      <trkpt lat="43.463497" lon="-5.593579">
        <ele>343.0</ele>
        <time>2021-02-14T09:54:56Z</time>
      </trkpt>
      <trkpt lat="43.463486" lon="-5.5935745">
        <ele>344.0</ele>
        <time>2021-02-14T09:54:57Z</time>
      </trkpt>
      <trkpt lat="43.46348" lon="-5.5935674">
        <ele>344.0</ele>
        <time>2021-02-14T09:54:58Z</time>
      </trkpt>
      <trkpt lat="43.46347" lon="-5.59356">
        <ele>344.0</ele>
        <time>2021-02-14T09:54:59Z</time>
      </trkpt>
      <trkpt lat="43.46346" lon="-5.593556">
        <ele>344.0</ele>
        <time>2021-02-14T09:55:00Z</time>
      </trkpt>
      <trkpt lat="43.463455" lon="-5.5935545">
        <ele>344.0</ele>
        <time>2021-02-14T09:55:01Z</time>
      </trkpt>
      <trkpt lat="43.463444" lon="-5.5935545">
        <ele>345.0</ele>
        <time>2021-02-14T09:55:02Z</time>
      </trkpt>
      <trkpt lat="43.46344" lon="-5.593556">
        <ele>345.0</ele>
        <time>2021-02-14T09:55:03Z</time>
      </trkpt>
      <trkpt lat="43.46343" lon="-5.5935574">
        <ele>345.0</ele>
        <time>2021-02-14T09:55:05Z</time>
      </trkpt>
      <trkpt lat="43.463417" lon="-5.5935574">
        <ele>345.0</ele>
        <time>2021-02-14T09:55:05Z</time>
      </trkpt>
      <trkpt lat="43.463413" lon="-5.5935564">
        <ele>346.0</ele>
        <time>2021-02-14T09:55:06Z</time>
      </trkpt>
      <trkpt lat="43.4634" lon="-5.593555">
        <ele>346.0</ele>
        <time>2021-02-14T09:55:07Z</time>
      </trkpt>
      <trkpt lat="43.463398" lon="-5.593555">
        <ele>346.0</ele>
        <time>2021-02-14T09:55:08Z</time>
      </trkpt>
      <trkpt lat="43.463394" lon="-5.593555">
        <ele>346.0</ele>
        <time>2021-02-14T09:55:09Z</time>
      </trkpt>
      <trkpt lat="43.463387" lon="-5.593554">
        <ele>346.0</ele>
        <time>2021-02-14T09:55:10Z</time>
      </trkpt>
      <trkpt lat="43.463383" lon="-5.5935526">
        <ele>347.0</ele>
        <time>2021-02-14T09:55:11Z</time>
      </trkpt>
      <trkpt lat="43.46338" lon="-5.59355">
        <ele>347.0</ele>
        <time>2021-02-14T09:55:13Z</time>
      </trkpt>
      <trkpt lat="43.46337" lon="-5.593547">
        <ele>347.0</ele>
        <time>2021-02-14T09:55:13Z</time>
      </trkpt>
      <trkpt lat="43.463367" lon="-5.593545">
        <ele>347.0</ele>
        <time>2021-02-14T09:55:14Z</time>
      </trkpt>
      <trkpt lat="43.463364" lon="-5.5935445">
        <ele>347.0</ele>
        <time>2021-02-14T09:55:15Z</time>
      </trkpt>
      <trkpt lat="43.463356" lon="-5.5935435">
        <ele>348.0</ele>
        <time>2021-02-14T09:55:16Z</time>
      </trkpt>
      <trkpt lat="43.46335" lon="-5.5935416">
        <ele>348.0</ele>
        <time>2021-02-14T09:55:17Z</time>
      </trkpt>
      <trkpt lat="43.46334" lon="-5.5935397">
        <ele>348.0</ele>
        <time>2021-02-14T09:55:18Z</time>
      </trkpt>
      <trkpt lat="43.463337" lon="-5.5935388">
        <ele>348.0</ele>
        <time>2021-02-14T09:55:19Z</time>
      </trkpt>
      <trkpt lat="43.463326" lon="-5.593536">
        <ele>348.0</ele>
        <time>2021-02-14T09:55:20Z</time>
      </trkpt>
      <trkpt lat="43.46332" lon="-5.5935335">
        <ele>348.0</ele>
        <time>2021-02-14T09:55:22Z</time>
      </trkpt>
      <trkpt lat="43.46331" lon="-5.5935316">
        <ele>348.0</ele>
        <time>2021-02-14T09:55:22Z</time>
      </trkpt>
      <trkpt lat="43.463306" lon="-5.5935326">
        <ele>348.0</ele>
        <time>2021-02-14T09:55:23Z</time>
      </trkpt>
      <trkpt lat="43.463303" lon="-5.593538">
        <ele>348.0</ele>
        <time>2021-02-14T09:55:24Z</time>
      </trkpt>
      <trkpt lat="43.463287" lon="-5.5935454">
        <ele>348.0</ele>
        <time>2021-02-14T09:55:31Z</time>
      </trkpt>
      <trkpt lat="43.463287" lon="-5.5935454">
        <ele>349.0</ele>
        <time>2021-02-14T09:55:33Z</time>
      </trkpt>
      <trkpt lat="43.46329" lon="-5.593549">
        <ele>349.0</ele>
        <time>2021-02-14T09:55:35Z</time>
      </trkpt>
      <trkpt lat="43.463295" lon="-5.593547">
        <ele>349.0</ele>
        <time>2021-02-14T09:55:36Z</time>
      </trkpt>
      <trkpt lat="43.463295" lon="-5.5935435">
        <ele>349.0</ele>
        <time>2021-02-14T09:55:37Z</time>
      </trkpt>
      <trkpt lat="43.463295" lon="-5.5935407">
        <ele>349.0</ele>
        <time>2021-02-14T09:55:38Z</time>
      </trkpt>
      <trkpt lat="43.463303" lon="-5.593536">
        <ele>349.0</ele>
        <time>2021-02-14T09:55:39Z</time>
      </trkpt>
      <trkpt lat="43.463303" lon="-5.593532">
        <ele>349.0</ele>
        <time>2021-02-14T09:55:40Z</time>
      </trkpt>
      <trkpt lat="43.463303" lon="-5.5935283">
        <ele>349.0</ele>
        <time>2021-02-14T09:55:41Z</time>
      </trkpt>
      <trkpt lat="43.463303" lon="-5.593526">
        <ele>349.0</ele>
        <time>2021-02-14T09:55:43Z</time>
      </trkpt>
      <trkpt lat="43.463295" lon="-5.5935187">
        <ele>349.0</ele>
        <time>2021-02-14T09:55:44Z</time>
      </trkpt>
      <trkpt lat="43.463295" lon="-5.5935173">
        <ele>349.0</ele>
        <time>2021-02-14T09:55:45Z</time>
      </trkpt>
      <trkpt lat="43.463295" lon="-5.5935135">
        <ele>349.0</ele>
        <time>2021-02-14T09:55:47Z</time>
      </trkpt>
      <trkpt lat="43.463295" lon="-5.5935125">
        <ele>349.0</ele>
        <time>2021-02-14T09:55:48Z</time>
      </trkpt>
      <trkpt lat="43.46329" lon="-5.5935097">
        <ele>349.0</ele>
        <time>2021-02-14T09:55:49Z</time>
      </trkpt>
      <trkpt lat="43.463287" lon="-5.5935054">
        <ele>349.0</ele>
        <time>2021-02-14T09:55:50Z</time>
      </trkpt>
      <trkpt lat="43.46328" lon="-5.5935016">
        <ele>349.0</ele>
        <time>2021-02-14T09:55:51Z</time>
      </trkpt>
      <trkpt lat="43.463272" lon="-5.5934987">
        <ele>350.0</ele>
        <time>2021-02-14T09:55:52Z</time>
      </trkpt>
      <trkpt lat="43.46326" lon="-5.5934963">
        <ele>350.0</ele>
        <time>2021-02-14T09:55:53Z</time>
      </trkpt>
      <trkpt lat="43.46325" lon="-5.593493">
        <ele>350.0</ele>
        <time>2021-02-14T09:55:54Z</time>
      </trkpt>
      <trkpt lat="43.463245" lon="-5.5934906">
        <ele>350.0</ele>
        <time>2021-02-14T09:55:56Z</time>
      </trkpt>
      <trkpt lat="43.46324" lon="-5.5934863">
        <ele>350.0</ele>
        <time>2021-02-14T09:55:56Z</time>
      </trkpt>
      <trkpt lat="43.463234" lon="-5.593482">
        <ele>350.0</ele>
        <time>2021-02-14T09:55:58Z</time>
      </trkpt>
      <trkpt lat="43.46323" lon="-5.5934772">
        <ele>350.0</ele>
        <time>2021-02-14T09:55:58Z</time>
      </trkpt>
      <trkpt lat="43.463223" lon="-5.5934734">
        <ele>350.0</ele>
        <time>2021-02-14T09:55:59Z</time>
      </trkpt>
      <trkpt lat="43.46322" lon="-5.5934696">
        <ele>350.0</ele>
        <time>2021-02-14T09:56:00Z</time>
      </trkpt>
      <trkpt lat="43.463207" lon="-5.593466">
        <ele>350.0</ele>
        <time>2021-02-14T09:56:01Z</time>
      </trkpt>
      <trkpt lat="43.463203" lon="-5.5934625">
        <ele>350.0</ele>
        <time>2021-02-14T09:56:02Z</time>
      </trkpt>
      <trkpt lat="43.463192" lon="-5.5934606">
        <ele>351.0</ele>
        <time>2021-02-14T09:56:03Z</time>
      </trkpt>
      <trkpt lat="43.46319" lon="-5.5934587">
        <ele>351.0</ele>
        <time>2021-02-14T09:56:04Z</time>
      </trkpt>
      <trkpt lat="43.463184" lon="-5.5934553">
        <ele>351.0</ele>
        <time>2021-02-14T09:56:05Z</time>
      </trkpt>
      <trkpt lat="43.463173" lon="-5.593453">
        <ele>351.0</ele>
        <time>2021-02-14T09:56:06Z</time>
      </trkpt>
      <trkpt lat="43.46317" lon="-5.593451">
        <ele>351.0</ele>
        <time>2021-02-14T09:56:07Z</time>
      </trkpt>
      <trkpt lat="43.463158" lon="-5.5934453">
        <ele>352.0</ele>
        <time>2021-02-14T09:56:08Z</time>
      </trkpt>
      <trkpt lat="43.463146" lon="-5.59344">
        <ele>352.0</ele>
        <time>2021-02-14T09:56:09Z</time>
      </trkpt>
      <trkpt lat="43.463142" lon="-5.5934353">
        <ele>352.0</ele>
        <time>2021-02-14T09:56:10Z</time>
      </trkpt>
      <trkpt lat="43.46313" lon="-5.5934324">
        <ele>352.0</ele>
        <time>2021-02-14T09:56:11Z</time>
      </trkpt>
      <trkpt lat="43.463127" lon="-5.593431">
        <ele>352.0</ele>
        <time>2021-02-14T09:56:12Z</time>
      </trkpt>
      <trkpt lat="43.463116" lon="-5.593431">
        <ele>353.0</ele>
        <time>2021-02-14T09:56:13Z</time>
      </trkpt>
      <trkpt lat="43.46311" lon="-5.593431">
        <ele>353.0</ele>
        <time>2021-02-14T09:56:14Z</time>
      </trkpt>
      <trkpt lat="43.463108" lon="-5.5934305">
        <ele>353.0</ele>
        <time>2021-02-14T09:56:15Z</time>
      </trkpt>
      <trkpt lat="43.4631" lon="-5.5934286">
        <ele>353.0</ele>
        <time>2021-02-14T09:56:16Z</time>
      </trkpt>
      <trkpt lat="43.463093" lon="-5.5934286">
        <ele>353.0</ele>
        <time>2021-02-14T09:56:17Z</time>
      </trkpt>
      <trkpt lat="43.463085" lon="-5.5934277">
        <ele>354.0</ele>
        <time>2021-02-14T09:56:18Z</time>
      </trkpt>
      <trkpt lat="43.46308" lon="-5.5934286">
        <ele>354.0</ele>
        <time>2021-02-14T09:56:19Z</time>
      </trkpt>
      <trkpt lat="43.46307" lon="-5.593429">
        <ele>354.0</ele>
        <time>2021-02-14T09:56:20Z</time>
      </trkpt>
      <trkpt lat="43.463066" lon="-5.593429">
        <ele>354.0</ele>
        <time>2021-02-14T09:56:21Z</time>
      </trkpt>
      <trkpt lat="43.462914" lon="-5.5933857">
        <ele>357.0</ele>
        <time>2021-02-14T09:56:33Z</time>
      </trkpt>
      <trkpt lat="43.462917" lon="-5.5933895">
        <ele>357.0</ele>
        <time>2021-02-14T09:56:33Z</time>
      </trkpt>
      <trkpt lat="43.462917" lon="-5.593381">
        <ele>357.0</ele>
        <time>2021-02-14T09:56:34Z</time>
      </trkpt>
      <trkpt lat="43.46292" lon="-5.593377">
        <ele>357.0</ele>
        <time>2021-02-14T09:56:35Z</time>
      </trkpt>
      <trkpt lat="43.46293" lon="-5.593379">
        <ele>357.0</ele>
        <time>2021-02-14T09:56:36Z</time>
      </trkpt>
      <trkpt lat="43.46293" lon="-5.59338">
        <ele>357.0</ele>
        <time>2021-02-14T09:56:37Z</time>
      </trkpt>
      <trkpt lat="43.46292" lon="-5.59338">
        <ele>357.0</ele>
        <time>2021-02-14T09:56:38Z</time>
      </trkpt>
      <trkpt lat="43.462917" lon="-5.593377">
        <ele>357.0</ele>
        <time>2021-02-14T09:56:40Z</time>
      </trkpt>
      <trkpt lat="43.462906" lon="-5.5933743">
        <ele>357.0</ele>
        <time>2021-02-14T09:56:40Z</time>
      </trkpt>
      <trkpt lat="43.462902" lon="-5.593371">
        <ele>358.0</ele>
        <time>2021-02-14T09:56:41Z</time>
      </trkpt>
      <trkpt lat="43.4629" lon="-5.5933685">
        <ele>358.0</ele>
        <time>2021-02-14T09:56:42Z</time>
      </trkpt>
      <trkpt lat="43.46289" lon="-5.593365">
        <ele>358.0</ele>
        <time>2021-02-14T09:56:43Z</time>
      </trkpt>
      <trkpt lat="43.462887" lon="-5.5933623">
        <ele>358.0</ele>
        <time>2021-02-14T09:56:44Z</time>
      </trkpt>
      <trkpt lat="43.462883" lon="-5.5933604">
        <ele>358.0</ele>
        <time>2021-02-14T09:56:45Z</time>
      </trkpt>
      <trkpt lat="43.46287" lon="-5.5933566">
        <ele>359.0</ele>
        <time>2021-02-14T09:56:47Z</time>
      </trkpt>
      <trkpt lat="43.462868" lon="-5.5933523">
        <ele>359.0</ele>
        <time>2021-02-14T09:56:47Z</time>
      </trkpt>
      <trkpt lat="43.462856" lon="-5.593347">
        <ele>359.0</ele>
        <time>2021-02-14T09:56:48Z</time>
      </trkpt>
      <trkpt lat="43.46285" lon="-5.593343">
        <ele>359.0</ele>
        <time>2021-02-14T09:56:49Z</time>
      </trkpt>
      <trkpt lat="43.46284" lon="-5.593337">
        <ele>359.0</ele>
        <time>2021-02-14T09:56:50Z</time>
      </trkpt>
      <trkpt lat="43.462833" lon="-5.5933323">
        <ele>360.0</ele>
        <time>2021-02-14T09:56:51Z</time>
      </trkpt>
      <trkpt lat="43.462826" lon="-5.5933285">
        <ele>360.0</ele>
        <time>2021-02-14T09:56:52Z</time>
      </trkpt>
      <trkpt lat="43.46282" lon="-5.593324">
        <ele>360.0</ele>
        <time>2021-02-14T09:56:53Z</time>
      </trkpt>
      <trkpt lat="43.46281" lon="-5.59332">
        <ele>360.0</ele>
        <time>2021-02-14T09:56:53Z</time>
      </trkpt>
      <trkpt lat="43.4628" lon="-5.5933137">
        <ele>360.0</ele>
        <time>2021-02-14T09:56:54Z</time>
      </trkpt>
      <trkpt lat="43.462795" lon="-5.5933075">
        <ele>360.0</ele>
        <time>2021-02-14T09:56:55Z</time>
      </trkpt>
      <trkpt lat="43.462784" lon="-5.5933013">
        <ele>361.0</ele>
        <time>2021-02-14T09:56:56Z</time>
      </trkpt>
      <trkpt lat="43.46278" lon="-5.593294">
        <ele>361.0</ele>
        <time>2021-02-14T09:56:57Z</time>
      </trkpt>
      <trkpt lat="43.462772" lon="-5.5932846">
        <ele>361.0</ele>
        <time>2021-02-14T09:56:59Z</time>
      </trkpt>
      <trkpt lat="43.462765" lon="-5.593274">
        <ele>361.0</ele>
        <time>2021-02-14T09:56:59Z</time>
      </trkpt>
      <trkpt lat="43.462757" lon="-5.593265">
        <ele>361.0</ele>
        <time>2021-02-14T09:57:00Z</time>
      </trkpt>
      <trkpt lat="43.46275" lon="-5.5932584">
        <ele>361.0</ele>
        <time>2021-02-14T09:57:01Z</time>
      </trkpt>
      <trkpt lat="43.462738" lon="-5.5932555">
        <ele>361.0</ele>
        <time>2021-02-14T09:57:02Z</time>
      </trkpt>
      <trkpt lat="43.462727" lon="-5.593253">
        <ele>361.0</ele>
        <time>2021-02-14T09:57:03Z</time>
      </trkpt>
      <trkpt lat="43.46272" lon="-5.59325">
        <ele>361.0</ele>
        <time>2021-02-14T09:57:04Z</time>
      </trkpt>
      <trkpt lat="43.462708" lon="-5.593245">
        <ele>361.0</ele>
        <time>2021-02-14T09:57:05Z</time>
      </trkpt>
      <trkpt lat="43.462696" lon="-5.593238">
        <ele>361.0</ele>
        <time>2021-02-14T09:57:07Z</time>
      </trkpt>
      <trkpt lat="43.462692" lon="-5.5932293">
        <ele>362.0</ele>
        <time>2021-02-14T09:57:07Z</time>
      </trkpt>
      <trkpt lat="43.46268" lon="-5.5932207">
        <ele>362.0</ele>
        <time>2021-02-14T09:57:08Z</time>
      </trkpt>
      <trkpt lat="43.462677" lon="-5.5932107">
        <ele>362.0</ele>
        <time>2021-02-14T09:57:09Z</time>
      </trkpt>
      <trkpt lat="43.462666" lon="-5.593205">
        <ele>362.0</ele>
        <time>2021-02-14T09:57:10Z</time>
      </trkpt>
      <trkpt lat="43.462654" lon="-5.5931993">
        <ele>362.0</ele>
        <time>2021-02-14T09:57:11Z</time>
      </trkpt>
      <trkpt lat="43.462646" lon="-5.593193">
        <ele>362.0</ele>
        <time>2021-02-14T09:57:12Z</time>
      </trkpt>
      <trkpt lat="43.462635" lon="-5.5931835">
        <ele>362.0</ele>
        <time>2021-02-14T09:57:13Z</time>
      </trkpt>
      <trkpt lat="43.462624" lon="-5.5931764">
        <ele>363.0</ele>
        <time>2021-02-14T09:57:14Z</time>
      </trkpt>
      <trkpt lat="43.46262" lon="-5.593171">
        <ele>363.0</ele>
        <time>2021-02-14T09:57:15Z</time>
      </trkpt>
      <trkpt lat="43.46261" lon="-5.5931654">
        <ele>363.0</ele>
        <time>2021-02-14T09:57:16Z</time>
      </trkpt>
      <trkpt lat="43.462605" lon="-5.59316">
        <ele>363.0</ele>
        <time>2021-02-14T09:57:17Z</time>
      </trkpt>
      <trkpt lat="43.4626" lon="-5.5931563">
        <ele>363.0</ele>
        <time>2021-02-14T09:57:18Z</time>
      </trkpt>
      <trkpt lat="43.462593" lon="-5.593152">
        <ele>363.0</ele>
        <time>2021-02-14T09:57:19Z</time>
      </trkpt>
      <trkpt lat="43.462585" lon="-5.5931487">
        <ele>363.0</ele>
        <time>2021-02-14T09:57:20Z</time>
      </trkpt>
      <trkpt lat="43.462578" lon="-5.5931444">
        <ele>364.0</ele>
        <time>2021-02-14T09:57:21Z</time>
      </trkpt>
      <trkpt lat="43.462574" lon="-5.5931396">
        <ele>364.0</ele>
        <time>2021-02-14T09:57:22Z</time>
      </trkpt>
      <trkpt lat="43.462563" lon="-5.593133">
        <ele>364.0</ele>
        <time>2021-02-14T09:57:24Z</time>
      </trkpt>
      <trkpt lat="43.46256" lon="-5.593124">
        <ele>364.0</ele>
        <time>2021-02-14T09:57:24Z</time>
      </trkpt>
      <trkpt lat="43.462555" lon="-5.593113">
        <ele>364.0</ele>
        <time>2021-02-14T09:57:25Z</time>
      </trkpt>
      <trkpt lat="43.462547" lon="-5.5931">
        <ele>364.0</ele>
        <time>2021-02-14T09:57:26Z</time>
      </trkpt>
      <trkpt lat="43.46254" lon="-5.593088">
        <ele>364.0</ele>
        <time>2021-02-14T09:57:27Z</time>
      </trkpt>
      <trkpt lat="43.462532" lon="-5.5930786">
        <ele>364.0</ele>
        <time>2021-02-14T09:57:28Z</time>
      </trkpt>
      <trkpt lat="43.462524" lon="-5.5930696">
        <ele>364.0</ele>
        <time>2021-02-14T09:57:29Z</time>
      </trkpt>
      <trkpt lat="43.462517" lon="-5.593062">
        <ele>365.0</ele>
        <time>2021-02-14T09:57:30Z</time>
      </trkpt>
      <trkpt lat="43.46251" lon="-5.5930533">
        <ele>365.0</ele>
        <time>2021-02-14T09:57:31Z</time>
      </trkpt>
      <trkpt lat="43.4625" lon="-5.593045">
        <ele>365.0</ele>
        <time>2021-02-14T09:57:32Z</time>
      </trkpt>
      <trkpt lat="43.462494" lon="-5.5930357">
        <ele>365.0</ele>
        <time>2021-02-14T09:57:33Z</time>
      </trkpt>
      <trkpt lat="43.462486" lon="-5.593025">
        <ele>365.0</ele>
        <time>2021-02-14T09:57:34Z</time>
      </trkpt>
      <trkpt lat="43.46248" lon="-5.593015">
        <ele>366.0</ele>
        <time>2021-02-14T09:57:35Z</time>
      </trkpt>
      <trkpt lat="43.46247" lon="-5.5930066">
        <ele>366.0</ele>
        <time>2021-02-14T09:57:36Z</time>
      </trkpt>
      <trkpt lat="43.462467" lon="-5.5929976">
        <ele>366.0</ele>
        <time>2021-02-14T09:57:37Z</time>
      </trkpt>
      <trkpt lat="43.462456" lon="-5.592989">
        <ele>366.0</ele>
        <time>2021-02-14T09:57:38Z</time>
      </trkpt>
      <trkpt lat="43.462444" lon="-5.5929794">
        <ele>366.0</ele>
        <time>2021-02-14T09:57:39Z</time>
      </trkpt>
      <trkpt lat="43.46244" lon="-5.5929694">
        <ele>366.0</ele>
        <time>2021-02-14T09:57:40Z</time>
      </trkpt>
      <trkpt lat="43.46243" lon="-5.5929594">
        <ele>366.0</ele>
        <time>2021-02-14T09:57:42Z</time>
      </trkpt>
      <trkpt lat="43.462425" lon="-5.592948">
        <ele>366.0</ele>
        <time>2021-02-14T09:57:42Z</time>
      </trkpt>
      <trkpt lat="43.46242" lon="-5.5929356">
        <ele>366.0</ele>
        <time>2021-02-14T09:57:43Z</time>
      </trkpt>
      <trkpt lat="43.462414" lon="-5.5929227">
        <ele>366.0</ele>
        <time>2021-02-14T09:57:44Z</time>
      </trkpt>
      <trkpt lat="43.462406" lon="-5.5929112">
        <ele>367.0</ele>
        <time>2021-02-14T09:57:45Z</time>
      </trkpt>
      <trkpt lat="43.4624" lon="-5.5928984">
        <ele>367.0</ele>
        <time>2021-02-14T09:57:46Z</time>
      </trkpt>
      <trkpt lat="43.46239" lon="-5.592886">
        <ele>367.0</ele>
        <time>2021-02-14T09:57:47Z</time>
      </trkpt>
      <trkpt lat="43.462383" lon="-5.592875">
        <ele>367.0</ele>
        <time>2021-02-14T09:57:48Z</time>
      </trkpt>
      <trkpt lat="43.462376" lon="-5.5928645">
        <ele>367.0</ele>
        <time>2021-02-14T09:57:50Z</time>
      </trkpt>
      <trkpt lat="43.462364" lon="-5.592855">
        <ele>367.0</ele>
        <time>2021-02-14T09:57:50Z</time>
      </trkpt>
      <trkpt lat="43.46236" lon="-5.592844">
        <ele>367.0</ele>
        <time>2021-02-14T09:57:51Z</time>
      </trkpt>
      <trkpt lat="43.46235" lon="-5.592836">
        <ele>367.0</ele>
        <time>2021-02-14T09:57:52Z</time>
      </trkpt>
      <trkpt lat="43.462345" lon="-5.5928254">
        <ele>367.0</ele>
        <time>2021-02-14T09:57:53Z</time>
      </trkpt>
      <trkpt lat="43.462337" lon="-5.5928154">
        <ele>367.0</ele>
        <time>2021-02-14T09:57:54Z</time>
      </trkpt>
      <trkpt lat="43.46233" lon="-5.592804">
        <ele>367.0</ele>
        <time>2021-02-14T09:57:56Z</time>
      </trkpt>
      <trkpt lat="43.462322" lon="-5.5927935">
        <ele>367.0</ele>
        <time>2021-02-14T09:57:56Z</time>
      </trkpt>
      <trkpt lat="43.46232" lon="-5.592784">
        <ele>367.0</ele>
        <time>2021-02-14T09:57:57Z</time>
      </trkpt>
      <trkpt lat="43.462315" lon="-5.592776">
        <ele>367.0</ele>
        <time>2021-02-14T09:57:58Z</time>
      </trkpt>
      <trkpt lat="43.462303" lon="-5.592768">
        <ele>367.0</ele>
        <time>2021-02-14T09:57:59Z</time>
      </trkpt>
      <trkpt lat="43.46229" lon="-5.592759">
        <ele>367.0</ele>
        <time>2021-02-14T09:58:00Z</time>
      </trkpt>
      <trkpt lat="43.462288" lon="-5.5927496">
        <ele>367.0</ele>
        <time>2021-02-14T09:58:01Z</time>
      </trkpt>
      <trkpt lat="43.462276" lon="-5.592739">
        <ele>368.0</ele>
        <time>2021-02-14T09:58:02Z</time>
      </trkpt>
      <trkpt lat="43.462273" lon="-5.5927296">
        <ele>368.0</ele>
        <time>2021-02-14T09:58:04Z</time>
      </trkpt>
      <trkpt lat="43.462265" lon="-5.5927196">
        <ele>368.0</ele>
        <time>2021-02-14T09:58:04Z</time>
      </trkpt>
      <trkpt lat="43.46226" lon="-5.5927076">
        <ele>368.0</ele>
        <time>2021-02-14T09:58:05Z</time>
      </trkpt>
      <trkpt lat="43.462257" lon="-5.592696">
        <ele>368.0</ele>
        <time>2021-02-14T09:58:06Z</time>
      </trkpt>
      <trkpt lat="43.462246" lon="-5.592685">
        <ele>368.0</ele>
        <time>2021-02-14T09:58:07Z</time>
      </trkpt>
      <trkpt lat="43.462242" lon="-5.592674">
        <ele>368.0</ele>
        <time>2021-02-14T09:58:08Z</time>
      </trkpt>
      <trkpt lat="43.46223" lon="-5.5926623">
        <ele>368.0</ele>
        <time>2021-02-14T09:58:09Z</time>
      </trkpt>
      <trkpt lat="43.462227" lon="-5.5926514">
        <ele>368.0</ele>
        <time>2021-02-14T09:58:10Z</time>
      </trkpt>
      <trkpt lat="43.46222" lon="-5.592642">
        <ele>368.0</ele>
        <time>2021-02-14T09:58:11Z</time>
      </trkpt>
      <trkpt lat="43.462215" lon="-5.592634">
        <ele>368.0</ele>
        <time>2021-02-14T09:58:13Z</time>
      </trkpt>
      <trkpt lat="43.462204" lon="-5.592626">
        <ele>368.0</ele>
        <time>2021-02-14T09:58:13Z</time>
      </trkpt>
      <trkpt lat="43.4622" lon="-5.5926185">
        <ele>368.0</ele>
        <time>2021-02-14T09:58:14Z</time>
      </trkpt>
      <trkpt lat="43.462196" lon="-5.5926104">
        <ele>368.0</ele>
        <time>2021-02-14T09:58:15Z</time>
      </trkpt>
      <trkpt lat="43.462185" lon="-5.5926023">
        <ele>368.0</ele>
        <time>2021-02-14T09:58:16Z</time>
      </trkpt>
      <trkpt lat="43.46218" lon="-5.592595">
        <ele>368.0</ele>
        <time>2021-02-14T09:58:17Z</time>
      </trkpt>
      <trkpt lat="43.46217" lon="-5.592589">
        <ele>368.0</ele>
        <time>2021-02-14T09:58:18Z</time>
      </trkpt>
      <trkpt lat="43.462166" lon="-5.5925837">
        <ele>368.0</ele>
        <time>2021-02-14T09:58:19Z</time>
      </trkpt>
      <trkpt lat="43.462154" lon="-5.5925784">
        <ele>368.0</ele>
        <time>2021-02-14T09:58:21Z</time>
      </trkpt>
      <trkpt lat="43.46215" lon="-5.592571">
        <ele>368.0</ele>
        <time>2021-02-14T09:58:21Z</time>
      </trkpt>
      <trkpt lat="43.462143" lon="-5.5925627">
        <ele>368.0</ele>
        <time>2021-02-14T09:58:22Z</time>
      </trkpt>
      <trkpt lat="43.462135" lon="-5.5925517">
        <ele>368.0</ele>
        <time>2021-02-14T09:58:23Z</time>
      </trkpt>
      <trkpt lat="43.462128" lon="-5.5925393">
        <ele>368.0</ele>
        <time>2021-02-14T09:58:24Z</time>
      </trkpt>
      <trkpt lat="43.462124" lon="-5.592525">
        <ele>368.0</ele>
        <time>2021-02-14T09:58:25Z</time>
      </trkpt>
      <trkpt lat="43.46212" lon="-5.592511">
        <ele>368.0</ele>
        <time>2021-02-14T09:58:26Z</time>
      </trkpt>
      <trkpt lat="43.462112" lon="-5.5925007">
        <ele>368.0</ele>
        <time>2021-02-14T09:58:27Z</time>
      </trkpt>
      <trkpt lat="43.462112" lon="-5.5924907">
        <ele>368.0</ele>
        <time>2021-02-14T09:58:28Z</time>
      </trkpt>
      <trkpt lat="43.46211" lon="-5.592482">
        <ele>368.0</ele>
        <time>2021-02-14T09:58:29Z</time>
      </trkpt>
      <trkpt lat="43.462105" lon="-5.592471">
        <ele>368.0</ele>
        <time>2021-02-14T09:58:30Z</time>
      </trkpt>
      <trkpt lat="43.462097" lon="-5.5924587">
        <ele>368.0</ele>
        <time>2021-02-14T09:58:31Z</time>
      </trkpt>
      <trkpt lat="43.462093" lon="-5.592446">
        <ele>368.0</ele>
        <time>2021-02-14T09:58:32Z</time>
      </trkpt>
      <trkpt lat="43.46209" lon="-5.592434">
        <ele>368.0</ele>
        <time>2021-02-14T09:58:33Z</time>
      </trkpt>
      <trkpt lat="43.462082" lon="-5.592421">
        <ele>368.0</ele>
        <time>2021-02-14T09:58:34Z</time>
      </trkpt>
      <trkpt lat="43.46208" lon="-5.592409">
        <ele>368.0</ele>
        <time>2021-02-14T09:58:35Z</time>
      </trkpt>
      <trkpt lat="43.46207" lon="-5.5923963">
        <ele>368.0</ele>
        <time>2021-02-14T09:58:37Z</time>
      </trkpt>
      <trkpt lat="43.462067" lon="-5.5923853">
        <ele>368.0</ele>
        <time>2021-02-14T09:58:37Z</time>
      </trkpt>
      <trkpt lat="43.462063" lon="-5.592373">
        <ele>368.0</ele>
        <time>2021-02-14T09:58:38Z</time>
      </trkpt>
      <trkpt lat="43.462055" lon="-5.592361">
        <ele>368.0</ele>
        <time>2021-02-14T09:58:39Z</time>
      </trkpt>
      <trkpt lat="43.46205" lon="-5.59235">
        <ele>368.0</ele>
        <time>2021-02-14T09:58:40Z</time>
      </trkpt>
      <trkpt lat="43.46204" lon="-5.59234">
        <ele>368.0</ele>
        <time>2021-02-14T09:58:41Z</time>
      </trkpt>
      <trkpt lat="43.462036" lon="-5.5923295">
        <ele>368.0</ele>
        <time>2021-02-14T09:58:42Z</time>
      </trkpt>
      <trkpt lat="43.462032" lon="-5.5923195">
        <ele>368.0</ele>
        <time>2021-02-14T09:58:43Z</time>
      </trkpt>
      <trkpt lat="43.46202" lon="-5.592309">
        <ele>368.0</ele>
        <time>2021-02-14T09:58:45Z</time>
      </trkpt>
      <trkpt lat="43.462017" lon="-5.5922995">
        <ele>368.0</ele>
        <time>2021-02-14T09:58:45Z</time>
      </trkpt>
      <trkpt lat="43.46201" lon="-5.59229">
        <ele>368.0</ele>
        <time>2021-02-14T09:58:46Z</time>
      </trkpt>
      <trkpt lat="43.462" lon="-5.5922775">
        <ele>368.0</ele>
        <time>2021-02-14T09:58:47Z</time>
      </trkpt>
      <trkpt lat="43.461994" lon="-5.592266">
        <ele>368.0</ele>
        <time>2021-02-14T09:58:48Z</time>
      </trkpt>
      <trkpt lat="43.46199" lon="-5.592256">
        <ele>367.0</ele>
        <time>2021-02-14T09:58:49Z</time>
      </trkpt>
      <trkpt lat="43.461987" lon="-5.5922456">
        <ele>367.0</ele>
        <time>2021-02-14T09:58:50Z</time>
      </trkpt>
      <trkpt lat="43.46198" lon="-5.592237">
        <ele>367.0</ele>
        <time>2021-02-14T09:58:51Z</time>
      </trkpt>
      <trkpt lat="43.461975" lon="-5.5922284">
        <ele>367.0</ele>
        <time>2021-02-14T09:58:53Z</time>
      </trkpt>
      <trkpt lat="43.46197" lon="-5.5922213">
        <ele>366.0</ele>
        <time>2021-02-14T09:58:53Z</time>
      </trkpt>
      <trkpt lat="43.461964" lon="-5.5922136">
        <ele>366.0</ele>
        <time>2021-02-14T09:58:54Z</time>
      </trkpt>
      <trkpt lat="43.46196" lon="-5.592206">
        <ele>366.0</ele>
        <time>2021-02-14T09:58:55Z</time>
      </trkpt>
      <trkpt lat="43.46195" lon="-5.592198">
        <ele>366.0</ele>
        <time>2021-02-14T09:58:56Z</time>
      </trkpt>
      <trkpt lat="43.461945" lon="-5.5921893">
        <ele>366.0</ele>
        <time>2021-02-14T09:58:57Z</time>
      </trkpt>
      <trkpt lat="43.46194" lon="-5.5921826">
        <ele>365.0</ele>
        <time>2021-02-14T09:58:59Z</time>
      </trkpt>
      <trkpt lat="43.46193" lon="-5.5921736">
        <ele>365.0</ele>
        <time>2021-02-14T09:58:59Z</time>
      </trkpt>
      <trkpt lat="43.461926" lon="-5.592165">
        <ele>365.0</ele>
        <time>2021-02-14T09:59:00Z</time>
      </trkpt>
      <trkpt lat="43.461918" lon="-5.592157">
        <ele>365.0</ele>
        <time>2021-02-14T09:59:01Z</time>
      </trkpt>
      <trkpt lat="43.46191" lon="-5.5921483">
        <ele>365.0</ele>
        <time>2021-02-14T09:59:02Z</time>
      </trkpt>
      <trkpt lat="43.461903" lon="-5.592138">
        <ele>365.0</ele>
        <time>2021-02-14T09:59:03Z</time>
      </trkpt>
      <trkpt lat="43.4619" lon="-5.592125">
        <ele>365.0</ele>
        <time>2021-02-14T09:59:04Z</time>
      </trkpt>
      <trkpt lat="43.461895" lon="-5.5921116">
        <ele>365.0</ele>
        <time>2021-02-14T09:59:05Z</time>
      </trkpt>
      <trkpt lat="43.461887" lon="-5.592099">
        <ele>365.0</ele>
        <time>2021-02-14T09:59:06Z</time>
      </trkpt>
      <trkpt lat="43.461887" lon="-5.592088">
        <ele>365.0</ele>
        <time>2021-02-14T09:59:07Z</time>
      </trkpt>
      <trkpt lat="43.461884" lon="-5.592078">
        <ele>365.0</ele>
        <time>2021-02-14T09:59:08Z</time>
      </trkpt>
      <trkpt lat="43.461876" lon="-5.5920677">
        <ele>365.0</ele>
        <time>2021-02-14T09:59:09Z</time>
      </trkpt>
      <trkpt lat="43.461872" lon="-5.5920615">
        <ele>365.0</ele>
        <time>2021-02-14T09:59:10Z</time>
      </trkpt>
      <trkpt lat="43.46186" lon="-5.5920544">
        <ele>364.0</ele>
        <time>2021-02-14T09:59:11Z</time>
      </trkpt>
      <trkpt lat="43.461857" lon="-5.592045">
        <ele>364.0</ele>
        <time>2021-02-14T09:59:12Z</time>
      </trkpt>
      <trkpt lat="43.461853" lon="-5.5920334">
        <ele>364.0</ele>
        <time>2021-02-14T09:59:13Z</time>
      </trkpt>
      <trkpt lat="43.46184" lon="-5.592022">
        <ele>364.0</ele>
        <time>2021-02-14T09:59:15Z</time>
      </trkpt>
      <trkpt lat="43.461838" lon="-5.592009">
        <ele>364.0</ele>
        <time>2021-02-14T09:59:15Z</time>
      </trkpt>
      <trkpt lat="43.461826" lon="-5.5919957">
        <ele>364.0</ele>
        <time>2021-02-14T09:59:16Z</time>
      </trkpt>
      <trkpt lat="43.461823" lon="-5.5919814">
        <ele>363.0</ele>
        <time>2021-02-14T09:59:17Z</time>
      </trkpt>
      <trkpt lat="43.461815" lon="-5.5919642">
        <ele>363.0</ele>
        <time>2021-02-14T09:59:18Z</time>
      </trkpt>
      <trkpt lat="43.46181" lon="-5.591945">
        <ele>363.0</ele>
        <time>2021-02-14T09:59:19Z</time>
      </trkpt>
      <trkpt lat="43.461807" lon="-5.5919266">
        <ele>363.0</ele>
        <time>2021-02-14T09:59:20Z</time>
      </trkpt>
      <trkpt lat="43.4618" lon="-5.591909">
        <ele>363.0</ele>
        <time>2021-02-14T09:59:21Z</time>
      </trkpt>
      <trkpt lat="43.461796" lon="-5.5918937">
        <ele>363.0</ele>
        <time>2021-02-14T09:59:23Z</time>
      </trkpt>
      <trkpt lat="43.461796" lon="-5.5918784">
        <ele>363.0</ele>
        <time>2021-02-14T09:59:23Z</time>
      </trkpt>
      <trkpt lat="43.461792" lon="-5.591864">
        <ele>363.0</ele>
        <time>2021-02-14T09:59:24Z</time>
      </trkpt>
      <trkpt lat="43.461792" lon="-5.591849">
        <ele>362.0</ele>
        <time>2021-02-14T09:59:25Z</time>
      </trkpt>
      <trkpt lat="43.46178" lon="-5.5918317">
        <ele>362.0</ele>
        <time>2021-02-14T09:59:26Z</time>
      </trkpt>
      <trkpt lat="43.461777" lon="-5.5918155">
        <ele>362.0</ele>
        <time>2021-02-14T09:59:27Z</time>
      </trkpt>
      <trkpt lat="43.461765" lon="-5.591801">
        <ele>362.0</ele>
        <time>2021-02-14T09:59:28Z</time>
      </trkpt>
      <trkpt lat="43.461754" lon="-5.5917883">
        <ele>362.0</ele>
        <time>2021-02-14T09:59:29Z</time>
      </trkpt>
      <trkpt lat="43.46175" lon="-5.591777">
        <ele>362.0</ele>
        <time>2021-02-14T09:59:30Z</time>
      </trkpt>
      <trkpt lat="43.46174" lon="-5.5917683">
        <ele>361.0</ele>
        <time>2021-02-14T09:59:32Z</time>
      </trkpt>
      <trkpt lat="43.46173" lon="-5.591763">
        <ele>361.0</ele>
        <time>2021-02-14T09:59:32Z</time>
      </trkpt>
      <trkpt lat="43.461723" lon="-5.591759">
        <ele>361.0</ele>
        <time>2021-02-14T09:59:33Z</time>
      </trkpt>
      <trkpt lat="43.46172" lon="-5.5917587">
        <ele>361.0</ele>
        <time>2021-02-14T09:59:34Z</time>
      </trkpt>
      <trkpt lat="43.461708" lon="-5.5917573">
        <ele>361.0</ele>
        <time>2021-02-14T09:59:35Z</time>
      </trkpt>
      <trkpt lat="43.461704" lon="-5.5917554">
        <ele>361.0</ele>
        <time>2021-02-14T09:59:36Z</time>
      </trkpt>
      <trkpt lat="43.461693" lon="-5.591753">
        <ele>361.0</ele>
        <time>2021-02-14T09:59:37Z</time>
      </trkpt>
      <trkpt lat="43.46168" lon="-5.5917516">
        <ele>361.0</ele>
        <time>2021-02-14T09:59:38Z</time>
      </trkpt>
      <trkpt lat="43.461674" lon="-5.5917497">
        <ele>361.0</ele>
        <time>2021-02-14T09:59:40Z</time>
      </trkpt>
      <trkpt lat="43.46165" lon="-5.5917463">
        <ele>361.0</ele>
        <time>2021-02-14T09:59:42Z</time>
      </trkpt>
      <trkpt lat="43.461647" lon="-5.591746">
        <ele>361.0</ele>
        <time>2021-02-14T09:59:43Z</time>
      </trkpt>
      <trkpt lat="43.461647" lon="-5.5917454">
        <ele>361.0</ele>
        <time>2021-02-14T09:59:44Z</time>
      </trkpt>
      <trkpt lat="43.461643" lon="-5.5917444">
        <ele>361.0</ele>
        <time>2021-02-14T09:59:45Z</time>
      </trkpt>
      <trkpt lat="43.461636" lon="-5.591744">
        <ele>361.0</ele>
        <time>2021-02-14T09:59:46Z</time>
      </trkpt>
      <trkpt lat="43.461628" lon="-5.591742">
        <ele>361.0</ele>
        <time>2021-02-14T09:59:47Z</time>
      </trkpt>
      <trkpt lat="43.461617" lon="-5.59174">
        <ele>361.0</ele>
        <time>2021-02-14T09:59:48Z</time>
      </trkpt>
      <trkpt lat="43.4616" lon="-5.5917397">
        <ele>361.0</ele>
        <time>2021-02-14T09:59:49Z</time>
      </trkpt>
      <trkpt lat="43.46159" lon="-5.5917387">
        <ele>361.0</ele>
        <time>2021-02-14T09:59:50Z</time>
      </trkpt>
      <trkpt lat="43.461575" lon="-5.5917344">
        <ele>361.0</ele>
        <time>2021-02-14T09:59:51Z</time>
      </trkpt>
      <trkpt lat="43.46156" lon="-5.591727">
        <ele>361.0</ele>
        <time>2021-02-14T09:59:52Z</time>
      </trkpt>
      <trkpt lat="43.46154" lon="-5.5917196">
        <ele>362.0</ele>
        <time>2021-02-14T09:59:53Z</time>
      </trkpt>
      <trkpt lat="43.461525" lon="-5.5917172">
        <ele>362.0</ele>
        <time>2021-02-14T09:59:54Z</time>
      </trkpt>
      <trkpt lat="43.46151" lon="-5.5917153">
        <ele>362.0</ele>
        <time>2021-02-14T09:59:55Z</time>
      </trkpt>
      <trkpt lat="43.461494" lon="-5.5917134">
        <ele>362.0</ele>
        <time>2021-02-14T09:59:56Z</time>
      </trkpt>
      <trkpt lat="43.46148" lon="-5.591714">
        <ele>363.0</ele>
        <time>2021-02-14T09:59:57Z</time>
      </trkpt>
      <trkpt lat="43.461464" lon="-5.591718">
        <ele>363.0</ele>
        <time>2021-02-14T09:59:58Z</time>
      </trkpt>
      <trkpt lat="43.46145" lon="-5.5917287">
        <ele>363.0</ele>
        <time>2021-02-14T09:59:59Z</time>
      </trkpt>
      <trkpt lat="43.461437" lon="-5.59174">
        <ele>363.0</ele>
        <time>2021-02-14T10:00:00Z</time>
      </trkpt>
      <trkpt lat="43.461426" lon="-5.591751">
        <ele>363.0</ele>
        <time>2021-02-14T10:00:01Z</time>
      </trkpt>
      <trkpt lat="43.46142" lon="-5.59176">
        <ele>363.0</ele>
        <time>2021-02-14T10:00:02Z</time>
      </trkpt>
      <trkpt lat="43.461407" lon="-5.591765">
        <ele>364.0</ele>
        <time>2021-02-14T10:00:04Z</time>
      </trkpt>
      <trkpt lat="43.461395" lon="-5.5917683">
        <ele>364.0</ele>
        <time>2021-02-14T10:00:04Z</time>
      </trkpt>
      <trkpt lat="43.461388" lon="-5.5917697">
        <ele>364.0</ele>
        <time>2021-02-14T10:00:05Z</time>
      </trkpt>
      <trkpt lat="43.461376" lon="-5.591768">
        <ele>364.0</ele>
        <time>2021-02-14T10:00:06Z</time>
      </trkpt>
      <trkpt lat="43.461365" lon="-5.591767">
        <ele>365.0</ele>
        <time>2021-02-14T10:00:07Z</time>
      </trkpt>
      <trkpt lat="43.461357" lon="-5.59177">
        <ele>365.0</ele>
        <time>2021-02-14T10:00:08Z</time>
      </trkpt>
      <trkpt lat="43.46134" lon="-5.591773">
        <ele>365.0</ele>
        <time>2021-02-14T10:00:09Z</time>
      </trkpt>
      <trkpt lat="43.461327" lon="-5.591772">
        <ele>365.0</ele>
        <time>2021-02-14T10:00:10Z</time>
      </trkpt>
      <trkpt lat="43.461315" lon="-5.5917697">
        <ele>365.0</ele>
        <time>2021-02-14T10:00:11Z</time>
      </trkpt>
      <trkpt lat="43.461304" lon="-5.591767">
        <ele>365.0</ele>
        <time>2021-02-14T10:00:12Z</time>
      </trkpt>
      <trkpt lat="43.461292" lon="-5.591764">
        <ele>365.0</ele>
        <time>2021-02-14T10:00:13Z</time>
      </trkpt>
      <trkpt lat="43.461285" lon="-5.5917606">
        <ele>365.0</ele>
        <time>2021-02-14T10:00:14Z</time>
      </trkpt>
      <trkpt lat="43.461273" lon="-5.5917563">
        <ele>365.0</ele>
        <time>2021-02-14T10:00:15Z</time>
      </trkpt>
      <trkpt lat="43.461258" lon="-5.5917497">
        <ele>365.0</ele>
        <time>2021-02-14T10:00:16Z</time>
      </trkpt>
      <trkpt lat="43.461246" lon="-5.5917444">
        <ele>365.0</ele>
        <time>2021-02-14T10:00:17Z</time>
      </trkpt>
      <trkpt lat="43.46123" lon="-5.5917406">
        <ele>365.0</ele>
        <time>2021-02-14T10:00:18Z</time>
      </trkpt>
      <trkpt lat="43.461216" lon="-5.591737">
        <ele>365.0</ele>
        <time>2021-02-14T10:00:19Z</time>
      </trkpt>
      <trkpt lat="43.4612" lon="-5.591732">
        <ele>365.0</ele>
        <time>2021-02-14T10:00:20Z</time>
      </trkpt>
      <trkpt lat="43.461193" lon="-5.5917263">
        <ele>365.0</ele>
        <time>2021-02-14T10:00:21Z</time>
      </trkpt>
      <trkpt lat="43.461178" lon="-5.591722">
        <ele>365.0</ele>
        <time>2021-02-14T10:00:22Z</time>
      </trkpt>
      <trkpt lat="43.461163" lon="-5.5917177">
        <ele>365.0</ele>
        <time>2021-02-14T10:00:23Z</time>
      </trkpt>
      <trkpt lat="43.461147" lon="-5.5917134">
        <ele>365.0</ele>
        <time>2021-02-14T10:00:24Z</time>
      </trkpt>
      <trkpt lat="43.461132" lon="-5.5917068">
        <ele>365.0</ele>
        <time>2021-02-14T10:00:25Z</time>
      </trkpt>
      <trkpt lat="43.461113" lon="-5.5917006">
        <ele>365.0</ele>
        <time>2021-02-14T10:00:26Z</time>
      </trkpt>
      <trkpt lat="43.461098" lon="-5.591695">
        <ele>365.0</ele>
        <time>2021-02-14T10:00:27Z</time>
      </trkpt>
      <trkpt lat="43.46109" lon="-5.5916896">
        <ele>365.0</ele>
        <time>2021-02-14T10:00:28Z</time>
      </trkpt>
      <trkpt lat="43.46108" lon="-5.5916843">
        <ele>365.0</ele>
        <time>2021-02-14T10:00:29Z</time>
      </trkpt>
      <trkpt lat="43.461063" lon="-5.5916796">
        <ele>365.0</ele>
        <time>2021-02-14T10:00:30Z</time>
      </trkpt>
      <trkpt lat="43.461052" lon="-5.5916724">
        <ele>365.0</ele>
        <time>2021-02-14T10:00:31Z</time>
      </trkpt>
      <trkpt lat="43.461044" lon="-5.591665">
        <ele>365.0</ele>
        <time>2021-02-14T10:00:32Z</time>
      </trkpt>
      <trkpt lat="43.461037" lon="-5.591656">
        <ele>365.0</ele>
        <time>2021-02-14T10:00:33Z</time>
      </trkpt>
      <trkpt lat="43.46103" lon="-5.5916505">
        <ele>365.0</ele>
        <time>2021-02-14T10:00:34Z</time>
      </trkpt>
      <trkpt lat="43.46102" lon="-5.591645">
        <ele>365.0</ele>
        <time>2021-02-14T10:00:35Z</time>
      </trkpt>
      <trkpt lat="43.461018" lon="-5.5916395">
        <ele>365.0</ele>
        <time>2021-02-14T10:00:36Z</time>
      </trkpt>
      <trkpt lat="43.461006" lon="-5.591634">
        <ele>365.0</ele>
        <time>2021-02-14T10:00:37Z</time>
      </trkpt>
      <trkpt lat="43.461" lon="-5.591629">
        <ele>365.0</ele>
        <time>2021-02-14T10:00:38Z</time>
      </trkpt>
      <trkpt lat="43.46099" lon="-5.591623">
        <ele>365.0</ele>
        <time>2021-02-14T10:00:39Z</time>
      </trkpt>
      <trkpt lat="43.460987" lon="-5.5916166">
        <ele>365.0</ele>
        <time>2021-02-14T10:00:40Z</time>
      </trkpt>
      <trkpt lat="43.460976" lon="-5.5916114">
        <ele>365.0</ele>
        <time>2021-02-14T10:00:41Z</time>
      </trkpt>
      <trkpt lat="43.46097" lon="-5.5916023">
        <ele>365.0</ele>
        <time>2021-02-14T10:00:42Z</time>
      </trkpt>
      <trkpt lat="43.46096" lon="-5.591593">
        <ele>365.0</ele>
        <time>2021-02-14T10:00:43Z</time>
      </trkpt>
      <trkpt lat="43.460953" lon="-5.5915833">
        <ele>365.0</ele>
        <time>2021-02-14T10:00:44Z</time>
      </trkpt>
      <trkpt lat="43.46094" lon="-5.5915756">
        <ele>365.0</ele>
        <time>2021-02-14T10:00:46Z</time>
      </trkpt>
      <trkpt lat="43.46093" lon="-5.59157">
        <ele>365.0</ele>
        <time>2021-02-14T10:00:46Z</time>
      </trkpt>
      <trkpt lat="43.46092" lon="-5.5915656">
        <ele>365.0</ele>
        <time>2021-02-14T10:00:47Z</time>
      </trkpt>
      <trkpt lat="43.46091" lon="-5.591561">
        <ele>365.0</ele>
        <time>2021-02-14T10:00:48Z</time>
      </trkpt>
      <trkpt lat="43.4609" lon="-5.5915565">
        <ele>365.0</ele>
        <time>2021-02-14T10:00:49Z</time>
      </trkpt>
      <trkpt lat="43.460888" lon="-5.591551">
        <ele>365.0</ele>
        <time>2021-02-14T10:00:50Z</time>
      </trkpt>
      <trkpt lat="43.460884" lon="-5.591545">
        <ele>365.0</ele>
        <time>2021-02-14T10:00:51Z</time>
      </trkpt>
      <trkpt lat="43.460873" lon="-5.59154">
        <ele>365.0</ele>
        <time>2021-02-14T10:00:52Z</time>
      </trkpt>
      <trkpt lat="43.460865" lon="-5.591534">
        <ele>365.0</ele>
        <time>2021-02-14T10:00:53Z</time>
      </trkpt>
      <trkpt lat="43.460854" lon="-5.5915294">
        <ele>365.0</ele>
        <time>2021-02-14T10:00:55Z</time>
      </trkpt>
      <trkpt lat="43.460842" lon="-5.5915265">
        <ele>365.0</ele>
        <time>2021-02-14T10:00:55Z</time>
      </trkpt>
      <trkpt lat="43.46084" lon="-5.5915236">
        <ele>365.0</ele>
        <time>2021-02-14T10:00:56Z</time>
      </trkpt>
      <trkpt lat="43.460827" lon="-5.59152">
        <ele>365.0</ele>
        <time>2021-02-14T10:00:57Z</time>
      </trkpt>
      <trkpt lat="43.460823" lon="-5.591516">
        <ele>365.0</ele>
        <time>2021-02-14T10:00:58Z</time>
      </trkpt>
      <trkpt lat="43.46081" lon="-5.591512">
        <ele>365.0</ele>
        <time>2021-02-14T10:00:59Z</time>
      </trkpt>
      <trkpt lat="43.460804" lon="-5.5915093">
        <ele>365.0</ele>
        <time>2021-02-14T10:01:00Z</time>
      </trkpt>
      <trkpt lat="43.460796" lon="-5.591505">
        <ele>365.0</ele>
        <time>2021-02-14T10:01:01Z</time>
      </trkpt>
      <trkpt lat="43.46079" lon="-5.5915027">
        <ele>365.0</ele>
        <time>2021-02-14T10:01:02Z</time>
      </trkpt>
      <trkpt lat="43.460777" lon="-5.591499">
        <ele>365.0</ele>
        <time>2021-02-14T10:01:03Z</time>
      </trkpt>
      <trkpt lat="43.460766" lon="-5.591495">
        <ele>365.0</ele>
        <time>2021-02-14T10:01:04Z</time>
      </trkpt>
      <trkpt lat="43.46076" lon="-5.5914917">
        <ele>365.0</ele>
        <time>2021-02-14T10:01:05Z</time>
      </trkpt>
      <trkpt lat="43.460747" lon="-5.591489">
        <ele>365.0</ele>
        <time>2021-02-14T10:01:06Z</time>
      </trkpt>
      <trkpt lat="43.460743" lon="-5.591484">
        <ele>365.0</ele>
        <time>2021-02-14T10:01:08Z</time>
      </trkpt>
      <trkpt lat="43.46073" lon="-5.591479">
        <ele>365.0</ele>
        <time>2021-02-14T10:01:08Z</time>
      </trkpt>
      <trkpt lat="43.460724" lon="-5.591474">
        <ele>365.0</ele>
        <time>2021-02-14T10:01:08Z</time>
      </trkpt>
      <trkpt lat="43.460716" lon="-5.591474">
        <ele>365.0</ele>
        <time>2021-02-14T10:01:09Z</time>
      </trkpt>
      <trkpt lat="43.460705" lon="-5.591477">
        <ele>365.0</ele>
        <time>2021-02-14T10:01:10Z</time>
      </trkpt>
      <trkpt lat="43.460693" lon="-5.591479">
        <ele>365.0</ele>
        <time>2021-02-14T10:01:11Z</time>
      </trkpt>
      <trkpt lat="43.460686" lon="-5.591478">
        <ele>365.0</ele>
        <time>2021-02-14T10:01:12Z</time>
      </trkpt>
      <trkpt lat="43.460674" lon="-5.5914726">
        <ele>365.0</ele>
        <time>2021-02-14T10:01:13Z</time>
      </trkpt>
      <trkpt lat="43.46067" lon="-5.5914655">
        <ele>365.0</ele>
        <time>2021-02-14T10:01:14Z</time>
      </trkpt>
      <trkpt lat="43.460663" lon="-5.5914574">
        <ele>365.0</ele>
        <time>2021-02-14T10:01:15Z</time>
      </trkpt>
      <trkpt lat="43.46066" lon="-5.5914507">
        <ele>365.0</ele>
        <time>2021-02-14T10:01:16Z</time>
      </trkpt>
      <trkpt lat="43.460648" lon="-5.5914254">
        <ele>365.0</ele>
        <time>2021-02-14T10:01:19Z</time>
      </trkpt>
      <trkpt lat="43.460648" lon="-5.5914245">
        <ele>365.0</ele>
        <time>2021-02-14T10:01:20Z</time>
      </trkpt>
      <trkpt lat="43.460655" lon="-5.591424">
        <ele>365.0</ele>
        <time>2021-02-14T10:01:21Z</time>
      </trkpt>
      <trkpt lat="43.460648" lon="-5.5914197">
        <ele>365.0</ele>
        <time>2021-02-14T10:01:22Z</time>
      </trkpt>
      <trkpt lat="43.460648" lon="-5.591412">
        <ele>365.0</ele>
        <time>2021-02-14T10:01:23Z</time>
      </trkpt>
      <trkpt lat="43.460648" lon="-5.5914035">
        <ele>365.0</ele>
        <time>2021-02-14T10:01:25Z</time>
      </trkpt>
      <trkpt lat="43.460648" lon="-5.5913944">
        <ele>364.0</ele>
        <time>2021-02-14T10:01:25Z</time>
      </trkpt>
      <trkpt lat="43.460644" lon="-5.5913844">
        <ele>364.0</ele>
        <time>2021-02-14T10:01:26Z</time>
      </trkpt>
      <trkpt lat="43.460644" lon="-5.591372">
        <ele>364.0</ele>
        <time>2021-02-14T10:01:27Z</time>
      </trkpt>
      <trkpt lat="43.460644" lon="-5.591361">
        <ele>364.0</ele>
        <time>2021-02-14T10:01:28Z</time>
      </trkpt>
      <trkpt lat="43.46064" lon="-5.5913525">
        <ele>364.0</ele>
        <time>2021-02-14T10:01:29Z</time>
      </trkpt>
      <trkpt lat="43.46064" lon="-5.591345">
        <ele>364.0</ele>
        <time>2021-02-14T10:01:30Z</time>
      </trkpt>
      <trkpt lat="43.46064" lon="-5.5913377">
        <ele>363.0</ele>
        <time>2021-02-14T10:01:31Z</time>
      </trkpt>
      <trkpt lat="43.460632" lon="-5.591329">
        <ele>363.0</ele>
        <time>2021-02-14T10:01:32Z</time>
      </trkpt>
      <trkpt lat="43.460632" lon="-5.5913205">
        <ele>363.0</ele>
        <time>2021-02-14T10:01:33Z</time>
      </trkpt>
      <trkpt lat="43.460632" lon="-5.5913115">
        <ele>363.0</ele>
        <time>2021-02-14T10:01:34Z</time>
      </trkpt>
      <trkpt lat="43.46063" lon="-5.591302">
        <ele>363.0</ele>
        <time>2021-02-14T10:01:35Z</time>
      </trkpt>
      <trkpt lat="43.46063" lon="-5.591298">
        <ele>363.0</ele>
        <time>2021-02-14T10:01:36Z</time>
      </trkpt>
      <trkpt lat="43.460625" lon="-5.5912967">
        <ele>362.0</ele>
        <time>2021-02-14T10:01:37Z</time>
      </trkpt>
      <trkpt lat="43.460613" lon="-5.591295">
        <ele>362.0</ele>
        <time>2021-02-14T10:01:38Z</time>
      </trkpt>
      <trkpt lat="43.46061" lon="-5.5912914">
        <ele>362.0</ele>
        <time>2021-02-14T10:01:39Z</time>
      </trkpt>
      <trkpt lat="43.4606" lon="-5.591287">
        <ele>362.0</ele>
        <time>2021-02-14T10:01:40Z</time>
      </trkpt>
      <trkpt lat="43.460598" lon="-5.59128">
        <ele>361.0</ele>
        <time>2021-02-14T10:01:41Z</time>
      </trkpt>
      <trkpt lat="43.460598" lon="-5.591272">
        <ele>361.0</ele>
        <time>2021-02-14T10:01:42Z</time>
      </trkpt>
      <trkpt lat="43.460594" lon="-5.5912633">
        <ele>361.0</ele>
        <time>2021-02-14T10:01:43Z</time>
      </trkpt>
      <trkpt lat="43.460594" lon="-5.5912557">
        <ele>361.0</ele>
        <time>2021-02-14T10:01:44Z</time>
      </trkpt>
      <trkpt lat="43.460587" lon="-5.5912476">
        <ele>361.0</ele>
        <time>2021-02-14T10:01:45Z</time>
      </trkpt>
      <trkpt lat="43.460583" lon="-5.5912375">
        <ele>361.0</ele>
        <time>2021-02-14T10:01:46Z</time>
      </trkpt>
      <trkpt lat="43.46058" lon="-5.59123">
        <ele>361.0</ele>
        <time>2021-02-14T10:01:47Z</time>
      </trkpt>
      <trkpt lat="43.460567" lon="-5.5912223">
        <ele>361.0</ele>
        <time>2021-02-14T10:01:48Z</time>
      </trkpt>
      <trkpt lat="43.460564" lon="-5.591216">
        <ele>361.0</ele>
        <time>2021-02-14T10:01:49Z</time>
      </trkpt>
      <trkpt lat="43.460556" lon="-5.5912085">
        <ele>360.0</ele>
        <time>2021-02-14T10:01:51Z</time>
      </trkpt>
      <trkpt lat="43.460552" lon="-5.591201">
        <ele>360.0</ele>
        <time>2021-02-14T10:01:51Z</time>
      </trkpt>
      <trkpt lat="43.460552" lon="-5.5911937">
        <ele>360.0</ele>
        <time>2021-02-14T10:01:52Z</time>
      </trkpt>
      <trkpt lat="43.46055" lon="-5.591183">
        <ele>360.0</ele>
        <time>2021-02-14T10:01:53Z</time>
      </trkpt>
      <trkpt lat="43.46054" lon="-5.5911717">
        <ele>360.0</ele>
        <time>2021-02-14T10:01:54Z</time>
      </trkpt>
      <trkpt lat="43.460537" lon="-5.591161">
        <ele>360.0</ele>
        <time>2021-02-14T10:01:55Z</time>
      </trkpt>
      <trkpt lat="43.460537" lon="-5.5911508">
        <ele>360.0</ele>
        <time>2021-02-14T10:01:56Z</time>
      </trkpt>
      <trkpt lat="43.46053" lon="-5.591138">
        <ele>359.0</ele>
        <time>2021-02-14T10:01:57Z</time>
      </trkpt>
      <trkpt lat="43.460526" lon="-5.591124">
        <ele>359.0</ele>
        <time>2021-02-14T10:01:58Z</time>
      </trkpt>
      <trkpt lat="43.460514" lon="-5.5911083">
        <ele>359.0</ele>
        <time>2021-02-14T10:01:59Z</time>
      </trkpt>
      <trkpt lat="43.460506" lon="-5.5910935">
        <ele>359.0</ele>
        <time>2021-02-14T10:02:00Z</time>
      </trkpt>
      <trkpt lat="43.460495" lon="-5.5910797">
        <ele>359.0</ele>
        <time>2021-02-14T10:02:01Z</time>
      </trkpt>
      <trkpt lat="43.46049" lon="-5.5910654">
        <ele>359.0</ele>
        <time>2021-02-14T10:02:02Z</time>
      </trkpt>
      <trkpt lat="43.46048" lon="-5.591052">
        <ele>358.0</ele>
        <time>2021-02-14T10:02:03Z</time>
      </trkpt>
      <trkpt lat="43.460476" lon="-5.591039">
        <ele>358.0</ele>
        <time>2021-02-14T10:02:05Z</time>
      </trkpt>
      <trkpt lat="43.46047" lon="-5.5910306">
        <ele>358.0</ele>
        <time>2021-02-14T10:02:05Z</time>
      </trkpt>
      <trkpt lat="43.460464" lon="-5.5910215">
        <ele>358.0</ele>
        <time>2021-02-14T10:02:06Z</time>
      </trkpt>
      <trkpt lat="43.46046" lon="-5.5910106">
        <ele>358.0</ele>
        <time>2021-02-14T10:02:07Z</time>
      </trkpt>
      <trkpt lat="43.460453" lon="-5.5910025">
        <ele>358.0</ele>
        <time>2021-02-14T10:02:08Z</time>
      </trkpt>
      <trkpt lat="43.460445" lon="-5.590998">
        <ele>357.0</ele>
        <time>2021-02-14T10:02:09Z</time>
      </trkpt>
      <trkpt lat="43.460434" lon="-5.590994">
        <ele>357.0</ele>
        <time>2021-02-14T10:02:10Z</time>
      </trkpt>
      <trkpt lat="43.460423" lon="-5.5909934">
        <ele>357.0</ele>
        <time>2021-02-14T10:02:11Z</time>
      </trkpt>
      <trkpt lat="43.460415" lon="-5.5909934">
        <ele>357.0</ele>
        <time>2021-02-14T10:02:13Z</time>
      </trkpt>
      <trkpt lat="43.460407" lon="-5.5909934">
        <ele>357.0</ele>
        <time>2021-02-14T10:02:13Z</time>
      </trkpt>
      <trkpt lat="43.4604" lon="-5.5909896">
        <ele>356.0</ele>
        <time>2021-02-14T10:02:14Z</time>
      </trkpt>
      <trkpt lat="43.460392" lon="-5.5909824">
        <ele>356.0</ele>
        <time>2021-02-14T10:02:15Z</time>
      </trkpt>
      <trkpt lat="43.460384" lon="-5.590976">
        <ele>356.0</ele>
        <time>2021-02-14T10:02:16Z</time>
      </trkpt>
      <trkpt lat="43.460377" lon="-5.590969">
        <ele>356.0</ele>
        <time>2021-02-14T10:02:17Z</time>
      </trkpt>
      <trkpt lat="43.460373" lon="-5.5909624">
        <ele>356.0</ele>
        <time>2021-02-14T10:02:18Z</time>
      </trkpt>
      <trkpt lat="43.46036" lon="-5.590956">
        <ele>356.0</ele>
        <time>2021-02-14T10:02:19Z</time>
      </trkpt>
      <trkpt lat="43.460358" lon="-5.5909524">
        <ele>356.0</ele>
        <time>2021-02-14T10:02:20Z</time>
      </trkpt>
      <trkpt lat="43.460346" lon="-5.5909505">
        <ele>355.0</ele>
        <time>2021-02-14T10:02:22Z</time>
      </trkpt>
      <trkpt lat="43.460342" lon="-5.5909467">
        <ele>355.0</ele>
        <time>2021-02-14T10:02:22Z</time>
      </trkpt>
      <trkpt lat="43.460335" lon="-5.5909395">
        <ele>355.0</ele>
        <time>2021-02-14T10:02:23Z</time>
      </trkpt>
      <trkpt lat="43.46033" lon="-5.590928">
        <ele>355.0</ele>
        <time>2021-02-14T10:02:24Z</time>
      </trkpt>
      <trkpt lat="43.460327" lon="-5.590917">
        <ele>355.0</ele>
        <time>2021-02-14T10:02:25Z</time>
      </trkpt>
      <trkpt lat="43.460327" lon="-5.5909076">
        <ele>355.0</ele>
        <time>2021-02-14T10:02:26Z</time>
      </trkpt>
      <trkpt lat="43.46032" lon="-5.590901">
        <ele>355.0</ele>
        <time>2021-02-14T10:02:27Z</time>
      </trkpt>
      <trkpt lat="43.46031" lon="-5.5908923">
        <ele>355.0</ele>
        <time>2021-02-14T10:02:29Z</time>
      </trkpt>
      <trkpt lat="43.4603" lon="-5.5908785">
        <ele>355.0</ele>
        <time>2021-02-14T10:02:33Z</time>
      </trkpt>
      <trkpt lat="43.4603" lon="-5.5908775">
        <ele>355.0</ele>
        <time>2021-02-14T10:02:34Z</time>
      </trkpt>
      <trkpt lat="43.4603" lon="-5.5908775">
        <ele>355.0</ele>
        <time>2021-02-14T10:02:38Z</time>
      </trkpt>
      <trkpt lat="43.4603" lon="-5.5908785">
        <ele>355.0</ele>
        <time>2021-02-14T10:02:57Z</time>
      </trkpt>
      <trkpt lat="43.460297" lon="-5.59088">
        <ele>355.0</ele>
        <time>2021-02-14T10:02:58Z</time>
      </trkpt>
      <trkpt lat="43.46029" lon="-5.590882">
        <ele>355.0</ele>
        <time>2021-02-14T10:02:59Z</time>
      </trkpt>
      <trkpt lat="43.460285" lon="-5.5908837">
        <ele>355.0</ele>
        <time>2021-02-14T10:03:00Z</time>
      </trkpt>
      <trkpt lat="43.46028" lon="-5.5908904">
        <ele>355.0</ele>
        <time>2021-02-14T10:03:01Z</time>
      </trkpt>
      <trkpt lat="43.46027" lon="-5.5908947">
        <ele>355.0</ele>
        <time>2021-02-14T10:03:02Z</time>
      </trkpt>
      <trkpt lat="43.46025" lon="-5.590912">
        <ele>355.0</ele>
        <time>2021-02-14T10:03:05Z</time>
      </trkpt>
      <trkpt lat="43.46025" lon="-5.590914">
        <ele>355.0</ele>
        <time>2021-02-14T10:03:08Z</time>
      </trkpt>
      <trkpt lat="43.46025" lon="-5.5909147">
        <ele>355.0</ele>
        <time>2021-02-14T10:03:09Z</time>
      </trkpt>
      <trkpt lat="43.46025" lon="-5.5909157">
        <ele>355.0</ele>
        <time>2021-02-14T10:03:12Z</time>
      </trkpt>
      <trkpt lat="43.46025" lon="-5.5909157">
        <ele>355.0</ele>
        <time>2021-02-14T10:03:13Z</time>
      </trkpt>
      <trkpt lat="43.46025" lon="-5.5909157">
        <ele>355.0</ele>
        <time>2021-02-14T10:03:17Z</time>
      </trkpt>
      <trkpt lat="43.46025" lon="-5.590914">
        <ele>355.0</ele>
        <time>2021-02-14T10:03:20Z</time>
      </trkpt>
      <trkpt lat="43.46025" lon="-5.590913">
        <ele>355.0</ele>
        <time>2021-02-14T10:03:21Z</time>
      </trkpt>
      <trkpt lat="43.46025" lon="-5.590914">
        <ele>355.0</ele>
        <time>2021-02-14T10:03:40Z</time>
      </trkpt>
      <trkpt lat="43.46025" lon="-5.5909157">
        <ele>355.0</ele>
        <time>2021-02-14T10:03:43Z</time>
      </trkpt>
      <trkpt lat="43.46025" lon="-5.590917">
        <ele>355.0</ele>
        <time>2021-02-14T10:03:57Z</time>
      </trkpt>
      <trkpt lat="43.460243" lon="-5.5909185">
        <ele>355.0</ele>
        <time>2021-02-14T10:03:58Z</time>
      </trkpt>
      <trkpt lat="43.46024" lon="-5.590921">
        <ele>355.0</ele>
        <time>2021-02-14T10:03:59Z</time>
      </trkpt>
      <trkpt lat="43.460228" lon="-5.590926">
        <ele>355.0</ele>
        <time>2021-02-14T10:04:00Z</time>
      </trkpt>
      <trkpt lat="43.460224" lon="-5.5909324">
        <ele>355.0</ele>
        <time>2021-02-14T10:04:01Z</time>
      </trkpt>
      <trkpt lat="43.460213" lon="-5.5909376">
        <ele>355.0</ele>
        <time>2021-02-14T10:04:02Z</time>
      </trkpt>
      <trkpt lat="43.46021" lon="-5.590942">
        <ele>355.0</ele>
        <time>2021-02-14T10:04:03Z</time>
      </trkpt>
      <trkpt lat="43.460197" lon="-5.5909467">
        <ele>355.0</ele>
        <time>2021-02-14T10:04:04Z</time>
      </trkpt>
      <trkpt lat="43.460194" lon="-5.5909543">
        <ele>355.0</ele>
        <time>2021-02-14T10:04:05Z</time>
      </trkpt>
      <trkpt lat="43.460182" lon="-5.5909634">
        <ele>355.0</ele>
        <time>2021-02-14T10:04:06Z</time>
      </trkpt>
      <trkpt lat="43.46018" lon="-5.590972">
        <ele>355.0</ele>
        <time>2021-02-14T10:04:07Z</time>
      </trkpt>
      <trkpt lat="43.460175" lon="-5.5909805">
        <ele>355.0</ele>
        <time>2021-02-14T10:04:08Z</time>
      </trkpt>
      <trkpt lat="43.460167" lon="-5.5909915">
        <ele>355.0</ele>
        <time>2021-02-14T10:04:09Z</time>
      </trkpt>
      <trkpt lat="43.460163" lon="-5.5910044">
        <ele>355.0</ele>
        <time>2021-02-14T10:04:10Z</time>
      </trkpt>
      <trkpt lat="43.46016" lon="-5.591018">
        <ele>355.0</ele>
        <time>2021-02-14T10:04:12Z</time>
      </trkpt>
      <trkpt lat="43.46016" lon="-5.5910325">
        <ele>355.0</ele>
        <time>2021-02-14T10:04:12Z</time>
      </trkpt>
      <trkpt lat="43.46015" lon="-5.5910463">
        <ele>355.0</ele>
        <time>2021-02-14T10:04:13Z</time>
      </trkpt>
      <trkpt lat="43.460148" lon="-5.5910587">
        <ele>355.0</ele>
        <time>2021-02-14T10:04:14Z</time>
      </trkpt>
      <trkpt lat="43.460136" lon="-5.59107">
        <ele>355.0</ele>
        <time>2021-02-14T10:04:15Z</time>
      </trkpt>
      <trkpt lat="43.460125" lon="-5.59108">
        <ele>355.0</ele>
        <time>2021-02-14T10:04:16Z</time>
      </trkpt>
      <trkpt lat="43.460117" lon="-5.5910897">
        <ele>355.0</ele>
        <time>2021-02-14T10:04:17Z</time>
      </trkpt>
      <trkpt lat="43.460106" lon="-5.5910983">
        <ele>355.0</ele>
        <time>2021-02-14T10:04:18Z</time>
      </trkpt>
      <trkpt lat="43.46009" lon="-5.591104">
        <ele>355.0</ele>
        <time>2021-02-14T10:04:19Z</time>
      </trkpt>
      <trkpt lat="43.46008" lon="-5.59111">
        <ele>355.0</ele>
        <time>2021-02-14T10:04:21Z</time>
      </trkpt>
      <trkpt lat="43.46007" lon="-5.591116">
        <ele>355.0</ele>
        <time>2021-02-14T10:04:21Z</time>
      </trkpt>
      <trkpt lat="43.46006" lon="-5.5911226">
        <ele>355.0</ele>
        <time>2021-02-14T10:04:22Z</time>
      </trkpt>
      <trkpt lat="43.46005" lon="-5.5911283">
        <ele>355.0</ele>
        <time>2021-02-14T10:04:23Z</time>
      </trkpt>
      <trkpt lat="43.46004" lon="-5.5911336">
        <ele>355.0</ele>
        <time>2021-02-14T10:04:24Z</time>
      </trkpt>
      <trkpt lat="43.460026" lon="-5.5911384">
        <ele>355.0</ele>
        <time>2021-02-14T10:04:25Z</time>
      </trkpt>
      <trkpt lat="43.460014" lon="-5.5911403">
        <ele>355.0</ele>
        <time>2021-02-14T10:04:26Z</time>
      </trkpt>
      <trkpt lat="43.460003" lon="-5.59114">
        <ele>355.0</ele>
        <time>2021-02-14T10:04:27Z</time>
      </trkpt>
      <trkpt lat="43.459988" lon="-5.591138">
        <ele>355.0</ele>
        <time>2021-02-14T10:04:29Z</time>
      </trkpt>
      <trkpt lat="43.459972" lon="-5.591136">
        <ele>355.0</ele>
        <time>2021-02-14T10:04:29Z</time>
      </trkpt>
      <trkpt lat="43.459957" lon="-5.5911365">
        <ele>355.0</ele>
        <time>2021-02-14T10:04:30Z</time>
      </trkpt>
      <trkpt lat="43.459946" lon="-5.591138">
        <ele>355.0</ele>
        <time>2021-02-14T10:04:31Z</time>
      </trkpt>
      <trkpt lat="43.459915" lon="-5.591154">
        <ele>355.0</ele>
        <time>2021-02-14T10:04:33Z</time>
      </trkpt>
      <trkpt lat="43.459915" lon="-5.591156">
        <ele>355.0</ele>
        <time>2021-02-14T10:04:34Z</time>
      </trkpt>
      <trkpt lat="43.45991" lon="-5.591162">
        <ele>357.0</ele>
        <time>2021-02-14T10:04:35Z</time>
      </trkpt>
      <trkpt lat="43.459908" lon="-5.5911713">
        <ele>357.0</ele>
        <time>2021-02-14T10:04:36Z</time>
      </trkpt>
      <trkpt lat="43.4599" lon="-5.591181">
        <ele>357.0</ele>
        <time>2021-02-14T10:04:37Z</time>
      </trkpt>
      <trkpt lat="43.459892" lon="-5.59119">
        <ele>357.0</ele>
        <time>2021-02-14T10:04:38Z</time>
      </trkpt>
      <trkpt lat="43.45988" lon="-5.5911956">
        <ele>357.0</ele>
        <time>2021-02-14T10:04:39Z</time>
      </trkpt>
      <trkpt lat="43.45987" lon="-5.591198">
        <ele>357.0</ele>
        <time>2021-02-14T10:04:40Z</time>
      </trkpt>
      <trkpt lat="43.45986" lon="-5.5911994">
        <ele>358.0</ele>
        <time>2021-02-14T10:04:41Z</time>
      </trkpt>
      <trkpt lat="43.45985" lon="-5.591201">
        <ele>358.0</ele>
        <time>2021-02-14T10:04:42Z</time>
      </trkpt>
      <trkpt lat="43.459846" lon="-5.591203">
        <ele>358.0</ele>
        <time>2021-02-14T10:04:43Z</time>
      </trkpt>
      <trkpt lat="43.459835" lon="-5.591207">
        <ele>358.0</ele>
        <time>2021-02-14T10:04:44Z</time>
      </trkpt>
      <trkpt lat="43.459824" lon="-5.5912104">
        <ele>358.0</ele>
        <time>2021-02-14T10:04:46Z</time>
      </trkpt>
      <trkpt lat="43.459816" lon="-5.5912123">
        <ele>358.0</ele>
        <time>2021-02-14T10:04:46Z</time>
      </trkpt>
      <trkpt lat="43.459805" lon="-5.591213">
        <ele>359.0</ele>
        <time>2021-02-14T10:04:47Z</time>
      </trkpt>
      <trkpt lat="43.459793" lon="-5.591215">
        <ele>359.0</ele>
        <time>2021-02-14T10:04:48Z</time>
      </trkpt>
      <trkpt lat="43.459785" lon="-5.5912204">
        <ele>359.0</ele>
        <time>2021-02-14T10:04:49Z</time>
      </trkpt>
      <trkpt lat="43.459774" lon="-5.5912256">
        <ele>359.0</ele>
        <time>2021-02-14T10:04:50Z</time>
      </trkpt>
      <trkpt lat="43.459763" lon="-5.5912294">
        <ele>359.0</ele>
        <time>2021-02-14T10:04:51Z</time>
      </trkpt>
      <trkpt lat="43.45975" lon="-5.5912333">
        <ele>360.0</ele>
        <time>2021-02-14T10:04:52Z</time>
      </trkpt>
      <trkpt lat="43.459747" lon="-5.591235">
        <ele>360.0</ele>
        <time>2021-02-14T10:04:53Z</time>
      </trkpt>
      <trkpt lat="43.459736" lon="-5.5912356">
        <ele>360.0</ele>
        <time>2021-02-14T10:04:54Z</time>
      </trkpt>
      <trkpt lat="43.45973" lon="-5.591237">
        <ele>360.0</ele>
        <time>2021-02-14T10:04:55Z</time>
      </trkpt>
      <trkpt lat="43.459717" lon="-5.591237">
        <ele>360.0</ele>
        <time>2021-02-14T10:04:56Z</time>
      </trkpt>
      <trkpt lat="43.459713" lon="-5.5912356">
        <ele>360.0</ele>
        <time>2021-02-14T10:04:57Z</time>
      </trkpt>
      <trkpt lat="43.4597" lon="-5.5912347">
        <ele>361.0</ele>
        <time>2021-02-14T10:04:58Z</time>
      </trkpt>
      <trkpt lat="43.459698" lon="-5.5912337">
        <ele>361.0</ele>
        <time>2021-02-14T10:05:00Z</time>
      </trkpt>
      <trkpt lat="43.459686" lon="-5.5912337">
        <ele>361.0</ele>
        <time>2021-02-14T10:05:00Z</time>
      </trkpt>
      <trkpt lat="43.459682" lon="-5.5912347">
        <ele>361.0</ele>
        <time>2021-02-14T10:05:01Z</time>
      </trkpt>
      <trkpt lat="43.45967" lon="-5.5912347">
        <ele>361.0</ele>
        <time>2021-02-14T10:05:02Z</time>
      </trkpt>
      <trkpt lat="43.45966" lon="-5.5912347">
        <ele>361.0</ele>
        <time>2021-02-14T10:05:03Z</time>
      </trkpt>
      <trkpt lat="43.459652" lon="-5.5912347">
        <ele>362.0</ele>
        <time>2021-02-14T10:05:04Z</time>
      </trkpt>
      <trkpt lat="43.45964" lon="-5.5912337">
        <ele>362.0</ele>
        <time>2021-02-14T10:05:05Z</time>
      </trkpt>
      <trkpt lat="43.459637" lon="-5.591232">
        <ele>362.0</ele>
        <time>2021-02-14T10:05:06Z</time>
      </trkpt>
      <trkpt lat="43.459625" lon="-5.591231">
        <ele>362.0</ele>
        <time>2021-02-14T10:05:07Z</time>
      </trkpt>
      <trkpt lat="43.459614" lon="-5.5912313">
        <ele>362.0</ele>
        <time>2021-02-14T10:05:08Z</time>
      </trkpt>
      <trkpt lat="43.459606" lon="-5.591232">
        <ele>362.0</ele>
        <time>2021-02-14T10:05:09Z</time>
      </trkpt>
      <trkpt lat="43.4596" lon="-5.5912337">
        <ele>362.0</ele>
        <time>2021-02-14T10:05:10Z</time>
      </trkpt>
      <trkpt lat="43.45959" lon="-5.591235">
        <ele>362.0</ele>
        <time>2021-02-14T10:05:11Z</time>
      </trkpt>
      <trkpt lat="43.459583" lon="-5.591237">
        <ele>362.0</ele>
        <time>2021-02-14T10:05:12Z</time>
      </trkpt>
      <trkpt lat="43.459576" lon="-5.5912395">
        <ele>362.0</ele>
        <time>2021-02-14T10:05:13Z</time>
      </trkpt>
      <trkpt lat="43.459568" lon="-5.5912437">
        <ele>363.0</ele>
        <time>2021-02-14T10:05:14Z</time>
      </trkpt>
      <trkpt lat="43.459557" lon="-5.591248">
        <ele>363.0</ele>
        <time>2021-02-14T10:05:15Z</time>
      </trkpt>
      <trkpt lat="43.45955" lon="-5.5912533">
        <ele>363.0</ele>
        <time>2021-02-14T10:05:16Z</time>
      </trkpt>
      <trkpt lat="43.459538" lon="-5.591259">
        <ele>363.0</ele>
        <time>2021-02-14T10:05:17Z</time>
      </trkpt>
      <trkpt lat="43.459526" lon="-5.591264">
        <ele>363.0</ele>
        <time>2021-02-14T10:05:18Z</time>
      </trkpt>
      <trkpt lat="43.45951" lon="-5.591266">
        <ele>363.0</ele>
        <time>2021-02-14T10:05:19Z</time>
      </trkpt>
      <trkpt lat="43.459503" lon="-5.591267">
        <ele>364.0</ele>
        <time>2021-02-14T10:05:20Z</time>
      </trkpt>
      <trkpt lat="43.45949" lon="-5.5912685">
        <ele>364.0</ele>
        <time>2021-02-14T10:05:21Z</time>
      </trkpt>
      <trkpt lat="43.459476" lon="-5.591269">
        <ele>364.0</ele>
        <time>2021-02-14T10:05:22Z</time>
      </trkpt>
      <trkpt lat="43.459473" lon="-5.5912724">
        <ele>364.0</ele>
        <time>2021-02-14T10:05:23Z</time>
      </trkpt>
      <trkpt lat="43.45946" lon="-5.5912766">
        <ele>364.0</ele>
        <time>2021-02-14T10:05:24Z</time>
      </trkpt>
      <trkpt lat="43.45945" lon="-5.5912805">
        <ele>364.0</ele>
        <time>2021-02-14T10:05:24Z</time>
      </trkpt>
      <trkpt lat="43.459442" lon="-5.591285">
        <ele>364.0</ele>
        <time>2021-02-14T10:05:25Z</time>
      </trkpt>
      <trkpt lat="43.459427" lon="-5.591287">
        <ele>365.0</ele>
        <time>2021-02-14T10:05:26Z</time>
      </trkpt>
      <trkpt lat="43.459415" lon="-5.591288">
        <ele>365.0</ele>
        <time>2021-02-14T10:05:27Z</time>
      </trkpt>
      <trkpt lat="43.459404" lon="-5.591289">
        <ele>365.0</ele>
        <time>2021-02-14T10:05:28Z</time>
      </trkpt>
      <trkpt lat="43.459396" lon="-5.591291">
        <ele>365.0</ele>
        <time>2021-02-14T10:05:29Z</time>
      </trkpt>
      <trkpt lat="43.459385" lon="-5.591295">
        <ele>365.0</ele>
        <time>2021-02-14T10:05:30Z</time>
      </trkpt>
      <trkpt lat="43.459373" lon="-5.5912986">
        <ele>365.0</ele>
        <time>2021-02-14T10:05:31Z</time>
      </trkpt>
      <trkpt lat="43.459362" lon="-5.591303">
        <ele>365.0</ele>
        <time>2021-02-14T10:05:32Z</time>
      </trkpt>
      <trkpt lat="43.459354" lon="-5.591306">
        <ele>366.0</ele>
        <time>2021-02-14T10:05:33Z</time>
      </trkpt>
      <trkpt lat="43.459343" lon="-5.59131">
        <ele>366.0</ele>
        <time>2021-02-14T10:05:34Z</time>
      </trkpt>
      <trkpt lat="43.45933" lon="-5.5913124">
        <ele>366.0</ele>
        <time>2021-02-14T10:05:35Z</time>
      </trkpt>
      <trkpt lat="43.459324" lon="-5.5913153">
        <ele>366.0</ele>
        <time>2021-02-14T10:05:36Z</time>
      </trkpt>
      <trkpt lat="43.459312" lon="-5.5913167">
        <ele>366.0</ele>
        <time>2021-02-14T10:05:37Z</time>
      </trkpt>
      <trkpt lat="43.45931" lon="-5.5913186">
        <ele>366.0</ele>
        <time>2021-02-14T10:05:38Z</time>
      </trkpt>
      <trkpt lat="43.459297" lon="-5.5913196">
        <ele>366.0</ele>
        <time>2021-02-14T10:05:39Z</time>
      </trkpt>
      <trkpt lat="43.459286" lon="-5.591321">
        <ele>366.0</ele>
        <time>2021-02-14T10:05:41Z</time>
      </trkpt>
      <trkpt lat="43.45928" lon="-5.591321">
        <ele>366.0</ele>
        <time>2021-02-14T10:05:41Z</time>
      </trkpt>
      <trkpt lat="43.459267" lon="-5.591321">
        <ele>366.0</ele>
        <time>2021-02-14T10:05:42Z</time>
      </trkpt>
      <trkpt lat="43.45925" lon="-5.5913215">
        <ele>366.0</ele>
        <time>2021-02-14T10:05:43Z</time>
      </trkpt>
      <trkpt lat="43.459236" lon="-5.5913215">
        <ele>366.0</ele>
        <time>2021-02-14T10:05:44Z</time>
      </trkpt>
      <trkpt lat="43.45922" lon="-5.5913243">
        <ele>366.0</ele>
        <time>2021-02-14T10:05:45Z</time>
      </trkpt>
      <trkpt lat="43.459206" lon="-5.59133">
        <ele>366.0</ele>
        <time>2021-02-14T10:05:46Z</time>
      </trkpt>
      <trkpt lat="43.45919" lon="-5.5913363">
        <ele>366.0</ele>
        <time>2021-02-14T10:05:47Z</time>
      </trkpt>
      <trkpt lat="43.459175" lon="-5.5913434">
        <ele>366.0</ele>
        <time>2021-02-14T10:05:49Z</time>
      </trkpt>
      <trkpt lat="43.45916" lon="-5.5913467">
        <ele>366.0</ele>
        <time>2021-02-14T10:05:49Z</time>
      </trkpt>
      <trkpt lat="43.459145" lon="-5.5913496">
        <ele>366.0</ele>
        <time>2021-02-14T10:05:50Z</time>
      </trkpt>
      <trkpt lat="43.45913" lon="-5.5913534">
        <ele>367.0</ele>
        <time>2021-02-14T10:05:51Z</time>
      </trkpt>
      <trkpt lat="43.459114" lon="-5.5913563">
        <ele>367.0</ele>
        <time>2021-02-14T10:05:52Z</time>
      </trkpt>
      <trkpt lat="43.459103" lon="-5.5913553">
        <ele>367.0</ele>
        <time>2021-02-14T10:05:53Z</time>
      </trkpt>
      <trkpt lat="43.459087" lon="-5.5913534">
        <ele>367.0</ele>
        <time>2021-02-14T10:05:55Z</time>
      </trkpt>
      <trkpt lat="43.459076" lon="-5.5913506">
        <ele>367.0</ele>
        <time>2021-02-14T10:05:56Z</time>
      </trkpt>
      <trkpt lat="43.45906" lon="-5.591347">
        <ele>367.0</ele>
        <time>2021-02-14T10:05:57Z</time>
      </trkpt>
      <trkpt lat="43.459053" lon="-5.5913434">
        <ele>367.0</ele>
        <time>2021-02-14T10:05:58Z</time>
      </trkpt>
      <trkpt lat="43.45904" lon="-5.5913377">
        <ele>367.0</ele>
        <time>2021-02-14T10:05:59Z</time>
      </trkpt>
      <trkpt lat="43.459026" lon="-5.591333">
        <ele>367.0</ele>
        <time>2021-02-14T10:06:00Z</time>
      </trkpt>
      <trkpt lat="43.459015" lon="-5.59133">
        <ele>367.0</ele>
        <time>2021-02-14T10:06:01Z</time>
      </trkpt>
      <trkpt lat="43.459007" lon="-5.591328">
        <ele>368.0</ele>
        <time>2021-02-14T10:06:02Z</time>
      </trkpt>
      <trkpt lat="43.458996" lon="-5.591328">
        <ele>368.0</ele>
        <time>2021-02-14T10:06:03Z</time>
      </trkpt>
      <trkpt lat="43.45899" lon="-5.591329">
        <ele>368.0</ele>
        <time>2021-02-14T10:06:04Z</time>
      </trkpt>
      <trkpt lat="43.45898" lon="-5.59133">
        <ele>368.0</ele>
        <time>2021-02-14T10:06:05Z</time>
      </trkpt>
      <trkpt lat="43.45897" lon="-5.5913305">
        <ele>368.0</ele>
        <time>2021-02-14T10:06:06Z</time>
      </trkpt>
      <trkpt lat="43.458965" lon="-5.591332">
        <ele>368.0</ele>
        <time>2021-02-14T10:06:07Z</time>
      </trkpt>
      <trkpt lat="43.458954" lon="-5.59133">
        <ele>368.0</ele>
        <time>2021-02-14T10:06:08Z</time>
      </trkpt>
      <trkpt lat="43.458942" lon="-5.591328">
        <ele>368.0</ele>
        <time>2021-02-14T10:06:09Z</time>
      </trkpt>
      <trkpt lat="43.458935" lon="-5.5913253">
        <ele>368.0</ele>
        <time>2021-02-14T10:06:10Z</time>
      </trkpt>
      <trkpt lat="43.458927" lon="-5.591323">
        <ele>368.0</ele>
        <time>2021-02-14T10:06:11Z</time>
      </trkpt>
      <trkpt lat="43.45892" lon="-5.5913224">
        <ele>368.0</ele>
        <time>2021-02-14T10:06:12Z</time>
      </trkpt>
      <trkpt lat="43.458908" lon="-5.591321">
        <ele>369.0</ele>
        <time>2021-02-14T10:06:13Z</time>
      </trkpt>
      <trkpt lat="43.458904" lon="-5.5913205">
        <ele>369.0</ele>
        <time>2021-02-14T10:06:14Z</time>
      </trkpt>
      <trkpt lat="43.458893" lon="-5.5913196">
        <ele>369.0</ele>
        <time>2021-02-14T10:06:15Z</time>
      </trkpt>
      <trkpt lat="43.45888" lon="-5.591319">
        <ele>369.0</ele>
        <time>2021-02-14T10:06:16Z</time>
      </trkpt>
      <trkpt lat="43.458878" lon="-5.591319">
        <ele>369.0</ele>
        <time>2021-02-14T10:06:17Z</time>
      </trkpt>
      <trkpt lat="43.458866" lon="-5.591319">
        <ele>370.0</ele>
        <time>2021-02-14T10:06:18Z</time>
      </trkpt>
      <trkpt lat="43.45886" lon="-5.5913196">
        <ele>370.0</ele>
        <time>2021-02-14T10:06:19Z</time>
      </trkpt>
      <trkpt lat="43.458847" lon="-5.5913205">
        <ele>370.0</ele>
        <time>2021-02-14T10:06:20Z</time>
      </trkpt>
      <trkpt lat="43.458843" lon="-5.591321">
        <ele>370.0</ele>
        <time>2021-02-14T10:06:21Z</time>
      </trkpt>
      <trkpt lat="43.45883" lon="-5.591323">
        <ele>370.0</ele>
        <time>2021-02-14T10:06:22Z</time>
      </trkpt>
      <trkpt lat="43.45882" lon="-5.5913234">
        <ele>371.0</ele>
        <time>2021-02-14T10:06:23Z</time>
      </trkpt>
      <trkpt lat="43.458813" lon="-5.5913243">
        <ele>371.0</ele>
        <time>2021-02-14T10:06:24Z</time>
      </trkpt>
      <trkpt lat="43.4588" lon="-5.5913253">
        <ele>371.0</ele>
        <time>2021-02-14T10:06:25Z</time>
      </trkpt>
      <trkpt lat="43.45879" lon="-5.5913267">
        <ele>371.0</ele>
        <time>2021-02-14T10:06:26Z</time>
      </trkpt>
      <trkpt lat="43.458755" lon="-5.591332">
        <ele>371.0</ele>
        <time>2021-02-14T10:06:28Z</time>
      </trkpt>
      <trkpt lat="43.458748" lon="-5.591332">
        <ele>372.0</ele>
        <time>2021-02-14T10:06:29Z</time>
      </trkpt>
      <trkpt lat="43.458744" lon="-5.591331">
        <ele>372.0</ele>
        <time>2021-02-14T10:06:30Z</time>
      </trkpt>
      <trkpt lat="43.45874" lon="-5.59133">
        <ele>372.0</ele>
        <time>2021-02-14T10:06:31Z</time>
      </trkpt>
      <trkpt lat="43.458733" lon="-5.591327">
        <ele>372.0</ele>
        <time>2021-02-14T10:06:32Z</time>
      </trkpt>
      <trkpt lat="43.458725" lon="-5.591326">
        <ele>372.0</ele>
        <time>2021-02-14T10:06:33Z</time>
      </trkpt>
      <trkpt lat="43.458717" lon="-5.5913267">
        <ele>373.0</ele>
        <time>2021-02-14T10:06:34Z</time>
      </trkpt>
      <trkpt lat="43.45871" lon="-5.591328">
        <ele>373.0</ele>
        <time>2021-02-14T10:06:35Z</time>
      </trkpt>
      <trkpt lat="43.458702" lon="-5.5913286">
        <ele>373.0</ele>
        <time>2021-02-14T10:06:36Z</time>
      </trkpt>
      <trkpt lat="43.458694" lon="-5.591328">
        <ele>373.0</ele>
        <time>2021-02-14T10:06:37Z</time>
      </trkpt>
      <trkpt lat="43.458687" lon="-5.591326">
        <ele>373.0</ele>
        <time>2021-02-14T10:06:38Z</time>
      </trkpt>
      <trkpt lat="43.45868" lon="-5.5913234">
        <ele>374.0</ele>
        <time>2021-02-14T10:06:39Z</time>
      </trkpt>
      <trkpt lat="43.458668" lon="-5.591321">
        <ele>374.0</ele>
        <time>2021-02-14T10:06:40Z</time>
      </trkpt>
      <trkpt lat="43.458656" lon="-5.5913186">
        <ele>374.0</ele>
        <time>2021-02-14T10:06:41Z</time>
      </trkpt>
      <trkpt lat="43.45865" lon="-5.591317">
        <ele>374.0</ele>
        <time>2021-02-14T10:06:42Z</time>
      </trkpt>
      <trkpt lat="43.45864" lon="-5.5913157">
        <ele>375.0</ele>
        <time>2021-02-14T10:06:43Z</time>
      </trkpt>
      <trkpt lat="43.458633" lon="-5.591315">
        <ele>375.0</ele>
        <time>2021-02-14T10:06:44Z</time>
      </trkpt>
      <trkpt lat="43.458626" lon="-5.591315">
        <ele>375.0</ele>
        <time>2021-02-14T10:06:45Z</time>
      </trkpt>
      <trkpt lat="43.45862" lon="-5.5913153">
        <ele>375.0</ele>
        <time>2021-02-14T10:06:46Z</time>
      </trkpt>
      <trkpt lat="43.45861" lon="-5.5913157">
        <ele>375.0</ele>
        <time>2021-02-14T10:06:47Z</time>
      </trkpt>
      <trkpt lat="43.458607" lon="-5.591315">
        <ele>376.0</ele>
        <time>2021-02-14T10:06:48Z</time>
      </trkpt>
      <trkpt lat="43.4586" lon="-5.5913134">
        <ele>376.0</ele>
        <time>2021-02-14T10:06:49Z</time>
      </trkpt>
      <trkpt lat="43.45859" lon="-5.591312">
        <ele>376.0</ele>
        <time>2021-02-14T10:06:50Z</time>
      </trkpt>
      <trkpt lat="43.458584" lon="-5.59131">
        <ele>376.0</ele>
        <time>2021-02-14T10:06:51Z</time>
      </trkpt>
      <trkpt lat="43.458576" lon="-5.5913086">
        <ele>376.0</ele>
        <time>2021-02-14T10:06:52Z</time>
      </trkpt>
      <trkpt lat="43.458565" lon="-5.5913057">
        <ele>376.0</ele>
        <time>2021-02-14T10:06:53Z</time>
      </trkpt>
      <trkpt lat="43.458553" lon="-5.591303">
        <ele>377.0</ele>
        <time>2021-02-14T10:06:54Z</time>
      </trkpt>
      <trkpt lat="43.458546" lon="-5.591304">
        <ele>377.0</ele>
        <time>2021-02-14T10:06:55Z</time>
      </trkpt>
      <trkpt lat="43.458534" lon="-5.591306">
        <ele>377.0</ele>
        <time>2021-02-14T10:06:56Z</time>
      </trkpt>
      <trkpt lat="43.45853" lon="-5.59131">
        <ele>377.0</ele>
        <time>2021-02-14T10:06:57Z</time>
      </trkpt>
      <trkpt lat="43.45852" lon="-5.5913153">
        <ele>377.0</ele>
        <time>2021-02-14T10:06:58Z</time>
      </trkpt>
      <trkpt lat="43.458508" lon="-5.591319">
        <ele>377.0</ele>
        <time>2021-02-14T10:06:59Z</time>
      </trkpt>
      <trkpt lat="43.4585" lon="-5.591323">
        <ele>377.0</ele>
        <time>2021-02-14T10:07:00Z</time>
      </trkpt>
      <trkpt lat="43.45849" lon="-5.5913243">
        <ele>377.0</ele>
        <time>2021-02-14T10:07:01Z</time>
      </trkpt>
      <trkpt lat="43.458477" lon="-5.5913243">
        <ele>377.0</ele>
        <time>2021-02-14T10:07:02Z</time>
      </trkpt>
      <trkpt lat="43.458473" lon="-5.5913224">
        <ele>377.0</ele>
        <time>2021-02-14T10:07:03Z</time>
      </trkpt>
      <trkpt lat="43.45846" lon="-5.5913177">
        <ele>377.0</ele>
        <time>2021-02-14T10:07:04Z</time>
      </trkpt>
      <trkpt lat="43.458454" lon="-5.5913124">
        <ele>377.0</ele>
        <time>2021-02-14T10:07:05Z</time>
      </trkpt>
      <trkpt lat="43.458447" lon="-5.5913095">
        <ele>377.0</ele>
        <time>2021-02-14T10:07:06Z</time>
      </trkpt>
      <trkpt lat="43.458443" lon="-5.5913086">
        <ele>377.0</ele>
        <time>2021-02-14T10:07:07Z</time>
      </trkpt>
      <trkpt lat="43.45844" lon="-5.5913086">
        <ele>377.0</ele>
        <time>2021-02-14T10:07:08Z</time>
      </trkpt>
      <trkpt lat="43.458427" lon="-5.5913067">
        <ele>377.0</ele>
        <time>2021-02-14T10:07:09Z</time>
      </trkpt>
      <trkpt lat="43.458416" lon="-5.591306">
        <ele>377.0</ele>
        <time>2021-02-14T10:07:10Z</time>
      </trkpt>
      <trkpt lat="43.458412" lon="-5.591305">
        <ele>377.0</ele>
        <time>2021-02-14T10:07:11Z</time>
      </trkpt>
      <trkpt lat="43.4584" lon="-5.5913043">
        <ele>378.0</ele>
        <time>2021-02-14T10:07:12Z</time>
      </trkpt>
      <trkpt lat="43.45839" lon="-5.591301">
        <ele>378.0</ele>
        <time>2021-02-14T10:07:13Z</time>
      </trkpt>
      <trkpt lat="43.45838" lon="-5.5912952">
        <ele>378.0</ele>
        <time>2021-02-14T10:07:14Z</time>
      </trkpt>
      <trkpt lat="43.458366" lon="-5.5912895">
        <ele>378.0</ele>
        <time>2021-02-14T10:07:15Z</time>
      </trkpt>
      <trkpt lat="43.458355" lon="-5.5912857">
        <ele>378.0</ele>
        <time>2021-02-14T10:07:16Z</time>
      </trkpt>
      <trkpt lat="43.458344" lon="-5.591282">
        <ele>378.0</ele>
        <time>2021-02-14T10:07:17Z</time>
      </trkpt>
      <trkpt lat="43.45834" lon="-5.5912795">
        <ele>378.0</ele>
        <time>2021-02-14T10:07:18Z</time>
      </trkpt>
      <trkpt lat="43.45833" lon="-5.591276">
        <ele>378.0</ele>
        <time>2021-02-14T10:07:19Z</time>
      </trkpt>
      <trkpt lat="43.45832" lon="-5.591274">
        <ele>379.0</ele>
        <time>2021-02-14T10:07:20Z</time>
      </trkpt>
      <trkpt lat="43.45831" lon="-5.591271">
        <ele>379.0</ele>
        <time>2021-02-14T10:07:21Z</time>
      </trkpt>
      <trkpt lat="43.458294" lon="-5.5912685">
        <ele>379.0</ele>
        <time>2021-02-14T10:07:22Z</time>
      </trkpt>
      <trkpt lat="43.458282" lon="-5.5912647">
        <ele>379.0</ele>
        <time>2021-02-14T10:07:23Z</time>
      </trkpt>
      <trkpt lat="43.458275" lon="-5.59126">
        <ele>379.0</ele>
        <time>2021-02-14T10:07:24Z</time>
      </trkpt>
      <trkpt lat="43.45826" lon="-5.591256">
        <ele>379.0</ele>
        <time>2021-02-14T10:07:25Z</time>
      </trkpt>
      <trkpt lat="43.45825" lon="-5.5912514">
        <ele>379.0</ele>
        <time>2021-02-14T10:07:26Z</time>
      </trkpt>
      <trkpt lat="43.458237" lon="-5.591246">
        <ele>379.0</ele>
        <time>2021-02-14T10:07:27Z</time>
      </trkpt>
      <trkpt lat="43.45822" lon="-5.591242">
        <ele>379.0</ele>
        <time>2021-02-14T10:07:28Z</time>
      </trkpt>
      <trkpt lat="43.45821" lon="-5.5912375">
        <ele>379.0</ele>
        <time>2021-02-14T10:07:29Z</time>
      </trkpt>
      <trkpt lat="43.458202" lon="-5.591235">
        <ele>379.0</ele>
        <time>2021-02-14T10:07:30Z</time>
      </trkpt>
      <trkpt lat="43.458195" lon="-5.5912337">
        <ele>379.0</ele>
        <time>2021-02-14T10:07:31Z</time>
      </trkpt>
      <trkpt lat="43.45818" lon="-5.59123">
        <ele>379.0</ele>
        <time>2021-02-14T10:07:32Z</time>
      </trkpt>
      <trkpt lat="43.45817" lon="-5.591226">
        <ele>379.0</ele>
        <time>2021-02-14T10:07:33Z</time>
      </trkpt>
      <trkpt lat="43.45816" lon="-5.5912204">
        <ele>379.0</ele>
        <time>2021-02-14T10:07:34Z</time>
      </trkpt>
      <trkpt lat="43.458145" lon="-5.591213">
        <ele>379.0</ele>
        <time>2021-02-14T10:07:35Z</time>
      </trkpt>
      <trkpt lat="43.45813" lon="-5.5912066">
        <ele>379.0</ele>
        <time>2021-02-14T10:07:36Z</time>
      </trkpt>
      <trkpt lat="43.45812" lon="-5.591201">
        <ele>379.0</ele>
        <time>2021-02-14T10:07:37Z</time>
      </trkpt>
      <trkpt lat="43.45811" lon="-5.5911956">
        <ele>379.0</ele>
        <time>2021-02-14T10:07:38Z</time>
      </trkpt>
      <trkpt lat="43.458096" lon="-5.591191">
        <ele>379.0</ele>
        <time>2021-02-14T10:07:39Z</time>
      </trkpt>
      <trkpt lat="43.458084" lon="-5.591188">
        <ele>379.0</ele>
        <time>2021-02-14T10:07:40Z</time>
      </trkpt>
      <trkpt lat="43.458073" lon="-5.591183">
        <ele>379.0</ele>
        <time>2021-02-14T10:07:41Z</time>
      </trkpt>
      <trkpt lat="43.458065" lon="-5.5911794">
        <ele>379.0</ele>
        <time>2021-02-14T10:07:42Z</time>
      </trkpt>
      <trkpt lat="43.45805" lon="-5.5911736">
        <ele>379.0</ele>
        <time>2021-02-14T10:07:43Z</time>
      </trkpt>
      <trkpt lat="43.45804" lon="-5.5911665">
        <ele>379.0</ele>
        <time>2021-02-14T10:07:44Z</time>
      </trkpt>
      <trkpt lat="43.458027" lon="-5.5911603">
        <ele>379.0</ele>
        <time>2021-02-14T10:07:45Z</time>
      </trkpt>
      <trkpt lat="43.458023" lon="-5.591153">
        <ele>379.0</ele>
        <time>2021-02-14T10:07:46Z</time>
      </trkpt>
      <trkpt lat="43.45801" lon="-5.5911465">
        <ele>379.0</ele>
        <time>2021-02-14T10:07:47Z</time>
      </trkpt>
      <trkpt lat="43.458" lon="-5.5911393">
        <ele>379.0</ele>
        <time>2021-02-14T10:07:48Z</time>
      </trkpt>
      <trkpt lat="43.457996" lon="-5.5911317">
        <ele>379.0</ele>
        <time>2021-02-14T10:07:49Z</time>
      </trkpt>
      <trkpt lat="43.457985" lon="-5.5911245">
        <ele>379.0</ele>
        <time>2021-02-14T10:07:50Z</time>
      </trkpt>
      <trkpt lat="43.45798" lon="-5.5911174">
        <ele>379.0</ele>
        <time>2021-02-14T10:07:51Z</time>
      </trkpt>
      <trkpt lat="43.457977" lon="-5.59111">
        <ele>379.0</ele>
        <time>2021-02-14T10:07:52Z</time>
      </trkpt>
      <trkpt lat="43.457966" lon="-5.5911036">
        <ele>379.0</ele>
        <time>2021-02-14T10:07:53Z</time>
      </trkpt>
      <trkpt lat="43.457954" lon="-5.5910935">
        <ele>379.0</ele>
        <time>2021-02-14T10:07:54Z</time>
      </trkpt>
      <trkpt lat="43.457947" lon="-5.5910835">
        <ele>379.0</ele>
        <time>2021-02-14T10:07:55Z</time>
      </trkpt>
      <trkpt lat="43.457935" lon="-5.5910735">
        <ele>379.0</ele>
        <time>2021-02-14T10:07:56Z</time>
      </trkpt>
      <trkpt lat="43.457924" lon="-5.5910635">
        <ele>379.0</ele>
        <time>2021-02-14T10:07:57Z</time>
      </trkpt>
      <trkpt lat="43.457916" lon="-5.591054">
        <ele>379.0</ele>
        <time>2021-02-14T10:07:58Z</time>
      </trkpt>
      <trkpt lat="43.457905" lon="-5.591046">
        <ele>379.0</ele>
        <time>2021-02-14T10:07:59Z</time>
      </trkpt>
      <trkpt lat="43.457893" lon="-5.5910387">
        <ele>379.0</ele>
        <time>2021-02-14T10:08:00Z</time>
      </trkpt>
      <trkpt lat="43.45789" lon="-5.5910325">
        <ele>379.0</ele>
        <time>2021-02-14T10:08:01Z</time>
      </trkpt>
      <trkpt lat="43.457886" lon="-5.591026">
        <ele>379.0</ele>
        <time>2021-02-14T10:08:02Z</time>
      </trkpt>
      <trkpt lat="43.457874" lon="-5.5910206">
        <ele>379.0</ele>
        <time>2021-02-14T10:08:03Z</time>
      </trkpt>
      <trkpt lat="43.457863" lon="-5.591015">
        <ele>379.0</ele>
        <time>2021-02-14T10:08:04Z</time>
      </trkpt>
      <trkpt lat="43.45786" lon="-5.591008">
        <ele>379.0</ele>
        <time>2021-02-14T10:08:05Z</time>
      </trkpt>
      <trkpt lat="43.457848" lon="-5.5909977">
        <ele>379.0</ele>
        <time>2021-02-14T10:08:06Z</time>
      </trkpt>
      <trkpt lat="43.45784" lon="-5.5909867">
        <ele>379.0</ele>
        <time>2021-02-14T10:08:07Z</time>
      </trkpt>
      <trkpt lat="43.45783" lon="-5.5909767">
        <ele>380.0</ele>
        <time>2021-02-14T10:08:08Z</time>
      </trkpt>
      <trkpt lat="43.457817" lon="-5.590968">
        <ele>380.0</ele>
        <time>2021-02-14T10:08:09Z</time>
      </trkpt>
      <trkpt lat="43.457806" lon="-5.5909605">
        <ele>380.0</ele>
        <time>2021-02-14T10:08:10Z</time>
      </trkpt>
      <trkpt lat="43.457798" lon="-5.590953">
        <ele>380.0</ele>
        <time>2021-02-14T10:08:11Z</time>
      </trkpt>
      <trkpt lat="43.457787" lon="-5.5909467">
        <ele>380.0</ele>
        <time>2021-02-14T10:08:12Z</time>
      </trkpt>
      <trkpt lat="43.457775" lon="-5.5909414">
        <ele>380.0</ele>
        <time>2021-02-14T10:08:13Z</time>
      </trkpt>
      <trkpt lat="43.457767" lon="-5.590936">
        <ele>380.0</ele>
        <time>2021-02-14T10:08:14Z</time>
      </trkpt>
      <trkpt lat="43.457756" lon="-5.5909324">
        <ele>380.0</ele>
        <time>2021-02-14T10:08:15Z</time>
      </trkpt>
      <trkpt lat="43.457752" lon="-5.5909286">
        <ele>380.0</ele>
        <time>2021-02-14T10:08:16Z</time>
      </trkpt>
      <trkpt lat="43.45774" lon="-5.590926">
        <ele>380.0</ele>
        <time>2021-02-14T10:08:17Z</time>
      </trkpt>
      <trkpt lat="43.45773" lon="-5.5909243">
        <ele>380.0</ele>
        <time>2021-02-14T10:08:18Z</time>
      </trkpt>
      <trkpt lat="43.45772" lon="-5.5909233">
        <ele>380.0</ele>
        <time>2021-02-14T10:08:19Z</time>
      </trkpt>
      <trkpt lat="43.45771" lon="-5.590923">
        <ele>381.0</ele>
        <time>2021-02-14T10:08:20Z</time>
      </trkpt>
      <trkpt lat="43.4577" lon="-5.5909243">
        <ele>381.0</ele>
        <time>2021-02-14T10:08:21Z</time>
      </trkpt>
      <trkpt lat="43.45769" lon="-5.5909247">
        <ele>381.0</ele>
        <time>2021-02-14T10:08:22Z</time>
      </trkpt>
      <trkpt lat="43.45768" lon="-5.5909247">
        <ele>381.0</ele>
        <time>2021-02-14T10:08:23Z</time>
      </trkpt>
      <trkpt lat="43.45767" lon="-5.5909243">
        <ele>381.0</ele>
        <time>2021-02-14T10:08:24Z</time>
      </trkpt>
      <trkpt lat="43.45766" lon="-5.5909224">
        <ele>381.0</ele>
        <time>2021-02-14T10:08:25Z</time>
      </trkpt>
      <trkpt lat="43.457645" lon="-5.5909195">
        <ele>381.0</ele>
        <time>2021-02-14T10:08:26Z</time>
      </trkpt>
      <trkpt lat="43.457634" lon="-5.5909185">
        <ele>382.0</ele>
        <time>2021-02-14T10:08:27Z</time>
      </trkpt>
      <trkpt lat="43.457623" lon="-5.5909176">
        <ele>382.0</ele>
        <time>2021-02-14T10:08:28Z</time>
      </trkpt>
      <trkpt lat="43.45761" lon="-5.590917">
        <ele>382.0</ele>
        <time>2021-02-14T10:08:29Z</time>
      </trkpt>
      <trkpt lat="43.457603" lon="-5.590917">
        <ele>382.0</ele>
        <time>2021-02-14T10:08:30Z</time>
      </trkpt>
      <trkpt lat="43.457592" lon="-5.5909176">
        <ele>382.0</ele>
        <time>2021-02-14T10:08:31Z</time>
      </trkpt>
      <trkpt lat="43.45758" lon="-5.5909185">
        <ele>382.0</ele>
        <time>2021-02-14T10:08:32Z</time>
      </trkpt>
      <trkpt lat="43.457573" lon="-5.5909185">
        <ele>382.0</ele>
        <time>2021-02-14T10:08:33Z</time>
      </trkpt>
      <trkpt lat="43.45756" lon="-5.5909185">
        <ele>382.0</ele>
        <time>2021-02-14T10:08:34Z</time>
      </trkpt>
      <trkpt lat="43.45755" lon="-5.5909166">
        <ele>382.0</ele>
        <time>2021-02-14T10:08:35Z</time>
      </trkpt>
      <trkpt lat="43.457542" lon="-5.5909157">
        <ele>382.0</ele>
        <time>2021-02-14T10:08:36Z</time>
      </trkpt>
      <trkpt lat="43.45753" lon="-5.5909157">
        <ele>382.0</ele>
        <time>2021-02-14T10:08:37Z</time>
      </trkpt>
      <trkpt lat="43.45752" lon="-5.5909147">
        <ele>382.0</ele>
        <time>2021-02-14T10:08:38Z</time>
      </trkpt>
      <trkpt lat="43.45751" lon="-5.590913">
        <ele>383.0</ele>
        <time>2021-02-14T10:08:39Z</time>
      </trkpt>
      <trkpt lat="43.4575" lon="-5.5909114">
        <ele>383.0</ele>
        <time>2021-02-14T10:08:40Z</time>
      </trkpt>
      <trkpt lat="43.45749" lon="-5.590911">
        <ele>383.0</ele>
        <time>2021-02-14T10:08:41Z</time>
      </trkpt>
      <trkpt lat="43.45748" lon="-5.590911">
        <ele>383.0</ele>
        <time>2021-02-14T10:08:42Z</time>
      </trkpt>
      <trkpt lat="43.457474" lon="-5.590911">
        <ele>383.0</ele>
        <time>2021-02-14T10:08:43Z</time>
      </trkpt>
      <trkpt lat="43.457466" lon="-5.59091">
        <ele>383.0</ele>
        <time>2021-02-14T10:08:44Z</time>
      </trkpt>
      <trkpt lat="43.457455" lon="-5.5909095">
        <ele>384.0</ele>
        <time>2021-02-14T10:08:45Z</time>
      </trkpt>
      <trkpt lat="43.457443" lon="-5.590907">
        <ele>384.0</ele>
        <time>2021-02-14T10:08:46Z</time>
      </trkpt>
      <trkpt lat="43.45743" lon="-5.5909038">
        <ele>384.0</ele>
        <time>2021-02-14T10:08:47Z</time>
      </trkpt>
      <trkpt lat="43.457428" lon="-5.5909004">
        <ele>384.0</ele>
        <time>2021-02-14T10:08:48Z</time>
      </trkpt>
      <trkpt lat="43.457417" lon="-5.5908914">
        <ele>385.0</ele>
        <time>2021-02-14T10:08:49Z</time>
      </trkpt>
      <trkpt lat="43.45741" lon="-5.5908775">
        <ele>385.0</ele>
        <time>2021-02-14T10:08:50Z</time>
      </trkpt>
      <trkpt lat="43.457397" lon="-5.590863">
        <ele>385.0</ele>
        <time>2021-02-14T10:08:51Z</time>
      </trkpt>
      <trkpt lat="43.457386" lon="-5.5908537">
        <ele>385.0</ele>
        <time>2021-02-14T10:08:52Z</time>
      </trkpt>
      <trkpt lat="43.45738" lon="-5.590846">
        <ele>385.0</ele>
        <time>2021-02-14T10:08:53Z</time>
      </trkpt>
      <trkpt lat="43.45737" lon="-5.5908437">
        <ele>385.0</ele>
        <time>2021-02-14T10:08:54Z</time>
      </trkpt>
      <trkpt lat="43.457367" lon="-5.5908422">
        <ele>385.0</ele>
        <time>2021-02-14T10:08:55Z</time>
      </trkpt>
      <trkpt lat="43.457355" lon="-5.5908403">
        <ele>386.0</ele>
        <time>2021-02-14T10:08:56Z</time>
      </trkpt>
      <trkpt lat="43.45734" lon="-5.590837">
        <ele>386.0</ele>
        <time>2021-02-14T10:08:57Z</time>
      </trkpt>
      <trkpt lat="43.457333" lon="-5.590833">
        <ele>386.0</ele>
        <time>2021-02-14T10:08:58Z</time>
      </trkpt>
      <trkpt lat="43.457317" lon="-5.5908384">
        <ele>386.0</ele>
        <time>2021-02-14T10:08:59Z</time>
      </trkpt>
      <trkpt lat="43.457302" lon="-5.590844">
        <ele>386.0</ele>
        <time>2021-02-14T10:09:00Z</time>
      </trkpt>
      <trkpt lat="43.457287" lon="-5.590844">
        <ele>386.0</ele>
        <time>2021-02-14T10:09:01Z</time>
      </trkpt>
      <trkpt lat="43.45727" lon="-5.5908465">
        <ele>386.0</ele>
        <time>2021-02-14T10:09:02Z</time>
      </trkpt>
      <trkpt lat="43.457253" lon="-5.5908585">
        <ele>386.0</ele>
        <time>2021-02-14T10:09:03Z</time>
      </trkpt>
      <trkpt lat="43.457237" lon="-5.5908704">
        <ele>387.0</ele>
        <time>2021-02-14T10:09:04Z</time>
      </trkpt>
      <trkpt lat="43.457222" lon="-5.590882">
        <ele>387.0</ele>
        <time>2021-02-14T10:09:05Z</time>
      </trkpt>
      <trkpt lat="43.457203" lon="-5.590912">
        <ele>387.0</ele>
        <time>2021-02-14T10:09:06Z</time>
      </trkpt>
      <trkpt lat="43.457176" lon="-5.5909586">
        <ele>387.0</ele>
        <time>2021-02-14T10:09:07Z</time>
      </trkpt>
      <trkpt lat="43.45714" lon="-5.591017">
        <ele>387.0</ele>
        <time>2021-02-14T10:09:08Z</time>
      </trkpt>
      <trkpt lat="43.45711" lon="-5.5910597">
        <ele>387.0</ele>
        <time>2021-02-14T10:09:09Z</time>
      </trkpt>
      <trkpt lat="43.457092" lon="-5.5911016">
        <ele>387.0</ele>
        <time>2021-02-14T10:09:10Z</time>
      </trkpt>
      <trkpt lat="43.45707" lon="-5.5911417">
        <ele>387.0</ele>
        <time>2021-02-14T10:09:11Z</time>
      </trkpt>
      <trkpt lat="43.457054" lon="-5.5911655">
        <ele>387.0</ele>
        <time>2021-02-14T10:09:12Z</time>
      </trkpt>
      <trkpt lat="43.457043" lon="-5.591182">
        <ele>387.0</ele>
        <time>2021-02-14T10:09:13Z</time>
      </trkpt>
      <trkpt lat="43.457035" lon="-5.591189">
        <ele>387.0</ele>
        <time>2021-02-14T10:09:14Z</time>
      </trkpt>
      <trkpt lat="43.457024" lon="-5.5911956">
        <ele>387.0</ele>
        <time>2021-02-14T10:09:15Z</time>
      </trkpt>
      <trkpt lat="43.457012" lon="-5.5911756">
        <ele>387.0</ele>
        <time>2021-02-14T10:09:16Z</time>
      </trkpt>
      <trkpt lat="43.457005" lon="-5.591151">
        <ele>387.0</ele>
        <time>2021-02-14T10:09:17Z</time>
      </trkpt>
      <trkpt lat="43.456997" lon="-5.5911193">
        <ele>387.0</ele>
        <time>2021-02-14T10:09:18Z</time>
      </trkpt>
      <trkpt lat="43.456997" lon="-5.591083">
        <ele>387.0</ele>
        <time>2021-02-14T10:09:19Z</time>
      </trkpt>
      <trkpt lat="43.456997" lon="-5.5910406">
        <ele>387.0</ele>
        <time>2021-02-14T10:09:20Z</time>
      </trkpt>
      <trkpt lat="43.457005" lon="-5.5910044">
        <ele>387.0</ele>
        <time>2021-02-14T10:09:21Z</time>
      </trkpt>
      <trkpt lat="43.45701" lon="-5.590972">
        <ele>387.0</ele>
        <time>2021-02-14T10:09:22Z</time>
      </trkpt>
      <trkpt lat="43.45702" lon="-5.5909476">
        <ele>387.0</ele>
        <time>2021-02-14T10:09:23Z</time>
      </trkpt>
      <trkpt lat="43.457024" lon="-5.5909324">
        <ele>387.0</ele>
        <time>2021-02-14T10:09:24Z</time>
      </trkpt>
      <trkpt lat="43.457024" lon="-5.590923">
        <ele>387.0</ele>
        <time>2021-02-14T10:09:25Z</time>
      </trkpt>
      <trkpt lat="43.457024" lon="-5.5909195">
        <ele>387.0</ele>
        <time>2021-02-14T10:09:26Z</time>
      </trkpt>
      <trkpt lat="43.457012" lon="-5.5909157">
        <ele>387.0</ele>
        <time>2021-02-14T10:09:27Z</time>
      </trkpt>
      <trkpt lat="43.45701" lon="-5.5909133">
        <ele>387.0</ele>
        <time>2021-02-14T10:09:28Z</time>
      </trkpt>
      <trkpt lat="43.456997" lon="-5.5909114">
        <ele>387.0</ele>
        <time>2021-02-14T10:09:29Z</time>
      </trkpt>
      <trkpt lat="43.45699" lon="-5.59091">
        <ele>387.0</ele>
        <time>2021-02-14T10:09:30Z</time>
      </trkpt>
      <trkpt lat="43.45698" lon="-5.5909076">
        <ele>387.0</ele>
        <time>2021-02-14T10:09:31Z</time>
      </trkpt>
      <trkpt lat="43.456974" lon="-5.590905">
        <ele>387.0</ele>
        <time>2021-02-14T10:09:32Z</time>
      </trkpt>
      <trkpt lat="43.456963" lon="-5.5909004">
        <ele>387.0</ele>
        <time>2021-02-14T10:09:33Z</time>
      </trkpt>
      <trkpt lat="43.45695" lon="-5.5908947">
        <ele>387.0</ele>
        <time>2021-02-14T10:09:34Z</time>
      </trkpt>
      <trkpt lat="43.456936" lon="-5.5908875">
        <ele>387.0</ele>
        <time>2021-02-14T10:09:35Z</time>
      </trkpt>
      <trkpt lat="43.45693" lon="-5.5908766">
        <ele>387.0</ele>
        <time>2021-02-14T10:09:36Z</time>
      </trkpt>
      <trkpt lat="43.456917" lon="-5.5908666">
        <ele>387.0</ele>
        <time>2021-02-14T10:09:37Z</time>
      </trkpt>
      <trkpt lat="43.4569" lon="-5.5908566">
        <ele>387.0</ele>
        <time>2021-02-14T10:09:38Z</time>
      </trkpt>
      <trkpt lat="43.45689" lon="-5.5908465">
        <ele>387.0</ele>
        <time>2021-02-14T10:09:38Z</time>
      </trkpt>
      <trkpt lat="43.456882" lon="-5.5908403">
        <ele>387.0</ele>
        <time>2021-02-14T10:09:39Z</time>
      </trkpt>
      <trkpt lat="43.45687" lon="-5.590833">
        <ele>387.0</ele>
        <time>2021-02-14T10:09:40Z</time>
      </trkpt>
      <trkpt lat="43.456856" lon="-5.590827">
        <ele>387.0</ele>
        <time>2021-02-14T10:09:41Z</time>
      </trkpt>
      <trkpt lat="43.456844" lon="-5.5908213">
        <ele>387.0</ele>
        <time>2021-02-14T10:09:42Z</time>
      </trkpt>
      <trkpt lat="43.456833" lon="-5.590818">
        <ele>387.0</ele>
        <time>2021-02-14T10:09:43Z</time>
      </trkpt>
      <trkpt lat="43.456825" lon="-5.5908175">
        <ele>387.0</ele>
        <time>2021-02-14T10:09:44Z</time>
      </trkpt>
      <trkpt lat="43.456814" lon="-5.5908184">
        <ele>387.0</ele>
        <time>2021-02-14T10:09:45Z</time>
      </trkpt>
      <trkpt lat="43.456802" lon="-5.59082">
        <ele>387.0</ele>
        <time>2021-02-14T10:09:46Z</time>
      </trkpt>
      <trkpt lat="43.456795" lon="-5.5908194">
        <ele>387.0</ele>
        <time>2021-02-14T10:09:47Z</time>
      </trkpt>
      <trkpt lat="43.45678" lon="-5.59082">
        <ele>387.0</ele>
        <time>2021-02-14T10:09:48Z</time>
      </trkpt>
      <trkpt lat="43.456768" lon="-5.5908213">
        <ele>387.0</ele>
        <time>2021-02-14T10:09:49Z</time>
      </trkpt>
      <trkpt lat="43.456757" lon="-5.590822">
        <ele>387.0</ele>
        <time>2021-02-14T10:09:50Z</time>
      </trkpt>
      <trkpt lat="43.45675" lon="-5.590823">
        <ele>387.0</ele>
        <time>2021-02-14T10:09:51Z</time>
      </trkpt>
      <trkpt lat="43.456738" lon="-5.5908237">
        <ele>387.0</ele>
        <time>2021-02-14T10:09:52Z</time>
      </trkpt>
      <trkpt lat="43.456726" lon="-5.5908213">
        <ele>387.0</ele>
        <time>2021-02-14T10:09:53Z</time>
      </trkpt>
      <trkpt lat="43.45672" lon="-5.5908184">
        <ele>387.0</ele>
        <time>2021-02-14T10:09:54Z</time>
      </trkpt>
      <trkpt lat="43.456707" lon="-5.5908175">
        <ele>387.0</ele>
        <time>2021-02-14T10:09:55Z</time>
      </trkpt>
      <trkpt lat="43.456696" lon="-5.590814">
        <ele>388.0</ele>
        <time>2021-02-14T10:09:56Z</time>
      </trkpt>
      <trkpt lat="43.456688" lon="-5.5908103">
        <ele>388.0</ele>
        <time>2021-02-14T10:09:57Z</time>
      </trkpt>
      <trkpt lat="43.456676" lon="-5.5908065">
        <ele>388.0</ele>
        <time>2021-02-14T10:09:58Z</time>
      </trkpt>
      <trkpt lat="43.45667" lon="-5.5908017">
        <ele>388.0</ele>
        <time>2021-02-14T10:09:59Z</time>
      </trkpt>
      <trkpt lat="43.45666" lon="-5.590798">
        <ele>388.0</ele>
        <time>2021-02-14T10:10:00Z</time>
      </trkpt>
      <trkpt lat="43.456654" lon="-5.590795">
        <ele>388.0</ele>
        <time>2021-02-14T10:10:01Z</time>
      </trkpt>
      <trkpt lat="43.456646" lon="-5.590791">
        <ele>388.0</ele>
        <time>2021-02-14T10:10:02Z</time>
      </trkpt>
      <trkpt lat="43.456635" lon="-5.5907874">
        <ele>388.0</ele>
        <time>2021-02-14T10:10:03Z</time>
      </trkpt>
      <trkpt lat="43.45663" lon="-5.5907826">
        <ele>388.0</ele>
        <time>2021-02-14T10:10:04Z</time>
      </trkpt>
      <trkpt lat="43.45662" lon="-5.590777">
        <ele>388.0</ele>
        <time>2021-02-14T10:10:05Z</time>
      </trkpt>
      <trkpt lat="43.456608" lon="-5.590771">
        <ele>388.0</ele>
        <time>2021-02-14T10:10:06Z</time>
      </trkpt>
      <trkpt lat="43.4566" lon="-5.590764">
        <ele>388.0</ele>
        <time>2021-02-14T10:10:07Z</time>
      </trkpt>
      <trkpt lat="43.456593" lon="-5.590758">
        <ele>388.0</ele>
        <time>2021-02-14T10:10:08Z</time>
      </trkpt>
      <trkpt lat="43.456585" lon="-5.590752">
        <ele>388.0</ele>
        <time>2021-02-14T10:10:09Z</time>
      </trkpt>
      <trkpt lat="43.456573" lon="-5.590745">
        <ele>388.0</ele>
        <time>2021-02-14T10:10:10Z</time>
      </trkpt>
      <trkpt lat="43.45656" lon="-5.590736">
        <ele>388.0</ele>
        <time>2021-02-14T10:10:11Z</time>
      </trkpt>
      <trkpt lat="43.456547" lon="-5.5907207">
        <ele>388.0</ele>
        <time>2021-02-14T10:10:12Z</time>
      </trkpt>
      <trkpt lat="43.45654" lon="-5.5907073">
        <ele>388.0</ele>
        <time>2021-02-14T10:10:13Z</time>
      </trkpt>
      <trkpt lat="43.456524" lon="-5.590689">
        <ele>388.0</ele>
        <time>2021-02-14T10:10:14Z</time>
      </trkpt>
      <trkpt lat="43.456512" lon="-5.5906677">
        <ele>388.0</ele>
        <time>2021-02-14T10:10:15Z</time>
      </trkpt>
      <trkpt lat="43.456497" lon="-5.590648">
        <ele>388.0</ele>
        <time>2021-02-14T10:10:16Z</time>
      </trkpt>
      <trkpt lat="43.456486" lon="-5.5906334">
        <ele>388.0</ele>
        <time>2021-02-14T10:10:17Z</time>
      </trkpt>
      <trkpt lat="43.45647" lon="-5.5906234">
        <ele>388.0</ele>
        <time>2021-02-14T10:10:18Z</time>
      </trkpt>
      <trkpt lat="43.45646" lon="-5.590612">
        <ele>388.0</ele>
        <time>2021-02-14T10:10:19Z</time>
      </trkpt>
      <trkpt lat="43.45645" lon="-5.590601">
        <ele>388.0</ele>
        <time>2021-02-14T10:10:20Z</time>
      </trkpt>
      <trkpt lat="43.45644" lon="-5.590592">
        <ele>388.0</ele>
        <time>2021-02-14T10:10:21Z</time>
      </trkpt>
      <trkpt lat="43.45643" lon="-5.5905848">
        <ele>388.0</ele>
        <time>2021-02-14T10:10:22Z</time>
      </trkpt>
      <trkpt lat="43.45642" lon="-5.5905805">
        <ele>388.0</ele>
        <time>2021-02-14T10:10:23Z</time>
      </trkpt>
      <trkpt lat="43.456413" lon="-5.590569">
        <ele>388.0</ele>
        <time>2021-02-14T10:10:24Z</time>
      </trkpt>
      <trkpt lat="43.45641" lon="-5.590556">
        <ele>388.0</ele>
        <time>2021-02-14T10:10:25Z</time>
      </trkpt>
      <trkpt lat="43.456406" lon="-5.5905395">
        <ele>388.0</ele>
        <time>2021-02-14T10:10:26Z</time>
      </trkpt>
      <trkpt lat="43.456406" lon="-5.590521">
        <ele>388.0</ele>
        <time>2021-02-14T10:10:27Z</time>
      </trkpt>
      <trkpt lat="43.456406" lon="-5.590505">
        <ele>388.0</ele>
        <time>2021-02-14T10:10:28Z</time>
      </trkpt>
      <trkpt lat="43.456406" lon="-5.590487">
        <ele>388.0</ele>
        <time>2021-02-14T10:10:29Z</time>
      </trkpt>
      <trkpt lat="43.456398" lon="-5.590474">
        <ele>388.0</ele>
        <time>2021-02-14T10:10:30Z</time>
      </trkpt>
      <trkpt lat="43.456398" lon="-5.5904613">
        <ele>388.0</ele>
        <time>2021-02-14T10:10:31Z</time>
      </trkpt>
      <trkpt lat="43.456398" lon="-5.5904527">
        <ele>388.0</ele>
        <time>2021-02-14T10:10:32Z</time>
      </trkpt>
      <trkpt lat="43.456394" lon="-5.5904474">
        <ele>388.0</ele>
        <time>2021-02-14T10:10:33Z</time>
      </trkpt>
      <trkpt lat="43.45639" lon="-5.5904436">
        <ele>388.0</ele>
        <time>2021-02-14T10:10:34Z</time>
      </trkpt>
      <trkpt lat="43.456383" lon="-5.590438">
        <ele>388.0</ele>
        <time>2021-02-14T10:10:35Z</time>
      </trkpt>
      <trkpt lat="43.45638" lon="-5.590432">
        <ele>388.0</ele>
        <time>2021-02-14T10:10:36Z</time>
      </trkpt>
      <trkpt lat="43.45638" lon="-5.5904274">
        <ele>388.0</ele>
        <time>2021-02-14T10:10:37Z</time>
      </trkpt>
      <trkpt lat="43.456375" lon="-5.5904217">
        <ele>388.0</ele>
        <time>2021-02-14T10:10:38Z</time>
      </trkpt>
      <trkpt lat="43.456367" lon="-5.5904174">
        <ele>388.0</ele>
        <time>2021-02-14T10:10:39Z</time>
      </trkpt>
      <trkpt lat="43.456364" lon="-5.590414">
        <ele>388.0</ele>
        <time>2021-02-14T10:10:40Z</time>
      </trkpt>
      <trkpt lat="43.45636" lon="-5.5904117">
        <ele>388.0</ele>
        <time>2021-02-14T10:10:41Z</time>
      </trkpt>
      <trkpt lat="43.456352" lon="-5.5904107">
        <ele>388.0</ele>
        <time>2021-02-14T10:10:42Z</time>
      </trkpt>
      <trkpt lat="43.456352" lon="-5.5904083">
        <ele>388.0</ele>
        <time>2021-02-14T10:10:43Z</time>
      </trkpt>
      <trkpt lat="43.456352" lon="-5.590404">
        <ele>388.0</ele>
        <time>2021-02-14T10:10:44Z</time>
      </trkpt>
      <trkpt lat="43.45635" lon="-5.590399">
        <ele>388.0</ele>
        <time>2021-02-14T10:10:45Z</time>
      </trkpt>
      <trkpt lat="43.456345" lon="-5.5903916">
        <ele>390.0</ele>
        <time>2021-02-14T10:10:46Z</time>
      </trkpt>
      <trkpt lat="43.456337" lon="-5.590384">
        <ele>390.0</ele>
        <time>2021-02-14T10:10:47Z</time>
      </trkpt>
      <trkpt lat="43.456333" lon="-5.590378">
        <ele>390.0</ele>
        <time>2021-02-14T10:10:48Z</time>
      </trkpt>
      <trkpt lat="43.45633" lon="-5.5903726">
        <ele>390.0</ele>
        <time>2021-02-14T10:10:49Z</time>
      </trkpt>
      <trkpt lat="43.45632" lon="-5.5903673">
        <ele>390.0</ele>
        <time>2021-02-14T10:10:50Z</time>
      </trkpt>
      <trkpt lat="43.456318" lon="-5.5903635">
        <ele>390.0</ele>
        <time>2021-02-14T10:10:51Z</time>
      </trkpt>
      <trkpt lat="43.456314" lon="-5.5903597">
        <ele>391.0</ele>
        <time>2021-02-14T10:10:52Z</time>
      </trkpt>
      <trkpt lat="43.456314" lon="-5.5903573">
        <ele>391.0</ele>
        <time>2021-02-14T10:10:53Z</time>
      </trkpt>
      <trkpt lat="43.456303" lon="-5.5903473">
        <ele>391.0</ele>
        <time>2021-02-14T10:10:56Z</time>
      </trkpt>
      <trkpt lat="43.456303" lon="-5.5903482">
        <ele>391.0</ele>
        <time>2021-02-14T10:10:57Z</time>
      </trkpt>
      <trkpt lat="43.456303" lon="-5.5903497">
        <ele>391.0</ele>
        <time>2021-02-14T10:10:58Z</time>
      </trkpt>
      <trkpt lat="43.456303" lon="-5.5903516">
        <ele>391.0</ele>
        <time>2021-02-14T10:10:59Z</time>
      </trkpt>
      <trkpt lat="43.456303" lon="-5.5903535">
        <ele>391.0</ele>
        <time>2021-02-14T10:11:00Z</time>
      </trkpt>
      <trkpt lat="43.456303" lon="-5.5903535">
        <ele>391.0</ele>
        <time>2021-02-14T10:11:01Z</time>
      </trkpt>
      <trkpt lat="43.4563" lon="-5.5903497">
        <ele>391.0</ele>
        <time>2021-02-14T10:11:04Z</time>
      </trkpt>
      <trkpt lat="43.4563" lon="-5.5903473">
        <ele>392.0</ele>
        <time>2021-02-14T10:11:05Z</time>
      </trkpt>
      <trkpt lat="43.45629" lon="-5.590345">
        <ele>392.0</ele>
        <time>2021-02-14T10:11:06Z</time>
      </trkpt>
      <trkpt lat="43.456287" lon="-5.590341">
        <ele>392.0</ele>
        <time>2021-02-14T10:11:07Z</time>
      </trkpt>
      <trkpt lat="43.456276" lon="-5.5903373">
        <ele>392.0</ele>
        <time>2021-02-14T10:11:08Z</time>
      </trkpt>
      <trkpt lat="43.456264" lon="-5.590334">
        <ele>393.0</ele>
        <time>2021-02-14T10:11:09Z</time>
      </trkpt>
      <trkpt lat="43.456257" lon="-5.59033">
        <ele>393.0</ele>
        <time>2021-02-14T10:11:10Z</time>
      </trkpt>
      <trkpt lat="43.456245" lon="-5.5903254">
        <ele>393.0</ele>
        <time>2021-02-14T10:11:11Z</time>
      </trkpt>
      <trkpt lat="43.456234" lon="-5.590321">
        <ele>393.0</ele>
        <time>2021-02-14T10:11:12Z</time>
      </trkpt>
      <trkpt lat="43.45622" lon="-5.590319">
        <ele>393.0</ele>
        <time>2021-02-14T10:11:13Z</time>
      </trkpt>
      <trkpt lat="43.45621" lon="-5.5903206">
        <ele>394.0</ele>
        <time>2021-02-14T10:11:14Z</time>
      </trkpt>
      <trkpt lat="43.4562" lon="-5.590322">
        <ele>394.0</ele>
        <time>2021-02-14T10:11:15Z</time>
      </trkpt>
      <trkpt lat="43.45619" lon="-5.590322">
        <ele>394.0</ele>
        <time>2021-02-14T10:11:16Z</time>
      </trkpt>
      <trkpt lat="43.45618" lon="-5.590322">
        <ele>394.0</ele>
        <time>2021-02-14T10:11:17Z</time>
      </trkpt>
      <trkpt lat="43.45617" lon="-5.590322">
        <ele>394.0</ele>
        <time>2021-02-14T10:11:18Z</time>
      </trkpt>
      <trkpt lat="43.456165" lon="-5.590319">
        <ele>395.0</ele>
        <time>2021-02-14T10:11:19Z</time>
      </trkpt>
      <trkpt lat="43.456158" lon="-5.5903172">
        <ele>395.0</ele>
        <time>2021-02-14T10:11:20Z</time>
      </trkpt>
      <trkpt lat="43.45615" lon="-5.590315">
        <ele>395.0</ele>
        <time>2021-02-14T10:11:21Z</time>
      </trkpt>
      <trkpt lat="43.456142" lon="-5.5903115">
        <ele>395.0</ele>
        <time>2021-02-14T10:11:22Z</time>
      </trkpt>
      <trkpt lat="43.45614" lon="-5.5903087">
        <ele>395.0</ele>
        <time>2021-02-14T10:11:23Z</time>
      </trkpt>
      <trkpt lat="43.456127" lon="-5.590306">
        <ele>396.0</ele>
        <time>2021-02-14T10:11:24Z</time>
      </trkpt>
      <trkpt lat="43.45612" lon="-5.5903034">
        <ele>396.0</ele>
        <time>2021-02-14T10:11:25Z</time>
      </trkpt>
      <trkpt lat="43.456112" lon="-5.590303">
        <ele>396.0</ele>
        <time>2021-02-14T10:11:26Z</time>
      </trkpt>
      <trkpt lat="43.456104" lon="-5.590304">
        <ele>396.0</ele>
        <time>2021-02-14T10:11:27Z</time>
      </trkpt>
      <trkpt lat="43.456097" lon="-5.590306">
        <ele>397.0</ele>
        <time>2021-02-14T10:11:28Z</time>
      </trkpt>
      <trkpt lat="43.456093" lon="-5.590306">
        <ele>397.0</ele>
        <time>2021-02-14T10:11:29Z</time>
      </trkpt>
      <trkpt lat="43.456085" lon="-5.590306">
        <ele>397.0</ele>
        <time>2021-02-14T10:11:30Z</time>
      </trkpt>
      <trkpt lat="43.45608" lon="-5.590304">
        <ele>397.0</ele>
        <time>2021-02-14T10:11:31Z</time>
      </trkpt>
      <trkpt lat="43.45607" lon="-5.5903">
        <ele>397.0</ele>
        <time>2021-02-14T10:11:32Z</time>
      </trkpt>
      <trkpt lat="43.45607" lon="-5.5902967">
        <ele>397.0</ele>
        <time>2021-02-14T10:11:33Z</time>
      </trkpt>
      <trkpt lat="43.456066" lon="-5.590293">
        <ele>397.0</ele>
        <time>2021-02-14T10:11:34Z</time>
      </trkpt>
      <trkpt lat="43.456062" lon="-5.590291">
        <ele>397.0</ele>
        <time>2021-02-14T10:11:35Z</time>
      </trkpt>
      <trkpt lat="43.45605" lon="-5.5902843">
        <ele>397.0</ele>
        <time>2021-02-14T10:11:37Z</time>
      </trkpt>
      <trkpt lat="43.45605" lon="-5.5902815">
        <ele>398.0</ele>
        <time>2021-02-14T10:11:38Z</time>
      </trkpt>
      <trkpt lat="43.45605" lon="-5.590279">
        <ele>398.0</ele>
        <time>2021-02-14T10:11:39Z</time>
      </trkpt>
      <trkpt lat="43.45604" lon="-5.5902715">
        <ele>398.0</ele>
        <time>2021-02-14T10:11:40Z</time>
      </trkpt>
      <trkpt lat="43.45604" lon="-5.5902605">
        <ele>398.0</ele>
        <time>2021-02-14T10:11:41Z</time>
      </trkpt>
      <trkpt lat="43.456036" lon="-5.590251">
        <ele>399.0</ele>
        <time>2021-02-14T10:11:42Z</time>
      </trkpt>
      <trkpt lat="43.45603" lon="-5.5902424">
        <ele>399.0</ele>
        <time>2021-02-14T10:11:43Z</time>
      </trkpt>
      <trkpt lat="43.456024" lon="-5.5902357">
        <ele>399.0</ele>
        <time>2021-02-14T10:11:44Z</time>
      </trkpt>
      <trkpt lat="43.45602" lon="-5.590231">
        <ele>399.0</ele>
        <time>2021-02-14T10:11:45Z</time>
      </trkpt>
      <trkpt lat="43.456017" lon="-5.5902267">
        <ele>400.0</ele>
        <time>2021-02-14T10:11:46Z</time>
      </trkpt>
      <trkpt lat="43.45601" lon="-5.590223">
        <ele>400.0</ele>
        <time>2021-02-14T10:11:47Z</time>
      </trkpt>
      <trkpt lat="43.456005" lon="-5.590219">
        <ele>400.0</ele>
        <time>2021-02-14T10:11:48Z</time>
      </trkpt>
      <trkpt lat="43.456005" lon="-5.5902143">
        <ele>400.0</ele>
        <time>2021-02-14T10:11:49Z</time>
      </trkpt>
      <trkpt lat="43.456" lon="-5.59021">
        <ele>400.0</ele>
        <time>2021-02-14T10:11:50Z</time>
      </trkpt>
      <trkpt lat="43.455994" lon="-5.5902057">
        <ele>401.0</ele>
        <time>2021-02-14T10:11:51Z</time>
      </trkpt>
      <trkpt lat="43.455994" lon="-5.590201">
        <ele>401.0</ele>
        <time>2021-02-14T10:11:52Z</time>
      </trkpt>
      <trkpt lat="43.45599" lon="-5.5901966">
        <ele>401.0</ele>
        <time>2021-02-14T10:11:53Z</time>
      </trkpt>
      <trkpt lat="43.455986" lon="-5.590189">
        <ele>401.0</ele>
        <time>2021-02-14T10:11:54Z</time>
      </trkpt>
      <trkpt lat="43.455986" lon="-5.590182">
        <ele>401.0</ele>
        <time>2021-02-14T10:11:55Z</time>
      </trkpt>
      <trkpt lat="43.45598" lon="-5.5901747">
        <ele>402.0</ele>
        <time>2021-02-14T10:11:56Z</time>
      </trkpt>
      <trkpt lat="43.45597" lon="-5.590169">
        <ele>402.0</ele>
        <time>2021-02-14T10:11:57Z</time>
      </trkpt>
      <trkpt lat="43.45596" lon="-5.5901628">
        <ele>402.0</ele>
        <time>2021-02-14T10:11:58Z</time>
      </trkpt>
      <trkpt lat="43.455948" lon="-5.590159">
        <ele>402.0</ele>
        <time>2021-02-14T10:11:59Z</time>
      </trkpt>
      <trkpt lat="43.45594" lon="-5.590154">
        <ele>402.0</ele>
        <time>2021-02-14T10:12:00Z</time>
      </trkpt>
      <trkpt lat="43.45593" lon="-5.5901523">
        <ele>402.0</ele>
        <time>2021-02-14T10:12:01Z</time>
      </trkpt>
      <trkpt lat="43.455917" lon="-5.5901504">
        <ele>402.0</ele>
        <time>2021-02-14T10:12:02Z</time>
      </trkpt>
      <trkpt lat="43.455914" lon="-5.590148">
        <ele>402.0</ele>
        <time>2021-02-14T10:12:03Z</time>
      </trkpt>
      <trkpt lat="43.455902" lon="-5.590143">
        <ele>402.0</ele>
        <time>2021-02-14T10:12:04Z</time>
      </trkpt>
      <trkpt lat="43.45589" lon="-5.590139">
        <ele>402.0</ele>
        <time>2021-02-14T10:12:05Z</time>
      </trkpt>
      <trkpt lat="43.455887" lon="-5.5901346">
        <ele>403.0</ele>
        <time>2021-02-14T10:12:06Z</time>
      </trkpt>
      <trkpt lat="43.455875" lon="-5.59013">
        <ele>403.0</ele>
        <time>2021-02-14T10:12:07Z</time>
      </trkpt>
      <trkpt lat="43.45587" lon="-5.5901275">
        <ele>403.0</ele>
        <time>2021-02-14T10:12:08Z</time>
      </trkpt>
      <trkpt lat="43.455868" lon="-5.59012">
        <ele>403.0</ele>
        <time>2021-02-14T10:12:09Z</time>
      </trkpt>
      <trkpt lat="43.455856" lon="-5.5901113">
        <ele>403.0</ele>
        <time>2021-02-14T10:12:10Z</time>
      </trkpt>
      <trkpt lat="43.455853" lon="-5.5901036">
        <ele>404.0</ele>
        <time>2021-02-14T10:12:11Z</time>
      </trkpt>
      <trkpt lat="43.455845" lon="-5.5900955">
        <ele>404.0</ele>
        <time>2021-02-14T10:12:12Z</time>
      </trkpt>
      <trkpt lat="43.45584" lon="-5.590089">
        <ele>404.0</ele>
        <time>2021-02-14T10:12:13Z</time>
      </trkpt>
      <trkpt lat="43.45584" lon="-5.590084">
        <ele>404.0</ele>
        <time>2021-02-14T10:12:14Z</time>
      </trkpt>
      <trkpt lat="43.455837" lon="-5.5900793">
        <ele>404.0</ele>
        <time>2021-02-14T10:12:15Z</time>
      </trkpt>
      <trkpt lat="43.455837" lon="-5.590075">
        <ele>405.0</ele>
        <time>2021-02-14T10:12:16Z</time>
      </trkpt>
      <trkpt lat="43.455837" lon="-5.590071">
        <ele>405.0</ele>
        <time>2021-02-14T10:12:17Z</time>
      </trkpt>
      <trkpt lat="43.45583" lon="-5.590066">
        <ele>405.0</ele>
        <time>2021-02-14T10:12:18Z</time>
      </trkpt>
      <trkpt lat="43.455826" lon="-5.5900617">
        <ele>405.0</ele>
        <time>2021-02-14T10:12:19Z</time>
      </trkpt>
      <trkpt lat="43.455826" lon="-5.5900574">
        <ele>405.0</ele>
        <time>2021-02-14T10:12:20Z</time>
      </trkpt>
      <trkpt lat="43.455814" lon="-5.590045">
        <ele>406.0</ele>
        <time>2021-02-14T10:12:22Z</time>
      </trkpt>
      <trkpt lat="43.455814" lon="-5.590044">
        <ele>406.0</ele>
        <time>2021-02-14T10:12:23Z</time>
      </trkpt>
      <trkpt lat="43.455814" lon="-5.590042">
        <ele>406.0</ele>
        <time>2021-02-14T10:12:24Z</time>
      </trkpt>
      <trkpt lat="43.455814" lon="-5.590038">
        <ele>406.0</ele>
        <time>2021-02-14T10:12:25Z</time>
      </trkpt>
      <trkpt lat="43.455814" lon="-5.590031">
        <ele>407.0</ele>
        <time>2021-02-14T10:12:26Z</time>
      </trkpt>
      <trkpt lat="43.455814" lon="-5.590023">
        <ele>407.0</ele>
        <time>2021-02-14T10:12:27Z</time>
      </trkpt>
      <trkpt lat="43.455814" lon="-5.5900135">
        <ele>407.0</ele>
        <time>2021-02-14T10:12:28Z</time>
      </trkpt>
      <trkpt lat="43.455822" lon="-5.5900025">
        <ele>407.0</ele>
        <time>2021-02-14T10:12:29Z</time>
      </trkpt>
      <trkpt lat="43.45581" lon="-5.5899796">
        <ele>408.0</ele>
        <time>2021-02-14T10:12:31Z</time>
      </trkpt>
      <trkpt lat="43.45581" lon="-5.58998">
        <ele>408.0</ele>
        <time>2021-02-14T10:12:32Z</time>
      </trkpt>
      <trkpt lat="43.455822" lon="-5.5899663">
        <ele>408.0</ele>
        <time>2021-02-14T10:12:34Z</time>
      </trkpt>
      <trkpt lat="43.455826" lon="-5.5899644">
        <ele>408.0</ele>
        <time>2021-02-14T10:12:35Z</time>
      </trkpt>
      <trkpt lat="43.45583" lon="-5.589961">
        <ele>408.0</ele>
        <time>2021-02-14T10:12:36Z</time>
      </trkpt>
      <trkpt lat="43.455837" lon="-5.5899577">
        <ele>408.0</ele>
        <time>2021-02-14T10:12:37Z</time>
      </trkpt>
      <trkpt lat="43.455845" lon="-5.589954">
        <ele>408.0</ele>
        <time>2021-02-14T10:12:38Z</time>
      </trkpt>
      <trkpt lat="43.455853" lon="-5.58995">
        <ele>408.0</ele>
        <time>2021-02-14T10:12:39Z</time>
      </trkpt>
      <trkpt lat="43.455856" lon="-5.589946">
        <ele>409.0</ele>
        <time>2021-02-14T10:12:40Z</time>
      </trkpt>
      <trkpt lat="43.455856" lon="-5.589942">
        <ele>409.0</ele>
        <time>2021-02-14T10:12:41Z</time>
      </trkpt>
      <trkpt lat="43.45586" lon="-5.5899377">
        <ele>409.0</ele>
        <time>2021-02-14T10:12:42Z</time>
      </trkpt>
      <trkpt lat="43.455868" lon="-5.589933">
        <ele>409.0</ele>
        <time>2021-02-14T10:12:43Z</time>
      </trkpt>
      <trkpt lat="43.45587" lon="-5.5899277">
        <ele>409.0</ele>
        <time>2021-02-14T10:12:44Z</time>
      </trkpt>
      <trkpt lat="43.455875" lon="-5.5899215">
        <ele>410.0</ele>
        <time>2021-02-14T10:12:45Z</time>
      </trkpt>
      <trkpt lat="43.45589" lon="-5.589915">
        <ele>410.0</ele>
        <time>2021-02-14T10:12:46Z</time>
      </trkpt>
      <trkpt lat="43.455902" lon="-5.5899076">
        <ele>410.0</ele>
        <time>2021-02-14T10:12:47Z</time>
      </trkpt>
      <trkpt lat="43.455914" lon="-5.589903">
        <ele>410.0</ele>
        <time>2021-02-14T10:12:48Z</time>
      </trkpt>
      <trkpt lat="43.45593" lon="-5.5898976">
        <ele>410.0</ele>
        <time>2021-02-14T10:12:49Z</time>
      </trkpt>
      <trkpt lat="43.455933" lon="-5.589892">
        <ele>411.0</ele>
        <time>2021-02-14T10:12:50Z</time>
      </trkpt>
      <trkpt lat="43.455944" lon="-5.5898867">
        <ele>411.0</ele>
        <time>2021-02-14T10:12:51Z</time>
      </trkpt>
      <trkpt lat="43.455948" lon="-5.5898824">
        <ele>411.0</ele>
        <time>2021-02-14T10:12:52Z</time>
      </trkpt>
      <trkpt lat="43.45596" lon="-5.5898795">
        <ele>411.0</ele>
        <time>2021-02-14T10:12:53Z</time>
      </trkpt>
      <trkpt lat="43.45596" lon="-5.5898757">
        <ele>411.0</ele>
        <time>2021-02-14T10:12:54Z</time>
      </trkpt>
      <trkpt lat="43.455963" lon="-5.589873">
        <ele>412.0</ele>
        <time>2021-02-14T10:12:55Z</time>
      </trkpt>
      <trkpt lat="43.45597" lon="-5.58987">
        <ele>412.0</ele>
        <time>2021-02-14T10:12:56Z</time>
      </trkpt>
      <trkpt lat="43.455975" lon="-5.5898647">
        <ele>412.0</ele>
        <time>2021-02-14T10:12:58Z</time>
      </trkpt>
      <trkpt lat="43.455975" lon="-5.5898643">
        <ele>412.0</ele>
        <time>2021-02-14T10:12:59Z</time>
      </trkpt>
      <trkpt lat="43.455975" lon="-5.589864">
        <ele>412.0</ele>
        <time>2021-02-14T10:13:00Z</time>
      </trkpt>
      <trkpt lat="43.45598" lon="-5.589862">
        <ele>413.0</ele>
        <time>2021-02-14T10:13:01Z</time>
      </trkpt>
      <trkpt lat="43.455986" lon="-5.5898585">
        <ele>413.0</ele>
        <time>2021-02-14T10:13:02Z</time>
      </trkpt>
      <trkpt lat="43.45599" lon="-5.589855">
        <ele>413.0</ele>
        <time>2021-02-14T10:13:03Z</time>
      </trkpt>
      <trkpt lat="43.456" lon="-5.5898504">
        <ele>413.0</ele>
        <time>2021-02-14T10:13:04Z</time>
      </trkpt>
      <trkpt lat="43.456005" lon="-5.5898457">
        <ele>413.0</ele>
        <time>2021-02-14T10:13:05Z</time>
      </trkpt>
      <trkpt lat="43.45601" lon="-5.5898395">
        <ele>414.0</ele>
        <time>2021-02-14T10:13:06Z</time>
      </trkpt>
      <trkpt lat="43.45602" lon="-5.5898337">
        <ele>414.0</ele>
        <time>2021-02-14T10:13:07Z</time>
      </trkpt>
      <trkpt lat="43.456024" lon="-5.5898285">
        <ele>414.0</ele>
        <time>2021-02-14T10:13:08Z</time>
      </trkpt>
      <trkpt lat="43.45603" lon="-5.589823">
        <ele>414.0</ele>
        <time>2021-02-14T10:13:09Z</time>
      </trkpt>
      <trkpt lat="43.456036" lon="-5.5898185">
        <ele>414.0</ele>
        <time>2021-02-14T10:13:10Z</time>
      </trkpt>
      <trkpt lat="43.45604" lon="-5.5898123">
        <ele>414.0</ele>
        <time>2021-02-14T10:13:11Z</time>
      </trkpt>
      <trkpt lat="43.45604" lon="-5.5898085">
        <ele>414.0</ele>
        <time>2021-02-14T10:13:12Z</time>
      </trkpt>
      <trkpt lat="43.45605" lon="-5.5898056">
        <ele>414.0</ele>
        <time>2021-02-14T10:13:13Z</time>
      </trkpt>
      <trkpt lat="43.456055" lon="-5.589802">
        <ele>414.0</ele>
        <time>2021-02-14T10:13:14Z</time>
      </trkpt>
      <trkpt lat="43.456062" lon="-5.589798">
        <ele>414.0</ele>
        <time>2021-02-14T10:13:15Z</time>
      </trkpt>
      <trkpt lat="43.456066" lon="-5.5897946">
        <ele>415.0</ele>
        <time>2021-02-14T10:13:16Z</time>
      </trkpt>
      <trkpt lat="43.45607" lon="-5.589792">
        <ele>415.0</ele>
        <time>2021-02-14T10:13:17Z</time>
      </trkpt>
      <trkpt lat="43.456078" lon="-5.589789">
        <ele>415.0</ele>
        <time>2021-02-14T10:13:18Z</time>
      </trkpt>
      <trkpt lat="43.45608" lon="-5.589785">
        <ele>415.0</ele>
        <time>2021-02-14T10:13:19Z</time>
      </trkpt>
      <trkpt lat="43.456093" lon="-5.5897818">
        <ele>415.0</ele>
        <time>2021-02-14T10:13:20Z</time>
      </trkpt>
      <trkpt lat="43.456097" lon="-5.5897784">
        <ele>416.0</ele>
        <time>2021-02-14T10:13:21Z</time>
      </trkpt>
      <trkpt lat="43.45611" lon="-5.589776">
        <ele>416.0</ele>
        <time>2021-02-14T10:13:22Z</time>
      </trkpt>
      <trkpt lat="43.456112" lon="-5.5897746">
        <ele>416.0</ele>
        <time>2021-02-14T10:13:23Z</time>
      </trkpt>
      <trkpt lat="43.45612" lon="-5.5897746">
        <ele>416.0</ele>
        <time>2021-02-14T10:13:24Z</time>
      </trkpt>
      <trkpt lat="43.456135" lon="-5.5897746">
        <ele>416.0</ele>
        <time>2021-02-14T10:13:26Z</time>
      </trkpt>
      <trkpt lat="43.456135" lon="-5.589774">
        <ele>417.0</ele>
        <time>2021-02-14T10:13:27Z</time>
      </trkpt>
      <trkpt lat="43.45614" lon="-5.5897727">
        <ele>417.0</ele>
        <time>2021-02-14T10:13:28Z</time>
      </trkpt>
      <trkpt lat="43.45614" lon="-5.5897717">
        <ele>417.0</ele>
        <time>2021-02-14T10:13:29Z</time>
      </trkpt>
      <trkpt lat="43.456142" lon="-5.5897703">
        <ele>417.0</ele>
        <time>2021-02-14T10:13:30Z</time>
      </trkpt>
      <trkpt lat="43.45615" lon="-5.5897703">
        <ele>418.0</ele>
        <time>2021-02-14T10:13:31Z</time>
      </trkpt>
      <trkpt lat="43.456158" lon="-5.589769">
        <ele>418.0</ele>
        <time>2021-02-14T10:13:32Z</time>
      </trkpt>
      <trkpt lat="43.456165" lon="-5.5897665">
        <ele>418.0</ele>
        <time>2021-02-14T10:13:33Z</time>
      </trkpt>
      <trkpt lat="43.456173" lon="-5.589763">
        <ele>418.0</ele>
        <time>2021-02-14T10:13:34Z</time>
      </trkpt>
      <trkpt lat="43.45618" lon="-5.58976">
        <ele>419.0</ele>
        <time>2021-02-14T10:13:35Z</time>
      </trkpt>
      <trkpt lat="43.45619" lon="-5.589756">
        <ele>419.0</ele>
        <time>2021-02-14T10:13:36Z</time>
      </trkpt>
      <trkpt lat="43.4562" lon="-5.5897512">
        <ele>419.0</ele>
        <time>2021-02-14T10:13:37Z</time>
      </trkpt>
      <trkpt lat="43.456203" lon="-5.589745">
        <ele>419.0</ele>
        <time>2021-02-14T10:13:38Z</time>
      </trkpt>
      <trkpt lat="43.456215" lon="-5.5897374">
        <ele>419.0</ele>
        <time>2021-02-14T10:13:39Z</time>
      </trkpt>
      <trkpt lat="43.45622" lon="-5.58973">
        <ele>419.0</ele>
        <time>2021-02-14T10:13:40Z</time>
      </trkpt>
      <trkpt lat="43.45623" lon="-5.5897207">
        <ele>419.0</ele>
        <time>2021-02-14T10:13:41Z</time>
      </trkpt>
      <trkpt lat="43.45624" lon="-5.5897107">
        <ele>419.0</ele>
        <time>2021-02-14T10:13:42Z</time>
      </trkpt>
      <trkpt lat="43.456257" lon="-5.5896993">
        <ele>420.0</ele>
        <time>2021-02-14T10:13:43Z</time>
      </trkpt>
      <trkpt lat="43.456264" lon="-5.5896864">
        <ele>420.0</ele>
        <time>2021-02-14T10:13:44Z</time>
      </trkpt>
      <trkpt lat="43.456276" lon="-5.5896745">
        <ele>420.0</ele>
        <time>2021-02-14T10:13:45Z</time>
      </trkpt>
      <trkpt lat="43.45628" lon="-5.5896616">
        <ele>420.0</ele>
        <time>2021-02-14T10:13:46Z</time>
      </trkpt>
      <trkpt lat="43.45629" lon="-5.589649">
        <ele>420.0</ele>
        <time>2021-02-14T10:13:47Z</time>
      </trkpt>
      <trkpt lat="43.4563" lon="-5.5896363">
        <ele>421.0</ele>
        <time>2021-02-14T10:13:48Z</time>
      </trkpt>
      <trkpt lat="43.456303" lon="-5.5896225">
        <ele>421.0</ele>
        <time>2021-02-14T10:13:49Z</time>
      </trkpt>
      <trkpt lat="43.456303" lon="-5.5896115">
        <ele>421.0</ele>
        <time>2021-02-14T10:13:50Z</time>
      </trkpt>
      <trkpt lat="43.456306" lon="-5.5896006">
        <ele>422.0</ele>
        <time>2021-02-14T10:13:51Z</time>
      </trkpt>
      <trkpt lat="43.456306" lon="-5.5895915">
        <ele>422.0</ele>
        <time>2021-02-14T10:13:52Z</time>
      </trkpt>
      <trkpt lat="43.456314" lon="-5.5895853">
        <ele>422.0</ele>
        <time>2021-02-14T10:13:53Z</time>
      </trkpt>
      <trkpt lat="43.456314" lon="-5.5895796">
        <ele>422.0</ele>
        <time>2021-02-14T10:13:53Z</time>
      </trkpt>
      <trkpt lat="43.456314" lon="-5.5895667">
        <ele>422.0</ele>
        <time>2021-02-14T10:13:55Z</time>
      </trkpt>
      <trkpt lat="43.456306" lon="-5.5895514">
        <ele>423.0</ele>
        <time>2021-02-14T10:13:57Z</time>
      </trkpt>
      <trkpt lat="43.456306" lon="-5.5895505">
        <ele>423.0</ele>
        <time>2021-02-14T10:13:58Z</time>
      </trkpt>
      <trkpt lat="43.456306" lon="-5.5895476">
        <ele>423.0</ele>
        <time>2021-02-14T10:13:59Z</time>
      </trkpt>
      <trkpt lat="43.456303" lon="-5.5895457">
        <ele>423.0</ele>
        <time>2021-02-14T10:14:00Z</time>
      </trkpt>
      <trkpt lat="43.45629" lon="-5.589548">
        <ele>424.0</ele>
        <time>2021-02-14T10:14:01Z</time>
      </trkpt>
      <trkpt lat="43.45628" lon="-5.5895514">
        <ele>424.0</ele>
        <time>2021-02-14T10:14:02Z</time>
      </trkpt>
      <trkpt lat="43.456272" lon="-5.589554">
        <ele>424.0</ele>
        <time>2021-02-14T10:14:03Z</time>
      </trkpt>
      <trkpt lat="43.456264" lon="-5.589555">
        <ele>424.0</ele>
        <time>2021-02-14T10:14:04Z</time>
      </trkpt>
      <trkpt lat="43.45626" lon="-5.5895524">
        <ele>424.0</ele>
        <time>2021-02-14T10:14:05Z</time>
      </trkpt>
      <trkpt lat="43.456257" lon="-5.5895495">
        <ele>425.0</ele>
        <time>2021-02-14T10:14:06Z</time>
      </trkpt>
      <trkpt lat="43.45625" lon="-5.589546">
        <ele>425.0</ele>
        <time>2021-02-14T10:14:07Z</time>
      </trkpt>
      <trkpt lat="43.456245" lon="-5.589542">
        <ele>425.0</ele>
        <time>2021-02-14T10:14:08Z</time>
      </trkpt>
      <trkpt lat="43.45624" lon="-5.589538">
        <ele>425.0</ele>
        <time>2021-02-14T10:14:09Z</time>
      </trkpt>
      <trkpt lat="43.45624" lon="-5.5895348">
        <ele>425.0</ele>
        <time>2021-02-14T10:14:10Z</time>
      </trkpt>
      <trkpt lat="43.45623" lon="-5.58952">
        <ele>425.0</ele>
        <time>2021-02-14T10:14:12Z</time>
      </trkpt>
      <trkpt lat="43.456226" lon="-5.5895176">
        <ele>425.0</ele>
        <time>2021-02-14T10:14:13Z</time>
      </trkpt>
      <trkpt lat="43.45622" lon="-5.589512">
        <ele>425.0</ele>
        <time>2021-02-14T10:14:14Z</time>
      </trkpt>
      <trkpt lat="43.456215" lon="-5.5895014">
        <ele>425.0</ele>
        <time>2021-02-14T10:14:15Z</time>
      </trkpt>
      <trkpt lat="43.456203" lon="-5.5894904">
        <ele>426.0</ele>
        <time>2021-02-14T10:14:16Z</time>
      </trkpt>
      <trkpt lat="43.4562" lon="-5.589481">
        <ele>426.0</ele>
        <time>2021-02-14T10:14:17Z</time>
      </trkpt>
      <trkpt lat="43.456196" lon="-5.589473">
        <ele>426.0</ele>
        <time>2021-02-14T10:14:18Z</time>
      </trkpt>
      <trkpt lat="43.45619" lon="-5.589466">
        <ele>426.0</ele>
        <time>2021-02-14T10:14:19Z</time>
      </trkpt>
      <trkpt lat="43.456184" lon="-5.5894613">
        <ele>426.0</ele>
        <time>2021-02-14T10:14:20Z</time>
      </trkpt>
      <trkpt lat="43.45618" lon="-5.589458">
        <ele>427.0</ele>
        <time>2021-02-14T10:14:21Z</time>
      </trkpt>
      <trkpt lat="43.45617" lon="-5.589455">
        <ele>427.0</ele>
        <time>2021-02-14T10:14:22Z</time>
      </trkpt>
      <trkpt lat="43.456158" lon="-5.589451">
        <ele>427.0</ele>
        <time>2021-02-14T10:14:23Z</time>
      </trkpt>
      <trkpt lat="43.45615" lon="-5.589445">
        <ele>427.0</ele>
        <time>2021-02-14T10:14:24Z</time>
      </trkpt>
      <trkpt lat="43.45614" lon="-5.58944">
        <ele>428.0</ele>
        <time>2021-02-14T10:14:25Z</time>
      </trkpt>
      <trkpt lat="43.45612" lon="-5.589425">
        <ele>428.0</ele>
        <time>2021-02-14T10:14:28Z</time>
      </trkpt>
      <trkpt lat="43.45612" lon="-5.589425">
        <ele>428.0</ele>
        <time>2021-02-14T10:14:29Z</time>
      </trkpt>
      <trkpt lat="43.456104" lon="-5.589423">
        <ele>428.0</ele>
        <time>2021-02-14T10:14:33Z</time>
      </trkpt>
      <trkpt lat="43.456104" lon="-5.5894203">
        <ele>429.0</ele>
        <time>2021-02-14T10:14:34Z</time>
      </trkpt>
      <trkpt lat="43.456104" lon="-5.589417">
        <ele>429.0</ele>
        <time>2021-02-14T10:14:35Z</time>
      </trkpt>
      <trkpt lat="43.456085" lon="-5.5894017">
        <ele>429.0</ele>
        <time>2021-02-14T10:14:38Z</time>
      </trkpt>
      <trkpt lat="43.456085" lon="-5.589399">
        <ele>430.0</ele>
        <time>2021-02-14T10:14:39Z</time>
      </trkpt>
      <trkpt lat="43.45608" lon="-5.5893927">
        <ele>430.0</ele>
        <time>2021-02-14T10:14:40Z</time>
      </trkpt>
      <trkpt lat="43.456078" lon="-5.589385">
        <ele>430.0</ele>
        <time>2021-02-14T10:14:41Z</time>
      </trkpt>
      <trkpt lat="43.456078" lon="-5.589378">
        <ele>431.0</ele>
        <time>2021-02-14T10:14:42Z</time>
      </trkpt>
      <trkpt lat="43.45607" lon="-5.58937">
        <ele>431.0</ele>
        <time>2021-02-14T10:14:43Z</time>
      </trkpt>
      <trkpt lat="43.45607" lon="-5.589359">
        <ele>431.0</ele>
        <time>2021-02-14T10:14:44Z</time>
      </trkpt>
      <trkpt lat="43.45607" lon="-5.5893483">
        <ele>431.0</ele>
        <time>2021-02-14T10:14:45Z</time>
      </trkpt>
      <trkpt lat="43.45607" lon="-5.58934">
        <ele>432.0</ele>
        <time>2021-02-14T10:14:46Z</time>
      </trkpt>
      <trkpt lat="43.45607" lon="-5.5893297">
        <ele>432.0</ele>
        <time>2021-02-14T10:14:47Z</time>
      </trkpt>
      <trkpt lat="43.45607" lon="-5.5893216">
        <ele>432.0</ele>
        <time>2021-02-14T10:14:48Z</time>
      </trkpt>
      <trkpt lat="43.456066" lon="-5.5893126">
        <ele>432.0</ele>
        <time>2021-02-14T10:14:49Z</time>
      </trkpt>
      <trkpt lat="43.45607" lon="-5.5893025">
        <ele>432.0</ele>
        <time>2021-02-14T10:14:50Z</time>
      </trkpt>
      <trkpt lat="43.456078" lon="-5.589292">
        <ele>433.0</ele>
        <time>2021-02-14T10:14:51Z</time>
      </trkpt>
      <trkpt lat="43.456078" lon="-5.589284">
        <ele>433.0</ele>
        <time>2021-02-14T10:14:52Z</time>
      </trkpt>
      <trkpt lat="43.45608" lon="-5.5892763">
        <ele>433.0</ele>
        <time>2021-02-14T10:14:53Z</time>
      </trkpt>
      <trkpt lat="43.45608" lon="-5.5892706">
        <ele>433.0</ele>
        <time>2021-02-14T10:14:54Z</time>
      </trkpt>
      <trkpt lat="43.456085" lon="-5.5892634">
        <ele>433.0</ele>
        <time>2021-02-14T10:14:55Z</time>
      </trkpt>
      <trkpt lat="43.45608" lon="-5.5892544">
        <ele>433.0</ele>
        <time>2021-02-14T10:14:56Z</time>
      </trkpt>
      <trkpt lat="43.456078" lon="-5.5892463">
        <ele>433.0</ele>
        <time>2021-02-14T10:14:57Z</time>
      </trkpt>
      <trkpt lat="43.45607" lon="-5.5892363">
        <ele>433.0</ele>
        <time>2021-02-14T10:14:58Z</time>
      </trkpt>
      <trkpt lat="43.45607" lon="-5.589228">
        <ele>433.0</ele>
        <time>2021-02-14T10:14:59Z</time>
      </trkpt>
      <trkpt lat="43.456066" lon="-5.589221">
        <ele>433.0</ele>
        <time>2021-02-14T10:15:00Z</time>
      </trkpt>
      <trkpt lat="43.456062" lon="-5.5892167">
        <ele>434.0</ele>
        <time>2021-02-14T10:15:01Z</time>
      </trkpt>
      <trkpt lat="43.45605" lon="-5.5892115">
        <ele>434.0</ele>
        <time>2021-02-14T10:15:02Z</time>
      </trkpt>
      <trkpt lat="43.45604" lon="-5.589207">
        <ele>434.0</ele>
        <time>2021-02-14T10:15:03Z</time>
      </trkpt>
      <trkpt lat="43.456024" lon="-5.5892005">
        <ele>434.0</ele>
        <time>2021-02-14T10:15:04Z</time>
      </trkpt>
      <trkpt lat="43.456017" lon="-5.589193">
        <ele>434.0</ele>
        <time>2021-02-14T10:15:05Z</time>
      </trkpt>
      <trkpt lat="43.456" lon="-5.589185">
        <ele>434.0</ele>
        <time>2021-02-14T10:15:06Z</time>
      </trkpt>
      <trkpt lat="43.455986" lon="-5.589178">
        <ele>435.0</ele>
        <time>2021-02-14T10:15:07Z</time>
      </trkpt>
      <trkpt lat="43.455963" lon="-5.589172">
        <ele>435.0</ele>
        <time>2021-02-14T10:15:08Z</time>
      </trkpt>
      <trkpt lat="43.455944" lon="-5.5891623">
        <ele>435.0</ele>
        <time>2021-02-14T10:15:09Z</time>
      </trkpt>
      <trkpt lat="43.45593" lon="-5.5891566">
        <ele>435.0</ele>
        <time>2021-02-14T10:15:10Z</time>
      </trkpt>
      <trkpt lat="43.45591" lon="-5.5891514">
        <ele>435.0</ele>
        <time>2021-02-14T10:15:11Z</time>
      </trkpt>
      <trkpt lat="43.4559" lon="-5.5891476">
        <ele>435.0</ele>
        <time>2021-02-14T10:15:12Z</time>
      </trkpt>
      <trkpt lat="43.455883" lon="-5.589145">
        <ele>436.0</ele>
        <time>2021-02-14T10:15:13Z</time>
      </trkpt>
      <trkpt lat="43.45587" lon="-5.589142">
        <ele>436.0</ele>
        <time>2021-02-14T10:15:14Z</time>
      </trkpt>
      <trkpt lat="43.45586" lon="-5.589135">
        <ele>436.0</ele>
        <time>2021-02-14T10:15:15Z</time>
      </trkpt>
      <trkpt lat="43.455853" lon="-5.589131">
        <ele>436.0</ele>
        <time>2021-02-14T10:15:16Z</time>
      </trkpt>
      <trkpt lat="43.45584" lon="-5.5891256">
        <ele>436.0</ele>
        <time>2021-02-14T10:15:17Z</time>
      </trkpt>
      <trkpt lat="43.45583" lon="-5.589119">
        <ele>437.0</ele>
        <time>2021-02-14T10:15:18Z</time>
      </trkpt>
      <trkpt lat="43.455826" lon="-5.5891128">
        <ele>437.0</ele>
        <time>2021-02-14T10:15:19Z</time>
      </trkpt>
      <trkpt lat="43.455822" lon="-5.589109">
        <ele>437.0</ele>
        <time>2021-02-14T10:15:20Z</time>
      </trkpt>
      <trkpt lat="43.455822" lon="-5.589108">
        <ele>437.0</ele>
        <time>2021-02-14T10:15:21Z</time>
      </trkpt>
      <trkpt lat="43.455814" lon="-5.5891066">
        <ele>437.0</ele>
        <time>2021-02-14T10:15:22Z</time>
      </trkpt>
      <trkpt lat="43.45581" lon="-5.589107">
        <ele>438.0</ele>
        <time>2021-02-14T10:15:24Z</time>
      </trkpt>
      <trkpt lat="43.4558" lon="-5.589097">
        <ele>438.0</ele>
        <time>2021-02-14T10:15:26Z</time>
      </trkpt>
      <trkpt lat="43.4558" lon="-5.589094">
        <ele>438.0</ele>
        <time>2021-02-14T10:15:27Z</time>
      </trkpt>
      <trkpt lat="43.45579" lon="-5.5890923">
        <ele>438.0</ele>
        <time>2021-02-14T10:15:28Z</time>
      </trkpt>
      <trkpt lat="43.455765" lon="-5.5890837">
        <ele>439.0</ele>
        <time>2021-02-14T10:15:30Z</time>
      </trkpt>
      <trkpt lat="43.45576" lon="-5.5890822">
        <ele>439.0</ele>
        <time>2021-02-14T10:15:31Z</time>
      </trkpt>
      <trkpt lat="43.455753" lon="-5.5890784">
        <ele>439.0</ele>
        <time>2021-02-14T10:15:32Z</time>
      </trkpt>
      <trkpt lat="43.45575" lon="-5.589075">
        <ele>439.0</ele>
        <time>2021-02-14T10:15:33Z</time>
      </trkpt>
      <trkpt lat="43.455738" lon="-5.5890746">
        <ele>440.0</ele>
        <time>2021-02-14T10:15:34Z</time>
      </trkpt>
      <trkpt lat="43.45573" lon="-5.589074">
        <ele>440.0</ele>
        <time>2021-02-14T10:15:35Z</time>
      </trkpt>
      <trkpt lat="43.45572" lon="-5.589073">
        <ele>440.0</ele>
        <time>2021-02-14T10:15:36Z</time>
      </trkpt>
      <trkpt lat="43.455708" lon="-5.5890746">
        <ele>440.0</ele>
        <time>2021-02-14T10:15:37Z</time>
      </trkpt>
      <trkpt lat="43.455704" lon="-5.589077">
        <ele>441.0</ele>
        <time>2021-02-14T10:15:38Z</time>
      </trkpt>
      <trkpt lat="43.455692" lon="-5.5890822">
        <ele>441.0</ele>
        <time>2021-02-14T10:15:39Z</time>
      </trkpt>
      <trkpt lat="43.45569" lon="-5.5890903">
        <ele>441.0</ele>
        <time>2021-02-14T10:15:40Z</time>
      </trkpt>
      <trkpt lat="43.45568" lon="-5.589101">
        <ele>441.0</ele>
        <time>2021-02-14T10:15:41Z</time>
      </trkpt>
      <trkpt lat="43.455673" lon="-5.589114">
        <ele>441.0</ele>
        <time>2021-02-14T10:15:42Z</time>
      </trkpt>
      <trkpt lat="43.45566" lon="-5.5891256">
        <ele>441.0</ele>
        <time>2021-02-14T10:15:43Z</time>
      </trkpt>
      <trkpt lat="43.455658" lon="-5.589135">
        <ele>441.0</ele>
        <time>2021-02-14T10:15:44Z</time>
      </trkpt>
      <trkpt lat="43.455647" lon="-5.589139">
        <ele>441.0</ele>
        <time>2021-02-14T10:15:45Z</time>
      </trkpt>
      <trkpt lat="43.455635" lon="-5.589139">
        <ele>441.0</ele>
        <time>2021-02-14T10:15:46Z</time>
      </trkpt>
      <trkpt lat="43.45562" lon="-5.589133">
        <ele>442.0</ele>
        <time>2021-02-14T10:15:47Z</time>
      </trkpt>
      <trkpt lat="43.455612" lon="-5.5891266">
        <ele>442.0</ele>
        <time>2021-02-14T10:15:48Z</time>
      </trkpt>
      <trkpt lat="43.455605" lon="-5.589121">
        <ele>442.0</ele>
        <time>2021-02-14T10:15:49Z</time>
      </trkpt>
      <trkpt lat="43.455585" lon="-5.5891123">
        <ele>442.0</ele>
        <time>2021-02-14T10:15:51Z</time>
      </trkpt>
      <trkpt lat="43.455585" lon="-5.589111">
        <ele>442.0</ele>
        <time>2021-02-14T10:15:52Z</time>
      </trkpt>
      <trkpt lat="43.45558" lon="-5.5891104">
        <ele>443.0</ele>
        <time>2021-02-14T10:15:53Z</time>
      </trkpt>
      <trkpt lat="43.45558" lon="-5.5891104">
        <ele>443.0</ele>
        <time>2021-02-14T10:15:54Z</time>
      </trkpt>
      <trkpt lat="43.45557" lon="-5.589111">
        <ele>443.0</ele>
        <time>2021-02-14T10:15:55Z</time>
      </trkpt>
      <trkpt lat="43.45556" lon="-5.5891104">
        <ele>443.0</ele>
        <time>2021-02-14T10:15:56Z</time>
      </trkpt>
      <trkpt lat="43.45555" lon="-5.5891085">
        <ele>444.0</ele>
        <time>2021-02-14T10:15:57Z</time>
      </trkpt>
      <trkpt lat="43.45554" lon="-5.5891066">
        <ele>444.0</ele>
        <time>2021-02-14T10:15:58Z</time>
      </trkpt>
      <trkpt lat="43.455536" lon="-5.589106">
        <ele>444.0</ele>
        <time>2021-02-14T10:15:59Z</time>
      </trkpt>
      <trkpt lat="43.45553" lon="-5.5891047">
        <ele>444.0</ele>
        <time>2021-02-14T10:16:00Z</time>
      </trkpt>
      <trkpt lat="43.455524" lon="-5.589104">
        <ele>444.0</ele>
        <time>2021-02-14T10:16:01Z</time>
      </trkpt>
      <trkpt lat="43.455517" lon="-5.5891047">
        <ele>445.0</ele>
        <time>2021-02-14T10:16:02Z</time>
      </trkpt>
      <trkpt lat="43.455513" lon="-5.5891066">
        <ele>445.0</ele>
        <time>2021-02-14T10:16:03Z</time>
      </trkpt>
      <trkpt lat="43.45551" lon="-5.5891085">
        <ele>445.0</ele>
        <time>2021-02-14T10:16:04Z</time>
      </trkpt>
      <trkpt lat="43.455498" lon="-5.5891085">
        <ele>445.0</ele>
        <time>2021-02-14T10:16:05Z</time>
      </trkpt>
      <trkpt lat="43.455486" lon="-5.589106">
        <ele>445.0</ele>
        <time>2021-02-14T10:16:06Z</time>
      </trkpt>
      <trkpt lat="43.45548" lon="-5.589101">
        <ele>446.0</ele>
        <time>2021-02-14T10:16:07Z</time>
      </trkpt>
      <trkpt lat="43.455467" lon="-5.589095">
        <ele>446.0</ele>
        <time>2021-02-14T10:16:08Z</time>
      </trkpt>
      <trkpt lat="43.455463" lon="-5.5890884">
        <ele>446.0</ele>
        <time>2021-02-14T10:16:09Z</time>
      </trkpt>
      <trkpt lat="43.455452" lon="-5.589084">
        <ele>446.0</ele>
        <time>2021-02-14T10:16:10Z</time>
      </trkpt>
      <trkpt lat="43.45544" lon="-5.589081">
        <ele>446.0</ele>
        <time>2021-02-14T10:16:11Z</time>
      </trkpt>
      <trkpt lat="43.455437" lon="-5.589078">
        <ele>446.0</ele>
        <time>2021-02-14T10:16:12Z</time>
      </trkpt>
      <trkpt lat="43.455433" lon="-5.5890746">
        <ele>447.0</ele>
        <time>2021-02-14T10:16:13Z</time>
      </trkpt>
      <trkpt lat="43.455425" lon="-5.589069">
        <ele>447.0</ele>
        <time>2021-02-14T10:16:14Z</time>
      </trkpt>
      <trkpt lat="43.45542" lon="-5.589062">
        <ele>447.0</ele>
        <time>2021-02-14T10:16:15Z</time>
      </trkpt>
      <trkpt lat="43.455418" lon="-5.5890565">
        <ele>447.0</ele>
        <time>2021-02-14T10:16:16Z</time>
      </trkpt>
      <trkpt lat="43.455406" lon="-5.5890503">
        <ele>447.0</ele>
        <time>2021-02-14T10:16:17Z</time>
      </trkpt>
      <trkpt lat="43.455402" lon="-5.5890427">
        <ele>447.0</ele>
        <time>2021-02-14T10:16:18Z</time>
      </trkpt>
      <trkpt lat="43.45539" lon="-5.589035">
        <ele>447.0</ele>
        <time>2021-02-14T10:16:19Z</time>
      </trkpt>
      <trkpt lat="43.45538" lon="-5.5890284">
        <ele>447.0</ele>
        <time>2021-02-14T10:16:20Z</time>
      </trkpt>
      <trkpt lat="43.455376" lon="-5.5890236">
        <ele>447.0</ele>
        <time>2021-02-14T10:16:21Z</time>
      </trkpt>
      <trkpt lat="43.455364" lon="-5.5890174">
        <ele>447.0</ele>
        <time>2021-02-14T10:16:22Z</time>
      </trkpt>
      <trkpt lat="43.455357" lon="-5.5890126">
        <ele>447.0</ele>
        <time>2021-02-14T10:16:23Z</time>
      </trkpt>
      <trkpt lat="43.45535" lon="-5.589008">
        <ele>447.0</ele>
        <time>2021-02-14T10:16:24Z</time>
      </trkpt>
      <trkpt lat="43.455345" lon="-5.589006">
        <ele>447.0</ele>
        <time>2021-02-14T10:16:25Z</time>
      </trkpt>
      <trkpt lat="43.45533" lon="-5.5890055">
        <ele>447.0</ele>
        <time>2021-02-14T10:16:27Z</time>
      </trkpt>
      <trkpt lat="43.45533" lon="-5.589006">
        <ele>448.0</ele>
        <time>2021-02-14T10:16:28Z</time>
      </trkpt>
      <trkpt lat="43.455322" lon="-5.589005">
        <ele>448.0</ele>
        <time>2021-02-14T10:16:29Z</time>
      </trkpt>
      <trkpt lat="43.45532" lon="-5.589004">
        <ele>448.0</ele>
        <time>2021-02-14T10:16:30Z</time>
      </trkpt>
      <trkpt lat="43.45532" lon="-5.5889993">
        <ele>448.0</ele>
        <time>2021-02-14T10:16:31Z</time>
      </trkpt>
      <trkpt lat="43.455315" lon="-5.5889907">
        <ele>448.0</ele>
        <time>2021-02-14T10:16:32Z</time>
      </trkpt>
      <trkpt lat="43.455307" lon="-5.5889874">
        <ele>449.0</ele>
        <time>2021-02-14T10:16:33Z</time>
      </trkpt>
      <trkpt lat="43.455303" lon="-5.5889854">
        <ele>449.0</ele>
        <time>2021-02-14T10:16:34Z</time>
      </trkpt>
      <trkpt lat="43.4553" lon="-5.588985">
        <ele>449.0</ele>
        <time>2021-02-14T10:16:35Z</time>
      </trkpt>
      <trkpt lat="43.45529" lon="-5.588985">
        <ele>449.0</ele>
        <time>2021-02-14T10:16:36Z</time>
      </trkpt>
      <trkpt lat="43.455288" lon="-5.5889845">
        <ele>449.0</ele>
        <time>2021-02-14T10:16:37Z</time>
      </trkpt>
      <trkpt lat="43.455284" lon="-5.5889816">
        <ele>449.0</ele>
        <time>2021-02-14T10:16:38Z</time>
      </trkpt>
      <trkpt lat="43.455276" lon="-5.5889792">
        <ele>449.0</ele>
        <time>2021-02-14T10:16:39Z</time>
      </trkpt>
      <trkpt lat="43.45527" lon="-5.588974">
        <ele>450.0</ele>
        <time>2021-02-14T10:16:40Z</time>
      </trkpt>
      <trkpt lat="43.455257" lon="-5.5889664">
        <ele>450.0</ele>
        <time>2021-02-14T10:16:41Z</time>
      </trkpt>
      <trkpt lat="43.455242" lon="-5.588959">
        <ele>450.0</ele>
        <time>2021-02-14T10:16:42Z</time>
      </trkpt>
      <trkpt lat="43.455227" lon="-5.5889544">
        <ele>450.0</ele>
        <time>2021-02-14T10:16:43Z</time>
      </trkpt>
      <trkpt lat="43.45521" lon="-5.588949">
        <ele>450.0</ele>
        <time>2021-02-14T10:16:44Z</time>
      </trkpt>
      <trkpt lat="43.455196" lon="-5.5889444">
        <ele>450.0</ele>
        <time>2021-02-14T10:16:46Z</time>
      </trkpt>
      <trkpt lat="43.455185" lon="-5.588944">
        <ele>450.0</ele>
        <time>2021-02-14T10:16:46Z</time>
      </trkpt>
      <trkpt lat="43.455177" lon="-5.588942">
        <ele>450.0</ele>
        <time>2021-02-14T10:16:47Z</time>
      </trkpt>
      <trkpt lat="43.455162" lon="-5.588937">
        <ele>451.0</ele>
        <time>2021-02-14T10:16:48Z</time>
      </trkpt>
      <trkpt lat="43.45515" lon="-5.58893">
        <ele>451.0</ele>
        <time>2021-02-14T10:16:49Z</time>
      </trkpt>
      <trkpt lat="43.45514" lon="-5.5889215">
        <ele>451.0</ele>
        <time>2021-02-14T10:16:50Z</time>
      </trkpt>
      <trkpt lat="43.455128" lon="-5.588912">
        <ele>451.0</ele>
        <time>2021-02-14T10:16:51Z</time>
      </trkpt>
      <trkpt lat="43.45512" lon="-5.588907">
        <ele>451.0</ele>
        <time>2021-02-14T10:16:52Z</time>
      </trkpt>
      <trkpt lat="43.45511" lon="-5.588906">
        <ele>452.0</ele>
        <time>2021-02-14T10:16:53Z</time>
      </trkpt>
      <trkpt lat="43.455105" lon="-5.588906">
        <ele>452.0</ele>
        <time>2021-02-14T10:16:54Z</time>
      </trkpt>
      <trkpt lat="43.455093" lon="-5.5889077">
        <ele>452.0</ele>
        <time>2021-02-14T10:16:55Z</time>
      </trkpt>
      <trkpt lat="43.455082" lon="-5.5889115">
        <ele>452.0</ele>
        <time>2021-02-14T10:16:56Z</time>
      </trkpt>
      <trkpt lat="43.45508" lon="-5.5889144">
        <ele>452.0</ele>
        <time>2021-02-14T10:16:57Z</time>
      </trkpt>
      <trkpt lat="43.455067" lon="-5.5889153">
        <ele>452.0</ele>
        <time>2021-02-14T10:16:58Z</time>
      </trkpt>
      <trkpt lat="43.455063" lon="-5.5889177">
        <ele>452.0</ele>
        <time>2021-02-14T10:16:59Z</time>
      </trkpt>
      <trkpt lat="43.45505" lon="-5.588916">
        <ele>452.0</ele>
        <time>2021-02-14T10:17:00Z</time>
      </trkpt>
      <trkpt lat="43.455044" lon="-5.588912">
        <ele>452.0</ele>
        <time>2021-02-14T10:17:01Z</time>
      </trkpt>
      <trkpt lat="43.455032" lon="-5.5889106">
        <ele>452.0</ele>
        <time>2021-02-14T10:17:02Z</time>
      </trkpt>
      <trkpt lat="43.455017" lon="-5.5889087">
        <ele>453.0</ele>
        <time>2021-02-14T10:17:03Z</time>
      </trkpt>
      <trkpt lat="43.455" lon="-5.5889063">
        <ele>453.0</ele>
        <time>2021-02-14T10:17:04Z</time>
      </trkpt>
      <trkpt lat="43.45499" lon="-5.5889063">
        <ele>453.0</ele>
        <time>2021-02-14T10:17:05Z</time>
      </trkpt>
      <trkpt lat="43.454983" lon="-5.5889077">
        <ele>453.0</ele>
        <time>2021-02-14T10:17:06Z</time>
      </trkpt>
      <trkpt lat="43.45497" lon="-5.588908">
        <ele>453.0</ele>
        <time>2021-02-14T10:17:07Z</time>
      </trkpt>
      <trkpt lat="43.45496" lon="-5.588907">
        <ele>454.0</ele>
        <time>2021-02-14T10:17:08Z</time>
      </trkpt>
      <trkpt lat="43.454956" lon="-5.588905">
        <ele>454.0</ele>
        <time>2021-02-14T10:17:09Z</time>
      </trkpt>
      <trkpt lat="43.454952" lon="-5.588904">
        <ele>454.0</ele>
        <time>2021-02-14T10:17:10Z</time>
      </trkpt>
      <trkpt lat="43.454945" lon="-5.588904">
        <ele>454.0</ele>
        <time>2021-02-14T10:17:11Z</time>
      </trkpt>
      <trkpt lat="43.454933" lon="-5.5889044">
        <ele>454.0</ele>
        <time>2021-02-14T10:17:13Z</time>
      </trkpt>
      <trkpt lat="43.454933" lon="-5.588903">
        <ele>455.0</ele>
        <time>2021-02-14T10:17:14Z</time>
      </trkpt>
      <trkpt lat="43.45493" lon="-5.5889025">
        <ele>455.0</ele>
        <time>2021-02-14T10:17:15Z</time>
      </trkpt>
      <trkpt lat="43.454926" lon="-5.588903">
        <ele>455.0</ele>
        <time>2021-02-14T10:17:16Z</time>
      </trkpt>
      <trkpt lat="43.454918" lon="-5.5889025">
        <ele>455.0</ele>
        <time>2021-02-14T10:17:17Z</time>
      </trkpt>
      <trkpt lat="43.45491" lon="-5.588901">
        <ele>455.0</ele>
        <time>2021-02-14T10:17:18Z</time>
      </trkpt>
      <trkpt lat="43.4549" lon="-5.5888996">
        <ele>455.0</ele>
        <time>2021-02-14T10:17:19Z</time>
      </trkpt>
      <trkpt lat="43.454895" lon="-5.588899">
        <ele>456.0</ele>
        <time>2021-02-14T10:17:20Z</time>
      </trkpt>
      <trkpt lat="43.454884" lon="-5.588899">
        <ele>456.0</ele>
        <time>2021-02-14T10:17:21Z</time>
      </trkpt>
      <trkpt lat="43.454872" lon="-5.588899">
        <ele>456.0</ele>
        <time>2021-02-14T10:17:22Z</time>
      </trkpt>
      <trkpt lat="43.454857" lon="-5.5888996">
        <ele>456.0</ele>
        <time>2021-02-14T10:17:23Z</time>
      </trkpt>
      <trkpt lat="43.45485" lon="-5.5889006">
        <ele>456.0</ele>
        <time>2021-02-14T10:17:24Z</time>
      </trkpt>
      <trkpt lat="43.454838" lon="-5.5889025">
        <ele>457.0</ele>
        <time>2021-02-14T10:17:25Z</time>
      </trkpt>
      <trkpt lat="43.454834" lon="-5.588906">
        <ele>457.0</ele>
        <time>2021-02-14T10:17:26Z</time>
      </trkpt>
      <trkpt lat="43.454823" lon="-5.588908">
        <ele>457.0</ele>
        <time>2021-02-14T10:17:27Z</time>
      </trkpt>
      <trkpt lat="43.45481" lon="-5.58891">
        <ele>457.0</ele>
        <time>2021-02-14T10:17:28Z</time>
      </trkpt>
      <trkpt lat="43.454803" lon="-5.588912">
        <ele>457.0</ele>
        <time>2021-02-14T10:17:29Z</time>
      </trkpt>
      <trkpt lat="43.454792" lon="-5.5889144">
        <ele>458.0</ele>
        <time>2021-02-14T10:17:30Z</time>
      </trkpt>
      <trkpt lat="43.45478" lon="-5.5889177">
        <ele>458.0</ele>
        <time>2021-02-14T10:17:31Z</time>
      </trkpt>
      <trkpt lat="43.454773" lon="-5.58892">
        <ele>458.0</ele>
        <time>2021-02-14T10:17:32Z</time>
      </trkpt>
      <trkpt lat="43.45476" lon="-5.5889215">
        <ele>458.0</ele>
        <time>2021-02-14T10:17:33Z</time>
      </trkpt>
      <trkpt lat="43.45475" lon="-5.5889215">
        <ele>458.0</ele>
        <time>2021-02-14T10:17:34Z</time>
      </trkpt>
      <trkpt lat="43.45474" lon="-5.5889196">
        <ele>458.0</ele>
        <time>2021-02-14T10:17:35Z</time>
      </trkpt>
      <trkpt lat="43.45473" lon="-5.5889163">
        <ele>458.0</ele>
        <time>2021-02-14T10:17:36Z</time>
      </trkpt>
      <trkpt lat="43.45472" lon="-5.5889115">
        <ele>458.0</ele>
        <time>2021-02-14T10:17:37Z</time>
      </trkpt>
      <trkpt lat="43.454704" lon="-5.588907">
        <ele>458.0</ele>
        <time>2021-02-14T10:17:38Z</time>
      </trkpt>
      <trkpt lat="43.454693" lon="-5.588904">
        <ele>458.0</ele>
        <time>2021-02-14T10:17:39Z</time>
      </trkpt>
      <trkpt lat="43.454685" lon="-5.588902">
        <ele>458.0</ele>
        <time>2021-02-14T10:17:40Z</time>
      </trkpt>
      <trkpt lat="43.454674" lon="-5.588902">
        <ele>458.0</ele>
        <time>2021-02-14T10:17:41Z</time>
      </trkpt>
      <trkpt lat="43.454662" lon="-5.5889006">
        <ele>458.0</ele>
        <time>2021-02-14T10:17:42Z</time>
      </trkpt>
      <trkpt lat="43.45466" lon="-5.5888996">
        <ele>458.0</ele>
        <time>2021-02-14T10:17:43Z</time>
      </trkpt>
      <trkpt lat="43.454647" lon="-5.588901">
        <ele>458.0</ele>
        <time>2021-02-14T10:17:44Z</time>
      </trkpt>
      <trkpt lat="43.454643" lon="-5.588904">
        <ele>458.0</ele>
        <time>2021-02-14T10:17:45Z</time>
      </trkpt>
      <trkpt lat="43.45463" lon="-5.588907">
        <ele>458.0</ele>
        <time>2021-02-14T10:17:46Z</time>
      </trkpt>
      <trkpt lat="43.454624" lon="-5.5889106">
        <ele>458.0</ele>
        <time>2021-02-14T10:17:48Z</time>
      </trkpt>
      <trkpt lat="43.454617" lon="-5.5889106">
        <ele>458.0</ele>
        <time>2021-02-14T10:17:50Z</time>
      </trkpt>
      <trkpt lat="43.454617" lon="-5.5889106">
        <ele>458.0</ele>
        <time>2021-02-14T10:17:51Z</time>
      </trkpt>
      <trkpt lat="43.454617" lon="-5.588912">
        <ele>458.0</ele>
        <time>2021-02-14T10:17:52Z</time>
      </trkpt>
      <trkpt lat="43.454613" lon="-5.588914">
        <ele>458.0</ele>
        <time>2021-02-14T10:17:53Z</time>
      </trkpt>
      <trkpt lat="43.454613" lon="-5.5889153">
        <ele>458.0</ele>
        <time>2021-02-14T10:17:54Z</time>
      </trkpt>
      <trkpt lat="43.45461" lon="-5.588916">
        <ele>458.0</ele>
        <time>2021-02-14T10:17:57Z</time>
      </trkpt>
      <trkpt lat="43.45461" lon="-5.588916">
        <ele>458.0</ele>
        <time>2021-02-14T10:17:58Z</time>
      </trkpt>
      <trkpt lat="43.45461" lon="-5.5889163">
        <ele>458.0</ele>
        <time>2021-02-14T10:17:59Z</time>
      </trkpt>
      <trkpt lat="43.45461" lon="-5.5889196">
        <ele>458.0</ele>
        <time>2021-02-14T10:18:00Z</time>
      </trkpt>
      <trkpt lat="43.45461" lon="-5.5889254">
        <ele>458.0</ele>
        <time>2021-02-14T10:18:01Z</time>
      </trkpt>
      <trkpt lat="43.45461" lon="-5.5889325">
        <ele>458.0</ele>
        <time>2021-02-14T10:18:02Z</time>
      </trkpt>
      <trkpt lat="43.45461" lon="-5.588938">
        <ele>458.0</ele>
        <time>2021-02-14T10:18:03Z</time>
      </trkpt>
      <trkpt lat="43.454613" lon="-5.5889444">
        <ele>458.0</ele>
        <time>2021-02-14T10:18:04Z</time>
      </trkpt>
      <trkpt lat="43.454617" lon="-5.5889573">
        <ele>458.0</ele>
        <time>2021-02-14T10:18:06Z</time>
      </trkpt>
      <trkpt lat="43.454617" lon="-5.5889606">
        <ele>458.0</ele>
        <time>2021-02-14T10:18:08Z</time>
      </trkpt>
      <trkpt lat="43.454624" lon="-5.588961">
        <ele>458.0</ele>
        <time>2021-02-14T10:18:08Z</time>
      </trkpt>
      <trkpt lat="43.454624" lon="-5.588967">
        <ele>458.0</ele>
        <time>2021-02-14T10:18:10Z</time>
      </trkpt>
      <trkpt lat="43.454628" lon="-5.588967">
        <ele>458.0</ele>
        <time>2021-02-14T10:18:11Z</time>
      </trkpt>
      <trkpt lat="43.454624" lon="-5.588966">
        <ele>458.0</ele>
        <time>2021-02-14T10:18:48Z</time>
      </trkpt>
      <trkpt lat="43.454617" lon="-5.588965">
        <ele>458.0</ele>
        <time>2021-02-14T10:18:49Z</time>
      </trkpt>
      <trkpt lat="43.45461" lon="-5.588964">
        <ele>458.0</ele>
        <time>2021-02-14T10:18:50Z</time>
      </trkpt>
      <trkpt lat="43.454594" lon="-5.5889606">
        <ele>458.0</ele>
        <time>2021-02-14T10:18:51Z</time>
      </trkpt>
      <trkpt lat="43.45457" lon="-5.58896">
        <ele>458.0</ele>
        <time>2021-02-14T10:18:52Z</time>
      </trkpt>
      <trkpt lat="43.45455" lon="-5.588965">
        <ele>458.0</ele>
        <time>2021-02-14T10:18:53Z</time>
      </trkpt>
      <trkpt lat="43.45453" lon="-5.588972">
        <ele>458.0</ele>
        <time>2021-02-14T10:18:54Z</time>
      </trkpt>
      <trkpt lat="43.454514" lon="-5.588981">
        <ele>458.0</ele>
        <time>2021-02-14T10:18:55Z</time>
      </trkpt>
      <trkpt lat="43.4545" lon="-5.5889874">
        <ele>458.0</ele>
        <time>2021-02-14T10:18:56Z</time>
      </trkpt>
      <trkpt lat="43.45448" lon="-5.588993">
        <ele>458.0</ele>
        <time>2021-02-14T10:18:57Z</time>
      </trkpt>
      <trkpt lat="43.454464" lon="-5.5889993">
        <ele>458.0</ele>
        <time>2021-02-14T10:18:58Z</time>
      </trkpt>
      <trkpt lat="43.45445" lon="-5.589002">
        <ele>458.0</ele>
        <time>2021-02-14T10:18:59Z</time>
      </trkpt>
      <trkpt lat="43.454433" lon="-5.589006">
        <ele>458.0</ele>
        <time>2021-02-14T10:19:00Z</time>
      </trkpt>
      <trkpt lat="43.45442" lon="-5.58901">
        <ele>458.0</ele>
        <time>2021-02-14T10:19:01Z</time>
      </trkpt>
      <trkpt lat="43.454407" lon="-5.589013">
        <ele>458.0</ele>
        <time>2021-02-14T10:19:02Z</time>
      </trkpt>
      <trkpt lat="43.45439" lon="-5.5890136">
        <ele>458.0</ele>
        <time>2021-02-14T10:19:03Z</time>
      </trkpt>
      <trkpt lat="43.454376" lon="-5.5890136">
        <ele>458.0</ele>
        <time>2021-02-14T10:19:04Z</time>
      </trkpt>
      <trkpt lat="43.45436" lon="-5.589011">
        <ele>458.0</ele>
        <time>2021-02-14T10:19:05Z</time>
      </trkpt>
      <trkpt lat="43.45434" lon="-5.589008">
        <ele>458.0</ele>
        <time>2021-02-14T10:19:06Z</time>
      </trkpt>
      <trkpt lat="43.45433" lon="-5.589004">
        <ele>458.0</ele>
        <time>2021-02-14T10:19:07Z</time>
      </trkpt>
      <trkpt lat="43.454315" lon="-5.5889997">
        <ele>458.0</ele>
        <time>2021-02-14T10:19:08Z</time>
      </trkpt>
      <trkpt lat="43.4543" lon="-5.588995">
        <ele>458.0</ele>
        <time>2021-02-14T10:19:09Z</time>
      </trkpt>
      <trkpt lat="43.454285" lon="-5.588992">
        <ele>458.0</ele>
        <time>2021-02-14T10:19:10Z</time>
      </trkpt>
      <trkpt lat="43.45427" lon="-5.588989">
        <ele>458.0</ele>
        <time>2021-02-14T10:19:11Z</time>
      </trkpt>
      <trkpt lat="43.454254" lon="-5.5889864">
        <ele>458.0</ele>
        <time>2021-02-14T10:19:12Z</time>
      </trkpt>
      <trkpt lat="43.454243" lon="-5.5889835">
        <ele>458.0</ele>
        <time>2021-02-14T10:19:13Z</time>
      </trkpt>
      <trkpt lat="43.454227" lon="-5.5889807">
        <ele>458.0</ele>
        <time>2021-02-14T10:19:14Z</time>
      </trkpt>
      <trkpt lat="43.45422" lon="-5.588977">
        <ele>458.0</ele>
        <time>2021-02-14T10:19:15Z</time>
      </trkpt>
      <trkpt lat="43.454205" lon="-5.5889735">
        <ele>458.0</ele>
        <time>2021-02-14T10:19:16Z</time>
      </trkpt>
      <trkpt lat="43.454193" lon="-5.5889688">
        <ele>458.0</ele>
        <time>2021-02-14T10:19:17Z</time>
      </trkpt>
      <trkpt lat="43.45418" lon="-5.5889645">
        <ele>458.0</ele>
        <time>2021-02-14T10:19:18Z</time>
      </trkpt>
      <trkpt lat="43.454174" lon="-5.588964">
        <ele>458.0</ele>
        <time>2021-02-14T10:19:19Z</time>
      </trkpt>
      <trkpt lat="43.454163" lon="-5.588963">
        <ele>458.0</ele>
        <time>2021-02-14T10:19:20Z</time>
      </trkpt>
      <trkpt lat="43.45415" lon="-5.588961">
        <ele>458.0</ele>
        <time>2021-02-14T10:19:21Z</time>
      </trkpt>
      <trkpt lat="43.454136" lon="-5.5889587">
        <ele>458.0</ele>
        <time>2021-02-14T10:19:22Z</time>
      </trkpt>
      <trkpt lat="43.454124" lon="-5.588957">
        <ele>458.0</ele>
        <time>2021-02-14T10:19:23Z</time>
      </trkpt>
      <trkpt lat="43.45411" lon="-5.5889544">
        <ele>458.0</ele>
        <time>2021-02-14T10:19:24Z</time>
      </trkpt>
      <trkpt lat="43.454105" lon="-5.5889497">
        <ele>458.0</ele>
        <time>2021-02-14T10:19:25Z</time>
      </trkpt>
      <trkpt lat="43.454094" lon="-5.5889463">
        <ele>458.0</ele>
        <time>2021-02-14T10:19:26Z</time>
      </trkpt>
      <trkpt lat="43.454086" lon="-5.588944">
        <ele>458.0</ele>
        <time>2021-02-14T10:19:27Z</time>
      </trkpt>
      <trkpt lat="43.454075" lon="-5.5889416">
        <ele>458.0</ele>
        <time>2021-02-14T10:19:28Z</time>
      </trkpt>
      <trkpt lat="43.454063" lon="-5.5889416">
        <ele>458.0</ele>
        <time>2021-02-14T10:19:29Z</time>
      </trkpt>
      <trkpt lat="43.45406" lon="-5.588942">
        <ele>458.0</ele>
        <time>2021-02-14T10:19:30Z</time>
      </trkpt>
      <trkpt lat="43.45405" lon="-5.588942">
        <ele>458.0</ele>
        <time>2021-02-14T10:19:31Z</time>
      </trkpt>
      <trkpt lat="43.454033" lon="-5.5889406">
        <ele>458.0</ele>
        <time>2021-02-14T10:19:32Z</time>
      </trkpt>
      <trkpt lat="43.454025" lon="-5.5889378">
        <ele>458.0</ele>
        <time>2021-02-14T10:19:33Z</time>
      </trkpt>
      <trkpt lat="43.454014" lon="-5.588935">
        <ele>458.0</ele>
        <time>2021-02-14T10:19:34Z</time>
      </trkpt>
      <trkpt lat="43.454002" lon="-5.5889325">
        <ele>458.0</ele>
        <time>2021-02-14T10:19:35Z</time>
      </trkpt>
      <trkpt lat="43.453995" lon="-5.5889273">
        <ele>458.0</ele>
        <time>2021-02-14T10:19:36Z</time>
      </trkpt>
      <trkpt lat="43.453983" lon="-5.588919">
        <ele>458.0</ele>
        <time>2021-02-14T10:19:37Z</time>
      </trkpt>
      <trkpt lat="43.453968" lon="-5.5889106">
        <ele>458.0</ele>
        <time>2021-02-14T10:19:38Z</time>
      </trkpt>
      <trkpt lat="43.453957" lon="-5.588904">
        <ele>458.0</ele>
        <time>2021-02-14T10:19:39Z</time>
      </trkpt>
      <trkpt lat="43.453945" lon="-5.5888968">
        <ele>458.0</ele>
        <time>2021-02-14T10:19:40Z</time>
      </trkpt>
      <trkpt lat="43.453938" lon="-5.588891">
        <ele>458.0</ele>
        <time>2021-02-14T10:19:41Z</time>
      </trkpt>
      <trkpt lat="43.453926" lon="-5.588884">
        <ele>458.0</ele>
        <time>2021-02-14T10:19:42Z</time>
      </trkpt>
      <trkpt lat="43.453915" lon="-5.5888762">
        <ele>458.0</ele>
        <time>2021-02-14T10:19:43Z</time>
      </trkpt>
      <trkpt lat="43.4539" lon="-5.5888677">
        <ele>458.0</ele>
        <time>2021-02-14T10:19:44Z</time>
      </trkpt>
      <trkpt lat="43.45389" lon="-5.5888596">
        <ele>458.0</ele>
        <time>2021-02-14T10:19:45Z</time>
      </trkpt>
      <trkpt lat="43.45388" lon="-5.58885">
        <ele>458.0</ele>
        <time>2021-02-14T10:19:46Z</time>
      </trkpt>
      <trkpt lat="43.45387" lon="-5.5888414">
        <ele>458.0</ele>
        <time>2021-02-14T10:19:47Z</time>
      </trkpt>
      <trkpt lat="43.45386" lon="-5.588834">
        <ele>458.0</ele>
        <time>2021-02-14T10:19:48Z</time>
      </trkpt>
      <trkpt lat="43.453846" lon="-5.588828">
        <ele>458.0</ele>
        <time>2021-02-14T10:19:49Z</time>
      </trkpt>
      <trkpt lat="43.453835" lon="-5.5888243">
        <ele>458.0</ele>
        <time>2021-02-14T10:19:50Z</time>
      </trkpt>
      <trkpt lat="43.453823" lon="-5.58882">
        <ele>458.0</ele>
        <time>2021-02-14T10:19:51Z</time>
      </trkpt>
      <trkpt lat="43.453808" lon="-5.588815">
        <ele>458.0</ele>
        <time>2021-02-14T10:19:52Z</time>
      </trkpt>
      <trkpt lat="43.453793" lon="-5.5888095">
        <ele>458.0</ele>
        <time>2021-02-14T10:19:53Z</time>
      </trkpt>
      <trkpt lat="43.453785" lon="-5.5888033">
        <ele>458.0</ele>
        <time>2021-02-14T10:19:54Z</time>
      </trkpt>
      <trkpt lat="43.453766" lon="-5.5887976">
        <ele>458.0</ele>
        <time>2021-02-14T10:19:55Z</time>
      </trkpt>
      <trkpt lat="43.45375" lon="-5.5887947">
        <ele>458.0</ele>
        <time>2021-02-14T10:19:56Z</time>
      </trkpt>
      <trkpt lat="43.453743" lon="-5.5887947">
        <ele>458.0</ele>
        <time>2021-02-14T10:19:57Z</time>
      </trkpt>
      <trkpt lat="43.453728" lon="-5.5887957">
        <ele>458.0</ele>
        <time>2021-02-14T10:19:58Z</time>
      </trkpt>
      <trkpt lat="43.45372" lon="-5.588794">
        <ele>458.0</ele>
        <time>2021-02-14T10:19:59Z</time>
      </trkpt>
      <trkpt lat="43.453712" lon="-5.588792">
        <ele>458.0</ele>
        <time>2021-02-14T10:20:00Z</time>
      </trkpt>
      <trkpt lat="43.4537" lon="-5.588787">
        <ele>458.0</ele>
        <time>2021-02-14T10:20:01Z</time>
      </trkpt>
      <trkpt lat="43.453697" lon="-5.5887794">
        <ele>458.0</ele>
        <time>2021-02-14T10:20:02Z</time>
      </trkpt>
      <trkpt lat="43.453686" lon="-5.588772">
        <ele>458.0</ele>
        <time>2021-02-14T10:20:03Z</time>
      </trkpt>
      <trkpt lat="43.453674" lon="-5.5887647">
        <ele>458.0</ele>
        <time>2021-02-14T10:20:04Z</time>
      </trkpt>
      <trkpt lat="43.453667" lon="-5.5887566">
        <ele>458.0</ele>
        <time>2021-02-14T10:20:05Z</time>
      </trkpt>
      <trkpt lat="43.453655" lon="-5.588748">
        <ele>458.0</ele>
        <time>2021-02-14T10:20:06Z</time>
      </trkpt>
      <trkpt lat="43.453644" lon="-5.588738">
        <ele>458.0</ele>
        <time>2021-02-14T10:20:07Z</time>
      </trkpt>
      <trkpt lat="43.453636" lon="-5.5887265">
        <ele>458.0</ele>
        <time>2021-02-14T10:20:08Z</time>
      </trkpt>
      <trkpt lat="43.453625" lon="-5.5887156">
        <ele>458.0</ele>
        <time>2021-02-14T10:20:09Z</time>
      </trkpt>
      <trkpt lat="43.453613" lon="-5.5887094">
        <ele>458.0</ele>
        <time>2021-02-14T10:20:10Z</time>
      </trkpt>
      <trkpt lat="43.453598" lon="-5.588706">
        <ele>458.0</ele>
        <time>2021-02-14T10:20:11Z</time>
      </trkpt>
      <trkpt lat="43.453587" lon="-5.588704">
        <ele>458.0</ele>
        <time>2021-02-14T10:20:12Z</time>
      </trkpt>
      <trkpt lat="43.45358" lon="-5.5887027">
        <ele>458.0</ele>
        <time>2021-02-14T10:20:13Z</time>
      </trkpt>
      <trkpt lat="43.453568" lon="-5.588702">
        <ele>458.0</ele>
        <time>2021-02-14T10:20:14Z</time>
      </trkpt>
      <trkpt lat="43.453556" lon="-5.588702">
        <ele>458.0</ele>
        <time>2021-02-14T10:20:15Z</time>
      </trkpt>
      <trkpt lat="43.45355" lon="-5.588702">
        <ele>457.0</ele>
        <time>2021-02-14T10:20:16Z</time>
      </trkpt>
      <trkpt lat="43.45354" lon="-5.588702">
        <ele>457.0</ele>
        <time>2021-02-14T10:20:17Z</time>
      </trkpt>
      <trkpt lat="43.453533" lon="-5.588702">
        <ele>457.0</ele>
        <time>2021-02-14T10:20:18Z</time>
      </trkpt>
      <trkpt lat="43.45352" lon="-5.5887003">
        <ele>457.0</ele>
        <time>2021-02-14T10:20:19Z</time>
      </trkpt>
      <trkpt lat="43.45351" lon="-5.588697">
        <ele>457.0</ele>
        <time>2021-02-14T10:20:20Z</time>
      </trkpt>
      <trkpt lat="43.453503" lon="-5.5886946">
        <ele>457.0</ele>
        <time>2021-02-14T10:20:21Z</time>
      </trkpt>
      <trkpt lat="43.45349" lon="-5.588693">
        <ele>457.0</ele>
        <time>2021-02-14T10:20:22Z</time>
      </trkpt>
      <trkpt lat="43.453487" lon="-5.588691">
        <ele>457.0</ele>
        <time>2021-02-14T10:20:23Z</time>
      </trkpt>
      <trkpt lat="43.453476" lon="-5.588688">
        <ele>457.0</ele>
        <time>2021-02-14T10:20:24Z</time>
      </trkpt>
      <trkpt lat="43.453465" lon="-5.588685">
        <ele>457.0</ele>
        <time>2021-02-14T10:20:25Z</time>
      </trkpt>
      <trkpt lat="43.453457" lon="-5.58868">
        <ele>457.0</ele>
        <time>2021-02-14T10:20:26Z</time>
      </trkpt>
      <trkpt lat="43.45344" lon="-5.588674">
        <ele>456.0</ele>
        <time>2021-02-14T10:20:27Z</time>
      </trkpt>
      <trkpt lat="43.45343" lon="-5.588669">
        <ele>456.0</ele>
        <time>2021-02-14T10:20:28Z</time>
      </trkpt>
      <trkpt lat="43.45342" lon="-5.588665">
        <ele>456.0</ele>
        <time>2021-02-14T10:20:29Z</time>
      </trkpt>
      <trkpt lat="43.453403" lon="-5.5886607">
        <ele>456.0</ele>
        <time>2021-02-14T10:20:30Z</time>
      </trkpt>
      <trkpt lat="43.453392" lon="-5.5886564">
        <ele>456.0</ele>
        <time>2021-02-14T10:20:31Z</time>
      </trkpt>
      <trkpt lat="43.453377" lon="-5.588654">
        <ele>456.0</ele>
        <time>2021-02-14T10:20:32Z</time>
      </trkpt>
      <trkpt lat="43.45337" lon="-5.5886526">
        <ele>456.0</ele>
        <time>2021-02-14T10:20:33Z</time>
      </trkpt>
      <trkpt lat="43.45336" lon="-5.5886497">
        <ele>456.0</ele>
        <time>2021-02-14T10:20:34Z</time>
      </trkpt>
      <trkpt lat="43.453354" lon="-5.5886445">
        <ele>456.0</ele>
        <time>2021-02-14T10:20:35Z</time>
      </trkpt>
      <trkpt lat="43.453342" lon="-5.588637">
        <ele>456.0</ele>
        <time>2021-02-14T10:20:36Z</time>
      </trkpt>
      <trkpt lat="43.45334" lon="-5.5886292">
        <ele>456.0</ele>
        <time>2021-02-14T10:20:37Z</time>
      </trkpt>
      <trkpt lat="43.453327" lon="-5.5886197">
        <ele>456.0</ele>
        <time>2021-02-14T10:20:38Z</time>
      </trkpt>
      <trkpt lat="43.453316" lon="-5.5886097">
        <ele>456.0</ele>
        <time>2021-02-14T10:20:39Z</time>
      </trkpt>
      <trkpt lat="43.45331" lon="-5.5886016">
        <ele>456.0</ele>
        <time>2021-02-14T10:20:40Z</time>
      </trkpt>
      <trkpt lat="43.453297" lon="-5.5885954">
        <ele>456.0</ele>
        <time>2021-02-14T10:20:41Z</time>
      </trkpt>
      <trkpt lat="43.453293" lon="-5.58859">
        <ele>456.0</ele>
        <time>2021-02-14T10:20:42Z</time>
      </trkpt>
      <trkpt lat="43.45328" lon="-5.5885863">
        <ele>456.0</ele>
        <time>2021-02-14T10:20:43Z</time>
      </trkpt>
      <trkpt lat="43.45327" lon="-5.5885835">
        <ele>456.0</ele>
        <time>2021-02-14T10:20:44Z</time>
      </trkpt>
      <trkpt lat="43.453262" lon="-5.5885797">
        <ele>456.0</ele>
        <time>2021-02-14T10:20:45Z</time>
      </trkpt>
      <trkpt lat="43.453255" lon="-5.5885735">
        <ele>456.0</ele>
        <time>2021-02-14T10:20:46Z</time>
      </trkpt>
      <trkpt lat="43.453247" lon="-5.5885663">
        <ele>456.0</ele>
        <time>2021-02-14T10:20:47Z</time>
      </trkpt>
      <trkpt lat="43.453236" lon="-5.588558">
        <ele>456.0</ele>
        <time>2021-02-14T10:20:48Z</time>
      </trkpt>
      <trkpt lat="43.453224" lon="-5.5885506">
        <ele>456.0</ele>
        <time>2021-02-14T10:20:49Z</time>
      </trkpt>
      <trkpt lat="43.45321" lon="-5.588545">
        <ele>456.0</ele>
        <time>2021-02-14T10:20:50Z</time>
      </trkpt>
      <trkpt lat="43.453194" lon="-5.58854">
        <ele>456.0</ele>
        <time>2021-02-14T10:20:51Z</time>
      </trkpt>
      <trkpt lat="43.45318" lon="-5.5885363">
        <ele>456.0</ele>
        <time>2021-02-14T10:20:52Z</time>
      </trkpt>
      <trkpt lat="43.453167" lon="-5.588532">
        <ele>456.0</ele>
        <time>2021-02-14T10:20:53Z</time>
      </trkpt>
      <trkpt lat="43.45315" lon="-5.5885267">
        <ele>456.0</ele>
        <time>2021-02-14T10:20:54Z</time>
      </trkpt>
      <trkpt lat="43.453136" lon="-5.588523">
        <ele>456.0</ele>
        <time>2021-02-14T10:20:55Z</time>
      </trkpt>
      <trkpt lat="43.45313" lon="-5.5885205">
        <ele>456.0</ele>
        <time>2021-02-14T10:20:56Z</time>
      </trkpt>
      <trkpt lat="43.453114" lon="-5.5885158">
        <ele>456.0</ele>
        <time>2021-02-14T10:20:57Z</time>
      </trkpt>
      <trkpt lat="43.4531" lon="-5.58851">
        <ele>456.0</ele>
        <time>2021-02-14T10:20:58Z</time>
      </trkpt>
      <trkpt lat="43.45309" lon="-5.588501">
        <ele>456.0</ele>
        <time>2021-02-14T10:20:59Z</time>
      </trkpt>
      <trkpt lat="43.453083" lon="-5.588493">
        <ele>456.0</ele>
        <time>2021-02-14T10:21:00Z</time>
      </trkpt>
      <trkpt lat="43.45307" lon="-5.5884852">
        <ele>456.0</ele>
        <time>2021-02-14T10:21:01Z</time>
      </trkpt>
      <trkpt lat="43.45306" lon="-5.5884767">
        <ele>456.0</ele>
        <time>2021-02-14T10:21:02Z</time>
      </trkpt>
      <trkpt lat="43.453056" lon="-5.588469">
        <ele>456.0</ele>
        <time>2021-02-14T10:21:03Z</time>
      </trkpt>
      <trkpt lat="43.453053" lon="-5.588463">
        <ele>456.0</ele>
        <time>2021-02-14T10:21:04Z</time>
      </trkpt>
      <trkpt lat="43.45304" lon="-5.588459">
        <ele>456.0</ele>
        <time>2021-02-14T10:21:05Z</time>
      </trkpt>
      <trkpt lat="43.45303" lon="-5.5884576">
        <ele>456.0</ele>
        <time>2021-02-14T10:21:06Z</time>
      </trkpt>
      <trkpt lat="43.453022" lon="-5.5884557">
        <ele>456.0</ele>
        <time>2021-02-14T10:21:07Z</time>
      </trkpt>
      <trkpt lat="43.45301" lon="-5.588454">
        <ele>456.0</ele>
        <time>2021-02-14T10:21:08Z</time>
      </trkpt>
      <trkpt lat="43.453" lon="-5.58845">
        <ele>456.0</ele>
        <time>2021-02-14T10:21:09Z</time>
      </trkpt>
      <trkpt lat="43.452988" lon="-5.5884457">
        <ele>456.0</ele>
        <time>2021-02-14T10:21:10Z</time>
      </trkpt>
      <trkpt lat="43.452984" lon="-5.588441">
        <ele>456.0</ele>
        <time>2021-02-14T10:21:11Z</time>
      </trkpt>
      <trkpt lat="43.45298" lon="-5.5884333">
        <ele>456.0</ele>
        <time>2021-02-14T10:21:12Z</time>
      </trkpt>
      <trkpt lat="43.452972" lon="-5.588425">
        <ele>456.0</ele>
        <time>2021-02-14T10:21:13Z</time>
      </trkpt>
      <trkpt lat="43.45297" lon="-5.5884185">
        <ele>456.0</ele>
        <time>2021-02-14T10:21:14Z</time>
      </trkpt>
      <trkpt lat="43.452957" lon="-5.5884123">
        <ele>456.0</ele>
        <time>2021-02-14T10:21:15Z</time>
      </trkpt>
      <trkpt lat="43.452953" lon="-5.588405">
        <ele>456.0</ele>
        <time>2021-02-14T10:21:16Z</time>
      </trkpt>
      <trkpt lat="43.45294" lon="-5.588398">
        <ele>456.0</ele>
        <time>2021-02-14T10:21:17Z</time>
      </trkpt>
      <trkpt lat="43.452934" lon="-5.588392">
        <ele>456.0</ele>
        <time>2021-02-14T10:21:18Z</time>
      </trkpt>
      <trkpt lat="43.452923" lon="-5.588386">
        <ele>456.0</ele>
        <time>2021-02-14T10:21:19Z</time>
      </trkpt>
      <trkpt lat="43.45292" lon="-5.5883794">
        <ele>456.0</ele>
        <time>2021-02-14T10:21:20Z</time>
      </trkpt>
      <trkpt lat="43.452908" lon="-5.588373">
        <ele>456.0</ele>
        <time>2021-02-14T10:21:21Z</time>
      </trkpt>
      <trkpt lat="43.452896" lon="-5.588366">
        <ele>456.0</ele>
        <time>2021-02-14T10:21:22Z</time>
      </trkpt>
      <trkpt lat="43.45289" lon="-5.5883584">
        <ele>456.0</ele>
        <time>2021-02-14T10:21:23Z</time>
      </trkpt>
      <trkpt lat="43.452877" lon="-5.5883512">
        <ele>456.0</ele>
        <time>2021-02-14T10:21:24Z</time>
      </trkpt>
      <trkpt lat="43.452873" lon="-5.588345">
        <ele>456.0</ele>
        <time>2021-02-14T10:21:25Z</time>
      </trkpt>
      <trkpt lat="43.45286" lon="-5.5883393">
        <ele>456.0</ele>
        <time>2021-02-14T10:21:26Z</time>
      </trkpt>
      <trkpt lat="43.452858" lon="-5.5883327">
        <ele>456.0</ele>
        <time>2021-02-14T10:21:27Z</time>
      </trkpt>
      <trkpt lat="43.45285" lon="-5.5883245">
        <ele>456.0</ele>
        <time>2021-02-14T10:21:28Z</time>
      </trkpt>
      <trkpt lat="43.452847" lon="-5.588317">
        <ele>456.0</ele>
        <time>2021-02-14T10:21:29Z</time>
      </trkpt>
      <trkpt lat="43.452843" lon="-5.58831">
        <ele>456.0</ele>
        <time>2021-02-14T10:21:30Z</time>
      </trkpt>
      <trkpt lat="43.452843" lon="-5.5883026">
        <ele>456.0</ele>
        <time>2021-02-14T10:21:31Z</time>
      </trkpt>
      <trkpt lat="43.452843" lon="-5.588297">
        <ele>456.0</ele>
        <time>2021-02-14T10:21:32Z</time>
      </trkpt>
      <trkpt lat="43.452835" lon="-5.5882916">
        <ele>456.0</ele>
        <time>2021-02-14T10:21:33Z</time>
      </trkpt>
      <trkpt lat="43.45283" lon="-5.5882874">
        <ele>456.0</ele>
        <time>2021-02-14T10:21:34Z</time>
      </trkpt>
      <trkpt lat="43.452827" lon="-5.588281">
        <ele>456.0</ele>
        <time>2021-02-14T10:21:35Z</time>
      </trkpt>
      <trkpt lat="43.452816" lon="-5.588272">
        <ele>456.0</ele>
        <time>2021-02-14T10:21:36Z</time>
      </trkpt>
      <trkpt lat="43.45281" lon="-5.588263">
        <ele>456.0</ele>
        <time>2021-02-14T10:21:37Z</time>
      </trkpt>
      <trkpt lat="43.452805" lon="-5.588254">
        <ele>456.0</ele>
        <time>2021-02-14T10:21:38Z</time>
      </trkpt>
      <trkpt lat="43.4528" lon="-5.588243">
        <ele>456.0</ele>
        <time>2021-02-14T10:21:39Z</time>
      </trkpt>
      <trkpt lat="43.452793" lon="-5.5882325">
        <ele>456.0</ele>
        <time>2021-02-14T10:21:40Z</time>
      </trkpt>
      <trkpt lat="43.45279" lon="-5.5882206">
        <ele>456.0</ele>
        <time>2021-02-14T10:21:41Z</time>
      </trkpt>
      <trkpt lat="43.452785" lon="-5.588207">
        <ele>457.0</ele>
        <time>2021-02-14T10:21:42Z</time>
      </trkpt>
      <trkpt lat="43.452785" lon="-5.5881915">
        <ele>457.0</ele>
        <time>2021-02-14T10:21:43Z</time>
      </trkpt>
      <trkpt lat="43.452778" lon="-5.588176">
        <ele>457.0</ele>
        <time>2021-02-14T10:21:44Z</time>
      </trkpt>
      <trkpt lat="43.452774" lon="-5.5881653">
        <ele>457.0</ele>
        <time>2021-02-14T10:21:45Z</time>
      </trkpt>
      <trkpt lat="43.45277" lon="-5.5881567">
        <ele>457.0</ele>
        <time>2021-02-14T10:21:46Z</time>
      </trkpt>
      <trkpt lat="43.452763" lon="-5.588147">
        <ele>457.0</ele>
        <time>2021-02-14T10:21:47Z</time>
      </trkpt>
      <trkpt lat="43.45276" lon="-5.5881357">
        <ele>458.0</ele>
        <time>2021-02-14T10:21:48Z</time>
      </trkpt>
      <trkpt lat="43.452755" lon="-5.5881248">
        <ele>458.0</ele>
        <time>2021-02-14T10:21:49Z</time>
      </trkpt>
      <trkpt lat="43.452747" lon="-5.588117">
        <ele>458.0</ele>
        <time>2021-02-14T10:21:50Z</time>
      </trkpt>
      <trkpt lat="43.45274" lon="-5.5881114">
        <ele>458.0</ele>
        <time>2021-02-14T10:21:51Z</time>
      </trkpt>
      <trkpt lat="43.45273" lon="-5.588106">
        <ele>458.0</ele>
        <time>2021-02-14T10:21:52Z</time>
      </trkpt>
      <trkpt lat="43.452724" lon="-5.5881004">
        <ele>458.0</ele>
        <time>2021-02-14T10:21:53Z</time>
      </trkpt>
      <trkpt lat="43.452717" lon="-5.5880947">
        <ele>458.0</ele>
        <time>2021-02-14T10:21:54Z</time>
      </trkpt>
      <trkpt lat="43.452713" lon="-5.588091">
        <ele>458.0</ele>
        <time>2021-02-14T10:21:55Z</time>
      </trkpt>
      <trkpt lat="43.45271" lon="-5.588087">
        <ele>458.0</ele>
        <time>2021-02-14T10:21:56Z</time>
      </trkpt>
      <trkpt lat="43.4527" lon="-5.5880837">
        <ele>458.0</ele>
        <time>2021-02-14T10:21:57Z</time>
      </trkpt>
      <trkpt lat="43.452698" lon="-5.58808">
        <ele>458.0</ele>
        <time>2021-02-14T10:21:58Z</time>
      </trkpt>
      <trkpt lat="43.452694" lon="-5.588076">
        <ele>458.0</ele>
        <time>2021-02-14T10:21:59Z</time>
      </trkpt>
      <trkpt lat="43.452686" lon="-5.5880737">
        <ele>459.0</ele>
        <time>2021-02-14T10:22:00Z</time>
      </trkpt>
      <trkpt lat="43.452682" lon="-5.5880704">
        <ele>459.0</ele>
        <time>2021-02-14T10:22:01Z</time>
      </trkpt>
      <trkpt lat="43.45268" lon="-5.588067">
        <ele>459.0</ele>
        <time>2021-02-14T10:22:02Z</time>
      </trkpt>
      <trkpt lat="43.452667" lon="-5.588065">
        <ele>459.0</ele>
        <time>2021-02-14T10:22:03Z</time>
      </trkpt>
      <trkpt lat="43.452656" lon="-5.588068">
        <ele>460.0</ele>
        <time>2021-02-14T10:22:04Z</time>
      </trkpt>
      <trkpt lat="43.45265" lon="-5.5880737">
        <ele>460.0</ele>
        <time>2021-02-14T10:22:05Z</time>
      </trkpt>
      <trkpt lat="43.452633" lon="-5.5880804">
        <ele>460.0</ele>
        <time>2021-02-14T10:22:06Z</time>
      </trkpt>
      <trkpt lat="43.452614" lon="-5.588087">
        <ele>460.0</ele>
        <time>2021-02-14T10:22:07Z</time>
      </trkpt>
      <trkpt lat="43.452606" lon="-5.588091">
        <ele>460.0</ele>
        <time>2021-02-14T10:22:08Z</time>
      </trkpt>
      <trkpt lat="43.45259" lon="-5.588091">
        <ele>461.0</ele>
        <time>2021-02-14T10:22:09Z</time>
      </trkpt>
      <trkpt lat="43.45258" lon="-5.5880885">
        <ele>461.0</ele>
        <time>2021-02-14T10:22:10Z</time>
      </trkpt>
      <trkpt lat="43.452568" lon="-5.5880847">
        <ele>461.0</ele>
        <time>2021-02-14T10:22:11Z</time>
      </trkpt>
      <trkpt lat="43.452553" lon="-5.5880804">
        <ele>461.0</ele>
        <time>2021-02-14T10:22:12Z</time>
      </trkpt>
      <trkpt lat="43.45255" lon="-5.588076">
        <ele>462.0</ele>
        <time>2021-02-14T10:22:13Z</time>
      </trkpt>
      <trkpt lat="43.452538" lon="-5.588073">
        <ele>462.0</ele>
        <time>2021-02-14T10:22:14Z</time>
      </trkpt>
      <trkpt lat="43.452534" lon="-5.588068">
        <ele>462.0</ele>
        <time>2021-02-14T10:22:15Z</time>
      </trkpt>
      <trkpt lat="43.45253" lon="-5.588064">
        <ele>462.0</ele>
        <time>2021-02-14T10:22:16Z</time>
      </trkpt>
      <trkpt lat="43.45252" lon="-5.5880585">
        <ele>462.0</ele>
        <time>2021-02-14T10:22:17Z</time>
      </trkpt>
      <trkpt lat="43.452515" lon="-5.588052">
        <ele>463.0</ele>
        <time>2021-02-14T10:22:18Z</time>
      </trkpt>
      <trkpt lat="43.452507" lon="-5.5880466">
        <ele>463.0</ele>
        <time>2021-02-14T10:22:19Z</time>
      </trkpt>
      <trkpt lat="43.4525" lon="-5.588042">
        <ele>463.0</ele>
        <time>2021-02-14T10:22:20Z</time>
      </trkpt>
      <trkpt lat="43.452488" lon="-5.588037">
        <ele>463.0</ele>
        <time>2021-02-14T10:22:21Z</time>
      </trkpt>
      <trkpt lat="43.452477" lon="-5.588034">
        <ele>463.0</ele>
        <time>2021-02-14T10:22:22Z</time>
      </trkpt>
      <trkpt lat="43.45247" lon="-5.58803">
        <ele>464.0</ele>
        <time>2021-02-14T10:22:23Z</time>
      </trkpt>
      <trkpt lat="43.45246" lon="-5.588027">
        <ele>464.0</ele>
        <time>2021-02-14T10:22:23Z</time>
      </trkpt>
      <trkpt lat="43.452457" lon="-5.588025">
        <ele>464.0</ele>
        <time>2021-02-14T10:22:24Z</time>
      </trkpt>
      <trkpt lat="43.452446" lon="-5.5880213">
        <ele>464.0</ele>
        <time>2021-02-14T10:22:25Z</time>
      </trkpt>
      <trkpt lat="43.45244" lon="-5.588018">
        <ele>464.0</ele>
        <time>2021-02-14T10:22:26Z</time>
      </trkpt>
      <trkpt lat="43.45244" lon="-5.588012">
        <ele>464.0</ele>
        <time>2021-02-14T10:22:27Z</time>
      </trkpt>
      <trkpt lat="43.45243" lon="-5.5880055">
        <ele>464.0</ele>
        <time>2021-02-14T10:22:28Z</time>
      </trkpt>
      <trkpt lat="43.452427" lon="-5.588">
        <ele>464.0</ele>
        <time>2021-02-14T10:22:29Z</time>
      </trkpt>
      <trkpt lat="43.452427" lon="-5.5879936">
        <ele>464.0</ele>
        <time>2021-02-14T10:22:30Z</time>
      </trkpt>
      <trkpt lat="43.452427" lon="-5.587984">
        <ele>464.0</ele>
        <time>2021-02-14T10:22:31Z</time>
      </trkpt>
      <trkpt lat="43.45242" lon="-5.5879726">
        <ele>464.0</ele>
        <time>2021-02-14T10:22:32Z</time>
      </trkpt>
      <trkpt lat="43.45241" lon="-5.5879636">
        <ele>465.0</ele>
        <time>2021-02-14T10:22:33Z</time>
      </trkpt>
      <trkpt lat="43.452404" lon="-5.587958">
        <ele>465.0</ele>
        <time>2021-02-14T10:22:34Z</time>
      </trkpt>
      <trkpt lat="43.4524" lon="-5.587952">
        <ele>465.0</ele>
        <time>2021-02-14T10:22:35Z</time>
      </trkpt>
      <trkpt lat="43.452396" lon="-5.587945">
        <ele>465.0</ele>
        <time>2021-02-14T10:22:36Z</time>
      </trkpt>
      <trkpt lat="43.45239" lon="-5.587939">
        <ele>465.0</ele>
        <time>2021-02-14T10:22:37Z</time>
      </trkpt>
      <trkpt lat="43.45238" lon="-5.5879326">
        <ele>466.0</ele>
        <time>2021-02-14T10:22:38Z</time>
      </trkpt>
      <trkpt lat="43.452374" lon="-5.5879245">
        <ele>466.0</ele>
        <time>2021-02-14T10:22:39Z</time>
      </trkpt>
      <trkpt lat="43.452366" lon="-5.5879164">
        <ele>466.0</ele>
        <time>2021-02-14T10:22:40Z</time>
      </trkpt>
      <trkpt lat="43.452354" lon="-5.5879073">
        <ele>466.0</ele>
        <time>2021-02-14T10:22:41Z</time>
      </trkpt>
      <trkpt lat="43.452343" lon="-5.5879">
        <ele>466.0</ele>
        <time>2021-02-14T10:22:42Z</time>
      </trkpt>
      <trkpt lat="43.452335" lon="-5.5878925">
        <ele>467.0</ele>
        <time>2021-02-14T10:22:43Z</time>
      </trkpt>
      <trkpt lat="43.452324" lon="-5.587884">
        <ele>467.0</ele>
        <time>2021-02-14T10:22:44Z</time>
      </trkpt>
      <trkpt lat="43.452312" lon="-5.5878778">
        <ele>467.0</ele>
        <time>2021-02-14T10:22:45Z</time>
      </trkpt>
      <trkpt lat="43.452305" lon="-5.5878716">
        <ele>467.0</ele>
        <time>2021-02-14T10:22:46Z</time>
      </trkpt>
      <trkpt lat="43.452293" lon="-5.587866">
        <ele>467.0</ele>
        <time>2021-02-14T10:22:47Z</time>
      </trkpt>
      <trkpt lat="43.45229" lon="-5.5878596">
        <ele>468.0</ele>
        <time>2021-02-14T10:22:48Z</time>
      </trkpt>
      <trkpt lat="43.452282" lon="-5.587854">
        <ele>468.0</ele>
        <time>2021-02-14T10:22:49Z</time>
      </trkpt>
      <trkpt lat="43.45228" lon="-5.587848">
        <ele>468.0</ele>
        <time>2021-02-14T10:22:50Z</time>
      </trkpt>
      <trkpt lat="43.452274" lon="-5.5878415">
        <ele>468.0</ele>
        <time>2021-02-14T10:22:51Z</time>
      </trkpt>
      <trkpt lat="43.452274" lon="-5.5878353">
        <ele>468.0</ele>
        <time>2021-02-14T10:22:52Z</time>
      </trkpt>
      <trkpt lat="43.452267" lon="-5.5878286">
        <ele>469.0</ele>
        <time>2021-02-14T10:22:53Z</time>
      </trkpt>
      <trkpt lat="43.452263" lon="-5.587822">
        <ele>469.0</ele>
        <time>2021-02-14T10:22:54Z</time>
      </trkpt>
      <trkpt lat="43.45226" lon="-5.587817">
        <ele>469.0</ele>
        <time>2021-02-14T10:22:55Z</time>
      </trkpt>
      <trkpt lat="43.45226" lon="-5.587811">
        <ele>469.0</ele>
        <time>2021-02-14T10:22:56Z</time>
      </trkpt>
      <trkpt lat="43.45225" lon="-5.5878067">
        <ele>469.0</ele>
        <time>2021-02-14T10:22:57Z</time>
      </trkpt>
      <trkpt lat="43.45225" lon="-5.5878024">
        <ele>469.0</ele>
        <time>2021-02-14T10:22:58Z</time>
      </trkpt>
      <trkpt lat="43.452248" lon="-5.587797">
        <ele>469.0</ele>
        <time>2021-02-14T10:22:59Z</time>
      </trkpt>
      <trkpt lat="43.452248" lon="-5.5877914">
        <ele>469.0</ele>
        <time>2021-02-14T10:23:00Z</time>
      </trkpt>
      <trkpt lat="43.452232" lon="-5.587782">
        <ele>469.0</ele>
        <time>2021-02-14T10:23:02Z</time>
      </trkpt>
      <trkpt lat="43.452225" lon="-5.5877805">
        <ele>469.0</ele>
        <time>2021-02-14T10:23:03Z</time>
      </trkpt>
      <trkpt lat="43.45222" lon="-5.587777">
        <ele>470.0</ele>
        <time>2021-02-14T10:23:04Z</time>
      </trkpt>
      <trkpt lat="43.45221" lon="-5.5877733">
        <ele>470.0</ele>
        <time>2021-02-14T10:23:05Z</time>
      </trkpt>
      <trkpt lat="43.452206" lon="-5.5877695">
        <ele>470.0</ele>
        <time>2021-02-14T10:23:06Z</time>
      </trkpt>
      <trkpt lat="43.452194" lon="-5.587766">
        <ele>470.0</ele>
        <time>2021-02-14T10:23:07Z</time>
      </trkpt>
      <trkpt lat="43.45219" lon="-5.587764">
        <ele>470.0</ele>
        <time>2021-02-14T10:23:08Z</time>
      </trkpt>
      <trkpt lat="43.45218" lon="-5.5877604">
        <ele>471.0</ele>
        <time>2021-02-14T10:23:09Z</time>
      </trkpt>
      <trkpt lat="43.452175" lon="-5.587758">
        <ele>471.0</ele>
        <time>2021-02-14T10:23:10Z</time>
      </trkpt>
      <trkpt lat="43.452164" lon="-5.587758">
        <ele>471.0</ele>
        <time>2021-02-14T10:23:11Z</time>
      </trkpt>
      <trkpt lat="43.452156" lon="-5.5877595">
        <ele>471.0</ele>
        <time>2021-02-14T10:23:12Z</time>
      </trkpt>
      <trkpt lat="43.452145" lon="-5.5877595">
        <ele>471.0</ele>
        <time>2021-02-14T10:23:13Z</time>
      </trkpt>
      <trkpt lat="43.45214" lon="-5.5877595">
        <ele>472.0</ele>
        <time>2021-02-14T10:23:14Z</time>
      </trkpt>
      <trkpt lat="43.45213" lon="-5.5877595">
        <ele>472.0</ele>
        <time>2021-02-14T10:23:15Z</time>
      </trkpt>
      <trkpt lat="43.452126" lon="-5.58776">
        <ele>472.0</ele>
        <time>2021-02-14T10:23:16Z</time>
      </trkpt>
      <trkpt lat="43.452126" lon="-5.5877595">
        <ele>472.0</ele>
        <time>2021-02-14T10:23:17Z</time>
      </trkpt>
      <trkpt lat="43.452118" lon="-5.587756">
        <ele>472.0</ele>
        <time>2021-02-14T10:23:18Z</time>
      </trkpt>
      <trkpt lat="43.452118" lon="-5.58775">
        <ele>473.0</ele>
        <time>2021-02-14T10:23:19Z</time>
      </trkpt>
      <trkpt lat="43.452118" lon="-5.587743">
        <ele>473.0</ele>
        <time>2021-02-14T10:23:20Z</time>
      </trkpt>
      <trkpt lat="43.452118" lon="-5.5877357">
        <ele>473.0</ele>
        <time>2021-02-14T10:23:21Z</time>
      </trkpt>
      <trkpt lat="43.452126" lon="-5.5877275">
        <ele>473.0</ele>
        <time>2021-02-14T10:23:22Z</time>
      </trkpt>
      <trkpt lat="43.452126" lon="-5.587717">
        <ele>474.0</ele>
        <time>2021-02-14T10:23:23Z</time>
      </trkpt>
      <trkpt lat="43.45213" lon="-5.587707">
        <ele>474.0</ele>
        <time>2021-02-14T10:23:24Z</time>
      </trkpt>
      <trkpt lat="43.45213" lon="-5.587694">
        <ele>474.0</ele>
        <time>2021-02-14T10:23:25Z</time>
      </trkpt>
      <trkpt lat="43.452133" lon="-5.587682">
        <ele>474.0</ele>
        <time>2021-02-14T10:23:26Z</time>
      </trkpt>
      <trkpt lat="43.45214" lon="-5.58767">
        <ele>474.0</ele>
        <time>2021-02-14T10:23:27Z</time>
      </trkpt>
      <trkpt lat="43.452145" lon="-5.587659">
        <ele>475.0</ele>
        <time>2021-02-14T10:23:28Z</time>
      </trkpt>
      <trkpt lat="43.45215" lon="-5.587651">
        <ele>475.0</ele>
        <time>2021-02-14T10:23:29Z</time>
      </trkpt>
      <trkpt lat="43.452156" lon="-5.5876417">
        <ele>475.0</ele>
        <time>2021-02-14T10:23:30Z</time>
      </trkpt>
      <trkpt lat="43.45216" lon="-5.5876327">
        <ele>475.0</ele>
        <time>2021-02-14T10:23:31Z</time>
      </trkpt>
      <trkpt lat="43.452164" lon="-5.587623">
        <ele>475.0</ele>
        <time>2021-02-14T10:23:32Z</time>
      </trkpt>
      <trkpt lat="43.45217" lon="-5.587614">
        <ele>475.0</ele>
        <time>2021-02-14T10:23:33Z</time>
      </trkpt>
      <trkpt lat="43.452175" lon="-5.5876064">
        <ele>476.0</ele>
        <time>2021-02-14T10:23:34Z</time>
      </trkpt>
      <trkpt lat="43.45218" lon="-5.5875993">
        <ele>476.0</ele>
        <time>2021-02-14T10:23:35Z</time>
      </trkpt>
      <trkpt lat="43.452187" lon="-5.587593">
        <ele>476.0</ele>
        <time>2021-02-14T10:23:36Z</time>
      </trkpt>
      <trkpt lat="43.45219" lon="-5.5875874">
        <ele>476.0</ele>
        <time>2021-02-14T10:23:37Z</time>
      </trkpt>
      <trkpt lat="43.45219" lon="-5.587582">
        <ele>476.0</ele>
        <time>2021-02-14T10:23:38Z</time>
      </trkpt>
      <trkpt lat="43.45219" lon="-5.587577">
        <ele>476.0</ele>
        <time>2021-02-14T10:23:39Z</time>
      </trkpt>
      <trkpt lat="43.45219" lon="-5.5875726">
        <ele>476.0</ele>
        <time>2021-02-14T10:23:40Z</time>
      </trkpt>
      <trkpt lat="43.452194" lon="-5.587568">
        <ele>477.0</ele>
        <time>2021-02-14T10:23:41Z</time>
      </trkpt>
      <trkpt lat="43.4522" lon="-5.587562">
        <ele>477.0</ele>
        <time>2021-02-14T10:23:42Z</time>
      </trkpt>
      <trkpt lat="43.452217" lon="-5.5875554">
        <ele>477.0</ele>
        <time>2021-02-14T10:23:43Z</time>
      </trkpt>
      <trkpt lat="43.45222" lon="-5.5875487">
        <ele>477.0</ele>
        <time>2021-02-14T10:23:44Z</time>
      </trkpt>
      <trkpt lat="43.452232" lon="-5.587541">
        <ele>477.0</ele>
        <time>2021-02-14T10:23:45Z</time>
      </trkpt>
      <trkpt lat="43.452232" lon="-5.587533">
        <ele>477.0</ele>
        <time>2021-02-14T10:23:46Z</time>
      </trkpt>
      <trkpt lat="43.452236" lon="-5.587524">
        <ele>477.0</ele>
        <time>2021-02-14T10:23:47Z</time>
      </trkpt>
      <trkpt lat="43.452236" lon="-5.587515">
        <ele>477.0</ele>
        <time>2021-02-14T10:23:48Z</time>
      </trkpt>
      <trkpt lat="43.452244" lon="-5.587506">
        <ele>478.0</ele>
        <time>2021-02-14T10:23:49Z</time>
      </trkpt>
      <trkpt lat="43.452248" lon="-5.5874977">
        <ele>478.0</ele>
        <time>2021-02-14T10:23:50Z</time>
      </trkpt>
      <trkpt lat="43.45225" lon="-5.5874906">
        <ele>478.0</ele>
        <time>2021-02-14T10:23:51Z</time>
      </trkpt>
      <trkpt lat="43.45225" lon="-5.5874853">
        <ele>478.0</ele>
        <time>2021-02-14T10:23:52Z</time>
      </trkpt>
      <trkpt lat="43.45226" lon="-5.587479">
        <ele>478.0</ele>
        <time>2021-02-14T10:23:53Z</time>
      </trkpt>
      <trkpt lat="43.452263" lon="-5.587472">
        <ele>479.0</ele>
        <time>2021-02-14T10:23:54Z</time>
      </trkpt>
      <trkpt lat="43.452263" lon="-5.587464">
        <ele>479.0</ele>
        <time>2021-02-14T10:23:55Z</time>
      </trkpt>
      <trkpt lat="43.452267" lon="-5.587454">
        <ele>479.0</ele>
        <time>2021-02-14T10:23:56Z</time>
      </trkpt>
      <trkpt lat="43.452274" lon="-5.5874453">
        <ele>479.0</ele>
        <time>2021-02-14T10:23:57Z</time>
      </trkpt>
      <trkpt lat="43.452274" lon="-5.5874357">
        <ele>479.0</ele>
        <time>2021-02-14T10:23:58Z</time>
      </trkpt>
      <trkpt lat="43.45228" lon="-5.587425">
        <ele>480.0</ele>
        <time>2021-02-14T10:23:59Z</time>
      </trkpt>
      <trkpt lat="43.452282" lon="-5.587415">
        <ele>480.0</ele>
        <time>2021-02-14T10:24:00Z</time>
      </trkpt>
      <trkpt lat="43.452282" lon="-5.587403">
        <ele>480.0</ele>
        <time>2021-02-14T10:24:01Z</time>
      </trkpt>
      <trkpt lat="43.45229" lon="-5.5873914">
        <ele>480.0</ele>
        <time>2021-02-14T10:24:02Z</time>
      </trkpt>
      <trkpt lat="43.45229" lon="-5.5873833">
        <ele>480.0</ele>
        <time>2021-02-14T10:24:03Z</time>
      </trkpt>
      <trkpt lat="43.452282" lon="-5.587376">
        <ele>480.0</ele>
        <time>2021-02-14T10:24:04Z</time>
      </trkpt>
      <trkpt lat="43.452274" lon="-5.5873713">
        <ele>481.0</ele>
        <time>2021-02-14T10:24:05Z</time>
      </trkpt>
      <trkpt lat="43.452267" lon="-5.5873685">
        <ele>481.0</ele>
        <time>2021-02-14T10:24:06Z</time>
      </trkpt>
      <trkpt lat="43.45226" lon="-5.5873704">
        <ele>481.0</ele>
        <time>2021-02-14T10:24:07Z</time>
      </trkpt>
      <trkpt lat="43.45225" lon="-5.5873723">
        <ele>481.0</ele>
        <time>2021-02-14T10:24:08Z</time>
      </trkpt>
      <trkpt lat="43.45225" lon="-5.5873713">
        <ele>481.0</ele>
        <time>2021-02-14T10:24:09Z</time>
      </trkpt>
      <trkpt lat="43.45225" lon="-5.587369">
        <ele>481.0</ele>
        <time>2021-02-14T10:24:10Z</time>
      </trkpt>
      <trkpt lat="43.45225" lon="-5.5873666">
        <ele>481.0</ele>
        <time>2021-02-14T10:24:11Z</time>
      </trkpt>
      <trkpt lat="43.45226" lon="-5.5873613">
        <ele>481.0</ele>
        <time>2021-02-14T10:24:12Z</time>
      </trkpt>
      <trkpt lat="43.452297" lon="-5.5872755">
        <ele>483.0</ele>
        <time>2021-02-14T10:24:16Z</time>
      </trkpt>
      <trkpt lat="43.452305" lon="-5.5872664">
        <ele>483.0</ele>
        <time>2021-02-14T10:24:17Z</time>
      </trkpt>
      <trkpt lat="43.45231" lon="-5.5872555">
        <ele>483.0</ele>
        <time>2021-02-14T10:24:18Z</time>
      </trkpt>
      <trkpt lat="43.452328" lon="-5.58724">
        <ele>483.0</ele>
        <time>2021-02-14T10:24:19Z</time>
      </trkpt>
      <trkpt lat="43.45235" lon="-5.5872307">
        <ele>483.0</ele>
        <time>2021-02-14T10:24:20Z</time>
      </trkpt>
      <trkpt lat="43.45237" lon="-5.587221">
        <ele>483.0</ele>
        <time>2021-02-14T10:24:21Z</time>
      </trkpt>
      <trkpt lat="43.45239" lon="-5.5872097">
        <ele>483.0</ele>
        <time>2021-02-14T10:24:22Z</time>
      </trkpt>
      <trkpt lat="43.45241" lon="-5.5872">
        <ele>483.0</ele>
        <time>2021-02-14T10:24:23Z</time>
      </trkpt>
      <trkpt lat="43.45244" lon="-5.587193">
        <ele>483.0</ele>
        <time>2021-02-14T10:24:24Z</time>
      </trkpt>
      <trkpt lat="43.45246" lon="-5.587186">
        <ele>483.0</ele>
        <time>2021-02-14T10:24:25Z</time>
      </trkpt>
      <trkpt lat="43.45249" lon="-5.587186">
        <ele>483.0</ele>
        <time>2021-02-14T10:24:26Z</time>
      </trkpt>
      <trkpt lat="43.45252" lon="-5.5871906">
        <ele>483.0</ele>
        <time>2021-02-14T10:24:27Z</time>
      </trkpt>
      <trkpt lat="43.452545" lon="-5.5871973">
        <ele>484.0</ele>
        <time>2021-02-14T10:24:28Z</time>
      </trkpt>
      <trkpt lat="43.45256" lon="-5.587207">
        <ele>484.0</ele>
        <time>2021-02-14T10:24:29Z</time>
      </trkpt>
      <trkpt lat="43.452564" lon="-5.5872216">
        <ele>484.0</ele>
        <time>2021-02-14T10:24:30Z</time>
      </trkpt>
      <trkpt lat="43.452564" lon="-5.587235">
        <ele>484.0</ele>
        <time>2021-02-14T10:24:31Z</time>
      </trkpt>
      <trkpt lat="43.452576" lon="-5.58724">
        <ele>484.0</ele>
        <time>2021-02-14T10:24:32Z</time>
      </trkpt>
      <trkpt lat="43.452583" lon="-5.58724">
        <ele>484.0</ele>
        <time>2021-02-14T10:24:33Z</time>
      </trkpt>
      <trkpt lat="43.452583" lon="-5.587244">
        <ele>484.0</ele>
        <time>2021-02-14T10:24:34Z</time>
      </trkpt>
      <trkpt lat="43.452583" lon="-5.5872474">
        <ele>484.0</ele>
        <time>2021-02-14T10:24:35Z</time>
      </trkpt>
      <trkpt lat="43.452583" lon="-5.5872507">
        <ele>485.0</ele>
        <time>2021-02-14T10:24:36Z</time>
      </trkpt>
      <trkpt lat="43.452583" lon="-5.5872545">
        <ele>485.0</ele>
        <time>2021-02-14T10:24:37Z</time>
      </trkpt>
      <trkpt lat="43.452583" lon="-5.5872564">
        <ele>485.0</ele>
        <time>2021-02-14T10:24:38Z</time>
      </trkpt>
      <trkpt lat="43.45258" lon="-5.5872564">
        <ele>485.0</ele>
        <time>2021-02-14T10:24:39Z</time>
      </trkpt>
      <trkpt lat="43.452576" lon="-5.5872574">
        <ele>485.0</ele>
        <time>2021-02-14T10:24:40Z</time>
      </trkpt>
      <trkpt lat="43.452568" lon="-5.5872607">
        <ele>485.0</ele>
        <time>2021-02-14T10:24:41Z</time>
      </trkpt>
      <trkpt lat="43.452564" lon="-5.5872636">
        <ele>486.0</ele>
        <time>2021-02-14T10:24:42Z</time>
      </trkpt>
      <trkpt lat="43.452568" lon="-5.5872655">
        <ele>486.0</ele>
        <time>2021-02-14T10:24:43Z</time>
      </trkpt>
      <trkpt lat="43.45258" lon="-5.5872693">
        <ele>486.0</ele>
        <time>2021-02-14T10:24:44Z</time>
      </trkpt>
      <trkpt lat="43.452595" lon="-5.587275">
        <ele>486.0</ele>
        <time>2021-02-14T10:24:45Z</time>
      </trkpt>
      <trkpt lat="43.452606" lon="-5.587279">
        <ele>486.0</ele>
        <time>2021-02-14T10:24:46Z</time>
      </trkpt>
      <trkpt lat="43.45261" lon="-5.58728">
        <ele>486.0</ele>
        <time>2021-02-14T10:24:47Z</time>
      </trkpt>
      <trkpt lat="43.452614" lon="-5.587278">
        <ele>486.0</ele>
        <time>2021-02-14T10:24:48Z</time>
      </trkpt>
      <trkpt lat="43.45262" lon="-5.587274">
        <ele>486.0</ele>
        <time>2021-02-14T10:24:49Z</time>
      </trkpt>
      <trkpt lat="43.452625" lon="-5.5872693">
        <ele>486.0</ele>
        <time>2021-02-14T10:24:50Z</time>
      </trkpt>
      <trkpt lat="43.452633" lon="-5.5872655">
        <ele>486.0</ele>
        <time>2021-02-14T10:24:51Z</time>
      </trkpt>
      <trkpt lat="43.452633" lon="-5.5872602">
        <ele>486.0</ele>
        <time>2021-02-14T10:24:52Z</time>
      </trkpt>
      <trkpt lat="43.452633" lon="-5.587255">
        <ele>486.0</ele>
        <time>2021-02-14T10:24:53Z</time>
      </trkpt>
      <trkpt lat="43.452633" lon="-5.5872507">
        <ele>486.0</ele>
        <time>2021-02-14T10:24:54Z</time>
      </trkpt>
      <trkpt lat="43.452637" lon="-5.587246">
        <ele>486.0</ele>
        <time>2021-02-14T10:24:55Z</time>
      </trkpt>
      <trkpt lat="43.45265" lon="-5.587244">
        <ele>487.0</ele>
        <time>2021-02-14T10:24:56Z</time>
      </trkpt>
      <trkpt lat="43.452656" lon="-5.5872436">
        <ele>487.0</ele>
        <time>2021-02-14T10:24:57Z</time>
      </trkpt>
      <trkpt lat="43.452667" lon="-5.5872436">
        <ele>487.0</ele>
        <time>2021-02-14T10:24:58Z</time>
      </trkpt>
      <trkpt lat="43.452682" lon="-5.587243">
        <ele>487.0</ele>
        <time>2021-02-14T10:24:59Z</time>
      </trkpt>
      <trkpt lat="43.452686" lon="-5.587241">
        <ele>487.0</ele>
        <time>2021-02-14T10:25:00Z</time>
      </trkpt>
      <trkpt lat="43.452698" lon="-5.5872383">
        <ele>487.0</ele>
        <time>2021-02-14T10:25:01Z</time>
      </trkpt>
      <trkpt lat="43.45271" lon="-5.5872364">
        <ele>487.0</ele>
        <time>2021-02-14T10:25:02Z</time>
      </trkpt>
      <trkpt lat="43.452713" lon="-5.587233">
        <ele>487.0</ele>
        <time>2021-02-14T10:25:03Z</time>
      </trkpt>
      <trkpt lat="43.452717" lon="-5.587232">
        <ele>487.0</ele>
        <time>2021-02-14T10:25:04Z</time>
      </trkpt>
      <trkpt lat="43.452724" lon="-5.58723">
        <ele>487.0</ele>
        <time>2021-02-14T10:25:05Z</time>
      </trkpt>
      <trkpt lat="43.452732" lon="-5.5872283">
        <ele>487.0</ele>
        <time>2021-02-14T10:25:06Z</time>
      </trkpt>
      <trkpt lat="43.45274" lon="-5.587229">
        <ele>487.0</ele>
        <time>2021-02-14T10:25:07Z</time>
      </trkpt>
      <trkpt lat="43.452755" lon="-5.587229">
        <ele>487.0</ele>
        <time>2021-02-14T10:25:08Z</time>
      </trkpt>
      <trkpt lat="43.45277" lon="-5.5872293">
        <ele>487.0</ele>
        <time>2021-02-14T10:25:09Z</time>
      </trkpt>
      <trkpt lat="43.452778" lon="-5.58723">
        <ele>487.0</ele>
        <time>2021-02-14T10:25:10Z</time>
      </trkpt>
      <trkpt lat="43.45279" lon="-5.5872345">
        <ele>487.0</ele>
        <time>2021-02-14T10:25:11Z</time>
      </trkpt>
      <trkpt lat="43.452805" lon="-5.5872397">
        <ele>488.0</ele>
        <time>2021-02-14T10:25:12Z</time>
      </trkpt>
      <trkpt lat="43.452816" lon="-5.587244">
        <ele>488.0</ele>
        <time>2021-02-14T10:25:13Z</time>
      </trkpt>
      <trkpt lat="43.453613" lon="-5.587607">
        <ele>501.0</ele>
        <time>2021-02-14T10:26:39Z</time>
      </trkpt>
      <trkpt lat="43.453606" lon="-5.587608">
        <ele>501.0</ele>
        <time>2021-02-14T10:26:40Z</time>
      </trkpt>
      <trkpt lat="43.453587" lon="-5.5876102">
        <ele>501.0</ele>
        <time>2021-02-14T10:26:41Z</time>
      </trkpt>
      <trkpt lat="43.45357" lon="-5.5876107">
        <ele>501.0</ele>
        <time>2021-02-14T10:26:42Z</time>
      </trkpt>
      <trkpt lat="43.453564" lon="-5.587608">
        <ele>501.0</ele>
        <time>2021-02-14T10:26:43Z</time>
      </trkpt>
      <trkpt lat="43.453556" lon="-5.587602">
        <ele>501.0</ele>
        <time>2021-02-14T10:26:44Z</time>
      </trkpt>
      <trkpt lat="43.453556" lon="-5.587592">
        <ele>501.0</ele>
        <time>2021-02-14T10:26:45Z</time>
      </trkpt>
      <trkpt lat="43.453556" lon="-5.5875797">
        <ele>501.0</ele>
        <time>2021-02-14T10:26:46Z</time>
      </trkpt>
      <trkpt lat="43.453564" lon="-5.5875654">
        <ele>501.0</ele>
        <time>2021-02-14T10:26:47Z</time>
      </trkpt>
      <trkpt lat="43.453568" lon="-5.5875535">
        <ele>502.0</ele>
        <time>2021-02-14T10:26:48Z</time>
      </trkpt>
      <trkpt lat="43.45357" lon="-5.5875416">
        <ele>502.0</ele>
        <time>2021-02-14T10:26:49Z</time>
      </trkpt>
      <trkpt lat="43.45358" lon="-5.587534">
        <ele>502.0</ele>
        <time>2021-02-14T10:26:50Z</time>
      </trkpt>
      <trkpt lat="43.453583" lon="-5.5875278">
        <ele>502.0</ele>
        <time>2021-02-14T10:26:51Z</time>
      </trkpt>
      <trkpt lat="43.453587" lon="-5.587521">
        <ele>502.0</ele>
        <time>2021-02-14T10:26:52Z</time>
      </trkpt>
      <trkpt lat="43.453598" lon="-5.5875134">
        <ele>502.0</ele>
        <time>2021-02-14T10:26:53Z</time>
      </trkpt>
      <trkpt lat="43.45361" lon="-5.5875072">
        <ele>503.0</ele>
        <time>2021-02-14T10:26:54Z</time>
      </trkpt>
      <trkpt lat="43.45362" lon="-5.5875015">
        <ele>503.0</ele>
        <time>2021-02-14T10:26:55Z</time>
      </trkpt>
      <trkpt lat="43.45363" lon="-5.5874968">
        <ele>503.0</ele>
        <time>2021-02-14T10:26:56Z</time>
      </trkpt>
      <trkpt lat="43.453636" lon="-5.587492">
        <ele>503.0</ele>
        <time>2021-02-14T10:26:57Z</time>
      </trkpt>
      <trkpt lat="43.45364" lon="-5.5874853">
        <ele>503.0</ele>
        <time>2021-02-14T10:26:58Z</time>
      </trkpt>
      <trkpt lat="43.45365" lon="-5.5874777">
        <ele>504.0</ele>
        <time>2021-02-14T10:26:59Z</time>
      </trkpt>
      <trkpt lat="43.45366" lon="-5.5874696">
        <ele>504.0</ele>
        <time>2021-02-14T10:27:00Z</time>
      </trkpt>
      <trkpt lat="43.453674" lon="-5.5874624">
        <ele>504.0</ele>
        <time>2021-02-14T10:27:01Z</time>
      </trkpt>
      <trkpt lat="43.45369" lon="-5.587457">
        <ele>505.0</ele>
        <time>2021-02-14T10:27:02Z</time>
      </trkpt>
      <trkpt lat="43.453705" lon="-5.587455">
        <ele>505.0</ele>
        <time>2021-02-14T10:27:03Z</time>
      </trkpt>
      <trkpt lat="43.453716" lon="-5.587453">
        <ele>505.0</ele>
        <time>2021-02-14T10:27:04Z</time>
      </trkpt>
      <trkpt lat="43.453728" lon="-5.587446">
        <ele>505.0</ele>
        <time>2021-02-14T10:27:05Z</time>
      </trkpt>
      <trkpt lat="43.453743" lon="-5.5874376">
        <ele>505.0</ele>
        <time>2021-02-14T10:27:06Z</time>
      </trkpt>
      <trkpt lat="43.453762" lon="-5.587427">
        <ele>505.0</ele>
        <time>2021-02-14T10:27:07Z</time>
      </trkpt>
      <trkpt lat="43.453777" lon="-5.587416">
        <ele>505.0</ele>
        <time>2021-02-14T10:27:08Z</time>
      </trkpt>
      <trkpt lat="43.45379" lon="-5.5874076">
        <ele>505.0</ele>
        <time>2021-02-14T10:27:09Z</time>
      </trkpt>
      <trkpt lat="43.4538" lon="-5.5874004">
        <ele>505.0</ele>
        <time>2021-02-14T10:27:10Z</time>
      </trkpt>
      <trkpt lat="43.453808" lon="-5.5873957">
        <ele>505.0</ele>
        <time>2021-02-14T10:27:11Z</time>
      </trkpt>
      <trkpt lat="43.453815" lon="-5.587391">
        <ele>505.0</ele>
        <time>2021-02-14T10:27:12Z</time>
      </trkpt>
      <trkpt lat="43.45383" lon="-5.5873823">
        <ele>506.0</ele>
        <time>2021-02-14T10:27:13Z</time>
      </trkpt>
      <trkpt lat="43.453846" lon="-5.5873747">
        <ele>506.0</ele>
        <time>2021-02-14T10:27:14Z</time>
      </trkpt>
      <trkpt lat="43.45386" lon="-5.5873713">
        <ele>506.0</ele>
        <time>2021-02-14T10:27:15Z</time>
      </trkpt>
      <trkpt lat="43.453876" lon="-5.5873704">
        <ele>506.0</ele>
        <time>2021-02-14T10:27:16Z</time>
      </trkpt>
      <trkpt lat="43.453896" lon="-5.5873675">
        <ele>506.0</ele>
        <time>2021-02-14T10:27:17Z</time>
      </trkpt>
      <trkpt lat="43.453915" lon="-5.587362">
        <ele>506.0</ele>
        <time>2021-02-14T10:27:18Z</time>
      </trkpt>
      <trkpt lat="43.453938" lon="-5.587356">
        <ele>507.0</ele>
        <time>2021-02-14T10:27:19Z</time>
      </trkpt>
      <trkpt lat="43.453953" lon="-5.587352">
        <ele>507.0</ele>
        <time>2021-02-14T10:27:20Z</time>
      </trkpt>
      <trkpt lat="43.453968" lon="-5.587351">
        <ele>507.0</ele>
        <time>2021-02-14T10:27:21Z</time>
      </trkpt>
      <trkpt lat="43.453968" lon="-5.587356">
        <ele>507.0</ele>
        <time>2021-02-14T10:27:22Z</time>
      </trkpt>
      <trkpt lat="43.453968" lon="-5.587363">
        <ele>507.0</ele>
        <time>2021-02-14T10:27:23Z</time>
      </trkpt>
      <trkpt lat="43.453968" lon="-5.5873675">
        <ele>507.0</ele>
        <time>2021-02-14T10:27:24Z</time>
      </trkpt>
      <trkpt lat="43.45397" lon="-5.5873723">
        <ele>508.0</ele>
        <time>2021-02-14T10:27:25Z</time>
      </trkpt>
      <trkpt lat="43.45398" lon="-5.587378">
        <ele>508.0</ele>
        <time>2021-02-14T10:27:26Z</time>
      </trkpt>
      <trkpt lat="43.45398" lon="-5.5873837">
        <ele>508.0</ele>
        <time>2021-02-14T10:27:27Z</time>
      </trkpt>
      <trkpt lat="43.453983" lon="-5.587388">
        <ele>508.0</ele>
        <time>2021-02-14T10:27:28Z</time>
      </trkpt>
      <trkpt lat="43.453995" lon="-5.5873938">
        <ele>508.0</ele>
        <time>2021-02-14T10:27:29Z</time>
      </trkpt>
      <trkpt lat="43.454" lon="-5.587399">
        <ele>508.0</ele>
        <time>2021-02-14T10:27:30Z</time>
      </trkpt>
      <trkpt lat="43.454014" lon="-5.5874076">
        <ele>509.0</ele>
        <time>2021-02-14T10:27:32Z</time>
      </trkpt>
      <trkpt lat="43.454014" lon="-5.587406">
        <ele>509.0</ele>
        <time>2021-02-14T10:27:33Z</time>
      </trkpt>
      <trkpt lat="43.454018" lon="-5.587406">
        <ele>509.0</ele>
        <time>2021-02-14T10:27:34Z</time>
      </trkpt>
      <trkpt lat="43.454018" lon="-5.5874076">
        <ele>509.0</ele>
        <time>2021-02-14T10:27:35Z</time>
      </trkpt>
      <trkpt lat="43.454025" lon="-5.587408">
        <ele>509.0</ele>
        <time>2021-02-14T10:27:36Z</time>
      </trkpt>
      <trkpt lat="43.454025" lon="-5.5874095">
        <ele>510.0</ele>
        <time>2021-02-14T10:27:37Z</time>
      </trkpt>
      <trkpt lat="43.454033" lon="-5.5874085">
        <ele>510.0</ele>
        <time>2021-02-14T10:27:38Z</time>
      </trkpt>
      <trkpt lat="43.45404" lon="-5.5874085">
        <ele>510.0</ele>
        <time>2021-02-14T10:27:39Z</time>
      </trkpt>
      <trkpt lat="43.45405" lon="-5.5874066">
        <ele>510.0</ele>
        <time>2021-02-14T10:27:40Z</time>
      </trkpt>
      <trkpt lat="43.454056" lon="-5.5874047">
        <ele>510.0</ele>
        <time>2021-02-14T10:27:41Z</time>
      </trkpt>
      <trkpt lat="43.45406" lon="-5.5874033">
        <ele>510.0</ele>
        <time>2021-02-14T10:27:42Z</time>
      </trkpt>
      <trkpt lat="43.45407" lon="-5.5874047">
        <ele>510.0</ele>
        <time>2021-02-14T10:27:43Z</time>
      </trkpt>
      <trkpt lat="43.454075" lon="-5.587405">
        <ele>510.0</ele>
        <time>2021-02-14T10:27:44Z</time>
      </trkpt>
      <trkpt lat="43.454086" lon="-5.5874095">
        <ele>510.0</ele>
        <time>2021-02-14T10:27:45Z</time>
      </trkpt>
      <trkpt lat="43.45409" lon="-5.5874114">
        <ele>510.0</ele>
        <time>2021-02-14T10:27:46Z</time>
      </trkpt>
      <trkpt lat="43.4541" lon="-5.5874114">
        <ele>510.0</ele>
        <time>2021-02-14T10:27:47Z</time>
      </trkpt>
      <trkpt lat="43.454105" lon="-5.5874114">
        <ele>511.0</ele>
        <time>2021-02-14T10:27:48Z</time>
      </trkpt>
      <trkpt lat="43.45411" lon="-5.5874104">
        <ele>511.0</ele>
        <time>2021-02-14T10:27:49Z</time>
      </trkpt>
      <trkpt lat="43.454117" lon="-5.5874104">
        <ele>511.0</ele>
        <time>2021-02-14T10:27:50Z</time>
      </trkpt>
      <trkpt lat="43.45412" lon="-5.587412">
        <ele>511.0</ele>
        <time>2021-02-14T10:27:51Z</time>
      </trkpt>
      <trkpt lat="43.454132" lon="-5.587414">
        <ele>511.0</ele>
        <time>2021-02-14T10:27:52Z</time>
      </trkpt>
      <trkpt lat="43.454136" lon="-5.5874157">
        <ele>512.0</ele>
        <time>2021-02-14T10:27:53Z</time>
      </trkpt>
      <trkpt lat="43.45414" lon="-5.5874176">
        <ele>512.0</ele>
        <time>2021-02-14T10:27:54Z</time>
      </trkpt>
      <trkpt lat="43.45415" lon="-5.587418">
        <ele>512.0</ele>
        <time>2021-02-14T10:27:55Z</time>
      </trkpt>
      <trkpt lat="43.454163" lon="-5.587415">
        <ele>512.0</ele>
        <time>2021-02-14T10:27:56Z</time>
      </trkpt>
      <trkpt lat="43.454174" lon="-5.5874104">
        <ele>512.0</ele>
        <time>2021-02-14T10:27:57Z</time>
      </trkpt>
      <trkpt lat="43.45418" lon="-5.5874066">
        <ele>513.0</ele>
        <time>2021-02-14T10:27:58Z</time>
      </trkpt>
      <trkpt lat="43.45419" lon="-5.5874043">
        <ele>513.0</ele>
        <time>2021-02-14T10:27:59Z</time>
      </trkpt>
      <trkpt lat="43.454197" lon="-5.5874014">
        <ele>513.0</ele>
        <time>2021-02-14T10:28:00Z</time>
      </trkpt>
      <trkpt lat="43.45421" lon="-5.5873985">
        <ele>513.0</ele>
        <time>2021-02-14T10:28:01Z</time>
      </trkpt>
      <trkpt lat="43.454212" lon="-5.5873947">
        <ele>513.0</ele>
        <time>2021-02-14T10:28:02Z</time>
      </trkpt>
      <trkpt lat="43.454224" lon="-5.5873933">
        <ele>513.0</ele>
        <time>2021-02-14T10:28:03Z</time>
      </trkpt>
      <trkpt lat="43.454235" lon="-5.587392">
        <ele>513.0</ele>
        <time>2021-02-14T10:28:04Z</time>
      </trkpt>
      <trkpt lat="43.45424" lon="-5.58739">
        <ele>514.0</ele>
        <time>2021-02-14T10:28:05Z</time>
      </trkpt>
      <trkpt lat="43.45425" lon="-5.587388">
        <ele>514.0</ele>
        <time>2021-02-14T10:28:06Z</time>
      </trkpt>
      <trkpt lat="43.454254" lon="-5.5873857">
        <ele>514.0</ele>
        <time>2021-02-14T10:28:07Z</time>
      </trkpt>
      <trkpt lat="43.454266" lon="-5.5873833">
        <ele>514.0</ele>
        <time>2021-02-14T10:28:08Z</time>
      </trkpt>
      <trkpt lat="43.454273" lon="-5.587378">
        <ele>514.0</ele>
        <time>2021-02-14T10:28:09Z</time>
      </trkpt>
      <trkpt lat="43.454285" lon="-5.587375">
        <ele>515.0</ele>
        <time>2021-02-14T10:28:10Z</time>
      </trkpt>
      <trkpt lat="43.45429" lon="-5.5873733">
        <ele>515.0</ele>
        <time>2021-02-14T10:28:11Z</time>
      </trkpt>
      <trkpt lat="43.4543" lon="-5.587373">
        <ele>515.0</ele>
        <time>2021-02-14T10:28:12Z</time>
      </trkpt>
      <trkpt lat="43.454304" lon="-5.5873694">
        <ele>515.0</ele>
        <time>2021-02-14T10:28:13Z</time>
      </trkpt>
      <trkpt lat="43.45431" lon="-5.5873666">
        <ele>516.0</ele>
        <time>2021-02-14T10:28:14Z</time>
      </trkpt>
      <trkpt lat="43.45432" lon="-5.5873637">
        <ele>516.0</ele>
        <time>2021-02-14T10:28:15Z</time>
      </trkpt>
      <trkpt lat="43.454327" lon="-5.58736">
        <ele>516.0</ele>
        <time>2021-02-14T10:28:16Z</time>
      </trkpt>
      <trkpt lat="43.454334" lon="-5.587354">
        <ele>516.0</ele>
        <time>2021-02-14T10:28:17Z</time>
      </trkpt>
      <trkpt lat="43.45434" lon="-5.587348">
        <ele>516.0</ele>
        <time>2021-02-14T10:28:18Z</time>
      </trkpt>
      <trkpt lat="43.454346" lon="-5.5873427">
        <ele>516.0</ele>
        <time>2021-02-14T10:28:19Z</time>
      </trkpt>
      <trkpt lat="43.45436" lon="-5.587337">
        <ele>516.0</ele>
        <time>2021-02-14T10:28:21Z</time>
      </trkpt>
      <trkpt lat="43.45436" lon="-5.5873404">
        <ele>516.0</ele>
        <time>2021-02-14T10:28:22Z</time>
      </trkpt>
      <trkpt lat="43.45437" lon="-5.5873446">
        <ele>516.0</ele>
        <time>2021-02-14T10:28:23Z</time>
      </trkpt>
      <trkpt lat="43.45437" lon="-5.587348">
        <ele>516.0</ele>
        <time>2021-02-14T10:28:24Z</time>
      </trkpt>
      <trkpt lat="43.454376" lon="-5.58735">
        <ele>517.0</ele>
        <time>2021-02-14T10:28:25Z</time>
      </trkpt>
      <trkpt lat="43.454388" lon="-5.58735">
        <ele>517.0</ele>
        <time>2021-02-14T10:28:26Z</time>
      </trkpt>
      <trkpt lat="43.4544" lon="-5.58735">
        <ele>517.0</ele>
        <time>2021-02-14T10:28:27Z</time>
      </trkpt>
      <trkpt lat="43.454403" lon="-5.5873466">
        <ele>517.0</ele>
        <time>2021-02-14T10:28:28Z</time>
      </trkpt>
      <trkpt lat="43.454414" lon="-5.5873413">
        <ele>517.0</ele>
        <time>2021-02-14T10:28:29Z</time>
      </trkpt>
      <trkpt lat="43.45443" lon="-5.5873356">
        <ele>518.0</ele>
        <time>2021-02-14T10:28:30Z</time>
      </trkpt>
      <trkpt lat="43.454437" lon="-5.587328">
        <ele>518.0</ele>
        <time>2021-02-14T10:28:31Z</time>
      </trkpt>
      <trkpt lat="43.45445" lon="-5.58732">
        <ele>518.0</ele>
        <time>2021-02-14T10:28:32Z</time>
      </trkpt>
      <trkpt lat="43.454464" lon="-5.5873113">
        <ele>518.0</ele>
        <time>2021-02-14T10:28:33Z</time>
      </trkpt>
      <trkpt lat="43.45448" lon="-5.5873">
        <ele>518.0</ele>
        <time>2021-02-14T10:28:34Z</time>
      </trkpt>
      <trkpt lat="43.45449" lon="-5.587286">
        <ele>518.0</ele>
        <time>2021-02-14T10:28:35Z</time>
      </trkpt>
      <trkpt lat="43.454506" lon="-5.587274">
        <ele>519.0</ele>
        <time>2021-02-14T10:28:36Z</time>
      </trkpt>
      <trkpt lat="43.454525" lon="-5.5872636">
        <ele>519.0</ele>
        <time>2021-02-14T10:28:37Z</time>
      </trkpt>
      <trkpt lat="43.45454" lon="-5.587253">
        <ele>519.0</ele>
        <time>2021-02-14T10:28:38Z</time>
      </trkpt>
      <trkpt lat="43.454567" lon="-5.5872436">
        <ele>519.0</ele>
        <time>2021-02-14T10:28:39Z</time>
      </trkpt>
      <trkpt lat="43.454586" lon="-5.587236">
        <ele>520.0</ele>
        <time>2021-02-14T10:28:40Z</time>
      </trkpt>
      <trkpt lat="43.4546" lon="-5.5872235">
        <ele>520.0</ele>
        <time>2021-02-14T10:28:41Z</time>
      </trkpt>
      <trkpt lat="43.454617" lon="-5.5872116">
        <ele>520.0</ele>
        <time>2021-02-14T10:28:42Z</time>
      </trkpt>
      <trkpt lat="43.454628" lon="-5.5871983">
        <ele>520.0</ele>
        <time>2021-02-14T10:28:43Z</time>
      </trkpt>
      <trkpt lat="43.45463" lon="-5.587186">
        <ele>520.0</ele>
        <time>2021-02-14T10:28:44Z</time>
      </trkpt>
      <trkpt lat="43.45466" lon="-5.587156">
        <ele>520.0</ele>
        <time>2021-02-14T10:28:46Z</time>
      </trkpt>
      <trkpt lat="43.45466" lon="-5.5871553">
        <ele>521.0</ele>
        <time>2021-02-14T10:28:47Z</time>
      </trkpt>
      <trkpt lat="43.454662" lon="-5.5871525">
        <ele>521.0</ele>
        <time>2021-02-14T10:28:48Z</time>
      </trkpt>
      <trkpt lat="43.454674" lon="-5.587148">
        <ele>521.0</ele>
        <time>2021-02-14T10:28:49Z</time>
      </trkpt>
      <trkpt lat="43.454685" lon="-5.5871425">
        <ele>521.0</ele>
        <time>2021-02-14T10:28:50Z</time>
      </trkpt>
      <trkpt lat="43.4547" lon="-5.587135">
        <ele>521.0</ele>
        <time>2021-02-14T10:28:51Z</time>
      </trkpt>
      <trkpt lat="43.45471" lon="-5.587127">
        <ele>521.0</ele>
        <time>2021-02-14T10:28:52Z</time>
      </trkpt>
      <trkpt lat="43.45472" lon="-5.58712">
        <ele>521.0</ele>
        <time>2021-02-14T10:28:53Z</time>
      </trkpt>
      <trkpt lat="43.454723" lon="-5.5871134">
        <ele>521.0</ele>
        <time>2021-02-14T10:28:54Z</time>
      </trkpt>
      <trkpt lat="43.454735" lon="-5.5871053">
        <ele>521.0</ele>
        <time>2021-02-14T10:28:55Z</time>
      </trkpt>
      <trkpt lat="43.45474" lon="-5.5870957">
        <ele>521.0</ele>
        <time>2021-02-14T10:28:56Z</time>
      </trkpt>
      <trkpt lat="43.45475" lon="-5.587086">
        <ele>521.0</ele>
        <time>2021-02-14T10:28:57Z</time>
      </trkpt>
      <trkpt lat="43.45476" lon="-5.5870776">
        <ele>521.0</ele>
        <time>2021-02-14T10:28:58Z</time>
      </trkpt>
      <trkpt lat="43.454773" lon="-5.587071">
        <ele>521.0</ele>
        <time>2021-02-14T10:28:59Z</time>
      </trkpt>
      <trkpt lat="43.454777" lon="-5.587064">
        <ele>521.0</ele>
        <time>2021-02-14T10:29:00Z</time>
      </trkpt>
      <trkpt lat="43.45478" lon="-5.5870566">
        <ele>521.0</ele>
        <time>2021-02-14T10:29:01Z</time>
      </trkpt>
      <trkpt lat="43.45479" lon="-5.5870504">
        <ele>521.0</ele>
        <time>2021-02-14T10:29:02Z</time>
      </trkpt>
      <trkpt lat="43.454803" lon="-5.5870423">
        <ele>522.0</ele>
        <time>2021-02-14T10:29:03Z</time>
      </trkpt>
      <trkpt lat="43.45481" lon="-5.5870337">
        <ele>522.0</ele>
        <time>2021-02-14T10:29:04Z</time>
      </trkpt>
      <trkpt lat="43.454823" lon="-5.587024">
        <ele>522.0</ele>
        <time>2021-02-14T10:29:05Z</time>
      </trkpt>
      <trkpt lat="43.454826" lon="-5.5870132">
        <ele>522.0</ele>
        <time>2021-02-14T10:29:06Z</time>
      </trkpt>
      <trkpt lat="43.454834" lon="-5.5870004">
        <ele>522.0</ele>
        <time>2021-02-14T10:29:07Z</time>
      </trkpt>
      <trkpt lat="43.454838" lon="-5.586987">
        <ele>522.0</ele>
        <time>2021-02-14T10:29:08Z</time>
      </trkpt>
      <trkpt lat="43.45484" lon="-5.586976">
        <ele>522.0</ele>
        <time>2021-02-14T10:29:09Z</time>
      </trkpt>
      <trkpt lat="43.45485" lon="-5.5869656">
        <ele>522.0</ele>
        <time>2021-02-14T10:29:10Z</time>
      </trkpt>
      <trkpt lat="43.454853" lon="-5.586957">
        <ele>522.0</ele>
        <time>2021-02-14T10:29:11Z</time>
      </trkpt>
      <trkpt lat="43.454857" lon="-5.5869465">
        <ele>523.0</ele>
        <time>2021-02-14T10:29:12Z</time>
      </trkpt>
      <trkpt lat="43.454865" lon="-5.5869365">
        <ele>523.0</ele>
        <time>2021-02-14T10:29:13Z</time>
      </trkpt>
      <trkpt lat="43.45487" lon="-5.5869255">
        <ele>523.0</ele>
        <time>2021-02-14T10:29:14Z</time>
      </trkpt>
      <trkpt lat="43.454872" lon="-5.586915">
        <ele>523.0</ele>
        <time>2021-02-14T10:29:15Z</time>
      </trkpt>
      <trkpt lat="43.454872" lon="-5.5869055">
        <ele>523.0</ele>
        <time>2021-02-14T10:29:16Z</time>
      </trkpt>
      <trkpt lat="43.45488" lon="-5.586894">
        <ele>523.0</ele>
        <time>2021-02-14T10:29:17Z</time>
      </trkpt>
      <trkpt lat="43.454887" lon="-5.586882">
        <ele>523.0</ele>
        <time>2021-02-14T10:29:18Z</time>
      </trkpt>
      <trkpt lat="43.454895" lon="-5.5868692">
        <ele>523.0</ele>
        <time>2021-02-14T10:29:19Z</time>
      </trkpt>
      <trkpt lat="43.4549" lon="-5.586857">
        <ele>524.0</ele>
        <time>2021-02-14T10:29:20Z</time>
      </trkpt>
      <trkpt lat="43.454903" lon="-5.5868435">
        <ele>524.0</ele>
        <time>2021-02-14T10:29:21Z</time>
      </trkpt>
      <trkpt lat="43.454914" lon="-5.5868316">
        <ele>524.0</ele>
        <time>2021-02-14T10:29:22Z</time>
      </trkpt>
      <trkpt lat="43.454918" lon="-5.5868177">
        <ele>524.0</ele>
        <time>2021-02-14T10:29:23Z</time>
      </trkpt>
      <trkpt lat="43.45493" lon="-5.5868063">
        <ele>524.0</ele>
        <time>2021-02-14T10:29:24Z</time>
      </trkpt>
      <trkpt lat="43.45494" lon="-5.586797">
        <ele>524.0</ele>
        <time>2021-02-14T10:29:25Z</time>
      </trkpt>
      <trkpt lat="43.454952" lon="-5.5867887">
        <ele>524.0</ele>
        <time>2021-02-14T10:29:26Z</time>
      </trkpt>
      <trkpt lat="43.454956" lon="-5.58678">
        <ele>524.0</ele>
        <time>2021-02-14T10:29:27Z</time>
      </trkpt>
      <trkpt lat="43.454967" lon="-5.5867724">
        <ele>525.0</ele>
        <time>2021-02-14T10:29:28Z</time>
      </trkpt>
      <trkpt lat="43.454975" lon="-5.586763">
        <ele>525.0</ele>
        <time>2021-02-14T10:29:29Z</time>
      </trkpt>
      <trkpt lat="43.454983" lon="-5.5867543">
        <ele>525.0</ele>
        <time>2021-02-14T10:29:30Z</time>
      </trkpt>
      <trkpt lat="43.45499" lon="-5.5867457">
        <ele>525.0</ele>
        <time>2021-02-14T10:29:31Z</time>
      </trkpt>
      <trkpt lat="43.45499" lon="-5.586738">
        <ele>525.0</ele>
        <time>2021-02-14T10:29:32Z</time>
      </trkpt>
      <trkpt lat="43.454998" lon="-5.5867295">
        <ele>526.0</ele>
        <time>2021-02-14T10:29:33Z</time>
      </trkpt>
      <trkpt lat="43.455" lon="-5.5867205">
        <ele>526.0</ele>
        <time>2021-02-14T10:29:34Z</time>
      </trkpt>
      <trkpt lat="43.455" lon="-5.586712">
        <ele>526.0</ele>
        <time>2021-02-14T10:29:35Z</time>
      </trkpt>
      <trkpt lat="43.454998" lon="-5.5867014">
        <ele>526.0</ele>
        <time>2021-02-14T10:29:36Z</time>
      </trkpt>
      <trkpt lat="43.454998" lon="-5.5866895">
        <ele>526.0</ele>
        <time>2021-02-14T10:29:37Z</time>
      </trkpt>
      <trkpt lat="43.455" lon="-5.5866766">
        <ele>526.0</ele>
        <time>2021-02-14T10:29:38Z</time>
      </trkpt>
      <trkpt lat="43.455013" lon="-5.5866656">
        <ele>526.0</ele>
        <time>2021-02-14T10:29:39Z</time>
      </trkpt>
      <trkpt lat="43.45502" lon="-5.586654">
        <ele>526.0</ele>
        <time>2021-02-14T10:29:40Z</time>
      </trkpt>
      <trkpt lat="43.455032" lon="-5.586645">
        <ele>526.0</ele>
        <time>2021-02-14T10:29:41Z</time>
      </trkpt>
      <trkpt lat="43.455032" lon="-5.5866375">
        <ele>526.0</ele>
        <time>2021-02-14T10:29:42Z</time>
      </trkpt>
      <trkpt lat="43.455036" lon="-5.586631">
        <ele>526.0</ele>
        <time>2021-02-14T10:29:43Z</time>
      </trkpt>
      <trkpt lat="43.455036" lon="-5.5866156">
        <ele>526.0</ele>
        <time>2021-02-14T10:29:45Z</time>
      </trkpt>
      <trkpt lat="43.455044" lon="-5.586613">
        <ele>526.0</ele>
        <time>2021-02-14T10:29:46Z</time>
      </trkpt>
      <trkpt lat="43.455048" lon="-5.586606">
        <ele>526.0</ele>
        <time>2021-02-14T10:29:47Z</time>
      </trkpt>
      <trkpt lat="43.455063" lon="-5.5865965">
        <ele>526.0</ele>
        <time>2021-02-14T10:29:48Z</time>
      </trkpt>
      <trkpt lat="43.45508" lon="-5.586584">
        <ele>527.0</ele>
        <time>2021-02-14T10:29:49Z</time>
      </trkpt>
      <trkpt lat="43.45509" lon="-5.586574">
        <ele>527.0</ele>
        <time>2021-02-14T10:29:50Z</time>
      </trkpt>
      <trkpt lat="43.455105" lon="-5.586564">
        <ele>527.0</ele>
        <time>2021-02-14T10:29:51Z</time>
      </trkpt>
      <trkpt lat="43.45511" lon="-5.5865536">
        <ele>527.0</ele>
        <time>2021-02-14T10:29:52Z</time>
      </trkpt>
      <trkpt lat="43.455112" lon="-5.5865455">
        <ele>527.0</ele>
        <time>2021-02-14T10:29:53Z</time>
      </trkpt>
      <trkpt lat="43.455112" lon="-5.5865383">
        <ele>527.0</ele>
        <time>2021-02-14T10:29:54Z</time>
      </trkpt>
      <trkpt lat="43.455112" lon="-5.5865297">
        <ele>527.0</ele>
        <time>2021-02-14T10:29:55Z</time>
      </trkpt>
      <trkpt lat="43.455112" lon="-5.586523">
        <ele>527.0</ele>
        <time>2021-02-14T10:29:56Z</time>
      </trkpt>
      <trkpt lat="43.45512" lon="-5.5865154">
        <ele>527.0</ele>
        <time>2021-02-14T10:29:57Z</time>
      </trkpt>
      <trkpt lat="43.455124" lon="-5.5865088">
        <ele>527.0</ele>
        <time>2021-02-14T10:29:58Z</time>
      </trkpt>
      <trkpt lat="43.455128" lon="-5.5865026">
        <ele>527.0</ele>
        <time>2021-02-14T10:30:00Z</time>
      </trkpt>
      <trkpt lat="43.45514" lon="-5.586495">
        <ele>528.0</ele>
        <time>2021-02-14T10:30:00Z</time>
      </trkpt>
      <trkpt lat="43.455147" lon="-5.5864863">
        <ele>528.0</ele>
        <time>2021-02-14T10:30:01Z</time>
      </trkpt>
      <trkpt lat="43.45515" lon="-5.586478">
        <ele>528.0</ele>
        <time>2021-02-14T10:30:02Z</time>
      </trkpt>
      <trkpt lat="43.455162" lon="-5.586469">
        <ele>528.0</ele>
        <time>2021-02-14T10:30:03Z</time>
      </trkpt>
      <trkpt lat="43.455162" lon="-5.5864615">
        <ele>528.0</ele>
        <time>2021-02-14T10:30:04Z</time>
      </trkpt>
      <trkpt lat="43.455166" lon="-5.5864544">
        <ele>528.0</ele>
        <time>2021-02-14T10:30:05Z</time>
      </trkpt>
      <trkpt lat="43.45517" lon="-5.586447">
        <ele>528.0</ele>
        <time>2021-02-14T10:30:06Z</time>
      </trkpt>
      <trkpt lat="43.455177" lon="-5.5864377">
        <ele>529.0</ele>
        <time>2021-02-14T10:30:07Z</time>
      </trkpt>
      <trkpt lat="43.45518" lon="-5.5864286">
        <ele>529.0</ele>
        <time>2021-02-14T10:30:08Z</time>
      </trkpt>
      <trkpt lat="43.455185" lon="-5.5864205">
        <ele>529.0</ele>
        <time>2021-02-14T10:30:09Z</time>
      </trkpt>
      <trkpt lat="43.455196" lon="-5.586413">
        <ele>529.0</ele>
        <time>2021-02-14T10:30:10Z</time>
      </trkpt>
      <trkpt lat="43.455208" lon="-5.586407">
        <ele>529.0</ele>
        <time>2021-02-14T10:30:11Z</time>
      </trkpt>
      <trkpt lat="43.455215" lon="-5.5864015">
        <ele>529.0</ele>
        <time>2021-02-14T10:30:12Z</time>
      </trkpt>
      <trkpt lat="43.455223" lon="-5.5863957">
        <ele>529.0</ele>
        <time>2021-02-14T10:30:13Z</time>
      </trkpt>
      <trkpt lat="43.45523" lon="-5.586389">
        <ele>530.0</ele>
        <time>2021-02-14T10:30:14Z</time>
      </trkpt>
      <trkpt lat="43.45524" lon="-5.586382">
        <ele>530.0</ele>
        <time>2021-02-14T10:30:15Z</time>
      </trkpt>
      <trkpt lat="43.455242" lon="-5.5863743">
        <ele>530.0</ele>
        <time>2021-02-14T10:30:16Z</time>
      </trkpt>
      <trkpt lat="43.455246" lon="-5.5863686">
        <ele>530.0</ele>
        <time>2021-02-14T10:30:17Z</time>
      </trkpt>
      <trkpt lat="43.455257" lon="-5.5863647">
        <ele>530.0</ele>
        <time>2021-02-14T10:30:18Z</time>
      </trkpt>
      <trkpt lat="43.45526" lon="-5.586359">
        <ele>530.0</ele>
        <time>2021-02-14T10:30:19Z</time>
      </trkpt>
      <trkpt lat="43.455273" lon="-5.5863514">
        <ele>530.0</ele>
        <time>2021-02-14T10:30:20Z</time>
      </trkpt>
      <trkpt lat="43.455284" lon="-5.586342">
        <ele>530.0</ele>
        <time>2021-02-14T10:30:21Z</time>
      </trkpt>
      <trkpt lat="43.4553" lon="-5.5863323">
        <ele>531.0</ele>
        <time>2021-02-14T10:30:22Z</time>
      </trkpt>
      <trkpt lat="43.455307" lon="-5.5863237">
        <ele>531.0</ele>
        <time>2021-02-14T10:30:23Z</time>
      </trkpt>
      <trkpt lat="43.455322" lon="-5.586316">
        <ele>531.0</ele>
        <time>2021-02-14T10:30:24Z</time>
      </trkpt>
      <trkpt lat="43.455334" lon="-5.5863066">
        <ele>531.0</ele>
        <time>2021-02-14T10:30:25Z</time>
      </trkpt>
      <trkpt lat="43.45534" lon="-5.586301">
        <ele>531.0</ele>
        <time>2021-02-14T10:30:26Z</time>
      </trkpt>
      <trkpt lat="43.45535" lon="-5.586294">
        <ele>531.0</ele>
        <time>2021-02-14T10:30:27Z</time>
      </trkpt>
      <trkpt lat="43.45536" lon="-5.5862875">
        <ele>531.0</ele>
        <time>2021-02-14T10:30:28Z</time>
      </trkpt>
      <trkpt lat="43.455364" lon="-5.5862823">
        <ele>531.0</ele>
        <time>2021-02-14T10:30:29Z</time>
      </trkpt>
      <trkpt lat="43.455376" lon="-5.5862765">
        <ele>531.0</ele>
        <time>2021-02-14T10:30:30Z</time>
      </trkpt>
      <trkpt lat="43.455387" lon="-5.5862727">
        <ele>531.0</ele>
        <time>2021-02-14T10:30:31Z</time>
      </trkpt>
      <trkpt lat="43.455395" lon="-5.586266">
        <ele>531.0</ele>
        <time>2021-02-14T10:30:32Z</time>
      </trkpt>
      <trkpt lat="43.455406" lon="-5.586262">
        <ele>531.0</ele>
        <time>2021-02-14T10:30:33Z</time>
      </trkpt>
      <trkpt lat="43.45542" lon="-5.586258">
        <ele>531.0</ele>
        <time>2021-02-14T10:30:34Z</time>
      </trkpt>
      <trkpt lat="43.455433" lon="-5.586252">
        <ele>531.0</ele>
        <time>2021-02-14T10:30:35Z</time>
      </trkpt>
      <trkpt lat="43.45544" lon="-5.5862455">
        <ele>532.0</ele>
        <time>2021-02-14T10:30:36Z</time>
      </trkpt>
      <trkpt lat="43.45545" lon="-5.5862374">
        <ele>532.0</ele>
        <time>2021-02-14T10:30:37Z</time>
      </trkpt>
      <trkpt lat="43.455456" lon="-5.586228">
        <ele>532.0</ele>
        <time>2021-02-14T10:30:38Z</time>
      </trkpt>
      <trkpt lat="43.455463" lon="-5.5862193">
        <ele>532.0</ele>
        <time>2021-02-14T10:30:39Z</time>
      </trkpt>
      <trkpt lat="43.45547" lon="-5.586215">
        <ele>532.0</ele>
        <time>2021-02-14T10:30:40Z</time>
      </trkpt>
      <trkpt lat="43.45548" lon="-5.586211">
        <ele>532.0</ele>
        <time>2021-02-14T10:30:41Z</time>
      </trkpt>
      <trkpt lat="43.455486" lon="-5.5862093">
        <ele>532.0</ele>
        <time>2021-02-14T10:30:42Z</time>
      </trkpt>
      <trkpt lat="43.455498" lon="-5.586207">
        <ele>532.0</ele>
        <time>2021-02-14T10:30:43Z</time>
      </trkpt>
      <trkpt lat="43.4555" lon="-5.5862036">
        <ele>532.0</ele>
        <time>2021-02-14T10:30:44Z</time>
      </trkpt>
      <trkpt lat="43.455513" lon="-5.5861998">
        <ele>533.0</ele>
        <time>2021-02-14T10:30:45Z</time>
      </trkpt>
      <trkpt lat="43.455524" lon="-5.586196">
        <ele>533.0</ele>
        <time>2021-02-14T10:30:46Z</time>
      </trkpt>
      <trkpt lat="43.455536" lon="-5.586192">
        <ele>533.0</ele>
        <time>2021-02-14T10:30:47Z</time>
      </trkpt>
      <trkpt lat="43.455544" lon="-5.586191">
        <ele>533.0</ele>
        <time>2021-02-14T10:30:48Z</time>
      </trkpt>
      <trkpt lat="43.45556" lon="-5.586194">
        <ele>533.0</ele>
        <time>2021-02-14T10:30:49Z</time>
      </trkpt>
      <trkpt lat="43.455566" lon="-5.586196">
        <ele>533.0</ele>
        <time>2021-02-14T10:30:50Z</time>
      </trkpt>
      <trkpt lat="43.455574" lon="-5.5861945">
        <ele>533.0</ele>
        <time>2021-02-14T10:30:51Z</time>
      </trkpt>
      <trkpt lat="43.455585" lon="-5.586193">
        <ele>534.0</ele>
        <time>2021-02-14T10:30:52Z</time>
      </trkpt>
      <trkpt lat="43.455597" lon="-5.586193">
        <ele>534.0</ele>
        <time>2021-02-14T10:30:53Z</time>
      </trkpt>
      <trkpt lat="43.455605" lon="-5.586194">
        <ele>534.0</ele>
        <time>2021-02-14T10:30:53Z</time>
      </trkpt>
      <trkpt lat="43.455616" lon="-5.586196">
        <ele>534.0</ele>
        <time>2021-02-14T10:30:54Z</time>
      </trkpt>
      <trkpt lat="43.455627" lon="-5.5861983">
        <ele>534.0</ele>
        <time>2021-02-14T10:30:55Z</time>
      </trkpt>
      <trkpt lat="43.455635" lon="-5.586201">
        <ele>535.0</ele>
        <time>2021-02-14T10:30:56Z</time>
      </trkpt>
      <trkpt lat="43.455647" lon="-5.586204">
        <ele>535.0</ele>
        <time>2021-02-14T10:30:57Z</time>
      </trkpt>
      <trkpt lat="43.455658" lon="-5.5862055">
        <ele>535.0</ele>
        <time>2021-02-14T10:30:58Z</time>
      </trkpt>
      <trkpt lat="43.455666" lon="-5.586206">
        <ele>535.0</ele>
        <time>2021-02-14T10:30:59Z</time>
      </trkpt>
      <trkpt lat="43.455677" lon="-5.5862055">
        <ele>535.0</ele>
        <time>2021-02-14T10:31:00Z</time>
      </trkpt>
      <trkpt lat="43.455692" lon="-5.586204">
        <ele>536.0</ele>
        <time>2021-02-14T10:31:01Z</time>
      </trkpt>
      <trkpt lat="43.455704" lon="-5.5862017">
        <ele>536.0</ele>
        <time>2021-02-14T10:31:02Z</time>
      </trkpt>
      <trkpt lat="43.455708" lon="-5.5861998">
        <ele>536.0</ele>
        <time>2021-02-14T10:31:03Z</time>
      </trkpt>
      <trkpt lat="43.45572" lon="-5.586198">
        <ele>536.0</ele>
        <time>2021-02-14T10:31:04Z</time>
      </trkpt>
      <trkpt lat="43.455723" lon="-5.586197">
        <ele>536.0</ele>
        <time>2021-02-14T10:31:05Z</time>
      </trkpt>
      <trkpt lat="43.455734" lon="-5.586198">
        <ele>536.0</ele>
        <time>2021-02-14T10:31:06Z</time>
      </trkpt>
      <trkpt lat="43.455753" lon="-5.586198">
        <ele>537.0</ele>
        <time>2021-02-14T10:31:11Z</time>
      </trkpt>
      <trkpt lat="43.455753" lon="-5.586197">
        <ele>537.0</ele>
        <time>2021-02-14T10:31:12Z</time>
      </trkpt>
      <trkpt lat="43.45576" lon="-5.586198">
        <ele>537.0</ele>
        <time>2021-02-14T10:31:13Z</time>
      </trkpt>
      <trkpt lat="43.455776" lon="-5.586198">
        <ele>537.0</ele>
        <time>2021-02-14T10:31:15Z</time>
      </trkpt>
      <trkpt lat="43.455776" lon="-5.586197">
        <ele>537.0</ele>
        <time>2021-02-14T10:31:16Z</time>
      </trkpt>
      <trkpt lat="43.455776" lon="-5.586196">
        <ele>537.0</ele>
        <time>2021-02-14T10:31:17Z</time>
      </trkpt>
      <trkpt lat="43.45578" lon="-5.586194">
        <ele>537.0</ele>
        <time>2021-02-14T10:31:18Z</time>
      </trkpt>
      <trkpt lat="43.45579" lon="-5.58619">
        <ele>537.0</ele>
        <time>2021-02-14T10:31:19Z</time>
      </trkpt>
      <trkpt lat="43.455795" lon="-5.586185">
        <ele>538.0</ele>
        <time>2021-02-14T10:31:20Z</time>
      </trkpt>
      <trkpt lat="43.455807" lon="-5.5861807">
        <ele>538.0</ele>
        <time>2021-02-14T10:31:21Z</time>
      </trkpt>
      <trkpt lat="43.45581" lon="-5.586176">
        <ele>538.0</ele>
        <time>2021-02-14T10:31:22Z</time>
      </trkpt>
      <trkpt lat="43.455814" lon="-5.5861707">
        <ele>538.0</ele>
        <time>2021-02-14T10:31:23Z</time>
      </trkpt>
      <trkpt lat="43.455822" lon="-5.586165">
        <ele>538.0</ele>
        <time>2021-02-14T10:31:24Z</time>
      </trkpt>
      <trkpt lat="43.455826" lon="-5.586159">
        <ele>539.0</ele>
        <time>2021-02-14T10:31:25Z</time>
      </trkpt>
      <trkpt lat="43.45583" lon="-5.5861545">
        <ele>539.0</ele>
        <time>2021-02-14T10:31:26Z</time>
      </trkpt>
      <trkpt lat="43.45584" lon="-5.58615">
        <ele>539.0</ele>
        <time>2021-02-14T10:31:27Z</time>
      </trkpt>
      <trkpt lat="43.455845" lon="-5.586148">
        <ele>539.0</ele>
        <time>2021-02-14T10:31:28Z</time>
      </trkpt>
      <trkpt lat="43.455853" lon="-5.586146">
        <ele>540.0</ele>
        <time>2021-02-14T10:31:29Z</time>
      </trkpt>
      <trkpt lat="43.455856" lon="-5.5861425">
        <ele>540.0</ele>
        <time>2021-02-14T10:31:30Z</time>
      </trkpt>
      <trkpt lat="43.45586" lon="-5.5861382">
        <ele>540.0</ele>
        <time>2021-02-14T10:31:31Z</time>
      </trkpt>
      <trkpt lat="43.45587" lon="-5.586133">
        <ele>540.0</ele>
        <time>2021-02-14T10:31:32Z</time>
      </trkpt>
      <trkpt lat="43.455883" lon="-5.586127">
        <ele>541.0</ele>
        <time>2021-02-14T10:31:33Z</time>
      </trkpt>
      <trkpt lat="43.45589" lon="-5.586122">
        <ele>541.0</ele>
        <time>2021-02-14T10:31:34Z</time>
      </trkpt>
      <trkpt lat="43.4559" lon="-5.5861163">
        <ele>541.0</ele>
        <time>2021-02-14T10:31:35Z</time>
      </trkpt>
      <trkpt lat="43.45591" lon="-5.5861115">
        <ele>541.0</ele>
        <time>2021-02-14T10:31:36Z</time>
      </trkpt>
      <trkpt lat="43.455914" lon="-5.5861077">
        <ele>541.0</ele>
        <time>2021-02-14T10:31:37Z</time>
      </trkpt>
      <trkpt lat="43.455917" lon="-5.5861044">
        <ele>542.0</ele>
        <time>2021-02-14T10:31:38Z</time>
      </trkpt>
      <trkpt lat="43.45593" lon="-5.5861006">
        <ele>542.0</ele>
        <time>2021-02-14T10:31:39Z</time>
      </trkpt>
      <trkpt lat="43.455944" lon="-5.5860915">
        <ele>542.0</ele>
        <time>2021-02-14T10:31:41Z</time>
      </trkpt>
      <trkpt lat="43.455944" lon="-5.58609">
        <ele>542.0</ele>
        <time>2021-02-14T10:31:42Z</time>
      </trkpt>
      <trkpt lat="43.45594" lon="-5.586087">
        <ele>542.0</ele>
        <time>2021-02-14T10:31:43Z</time>
      </trkpt>
      <trkpt lat="43.45594" lon="-5.586082">
        <ele>542.0</ele>
        <time>2021-02-14T10:31:44Z</time>
      </trkpt>
      <trkpt lat="43.455933" lon="-5.5860744">
        <ele>542.0</ele>
        <time>2021-02-14T10:31:45Z</time>
      </trkpt>
      <trkpt lat="43.455933" lon="-5.5860677">
        <ele>542.0</ele>
        <time>2021-02-14T10:31:46Z</time>
      </trkpt>
      <trkpt lat="43.455933" lon="-5.586048">
        <ele>542.0</ele>
        <time>2021-02-14T10:31:48Z</time>
      </trkpt>
      <trkpt lat="43.455933" lon="-5.586046">
        <ele>543.0</ele>
        <time>2021-02-14T10:31:49Z</time>
      </trkpt>
      <trkpt lat="43.45594" lon="-5.5860434">
        <ele>543.0</ele>
        <time>2021-02-14T10:31:50Z</time>
      </trkpt>
      <trkpt lat="43.455944" lon="-5.5860405">
        <ele>543.0</ele>
        <time>2021-02-14T10:31:51Z</time>
      </trkpt>
      <trkpt lat="43.455944" lon="-5.5860357">
        <ele>543.0</ele>
        <time>2021-02-14T10:31:52Z</time>
      </trkpt>
      <trkpt lat="43.455956" lon="-5.5860305">
        <ele>544.0</ele>
        <time>2021-02-14T10:31:53Z</time>
      </trkpt>
      <trkpt lat="43.45596" lon="-5.586026">
        <ele>544.0</ele>
        <time>2021-02-14T10:31:54Z</time>
      </trkpt>
      <trkpt lat="43.45597" lon="-5.5860205">
        <ele>544.0</ele>
        <time>2021-02-14T10:31:55Z</time>
      </trkpt>
      <trkpt lat="43.455986" lon="-5.5860133">
        <ele>544.0</ele>
        <time>2021-02-14T10:31:56Z</time>
      </trkpt>
      <trkpt lat="43.456" lon="-5.586006">
        <ele>544.0</ele>
        <time>2021-02-14T10:31:57Z</time>
      </trkpt>
      <trkpt lat="43.45601" lon="-5.5859995">
        <ele>545.0</ele>
        <time>2021-02-14T10:31:58Z</time>
      </trkpt>
      <trkpt lat="43.456024" lon="-5.585993">
        <ele>545.0</ele>
        <time>2021-02-14T10:31:59Z</time>
      </trkpt>
      <trkpt lat="43.456036" lon="-5.585987">
        <ele>545.0</ele>
        <time>2021-02-14T10:32:00Z</time>
      </trkpt>
      <trkpt lat="43.45604" lon="-5.585982">
        <ele>545.0</ele>
        <time>2021-02-14T10:32:01Z</time>
      </trkpt>
      <trkpt lat="43.45605" lon="-5.5859756">
        <ele>545.0</ele>
        <time>2021-02-14T10:32:02Z</time>
      </trkpt>
      <trkpt lat="43.456062" lon="-5.5859694">
        <ele>545.0</ele>
        <time>2021-02-14T10:32:03Z</time>
      </trkpt>
      <trkpt lat="43.45607" lon="-5.585963">
        <ele>546.0</ele>
        <time>2021-02-14T10:32:04Z</time>
      </trkpt>
      <trkpt lat="43.45608" lon="-5.5859566">
        <ele>546.0</ele>
        <time>2021-02-14T10:32:05Z</time>
      </trkpt>
      <trkpt lat="43.456093" lon="-5.585949">
        <ele>546.0</ele>
        <time>2021-02-14T10:32:06Z</time>
      </trkpt>
      <trkpt lat="43.45611" lon="-5.5859404">
        <ele>546.0</ele>
        <time>2021-02-14T10:32:07Z</time>
      </trkpt>
      <trkpt lat="43.45612" lon="-5.5859346">
        <ele>546.0</ele>
        <time>2021-02-14T10:32:08Z</time>
      </trkpt>
      <trkpt lat="43.456123" lon="-5.585929">
        <ele>546.0</ele>
        <time>2021-02-14T10:32:09Z</time>
      </trkpt>
      <trkpt lat="43.456135" lon="-5.5859237">
        <ele>547.0</ele>
        <time>2021-02-14T10:32:10Z</time>
      </trkpt>
      <trkpt lat="43.456142" lon="-5.5859194">
        <ele>547.0</ele>
        <time>2021-02-14T10:32:11Z</time>
      </trkpt>
      <trkpt lat="43.456154" lon="-5.5859137">
        <ele>547.0</ele>
        <time>2021-02-14T10:32:12Z</time>
      </trkpt>
      <trkpt lat="43.456165" lon="-5.5859084">
        <ele>547.0</ele>
        <time>2021-02-14T10:32:13Z</time>
      </trkpt>
      <trkpt lat="43.45617" lon="-5.585903">
        <ele>547.0</ele>
        <time>2021-02-14T10:32:14Z</time>
      </trkpt>
      <trkpt lat="43.45618" lon="-5.585897">
        <ele>547.0</ele>
        <time>2021-02-14T10:32:15Z</time>
      </trkpt>
      <trkpt lat="43.45619" lon="-5.5858917">
        <ele>548.0</ele>
        <time>2021-02-14T10:32:16Z</time>
      </trkpt>
      <trkpt lat="43.45619" lon="-5.585887">
        <ele>548.0</ele>
        <time>2021-02-14T10:32:17Z</time>
      </trkpt>
      <trkpt lat="43.456203" lon="-5.5858808">
        <ele>548.0</ele>
        <time>2021-02-14T10:32:18Z</time>
      </trkpt>
      <trkpt lat="43.45622" lon="-5.5858746">
        <ele>548.0</ele>
        <time>2021-02-14T10:32:19Z</time>
      </trkpt>
      <trkpt lat="43.456245" lon="-5.5858693">
        <ele>548.0</ele>
        <time>2021-02-14T10:32:20Z</time>
      </trkpt>
      <trkpt lat="43.456272" lon="-5.585863">
        <ele>548.0</ele>
        <time>2021-02-14T10:32:21Z</time>
      </trkpt>
      <trkpt lat="43.456287" lon="-5.585856">
        <ele>548.0</ele>
        <time>2021-02-14T10:32:22Z</time>
      </trkpt>
      <trkpt lat="43.456303" lon="-5.585848">
        <ele>549.0</ele>
        <time>2021-02-14T10:32:23Z</time>
      </trkpt>
      <trkpt lat="43.456306" lon="-5.5858393">
        <ele>549.0</ele>
        <time>2021-02-14T10:32:24Z</time>
      </trkpt>
      <trkpt lat="43.456318" lon="-5.5858297">
        <ele>549.0</ele>
        <time>2021-02-14T10:32:25Z</time>
      </trkpt>
      <trkpt lat="43.45632" lon="-5.58582">
        <ele>549.0</ele>
        <time>2021-02-14T10:32:26Z</time>
      </trkpt>
      <trkpt lat="43.45633" lon="-5.5858107">
        <ele>549.0</ele>
        <time>2021-02-14T10:32:27Z</time>
      </trkpt>
      <trkpt lat="43.456337" lon="-5.5858016">
        <ele>549.0</ele>
        <time>2021-02-14T10:32:28Z</time>
      </trkpt>
      <trkpt lat="43.456345" lon="-5.585794">
        <ele>550.0</ele>
        <time>2021-02-14T10:32:29Z</time>
      </trkpt>
      <trkpt lat="43.456352" lon="-5.585787">
        <ele>550.0</ele>
        <time>2021-02-14T10:32:30Z</time>
      </trkpt>
      <trkpt lat="43.456364" lon="-5.5857797">
        <ele>550.0</ele>
        <time>2021-02-14T10:32:31Z</time>
      </trkpt>
      <trkpt lat="43.456367" lon="-5.585774">
        <ele>550.0</ele>
        <time>2021-02-14T10:32:32Z</time>
      </trkpt>
      <trkpt lat="43.45638" lon="-5.5857673">
        <ele>550.0</ele>
        <time>2021-02-14T10:32:33Z</time>
      </trkpt>
      <trkpt lat="43.456383" lon="-5.585759">
        <ele>550.0</ele>
        <time>2021-02-14T10:32:34Z</time>
      </trkpt>
      <trkpt lat="43.45639" lon="-5.5857506">
        <ele>550.0</ele>
        <time>2021-02-14T10:32:35Z</time>
      </trkpt>
      <trkpt lat="43.456398" lon="-5.5857406">
        <ele>550.0</ele>
        <time>2021-02-14T10:32:36Z</time>
      </trkpt>
      <trkpt lat="43.456406" lon="-5.585734">
        <ele>550.0</ele>
        <time>2021-02-14T10:32:37Z</time>
      </trkpt>
      <trkpt lat="43.456413" lon="-5.585725">
        <ele>550.0</ele>
        <time>2021-02-14T10:32:38Z</time>
      </trkpt>
      <trkpt lat="43.45643" lon="-5.5857105">
        <ele>550.0</ele>
        <time>2021-02-14T10:32:39Z</time>
      </trkpt>
      <trkpt lat="43.456436" lon="-5.585698">
        <ele>550.0</ele>
        <time>2021-02-14T10:32:40Z</time>
      </trkpt>
      <trkpt lat="43.456444" lon="-5.5856843">
        <ele>551.0</ele>
        <time>2021-02-14T10:32:41Z</time>
      </trkpt>
      <trkpt lat="43.456455" lon="-5.585672">
        <ele>551.0</ele>
        <time>2021-02-14T10:32:42Z</time>
      </trkpt>
      <trkpt lat="43.45646" lon="-5.5856576">
        <ele>551.0</ele>
        <time>2021-02-14T10:32:43Z</time>
      </trkpt>
      <trkpt lat="43.456467" lon="-5.5856414">
        <ele>551.0</ele>
        <time>2021-02-14T10:32:44Z</time>
      </trkpt>
      <trkpt lat="43.45647" lon="-5.5856276">
        <ele>551.0</ele>
        <time>2021-02-14T10:32:45Z</time>
      </trkpt>
      <trkpt lat="43.456482" lon="-5.5856185">
        <ele>551.0</ele>
        <time>2021-02-14T10:32:46Z</time>
      </trkpt>
      <trkpt lat="43.456486" lon="-5.585611">
        <ele>552.0</ele>
        <time>2021-02-14T10:32:47Z</time>
      </trkpt>
      <trkpt lat="43.456497" lon="-5.585609">
        <ele>552.0</ele>
        <time>2021-02-14T10:32:48Z</time>
      </trkpt>
      <trkpt lat="43.4565" lon="-5.585609">
        <ele>552.0</ele>
        <time>2021-02-14T10:32:49Z</time>
      </trkpt>
      <trkpt lat="43.45651" lon="-5.5856085">
        <ele>552.0</ele>
        <time>2021-02-14T10:32:50Z</time>
      </trkpt>
      <trkpt lat="43.456516" lon="-5.585607">
        <ele>553.0</ele>
        <time>2021-02-14T10:32:51Z</time>
      </trkpt>
      <trkpt lat="43.456524" lon="-5.5856056">
        <ele>553.0</ele>
        <time>2021-02-14T10:32:52Z</time>
      </trkpt>
      <trkpt lat="43.456528" lon="-5.5856037">
        <ele>553.0</ele>
        <time>2021-02-14T10:32:53Z</time>
      </trkpt>
      <trkpt lat="43.45653" lon="-5.5856037">
        <ele>553.0</ele>
        <time>2021-02-14T10:32:54Z</time>
      </trkpt>
      <trkpt lat="43.45654" lon="-5.585603">
        <ele>553.0</ele>
        <time>2021-02-14T10:32:55Z</time>
      </trkpt>
      <trkpt lat="43.456543" lon="-5.5856037">
        <ele>553.0</ele>
        <time>2021-02-14T10:32:56Z</time>
      </trkpt>
      <trkpt lat="43.456554" lon="-5.5856037">
        <ele>553.0</ele>
        <time>2021-02-14T10:32:57Z</time>
      </trkpt>
      <trkpt lat="43.45656" lon="-5.5856028">
        <ele>554.0</ele>
        <time>2021-02-14T10:32:58Z</time>
      </trkpt>
      <trkpt lat="43.45657" lon="-5.585599">
        <ele>554.0</ele>
        <time>2021-02-14T10:32:59Z</time>
      </trkpt>
      <trkpt lat="43.456573" lon="-5.5855956">
        <ele>554.0</ele>
        <time>2021-02-14T10:33:00Z</time>
      </trkpt>
      <trkpt lat="43.456577" lon="-5.585592">
        <ele>554.0</ele>
        <time>2021-02-14T10:33:01Z</time>
      </trkpt>
      <trkpt lat="43.45659" lon="-5.585588">
        <ele>554.0</ele>
        <time>2021-02-14T10:33:02Z</time>
      </trkpt>
      <trkpt lat="43.4566" lon="-5.585585">
        <ele>554.0</ele>
        <time>2021-02-14T10:33:03Z</time>
      </trkpt>
      <trkpt lat="43.456608" lon="-5.5855823">
        <ele>555.0</ele>
        <time>2021-02-14T10:33:04Z</time>
      </trkpt>
      <trkpt lat="43.45662" lon="-5.585579">
        <ele>555.0</ele>
        <time>2021-02-14T10:33:05Z</time>
      </trkpt>
      <trkpt lat="43.456635" lon="-5.585575">
        <ele>555.0</ele>
        <time>2021-02-14T10:33:06Z</time>
      </trkpt>
      <trkpt lat="43.456646" lon="-5.58557">
        <ele>555.0</ele>
        <time>2021-02-14T10:33:07Z</time>
      </trkpt>
      <trkpt lat="43.45666" lon="-5.5855627">
        <ele>555.0</ele>
        <time>2021-02-14T10:33:08Z</time>
      </trkpt>
      <trkpt lat="43.45667" lon="-5.585554">
        <ele>555.0</ele>
        <time>2021-02-14T10:33:09Z</time>
      </trkpt>
      <trkpt lat="43.45668" lon="-5.585545">
        <ele>555.0</ele>
        <time>2021-02-14T10:33:10Z</time>
      </trkpt>
      <trkpt lat="43.456696" lon="-5.585536">
        <ele>556.0</ele>
        <time>2021-02-14T10:33:11Z</time>
      </trkpt>
      <trkpt lat="43.456707" lon="-5.5855265">
        <ele>556.0</ele>
        <time>2021-02-14T10:33:12Z</time>
      </trkpt>
      <trkpt lat="43.45672" lon="-5.585517">
        <ele>556.0</ele>
        <time>2021-02-14T10:33:13Z</time>
      </trkpt>
      <trkpt lat="43.456734" lon="-5.5855093">
        <ele>556.0</ele>
        <time>2021-02-14T10:33:14Z</time>
      </trkpt>
      <trkpt lat="43.456738" lon="-5.5855026">
        <ele>556.0</ele>
        <time>2021-02-14T10:33:15Z</time>
      </trkpt>
      <trkpt lat="43.45674" lon="-5.585497">
        <ele>556.0</ele>
        <time>2021-02-14T10:33:16Z</time>
      </trkpt>
      <trkpt lat="43.45675" lon="-5.585491">
        <ele>556.0</ele>
        <time>2021-02-14T10:33:17Z</time>
      </trkpt>
      <trkpt lat="43.45675" lon="-5.585486">
        <ele>556.0</ele>
        <time>2021-02-14T10:33:18Z</time>
      </trkpt>
      <trkpt lat="43.456753" lon="-5.585481">
        <ele>556.0</ele>
        <time>2021-02-14T10:33:19Z</time>
      </trkpt>
      <trkpt lat="43.456764" lon="-5.585474">
        <ele>556.0</ele>
        <time>2021-02-14T10:33:20Z</time>
      </trkpt>
      <trkpt lat="43.456768" lon="-5.585469">
        <ele>556.0</ele>
        <time>2021-02-14T10:33:21Z</time>
      </trkpt>
      <trkpt lat="43.45678" lon="-5.5854654">
        <ele>556.0</ele>
        <time>2021-02-14T10:33:22Z</time>
      </trkpt>
      <trkpt lat="43.456783" lon="-5.5854616">
        <ele>556.0</ele>
        <time>2021-02-14T10:33:23Z</time>
      </trkpt>
      <trkpt lat="43.456787" lon="-5.585459">
        <ele>556.0</ele>
        <time>2021-02-14T10:33:24Z</time>
      </trkpt>
      <trkpt lat="43.456795" lon="-5.585458">
        <ele>557.0</ele>
        <time>2021-02-14T10:33:25Z</time>
      </trkpt>
      <trkpt lat="43.4568" lon="-5.585455">
        <ele>557.0</ele>
        <time>2021-02-14T10:33:26Z</time>
      </trkpt>
      <trkpt lat="43.456802" lon="-5.5854497">
        <ele>557.0</ele>
        <time>2021-02-14T10:33:27Z</time>
      </trkpt>
      <trkpt lat="43.45681" lon="-5.5854406">
        <ele>557.0</ele>
        <time>2021-02-14T10:33:28Z</time>
      </trkpt>
      <trkpt lat="43.456818" lon="-5.585431">
        <ele>557.0</ele>
        <time>2021-02-14T10:33:29Z</time>
      </trkpt>
      <trkpt lat="43.456825" lon="-5.5854235">
        <ele>557.0</ele>
        <time>2021-02-14T10:33:30Z</time>
      </trkpt>
      <trkpt lat="43.456833" lon="-5.585417">
        <ele>557.0</ele>
        <time>2021-02-14T10:33:31Z</time>
      </trkpt>
      <trkpt lat="43.456844" lon="-5.585411">
        <ele>557.0</ele>
        <time>2021-02-14T10:33:32Z</time>
      </trkpt>
      <trkpt lat="43.456856" lon="-5.585405">
        <ele>557.0</ele>
        <time>2021-02-14T10:33:33Z</time>
      </trkpt>
      <trkpt lat="43.45686" lon="-5.5853963">
        <ele>557.0</ele>
        <time>2021-02-14T10:33:34Z</time>
      </trkpt>
      <trkpt lat="43.456863" lon="-5.5853868">
        <ele>557.0</ele>
        <time>2021-02-14T10:33:35Z</time>
      </trkpt>
      <trkpt lat="43.456875" lon="-5.585379">
        <ele>558.0</ele>
        <time>2021-02-14T10:33:36Z</time>
      </trkpt>
      <trkpt lat="43.456886" lon="-5.585372">
        <ele>558.0</ele>
        <time>2021-02-14T10:33:37Z</time>
      </trkpt>
      <trkpt lat="43.456898" lon="-5.5853653">
        <ele>558.0</ele>
        <time>2021-02-14T10:33:38Z</time>
      </trkpt>
      <trkpt lat="43.456905" lon="-5.5853596">
        <ele>558.0</ele>
        <time>2021-02-14T10:33:39Z</time>
      </trkpt>
      <trkpt lat="43.456917" lon="-5.585355">
        <ele>558.0</ele>
        <time>2021-02-14T10:33:40Z</time>
      </trkpt>
      <trkpt lat="43.45693" lon="-5.585351">
        <ele>558.0</ele>
        <time>2021-02-14T10:33:41Z</time>
      </trkpt>
      <trkpt lat="43.456936" lon="-5.585347">
        <ele>558.0</ele>
        <time>2021-02-14T10:33:42Z</time>
      </trkpt>
      <trkpt lat="43.456944" lon="-5.5853434">
        <ele>558.0</ele>
        <time>2021-02-14T10:33:43Z</time>
      </trkpt>
      <trkpt lat="43.45695" lon="-5.58534">
        <ele>558.0</ele>
        <time>2021-02-14T10:33:44Z</time>
      </trkpt>
      <trkpt lat="43.45696" lon="-5.5853343">
        <ele>558.0</ele>
        <time>2021-02-14T10:33:45Z</time>
      </trkpt>
      <trkpt lat="43.456963" lon="-5.585326">
        <ele>558.0</ele>
        <time>2021-02-14T10:33:46Z</time>
      </trkpt>
      <trkpt lat="43.456974" lon="-5.585319">
        <ele>558.0</ele>
        <time>2021-02-14T10:33:47Z</time>
      </trkpt>
      <trkpt lat="43.456974" lon="-5.5853133">
        <ele>558.0</ele>
        <time>2021-02-14T10:33:48Z</time>
      </trkpt>
      <trkpt lat="43.45698" lon="-5.5853095">
        <ele>558.0</ele>
        <time>2021-02-14T10:33:49Z</time>
      </trkpt>
      <trkpt lat="43.45699" lon="-5.5853057">
        <ele>558.0</ele>
        <time>2021-02-14T10:33:50Z</time>
      </trkpt>
      <trkpt lat="43.456993" lon="-5.585299">
        <ele>558.0</ele>
        <time>2021-02-14T10:33:51Z</time>
      </trkpt>
      <trkpt lat="43.457005" lon="-5.5852933">
        <ele>558.0</ele>
        <time>2021-02-14T10:33:52Z</time>
      </trkpt>
      <trkpt lat="43.457012" lon="-5.585287">
        <ele>558.0</ele>
        <time>2021-02-14T10:33:53Z</time>
      </trkpt>
      <trkpt lat="43.457024" lon="-5.5852804">
        <ele>558.0</ele>
        <time>2021-02-14T10:33:54Z</time>
      </trkpt>
      <trkpt lat="43.457027" lon="-5.5852737">
        <ele>558.0</ele>
        <time>2021-02-14T10:33:55Z</time>
      </trkpt>
      <trkpt lat="43.457035" lon="-5.585268">
        <ele>558.0</ele>
        <time>2021-02-14T10:33:56Z</time>
      </trkpt>
      <trkpt lat="43.457035" lon="-5.5852594">
        <ele>558.0</ele>
        <time>2021-02-14T10:33:57Z</time>
      </trkpt>
      <trkpt lat="43.45704" lon="-5.5852523">
        <ele>558.0</ele>
        <time>2021-02-14T10:33:58Z</time>
      </trkpt>
      <trkpt lat="43.45704" lon="-5.5852456">
        <ele>558.0</ele>
        <time>2021-02-14T10:33:59Z</time>
      </trkpt>
      <trkpt lat="43.457035" lon="-5.5852327">
        <ele>558.0</ele>
        <time>2021-02-14T10:34:00Z</time>
      </trkpt>
      <trkpt lat="43.457035" lon="-5.5852222">
        <ele>558.0</ele>
        <time>2021-02-14T10:34:01Z</time>
      </trkpt>
      <trkpt lat="43.457027" lon="-5.5852146">
        <ele>558.0</ele>
        <time>2021-02-14T10:34:02Z</time>
      </trkpt>
      <trkpt lat="43.45702" lon="-5.5851955">
        <ele>558.0</ele>
        <time>2021-02-14T10:34:04Z</time>
      </trkpt>
      <trkpt lat="43.457027" lon="-5.5851884">
        <ele>558.0</ele>
        <time>2021-02-14T10:34:06Z</time>
      </trkpt>
      <trkpt lat="43.457027" lon="-5.585186">
        <ele>559.0</ele>
        <time>2021-02-14T10:34:07Z</time>
      </trkpt>
      <trkpt lat="43.457027" lon="-5.585182">
        <ele>559.0</ele>
        <time>2021-02-14T10:34:08Z</time>
      </trkpt>
      <trkpt lat="43.457035" lon="-5.585179">
        <ele>559.0</ele>
        <time>2021-02-14T10:34:09Z</time>
      </trkpt>
      <trkpt lat="43.457035" lon="-5.5851736">
        <ele>559.0</ele>
        <time>2021-02-14T10:34:10Z</time>
      </trkpt>
      <trkpt lat="43.45704" lon="-5.5851655">
        <ele>559.0</ele>
        <time>2021-02-14T10:34:11Z</time>
      </trkpt>
      <trkpt lat="43.457043" lon="-5.585154">
        <ele>560.0</ele>
        <time>2021-02-14T10:34:12Z</time>
      </trkpt>
      <trkpt lat="43.45705" lon="-5.5851426">
        <ele>560.0</ele>
        <time>2021-02-14T10:34:13Z</time>
      </trkpt>
      <trkpt lat="43.457058" lon="-5.58513">
        <ele>560.0</ele>
        <time>2021-02-14T10:34:14Z</time>
      </trkpt>
      <trkpt lat="43.457066" lon="-5.5851154">
        <ele>560.0</ele>
        <time>2021-02-14T10:34:15Z</time>
      </trkpt>
      <trkpt lat="43.457077" lon="-5.5851016">
        <ele>560.0</ele>
        <time>2021-02-14T10:34:16Z</time>
      </trkpt>
      <trkpt lat="43.45708" lon="-5.585089">
        <ele>560.0</ele>
        <time>2021-02-14T10:34:17Z</time>
      </trkpt>
      <trkpt lat="43.457085" lon="-5.5850763">
        <ele>560.0</ele>
        <time>2021-02-14T10:34:18Z</time>
      </trkpt>
      <trkpt lat="43.457085" lon="-5.5850616">
        <ele>560.0</ele>
        <time>2021-02-14T10:34:19Z</time>
      </trkpt>
      <trkpt lat="43.457092" lon="-5.5850434">
        <ele>560.0</ele>
        <time>2021-02-14T10:34:20Z</time>
      </trkpt>
      <trkpt lat="43.457096" lon="-5.5850286">
        <ele>560.0</ele>
        <time>2021-02-14T10:34:21Z</time>
      </trkpt>
      <trkpt lat="43.457096" lon="-5.5850167">
        <ele>561.0</ele>
        <time>2021-02-14T10:34:22Z</time>
      </trkpt>
      <trkpt lat="43.4571" lon="-5.5850034">
        <ele>561.0</ele>
        <time>2021-02-14T10:34:23Z</time>
      </trkpt>
      <trkpt lat="43.457108" lon="-5.584986">
        <ele>561.0</ele>
        <time>2021-02-14T10:34:24Z</time>
      </trkpt>
      <trkpt lat="43.457115" lon="-5.584968">
        <ele>561.0</ele>
        <time>2021-02-14T10:34:25Z</time>
      </trkpt>
      <trkpt lat="43.457115" lon="-5.584949">
        <ele>561.0</ele>
        <time>2021-02-14T10:34:26Z</time>
      </trkpt>
      <trkpt lat="43.457123" lon="-5.5849314">
        <ele>561.0</ele>
        <time>2021-02-14T10:34:27Z</time>
      </trkpt>
      <trkpt lat="43.457127" lon="-5.5849147">
        <ele>561.0</ele>
        <time>2021-02-14T10:34:28Z</time>
      </trkpt>
      <trkpt lat="43.45713" lon="-5.5848975">
        <ele>562.0</ele>
        <time>2021-02-14T10:34:29Z</time>
      </trkpt>
      <trkpt lat="43.457138" lon="-5.584885">
        <ele>562.0</ele>
        <time>2021-02-14T10:34:30Z</time>
      </trkpt>
      <trkpt lat="43.45714" lon="-5.584877">
        <ele>562.0</ele>
        <time>2021-02-14T10:34:31Z</time>
      </trkpt>
      <trkpt lat="43.457146" lon="-5.5848665">
        <ele>562.0</ele>
        <time>2021-02-14T10:34:32Z</time>
      </trkpt>
      <trkpt lat="43.457153" lon="-5.5848565">
        <ele>562.0</ele>
        <time>2021-02-14T10:34:33Z</time>
      </trkpt>
      <trkpt lat="43.457153" lon="-5.584844">
        <ele>562.0</ele>
        <time>2021-02-14T10:34:34Z</time>
      </trkpt>
      <trkpt lat="43.457153" lon="-5.5848308">
        <ele>562.0</ele>
        <time>2021-02-14T10:34:35Z</time>
      </trkpt>
      <trkpt lat="43.457157" lon="-5.5848174">
        <ele>562.0</ele>
        <time>2021-02-14T10:34:36Z</time>
      </trkpt>
      <trkpt lat="43.45717" lon="-5.5848007">
        <ele>562.0</ele>
        <time>2021-02-14T10:34:37Z</time>
      </trkpt>
      <trkpt lat="43.457176" lon="-5.584784">
        <ele>562.0</ele>
        <time>2021-02-14T10:34:38Z</time>
      </trkpt>
      <trkpt lat="43.457184" lon="-5.5847654">
        <ele>562.0</ele>
        <time>2021-02-14T10:34:39Z</time>
      </trkpt>
      <trkpt lat="43.45719" lon="-5.5847473">
        <ele>562.0</ele>
        <time>2021-02-14T10:34:40Z</time>
      </trkpt>
      <trkpt lat="43.45719" lon="-5.584731">
        <ele>562.0</ele>
        <time>2021-02-14T10:34:41Z</time>
      </trkpt>
      <trkpt lat="43.4572" lon="-5.5847173">
        <ele>562.0</ele>
        <time>2021-02-14T10:34:42Z</time>
      </trkpt>
      <trkpt lat="43.457203" lon="-5.5847034">
        <ele>562.0</ele>
        <time>2021-02-14T10:34:43Z</time>
      </trkpt>
      <trkpt lat="43.457207" lon="-5.584691">
        <ele>562.0</ele>
        <time>2021-02-14T10:34:44Z</time>
      </trkpt>
      <trkpt lat="43.45722" lon="-5.5846777">
        <ele>562.0</ele>
        <time>2021-02-14T10:34:45Z</time>
      </trkpt>
      <trkpt lat="43.457222" lon="-5.5846663">
        <ele>562.0</ele>
        <time>2021-02-14T10:34:46Z</time>
      </trkpt>
      <trkpt lat="43.457237" lon="-5.5846534">
        <ele>562.0</ele>
        <time>2021-02-14T10:34:47Z</time>
      </trkpt>
      <trkpt lat="43.457245" lon="-5.5846405">
        <ele>562.0</ele>
        <time>2021-02-14T10:34:48Z</time>
      </trkpt>
      <trkpt lat="43.45725" lon="-5.5846305">
        <ele>562.0</ele>
        <time>2021-02-14T10:34:49Z</time>
      </trkpt>
      <trkpt lat="43.457253" lon="-5.5846195">
        <ele>562.0</ele>
        <time>2021-02-14T10:34:50Z</time>
      </trkpt>
      <trkpt lat="43.457264" lon="-5.584606">
        <ele>562.0</ele>
        <time>2021-02-14T10:34:51Z</time>
      </trkpt>
      <trkpt lat="43.45727" lon="-5.584592">
        <ele>562.0</ele>
        <time>2021-02-14T10:34:52Z</time>
      </trkpt>
      <trkpt lat="43.457275" lon="-5.584581">
        <ele>562.0</ele>
        <time>2021-02-14T10:34:53Z</time>
      </trkpt>
      <trkpt lat="43.45728" lon="-5.5845733">
        <ele>562.0</ele>
        <time>2021-02-14T10:34:54Z</time>
      </trkpt>
      <trkpt lat="43.457287" lon="-5.584561">
        <ele>562.0</ele>
        <time>2021-02-14T10:34:56Z</time>
      </trkpt>
      <trkpt lat="43.45728" lon="-5.584561">
        <ele>562.0</ele>
        <time>2021-02-14T10:34:57Z</time>
      </trkpt>
      <trkpt lat="43.45728" lon="-5.58456">
        <ele>562.0</ele>
        <time>2021-02-14T10:34:58Z</time>
      </trkpt>
      <trkpt lat="43.45728" lon="-5.584561">
        <ele>562.0</ele>
        <time>2021-02-14T10:34:59Z</time>
      </trkpt>
      <trkpt lat="43.457275" lon="-5.584558">
        <ele>562.0</ele>
        <time>2021-02-14T10:35:00Z</time>
      </trkpt>
      <trkpt lat="43.45727" lon="-5.5845556">
        <ele>562.0</ele>
        <time>2021-02-14T10:35:01Z</time>
      </trkpt>
      <trkpt lat="43.45726" lon="-5.584546">
        <ele>562.0</ele>
        <time>2021-02-14T10:35:03Z</time>
      </trkpt>
      <trkpt lat="43.45726" lon="-5.584546">
        <ele>562.0</ele>
        <time>2021-02-14T10:35:04Z</time>
      </trkpt>
      <trkpt lat="43.457264" lon="-5.5845466">
        <ele>562.0</ele>
        <time>2021-02-14T10:35:05Z</time>
      </trkpt>
      <trkpt lat="43.457264" lon="-5.5845466">
        <ele>562.0</ele>
        <time>2021-02-14T10:35:06Z</time>
      </trkpt>
      <trkpt lat="43.45727" lon="-5.584544">
        <ele>562.0</ele>
        <time>2021-02-14T10:35:19Z</time>
      </trkpt>
      <trkpt lat="43.457275" lon="-5.584541">
        <ele>562.0</ele>
        <time>2021-02-14T10:35:20Z</time>
      </trkpt>
      <trkpt lat="43.45728" lon="-5.584534">
        <ele>562.0</ele>
        <time>2021-02-14T10:35:21Z</time>
      </trkpt>
      <trkpt lat="43.457287" lon="-5.584526">
        <ele>562.0</ele>
        <time>2021-02-14T10:35:22Z</time>
      </trkpt>
      <trkpt lat="43.45729" lon="-5.584515">
        <ele>562.0</ele>
        <time>2021-02-14T10:35:23Z</time>
      </trkpt>
      <trkpt lat="43.457302" lon="-5.584504">
        <ele>562.0</ele>
        <time>2021-02-14T10:35:24Z</time>
      </trkpt>
      <trkpt lat="43.457306" lon="-5.5844936">
        <ele>562.0</ele>
        <time>2021-02-14T10:35:25Z</time>
      </trkpt>
      <trkpt lat="43.457317" lon="-5.5844827">
        <ele>562.0</ele>
        <time>2021-02-14T10:35:26Z</time>
      </trkpt>
      <trkpt lat="43.457325" lon="-5.5844736">
        <ele>562.0</ele>
        <time>2021-02-14T10:35:27Z</time>
      </trkpt>
      <trkpt lat="43.45734" lon="-5.5844655">
        <ele>562.0</ele>
        <time>2021-02-14T10:35:28Z</time>
      </trkpt>
      <trkpt lat="43.45735" lon="-5.584459">
        <ele>562.0</ele>
        <time>2021-02-14T10:35:29Z</time>
      </trkpt>
      <trkpt lat="43.457367" lon="-5.5844517">
        <ele>562.0</ele>
        <time>2021-02-14T10:35:30Z</time>
      </trkpt>
      <trkpt lat="43.45738" lon="-5.5844455">
        <ele>562.0</ele>
        <time>2021-02-14T10:35:31Z</time>
      </trkpt>
      <trkpt lat="43.457394" lon="-5.584438">
        <ele>562.0</ele>
        <time>2021-02-14T10:35:32Z</time>
      </trkpt>
      <trkpt lat="43.45741" lon="-5.5844283">
        <ele>562.0</ele>
        <time>2021-02-14T10:35:33Z</time>
      </trkpt>
      <trkpt lat="43.457417" lon="-5.584419">
        <ele>563.0</ele>
        <time>2021-02-14T10:35:34Z</time>
      </trkpt>
      <trkpt lat="43.457428" lon="-5.5844097">
        <ele>563.0</ele>
        <time>2021-02-14T10:35:35Z</time>
      </trkpt>
      <trkpt lat="43.45744" lon="-5.5844007">
        <ele>563.0</ele>
        <time>2021-02-14T10:35:36Z</time>
      </trkpt>
      <trkpt lat="43.45745" lon="-5.5843935">
        <ele>563.0</ele>
        <time>2021-02-14T10:35:37Z</time>
      </trkpt>
      <trkpt lat="43.45746" lon="-5.5843873">
        <ele>563.0</ele>
        <time>2021-02-14T10:35:38Z</time>
      </trkpt>
      <trkpt lat="43.457466" lon="-5.58438">
        <ele>563.0</ele>
        <time>2021-02-14T10:35:39Z</time>
      </trkpt>
      <trkpt lat="43.457474" lon="-5.584371">
        <ele>563.0</ele>
        <time>2021-02-14T10:35:40Z</time>
      </trkpt>
      <trkpt lat="43.45748" lon="-5.5843635">
        <ele>563.0</ele>
        <time>2021-02-14T10:35:41Z</time>
      </trkpt>
      <trkpt lat="43.45749" lon="-5.5843544">
        <ele>563.0</ele>
        <time>2021-02-14T10:35:42Z</time>
      </trkpt>
      <trkpt lat="43.457497" lon="-5.584347">
        <ele>563.0</ele>
        <time>2021-02-14T10:35:43Z</time>
      </trkpt>
      <trkpt lat="43.4575" lon="-5.5843377">
        <ele>563.0</ele>
        <time>2021-02-14T10:35:44Z</time>
      </trkpt>
      <trkpt lat="43.45751" lon="-5.584327">
        <ele>563.0</ele>
        <time>2021-02-14T10:35:45Z</time>
      </trkpt>
      <trkpt lat="43.457516" lon="-5.5843167">
        <ele>563.0</ele>
        <time>2021-02-14T10:35:46Z</time>
      </trkpt>
      <trkpt lat="43.45752" lon="-5.5843067">
        <ele>563.0</ele>
        <time>2021-02-14T10:35:47Z</time>
      </trkpt>
      <trkpt lat="43.45753" lon="-5.584297">
        <ele>563.0</ele>
        <time>2021-02-14T10:35:48Z</time>
      </trkpt>
      <trkpt lat="43.457542" lon="-5.5842886">
        <ele>562.0</ele>
        <time>2021-02-14T10:35:49Z</time>
      </trkpt>
      <trkpt lat="43.45755" lon="-5.5842776">
        <ele>562.0</ele>
        <time>2021-02-14T10:35:50Z</time>
      </trkpt>
      <trkpt lat="43.457565" lon="-5.584266">
        <ele>562.0</ele>
        <time>2021-02-14T10:35:51Z</time>
      </trkpt>
      <trkpt lat="43.457577" lon="-5.5842543">
        <ele>562.0</ele>
        <time>2021-02-14T10:35:52Z</time>
      </trkpt>
      <trkpt lat="43.45759" lon="-5.5842414">
        <ele>562.0</ele>
        <time>2021-02-14T10:35:53Z</time>
      </trkpt>
      <trkpt lat="43.457596" lon="-5.58423">
        <ele>562.0</ele>
        <time>2021-02-14T10:35:54Z</time>
      </trkpt>
      <trkpt lat="43.457607" lon="-5.584219">
        <ele>562.0</ele>
        <time>2021-02-14T10:35:55Z</time>
      </trkpt>
      <trkpt lat="43.45761" lon="-5.5842094">
        <ele>562.0</ele>
        <time>2021-02-14T10:35:56Z</time>
      </trkpt>
      <trkpt lat="43.457623" lon="-5.5842">
        <ele>562.0</ele>
        <time>2021-02-14T10:35:57Z</time>
      </trkpt>
      <trkpt lat="43.457626" lon="-5.5841913">
        <ele>562.0</ele>
        <time>2021-02-14T10:35:58Z</time>
      </trkpt>
      <trkpt lat="43.457638" lon="-5.5841837">
        <ele>562.0</ele>
        <time>2021-02-14T10:35:59Z</time>
      </trkpt>
      <trkpt lat="43.45765" lon="-5.58418">
        <ele>562.0</ele>
        <time>2021-02-14T10:36:00Z</time>
      </trkpt>
      <trkpt lat="43.45766" lon="-5.5841746">
        <ele>562.0</ele>
        <time>2021-02-14T10:36:01Z</time>
      </trkpt>
      <trkpt lat="43.45767" lon="-5.5841684">
        <ele>562.0</ele>
        <time>2021-02-14T10:36:02Z</time>
      </trkpt>
      <trkpt lat="43.45768" lon="-5.58416">
        <ele>562.0</ele>
        <time>2021-02-14T10:36:03Z</time>
      </trkpt>
      <trkpt lat="43.45769" lon="-5.584153">
        <ele>562.0</ele>
        <time>2021-02-14T10:36:04Z</time>
      </trkpt>
      <trkpt lat="43.457706" lon="-5.5841484">
        <ele>562.0</ele>
        <time>2021-02-14T10:36:05Z</time>
      </trkpt>
      <trkpt lat="43.457714" lon="-5.5841446">
        <ele>562.0</ele>
        <time>2021-02-14T10:36:06Z</time>
      </trkpt>
      <trkpt lat="43.457726" lon="-5.5841403">
        <ele>562.0</ele>
        <time>2021-02-14T10:36:07Z</time>
      </trkpt>
      <trkpt lat="43.457737" lon="-5.5841355">
        <ele>562.0</ele>
        <time>2021-02-14T10:36:08Z</time>
      </trkpt>
      <trkpt lat="43.457745" lon="-5.5841293">
        <ele>562.0</ele>
        <time>2021-02-14T10:36:09Z</time>
      </trkpt>
      <trkpt lat="43.457752" lon="-5.5841203">
        <ele>562.0</ele>
        <time>2021-02-14T10:36:10Z</time>
      </trkpt>
      <trkpt lat="43.457756" lon="-5.5841107">
        <ele>562.0</ele>
        <time>2021-02-14T10:36:11Z</time>
      </trkpt>
      <trkpt lat="43.45776" lon="-5.5841017">
        <ele>562.0</ele>
        <time>2021-02-14T10:36:12Z</time>
      </trkpt>
      <trkpt lat="43.45777" lon="-5.584092">
        <ele>562.0</ele>
        <time>2021-02-14T10:36:13Z</time>
      </trkpt>
      <trkpt lat="43.457775" lon="-5.5840826">
        <ele>562.0</ele>
        <time>2021-02-14T10:36:14Z</time>
      </trkpt>
      <trkpt lat="43.457787" lon="-5.584073">
        <ele>562.0</ele>
        <time>2021-02-14T10:36:15Z</time>
      </trkpt>
      <trkpt lat="43.457798" lon="-5.5840635">
        <ele>562.0</ele>
        <time>2021-02-14T10:36:16Z</time>
      </trkpt>
      <trkpt lat="43.457806" lon="-5.584053">
        <ele>562.0</ele>
        <time>2021-02-14T10:36:17Z</time>
      </trkpt>
      <trkpt lat="43.457817" lon="-5.584044">
        <ele>562.0</ele>
        <time>2021-02-14T10:36:18Z</time>
      </trkpt>
      <trkpt lat="43.45783" lon="-5.5840373">
        <ele>562.0</ele>
        <time>2021-02-14T10:36:19Z</time>
      </trkpt>
      <trkpt lat="43.45784" lon="-5.58403">
        <ele>562.0</ele>
        <time>2021-02-14T10:36:20Z</time>
      </trkpt>
      <trkpt lat="43.457848" lon="-5.5840235">
        <ele>562.0</ele>
        <time>2021-02-14T10:36:21Z</time>
      </trkpt>
      <trkpt lat="43.45786" lon="-5.5840173">
        <ele>562.0</ele>
        <time>2021-02-14T10:36:22Z</time>
      </trkpt>
      <trkpt lat="43.45787" lon="-5.584011">
        <ele>562.0</ele>
        <time>2021-02-14T10:36:23Z</time>
      </trkpt>
      <trkpt lat="43.457886" lon="-5.5840054">
        <ele>562.0</ele>
        <time>2021-02-14T10:36:24Z</time>
      </trkpt>
      <trkpt lat="43.45789" lon="-5.583998">
        <ele>562.0</ele>
        <time>2021-02-14T10:36:25Z</time>
      </trkpt>
      <trkpt lat="43.457893" lon="-5.5839896">
        <ele>562.0</ele>
        <time>2021-02-14T10:36:26Z</time>
      </trkpt>
      <trkpt lat="43.4579" lon="-5.583983">
        <ele>562.0</ele>
        <time>2021-02-14T10:36:27Z</time>
      </trkpt>
      <trkpt lat="43.457905" lon="-5.5839744">
        <ele>562.0</ele>
        <time>2021-02-14T10:36:28Z</time>
      </trkpt>
      <trkpt lat="43.45791" lon="-5.5839663">
        <ele>562.0</ele>
        <time>2021-02-14T10:36:29Z</time>
      </trkpt>
      <trkpt lat="43.45792" lon="-5.5839577">
        <ele>562.0</ele>
        <time>2021-02-14T10:36:30Z</time>
      </trkpt>
      <trkpt lat="43.457924" lon="-5.5839496">
        <ele>562.0</ele>
        <time>2021-02-14T10:36:31Z</time>
      </trkpt>
      <trkpt lat="43.457935" lon="-5.583941">
        <ele>562.0</ele>
        <time>2021-02-14T10:36:32Z</time>
      </trkpt>
      <trkpt lat="43.45794" lon="-5.583932">
        <ele>562.0</ele>
        <time>2021-02-14T10:36:33Z</time>
      </trkpt>
      <trkpt lat="43.457947" lon="-5.5839224">
        <ele>562.0</ele>
        <time>2021-02-14T10:36:34Z</time>
      </trkpt>
      <trkpt lat="43.45795" lon="-5.5839124">
        <ele>562.0</ele>
        <time>2021-02-14T10:36:35Z</time>
      </trkpt>
      <trkpt lat="43.457954" lon="-5.5839033">
        <ele>562.0</ele>
        <time>2021-02-14T10:36:36Z</time>
      </trkpt>
      <trkpt lat="43.457962" lon="-5.583895">
        <ele>562.0</ele>
        <time>2021-02-14T10:36:37Z</time>
      </trkpt>
      <trkpt lat="43.45797" lon="-5.583888">
        <ele>561.0</ele>
        <time>2021-02-14T10:36:38Z</time>
      </trkpt>
      <trkpt lat="43.457977" lon="-5.5838814">
        <ele>561.0</ele>
        <time>2021-02-14T10:36:39Z</time>
      </trkpt>
      <trkpt lat="43.457985" lon="-5.583877">
        <ele>561.0</ele>
        <time>2021-02-14T10:36:40Z</time>
      </trkpt>
      <trkpt lat="43.457993" lon="-5.5838733">
        <ele>561.0</ele>
        <time>2021-02-14T10:36:41Z</time>
      </trkpt>
      <trkpt lat="43.458" lon="-5.583868">
        <ele>561.0</ele>
        <time>2021-02-14T10:36:42Z</time>
      </trkpt>
      <trkpt lat="43.458008" lon="-5.5838633">
        <ele>561.0</ele>
        <time>2021-02-14T10:36:43Z</time>
      </trkpt>
      <trkpt lat="43.45801" lon="-5.583857">
        <ele>561.0</ele>
        <time>2021-02-14T10:36:44Z</time>
      </trkpt>
      <trkpt lat="43.458023" lon="-5.5838523">
        <ele>561.0</ele>
        <time>2021-02-14T10:36:45Z</time>
      </trkpt>
      <trkpt lat="43.458027" lon="-5.583845">
        <ele>561.0</ele>
        <time>2021-02-14T10:36:46Z</time>
      </trkpt>
      <trkpt lat="43.458035" lon="-5.583839">
        <ele>561.0</ele>
        <time>2021-02-14T10:36:47Z</time>
      </trkpt>
      <trkpt lat="43.45804" lon="-5.583832">
        <ele>561.0</ele>
        <time>2021-02-14T10:36:48Z</time>
      </trkpt>
      <trkpt lat="43.45805" lon="-5.583825">
        <ele>561.0</ele>
        <time>2021-02-14T10:36:49Z</time>
      </trkpt>
      <trkpt lat="43.458054" lon="-5.5838184">
        <ele>561.0</ele>
        <time>2021-02-14T10:36:50Z</time>
      </trkpt>
      <trkpt lat="43.458065" lon="-5.5838113">
        <ele>561.0</ele>
        <time>2021-02-14T10:36:51Z</time>
      </trkpt>
      <trkpt lat="43.458073" lon="-5.5838">
        <ele>561.0</ele>
        <time>2021-02-14T10:36:52Z</time>
      </trkpt>
      <trkpt lat="43.45808" lon="-5.5837874">
        <ele>561.0</ele>
        <time>2021-02-14T10:36:53Z</time>
      </trkpt>
      <trkpt lat="43.458088" lon="-5.5837755">
        <ele>561.0</ele>
        <time>2021-02-14T10:36:54Z</time>
      </trkpt>
      <trkpt lat="43.4581" lon="-5.583763">
        <ele>561.0</ele>
        <time>2021-02-14T10:36:55Z</time>
      </trkpt>
      <trkpt lat="43.458103" lon="-5.583752">
        <ele>561.0</ele>
        <time>2021-02-14T10:36:56Z</time>
      </trkpt>
      <trkpt lat="43.458115" lon="-5.583742">
        <ele>561.0</ele>
        <time>2021-02-14T10:36:57Z</time>
      </trkpt>
      <trkpt lat="43.458126" lon="-5.5837326">
        <ele>561.0</ele>
        <time>2021-02-14T10:36:58Z</time>
      </trkpt>
      <trkpt lat="43.458134" lon="-5.583722">
        <ele>561.0</ele>
        <time>2021-02-14T10:36:59Z</time>
      </trkpt>
      <trkpt lat="43.45814" lon="-5.5837126">
        <ele>561.0</ele>
        <time>2021-02-14T10:37:00Z</time>
      </trkpt>
      <trkpt lat="43.45815" lon="-5.583705">
        <ele>561.0</ele>
        <time>2021-02-14T10:37:01Z</time>
      </trkpt>
      <trkpt lat="43.45816" lon="-5.583697">
        <ele>561.0</ele>
        <time>2021-02-14T10:37:02Z</time>
      </trkpt>
      <trkpt lat="43.45817" lon="-5.5836887">
        <ele>561.0</ele>
        <time>2021-02-14T10:37:03Z</time>
      </trkpt>
      <trkpt lat="43.45818" lon="-5.5836806">
        <ele>561.0</ele>
        <time>2021-02-14T10:37:04Z</time>
      </trkpt>
      <trkpt lat="43.458187" lon="-5.583673">
        <ele>561.0</ele>
        <time>2021-02-14T10:37:05Z</time>
      </trkpt>
      <trkpt lat="43.458195" lon="-5.5836644">
        <ele>561.0</ele>
        <time>2021-02-14T10:37:06Z</time>
      </trkpt>
      <trkpt lat="43.458202" lon="-5.583655">
        <ele>561.0</ele>
        <time>2021-02-14T10:37:07Z</time>
      </trkpt>
      <trkpt lat="43.458206" lon="-5.5836463">
        <ele>561.0</ele>
        <time>2021-02-14T10:37:08Z</time>
      </trkpt>
      <trkpt lat="43.45821" lon="-5.5836377">
        <ele>561.0</ele>
        <time>2021-02-14T10:37:09Z</time>
      </trkpt>
      <trkpt lat="43.45822" lon="-5.5836287">
        <ele>561.0</ele>
        <time>2021-02-14T10:37:10Z</time>
      </trkpt>
      <trkpt lat="43.458233" lon="-5.583621">
        <ele>561.0</ele>
        <time>2021-02-14T10:37:11Z</time>
      </trkpt>
      <trkpt lat="43.458244" lon="-5.5836134">
        <ele>561.0</ele>
        <time>2021-02-14T10:37:12Z</time>
      </trkpt>
      <trkpt lat="43.458252" lon="-5.5836043">
        <ele>561.0</ele>
        <time>2021-02-14T10:37:13Z</time>
      </trkpt>
      <trkpt lat="43.45826" lon="-5.5835943">
        <ele>561.0</ele>
        <time>2021-02-14T10:37:14Z</time>
      </trkpt>
      <trkpt lat="43.458275" lon="-5.5835795">
        <ele>561.0</ele>
        <time>2021-02-14T10:37:15Z</time>
      </trkpt>
      <trkpt lat="43.458282" lon="-5.5835643">
        <ele>561.0</ele>
        <time>2021-02-14T10:37:16Z</time>
      </trkpt>
      <trkpt lat="43.458294" lon="-5.5835514">
        <ele>561.0</ele>
        <time>2021-02-14T10:37:17Z</time>
      </trkpt>
      <trkpt lat="43.45831" lon="-5.5835423">
        <ele>561.0</ele>
        <time>2021-02-14T10:37:18Z</time>
      </trkpt>
      <trkpt lat="43.458324" lon="-5.583536">
        <ele>561.0</ele>
        <time>2021-02-14T10:37:19Z</time>
      </trkpt>
      <trkpt lat="43.458336" lon="-5.5835314">
        <ele>561.0</ele>
        <time>2021-02-14T10:37:20Z</time>
      </trkpt>
      <trkpt lat="43.458344" lon="-5.5835257">
        <ele>561.0</ele>
        <time>2021-02-14T10:37:21Z</time>
      </trkpt>
      <trkpt lat="43.458355" lon="-5.58352">
        <ele>561.0</ele>
        <time>2021-02-14T10:37:22Z</time>
      </trkpt>
      <trkpt lat="43.458366" lon="-5.5835147">
        <ele>561.0</ele>
        <time>2021-02-14T10:37:23Z</time>
      </trkpt>
      <trkpt lat="43.45837" lon="-5.58351">
        <ele>561.0</ele>
        <time>2021-02-14T10:37:24Z</time>
      </trkpt>
      <trkpt lat="43.458374" lon="-5.583504">
        <ele>561.0</ele>
        <time>2021-02-14T10:37:25Z</time>
      </trkpt>
      <trkpt lat="43.458385" lon="-5.583499">
        <ele>561.0</ele>
        <time>2021-02-14T10:37:26Z</time>
      </trkpt>
      <trkpt lat="43.458397" lon="-5.5834937">
        <ele>561.0</ele>
        <time>2021-02-14T10:37:27Z</time>
      </trkpt>
      <trkpt lat="43.4584" lon="-5.583486">
        <ele>561.0</ele>
        <time>2021-02-14T10:37:28Z</time>
      </trkpt>
      <trkpt lat="43.458412" lon="-5.583477">
        <ele>561.0</ele>
        <time>2021-02-14T10:37:29Z</time>
      </trkpt>
      <trkpt lat="43.458424" lon="-5.583468">
        <ele>561.0</ele>
        <time>2021-02-14T10:37:30Z</time>
      </trkpt>
      <trkpt lat="43.458427" lon="-5.5834575">
        <ele>561.0</ele>
        <time>2021-02-14T10:37:31Z</time>
      </trkpt>
      <trkpt lat="43.45844" lon="-5.5834465">
        <ele>561.0</ele>
        <time>2021-02-14T10:37:32Z</time>
      </trkpt>
      <trkpt lat="43.458447" lon="-5.583437">
        <ele>561.0</ele>
        <time>2021-02-14T10:37:33Z</time>
      </trkpt>
      <trkpt lat="43.458458" lon="-5.58343">
        <ele>561.0</ele>
        <time>2021-02-14T10:37:34Z</time>
      </trkpt>
      <trkpt lat="43.45847" lon="-5.583424">
        <ele>561.0</ele>
        <time>2021-02-14T10:37:35Z</time>
      </trkpt>
      <trkpt lat="43.458477" lon="-5.5834184">
        <ele>561.0</ele>
        <time>2021-02-14T10:37:36Z</time>
      </trkpt>
      <trkpt lat="43.45849" lon="-5.5834117">
        <ele>561.0</ele>
        <time>2021-02-14T10:37:37Z</time>
      </trkpt>
      <trkpt lat="43.4585" lon="-5.583406">
        <ele>561.0</ele>
        <time>2021-02-14T10:37:38Z</time>
      </trkpt>
      <trkpt lat="43.4585" lon="-5.5834007">
        <ele>561.0</ele>
        <time>2021-02-14T10:37:39Z</time>
      </trkpt>
      <trkpt lat="43.458504" lon="-5.5833945">
        <ele>559.0</ele>
        <time>2021-02-14T10:37:40Z</time>
      </trkpt>
      <trkpt lat="43.458508" lon="-5.5833874">
        <ele>559.0</ele>
        <time>2021-02-14T10:37:41Z</time>
      </trkpt>
      <trkpt lat="43.458515" lon="-5.583381">
        <ele>559.0</ele>
        <time>2021-02-14T10:37:42Z</time>
      </trkpt>
      <trkpt lat="43.45852" lon="-5.5833764">
        <ele>559.0</ele>
        <time>2021-02-14T10:37:43Z</time>
      </trkpt>
      <trkpt lat="43.458523" lon="-5.5833716">
        <ele>559.0</ele>
        <time>2021-02-14T10:37:44Z</time>
      </trkpt>
      <trkpt lat="43.458523" lon="-5.583366">
        <ele>559.0</ele>
        <time>2021-02-14T10:37:45Z</time>
      </trkpt>
      <trkpt lat="43.45853" lon="-5.5833607">
        <ele>559.0</ele>
        <time>2021-02-14T10:37:46Z</time>
      </trkpt>
      <trkpt lat="43.458534" lon="-5.5833564">
        <ele>559.0</ele>
        <time>2021-02-14T10:37:47Z</time>
      </trkpt>
      <trkpt lat="43.458538" lon="-5.583352">
        <ele>559.0</ele>
        <time>2021-02-14T10:37:48Z</time>
      </trkpt>
      <trkpt lat="43.45855" lon="-5.5833464">
        <ele>559.0</ele>
        <time>2021-02-14T10:37:49Z</time>
      </trkpt>
      <trkpt lat="43.458553" lon="-5.5833387">
        <ele>559.0</ele>
        <time>2021-02-14T10:37:50Z</time>
      </trkpt>
      <trkpt lat="43.45856" lon="-5.583332">
        <ele>559.0</ele>
        <time>2021-02-14T10:37:51Z</time>
      </trkpt>
      <trkpt lat="43.45857" lon="-5.5833273">
        <ele>559.0</ele>
        <time>2021-02-14T10:37:52Z</time>
      </trkpt>
      <trkpt lat="43.458576" lon="-5.583324">
        <ele>559.0</ele>
        <time>2021-02-14T10:37:53Z</time>
      </trkpt>
      <trkpt lat="43.45858" lon="-5.583323">
        <ele>559.0</ele>
        <time>2021-02-14T10:37:54Z</time>
      </trkpt>
      <trkpt lat="43.45859" lon="-5.583323">
        <ele>559.0</ele>
        <time>2021-02-14T10:37:55Z</time>
      </trkpt>
      <trkpt lat="43.458595" lon="-5.583323">
        <ele>559.0</ele>
        <time>2021-02-14T10:37:56Z</time>
      </trkpt>
      <trkpt lat="43.45861" lon="-5.583321">
        <ele>559.0</ele>
        <time>2021-02-14T10:37:57Z</time>
      </trkpt>
      <trkpt lat="43.45862" lon="-5.5833154">
        <ele>559.0</ele>
        <time>2021-02-14T10:37:58Z</time>
      </trkpt>
      <trkpt lat="43.458626" lon="-5.5833087">
        <ele>559.0</ele>
        <time>2021-02-14T10:37:59Z</time>
      </trkpt>
      <trkpt lat="43.458637" lon="-5.5833025">
        <ele>559.0</ele>
        <time>2021-02-14T10:38:00Z</time>
      </trkpt>
      <trkpt lat="43.45865" lon="-5.583295">
        <ele>559.0</ele>
        <time>2021-02-14T10:38:01Z</time>
      </trkpt>
      <trkpt lat="43.458664" lon="-5.5832877">
        <ele>559.0</ele>
        <time>2021-02-14T10:38:02Z</time>
      </trkpt>
      <trkpt lat="43.45867" lon="-5.5832806">
        <ele>559.0</ele>
        <time>2021-02-14T10:38:03Z</time>
      </trkpt>
      <trkpt lat="43.458687" lon="-5.5832753">
        <ele>559.0</ele>
        <time>2021-02-14T10:38:04Z</time>
      </trkpt>
      <trkpt lat="43.4587" lon="-5.5832715">
        <ele>559.0</ele>
        <time>2021-02-14T10:38:05Z</time>
      </trkpt>
      <trkpt lat="43.45871" lon="-5.5832667">
        <ele>559.0</ele>
        <time>2021-02-14T10:38:06Z</time>
      </trkpt>
      <trkpt lat="43.458717" lon="-5.5832615">
        <ele>559.0</ele>
        <time>2021-02-14T10:38:07Z</time>
      </trkpt>
      <trkpt lat="43.45873" lon="-5.583256">
        <ele>559.0</ele>
        <time>2021-02-14T10:38:08Z</time>
      </trkpt>
      <trkpt lat="43.458733" lon="-5.5832505">
        <ele>559.0</ele>
        <time>2021-02-14T10:38:09Z</time>
      </trkpt>
      <trkpt lat="43.45874" lon="-5.583245">
        <ele>559.0</ele>
        <time>2021-02-14T10:38:10Z</time>
      </trkpt>
      <trkpt lat="43.458748" lon="-5.583239">
        <ele>559.0</ele>
        <time>2021-02-14T10:38:11Z</time>
      </trkpt>
      <trkpt lat="43.458755" lon="-5.583232">
        <ele>559.0</ele>
        <time>2021-02-14T10:38:12Z</time>
      </trkpt>
      <trkpt lat="43.458763" lon="-5.583225">
        <ele>559.0</ele>
        <time>2021-02-14T10:38:13Z</time>
      </trkpt>
      <trkpt lat="43.458775" lon="-5.5832186">
        <ele>559.0</ele>
        <time>2021-02-14T10:38:14Z</time>
      </trkpt>
      <trkpt lat="43.45879" lon="-5.5832143">
        <ele>559.0</ele>
        <time>2021-02-14T10:38:15Z</time>
      </trkpt>
      <trkpt lat="43.4588" lon="-5.583209">
        <ele>559.0</ele>
        <time>2021-02-14T10:38:16Z</time>
      </trkpt>
      <trkpt lat="43.458805" lon="-5.5832033">
        <ele>559.0</ele>
        <time>2021-02-14T10:38:17Z</time>
      </trkpt>
      <trkpt lat="43.458817" lon="-5.5831985">
        <ele>559.0</ele>
        <time>2021-02-14T10:38:18Z</time>
      </trkpt>
      <trkpt lat="43.45882" lon="-5.5831943">
        <ele>559.0</ele>
        <time>2021-02-14T10:38:19Z</time>
      </trkpt>
      <trkpt lat="43.45883" lon="-5.583191">
        <ele>559.0</ele>
        <time>2021-02-14T10:38:20Z</time>
      </trkpt>
      <trkpt lat="43.458836" lon="-5.583186">
        <ele>559.0</ele>
        <time>2021-02-14T10:38:21Z</time>
      </trkpt>
      <trkpt lat="43.458843" lon="-5.583179">
        <ele>559.0</ele>
        <time>2021-02-14T10:38:22Z</time>
      </trkpt>
      <trkpt lat="43.458847" lon="-5.5831704">
        <ele>559.0</ele>
        <time>2021-02-14T10:38:23Z</time>
      </trkpt>
      <trkpt lat="43.45885" lon="-5.5831604">
        <ele>559.0</ele>
        <time>2021-02-14T10:38:24Z</time>
      </trkpt>
      <trkpt lat="43.458862" lon="-5.583151">
        <ele>559.0</ele>
        <time>2021-02-14T10:38:25Z</time>
      </trkpt>
      <trkpt lat="43.458866" lon="-5.5831423">
        <ele>559.0</ele>
        <time>2021-02-14T10:38:26Z</time>
      </trkpt>
      <trkpt lat="43.458874" lon="-5.5831347">
        <ele>559.0</ele>
        <time>2021-02-14T10:38:27Z</time>
      </trkpt>
      <trkpt lat="43.45888" lon="-5.5831275">
        <ele>559.0</ele>
        <time>2021-02-14T10:38:28Z</time>
      </trkpt>
      <trkpt lat="43.458893" lon="-5.583121">
        <ele>561.0</ele>
        <time>2021-02-14T10:38:29Z</time>
      </trkpt>
      <trkpt lat="43.458904" lon="-5.583114">
        <ele>561.0</ele>
        <time>2021-02-14T10:38:30Z</time>
      </trkpt>
      <trkpt lat="43.45891" lon="-5.583108">
        <ele>561.0</ele>
        <time>2021-02-14T10:38:31Z</time>
      </trkpt>
      <trkpt lat="43.458923" lon="-5.583101">
        <ele>561.0</ele>
        <time>2021-02-14T10:38:32Z</time>
      </trkpt>
      <trkpt lat="43.458935" lon="-5.583093">
        <ele>561.0</ele>
        <time>2021-02-14T10:38:33Z</time>
      </trkpt>
      <trkpt lat="43.45894" lon="-5.5830846">
        <ele>561.0</ele>
        <time>2021-02-14T10:38:34Z</time>
      </trkpt>
      <trkpt lat="43.45895" lon="-5.583077">
        <ele>561.0</ele>
        <time>2021-02-14T10:38:35Z</time>
      </trkpt>
      <trkpt lat="43.458954" lon="-5.5830693">
        <ele>561.0</ele>
        <time>2021-02-14T10:38:36Z</time>
      </trkpt>
      <trkpt lat="43.458965" lon="-5.583062">
        <ele>561.0</ele>
        <time>2021-02-14T10:38:37Z</time>
      </trkpt>
      <trkpt lat="43.45897" lon="-5.5830545">
        <ele>561.0</ele>
        <time>2021-02-14T10:38:38Z</time>
      </trkpt>
      <trkpt lat="43.458984" lon="-5.583048">
        <ele>561.0</ele>
        <time>2021-02-14T10:38:39Z</time>
      </trkpt>
      <trkpt lat="43.458996" lon="-5.5830426">
        <ele>561.0</ele>
        <time>2021-02-14T10:38:40Z</time>
      </trkpt>
      <trkpt lat="43.45901" lon="-5.5830374">
        <ele>561.0</ele>
        <time>2021-02-14T10:38:41Z</time>
      </trkpt>
      <trkpt lat="43.459023" lon="-5.583035">
        <ele>561.0</ele>
        <time>2021-02-14T10:38:42Z</time>
      </trkpt>
      <trkpt lat="43.459038" lon="-5.583031">
        <ele>561.0</ele>
        <time>2021-02-14T10:38:43Z</time>
      </trkpt>
      <trkpt lat="43.459045" lon="-5.583028">
        <ele>561.0</ele>
        <time>2021-02-14T10:38:44Z</time>
      </trkpt>
      <trkpt lat="43.45906" lon="-5.5830255">
        <ele>561.0</ele>
        <time>2021-02-14T10:38:45Z</time>
      </trkpt>
      <trkpt lat="43.45907" lon="-5.5830216">
        <ele>561.0</ele>
        <time>2021-02-14T10:38:46Z</time>
      </trkpt>
      <trkpt lat="43.459076" lon="-5.583019">
        <ele>561.0</ele>
        <time>2021-02-14T10:38:47Z</time>
      </trkpt>
      <trkpt lat="43.459084" lon="-5.5830145">
        <ele>561.0</ele>
        <time>2021-02-14T10:38:48Z</time>
      </trkpt>
      <trkpt lat="43.459087" lon="-5.583007">
        <ele>561.0</ele>
        <time>2021-02-14T10:38:49Z</time>
      </trkpt>
      <trkpt lat="43.4591" lon="-5.5829997">
        <ele>561.0</ele>
        <time>2021-02-14T10:38:50Z</time>
      </trkpt>
      <trkpt lat="43.459103" lon="-5.5829935">
        <ele>561.0</ele>
        <time>2021-02-14T10:38:51Z</time>
      </trkpt>
      <trkpt lat="43.459106" lon="-5.5829864">
        <ele>561.0</ele>
        <time>2021-02-14T10:38:52Z</time>
      </trkpt>
      <trkpt lat="43.459114" lon="-5.582979">
        <ele>561.0</ele>
        <time>2021-02-14T10:38:53Z</time>
      </trkpt>
      <trkpt lat="43.459118" lon="-5.5829735">
        <ele>561.0</ele>
        <time>2021-02-14T10:38:54Z</time>
      </trkpt>
      <trkpt lat="43.459133" lon="-5.582968">
        <ele>561.0</ele>
        <time>2021-02-14T10:38:55Z</time>
      </trkpt>
      <trkpt lat="43.459145" lon="-5.582962">
        <ele>561.0</ele>
        <time>2021-02-14T10:38:56Z</time>
      </trkpt>
      <trkpt lat="43.459152" lon="-5.582955">
        <ele>561.0</ele>
        <time>2021-02-14T10:38:57Z</time>
      </trkpt>
      <trkpt lat="43.45916" lon="-5.5829477">
        <ele>561.0</ele>
        <time>2021-02-14T10:38:58Z</time>
      </trkpt>
      <trkpt lat="43.459167" lon="-5.58294">
        <ele>561.0</ele>
        <time>2021-02-14T10:38:59Z</time>
      </trkpt>
      <trkpt lat="43.459175" lon="-5.582934">
        <ele>561.0</ele>
        <time>2021-02-14T10:39:00Z</time>
      </trkpt>
      <trkpt lat="43.459183" lon="-5.5829268">
        <ele>561.0</ele>
        <time>2021-02-14T10:39:01Z</time>
      </trkpt>
      <trkpt lat="43.45919" lon="-5.5829196">
        <ele>561.0</ele>
        <time>2021-02-14T10:39:02Z</time>
      </trkpt>
      <trkpt lat="43.4592" lon="-5.5829144">
        <ele>561.0</ele>
        <time>2021-02-14T10:39:03Z</time>
      </trkpt>
      <trkpt lat="43.459206" lon="-5.5829096">
        <ele>561.0</ele>
        <time>2021-02-14T10:39:04Z</time>
      </trkpt>
      <trkpt lat="43.459217" lon="-5.582906">
        <ele>561.0</ele>
        <time>2021-02-14T10:39:05Z</time>
      </trkpt>
      <trkpt lat="43.45922" lon="-5.5829005">
        <ele>561.0</ele>
        <time>2021-02-14T10:39:06Z</time>
      </trkpt>
      <trkpt lat="43.459225" lon="-5.5828953">
        <ele>561.0</ele>
        <time>2021-02-14T10:39:07Z</time>
      </trkpt>
      <trkpt lat="43.459232" lon="-5.58289">
        <ele>561.0</ele>
        <time>2021-02-14T10:39:08Z</time>
      </trkpt>
      <trkpt lat="43.45924" lon="-5.5828857">
        <ele>561.0</ele>
        <time>2021-02-14T10:39:09Z</time>
      </trkpt>
      <trkpt lat="43.459255" lon="-5.582882">
        <ele>561.0</ele>
        <time>2021-02-14T10:39:11Z</time>
      </trkpt>
      <trkpt lat="43.459255" lon="-5.5828824">
        <ele>561.0</ele>
        <time>2021-02-14T10:39:12Z</time>
      </trkpt>
      <trkpt lat="43.459255" lon="-5.5828853">
        <ele>561.0</ele>
        <time>2021-02-14T10:39:13Z</time>
      </trkpt>
      <trkpt lat="43.459263" lon="-5.582888">
        <ele>561.0</ele>
        <time>2021-02-14T10:39:14Z</time>
      </trkpt>
      <trkpt lat="43.459263" lon="-5.5828915">
        <ele>561.0</ele>
        <time>2021-02-14T10:39:15Z</time>
      </trkpt>
      <trkpt lat="43.459267" lon="-5.5828934">
        <ele>561.0</ele>
        <time>2021-02-14T10:39:16Z</time>
      </trkpt>
      <trkpt lat="43.45927" lon="-5.5828953">
        <ele>561.0</ele>
        <time>2021-02-14T10:39:17Z</time>
      </trkpt>
      <trkpt lat="43.45928" lon="-5.58289">
        <ele>561.0</ele>
        <time>2021-02-14T10:39:20Z</time>
      </trkpt>
      <trkpt lat="43.459282" lon="-5.5828857">
        <ele>561.0</ele>
        <time>2021-02-14T10:39:21Z</time>
      </trkpt>
      <trkpt lat="43.459282" lon="-5.58288">
        <ele>561.0</ele>
        <time>2021-02-14T10:39:22Z</time>
      </trkpt>
      <trkpt lat="43.459286" lon="-5.582873">
        <ele>561.0</ele>
        <time>2021-02-14T10:39:23Z</time>
      </trkpt>
      <trkpt lat="43.459293" lon="-5.5828648">
        <ele>561.0</ele>
        <time>2021-02-14T10:39:23Z</time>
      </trkpt>
      <trkpt lat="43.459297" lon="-5.582855">
        <ele>561.0</ele>
        <time>2021-02-14T10:39:24Z</time>
      </trkpt>
      <trkpt lat="43.459297" lon="-5.5828466">
        <ele>561.0</ele>
        <time>2021-02-14T10:39:25Z</time>
      </trkpt>
      <trkpt lat="43.459297" lon="-5.5828404">
        <ele>561.0</ele>
        <time>2021-02-14T10:39:27Z</time>
      </trkpt>
      <trkpt lat="43.459297" lon="-5.5828114">
        <ele>561.0</ele>
        <time>2021-02-14T10:39:29Z</time>
      </trkpt>
      <trkpt lat="43.459282" lon="-5.582799">
        <ele>561.0</ele>
        <time>2021-02-14T10:39:31Z</time>
      </trkpt>
      <trkpt lat="43.459282" lon="-5.582805">
        <ele>561.0</ele>
        <time>2021-02-14T10:39:37Z</time>
      </trkpt>
      <trkpt lat="43.459286" lon="-5.582799">
        <ele>561.0</ele>
        <time>2021-02-14T10:39:46Z</time>
      </trkpt>
      <trkpt lat="43.459286" lon="-5.5827928">
        <ele>561.0</ele>
        <time>2021-02-14T10:39:47Z</time>
      </trkpt>
      <trkpt lat="43.459293" lon="-5.5827827">
        <ele>561.0</ele>
        <time>2021-02-14T10:39:48Z</time>
      </trkpt>
      <trkpt lat="43.459297" lon="-5.582768">
        <ele>561.0</ele>
        <time>2021-02-14T10:39:49Z</time>
      </trkpt>
      <trkpt lat="43.4593" lon="-5.582751">
        <ele>561.0</ele>
        <time>2021-02-14T10:39:50Z</time>
      </trkpt>
      <trkpt lat="43.4593" lon="-5.5827327">
        <ele>561.0</ele>
        <time>2021-02-14T10:39:51Z</time>
      </trkpt>
      <trkpt lat="43.4593" lon="-5.5827155">
        <ele>561.0</ele>
        <time>2021-02-14T10:39:52Z</time>
      </trkpt>
      <trkpt lat="43.45931" lon="-5.5826974">
        <ele>561.0</ele>
        <time>2021-02-14T10:39:53Z</time>
      </trkpt>
      <trkpt lat="43.45931" lon="-5.582681">
        <ele>561.0</ele>
        <time>2021-02-14T10:39:54Z</time>
      </trkpt>
      <trkpt lat="43.459312" lon="-5.5826645">
        <ele>561.0</ele>
        <time>2021-02-14T10:39:55Z</time>
      </trkpt>
      <trkpt lat="43.459312" lon="-5.5826488">
        <ele>562.0</ele>
        <time>2021-02-14T10:39:56Z</time>
      </trkpt>
      <trkpt lat="43.459312" lon="-5.582635">
        <ele>562.0</ele>
        <time>2021-02-14T10:39:57Z</time>
      </trkpt>
      <trkpt lat="43.45931" lon="-5.5826206">
        <ele>562.0</ele>
        <time>2021-02-14T10:39:58Z</time>
      </trkpt>
      <trkpt lat="43.45931" lon="-5.582607">
        <ele>562.0</ele>
        <time>2021-02-14T10:39:59Z</time>
      </trkpt>
      <trkpt lat="43.4593" lon="-5.5825915">
        <ele>562.0</ele>
        <time>2021-02-14T10:40:00Z</time>
      </trkpt>
      <trkpt lat="43.459297" lon="-5.5825768">
        <ele>562.0</ele>
        <time>2021-02-14T10:40:01Z</time>
      </trkpt>
      <trkpt lat="43.459293" lon="-5.5825624">
        <ele>562.0</ele>
        <time>2021-02-14T10:40:02Z</time>
      </trkpt>
      <trkpt lat="43.459293" lon="-5.5825505">
        <ele>562.0</ele>
        <time>2021-02-14T10:40:03Z</time>
      </trkpt>
      <trkpt lat="43.459286" lon="-5.582538">
        <ele>562.0</ele>
        <time>2021-02-14T10:40:04Z</time>
      </trkpt>
      <trkpt lat="43.459282" lon="-5.582527">
        <ele>562.0</ele>
        <time>2021-02-14T10:40:05Z</time>
      </trkpt>
      <trkpt lat="43.45928" lon="-5.5825186">
        <ele>562.0</ele>
        <time>2021-02-14T10:40:06Z</time>
      </trkpt>
      <trkpt lat="43.45927" lon="-5.582508">
        <ele>563.0</ele>
        <time>2021-02-14T10:40:07Z</time>
      </trkpt>
      <trkpt lat="43.459263" lon="-5.582498">
        <ele>563.0</ele>
        <time>2021-02-14T10:40:08Z</time>
      </trkpt>
      <trkpt lat="43.45925" lon="-5.5824866">
        <ele>563.0</ele>
        <time>2021-02-14T10:40:09Z</time>
      </trkpt>
      <trkpt lat="43.45924" lon="-5.582478">
        <ele>563.0</ele>
        <time>2021-02-14T10:40:10Z</time>
      </trkpt>
      <trkpt lat="43.459236" lon="-5.582472">
        <ele>563.0</ele>
        <time>2021-02-14T10:40:11Z</time>
      </trkpt>
      <trkpt lat="43.459232" lon="-5.5824685">
        <ele>563.0</ele>
        <time>2021-02-14T10:40:12Z</time>
      </trkpt>
      <trkpt lat="43.45922" lon="-5.5824647">
        <ele>563.0</ele>
        <time>2021-02-14T10:40:13Z</time>
      </trkpt>
      <trkpt lat="43.459217" lon="-5.5824633">
        <ele>563.0</ele>
        <time>2021-02-14T10:40:14Z</time>
      </trkpt>
      <trkpt lat="43.459206" lon="-5.5824633">
        <ele>563.0</ele>
        <time>2021-02-14T10:40:15Z</time>
      </trkpt>
      <trkpt lat="43.459194" lon="-5.582463">
        <ele>563.0</ele>
        <time>2021-02-14T10:40:16Z</time>
      </trkpt>
      <trkpt lat="43.45919" lon="-5.582463">
        <ele>563.0</ele>
        <time>2021-02-14T10:40:17Z</time>
      </trkpt>
      <trkpt lat="43.459183" lon="-5.582465">
        <ele>563.0</ele>
        <time>2021-02-14T10:40:18Z</time>
      </trkpt>
      <trkpt lat="43.459175" lon="-5.5824704">
        <ele>563.0</ele>
        <time>2021-02-14T10:40:19Z</time>
      </trkpt>
      <trkpt lat="43.459164" lon="-5.582478">
        <ele>563.0</ele>
        <time>2021-02-14T10:40:20Z</time>
      </trkpt>
      <trkpt lat="43.459152" lon="-5.582487">
        <ele>563.0</ele>
        <time>2021-02-14T10:40:21Z</time>
      </trkpt>
      <trkpt lat="43.459137" lon="-5.582496">
        <ele>563.0</ele>
        <time>2021-02-14T10:40:22Z</time>
      </trkpt>
      <trkpt lat="43.45913" lon="-5.582506">
        <ele>563.0</ele>
        <time>2021-02-14T10:40:23Z</time>
      </trkpt>
      <trkpt lat="43.459118" lon="-5.582517">
        <ele>563.0</ele>
        <time>2021-02-14T10:40:24Z</time>
      </trkpt>
      <trkpt lat="43.459103" lon="-5.582529">
        <ele>563.0</ele>
        <time>2021-02-14T10:40:25Z</time>
      </trkpt>
      <trkpt lat="43.459087" lon="-5.582541">
        <ele>563.0</ele>
        <time>2021-02-14T10:40:26Z</time>
      </trkpt>
      <trkpt lat="43.459076" lon="-5.582551">
        <ele>563.0</ele>
        <time>2021-02-14T10:40:27Z</time>
      </trkpt>
      <trkpt lat="43.45906" lon="-5.5825586">
        <ele>563.0</ele>
        <time>2021-02-14T10:40:28Z</time>
      </trkpt>
      <trkpt lat="43.459053" lon="-5.5825663">
        <ele>563.0</ele>
        <time>2021-02-14T10:40:29Z</time>
      </trkpt>
      <trkpt lat="43.45904" lon="-5.582574">
        <ele>563.0</ele>
        <time>2021-02-14T10:40:30Z</time>
      </trkpt>
      <trkpt lat="43.459026" lon="-5.582582">
        <ele>563.0</ele>
        <time>2021-02-14T10:40:31Z</time>
      </trkpt>
      <trkpt lat="43.45901" lon="-5.582588">
        <ele>563.0</ele>
        <time>2021-02-14T10:40:32Z</time>
      </trkpt>
      <trkpt lat="43.459" lon="-5.5825953">
        <ele>563.0</ele>
        <time>2021-02-14T10:40:33Z</time>
      </trkpt>
      <trkpt lat="43.458984" lon="-5.582602">
        <ele>563.0</ele>
        <time>2021-02-14T10:40:34Z</time>
      </trkpt>
      <trkpt lat="43.458973" lon="-5.582609">
        <ele>563.0</ele>
        <time>2021-02-14T10:40:35Z</time>
      </trkpt>
      <trkpt lat="43.458965" lon="-5.582615">
        <ele>563.0</ele>
        <time>2021-02-14T10:40:36Z</time>
      </trkpt>
      <trkpt lat="43.458954" lon="-5.5826197">
        <ele>563.0</ele>
        <time>2021-02-14T10:40:37Z</time>
      </trkpt>
      <trkpt lat="43.458942" lon="-5.5826225">
        <ele>563.0</ele>
        <time>2021-02-14T10:40:38Z</time>
      </trkpt>
      <trkpt lat="43.458942" lon="-5.5826263">
        <ele>563.0</ele>
        <time>2021-02-14T10:40:39Z</time>
      </trkpt>
      <trkpt lat="43.458942" lon="-5.5826297">
        <ele>563.0</ele>
        <time>2021-02-14T10:40:40Z</time>
      </trkpt>
      <trkpt lat="43.45894" lon="-5.582635">
        <ele>563.0</ele>
        <time>2021-02-14T10:40:42Z</time>
      </trkpt>
      <trkpt lat="43.458935" lon="-5.5826316">
        <ele>563.0</ele>
        <time>2021-02-14T10:40:44Z</time>
      </trkpt>
      <trkpt lat="43.458935" lon="-5.5826283">
        <ele>563.0</ele>
        <time>2021-02-14T10:40:46Z</time>
      </trkpt>
      <trkpt lat="43.458935" lon="-5.582628">
        <ele>563.0</ele>
        <time>2021-02-14T10:40:47Z</time>
      </trkpt>
      <trkpt lat="43.458935" lon="-5.5826263">
        <ele>563.0</ele>
        <time>2021-02-14T10:40:48Z</time>
      </trkpt>
      <trkpt lat="43.458927" lon="-5.5826254">
        <ele>563.0</ele>
        <time>2021-02-14T10:40:49Z</time>
      </trkpt>
      <trkpt lat="43.458923" lon="-5.5826225">
        <ele>563.0</ele>
        <time>2021-02-14T10:40:50Z</time>
      </trkpt>
      <trkpt lat="43.458923" lon="-5.58262">
        <ele>563.0</ele>
        <time>2021-02-14T10:40:51Z</time>
      </trkpt>
      <trkpt lat="43.45892" lon="-5.5826178">
        <ele>563.0</ele>
        <time>2021-02-14T10:40:52Z</time>
      </trkpt>
      <trkpt lat="43.45892" lon="-5.58261">
        <ele>563.0</ele>
        <time>2021-02-14T10:40:54Z</time>
      </trkpt>
      <trkpt lat="43.45892" lon="-5.5826073">
        <ele>563.0</ele>
        <time>2021-02-14T10:40:55Z</time>
      </trkpt>
      <trkpt lat="43.458923" lon="-5.5826015">
        <ele>563.0</ele>
        <time>2021-02-14T10:40:56Z</time>
      </trkpt>
      <trkpt lat="43.458923" lon="-5.5825963">
        <ele>563.0</ele>
        <time>2021-02-14T10:40:57Z</time>
      </trkpt>
      <trkpt lat="43.458927" lon="-5.5825906">
        <ele>563.0</ele>
        <time>2021-02-14T10:40:58Z</time>
      </trkpt>
      <trkpt lat="43.458935" lon="-5.582585">
        <ele>563.0</ele>
        <time>2021-02-14T10:40:59Z</time>
      </trkpt>
      <trkpt lat="43.45894" lon="-5.582581">
        <ele>563.0</ele>
        <time>2021-02-14T10:41:00Z</time>
      </trkpt>
      <trkpt lat="43.458942" lon="-5.5825768">
        <ele>563.0</ele>
        <time>2021-02-14T10:41:01Z</time>
      </trkpt>
      <trkpt lat="43.458954" lon="-5.5825653">
        <ele>563.0</ele>
        <time>2021-02-14T10:41:03Z</time>
      </trkpt>
      <trkpt lat="43.45895" lon="-5.582567">
        <ele>563.0</ele>
        <time>2021-02-14T10:41:06Z</time>
      </trkpt>
      <trkpt lat="43.458942" lon="-5.582567">
        <ele>563.0</ele>
        <time>2021-02-14T10:41:07Z</time>
      </trkpt>
      <trkpt lat="43.45894" lon="-5.582572">
        <ele>563.0</ele>
        <time>2021-02-14T10:41:09Z</time>
      </trkpt>
      <trkpt lat="43.45894" lon="-5.5825734">
        <ele>563.0</ele>
        <time>2021-02-14T10:41:10Z</time>
      </trkpt>
      <trkpt lat="43.45894" lon="-5.582576">
        <ele>563.0</ele>
        <time>2021-02-14T10:41:11Z</time>
      </trkpt>
      <trkpt lat="43.458935" lon="-5.582579">
        <ele>563.0</ele>
        <time>2021-02-14T10:41:12Z</time>
      </trkpt>
      <trkpt lat="43.458927" lon="-5.5825825">
        <ele>563.0</ele>
        <time>2021-02-14T10:41:13Z</time>
      </trkpt>
      <trkpt lat="43.458927" lon="-5.582585">
        <ele>563.0</ele>
        <time>2021-02-14T10:41:14Z</time>
      </trkpt>
      <trkpt lat="43.458923" lon="-5.5825887">
        <ele>563.0</ele>
        <time>2021-02-14T10:41:15Z</time>
      </trkpt>
      <trkpt lat="43.45892" lon="-5.5825915">
        <ele>563.0</ele>
        <time>2021-02-14T10:41:16Z</time>
      </trkpt>
      <trkpt lat="43.45891" lon="-5.5825944">
        <ele>563.0</ele>
        <time>2021-02-14T10:41:17Z</time>
      </trkpt>
      <trkpt lat="43.458908" lon="-5.582599">
        <ele>563.0</ele>
        <time>2021-02-14T10:41:18Z</time>
      </trkpt>
      <trkpt lat="43.458897" lon="-5.582602">
        <ele>563.0</ele>
        <time>2021-02-14T10:41:19Z</time>
      </trkpt>
      <trkpt lat="43.458893" lon="-5.5826087">
        <ele>563.0</ele>
        <time>2021-02-14T10:41:20Z</time>
      </trkpt>
      <trkpt lat="43.45888" lon="-5.582617">
        <ele>563.0</ele>
        <time>2021-02-14T10:41:21Z</time>
      </trkpt>
      <trkpt lat="43.458878" lon="-5.5826244">
        <ele>563.0</ele>
        <time>2021-02-14T10:41:22Z</time>
      </trkpt>
      <trkpt lat="43.458874" lon="-5.582633">
        <ele>563.0</ele>
        <time>2021-02-14T10:41:23Z</time>
      </trkpt>
      <trkpt lat="43.458866" lon="-5.5826406">
        <ele>563.0</ele>
        <time>2021-02-14T10:41:24Z</time>
      </trkpt>
      <trkpt lat="43.458862" lon="-5.5826483">
        <ele>563.0</ele>
        <time>2021-02-14T10:41:25Z</time>
      </trkpt>
      <trkpt lat="43.45886" lon="-5.5826554">
        <ele>563.0</ele>
        <time>2021-02-14T10:41:26Z</time>
      </trkpt>
      <trkpt lat="43.45885" lon="-5.582659">
        <ele>563.0</ele>
        <time>2021-02-14T10:41:27Z</time>
      </trkpt>
      <trkpt lat="43.458847" lon="-5.5826607">
        <ele>563.0</ele>
        <time>2021-02-14T10:41:28Z</time>
      </trkpt>
      <trkpt lat="43.458836" lon="-5.5826626">
        <ele>563.0</ele>
        <time>2021-02-14T10:41:29Z</time>
      </trkpt>
      <trkpt lat="43.458828" lon="-5.5826654">
        <ele>563.0</ele>
        <time>2021-02-14T10:41:30Z</time>
      </trkpt>
      <trkpt lat="43.45882" lon="-5.58267">
        <ele>563.0</ele>
        <time>2021-02-14T10:41:31Z</time>
      </trkpt>
      <trkpt lat="43.458813" lon="-5.582676">
        <ele>563.0</ele>
        <time>2021-02-14T10:41:32Z</time>
      </trkpt>
      <trkpt lat="43.458805" lon="-5.582683">
        <ele>563.0</ele>
        <time>2021-02-14T10:41:33Z</time>
      </trkpt>
      <trkpt lat="43.458794" lon="-5.582688">
        <ele>563.0</ele>
        <time>2021-02-14T10:41:34Z</time>
      </trkpt>
      <trkpt lat="43.45879" lon="-5.582691">
        <ele>563.0</ele>
        <time>2021-02-14T10:41:35Z</time>
      </trkpt>
      <trkpt lat="43.458786" lon="-5.5826945">
        <ele>563.0</ele>
        <time>2021-02-14T10:41:36Z</time>
      </trkpt>
      <trkpt lat="43.45878" lon="-5.5826974">
        <ele>563.0</ele>
        <time>2021-02-14T10:41:37Z</time>
      </trkpt>
      <trkpt lat="43.458775" lon="-5.5827003">
        <ele>563.0</ele>
        <time>2021-02-14T10:41:38Z</time>
      </trkpt>
      <trkpt lat="43.45877" lon="-5.5827026">
        <ele>563.0</ele>
        <time>2021-02-14T10:41:39Z</time>
      </trkpt>
      <trkpt lat="43.45876" lon="-5.582706">
        <ele>564.0</ele>
        <time>2021-02-14T10:41:40Z</time>
      </trkpt>
      <trkpt lat="43.458755" lon="-5.5827084">
        <ele>564.0</ele>
        <time>2021-02-14T10:41:41Z</time>
      </trkpt>
      <trkpt lat="43.458744" lon="-5.582712">
        <ele>564.0</ele>
        <time>2021-02-14T10:41:42Z</time>
      </trkpt>
      <trkpt lat="43.45874" lon="-5.5827155">
        <ele>564.0</ele>
        <time>2021-02-14T10:41:43Z</time>
      </trkpt>
      <trkpt lat="43.45873" lon="-5.582719">
        <ele>564.0</ele>
        <time>2021-02-14T10:41:44Z</time>
      </trkpt>
      <trkpt lat="43.458725" lon="-5.5827227">
        <ele>564.0</ele>
        <time>2021-02-14T10:41:45Z</time>
      </trkpt>
      <trkpt lat="43.458717" lon="-5.5827246">
        <ele>564.0</ele>
        <time>2021-02-14T10:41:46Z</time>
      </trkpt>
      <trkpt lat="43.458714" lon="-5.582725">
        <ele>564.0</ele>
        <time>2021-02-14T10:41:47Z</time>
      </trkpt>
      <trkpt lat="43.45871" lon="-5.5827255">
        <ele>564.0</ele>
        <time>2021-02-14T10:41:48Z</time>
      </trkpt>
      <trkpt lat="43.458702" lon="-5.5827246">
        <ele>564.0</ele>
        <time>2021-02-14T10:41:49Z</time>
      </trkpt>
      <trkpt lat="43.4587" lon="-5.582725">
        <ele>564.0</ele>
        <time>2021-02-14T10:41:50Z</time>
      </trkpt>
      <trkpt lat="43.458694" lon="-5.582728">
        <ele>564.0</ele>
        <time>2021-02-14T10:41:51Z</time>
      </trkpt>
      <trkpt lat="43.458683" lon="-5.5827327">
        <ele>564.0</ele>
        <time>2021-02-14T10:41:52Z</time>
      </trkpt>
      <trkpt lat="43.45868" lon="-5.5827374">
        <ele>564.0</ele>
        <time>2021-02-14T10:41:53Z</time>
      </trkpt>
      <trkpt lat="43.45867" lon="-5.5827403">
        <ele>564.0</ele>
        <time>2021-02-14T10:41:54Z</time>
      </trkpt>
      <trkpt lat="43.458664" lon="-5.5827513">
        <ele>564.0</ele>
        <time>2021-02-14T10:41:56Z</time>
      </trkpt>
      <trkpt lat="43.458664" lon="-5.5827527">
        <ele>564.0</ele>
        <time>2021-02-14T10:41:57Z</time>
      </trkpt>
      <trkpt lat="43.458656" lon="-5.5827565">
        <ele>564.0</ele>
        <time>2021-02-14T10:41:58Z</time>
      </trkpt>
      <trkpt lat="43.458652" lon="-5.582759">
        <ele>564.0</ele>
        <time>2021-02-14T10:41:59Z</time>
      </trkpt>
      <trkpt lat="43.45864" lon="-5.58276">
        <ele>564.0</ele>
        <time>2021-02-14T10:42:01Z</time>
      </trkpt>
      <trkpt lat="43.45864" lon="-5.582759">
        <ele>564.0</ele>
        <time>2021-02-14T10:42:02Z</time>
      </trkpt>
      <trkpt lat="43.458637" lon="-5.5827584">
        <ele>564.0</ele>
        <time>2021-02-14T10:42:03Z</time>
      </trkpt>
      <trkpt lat="43.458637" lon="-5.582757">
        <ele>564.0</ele>
        <time>2021-02-14T10:42:04Z</time>
      </trkpt>
      <trkpt lat="43.458633" lon="-5.582755">
        <ele>564.0</ele>
        <time>2021-02-14T10:42:05Z</time>
      </trkpt>
      <trkpt lat="43.458622" lon="-5.582748">
        <ele>564.0</ele>
        <time>2021-02-14T10:42:07Z</time>
      </trkpt>
      <trkpt lat="43.45862" lon="-5.582749">
        <ele>564.0</ele>
        <time>2021-02-14T10:42:08Z</time>
      </trkpt>
      <trkpt lat="43.45862" lon="-5.582748">
        <ele>564.0</ele>
        <time>2021-02-14T10:42:09Z</time>
      </trkpt>
      <trkpt lat="43.45861" lon="-5.5827475">
        <ele>564.0</ele>
        <time>2021-02-14T10:42:10Z</time>
      </trkpt>
      <trkpt lat="43.458607" lon="-5.582747">
        <ele>564.0</ele>
        <time>2021-02-14T10:42:11Z</time>
      </trkpt>
      <trkpt lat="43.4586" lon="-5.582747">
        <ele>564.0</ele>
        <time>2021-02-14T10:42:12Z</time>
      </trkpt>
      <trkpt lat="43.458546" lon="-5.582762">
        <ele>566.0</ele>
        <time>2021-02-14T10:42:16Z</time>
      </trkpt>
      <trkpt lat="43.458546" lon="-5.5827637">
        <ele>566.0</ele>
        <time>2021-02-14T10:42:17Z</time>
      </trkpt>
      <trkpt lat="43.458538" lon="-5.5827675">
        <ele>566.0</ele>
        <time>2021-02-14T10:42:18Z</time>
      </trkpt>
      <trkpt lat="43.45853" lon="-5.5827713">
        <ele>566.0</ele>
        <time>2021-02-14T10:42:19Z</time>
      </trkpt>
      <trkpt lat="43.458523" lon="-5.582774">
        <ele>566.0</ele>
        <time>2021-02-14T10:42:20Z</time>
      </trkpt>
      <trkpt lat="43.458515" lon="-5.5827794">
        <ele>566.0</ele>
        <time>2021-02-14T10:42:21Z</time>
      </trkpt>
      <trkpt lat="43.458504" lon="-5.582788">
        <ele>566.0</ele>
        <time>2021-02-14T10:42:22Z</time>
      </trkpt>
      <trkpt lat="43.45849" lon="-5.582796">
        <ele>566.0</ele>
        <time>2021-02-14T10:42:23Z</time>
      </trkpt>
      <trkpt lat="43.458477" lon="-5.5828047">
        <ele>566.0</ele>
        <time>2021-02-14T10:42:24Z</time>
      </trkpt>
      <trkpt lat="43.45846" lon="-5.582811">
        <ele>566.0</ele>
        <time>2021-02-14T10:42:25Z</time>
      </trkpt>
      <trkpt lat="43.458447" lon="-5.5828147">
        <ele>566.0</ele>
        <time>2021-02-14T10:42:26Z</time>
      </trkpt>
      <trkpt lat="43.45843" lon="-5.582815">
        <ele>566.0</ele>
        <time>2021-02-14T10:42:27Z</time>
      </trkpt>
      <trkpt lat="43.458416" lon="-5.5828147">
        <ele>566.0</ele>
        <time>2021-02-14T10:42:28Z</time>
      </trkpt>
      <trkpt lat="43.4584" lon="-5.582814">
        <ele>566.0</ele>
        <time>2021-02-14T10:42:29Z</time>
      </trkpt>
      <trkpt lat="43.458385" lon="-5.5828166">
        <ele>566.0</ele>
        <time>2021-02-14T10:42:30Z</time>
      </trkpt>
      <trkpt lat="43.45837" lon="-5.582821">
        <ele>566.0</ele>
        <time>2021-02-14T10:42:31Z</time>
      </trkpt>
      <trkpt lat="43.458355" lon="-5.582826">
        <ele>567.0</ele>
        <time>2021-02-14T10:42:32Z</time>
      </trkpt>
      <trkpt lat="43.45834" lon="-5.58283">
        <ele>567.0</ele>
        <time>2021-02-14T10:42:33Z</time>
      </trkpt>
      <trkpt lat="43.458324" lon="-5.582835">
        <ele>567.0</ele>
        <time>2021-02-14T10:42:34Z</time>
      </trkpt>
      <trkpt lat="43.45831" lon="-5.582839">
        <ele>567.0</ele>
        <time>2021-02-14T10:42:35Z</time>
      </trkpt>
      <trkpt lat="43.45829" lon="-5.5828433">
        <ele>567.0</ele>
        <time>2021-02-14T10:42:36Z</time>
      </trkpt>
      <trkpt lat="43.458275" lon="-5.582848">
        <ele>567.0</ele>
        <time>2021-02-14T10:42:37Z</time>
      </trkpt>
      <trkpt lat="43.45826" lon="-5.5828524">
        <ele>567.0</ele>
        <time>2021-02-14T10:42:38Z</time>
      </trkpt>
      <trkpt lat="43.458244" lon="-5.5828557">
        <ele>567.0</ele>
        <time>2021-02-14T10:42:39Z</time>
      </trkpt>
      <trkpt lat="43.458233" lon="-5.58286">
        <ele>567.0</ele>
        <time>2021-02-14T10:42:40Z</time>
      </trkpt>
      <trkpt lat="43.458218" lon="-5.582861">
        <ele>567.0</ele>
        <time>2021-02-14T10:42:41Z</time>
      </trkpt>
      <trkpt lat="43.458206" lon="-5.582861">
        <ele>567.0</ele>
        <time>2021-02-14T10:42:42Z</time>
      </trkpt>
      <trkpt lat="43.458195" lon="-5.5828614">
        <ele>567.0</ele>
        <time>2021-02-14T10:42:43Z</time>
      </trkpt>
      <trkpt lat="43.45818" lon="-5.582864">
        <ele>567.0</ele>
        <time>2021-02-14T10:42:44Z</time>
      </trkpt>
      <trkpt lat="43.45817" lon="-5.5828667">
        <ele>567.0</ele>
        <time>2021-02-14T10:42:45Z</time>
      </trkpt>
      <trkpt lat="43.45816" lon="-5.5828695">
        <ele>567.0</ele>
        <time>2021-02-14T10:42:46Z</time>
      </trkpt>
      <trkpt lat="43.458145" lon="-5.582872">
        <ele>567.0</ele>
        <time>2021-02-14T10:42:47Z</time>
      </trkpt>
      <trkpt lat="43.458134" lon="-5.582875">
        <ele>568.0</ele>
        <time>2021-02-14T10:42:48Z</time>
      </trkpt>
      <trkpt lat="43.458126" lon="-5.5828795">
        <ele>568.0</ele>
        <time>2021-02-14T10:42:49Z</time>
      </trkpt>
      <trkpt lat="43.45811" lon="-5.5828834">
        <ele>568.0</ele>
        <time>2021-02-14T10:42:50Z</time>
      </trkpt>
      <trkpt lat="43.4581" lon="-5.5828853">
        <ele>568.0</ele>
        <time>2021-02-14T10:42:51Z</time>
      </trkpt>
      <trkpt lat="43.458088" lon="-5.5828834">
        <ele>568.0</ele>
        <time>2021-02-14T10:42:52Z</time>
      </trkpt>
      <trkpt lat="43.45808" lon="-5.582882">
        <ele>568.0</ele>
        <time>2021-02-14T10:42:53Z</time>
      </trkpt>
      <trkpt lat="43.458065" lon="-5.582884">
        <ele>568.0</ele>
        <time>2021-02-14T10:42:54Z</time>
      </trkpt>
      <trkpt lat="43.458054" lon="-5.5828876">
        <ele>568.0</ele>
        <time>2021-02-14T10:42:55Z</time>
      </trkpt>
      <trkpt lat="43.45804" lon="-5.5828934">
        <ele>569.0</ele>
        <time>2021-02-14T10:42:56Z</time>
      </trkpt>
      <trkpt lat="43.458" lon="-5.582905">
        <ele>569.0</ele>
        <time>2021-02-14T10:42:58Z</time>
      </trkpt>
      <trkpt lat="43.457996" lon="-5.5829067">
        <ele>569.0</ele>
        <time>2021-02-14T10:42:59Z</time>
      </trkpt>
      <trkpt lat="43.457993" lon="-5.5829105">
        <ele>569.0</ele>
        <time>2021-02-14T10:43:00Z</time>
      </trkpt>
      <trkpt lat="43.457985" lon="-5.5829144">
        <ele>569.0</ele>
        <time>2021-02-14T10:43:01Z</time>
      </trkpt>
      <trkpt lat="43.457977" lon="-5.582919">
        <ele>569.0</ele>
        <time>2021-02-14T10:43:02Z</time>
      </trkpt>
      <trkpt lat="43.457966" lon="-5.5829215">
        <ele>570.0</ele>
        <time>2021-02-14T10:43:03Z</time>
      </trkpt>
      <trkpt lat="43.457954" lon="-5.5829234">
        <ele>570.0</ele>
        <time>2021-02-14T10:43:04Z</time>
      </trkpt>
      <trkpt lat="43.45795" lon="-5.5829253">
        <ele>570.0</ele>
        <time>2021-02-14T10:43:05Z</time>
      </trkpt>
      <trkpt lat="43.45794" lon="-5.582927">
        <ele>570.0</ele>
        <time>2021-02-14T10:43:06Z</time>
      </trkpt>
      <trkpt lat="43.45793" lon="-5.582932">
        <ele>570.0</ele>
        <time>2021-02-14T10:43:07Z</time>
      </trkpt>
      <trkpt lat="43.45792" lon="-5.582936">
        <ele>570.0</ele>
        <time>2021-02-14T10:43:08Z</time>
      </trkpt>
      <trkpt lat="43.45791" lon="-5.5829406">
        <ele>570.0</ele>
        <time>2021-02-14T10:43:09Z</time>
      </trkpt>
      <trkpt lat="43.4579" lon="-5.5829434">
        <ele>570.0</ele>
        <time>2021-02-14T10:43:10Z</time>
      </trkpt>
      <trkpt lat="43.45789" lon="-5.5829453">
        <ele>570.0</ele>
        <time>2021-02-14T10:43:11Z</time>
      </trkpt>
      <trkpt lat="43.457886" lon="-5.5829434">
        <ele>570.0</ele>
        <time>2021-02-14T10:43:12Z</time>
      </trkpt>
      <trkpt lat="43.457874" lon="-5.5829434">
        <ele>570.0</ele>
        <time>2021-02-14T10:43:13Z</time>
      </trkpt>
      <trkpt lat="43.45786" lon="-5.582945">
        <ele>570.0</ele>
        <time>2021-02-14T10:43:14Z</time>
      </trkpt>
      <trkpt lat="43.457848" lon="-5.5829473">
        <ele>570.0</ele>
        <time>2021-02-14T10:43:15Z</time>
      </trkpt>
      <trkpt lat="43.457832" lon="-5.5829525">
        <ele>571.0</ele>
        <time>2021-02-14T10:43:16Z</time>
      </trkpt>
      <trkpt lat="43.45782" lon="-5.5829587">
        <ele>571.0</ele>
        <time>2021-02-14T10:43:17Z</time>
      </trkpt>
      <trkpt lat="43.457817" lon="-5.5829678">
        <ele>571.0</ele>
        <time>2021-02-14T10:43:18Z</time>
      </trkpt>
      <trkpt lat="43.457806" lon="-5.582979">
        <ele>571.0</ele>
        <time>2021-02-14T10:43:19Z</time>
      </trkpt>
      <trkpt lat="43.4578" lon="-5.5829854">
        <ele>571.0</ele>
        <time>2021-02-14T10:43:20Z</time>
      </trkpt>
      <trkpt lat="43.45779" lon="-5.5829854">
        <ele>571.0</ele>
        <time>2021-02-14T10:43:21Z</time>
      </trkpt>
      <trkpt lat="43.457787" lon="-5.582978">
        <ele>572.0</ele>
        <time>2021-02-14T10:43:22Z</time>
      </trkpt>
      <trkpt lat="43.457783" lon="-5.582967">
        <ele>572.0</ele>
        <time>2021-02-14T10:43:23Z</time>
      </trkpt>
      <trkpt lat="43.457775" lon="-5.5829606">
        <ele>572.0</ele>
        <time>2021-02-14T10:43:24Z</time>
      </trkpt>
      <trkpt lat="43.457767" lon="-5.582961">
        <ele>572.0</ele>
        <time>2021-02-14T10:43:25Z</time>
      </trkpt>
      <trkpt lat="43.457756" lon="-5.582965">
        <ele>572.0</ele>
        <time>2021-02-14T10:43:26Z</time>
      </trkpt>
      <trkpt lat="43.457745" lon="-5.582967">
        <ele>573.0</ele>
        <time>2021-02-14T10:43:27Z</time>
      </trkpt>
      <trkpt lat="43.45773" lon="-5.5829678">
        <ele>573.0</ele>
        <time>2021-02-14T10:43:28Z</time>
      </trkpt>
      <trkpt lat="43.45772" lon="-5.5829678">
        <ele>573.0</ele>
        <time>2021-02-14T10:43:29Z</time>
      </trkpt>
      <trkpt lat="43.45771" lon="-5.5829697">
        <ele>573.0</ele>
        <time>2021-02-14T10:43:30Z</time>
      </trkpt>
      <trkpt lat="43.4577" lon="-5.582972">
        <ele>573.0</ele>
        <time>2021-02-14T10:43:31Z</time>
      </trkpt>
      <trkpt lat="43.45769" lon="-5.582974">
        <ele>573.0</ele>
        <time>2021-02-14T10:43:32Z</time>
      </trkpt>
      <trkpt lat="43.45768" lon="-5.582976">
        <ele>574.0</ele>
        <time>2021-02-14T10:43:33Z</time>
      </trkpt>
      <trkpt lat="43.45767" lon="-5.582978">
        <ele>574.0</ele>
        <time>2021-02-14T10:43:34Z</time>
      </trkpt>
      <trkpt lat="43.45766" lon="-5.582981">
        <ele>574.0</ele>
        <time>2021-02-14T10:43:35Z</time>
      </trkpt>
      <trkpt lat="43.45765" lon="-5.5829864">
        <ele>574.0</ele>
        <time>2021-02-14T10:43:36Z</time>
      </trkpt>
      <trkpt lat="43.457634" lon="-5.5829935">
        <ele>574.0</ele>
        <time>2021-02-14T10:43:37Z</time>
      </trkpt>
      <trkpt lat="43.457626" lon="-5.583">
        <ele>574.0</ele>
        <time>2021-02-14T10:43:38Z</time>
      </trkpt>
      <trkpt lat="43.45762" lon="-5.583006">
        <ele>574.0</ele>
        <time>2021-02-14T10:43:38Z</time>
      </trkpt>
      <trkpt lat="43.457607" lon="-5.583009">
        <ele>575.0</ele>
        <time>2021-02-14T10:43:39Z</time>
      </trkpt>
      <trkpt lat="43.457596" lon="-5.5830107">
        <ele>575.0</ele>
        <time>2021-02-14T10:43:40Z</time>
      </trkpt>
      <trkpt lat="43.45759" lon="-5.583011">
        <ele>575.0</ele>
        <time>2021-02-14T10:43:41Z</time>
      </trkpt>
      <trkpt lat="43.457577" lon="-5.583011">
        <ele>575.0</ele>
        <time>2021-02-14T10:43:42Z</time>
      </trkpt>
      <trkpt lat="43.457565" lon="-5.5830097">
        <ele>575.0</ele>
        <time>2021-02-14T10:43:43Z</time>
      </trkpt>
      <trkpt lat="43.457558" lon="-5.5830097">
        <ele>575.0</ele>
        <time>2021-02-14T10:43:44Z</time>
      </trkpt>
      <trkpt lat="43.457546" lon="-5.5830116">
        <ele>575.0</ele>
        <time>2021-02-14T10:43:45Z</time>
      </trkpt>
      <trkpt lat="43.457535" lon="-5.5830126">
        <ele>575.0</ele>
        <time>2021-02-14T10:43:46Z</time>
      </trkpt>
      <trkpt lat="43.457527" lon="-5.5830164">
        <ele>576.0</ele>
        <time>2021-02-14T10:43:47Z</time>
      </trkpt>
      <trkpt lat="43.457516" lon="-5.5830216">
        <ele>576.0</ele>
        <time>2021-02-14T10:43:48Z</time>
      </trkpt>
      <trkpt lat="43.457504" lon="-5.5830297">
        <ele>576.0</ele>
        <time>2021-02-14T10:43:49Z</time>
      </trkpt>
      <trkpt lat="43.4575" lon="-5.583039">
        <ele>576.0</ele>
        <time>2021-02-14T10:43:50Z</time>
      </trkpt>
      <trkpt lat="43.45749" lon="-5.583044">
        <ele>576.0</ele>
        <time>2021-02-14T10:43:51Z</time>
      </trkpt>
      <trkpt lat="43.457474" lon="-5.583046">
        <ele>576.0</ele>
        <time>2021-02-14T10:43:52Z</time>
      </trkpt>
      <trkpt lat="43.45746" lon="-5.583047">
        <ele>576.0</ele>
        <time>2021-02-14T10:43:53Z</time>
      </trkpt>
      <trkpt lat="43.45745" lon="-5.58305">
        <ele>576.0</ele>
        <time>2021-02-14T10:43:54Z</time>
      </trkpt>
      <trkpt lat="43.45744" lon="-5.583052">
        <ele>576.0</ele>
        <time>2021-02-14T10:43:55Z</time>
      </trkpt>
      <trkpt lat="43.45743" lon="-5.583054">
        <ele>576.0</ele>
        <time>2021-02-14T10:43:56Z</time>
      </trkpt>
      <trkpt lat="43.457424" lon="-5.583054">
        <ele>576.0</ele>
        <time>2021-02-14T10:43:57Z</time>
      </trkpt>
      <trkpt lat="43.45741" lon="-5.5830545">
        <ele>576.0</ele>
        <time>2021-02-14T10:43:58Z</time>
      </trkpt>
      <trkpt lat="43.4574" lon="-5.583056">
        <ele>576.0</ele>
        <time>2021-02-14T10:43:59Z</time>
      </trkpt>
      <trkpt lat="43.457394" lon="-5.583056">
        <ele>576.0</ele>
        <time>2021-02-14T10:44:00Z</time>
      </trkpt>
      <trkpt lat="43.457382" lon="-5.5830564">
        <ele>576.0</ele>
        <time>2021-02-14T10:44:01Z</time>
      </trkpt>
      <trkpt lat="43.45738" lon="-5.583056">
        <ele>577.0</ele>
        <time>2021-02-14T10:44:02Z</time>
      </trkpt>
      <trkpt lat="43.45737" lon="-5.583056">
        <ele>577.0</ele>
        <time>2021-02-14T10:44:03Z</time>
      </trkpt>
      <trkpt lat="43.457363" lon="-5.5830574">
        <ele>577.0</ele>
        <time>2021-02-14T10:44:04Z</time>
      </trkpt>
      <trkpt lat="43.457355" lon="-5.583058">
        <ele>577.0</ele>
        <time>2021-02-14T10:44:05Z</time>
      </trkpt>
      <trkpt lat="43.457348" lon="-5.5830584">
        <ele>577.0</ele>
        <time>2021-02-14T10:44:06Z</time>
      </trkpt>
      <trkpt lat="43.45734" lon="-5.58306">
        <ele>577.0</ele>
        <time>2021-02-14T10:44:07Z</time>
      </trkpt>
      <trkpt lat="43.457333" lon="-5.5830617">
        <ele>577.0</ele>
        <time>2021-02-14T10:44:08Z</time>
      </trkpt>
      <trkpt lat="43.457325" lon="-5.5830646">
        <ele>577.0</ele>
        <time>2021-02-14T10:44:09Z</time>
      </trkpt>
      <trkpt lat="43.457317" lon="-5.583065">
        <ele>578.0</ele>
        <time>2021-02-14T10:44:10Z</time>
      </trkpt>
      <trkpt lat="43.457306" lon="-5.5830655">
        <ele>578.0</ele>
        <time>2021-02-14T10:44:11Z</time>
      </trkpt>
      <trkpt lat="43.457302" lon="-5.583065">
        <ele>578.0</ele>
        <time>2021-02-14T10:44:12Z</time>
      </trkpt>
      <trkpt lat="43.45729" lon="-5.583063">
        <ele>578.0</ele>
        <time>2021-02-14T10:44:13Z</time>
      </trkpt>
      <trkpt lat="43.45728" lon="-5.5830617">
        <ele>578.0</ele>
        <time>2021-02-14T10:44:14Z</time>
      </trkpt>
      <trkpt lat="43.45727" lon="-5.58306">
        <ele>578.0</ele>
        <time>2021-02-14T10:44:15Z</time>
      </trkpt>
      <trkpt lat="43.45726" lon="-5.583058">
        <ele>578.0</ele>
        <time>2021-02-14T10:44:16Z</time>
      </trkpt>
      <trkpt lat="43.45725" lon="-5.583056">
        <ele>578.0</ele>
        <time>2021-02-14T10:44:17Z</time>
      </trkpt>
      <trkpt lat="43.457237" lon="-5.583056">
        <ele>578.0</ele>
        <time>2021-02-14T10:44:18Z</time>
      </trkpt>
      <trkpt lat="43.457233" lon="-5.5830584">
        <ele>578.0</ele>
        <time>2021-02-14T10:44:19Z</time>
      </trkpt>
      <trkpt lat="43.457222" lon="-5.583062">
        <ele>579.0</ele>
        <time>2021-02-14T10:44:20Z</time>
      </trkpt>
      <trkpt lat="43.457214" lon="-5.5830655">
        <ele>579.0</ele>
        <time>2021-02-14T10:44:21Z</time>
      </trkpt>
      <trkpt lat="43.457203" lon="-5.583067">
        <ele>579.0</ele>
        <time>2021-02-14T10:44:22Z</time>
      </trkpt>
      <trkpt lat="43.45719" lon="-5.5830703">
        <ele>579.0</ele>
        <time>2021-02-14T10:44:23Z</time>
      </trkpt>
      <trkpt lat="43.457184" lon="-5.583075">
        <ele>580.0</ele>
        <time>2021-02-14T10:44:24Z</time>
      </trkpt>
      <trkpt lat="43.457172" lon="-5.583079">
        <ele>580.0</ele>
        <time>2021-02-14T10:44:25Z</time>
      </trkpt>
      <trkpt lat="43.45716" lon="-5.5830827">
        <ele>580.0</ele>
        <time>2021-02-14T10:44:26Z</time>
      </trkpt>
      <trkpt lat="43.457153" lon="-5.5830865">
        <ele>580.0</ele>
        <time>2021-02-14T10:44:27Z</time>
      </trkpt>
      <trkpt lat="43.45714" lon="-5.5830894">
        <ele>580.0</ele>
        <time>2021-02-14T10:44:28Z</time>
      </trkpt>
      <trkpt lat="43.45713" lon="-5.5830917">
        <ele>580.0</ele>
        <time>2021-02-14T10:44:29Z</time>
      </trkpt>
      <trkpt lat="43.457127" lon="-5.5830936">
        <ele>580.0</ele>
        <time>2021-02-14T10:44:30Z</time>
      </trkpt>
      <trkpt lat="43.457123" lon="-5.583095">
        <ele>581.0</ele>
        <time>2021-02-14T10:44:31Z</time>
      </trkpt>
      <trkpt lat="43.45711" lon="-5.5830956">
        <ele>581.0</ele>
        <time>2021-02-14T10:44:32Z</time>
      </trkpt>
      <trkpt lat="43.457108" lon="-5.5830975">
        <ele>581.0</ele>
        <time>2021-02-14T10:44:33Z</time>
      </trkpt>
      <trkpt lat="43.457096" lon="-5.5831013">
        <ele>581.0</ele>
        <time>2021-02-14T10:44:34Z</time>
      </trkpt>
      <trkpt lat="43.457085" lon="-5.583109">
        <ele>581.0</ele>
        <time>2021-02-14T10:44:35Z</time>
      </trkpt>
      <trkpt lat="43.457077" lon="-5.583118">
        <ele>581.0</ele>
        <time>2021-02-14T10:44:36Z</time>
      </trkpt>
      <trkpt lat="43.457066" lon="-5.5831256">
        <ele>581.0</ele>
        <time>2021-02-14T10:44:37Z</time>
      </trkpt>
      <trkpt lat="43.457058" lon="-5.5831313">
        <ele>581.0</ele>
        <time>2021-02-14T10:44:38Z</time>
      </trkpt>
      <trkpt lat="43.45705" lon="-5.583136">
        <ele>581.0</ele>
        <time>2021-02-14T10:44:39Z</time>
      </trkpt>
      <trkpt lat="43.45704" lon="-5.5831394">
        <ele>581.0</ele>
        <time>2021-02-14T10:44:40Z</time>
      </trkpt>
      <trkpt lat="43.457035" lon="-5.5831413">
        <ele>581.0</ele>
        <time>2021-02-14T10:44:41Z</time>
      </trkpt>
      <trkpt lat="43.457024" lon="-5.583145">
        <ele>581.0</ele>
        <time>2021-02-14T10:44:42Z</time>
      </trkpt>
      <trkpt lat="43.45702" lon="-5.583148">
        <ele>581.0</ele>
        <time>2021-02-14T10:44:43Z</time>
      </trkpt>
      <trkpt lat="43.45701" lon="-5.58315">
        <ele>581.0</ele>
        <time>2021-02-14T10:44:44Z</time>
      </trkpt>
      <trkpt lat="43.457005" lon="-5.5831513">
        <ele>582.0</ele>
        <time>2021-02-14T10:44:45Z</time>
      </trkpt>
      <trkpt lat="43.456993" lon="-5.5831513">
        <ele>582.0</ele>
        <time>2021-02-14T10:44:46Z</time>
      </trkpt>
      <trkpt lat="43.45699" lon="-5.5831494">
        <ele>582.0</ele>
        <time>2021-02-14T10:44:47Z</time>
      </trkpt>
      <trkpt lat="43.45698" lon="-5.583148">
        <ele>582.0</ele>
        <time>2021-02-14T10:44:48Z</time>
      </trkpt>
      <trkpt lat="43.456974" lon="-5.583149">
        <ele>582.0</ele>
        <time>2021-02-14T10:44:49Z</time>
      </trkpt>
      <trkpt lat="43.456966" lon="-5.583153">
        <ele>582.0</ele>
        <time>2021-02-14T10:44:50Z</time>
      </trkpt>
      <trkpt lat="43.45696" lon="-5.5831547">
        <ele>583.0</ele>
        <time>2021-02-14T10:44:51Z</time>
      </trkpt>
      <trkpt lat="43.45695" lon="-5.583157">
        <ele>583.0</ele>
        <time>2021-02-14T10:44:52Z</time>
      </trkpt>
      <trkpt lat="43.456944" lon="-5.583159">
        <ele>583.0</ele>
        <time>2021-02-14T10:44:53Z</time>
      </trkpt>
      <trkpt lat="43.456932" lon="-5.583162">
        <ele>583.0</ele>
        <time>2021-02-14T10:44:54Z</time>
      </trkpt>
      <trkpt lat="43.45692" lon="-5.5831637">
        <ele>583.0</ele>
        <time>2021-02-14T10:44:55Z</time>
      </trkpt>
      <trkpt lat="43.456917" lon="-5.5831647">
        <ele>584.0</ele>
        <time>2021-02-14T10:44:56Z</time>
      </trkpt>
      <trkpt lat="43.456913" lon="-5.583166">
        <ele>584.0</ele>
        <time>2021-02-14T10:44:57Z</time>
      </trkpt>
      <trkpt lat="43.4569" lon="-5.5831666">
        <ele>584.0</ele>
        <time>2021-02-14T10:44:58Z</time>
      </trkpt>
      <trkpt lat="43.456898" lon="-5.5831685">
        <ele>584.0</ele>
        <time>2021-02-14T10:44:59Z</time>
      </trkpt>
      <trkpt lat="43.45689" lon="-5.5831685">
        <ele>584.0</ele>
        <time>2021-02-14T10:45:00Z</time>
      </trkpt>
      <trkpt lat="43.456886" lon="-5.5831666">
        <ele>585.0</ele>
        <time>2021-02-14T10:45:01Z</time>
      </trkpt>
      <trkpt lat="43.456882" lon="-5.5831647">
        <ele>585.0</ele>
        <time>2021-02-14T10:45:02Z</time>
      </trkpt>
      <trkpt lat="43.456875" lon="-5.5831637">
        <ele>585.0</ele>
        <time>2021-02-14T10:45:03Z</time>
      </trkpt>
      <trkpt lat="43.456863" lon="-5.583164">
        <ele>585.0</ele>
        <time>2021-02-14T10:45:04Z</time>
      </trkpt>
      <trkpt lat="43.45686" lon="-5.5831666">
        <ele>585.0</ele>
        <time>2021-02-14T10:45:05Z</time>
      </trkpt>
      <trkpt lat="43.45685" lon="-5.5831695">
        <ele>585.0</ele>
        <time>2021-02-14T10:45:06Z</time>
      </trkpt>
      <trkpt lat="43.456844" lon="-5.58317">
        <ele>586.0</ele>
        <time>2021-02-14T10:45:07Z</time>
      </trkpt>
      <trkpt lat="43.456833" lon="-5.5831723">
        <ele>586.0</ele>
        <time>2021-02-14T10:45:08Z</time>
      </trkpt>
      <trkpt lat="43.45683" lon="-5.5831738">
        <ele>586.0</ele>
        <time>2021-02-14T10:45:09Z</time>
      </trkpt>
      <trkpt lat="43.456825" lon="-5.583175">
        <ele>586.0</ele>
        <time>2021-02-14T10:45:10Z</time>
      </trkpt>
      <trkpt lat="43.456814" lon="-5.583174">
        <ele>586.0</ele>
        <time>2021-02-14T10:45:11Z</time>
      </trkpt>
      <trkpt lat="43.45681" lon="-5.583175">
        <ele>586.0</ele>
        <time>2021-02-14T10:45:12Z</time>
      </trkpt>
      <trkpt lat="43.456802" lon="-5.583174">
        <ele>586.0</ele>
        <time>2021-02-14T10:45:13Z</time>
      </trkpt>
      <trkpt lat="43.4568" lon="-5.5831723">
        <ele>586.0</ele>
        <time>2021-02-14T10:45:14Z</time>
      </trkpt>
      <trkpt lat="43.456795" lon="-5.5831714">
        <ele>586.0</ele>
        <time>2021-02-14T10:45:15Z</time>
      </trkpt>
      <trkpt lat="43.456783" lon="-5.5831723">
        <ele>586.0</ele>
        <time>2021-02-14T10:45:16Z</time>
      </trkpt>
      <trkpt lat="43.45678" lon="-5.583174">
        <ele>586.0</ele>
        <time>2021-02-14T10:45:17Z</time>
      </trkpt>
      <trkpt lat="43.456768" lon="-5.5831757">
        <ele>586.0</ele>
        <time>2021-02-14T10:45:18Z</time>
      </trkpt>
      <trkpt lat="43.456757" lon="-5.583177">
        <ele>587.0</ele>
        <time>2021-02-14T10:45:20Z</time>
      </trkpt>
      <trkpt lat="43.45675" lon="-5.583176">
        <ele>587.0</ele>
        <time>2021-02-14T10:45:20Z</time>
      </trkpt>
      <trkpt lat="43.456738" lon="-5.583176">
        <ele>587.0</ele>
        <time>2021-02-14T10:45:21Z</time>
      </trkpt>
      <trkpt lat="43.456726" lon="-5.5831776">
        <ele>587.0</ele>
        <time>2021-02-14T10:45:22Z</time>
      </trkpt>
      <trkpt lat="43.45672" lon="-5.5831814">
        <ele>587.0</ele>
        <time>2021-02-14T10:45:23Z</time>
      </trkpt>
      <trkpt lat="43.45671" lon="-5.5831847">
        <ele>587.0</ele>
        <time>2021-02-14T10:45:24Z</time>
      </trkpt>
      <trkpt lat="43.456703" lon="-5.583189">
        <ele>587.0</ele>
        <time>2021-02-14T10:45:25Z</time>
      </trkpt>
      <trkpt lat="43.456696" lon="-5.5831923">
        <ele>587.0</ele>
        <time>2021-02-14T10:45:26Z</time>
      </trkpt>
      <trkpt lat="43.456688" lon="-5.583196">
        <ele>587.0</ele>
        <time>2021-02-14T10:45:27Z</time>
      </trkpt>
      <trkpt lat="43.456676" lon="-5.5832">
        <ele>587.0</ele>
        <time>2021-02-14T10:45:28Z</time>
      </trkpt>
      <trkpt lat="43.456665" lon="-5.5832024">
        <ele>588.0</ele>
        <time>2021-02-14T10:45:29Z</time>
      </trkpt>
      <trkpt lat="43.456654" lon="-5.5832057">
        <ele>588.0</ele>
        <time>2021-02-14T10:45:30Z</time>
      </trkpt>
      <trkpt lat="43.456646" lon="-5.583206">
        <ele>588.0</ele>
        <time>2021-02-14T10:45:31Z</time>
      </trkpt>
      <trkpt lat="43.456635" lon="-5.5832076">
        <ele>588.0</ele>
        <time>2021-02-14T10:45:32Z</time>
      </trkpt>
      <trkpt lat="43.456623" lon="-5.583211">
        <ele>588.0</ele>
        <time>2021-02-14T10:45:33Z</time>
      </trkpt>
      <trkpt lat="43.456615" lon="-5.5832143">
        <ele>588.0</ele>
        <time>2021-02-14T10:45:34Z</time>
      </trkpt>
      <trkpt lat="43.456604" lon="-5.583217">
        <ele>588.0</ele>
        <time>2021-02-14T10:45:35Z</time>
      </trkpt>
      <trkpt lat="43.456593" lon="-5.5832205">
        <ele>588.0</ele>
        <time>2021-02-14T10:45:36Z</time>
      </trkpt>
      <trkpt lat="43.456585" lon="-5.583225">
        <ele>589.0</ele>
        <time>2021-02-14T10:45:37Z</time>
      </trkpt>
      <trkpt lat="43.456573" lon="-5.583226">
        <ele>589.0</ele>
        <time>2021-02-14T10:45:38Z</time>
      </trkpt>
      <trkpt lat="43.45657" lon="-5.5832267">
        <ele>589.0</ele>
        <time>2021-02-14T10:45:39Z</time>
      </trkpt>
      <trkpt lat="43.45656" lon="-5.5832276">
        <ele>589.0</ele>
        <time>2021-02-14T10:45:40Z</time>
      </trkpt>
      <trkpt lat="43.456554" lon="-5.5832276">
        <ele>589.0</ele>
        <time>2021-02-14T10:45:41Z</time>
      </trkpt>
      <trkpt lat="43.456543" lon="-5.583226">
        <ele>590.0</ele>
        <time>2021-02-14T10:45:42Z</time>
      </trkpt>
      <trkpt lat="43.45654" lon="-5.583225">
        <ele>590.0</ele>
        <time>2021-02-14T10:45:43Z</time>
      </trkpt>
      <trkpt lat="43.45653" lon="-5.5832257">
        <ele>590.0</ele>
        <time>2021-02-14T10:45:44Z</time>
      </trkpt>
      <trkpt lat="43.456528" lon="-5.5832267">
        <ele>590.0</ele>
        <time>2021-02-14T10:45:45Z</time>
      </trkpt>
      <trkpt lat="43.456524" lon="-5.583228">
        <ele>590.0</ele>
        <time>2021-02-14T10:45:46Z</time>
      </trkpt>
      <trkpt lat="43.456524" lon="-5.5832295">
        <ele>590.0</ele>
        <time>2021-02-14T10:45:47Z</time>
      </trkpt>
      <trkpt lat="43.456516" lon="-5.5832286">
        <ele>591.0</ele>
        <time>2021-02-14T10:45:48Z</time>
      </trkpt>
      <trkpt lat="43.456512" lon="-5.583228">
        <ele>591.0</ele>
        <time>2021-02-14T10:45:49Z</time>
      </trkpt>
      <trkpt lat="43.45651" lon="-5.5832295">
        <ele>591.0</ele>
        <time>2021-02-14T10:45:50Z</time>
      </trkpt>
      <trkpt lat="43.456497" lon="-5.5832295">
        <ele>591.0</ele>
        <time>2021-02-14T10:45:51Z</time>
      </trkpt>
      <trkpt lat="43.456493" lon="-5.5832295">
        <ele>591.0</ele>
        <time>2021-02-14T10:45:52Z</time>
      </trkpt>
      <trkpt lat="43.456486" lon="-5.5832286">
        <ele>591.0</ele>
        <time>2021-02-14T10:45:53Z</time>
      </trkpt>
      <trkpt lat="43.456474" lon="-5.5832286">
        <ele>591.0</ele>
        <time>2021-02-14T10:45:54Z</time>
      </trkpt>
      <trkpt lat="43.456467" lon="-5.583228">
        <ele>591.0</ele>
        <time>2021-02-14T10:45:55Z</time>
      </trkpt>
      <trkpt lat="43.456455" lon="-5.5832286">
        <ele>591.0</ele>
        <time>2021-02-14T10:45:56Z</time>
      </trkpt>
      <trkpt lat="43.456444" lon="-5.5832295">
        <ele>591.0</ele>
        <time>2021-02-14T10:45:57Z</time>
      </trkpt>
      <trkpt lat="43.45643" lon="-5.58323">
        <ele>591.0</ele>
        <time>2021-02-14T10:45:58Z</time>
      </trkpt>
      <trkpt lat="43.456413" lon="-5.5832305">
        <ele>591.0</ele>
        <time>2021-02-14T10:45:59Z</time>
      </trkpt>
      <trkpt lat="43.456398" lon="-5.5832295">
        <ele>591.0</ele>
        <time>2021-02-14T10:46:00Z</time>
      </trkpt>
      <trkpt lat="43.456383" lon="-5.5832267">
        <ele>591.0</ele>
        <time>2021-02-14T10:46:01Z</time>
      </trkpt>
      <trkpt lat="43.456367" lon="-5.5832243">
        <ele>591.0</ele>
        <time>2021-02-14T10:46:02Z</time>
      </trkpt>
      <trkpt lat="43.456352" lon="-5.583223">
        <ele>591.0</ele>
        <time>2021-02-14T10:46:03Z</time>
      </trkpt>
      <trkpt lat="43.456337" lon="-5.583223">
        <ele>592.0</ele>
        <time>2021-02-14T10:46:04Z</time>
      </trkpt>
      <trkpt lat="43.45632" lon="-5.5832224">
        <ele>592.0</ele>
        <time>2021-02-14T10:46:05Z</time>
      </trkpt>
      <trkpt lat="43.456306" lon="-5.5832224">
        <ele>592.0</ele>
        <time>2021-02-14T10:46:06Z</time>
      </trkpt>
      <trkpt lat="43.45629" lon="-5.583222">
        <ele>592.0</ele>
        <time>2021-02-14T10:46:07Z</time>
      </trkpt>
      <trkpt lat="43.45628" lon="-5.583223">
        <ele>592.0</ele>
        <time>2021-02-14T10:46:08Z</time>
      </trkpt>
      <trkpt lat="43.456264" lon="-5.5832276">
        <ele>592.0</ele>
        <time>2021-02-14T10:46:09Z</time>
      </trkpt>
      <trkpt lat="43.456257" lon="-5.5832324">
        <ele>592.0</ele>
        <time>2021-02-14T10:46:10Z</time>
      </trkpt>
      <trkpt lat="43.45624" lon="-5.583237">
        <ele>592.0</ele>
        <time>2021-02-14T10:46:11Z</time>
      </trkpt>
      <trkpt lat="43.456226" lon="-5.583241">
        <ele>592.0</ele>
        <time>2021-02-14T10:46:12Z</time>
      </trkpt>
      <trkpt lat="43.456215" lon="-5.583245">
        <ele>592.0</ele>
        <time>2021-02-14T10:46:13Z</time>
      </trkpt>
      <trkpt lat="43.4562" lon="-5.583249">
        <ele>592.0</ele>
        <time>2021-02-14T10:46:14Z</time>
      </trkpt>
      <trkpt lat="43.45619" lon="-5.583253">
        <ele>592.0</ele>
        <time>2021-02-14T10:46:15Z</time>
      </trkpt>
      <trkpt lat="43.456173" lon="-5.583256">
        <ele>592.0</ele>
        <time>2021-02-14T10:46:16Z</time>
      </trkpt>
      <trkpt lat="43.456165" lon="-5.583255">
        <ele>592.0</ele>
        <time>2021-02-14T10:46:17Z</time>
      </trkpt>
      <trkpt lat="43.45615" lon="-5.5832524">
        <ele>592.0</ele>
        <time>2021-02-14T10:46:18Z</time>
      </trkpt>
      <trkpt lat="43.45614" lon="-5.58325">
        <ele>592.0</ele>
        <time>2021-02-14T10:46:19Z</time>
      </trkpt>
      <trkpt lat="43.456127" lon="-5.583247">
        <ele>592.0</ele>
        <time>2021-02-14T10:46:20Z</time>
      </trkpt>
      <trkpt lat="43.45612" lon="-5.5832434">
        <ele>592.0</ele>
        <time>2021-02-14T10:46:21Z</time>
      </trkpt>
      <trkpt lat="43.45611" lon="-5.5832415">
        <ele>592.0</ele>
        <time>2021-02-14T10:46:22Z</time>
      </trkpt>
      <trkpt lat="43.456097" lon="-5.583237">
        <ele>592.0</ele>
        <time>2021-02-14T10:46:23Z</time>
      </trkpt>
      <trkpt lat="43.456085" lon="-5.583234">
        <ele>592.0</ele>
        <time>2021-02-14T10:46:24Z</time>
      </trkpt>
      <trkpt lat="43.456078" lon="-5.58323">
        <ele>592.0</ele>
        <time>2021-02-14T10:46:25Z</time>
      </trkpt>
      <trkpt lat="43.456066" lon="-5.5832276">
        <ele>592.0</ele>
        <time>2021-02-14T10:46:26Z</time>
      </trkpt>
      <trkpt lat="43.456055" lon="-5.5832276">
        <ele>592.0</ele>
        <time>2021-02-14T10:46:27Z</time>
      </trkpt>
      <trkpt lat="43.45605" lon="-5.5832286">
        <ele>592.0</ele>
        <time>2021-02-14T10:46:28Z</time>
      </trkpt>
      <trkpt lat="43.456047" lon="-5.5832286">
        <ele>592.0</ele>
        <time>2021-02-14T10:46:29Z</time>
      </trkpt>
      <trkpt lat="43.45604" lon="-5.583226">
        <ele>592.0</ele>
        <time>2021-02-14T10:46:30Z</time>
      </trkpt>
      <trkpt lat="43.456036" lon="-5.583222">
        <ele>592.0</ele>
        <time>2021-02-14T10:46:31Z</time>
      </trkpt>
      <trkpt lat="43.456024" lon="-5.583216">
        <ele>592.0</ele>
        <time>2021-02-14T10:46:32Z</time>
      </trkpt>
      <trkpt lat="43.45601" lon="-5.583208">
        <ele>592.0</ele>
        <time>2021-02-14T10:46:33Z</time>
      </trkpt>
      <trkpt lat="43.456" lon="-5.583202">
        <ele>592.0</ele>
        <time>2021-02-14T10:46:34Z</time>
      </trkpt>
      <trkpt lat="43.455986" lon="-5.5831966">
        <ele>592.0</ele>
        <time>2021-02-14T10:46:35Z</time>
      </trkpt>
      <trkpt lat="43.45597" lon="-5.583191">
        <ele>592.0</ele>
        <time>2021-02-14T10:46:36Z</time>
      </trkpt>
      <trkpt lat="43.45596" lon="-5.583185">
        <ele>592.0</ele>
        <time>2021-02-14T10:46:37Z</time>
      </trkpt>
      <trkpt lat="43.455944" lon="-5.5831814">
        <ele>592.0</ele>
        <time>2021-02-14T10:46:38Z</time>
      </trkpt>
      <trkpt lat="43.45593" lon="-5.5831776">
        <ele>592.0</ele>
        <time>2021-02-14T10:46:39Z</time>
      </trkpt>
      <trkpt lat="43.455917" lon="-5.583174">
        <ele>592.0</ele>
        <time>2021-02-14T10:46:40Z</time>
      </trkpt>
      <trkpt lat="43.455902" lon="-5.58317">
        <ele>592.0</ele>
        <time>2021-02-14T10:46:41Z</time>
      </trkpt>
      <trkpt lat="43.45589" lon="-5.5831656">
        <ele>592.0</ele>
        <time>2021-02-14T10:46:42Z</time>
      </trkpt>
      <trkpt lat="43.455883" lon="-5.583159">
        <ele>592.0</ele>
        <time>2021-02-14T10:46:43Z</time>
      </trkpt>
      <trkpt lat="43.455868" lon="-5.583152">
        <ele>592.0</ele>
        <time>2021-02-14T10:46:44Z</time>
      </trkpt>
      <trkpt lat="43.455856" lon="-5.583145">
        <ele>592.0</ele>
        <time>2021-02-14T10:46:45Z</time>
      </trkpt>
      <trkpt lat="43.455845" lon="-5.58314">
        <ele>592.0</ele>
        <time>2021-02-14T10:46:46Z</time>
      </trkpt>
      <trkpt lat="43.455837" lon="-5.583136">
        <ele>592.0</ele>
        <time>2021-02-14T10:46:47Z</time>
      </trkpt>
      <trkpt lat="43.45583" lon="-5.5831313">
        <ele>592.0</ele>
        <time>2021-02-14T10:46:48Z</time>
      </trkpt>
      <trkpt lat="43.455822" lon="-5.583127">
        <ele>592.0</ele>
        <time>2021-02-14T10:46:49Z</time>
      </trkpt>
      <trkpt lat="43.45581" lon="-5.583122">
        <ele>592.0</ele>
        <time>2021-02-14T10:46:50Z</time>
      </trkpt>
      <trkpt lat="43.455807" lon="-5.5831156">
        <ele>592.0</ele>
        <time>2021-02-14T10:46:51Z</time>
      </trkpt>
      <trkpt lat="43.455795" lon="-5.58311">
        <ele>592.0</ele>
        <time>2021-02-14T10:46:52Z</time>
      </trkpt>
      <trkpt lat="43.455784" lon="-5.583104">
        <ele>592.0</ele>
        <time>2021-02-14T10:46:53Z</time>
      </trkpt>
      <trkpt lat="43.45577" lon="-5.5830984">
        <ele>592.0</ele>
        <time>2021-02-14T10:46:54Z</time>
      </trkpt>
      <trkpt lat="43.45576" lon="-5.5830917">
        <ele>592.0</ele>
        <time>2021-02-14T10:46:55Z</time>
      </trkpt>
      <trkpt lat="43.455746" lon="-5.5830836">
        <ele>592.0</ele>
        <time>2021-02-14T10:46:56Z</time>
      </trkpt>
      <trkpt lat="43.455734" lon="-5.583075">
        <ele>592.0</ele>
        <time>2021-02-14T10:46:57Z</time>
      </trkpt>
      <trkpt lat="43.455723" lon="-5.5830684">
        <ele>592.0</ele>
        <time>2021-02-14T10:46:58Z</time>
      </trkpt>
      <trkpt lat="43.455708" lon="-5.583063">
        <ele>592.0</ele>
        <time>2021-02-14T10:46:59Z</time>
      </trkpt>
      <trkpt lat="43.455696" lon="-5.5830593">
        <ele>592.0</ele>
        <time>2021-02-14T10:47:00Z</time>
      </trkpt>
      <trkpt lat="43.45569" lon="-5.5830574">
        <ele>592.0</ele>
        <time>2021-02-14T10:47:01Z</time>
      </trkpt>
      <trkpt lat="43.455673" lon="-5.5830564">
        <ele>592.0</ele>
        <time>2021-02-14T10:47:02Z</time>
      </trkpt>
      <trkpt lat="43.45566" lon="-5.5830564">
        <ele>592.0</ele>
        <time>2021-02-14T10:47:03Z</time>
      </trkpt>
      <trkpt lat="43.45565" lon="-5.583058">
        <ele>592.0</ele>
        <time>2021-02-14T10:47:04Z</time>
      </trkpt>
      <trkpt lat="43.455647" lon="-5.5830584">
        <ele>592.0</ele>
        <time>2021-02-14T10:47:05Z</time>
      </trkpt>
      <trkpt lat="43.455643" lon="-5.583058">
        <ele>592.0</ele>
        <time>2021-02-14T10:47:06Z</time>
      </trkpt>
      <trkpt lat="43.45563" lon="-5.5830593">
        <ele>592.0</ele>
        <time>2021-02-14T10:47:07Z</time>
      </trkpt>
      <trkpt lat="43.455627" lon="-5.583061">
        <ele>592.0</ele>
        <time>2021-02-14T10:47:08Z</time>
      </trkpt>
      <trkpt lat="43.455616" lon="-5.583063">
        <ele>592.0</ele>
        <time>2021-02-14T10:47:09Z</time>
      </trkpt>
      <trkpt lat="43.455605" lon="-5.5830655">
        <ele>592.0</ele>
        <time>2021-02-14T10:47:10Z</time>
      </trkpt>
      <trkpt lat="43.455597" lon="-5.5830684">
        <ele>592.0</ele>
        <time>2021-02-14T10:47:11Z</time>
      </trkpt>
      <trkpt lat="43.455585" lon="-5.583071">
        <ele>592.0</ele>
        <time>2021-02-14T10:47:12Z</time>
      </trkpt>
      <trkpt lat="43.455574" lon="-5.5830765">
        <ele>592.0</ele>
        <time>2021-02-14T10:47:13Z</time>
      </trkpt>
      <trkpt lat="43.45557" lon="-5.5830817">
        <ele>592.0</ele>
        <time>2021-02-14T10:47:14Z</time>
      </trkpt>
      <trkpt lat="43.45556" lon="-5.583086">
        <ele>592.0</ele>
        <time>2021-02-14T10:47:15Z</time>
      </trkpt>
      <trkpt lat="43.455555" lon="-5.5830894">
        <ele>592.0</ele>
        <time>2021-02-14T10:47:16Z</time>
      </trkpt>
      <trkpt lat="43.455544" lon="-5.5830913">
        <ele>592.0</ele>
        <time>2021-02-14T10:47:17Z</time>
      </trkpt>
      <trkpt lat="43.455536" lon="-5.5830913">
        <ele>592.0</ele>
        <time>2021-02-14T10:47:18Z</time>
      </trkpt>
      <trkpt lat="43.455524" lon="-5.583091">
        <ele>592.0</ele>
        <time>2021-02-14T10:47:19Z</time>
      </trkpt>
      <trkpt lat="43.45551" lon="-5.5830894">
        <ele>592.0</ele>
        <time>2021-02-14T10:47:20Z</time>
      </trkpt>
      <trkpt lat="43.455498" lon="-5.5830855">
        <ele>592.0</ele>
        <time>2021-02-14T10:47:21Z</time>
      </trkpt>
      <trkpt lat="43.455482" lon="-5.583081">
        <ele>592.0</ele>
        <time>2021-02-14T10:47:22Z</time>
      </trkpt>
      <trkpt lat="43.455467" lon="-5.583076">
        <ele>592.0</ele>
        <time>2021-02-14T10:47:23Z</time>
      </trkpt>
      <trkpt lat="43.455452" lon="-5.5830708">
        <ele>592.0</ele>
        <time>2021-02-14T10:47:24Z</time>
      </trkpt>
      <trkpt lat="43.45544" lon="-5.583065">
        <ele>592.0</ele>
        <time>2021-02-14T10:47:25Z</time>
      </trkpt>
      <trkpt lat="43.455433" lon="-5.58306">
        <ele>592.0</ele>
        <time>2021-02-14T10:47:26Z</time>
      </trkpt>
      <trkpt lat="43.45542" lon="-5.5830536">
        <ele>592.0</ele>
        <time>2021-02-14T10:47:27Z</time>
      </trkpt>
      <trkpt lat="43.45541" lon="-5.5830483">
        <ele>592.0</ele>
        <time>2021-02-14T10:47:28Z</time>
      </trkpt>
      <trkpt lat="43.455406" lon="-5.5830426">
        <ele>592.0</ele>
        <time>2021-02-14T10:47:29Z</time>
      </trkpt>
      <trkpt lat="43.455395" lon="-5.583039">
        <ele>592.0</ele>
        <time>2021-02-14T10:47:30Z</time>
      </trkpt>
      <trkpt lat="43.45539" lon="-5.583035">
        <ele>592.0</ele>
        <time>2021-02-14T10:47:31Z</time>
      </trkpt>
      <trkpt lat="43.45538" lon="-5.5830216">
        <ele>592.0</ele>
        <time>2021-02-14T10:47:33Z</time>
      </trkpt>
      <trkpt lat="43.455376" lon="-5.58302">
        <ele>592.0</ele>
        <time>2021-02-14T10:47:34Z</time>
      </trkpt>
      <trkpt lat="43.45537" lon="-5.583017">
        <ele>592.0</ele>
        <time>2021-02-14T10:47:35Z</time>
      </trkpt>
      <trkpt lat="43.455364" lon="-5.5830116">
        <ele>592.0</ele>
        <time>2021-02-14T10:47:36Z</time>
      </trkpt>
      <trkpt lat="43.455357" lon="-5.5830073">
        <ele>592.0</ele>
        <time>2021-02-14T10:47:37Z</time>
      </trkpt>
      <trkpt lat="43.45535" lon="-5.583001">
        <ele>592.0</ele>
        <time>2021-02-14T10:47:38Z</time>
      </trkpt>
      <trkpt lat="43.45534" lon="-5.5829954">
        <ele>592.0</ele>
        <time>2021-02-14T10:47:39Z</time>
      </trkpt>
      <trkpt lat="43.45533" lon="-5.582991">
        <ele>592.0</ele>
        <time>2021-02-14T10:47:40Z</time>
      </trkpt>
      <trkpt lat="43.455322" lon="-5.582989">
        <ele>592.0</ele>
        <time>2021-02-14T10:47:41Z</time>
      </trkpt>
      <trkpt lat="43.4553" lon="-5.5829697">
        <ele>592.0</ele>
        <time>2021-02-14T10:47:43Z</time>
      </trkpt>
      <trkpt lat="43.45529" lon="-5.582967">
        <ele>592.0</ele>
        <time>2021-02-14T10:47:44Z</time>
      </trkpt>
      <trkpt lat="43.45529" lon="-5.582962">
        <ele>592.0</ele>
        <time>2021-02-14T10:47:45Z</time>
      </trkpt>
      <trkpt lat="43.455288" lon="-5.5829544">
        <ele>592.0</ele>
        <time>2021-02-14T10:47:46Z</time>
      </trkpt>
      <trkpt lat="43.455284" lon="-5.582945">
        <ele>592.0</ele>
        <time>2021-02-14T10:47:47Z</time>
      </trkpt>
      <trkpt lat="43.455276" lon="-5.582934">
        <ele>592.0</ele>
        <time>2021-02-14T10:47:48Z</time>
      </trkpt>
      <trkpt lat="43.455273" lon="-5.582923">
        <ele>592.0</ele>
        <time>2021-02-14T10:47:49Z</time>
      </trkpt>
      <trkpt lat="43.45526" lon="-5.5829124">
        <ele>592.0</ele>
        <time>2021-02-14T10:47:50Z</time>
      </trkpt>
      <trkpt lat="43.455254" lon="-5.582903">
        <ele>592.0</ele>
        <time>2021-02-14T10:47:51Z</time>
      </trkpt>
      <trkpt lat="43.455242" lon="-5.582894">
        <ele>592.0</ele>
        <time>2021-02-14T10:47:52Z</time>
      </trkpt>
      <trkpt lat="43.45523" lon="-5.582882">
        <ele>592.0</ele>
        <time>2021-02-14T10:47:53Z</time>
      </trkpt>
      <trkpt lat="43.455223" lon="-5.5828676">
        <ele>592.0</ele>
        <time>2021-02-14T10:47:53Z</time>
      </trkpt>
      <trkpt lat="43.45521" lon="-5.5828557">
        <ele>592.0</ele>
        <time>2021-02-14T10:47:54Z</time>
      </trkpt>
      <trkpt lat="43.4552" lon="-5.5828433">
        <ele>592.0</ele>
        <time>2021-02-14T10:47:55Z</time>
      </trkpt>
      <trkpt lat="43.455196" lon="-5.582833">
        <ele>592.0</ele>
        <time>2021-02-14T10:47:56Z</time>
      </trkpt>
      <trkpt lat="43.455185" lon="-5.5828223">
        <ele>592.0</ele>
        <time>2021-02-14T10:47:58Z</time>
      </trkpt>
      <trkpt lat="43.455177" lon="-5.582811">
        <ele>592.0</ele>
        <time>2021-02-14T10:47:58Z</time>
      </trkpt>
      <trkpt lat="43.455166" lon="-5.5827994">
        <ele>592.0</ele>
        <time>2021-02-14T10:47:59Z</time>
      </trkpt>
      <trkpt lat="43.455154" lon="-5.582785">
        <ele>592.0</ele>
        <time>2021-02-14T10:48:00Z</time>
      </trkpt>
      <trkpt lat="43.45512" lon="-5.5827365">
        <ele>592.0</ele>
        <time>2021-02-14T10:48:02Z</time>
      </trkpt>
      <trkpt lat="43.45512" lon="-5.5827355">
        <ele>592.0</ele>
        <time>2021-02-14T10:48:03Z</time>
      </trkpt>
      <trkpt lat="43.455112" lon="-5.5827317">
        <ele>592.0</ele>
        <time>2021-02-14T10:48:04Z</time>
      </trkpt>
      <trkpt lat="43.45511" lon="-5.5827255">
        <ele>592.0</ele>
        <time>2021-02-14T10:48:05Z</time>
      </trkpt>
      <trkpt lat="43.455105" lon="-5.5827193">
        <ele>592.0</ele>
        <time>2021-02-14T10:48:06Z</time>
      </trkpt>
      <trkpt lat="43.455093" lon="-5.5827136">
        <ele>592.0</ele>
        <time>2021-02-14T10:48:07Z</time>
      </trkpt>
      <trkpt lat="43.45509" lon="-5.582708">
        <ele>592.0</ele>
        <time>2021-02-14T10:48:08Z</time>
      </trkpt>
      <trkpt lat="43.45508" lon="-5.582701">
        <ele>592.0</ele>
        <time>2021-02-14T10:48:09Z</time>
      </trkpt>
      <trkpt lat="43.455074" lon="-5.5826955">
        <ele>592.0</ele>
        <time>2021-02-14T10:48:10Z</time>
      </trkpt>
      <trkpt lat="43.455063" lon="-5.582689">
        <ele>592.0</ele>
        <time>2021-02-14T10:48:11Z</time>
      </trkpt>
      <trkpt lat="43.45506" lon="-5.582681">
        <ele>592.0</ele>
        <time>2021-02-14T10:48:12Z</time>
      </trkpt>
      <trkpt lat="43.45505" lon="-5.582674">
        <ele>592.0</ele>
        <time>2021-02-14T10:48:13Z</time>
      </trkpt>
      <trkpt lat="43.455048" lon="-5.5826674">
        <ele>592.0</ele>
        <time>2021-02-14T10:48:14Z</time>
      </trkpt>
      <trkpt lat="43.455044" lon="-5.5826616">
        <ele>592.0</ele>
        <time>2021-02-14T10:48:15Z</time>
      </trkpt>
      <trkpt lat="43.455036" lon="-5.5826554">
        <ele>592.0</ele>
        <time>2021-02-14T10:48:16Z</time>
      </trkpt>
      <trkpt lat="43.455036" lon="-5.5826488">
        <ele>592.0</ele>
        <time>2021-02-14T10:48:17Z</time>
      </trkpt>
      <trkpt lat="43.455032" lon="-5.582641">
        <ele>592.0</ele>
        <time>2021-02-14T10:48:18Z</time>
      </trkpt>
      <trkpt lat="43.45503" lon="-5.5826306">
        <ele>592.0</ele>
        <time>2021-02-14T10:48:19Z</time>
      </trkpt>
      <trkpt lat="43.45503" lon="-5.5826187">
        <ele>592.0</ele>
        <time>2021-02-14T10:48:20Z</time>
      </trkpt>
      <trkpt lat="43.45502" lon="-5.58261">
        <ele>592.0</ele>
        <time>2021-02-14T10:48:21Z</time>
      </trkpt>
      <trkpt lat="43.455017" lon="-5.5826">
        <ele>592.0</ele>
        <time>2021-02-14T10:48:22Z</time>
      </trkpt>
      <trkpt lat="43.455013" lon="-5.5825887">
        <ele>592.0</ele>
        <time>2021-02-14T10:48:23Z</time>
      </trkpt>
      <trkpt lat="43.455006" lon="-5.582576">
        <ele>592.0</ele>
        <time>2021-02-14T10:48:24Z</time>
      </trkpt>
      <trkpt lat="43.455" lon="-5.582564">
        <ele>592.0</ele>
        <time>2021-02-14T10:48:25Z</time>
      </trkpt>
      <trkpt lat="43.45499" lon="-5.5825524">
        <ele>592.0</ele>
        <time>2021-02-14T10:48:26Z</time>
      </trkpt>
      <trkpt lat="43.454987" lon="-5.582541">
        <ele>592.0</ele>
        <time>2021-02-14T10:48:27Z</time>
      </trkpt>
      <trkpt lat="43.454983" lon="-5.582531">
        <ele>592.0</ele>
        <time>2021-02-14T10:48:28Z</time>
      </trkpt>
      <trkpt lat="43.454975" lon="-5.582523">
        <ele>592.0</ele>
        <time>2021-02-14T10:48:29Z</time>
      </trkpt>
      <trkpt lat="43.454967" lon="-5.5825157">
        <ele>592.0</ele>
        <time>2021-02-14T10:48:30Z</time>
      </trkpt>
      <trkpt lat="43.45496" lon="-5.5825076">
        <ele>592.0</ele>
        <time>2021-02-14T10:48:31Z</time>
      </trkpt>
      <trkpt lat="43.454956" lon="-5.5825">
        <ele>592.0</ele>
        <time>2021-02-14T10:48:32Z</time>
      </trkpt>
      <trkpt lat="43.454945" lon="-5.582491">
        <ele>592.0</ele>
        <time>2021-02-14T10:48:33Z</time>
      </trkpt>
      <trkpt lat="43.454933" lon="-5.5824823">
        <ele>592.0</ele>
        <time>2021-02-14T10:48:34Z</time>
      </trkpt>
      <trkpt lat="43.454926" lon="-5.582474">
        <ele>592.0</ele>
        <time>2021-02-14T10:48:35Z</time>
      </trkpt>
      <trkpt lat="43.454914" lon="-5.582466">
        <ele>592.0</ele>
        <time>2021-02-14T10:48:36Z</time>
      </trkpt>
      <trkpt lat="43.454903" lon="-5.582459">
        <ele>592.0</ele>
        <time>2021-02-14T10:48:37Z</time>
      </trkpt>
      <trkpt lat="43.4549" lon="-5.5824513">
        <ele>592.0</ele>
        <time>2021-02-14T10:48:38Z</time>
      </trkpt>
      <trkpt lat="43.454887" lon="-5.5824428">
        <ele>592.0</ele>
        <time>2021-02-14T10:48:39Z</time>
      </trkpt>
      <trkpt lat="43.45488" lon="-5.582435">
        <ele>592.0</ele>
        <time>2021-02-14T10:48:40Z</time>
      </trkpt>
      <trkpt lat="43.45487" lon="-5.582428">
        <ele>592.0</ele>
        <time>2021-02-14T10:48:41Z</time>
      </trkpt>
      <trkpt lat="43.454857" lon="-5.58242">
        <ele>592.0</ele>
        <time>2021-02-14T10:48:42Z</time>
      </trkpt>
      <trkpt lat="43.45485" lon="-5.5824113">
        <ele>592.0</ele>
        <time>2021-02-14T10:48:43Z</time>
      </trkpt>
      <trkpt lat="43.454834" lon="-5.582403">
        <ele>593.0</ele>
        <time>2021-02-14T10:48:44Z</time>
      </trkpt>
      <trkpt lat="43.454823" lon="-5.5823956">
        <ele>593.0</ele>
        <time>2021-02-14T10:48:45Z</time>
      </trkpt>
      <trkpt lat="43.45481" lon="-5.5823903">
        <ele>593.0</ele>
        <time>2021-02-14T10:48:46Z</time>
      </trkpt>
      <trkpt lat="43.454803" lon="-5.5823894">
        <ele>593.0</ele>
        <time>2021-02-14T10:48:47Z</time>
      </trkpt>
      <trkpt lat="43.454792" lon="-5.582388">
        <ele>593.0</ele>
        <time>2021-02-14T10:48:48Z</time>
      </trkpt>
      <trkpt lat="43.454777" lon="-5.582385">
        <ele>593.0</ele>
        <time>2021-02-14T10:48:49Z</time>
      </trkpt>
      <trkpt lat="43.454765" lon="-5.5823846">
        <ele>593.0</ele>
        <time>2021-02-14T10:48:50Z</time>
      </trkpt>
      <trkpt lat="43.45475" lon="-5.582386">
        <ele>593.0</ele>
        <time>2021-02-14T10:48:51Z</time>
      </trkpt>
      <trkpt lat="43.45474" lon="-5.5823884">
        <ele>593.0</ele>
        <time>2021-02-14T10:48:52Z</time>
      </trkpt>
      <trkpt lat="43.45473" lon="-5.582393">
        <ele>594.0</ele>
        <time>2021-02-14T10:48:53Z</time>
      </trkpt>
      <trkpt lat="43.45472" lon="-5.582397">
        <ele>594.0</ele>
        <time>2021-02-14T10:48:54Z</time>
      </trkpt>
      <trkpt lat="43.454716" lon="-5.5824013">
        <ele>594.0</ele>
        <time>2021-02-14T10:48:55Z</time>
      </trkpt>
      <trkpt lat="43.454704" lon="-5.582405">
        <ele>594.0</ele>
        <time>2021-02-14T10:48:56Z</time>
      </trkpt>
      <trkpt lat="43.454693" lon="-5.5824094">
        <ele>594.0</ele>
        <time>2021-02-14T10:48:57Z</time>
      </trkpt>
      <trkpt lat="43.45469" lon="-5.582414">
        <ele>594.0</ele>
        <time>2021-02-14T10:48:58Z</time>
      </trkpt>
      <trkpt lat="43.454678" lon="-5.58242">
        <ele>594.0</ele>
        <time>2021-02-14T10:48:59Z</time>
      </trkpt>
      <trkpt lat="43.454662" lon="-5.582424">
        <ele>594.0</ele>
        <time>2021-02-14T10:49:00Z</time>
      </trkpt>
      <trkpt lat="43.454647" lon="-5.5824294">
        <ele>594.0</ele>
        <time>2021-02-14T10:49:01Z</time>
      </trkpt>
      <trkpt lat="43.45464" lon="-5.5824337">
        <ele>594.0</ele>
        <time>2021-02-14T10:49:02Z</time>
      </trkpt>
      <trkpt lat="43.454628" lon="-5.5824385">
        <ele>594.0</ele>
        <time>2021-02-14T10:49:03Z</time>
      </trkpt>
      <trkpt lat="43.454613" lon="-5.5824437">
        <ele>594.0</ele>
        <time>2021-02-14T10:49:04Z</time>
      </trkpt>
      <trkpt lat="43.4546" lon="-5.5824475">
        <ele>594.0</ele>
        <time>2021-02-14T10:49:05Z</time>
      </trkpt>
      <trkpt lat="43.454594" lon="-5.5824523">
        <ele>594.0</ele>
        <time>2021-02-14T10:49:06Z</time>
      </trkpt>
      <trkpt lat="43.454582" lon="-5.582457">
        <ele>594.0</ele>
        <time>2021-02-14T10:49:07Z</time>
      </trkpt>
      <trkpt lat="43.45458" lon="-5.5824623">
        <ele>594.0</ele>
        <time>2021-02-14T10:49:08Z</time>
      </trkpt>
      <trkpt lat="43.454567" lon="-5.582467">
        <ele>594.0</ele>
        <time>2021-02-14T10:49:09Z</time>
      </trkpt>
      <trkpt lat="43.454556" lon="-5.5824723">
        <ele>594.0</ele>
        <time>2021-02-14T10:49:10Z</time>
      </trkpt>
      <trkpt lat="43.45455" lon="-5.582476">
        <ele>594.0</ele>
        <time>2021-02-14T10:49:11Z</time>
      </trkpt>
      <trkpt lat="43.45454" lon="-5.5824804">
        <ele>594.0</ele>
        <time>2021-02-14T10:49:12Z</time>
      </trkpt>
      <trkpt lat="43.45453" lon="-5.5824857">
        <ele>594.0</ele>
        <time>2021-02-14T10:49:13Z</time>
      </trkpt>
      <trkpt lat="43.45452" lon="-5.5824904">
        <ele>594.0</ele>
        <time>2021-02-14T10:49:14Z</time>
      </trkpt>
      <trkpt lat="43.454514" lon="-5.582495">
        <ele>594.0</ele>
        <time>2021-02-14T10:49:15Z</time>
      </trkpt>
      <trkpt lat="43.454506" lon="-5.5825005">
        <ele>594.0</ele>
        <time>2021-02-14T10:49:16Z</time>
      </trkpt>
      <trkpt lat="43.454494" lon="-5.5825047">
        <ele>595.0</ele>
        <time>2021-02-14T10:49:17Z</time>
      </trkpt>
      <trkpt lat="43.45449" lon="-5.5825086">
        <ele>595.0</ele>
        <time>2021-02-14T10:49:18Z</time>
      </trkpt>
      <trkpt lat="43.45448" lon="-5.5825133">
        <ele>595.0</ele>
        <time>2021-02-14T10:49:19Z</time>
      </trkpt>
      <trkpt lat="43.454468" lon="-5.582519">
        <ele>595.0</ele>
        <time>2021-02-14T10:49:20Z</time>
      </trkpt>
      <trkpt lat="43.45446" lon="-5.582526">
        <ele>595.0</ele>
        <time>2021-02-14T10:49:21Z</time>
      </trkpt>
      <trkpt lat="43.45445" lon="-5.5825324">
        <ele>595.0</ele>
        <time>2021-02-14T10:49:22Z</time>
      </trkpt>
      <trkpt lat="43.454437" lon="-5.582538">
        <ele>595.0</ele>
        <time>2021-02-14T10:49:23Z</time>
      </trkpt>
      <trkpt lat="43.45443" lon="-5.582543">
        <ele>595.0</ele>
        <time>2021-02-14T10:49:24Z</time>
      </trkpt>
      <trkpt lat="43.45442" lon="-5.5825467">
        <ele>595.0</ele>
        <time>2021-02-14T10:49:25Z</time>
      </trkpt>
      <trkpt lat="43.454414" lon="-5.5825496">
        <ele>596.0</ele>
        <time>2021-02-14T10:49:26Z</time>
      </trkpt>
      <trkpt lat="43.45439" lon="-5.582558">
        <ele>596.0</ele>
        <time>2021-02-14T10:49:28Z</time>
      </trkpt>
      <trkpt lat="43.454388" lon="-5.5825586">
        <ele>596.0</ele>
        <time>2021-02-14T10:49:29Z</time>
      </trkpt>
      <trkpt lat="43.454384" lon="-5.58256">
        <ele>596.0</ele>
        <time>2021-02-14T10:49:30Z</time>
      </trkpt>
      <trkpt lat="43.454372" lon="-5.582562">
        <ele>596.0</ele>
        <time>2021-02-14T10:49:31Z</time>
      </trkpt>
      <trkpt lat="43.45436" lon="-5.5825653">
        <ele>596.0</ele>
        <time>2021-02-14T10:49:32Z</time>
      </trkpt>
      <trkpt lat="43.45435" lon="-5.582567">
        <ele>596.0</ele>
        <time>2021-02-14T10:49:33Z</time>
      </trkpt>
      <trkpt lat="43.454346" lon="-5.5825696">
        <ele>596.0</ele>
        <time>2021-02-14T10:49:34Z</time>
      </trkpt>
      <trkpt lat="43.45434" lon="-5.58257">
        <ele>596.0</ele>
        <time>2021-02-14T10:49:35Z</time>
      </trkpt>
      <trkpt lat="43.454334" lon="-5.5825696">
        <ele>596.0</ele>
        <time>2021-02-14T10:49:36Z</time>
      </trkpt>
      <trkpt lat="43.454334" lon="-5.582569">
        <ele>596.0</ele>
        <time>2021-02-14T10:49:37Z</time>
      </trkpt>
      <trkpt lat="43.45433" lon="-5.5825677">
        <ele>596.0</ele>
        <time>2021-02-14T10:49:38Z</time>
      </trkpt>
      <trkpt lat="43.45432" lon="-5.582568">
        <ele>596.0</ele>
        <time>2021-02-14T10:49:43Z</time>
      </trkpt>
      <trkpt lat="43.45432" lon="-5.582568">
        <ele>596.0</ele>
        <time>2021-02-14T10:49:44Z</time>
      </trkpt>
      <trkpt lat="43.454315" lon="-5.582569">
        <ele>596.0</ele>
        <time>2021-02-14T10:49:45Z</time>
      </trkpt>
      <trkpt lat="43.454304" lon="-5.582568">
        <ele>596.0</ele>
        <time>2021-02-14T10:49:46Z</time>
      </trkpt>
      <trkpt lat="43.454296" lon="-5.5825677">
        <ele>596.0</ele>
        <time>2021-02-14T10:49:47Z</time>
      </trkpt>
      <trkpt lat="43.454285" lon="-5.582568">
        <ele>596.0</ele>
        <time>2021-02-14T10:49:48Z</time>
      </trkpt>
      <trkpt lat="43.454273" lon="-5.5825696">
        <ele>596.0</ele>
        <time>2021-02-14T10:49:49Z</time>
      </trkpt>
      <trkpt lat="43.454258" lon="-5.5825715">
        <ele>596.0</ele>
        <time>2021-02-14T10:49:50Z</time>
      </trkpt>
      <trkpt lat="43.45425" lon="-5.5825753">
        <ele>596.0</ele>
        <time>2021-02-14T10:49:51Z</time>
      </trkpt>
      <trkpt lat="43.454235" lon="-5.582579">
        <ele>596.0</ele>
        <time>2021-02-14T10:49:52Z</time>
      </trkpt>
      <trkpt lat="43.45422" lon="-5.582583">
        <ele>596.0</ele>
        <time>2021-02-14T10:49:53Z</time>
      </trkpt>
      <trkpt lat="43.454205" lon="-5.582587">
        <ele>596.0</ele>
        <time>2021-02-14T10:49:54Z</time>
      </trkpt>
      <trkpt lat="43.454193" lon="-5.5825887">
        <ele>596.0</ele>
        <time>2021-02-14T10:49:55Z</time>
      </trkpt>
      <trkpt lat="43.454178" lon="-5.5825887">
        <ele>596.0</ele>
        <time>2021-02-14T10:49:56Z</time>
      </trkpt>
      <trkpt lat="43.454166" lon="-5.5825863">
        <ele>596.0</ele>
        <time>2021-02-14T10:49:57Z</time>
      </trkpt>
      <trkpt lat="43.454155" lon="-5.5825844">
        <ele>596.0</ele>
        <time>2021-02-14T10:49:58Z</time>
      </trkpt>
      <trkpt lat="43.454147" lon="-5.5825825">
        <ele>596.0</ele>
        <time>2021-02-14T10:49:59Z</time>
      </trkpt>
      <trkpt lat="43.454136" lon="-5.582579">
        <ele>596.0</ele>
        <time>2021-02-14T10:50:00Z</time>
      </trkpt>
      <trkpt lat="43.454124" lon="-5.582575">
        <ele>596.0</ele>
        <time>2021-02-14T10:50:01Z</time>
      </trkpt>
      <trkpt lat="43.45411" lon="-5.5825677">
        <ele>596.0</ele>
        <time>2021-02-14T10:50:02Z</time>
      </trkpt>
      <trkpt lat="43.454094" lon="-5.5825586">
        <ele>596.0</ele>
        <time>2021-02-14T10:50:03Z</time>
      </trkpt>
      <trkpt lat="43.454086" lon="-5.5825477">
        <ele>596.0</ele>
        <time>2021-02-14T10:50:04Z</time>
      </trkpt>
      <trkpt lat="43.45407" lon="-5.582538">
        <ele>596.0</ele>
        <time>2021-02-14T10:50:05Z</time>
      </trkpt>
      <trkpt lat="43.454056" lon="-5.5825286">
        <ele>596.0</ele>
        <time>2021-02-14T10:50:06Z</time>
      </trkpt>
      <trkpt lat="43.454044" lon="-5.582519">
        <ele>596.0</ele>
        <time>2021-02-14T10:50:07Z</time>
      </trkpt>
      <trkpt lat="43.45403" lon="-5.582512">
        <ele>596.0</ele>
        <time>2021-02-14T10:50:08Z</time>
      </trkpt>
      <trkpt lat="43.454018" lon="-5.582506">
        <ele>596.0</ele>
        <time>2021-02-14T10:50:09Z</time>
      </trkpt>
      <trkpt lat="43.454002" lon="-5.582502">
        <ele>596.0</ele>
        <time>2021-02-14T10:50:10Z</time>
      </trkpt>
      <trkpt lat="43.453987" lon="-5.582497">
        <ele>596.0</ele>
        <time>2021-02-14T10:50:11Z</time>
      </trkpt>
      <trkpt lat="43.45398" lon="-5.5824933">
        <ele>597.0</ele>
        <time>2021-02-14T10:50:12Z</time>
      </trkpt>
      <trkpt lat="43.453968" lon="-5.5824876">
        <ele>597.0</ele>
        <time>2021-02-14T10:50:13Z</time>
      </trkpt>
      <trkpt lat="43.453953" lon="-5.5824814">
        <ele>597.0</ele>
        <time>2021-02-14T10:50:14Z</time>
      </trkpt>
      <trkpt lat="43.45394" lon="-5.582474">
        <ele>597.0</ele>
        <time>2021-02-14T10:50:15Z</time>
      </trkpt>
      <trkpt lat="43.453926" lon="-5.5824685">
        <ele>597.0</ele>
        <time>2021-02-14T10:50:16Z</time>
      </trkpt>
      <trkpt lat="43.453915" lon="-5.5824633">
        <ele>597.0</ele>
        <time>2021-02-14T10:50:17Z</time>
      </trkpt>
      <trkpt lat="43.4539" lon="-5.582459">
        <ele>597.0</ele>
        <time>2021-02-14T10:50:18Z</time>
      </trkpt>
      <trkpt lat="43.45389" lon="-5.5824556">
        <ele>597.0</ele>
        <time>2021-02-14T10:50:19Z</time>
      </trkpt>
      <trkpt lat="43.45388" lon="-5.5824513">
        <ele>597.0</ele>
        <time>2021-02-14T10:50:20Z</time>
      </trkpt>
      <trkpt lat="43.453865" lon="-5.582446">
        <ele>597.0</ele>
        <time>2021-02-14T10:50:21Z</time>
      </trkpt>
      <trkpt lat="43.45385" lon="-5.5824423">
        <ele>597.0</ele>
        <time>2021-02-14T10:50:22Z</time>
      </trkpt>
      <trkpt lat="43.45384" lon="-5.5824385">
        <ele>597.0</ele>
        <time>2021-02-14T10:50:23Z</time>
      </trkpt>
      <trkpt lat="43.45383" lon="-5.582437">
        <ele>597.0</ele>
        <time>2021-02-14T10:50:24Z</time>
      </trkpt>
      <trkpt lat="43.45382" lon="-5.5824366">
        <ele>597.0</ele>
        <time>2021-02-14T10:50:25Z</time>
      </trkpt>
      <trkpt lat="43.453808" lon="-5.582439">
        <ele>597.0</ele>
        <time>2021-02-14T10:50:26Z</time>
      </trkpt>
      <trkpt lat="43.4538" lon="-5.582441">
        <ele>597.0</ele>
        <time>2021-02-14T10:50:27Z</time>
      </trkpt>
      <trkpt lat="43.45379" lon="-5.5824423">
        <ele>597.0</ele>
        <time>2021-02-14T10:50:28Z</time>
      </trkpt>
      <trkpt lat="43.453777" lon="-5.5824437">
        <ele>597.0</ele>
        <time>2021-02-14T10:50:29Z</time>
      </trkpt>
      <trkpt lat="43.453762" lon="-5.5824437">
        <ele>597.0</ele>
        <time>2021-02-14T10:50:30Z</time>
      </trkpt>
      <trkpt lat="43.45375" lon="-5.5824447">
        <ele>597.0</ele>
        <time>2021-02-14T10:50:31Z</time>
      </trkpt>
      <trkpt lat="43.453747" lon="-5.5824475">
        <ele>597.0</ele>
        <time>2021-02-14T10:50:32Z</time>
      </trkpt>
      <trkpt lat="43.453743" lon="-5.58245">
        <ele>597.0</ele>
        <time>2021-02-14T10:50:33Z</time>
      </trkpt>
      <trkpt lat="43.453735" lon="-5.58245">
        <ele>597.0</ele>
        <time>2021-02-14T10:50:34Z</time>
      </trkpt>
      <trkpt lat="43.45373" lon="-5.5824485">
        <ele>597.0</ele>
        <time>2021-02-14T10:50:35Z</time>
      </trkpt>
      <trkpt lat="43.45372" lon="-5.5824466">
        <ele>597.0</ele>
        <time>2021-02-14T10:50:36Z</time>
      </trkpt>
      <trkpt lat="43.453716" lon="-5.5824423">
        <ele>597.0</ele>
        <time>2021-02-14T10:50:37Z</time>
      </trkpt>
      <trkpt lat="43.453705" lon="-5.582438">
        <ele>597.0</ele>
        <time>2021-02-14T10:50:38Z</time>
      </trkpt>
      <trkpt lat="43.453697" lon="-5.582432">
        <ele>598.0</ele>
        <time>2021-02-14T10:50:39Z</time>
      </trkpt>
      <trkpt lat="43.45369" lon="-5.582427">
        <ele>598.0</ele>
        <time>2021-02-14T10:50:40Z</time>
      </trkpt>
      <trkpt lat="43.453686" lon="-5.582422">
        <ele>598.0</ele>
        <time>2021-02-14T10:50:41Z</time>
      </trkpt>
      <trkpt lat="43.453682" lon="-5.5824175">
        <ele>598.0</ele>
        <time>2021-02-14T10:50:42Z</time>
      </trkpt>
      <trkpt lat="43.453674" lon="-5.5824137">
        <ele>598.0</ele>
        <time>2021-02-14T10:50:43Z</time>
      </trkpt>
      <trkpt lat="43.453667" lon="-5.5824113">
        <ele>598.0</ele>
        <time>2021-02-14T10:50:44Z</time>
      </trkpt>
      <trkpt lat="43.45366" lon="-5.5824094">
        <ele>598.0</ele>
        <time>2021-02-14T10:50:45Z</time>
      </trkpt>
      <trkpt lat="43.453655" lon="-5.582407">
        <ele>598.0</ele>
        <time>2021-02-14T10:50:46Z</time>
      </trkpt>
      <trkpt lat="43.453644" lon="-5.5824013">
        <ele>598.0</ele>
        <time>2021-02-14T10:50:47Z</time>
      </trkpt>
      <trkpt lat="43.453636" lon="-5.5823956">
        <ele>598.0</ele>
        <time>2021-02-14T10:50:48Z</time>
      </trkpt>
      <trkpt lat="43.453625" lon="-5.5823884">
        <ele>598.0</ele>
        <time>2021-02-14T10:50:49Z</time>
      </trkpt>
      <trkpt lat="43.45361" lon="-5.582382">
        <ele>598.0</ele>
        <time>2021-02-14T10:50:50Z</time>
      </trkpt>
      <trkpt lat="43.453598" lon="-5.582377">
        <ele>598.0</ele>
        <time>2021-02-14T10:50:51Z</time>
      </trkpt>
      <trkpt lat="43.453583" lon="-5.5823717">
        <ele>599.0</ele>
        <time>2021-02-14T10:50:52Z</time>
      </trkpt>
      <trkpt lat="43.453568" lon="-5.582365">
        <ele>599.0</ele>
        <time>2021-02-14T10:50:53Z</time>
      </trkpt>
      <trkpt lat="43.453552" lon="-5.582357">
        <ele>599.0</ele>
        <time>2021-02-14T10:50:54Z</time>
      </trkpt>
      <trkpt lat="43.453537" lon="-5.582351">
        <ele>599.0</ele>
        <time>2021-02-14T10:50:55Z</time>
      </trkpt>
      <trkpt lat="43.453526" lon="-5.5823483">
        <ele>599.0</ele>
        <time>2021-02-14T10:50:56Z</time>
      </trkpt>
      <trkpt lat="43.453518" lon="-5.5823436">
        <ele>599.0</ele>
        <time>2021-02-14T10:50:57Z</time>
      </trkpt>
      <trkpt lat="43.453506" lon="-5.5823383">
        <ele>599.0</ele>
        <time>2021-02-14T10:50:58Z</time>
      </trkpt>
      <trkpt lat="43.453495" lon="-5.5823355">
        <ele>599.0</ele>
        <time>2021-02-14T10:50:59Z</time>
      </trkpt>
      <trkpt lat="43.453487" lon="-5.582332">
        <ele>599.0</ele>
        <time>2021-02-14T10:51:00Z</time>
      </trkpt>
      <trkpt lat="43.453476" lon="-5.582327">
        <ele>599.0</ele>
        <time>2021-02-14T10:51:01Z</time>
      </trkpt>
      <trkpt lat="43.453465" lon="-5.582321">
        <ele>599.0</ele>
        <time>2021-02-14T10:51:02Z</time>
      </trkpt>
      <trkpt lat="43.45345" lon="-5.582317">
        <ele>599.0</ele>
        <time>2021-02-14T10:51:03Z</time>
      </trkpt>
      <trkpt lat="43.453434" lon="-5.582311">
        <ele>599.0</ele>
        <time>2021-02-14T10:51:04Z</time>
      </trkpt>
      <trkpt lat="43.453426" lon="-5.5823035">
        <ele>599.0</ele>
        <time>2021-02-14T10:51:05Z</time>
      </trkpt>
      <trkpt lat="43.45341" lon="-5.582296">
        <ele>599.0</ele>
        <time>2021-02-14T10:51:06Z</time>
      </trkpt>
      <trkpt lat="43.453403" lon="-5.582289">
        <ele>599.0</ele>
        <time>2021-02-14T10:51:07Z</time>
      </trkpt>
      <trkpt lat="43.453392" lon="-5.58228">
        <ele>599.0</ele>
        <time>2021-02-14T10:51:08Z</time>
      </trkpt>
      <trkpt lat="43.453384" lon="-5.5822725">
        <ele>599.0</ele>
        <time>2021-02-14T10:51:09Z</time>
      </trkpt>
      <trkpt lat="43.453373" lon="-5.582265">
        <ele>599.0</ele>
        <time>2021-02-14T10:51:10Z</time>
      </trkpt>
      <trkpt lat="43.45336" lon="-5.5822597">
        <ele>599.0</ele>
        <time>2021-02-14T10:51:11Z</time>
      </trkpt>
      <trkpt lat="43.453354" lon="-5.582253">
        <ele>599.0</ele>
        <time>2021-02-14T10:51:12Z</time>
      </trkpt>
      <trkpt lat="43.45334" lon="-5.5822473">
        <ele>599.0</ele>
        <time>2021-02-14T10:51:13Z</time>
      </trkpt>
      <trkpt lat="43.453327" lon="-5.582242">
        <ele>599.0</ele>
        <time>2021-02-14T10:51:14Z</time>
      </trkpt>
      <trkpt lat="43.453312" lon="-5.582238">
        <ele>599.0</ele>
        <time>2021-02-14T10:51:15Z</time>
      </trkpt>
      <trkpt lat="43.453297" lon="-5.5822353">
        <ele>599.0</ele>
        <time>2021-02-14T10:51:16Z</time>
      </trkpt>
      <trkpt lat="43.453285" lon="-5.582233">
        <ele>599.0</ele>
        <time>2021-02-14T10:51:17Z</time>
      </trkpt>
      <trkpt lat="43.453278" lon="-5.5822296">
        <ele>599.0</ele>
        <time>2021-02-14T10:51:18Z</time>
      </trkpt>
      <trkpt lat="43.453266" lon="-5.5822268">
        <ele>599.0</ele>
        <time>2021-02-14T10:51:19Z</time>
      </trkpt>
      <trkpt lat="43.45325" lon="-5.582225">
        <ele>599.0</ele>
        <time>2021-02-14T10:51:20Z</time>
      </trkpt>
      <trkpt lat="43.453247" lon="-5.5822234">
        <ele>599.0</ele>
        <time>2021-02-14T10:51:21Z</time>
      </trkpt>
      <trkpt lat="43.453236" lon="-5.582224">
        <ele>599.0</ele>
        <time>2021-02-14T10:51:22Z</time>
      </trkpt>
      <trkpt lat="43.453224" lon="-5.582225">
        <ele>599.0</ele>
        <time>2021-02-14T10:51:23Z</time>
      </trkpt>
      <trkpt lat="43.453217" lon="-5.582224">
        <ele>599.0</ele>
        <time>2021-02-14T10:51:24Z</time>
      </trkpt>
      <trkpt lat="43.453205" lon="-5.5822215">
        <ele>599.0</ele>
        <time>2021-02-14T10:51:25Z</time>
      </trkpt>
      <trkpt lat="43.45319" lon="-5.582215">
        <ele>599.0</ele>
        <time>2021-02-14T10:51:26Z</time>
      </trkpt>
      <trkpt lat="43.45318" lon="-5.582209">
        <ele>599.0</ele>
        <time>2021-02-14T10:51:27Z</time>
      </trkpt>
      <trkpt lat="43.453167" lon="-5.582205">
        <ele>599.0</ele>
        <time>2021-02-14T10:51:28Z</time>
      </trkpt>
      <trkpt lat="43.45316" lon="-5.5822034">
        <ele>599.0</ele>
        <time>2021-02-14T10:51:29Z</time>
      </trkpt>
      <trkpt lat="43.453148" lon="-5.582203">
        <ele>599.0</ele>
        <time>2021-02-14T10:51:30Z</time>
      </trkpt>
      <trkpt lat="43.453136" lon="-5.582201">
        <ele>599.0</ele>
        <time>2021-02-14T10:51:31Z</time>
      </trkpt>
      <trkpt lat="43.45313" lon="-5.5821986">
        <ele>600.0</ele>
        <time>2021-02-14T10:51:32Z</time>
      </trkpt>
      <trkpt lat="43.453117" lon="-5.5821934">
        <ele>600.0</ele>
        <time>2021-02-14T10:51:33Z</time>
      </trkpt>
      <trkpt lat="43.453102" lon="-5.5821886">
        <ele>600.0</ele>
        <time>2021-02-14T10:51:34Z</time>
      </trkpt>
      <trkpt lat="43.45309" lon="-5.582186">
        <ele>600.0</ele>
        <time>2021-02-14T10:51:35Z</time>
      </trkpt>
      <trkpt lat="43.453087" lon="-5.582184">
        <ele>600.0</ele>
        <time>2021-02-14T10:51:36Z</time>
      </trkpt>
      <trkpt lat="43.453075" lon="-5.582181">
        <ele>600.0</ele>
        <time>2021-02-14T10:51:37Z</time>
      </trkpt>
      <trkpt lat="43.453068" lon="-5.5821786">
        <ele>600.0</ele>
        <time>2021-02-14T10:51:38Z</time>
      </trkpt>
      <trkpt lat="43.45306" lon="-5.582177">
        <ele>600.0</ele>
        <time>2021-02-14T10:51:39Z</time>
      </trkpt>
      <trkpt lat="43.453053" lon="-5.582178">
        <ele>600.0</ele>
        <time>2021-02-14T10:51:40Z</time>
      </trkpt>
      <trkpt lat="43.45304" lon="-5.582179">
        <ele>600.0</ele>
        <time>2021-02-14T10:51:41Z</time>
      </trkpt>
      <trkpt lat="43.453037" lon="-5.58218">
        <ele>600.0</ele>
        <time>2021-02-14T10:51:42Z</time>
      </trkpt>
      <trkpt lat="43.453026" lon="-5.582182">
        <ele>600.0</ele>
        <time>2021-02-14T10:51:43Z</time>
      </trkpt>
      <trkpt lat="43.453014" lon="-5.582183">
        <ele>600.0</ele>
        <time>2021-02-14T10:51:44Z</time>
      </trkpt>
      <trkpt lat="43.45301" lon="-5.5821857">
        <ele>600.0</ele>
        <time>2021-02-14T10:51:45Z</time>
      </trkpt>
      <trkpt lat="43.453003" lon="-5.582186">
        <ele>600.0</ele>
        <time>2021-02-14T10:51:46Z</time>
      </trkpt>
      <trkpt lat="43.453" lon="-5.582184">
        <ele>601.0</ele>
        <time>2021-02-14T10:51:47Z</time>
      </trkpt>
      <trkpt lat="43.452995" lon="-5.5821805">
        <ele>601.0</ele>
        <time>2021-02-14T10:51:48Z</time>
      </trkpt>
      <trkpt lat="43.452988" lon="-5.582177">
        <ele>601.0</ele>
        <time>2021-02-14T10:51:49Z</time>
      </trkpt>
      <trkpt lat="43.452984" lon="-5.5821753">
        <ele>601.0</ele>
        <time>2021-02-14T10:51:50Z</time>
      </trkpt>
      <trkpt lat="43.45298" lon="-5.582173">
        <ele>601.0</ele>
        <time>2021-02-14T10:51:51Z</time>
      </trkpt>
      <trkpt lat="43.452972" lon="-5.5821695">
        <ele>601.0</ele>
        <time>2021-02-14T10:51:52Z</time>
      </trkpt>
      <trkpt lat="43.45297" lon="-5.582167">
        <ele>601.0</ele>
        <time>2021-02-14T10:51:53Z</time>
      </trkpt>
      <trkpt lat="43.452957" lon="-5.5821652">
        <ele>601.0</ele>
        <time>2021-02-14T10:51:54Z</time>
      </trkpt>
      <trkpt lat="43.45295" lon="-5.5821643">
        <ele>601.0</ele>
        <time>2021-02-14T10:51:55Z</time>
      </trkpt>
      <trkpt lat="43.45294" lon="-5.5821614">
        <ele>601.0</ele>
        <time>2021-02-14T10:51:56Z</time>
      </trkpt>
      <trkpt lat="43.452934" lon="-5.5821586">
        <ele>601.0</ele>
        <time>2021-02-14T10:51:57Z</time>
      </trkpt>
      <trkpt lat="43.452923" lon="-5.5821543">
        <ele>601.0</ele>
        <time>2021-02-14T10:51:58Z</time>
      </trkpt>
      <trkpt lat="43.45291" lon="-5.582153">
        <ele>601.0</ele>
        <time>2021-02-14T10:51:59Z</time>
      </trkpt>
      <trkpt lat="43.452896" lon="-5.5821524">
        <ele>601.0</ele>
        <time>2021-02-14T10:52:00Z</time>
      </trkpt>
      <trkpt lat="43.45289" lon="-5.582152">
        <ele>601.0</ele>
        <time>2021-02-14T10:52:01Z</time>
      </trkpt>
      <trkpt lat="43.452877" lon="-5.5821505">
        <ele>601.0</ele>
        <time>2021-02-14T10:52:02Z</time>
      </trkpt>
      <trkpt lat="43.452866" lon="-5.5821466">
        <ele>601.0</ele>
        <time>2021-02-14T10:52:03Z</time>
      </trkpt>
      <trkpt lat="43.452858" lon="-5.582141">
        <ele>601.0</ele>
        <time>2021-02-14T10:52:04Z</time>
      </trkpt>
      <trkpt lat="43.452847" lon="-5.5821342">
        <ele>601.0</ele>
        <time>2021-02-14T10:52:05Z</time>
      </trkpt>
      <trkpt lat="43.45283" lon="-5.5821304">
        <ele>601.0</ele>
        <time>2021-02-14T10:52:06Z</time>
      </trkpt>
      <trkpt lat="43.45282" lon="-5.5821266">
        <ele>601.0</ele>
        <time>2021-02-14T10:52:07Z</time>
      </trkpt>
      <trkpt lat="43.45281" lon="-5.582123">
        <ele>601.0</ele>
        <time>2021-02-14T10:52:08Z</time>
      </trkpt>
      <trkpt lat="43.452793" lon="-5.5821185">
        <ele>601.0</ele>
        <time>2021-02-14T10:52:08Z</time>
      </trkpt>
      <trkpt lat="43.45279" lon="-5.5821157">
        <ele>601.0</ele>
        <time>2021-02-14T10:52:09Z</time>
      </trkpt>
      <trkpt lat="43.452785" lon="-5.5821133">
        <ele>601.0</ele>
        <time>2021-02-14T10:52:10Z</time>
      </trkpt>
      <trkpt lat="43.452778" lon="-5.58211">
        <ele>601.0</ele>
        <time>2021-02-14T10:52:11Z</time>
      </trkpt>
      <trkpt lat="43.452774" lon="-5.582107">
        <ele>601.0</ele>
        <time>2021-02-14T10:52:12Z</time>
      </trkpt>
      <trkpt lat="43.45277" lon="-5.5821037">
        <ele>601.0</ele>
        <time>2021-02-14T10:52:13Z</time>
      </trkpt>
      <trkpt lat="43.452763" lon="-5.5821023">
        <ele>601.0</ele>
        <time>2021-02-14T10:52:14Z</time>
      </trkpt>
      <trkpt lat="43.452755" lon="-5.5821013">
        <ele>601.0</ele>
        <time>2021-02-14T10:52:15Z</time>
      </trkpt>
      <trkpt lat="43.452747" lon="-5.5821004">
        <ele>601.0</ele>
        <time>2021-02-14T10:52:16Z</time>
      </trkpt>
      <trkpt lat="43.452744" lon="-5.5821004">
        <ele>601.0</ele>
        <time>2021-02-14T10:52:17Z</time>
      </trkpt>
      <trkpt lat="43.452732" lon="-5.582102">
        <ele>601.0</ele>
        <time>2021-02-14T10:52:18Z</time>
      </trkpt>
      <trkpt lat="43.45273" lon="-5.582102">
        <ele>601.0</ele>
        <time>2021-02-14T10:52:19Z</time>
      </trkpt>
      <trkpt lat="43.452717" lon="-5.5821023">
        <ele>601.0</ele>
        <time>2021-02-14T10:52:20Z</time>
      </trkpt>
      <trkpt lat="43.452713" lon="-5.5821037">
        <ele>601.0</ele>
        <time>2021-02-14T10:52:21Z</time>
      </trkpt>
      <trkpt lat="43.4527" lon="-5.582104">
        <ele>601.0</ele>
        <time>2021-02-14T10:52:22Z</time>
      </trkpt>
      <trkpt lat="43.452698" lon="-5.5821037">
        <ele>601.0</ele>
        <time>2021-02-14T10:52:23Z</time>
      </trkpt>
      <trkpt lat="43.452694" lon="-5.5821037">
        <ele>601.0</ele>
        <time>2021-02-14T10:52:24Z</time>
      </trkpt>
      <trkpt lat="43.452682" lon="-5.582102">
        <ele>601.0</ele>
        <time>2021-02-14T10:52:27Z</time>
      </trkpt>
      <trkpt lat="43.452682" lon="-5.5821013">
        <ele>601.0</ele>
        <time>2021-02-14T10:52:28Z</time>
      </trkpt>
      <trkpt lat="43.45268" lon="-5.5821004">
        <ele>601.0</ele>
        <time>2021-02-14T10:52:29Z</time>
      </trkpt>
      <trkpt lat="43.45268" lon="-5.5821004">
        <ele>601.0</ele>
        <time>2021-02-14T10:52:30Z</time>
      </trkpt>
      <trkpt lat="43.452667" lon="-5.5821037">
        <ele>601.0</ele>
        <time>2021-02-14T10:52:31Z</time>
      </trkpt>
      <trkpt lat="43.452656" lon="-5.5821075">
        <ele>601.0</ele>
        <time>2021-02-14T10:52:32Z</time>
      </trkpt>
      <trkpt lat="43.45265" lon="-5.582113">
        <ele>601.0</ele>
        <time>2021-02-14T10:52:33Z</time>
      </trkpt>
      <trkpt lat="43.452633" lon="-5.5821166">
        <ele>601.0</ele>
        <time>2021-02-14T10:52:34Z</time>
      </trkpt>
      <trkpt lat="43.452614" lon="-5.582119">
        <ele>601.0</ele>
        <time>2021-02-14T10:52:35Z</time>
      </trkpt>
      <trkpt lat="43.4526" lon="-5.5821214">
        <ele>601.0</ele>
        <time>2021-02-14T10:52:36Z</time>
      </trkpt>
      <trkpt lat="43.452583" lon="-5.5821238">
        <ele>601.0</ele>
        <time>2021-02-14T10:52:37Z</time>
      </trkpt>
      <trkpt lat="43.452576" lon="-5.5821238">
        <ele>601.0</ele>
        <time>2021-02-14T10:52:38Z</time>
      </trkpt>
      <trkpt lat="43.452564" lon="-5.5821223">
        <ele>601.0</ele>
        <time>2021-02-14T10:52:39Z</time>
      </trkpt>
      <trkpt lat="43.452553" lon="-5.5821204">
        <ele>601.0</ele>
        <time>2021-02-14T10:52:40Z</time>
      </trkpt>
      <trkpt lat="43.45255" lon="-5.5821185">
        <ele>601.0</ele>
        <time>2021-02-14T10:52:41Z</time>
      </trkpt>
      <trkpt lat="43.452545" lon="-5.5821166">
        <ele>601.0</ele>
        <time>2021-02-14T10:52:42Z</time>
      </trkpt>
      <trkpt lat="43.452538" lon="-5.582117">
        <ele>601.0</ele>
        <time>2021-02-14T10:52:44Z</time>
      </trkpt>
      <trkpt lat="43.452538" lon="-5.582109">
        <ele>601.0</ele>
        <time>2021-02-14T10:52:48Z</time>
      </trkpt>
      <trkpt lat="43.452538" lon="-5.582108">
        <ele>601.0</ele>
        <time>2021-02-14T10:52:49Z</time>
      </trkpt>
      <trkpt lat="43.452538" lon="-5.582106">
        <ele>601.0</ele>
        <time>2021-02-14T10:52:50Z</time>
      </trkpt>
      <trkpt lat="43.452534" lon="-5.582105">
        <ele>601.0</ele>
        <time>2021-02-14T10:52:51Z</time>
      </trkpt>
      <trkpt lat="43.452534" lon="-5.582104">
        <ele>601.0</ele>
        <time>2021-02-14T10:52:52Z</time>
      </trkpt>
      <trkpt lat="43.45253" lon="-5.582109">
        <ele>601.0</ele>
        <time>2021-02-14T10:52:54Z</time>
      </trkpt>
      <trkpt lat="43.45253" lon="-5.582117">
        <ele>601.0</ele>
        <time>2021-02-14T10:53:19Z</time>
      </trkpt>
      <trkpt lat="43.45253" lon="-5.5821176">
        <ele>601.0</ele>
        <time>2021-02-14T10:53:20Z</time>
      </trkpt>
      <trkpt lat="43.45253" lon="-5.582119">
        <ele>601.0</ele>
        <time>2021-02-14T10:53:21Z</time>
      </trkpt>
      <trkpt lat="43.452522" lon="-5.5821285">
        <ele>601.0</ele>
        <time>2021-02-14T10:53:23Z</time>
      </trkpt>
      <trkpt lat="43.452522" lon="-5.58213">
        <ele>601.0</ele>
        <time>2021-02-14T10:53:24Z</time>
      </trkpt>
      <trkpt lat="43.452515" lon="-5.582139">
        <ele>601.0</ele>
        <time>2021-02-14T10:53:26Z</time>
      </trkpt>
      <trkpt lat="43.452515" lon="-5.582139">
        <ele>601.0</ele>
        <time>2021-02-14T10:53:27Z</time>
      </trkpt>
      <trkpt lat="43.452503" lon="-5.58214">
        <ele>601.0</ele>
        <time>2021-02-14T10:53:28Z</time>
      </trkpt>
      <trkpt lat="43.45249" lon="-5.5821414">
        <ele>601.0</ele>
        <time>2021-02-14T10:53:29Z</time>
      </trkpt>
      <trkpt lat="43.452477" lon="-5.5821433">
        <ele>601.0</ele>
        <time>2021-02-14T10:53:30Z</time>
      </trkpt>
      <trkpt lat="43.45246" lon="-5.5821447">
        <ele>601.0</ele>
        <time>2021-02-14T10:53:31Z</time>
      </trkpt>
      <trkpt lat="43.452454" lon="-5.582147">
        <ele>601.0</ele>
        <time>2021-02-14T10:53:32Z</time>
      </trkpt>
      <trkpt lat="43.45244" lon="-5.5821486">
        <ele>601.0</ele>
        <time>2021-02-14T10:53:33Z</time>
      </trkpt>
      <trkpt lat="43.45242" lon="-5.582151">
        <ele>601.0</ele>
        <time>2021-02-14T10:53:34Z</time>
      </trkpt>
      <trkpt lat="43.452404" lon="-5.582152">
        <ele>601.0</ele>
        <time>2021-02-14T10:53:35Z</time>
      </trkpt>
      <trkpt lat="43.45239" lon="-5.582151">
        <ele>601.0</ele>
        <time>2021-02-14T10:53:36Z</time>
      </trkpt>
      <trkpt lat="43.45238" lon="-5.582149">
        <ele>601.0</ele>
        <time>2021-02-14T10:53:37Z</time>
      </trkpt>
      <trkpt lat="43.45237" lon="-5.582147">
        <ele>601.0</ele>
        <time>2021-02-14T10:53:38Z</time>
      </trkpt>
      <trkpt lat="43.452354" lon="-5.582144">
        <ele>601.0</ele>
        <time>2021-02-14T10:53:39Z</time>
      </trkpt>
      <trkpt lat="43.452343" lon="-5.582141">
        <ele>601.0</ele>
        <time>2021-02-14T10:53:40Z</time>
      </trkpt>
      <trkpt lat="43.452335" lon="-5.5821376">
        <ele>601.0</ele>
        <time>2021-02-14T10:53:41Z</time>
      </trkpt>
      <trkpt lat="43.452328" lon="-5.582135">
        <ele>601.0</ele>
        <time>2021-02-14T10:53:42Z</time>
      </trkpt>
      <trkpt lat="43.45232" lon="-5.5821323">
        <ele>601.0</ele>
        <time>2021-02-14T10:53:43Z</time>
      </trkpt>
      <trkpt lat="43.45231" lon="-5.5821285">
        <ele>601.0</ele>
        <time>2021-02-14T10:53:44Z</time>
      </trkpt>
      <trkpt lat="43.452297" lon="-5.5821257">
        <ele>601.0</ele>
        <time>2021-02-14T10:53:45Z</time>
      </trkpt>
      <trkpt lat="43.45229" lon="-5.582119">
        <ele>601.0</ele>
        <time>2021-02-14T10:53:46Z</time>
      </trkpt>
      <trkpt lat="43.45228" lon="-5.582112">
        <ele>601.0</ele>
        <time>2021-02-14T10:53:47Z</time>
      </trkpt>
      <trkpt lat="43.452267" lon="-5.582105">
        <ele>601.0</ele>
        <time>2021-02-14T10:53:48Z</time>
      </trkpt>
      <trkpt lat="43.452263" lon="-5.5821">
        <ele>601.0</ele>
        <time>2021-02-14T10:53:49Z</time>
      </trkpt>
      <trkpt lat="43.45226" lon="-5.582094">
        <ele>602.0</ele>
        <time>2021-02-14T10:53:50Z</time>
      </trkpt>
      <trkpt lat="43.45225" lon="-5.5820894">
        <ele>602.0</ele>
        <time>2021-02-14T10:53:51Z</time>
      </trkpt>
      <trkpt lat="43.452236" lon="-5.5820856">
        <ele>602.0</ele>
        <time>2021-02-14T10:53:52Z</time>
      </trkpt>
      <trkpt lat="43.452225" lon="-5.582083">
        <ele>602.0</ele>
        <time>2021-02-14T10:53:53Z</time>
      </trkpt>
      <trkpt lat="43.452217" lon="-5.582081">
        <ele>602.0</ele>
        <time>2021-02-14T10:53:54Z</time>
      </trkpt>
      <trkpt lat="43.4522" lon="-5.582079">
        <ele>602.0</ele>
        <time>2021-02-14T10:53:55Z</time>
      </trkpt>
      <trkpt lat="43.452187" lon="-5.582078">
        <ele>602.0</ele>
        <time>2021-02-14T10:53:56Z</time>
      </trkpt>
      <trkpt lat="43.452175" lon="-5.582078">
        <ele>602.0</ele>
        <time>2021-02-14T10:53:57Z</time>
      </trkpt>
      <trkpt lat="43.45216" lon="-5.582079">
        <ele>602.0</ele>
        <time>2021-02-14T10:53:58Z</time>
      </trkpt>
      <trkpt lat="43.452145" lon="-5.582079">
        <ele>602.0</ele>
        <time>2021-02-14T10:53:59Z</time>
      </trkpt>
      <trkpt lat="43.45213" lon="-5.58208">
        <ele>602.0</ele>
        <time>2021-02-14T10:54:00Z</time>
      </trkpt>
      <trkpt lat="43.45211" lon="-5.5820856">
        <ele>602.0</ele>
        <time>2021-02-14T10:54:01Z</time>
      </trkpt>
      <trkpt lat="43.452095" lon="-5.582093">
        <ele>602.0</ele>
        <time>2021-02-14T10:54:02Z</time>
      </trkpt>
      <trkpt lat="43.45208" lon="-5.5820966">
        <ele>602.0</ele>
        <time>2021-02-14T10:54:03Z</time>
      </trkpt>
      <trkpt lat="43.452065" lon="-5.5820994">
        <ele>602.0</ele>
        <time>2021-02-14T10:54:04Z</time>
      </trkpt>
      <trkpt lat="43.452053" lon="-5.582098">
        <ele>602.0</ele>
        <time>2021-02-14T10:54:05Z</time>
      </trkpt>
      <trkpt lat="43.45205" lon="-5.5820947">
        <ele>602.0</ele>
        <time>2021-02-14T10:54:06Z</time>
      </trkpt>
      <trkpt lat="43.452038" lon="-5.5820923">
        <ele>602.0</ele>
        <time>2021-02-14T10:54:07Z</time>
      </trkpt>
      <trkpt lat="43.45203" lon="-5.5820894">
        <ele>602.0</ele>
        <time>2021-02-14T10:54:08Z</time>
      </trkpt>
      <trkpt lat="43.452023" lon="-5.5820885">
        <ele>602.0</ele>
        <time>2021-02-14T10:54:09Z</time>
      </trkpt>
      <trkpt lat="43.45201" lon="-5.5820875">
        <ele>602.0</ele>
        <time>2021-02-14T10:54:10Z</time>
      </trkpt>
      <trkpt lat="43.452007" lon="-5.582087">
        <ele>602.0</ele>
        <time>2021-02-14T10:54:11Z</time>
      </trkpt>
      <trkpt lat="43.451996" lon="-5.5820837">
        <ele>602.0</ele>
        <time>2021-02-14T10:54:12Z</time>
      </trkpt>
      <trkpt lat="43.451992" lon="-5.5820813">
        <ele>602.0</ele>
        <time>2021-02-14T10:54:13Z</time>
      </trkpt>
      <trkpt lat="43.451992" lon="-5.582078">
        <ele>602.0</ele>
        <time>2021-02-14T10:54:14Z</time>
      </trkpt>
      <trkpt lat="43.451984" lon="-5.582078">
        <ele>602.0</ele>
        <time>2021-02-14T10:54:15Z</time>
      </trkpt>
      <trkpt lat="43.451977" lon="-5.582078">
        <ele>602.0</ele>
        <time>2021-02-14T10:54:16Z</time>
      </trkpt>
      <trkpt lat="43.45197" lon="-5.582078">
        <ele>602.0</ele>
        <time>2021-02-14T10:54:17Z</time>
      </trkpt>
      <trkpt lat="43.45196" lon="-5.5820775">
        <ele>602.0</ele>
        <time>2021-02-14T10:54:18Z</time>
      </trkpt>
      <trkpt lat="43.45195" lon="-5.582076">
        <ele>602.0</ele>
        <time>2021-02-14T10:54:19Z</time>
      </trkpt>
      <trkpt lat="43.45194" lon="-5.582071">
        <ele>602.0</ele>
        <time>2021-02-14T10:54:20Z</time>
      </trkpt>
      <trkpt lat="43.45193" lon="-5.582064">
        <ele>602.0</ele>
        <time>2021-02-14T10:54:21Z</time>
      </trkpt>
      <trkpt lat="43.45192" lon="-5.582057">
        <ele>602.0</ele>
        <time>2021-02-14T10:54:22Z</time>
      </trkpt>
      <trkpt lat="43.45191" lon="-5.5820503">
        <ele>602.0</ele>
        <time>2021-02-14T10:54:23Z</time>
      </trkpt>
      <trkpt lat="43.4519" lon="-5.582041">
        <ele>602.0</ele>
        <time>2021-02-14T10:54:24Z</time>
      </trkpt>
      <trkpt lat="43.45189" lon="-5.5820327">
        <ele>602.0</ele>
        <time>2021-02-14T10:54:25Z</time>
      </trkpt>
      <trkpt lat="43.451878" lon="-5.582025">
        <ele>602.0</ele>
        <time>2021-02-14T10:54:26Z</time>
      </trkpt>
      <trkpt lat="43.451862" lon="-5.582022">
        <ele>602.0</ele>
        <time>2021-02-14T10:54:27Z</time>
      </trkpt>
      <trkpt lat="43.451855" lon="-5.582022">
        <ele>602.0</ele>
        <time>2021-02-14T10:54:28Z</time>
      </trkpt>
      <trkpt lat="43.451836" lon="-5.5820236">
        <ele>602.0</ele>
        <time>2021-02-14T10:54:29Z</time>
      </trkpt>
      <trkpt lat="43.45183" lon="-5.5820255">
        <ele>602.0</ele>
        <time>2021-02-14T10:54:30Z</time>
      </trkpt>
      <trkpt lat="43.45182" lon="-5.582027">
        <ele>602.0</ele>
        <time>2021-02-14T10:54:31Z</time>
      </trkpt>
      <trkpt lat="43.451817" lon="-5.582029">
        <ele>602.0</ele>
        <time>2021-02-14T10:54:32Z</time>
      </trkpt>
      <trkpt lat="43.451805" lon="-5.5820327">
        <ele>602.0</ele>
        <time>2021-02-14T10:54:33Z</time>
      </trkpt>
      <trkpt lat="43.4518" lon="-5.582037">
        <ele>602.0</ele>
        <time>2021-02-14T10:54:34Z</time>
      </trkpt>
      <trkpt lat="43.45179" lon="-5.5820403">
        <ele>602.0</ele>
        <time>2021-02-14T10:54:35Z</time>
      </trkpt>
      <trkpt lat="43.451782" lon="-5.582042">
        <ele>602.0</ele>
        <time>2021-02-14T10:54:36Z</time>
      </trkpt>
      <trkpt lat="43.451767" lon="-5.5820417">
        <ele>602.0</ele>
        <time>2021-02-14T10:54:37Z</time>
      </trkpt>
      <trkpt lat="43.45175" lon="-5.5820417">
        <ele>602.0</ele>
        <time>2021-02-14T10:54:38Z</time>
      </trkpt>
      <trkpt lat="43.451736" lon="-5.582041">
        <ele>602.0</ele>
        <time>2021-02-14T10:54:39Z</time>
      </trkpt>
      <trkpt lat="43.451725" lon="-5.58204">
        <ele>602.0</ele>
        <time>2021-02-14T10:54:40Z</time>
      </trkpt>
      <trkpt lat="43.45171" lon="-5.582039">
        <ele>602.0</ele>
        <time>2021-02-14T10:54:41Z</time>
      </trkpt>
      <trkpt lat="43.4517" lon="-5.5820403">
        <ele>602.0</ele>
        <time>2021-02-14T10:54:42Z</time>
      </trkpt>
      <trkpt lat="43.451683" lon="-5.582042">
        <ele>602.0</ele>
        <time>2021-02-14T10:54:43Z</time>
      </trkpt>
      <trkpt lat="43.451675" lon="-5.5820456">
        <ele>603.0</ele>
        <time>2021-02-14T10:54:44Z</time>
      </trkpt>
      <trkpt lat="43.451664" lon="-5.582048">
        <ele>603.0</ele>
        <time>2021-02-14T10:54:45Z</time>
      </trkpt>
      <trkpt lat="43.451656" lon="-5.5820503">
        <ele>603.0</ele>
        <time>2021-02-14T10:54:46Z</time>
      </trkpt>
      <trkpt lat="43.45165" lon="-5.5820513">
        <ele>603.0</ele>
        <time>2021-02-14T10:54:47Z</time>
      </trkpt>
      <trkpt lat="43.45164" lon="-5.5820518">
        <ele>603.0</ele>
        <time>2021-02-14T10:54:48Z</time>
      </trkpt>
      <trkpt lat="43.451633" lon="-5.5820518">
        <ele>603.0</ele>
        <time>2021-02-14T10:54:49Z</time>
      </trkpt>
      <trkpt lat="43.451626" lon="-5.5820503">
        <ele>603.0</ele>
        <time>2021-02-14T10:54:50Z</time>
      </trkpt>
      <trkpt lat="43.45162" lon="-5.5820494">
        <ele>603.0</ele>
        <time>2021-02-14T10:54:51Z</time>
      </trkpt>
      <trkpt lat="43.45161" lon="-5.582048">
        <ele>603.0</ele>
        <time>2021-02-14T10:54:52Z</time>
      </trkpt>
      <trkpt lat="43.45161" lon="-5.5820465">
        <ele>603.0</ele>
        <time>2021-02-14T10:54:53Z</time>
      </trkpt>
      <trkpt lat="43.451595" lon="-5.5820484">
        <ele>603.0</ele>
        <time>2021-02-14T10:54:55Z</time>
      </trkpt>
      <trkpt lat="43.45159" lon="-5.5820494">
        <ele>603.0</ele>
        <time>2021-02-14T10:54:56Z</time>
      </trkpt>
      <trkpt lat="43.45159" lon="-5.5820484">
        <ele>603.0</ele>
        <time>2021-02-14T10:54:57Z</time>
      </trkpt>
      <trkpt lat="43.45159" lon="-5.582044">
        <ele>603.0</ele>
        <time>2021-02-14T10:54:58Z</time>
      </trkpt>
      <trkpt lat="43.451595" lon="-5.582038">
        <ele>603.0</ele>
        <time>2021-02-14T10:54:59Z</time>
      </trkpt>
      <trkpt lat="43.451595" lon="-5.582032">
        <ele>603.0</ele>
        <time>2021-02-14T10:55:00Z</time>
      </trkpt>
      <trkpt lat="43.451595" lon="-5.5820274">
        <ele>603.0</ele>
        <time>2021-02-14T10:55:01Z</time>
      </trkpt>
      <trkpt lat="43.45159" lon="-5.582027">
        <ele>603.0</ele>
        <time>2021-02-14T10:55:02Z</time>
      </trkpt>
      <trkpt lat="43.451588" lon="-5.5820284">
        <ele>603.0</ele>
        <time>2021-02-14T10:55:03Z</time>
      </trkpt>
      <trkpt lat="43.451576" lon="-5.5820303">
        <ele>603.0</ele>
        <time>2021-02-14T10:55:04Z</time>
      </trkpt>
      <trkpt lat="43.451565" lon="-5.582034">
        <ele>603.0</ele>
        <time>2021-02-14T10:55:05Z</time>
      </trkpt>
      <trkpt lat="43.451557" lon="-5.5820346">
        <ele>603.0</ele>
        <time>2021-02-14T10:55:06Z</time>
      </trkpt>
      <trkpt lat="43.451546" lon="-5.5820346">
        <ele>603.0</ele>
        <time>2021-02-14T10:55:07Z</time>
      </trkpt>
      <trkpt lat="43.45153" lon="-5.582034">
        <ele>603.0</ele>
        <time>2021-02-14T10:55:08Z</time>
      </trkpt>
      <trkpt lat="43.451515" lon="-5.582033">
        <ele>603.0</ele>
        <time>2021-02-14T10:55:09Z</time>
      </trkpt>
      <trkpt lat="43.451504" lon="-5.5820327">
        <ele>603.0</ele>
        <time>2021-02-14T10:55:10Z</time>
      </trkpt>
      <trkpt lat="43.451496" lon="-5.582034">
        <ele>603.0</ele>
        <time>2021-02-14T10:55:11Z</time>
      </trkpt>
      <trkpt lat="43.451485" lon="-5.582037">
        <ele>603.0</ele>
        <time>2021-02-14T10:55:12Z</time>
      </trkpt>
      <trkpt lat="43.45148" lon="-5.5820384">
        <ele>603.0</ele>
        <time>2021-02-14T10:55:13Z</time>
      </trkpt>
      <trkpt lat="43.45147" lon="-5.5820384">
        <ele>603.0</ele>
        <time>2021-02-14T10:55:14Z</time>
      </trkpt>
      <trkpt lat="43.451458" lon="-5.582039">
        <ele>603.0</ele>
        <time>2021-02-14T10:55:15Z</time>
      </trkpt>
      <trkpt lat="43.451447" lon="-5.5820427">
        <ele>603.0</ele>
        <time>2021-02-14T10:55:16Z</time>
      </trkpt>
      <trkpt lat="43.45143" lon="-5.58205">
        <ele>603.0</ele>
        <time>2021-02-14T10:55:17Z</time>
      </trkpt>
      <trkpt lat="43.451416" lon="-5.582057">
        <ele>603.0</ele>
        <time>2021-02-14T10:55:18Z</time>
      </trkpt>
      <trkpt lat="43.451397" lon="-5.582063">
        <ele>603.0</ele>
        <time>2021-02-14T10:55:19Z</time>
      </trkpt>
      <trkpt lat="43.45137" lon="-5.5820723">
        <ele>603.0</ele>
        <time>2021-02-14T10:55:20Z</time>
      </trkpt>
      <trkpt lat="43.45135" lon="-5.5820827">
        <ele>603.0</ele>
        <time>2021-02-14T10:55:21Z</time>
      </trkpt>
      <trkpt lat="43.451336" lon="-5.5820894">
        <ele>603.0</ele>
        <time>2021-02-14T10:55:22Z</time>
      </trkpt>
      <trkpt lat="43.45132" lon="-5.582095">
        <ele>603.0</ele>
        <time>2021-02-14T10:55:23Z</time>
      </trkpt>
      <trkpt lat="43.45131" lon="-5.5821013">
        <ele>603.0</ele>
        <time>2021-02-14T10:55:24Z</time>
      </trkpt>
      <trkpt lat="43.4513" lon="-5.582106">
        <ele>603.0</ele>
        <time>2021-02-14T10:55:25Z</time>
      </trkpt>
      <trkpt lat="43.45129" lon="-5.58211">
        <ele>603.0</ele>
        <time>2021-02-14T10:55:26Z</time>
      </trkpt>
      <trkpt lat="43.45128" lon="-5.5821137">
        <ele>603.0</ele>
        <time>2021-02-14T10:55:27Z</time>
      </trkpt>
      <trkpt lat="43.451275" lon="-5.5821166">
        <ele>603.0</ele>
        <time>2021-02-14T10:55:28Z</time>
      </trkpt>
      <trkpt lat="43.451267" lon="-5.5821185">
        <ele>603.0</ele>
        <time>2021-02-14T10:55:29Z</time>
      </trkpt>
      <trkpt lat="43.451263" lon="-5.582119">
        <ele>603.0</ele>
        <time>2021-02-14T10:55:30Z</time>
      </trkpt>
      <trkpt lat="43.45126" lon="-5.5821204">
        <ele>603.0</ele>
        <time>2021-02-14T10:55:31Z</time>
      </trkpt>
      <trkpt lat="43.45125" lon="-5.582121">
        <ele>603.0</ele>
        <time>2021-02-14T10:55:32Z</time>
      </trkpt>
      <trkpt lat="43.451237" lon="-5.582123">
        <ele>603.0</ele>
        <time>2021-02-14T10:55:33Z</time>
      </trkpt>
      <trkpt lat="43.451233" lon="-5.582124">
        <ele>603.0</ele>
        <time>2021-02-14T10:55:34Z</time>
      </trkpt>
      <trkpt lat="43.45122" lon="-5.5821257">
        <ele>603.0</ele>
        <time>2021-02-14T10:55:35Z</time>
      </trkpt>
      <trkpt lat="43.451214" lon="-5.5821266">
        <ele>602.0</ele>
        <time>2021-02-14T10:55:36Z</time>
      </trkpt>
      <trkpt lat="43.451202" lon="-5.5821257">
        <ele>602.0</ele>
        <time>2021-02-14T10:55:37Z</time>
      </trkpt>
      <trkpt lat="43.45119" lon="-5.5821223">
        <ele>602.0</ele>
        <time>2021-02-14T10:55:38Z</time>
      </trkpt>
      <trkpt lat="43.451183" lon="-5.582117">
        <ele>602.0</ele>
        <time>2021-02-14T10:55:39Z</time>
      </trkpt>
      <trkpt lat="43.45117" lon="-5.582113">
        <ele>602.0</ele>
        <time>2021-02-14T10:55:40Z</time>
      </trkpt>
      <trkpt lat="43.451157" lon="-5.5821095">
        <ele>602.0</ele>
        <time>2021-02-14T10:55:41Z</time>
      </trkpt>
      <trkpt lat="43.451145" lon="-5.582108">
        <ele>602.0</ele>
        <time>2021-02-14T10:55:42Z</time>
      </trkpt>
      <trkpt lat="43.451138" lon="-5.5821075">
        <ele>602.0</ele>
        <time>2021-02-14T10:55:43Z</time>
      </trkpt>
      <trkpt lat="43.451126" lon="-5.582107">
        <ele>602.0</ele>
        <time>2021-02-14T10:55:44Z</time>
      </trkpt>
      <trkpt lat="43.45111" lon="-5.5821095">
        <ele>602.0</ele>
        <time>2021-02-14T10:55:45Z</time>
      </trkpt>
      <trkpt lat="43.4511" lon="-5.582112">
        <ele>602.0</ele>
        <time>2021-02-14T10:55:46Z</time>
      </trkpt>
      <trkpt lat="43.451084" lon="-5.5821157">
        <ele>602.0</ele>
        <time>2021-02-14T10:55:47Z</time>
      </trkpt>
      <trkpt lat="43.451073" lon="-5.582119">
        <ele>602.0</ele>
        <time>2021-02-14T10:55:48Z</time>
      </trkpt>
      <trkpt lat="43.451065" lon="-5.5821204">
        <ele>602.0</ele>
        <time>2021-02-14T10:55:49Z</time>
      </trkpt>
      <trkpt lat="43.45105" lon="-5.5821204">
        <ele>602.0</ele>
        <time>2021-02-14T10:55:50Z</time>
      </trkpt>
      <trkpt lat="43.45104" lon="-5.5821176">
        <ele>602.0</ele>
        <time>2021-02-14T10:55:51Z</time>
      </trkpt>
      <trkpt lat="43.45101" lon="-5.582115">
        <ele>602.0</ele>
        <time>2021-02-14T10:55:53Z</time>
      </trkpt>
      <trkpt lat="43.45101" lon="-5.5821147">
        <ele>602.0</ele>
        <time>2021-02-14T10:55:54Z</time>
      </trkpt>
      <trkpt lat="43.451008" lon="-5.582112">
        <ele>602.0</ele>
        <time>2021-02-14T10:55:55Z</time>
      </trkpt>
      <trkpt lat="43.451004" lon="-5.58211">
        <ele>602.0</ele>
        <time>2021-02-14T10:55:56Z</time>
      </trkpt>
      <trkpt lat="43.450996" lon="-5.582111">
        <ele>602.0</ele>
        <time>2021-02-14T10:55:57Z</time>
      </trkpt>
      <trkpt lat="43.450996" lon="-5.5821133">
        <ele>602.0</ele>
        <time>2021-02-14T10:55:58Z</time>
      </trkpt>
      <trkpt lat="43.450993" lon="-5.582117">
        <ele>602.0</ele>
        <time>2021-02-14T10:55:59Z</time>
      </trkpt>
      <trkpt lat="43.45099" lon="-5.582121">
        <ele>602.0</ele>
        <time>2021-02-14T10:56:00Z</time>
      </trkpt>
      <trkpt lat="43.45098" lon="-5.582124">
        <ele>602.0</ele>
        <time>2021-02-14T10:56:01Z</time>
      </trkpt>
      <trkpt lat="43.450977" lon="-5.5821295">
        <ele>602.0</ele>
        <time>2021-02-14T10:56:02Z</time>
      </trkpt>
      <trkpt lat="43.450974" lon="-5.5821357">
        <ele>602.0</ele>
        <time>2021-02-14T10:56:03Z</time>
      </trkpt>
      <trkpt lat="43.450966" lon="-5.582144">
        <ele>602.0</ele>
        <time>2021-02-14T10:56:04Z</time>
      </trkpt>
      <trkpt lat="43.45096" lon="-5.5821543">
        <ele>602.0</ele>
        <time>2021-02-14T10:56:05Z</time>
      </trkpt>
      <trkpt lat="43.450947" lon="-5.5821633">
        <ele>602.0</ele>
        <time>2021-02-14T10:56:06Z</time>
      </trkpt>
      <trkpt lat="43.450935" lon="-5.582171">
        <ele>602.0</ele>
        <time>2021-02-14T10:56:07Z</time>
      </trkpt>
      <trkpt lat="43.450928" lon="-5.5821786">
        <ele>602.0</ele>
        <time>2021-02-14T10:56:08Z</time>
      </trkpt>
      <trkpt lat="43.450912" lon="-5.582184">
        <ele>602.0</ele>
        <time>2021-02-14T10:56:09Z</time>
      </trkpt>
      <trkpt lat="43.45089" lon="-5.5821886">
        <ele>602.0</ele>
        <time>2021-02-14T10:56:10Z</time>
      </trkpt>
      <trkpt lat="43.45088" lon="-5.5821924">
        <ele>602.0</ele>
        <time>2021-02-14T10:56:11Z</time>
      </trkpt>
      <trkpt lat="43.45087" lon="-5.5821967">
        <ele>602.0</ele>
        <time>2021-02-14T10:56:12Z</time>
      </trkpt>
      <trkpt lat="43.45086" lon="-5.582201">
        <ele>602.0</ele>
        <time>2021-02-14T10:56:13Z</time>
      </trkpt>
      <trkpt lat="43.450848" lon="-5.5822053">
        <ele>602.0</ele>
        <time>2021-02-14T10:56:14Z</time>
      </trkpt>
      <trkpt lat="43.45084" lon="-5.58221">
        <ele>602.0</ele>
        <time>2021-02-14T10:56:15Z</time>
      </trkpt>
      <trkpt lat="43.450832" lon="-5.5822163">
        <ele>602.0</ele>
        <time>2021-02-14T10:56:16Z</time>
      </trkpt>
      <trkpt lat="43.45083" lon="-5.582222">
        <ele>602.0</ele>
        <time>2021-02-14T10:56:17Z</time>
      </trkpt>
      <trkpt lat="43.450825" lon="-5.582226">
        <ele>602.0</ele>
        <time>2021-02-14T10:56:18Z</time>
      </trkpt>
      <trkpt lat="43.450813" lon="-5.5822306">
        <ele>602.0</ele>
        <time>2021-02-14T10:56:19Z</time>
      </trkpt>
      <trkpt lat="43.4508" lon="-5.582235">
        <ele>602.0</ele>
        <time>2021-02-14T10:56:20Z</time>
      </trkpt>
      <trkpt lat="43.450794" lon="-5.582241">
        <ele>602.0</ele>
        <time>2021-02-14T10:56:21Z</time>
      </trkpt>
      <trkpt lat="43.450787" lon="-5.582248">
        <ele>602.0</ele>
        <time>2021-02-14T10:56:22Z</time>
      </trkpt>
      <trkpt lat="43.45078" lon="-5.582254">
        <ele>600.0</ele>
        <time>2021-02-14T10:56:23Z</time>
      </trkpt>
      <trkpt lat="43.450764" lon="-5.5822577">
        <ele>600.0</ele>
        <time>2021-02-14T10:56:23Z</time>
      </trkpt>
      <trkpt lat="43.450752" lon="-5.5822597">
        <ele>600.0</ele>
        <time>2021-02-14T10:56:24Z</time>
      </trkpt>
      <trkpt lat="43.45074" lon="-5.582263">
        <ele>600.0</ele>
        <time>2021-02-14T10:56:25Z</time>
      </trkpt>
      <trkpt lat="43.450733" lon="-5.582267">
        <ele>600.0</ele>
        <time>2021-02-14T10:56:26Z</time>
      </trkpt>
      <trkpt lat="43.45072" lon="-5.582272">
        <ele>600.0</ele>
        <time>2021-02-14T10:56:27Z</time>
      </trkpt>
      <trkpt lat="43.45071" lon="-5.582276">
        <ele>600.0</ele>
        <time>2021-02-14T10:56:28Z</time>
      </trkpt>
      <trkpt lat="43.450706" lon="-5.5822797">
        <ele>600.0</ele>
        <time>2021-02-14T10:56:29Z</time>
      </trkpt>
      <trkpt lat="43.450695" lon="-5.5822835">
        <ele>600.0</ele>
        <time>2021-02-14T10:56:30Z</time>
      </trkpt>
      <trkpt lat="43.45069" lon="-5.582288">
        <ele>600.0</ele>
        <time>2021-02-14T10:56:31Z</time>
      </trkpt>
      <trkpt lat="43.45068" lon="-5.5822916">
        <ele>600.0</ele>
        <time>2021-02-14T10:56:32Z</time>
      </trkpt>
      <trkpt lat="43.450676" lon="-5.5822988">
        <ele>600.0</ele>
        <time>2021-02-14T10:56:33Z</time>
      </trkpt>
      <trkpt lat="43.45067" lon="-5.5823045">
        <ele>600.0</ele>
        <time>2021-02-14T10:56:34Z</time>
      </trkpt>
      <trkpt lat="43.450665" lon="-5.582312">
        <ele>600.0</ele>
        <time>2021-02-14T10:56:36Z</time>
      </trkpt>
      <trkpt lat="43.450653" lon="-5.582319">
        <ele>600.0</ele>
        <time>2021-02-14T10:56:37Z</time>
      </trkpt>
      <trkpt lat="43.45065" lon="-5.582327">
        <ele>600.0</ele>
        <time>2021-02-14T10:56:38Z</time>
      </trkpt>
      <trkpt lat="43.450634" lon="-5.582332">
        <ele>600.0</ele>
        <time>2021-02-14T10:56:39Z</time>
      </trkpt>
      <trkpt lat="43.450615" lon="-5.5823355">
        <ele>600.0</ele>
        <time>2021-02-14T10:56:40Z</time>
      </trkpt>
      <trkpt lat="43.4506" lon="-5.582338">
        <ele>600.0</ele>
        <time>2021-02-14T10:56:42Z</time>
      </trkpt>
      <trkpt lat="43.450584" lon="-5.582341">
        <ele>600.0</ele>
        <time>2021-02-14T10:56:42Z</time>
      </trkpt>
      <trkpt lat="43.45057" lon="-5.582345">
        <ele>600.0</ele>
        <time>2021-02-14T10:56:43Z</time>
      </trkpt>
      <trkpt lat="43.450554" lon="-5.582349">
        <ele>600.0</ele>
        <time>2021-02-14T10:56:44Z</time>
      </trkpt>
      <trkpt lat="43.450542" lon="-5.582353">
        <ele>600.0</ele>
        <time>2021-02-14T10:56:45Z</time>
      </trkpt>
      <trkpt lat="43.45053" lon="-5.582355">
        <ele>600.0</ele>
        <time>2021-02-14T10:56:46Z</time>
      </trkpt>
      <trkpt lat="43.450527" lon="-5.582356">
        <ele>600.0</ele>
        <time>2021-02-14T10:56:47Z</time>
      </trkpt>
      <trkpt lat="43.450523" lon="-5.582355">
        <ele>600.0</ele>
        <time>2021-02-14T10:56:48Z</time>
      </trkpt>
      <trkpt lat="43.450516" lon="-5.5823545">
        <ele>600.0</ele>
        <time>2021-02-14T10:56:49Z</time>
      </trkpt>
      <trkpt lat="43.450512" lon="-5.582353">
        <ele>600.0</ele>
        <time>2021-02-14T10:56:50Z</time>
      </trkpt>
      <trkpt lat="43.45051" lon="-5.582352">
        <ele>600.0</ele>
        <time>2021-02-14T10:56:51Z</time>
      </trkpt>
      <trkpt lat="43.450497" lon="-5.582352">
        <ele>600.0</ele>
        <time>2021-02-14T10:56:53Z</time>
      </trkpt>
      <trkpt lat="43.450497" lon="-5.5823526">
        <ele>600.0</ele>
        <time>2021-02-14T10:56:54Z</time>
      </trkpt>
      <trkpt lat="43.45049" lon="-5.582356">
        <ele>600.0</ele>
        <time>2021-02-14T10:56:55Z</time>
      </trkpt>
      <trkpt lat="43.450485" lon="-5.582364">
        <ele>600.0</ele>
        <time>2021-02-14T10:56:56Z</time>
      </trkpt>
      <trkpt lat="43.450474" lon="-5.5823755">
        <ele>600.0</ele>
        <time>2021-02-14T10:56:57Z</time>
      </trkpt>
      <trkpt lat="43.45047" lon="-5.582387">
        <ele>600.0</ele>
        <time>2021-02-14T10:56:58Z</time>
      </trkpt>
      <trkpt lat="43.45046" lon="-5.582398">
        <ele>600.0</ele>
        <time>2021-02-14T10:56:59Z</time>
      </trkpt>
      <trkpt lat="43.450443" lon="-5.582407">
        <ele>600.0</ele>
        <time>2021-02-14T10:57:00Z</time>
      </trkpt>
      <trkpt lat="43.450428" lon="-5.5824175">
        <ele>600.0</ele>
        <time>2021-02-14T10:57:01Z</time>
      </trkpt>
      <trkpt lat="43.450413" lon="-5.582426">
        <ele>600.0</ele>
        <time>2021-02-14T10:57:02Z</time>
      </trkpt>
      <trkpt lat="43.450405" lon="-5.5824327">
        <ele>600.0</ele>
        <time>2021-02-14T10:57:03Z</time>
      </trkpt>
      <trkpt lat="43.450394" lon="-5.5824366">
        <ele>600.0</ele>
        <time>2021-02-14T10:57:04Z</time>
      </trkpt>
      <trkpt lat="43.450382" lon="-5.582438">
        <ele>600.0</ele>
        <time>2021-02-14T10:57:05Z</time>
      </trkpt>
      <trkpt lat="43.450375" lon="-5.582437">
        <ele>600.0</ele>
        <time>2021-02-14T10:57:06Z</time>
      </trkpt>
      <trkpt lat="43.450363" lon="-5.582437">
        <ele>600.0</ele>
        <time>2021-02-14T10:57:07Z</time>
      </trkpt>
      <trkpt lat="43.45036" lon="-5.5824366">
        <ele>600.0</ele>
        <time>2021-02-14T10:57:08Z</time>
      </trkpt>
      <trkpt lat="43.450348" lon="-5.5824385">
        <ele>600.0</ele>
        <time>2021-02-14T10:57:09Z</time>
      </trkpt>
      <trkpt lat="43.450336" lon="-5.5824404">
        <ele>600.0</ele>
        <time>2021-02-14T10:57:10Z</time>
      </trkpt>
      <trkpt lat="43.45033" lon="-5.582442">
        <ele>600.0</ele>
        <time>2021-02-14T10:57:11Z</time>
      </trkpt>
      <trkpt lat="43.45032" lon="-5.5824437">
        <ele>600.0</ele>
        <time>2021-02-14T10:57:12Z</time>
      </trkpt>
      <trkpt lat="43.450314" lon="-5.5824456">
        <ele>600.0</ele>
        <time>2021-02-14T10:57:13Z</time>
      </trkpt>
      <trkpt lat="43.450306" lon="-5.5824504">
        <ele>600.0</ele>
        <time>2021-02-14T10:57:14Z</time>
      </trkpt>
      <trkpt lat="43.450294" lon="-5.5824575">
        <ele>600.0</ele>
        <time>2021-02-14T10:57:15Z</time>
      </trkpt>
      <trkpt lat="43.45029" lon="-5.582465">
        <ele>600.0</ele>
        <time>2021-02-14T10:57:16Z</time>
      </trkpt>
      <trkpt lat="43.45028" lon="-5.5824747">
        <ele>601.0</ele>
        <time>2021-02-14T10:57:18Z</time>
      </trkpt>
      <trkpt lat="43.45028" lon="-5.582474">
        <ele>601.0</ele>
        <time>2021-02-14T10:57:19Z</time>
      </trkpt>
      <trkpt lat="43.450275" lon="-5.5824766">
        <ele>601.0</ele>
        <time>2021-02-14T10:57:20Z</time>
      </trkpt>
      <trkpt lat="43.45027" lon="-5.5824833">
        <ele>601.0</ele>
        <time>2021-02-14T10:57:21Z</time>
      </trkpt>
      <trkpt lat="43.45026" lon="-5.5824943">
        <ele>601.0</ele>
        <time>2021-02-14T10:57:22Z</time>
      </trkpt>
      <trkpt lat="43.45025" lon="-5.5825076">
        <ele>601.0</ele>
        <time>2021-02-14T10:57:23Z</time>
      </trkpt>
      <trkpt lat="43.450245" lon="-5.5825205">
        <ele>601.0</ele>
        <time>2021-02-14T10:57:24Z</time>
      </trkpt>
      <trkpt lat="43.450233" lon="-5.5825343">
        <ele>601.0</ele>
        <time>2021-02-14T10:57:25Z</time>
      </trkpt>
      <trkpt lat="43.45023" lon="-5.5825477">
        <ele>601.0</ele>
        <time>2021-02-14T10:57:26Z</time>
      </trkpt>
      <trkpt lat="43.450226" lon="-5.5825577">
        <ele>601.0</ele>
        <time>2021-02-14T10:57:27Z</time>
      </trkpt>
      <trkpt lat="43.45022" lon="-5.5825644">
        <ele>601.0</ele>
        <time>2021-02-14T10:57:28Z</time>
      </trkpt>
      <trkpt lat="43.450214" lon="-5.5825715">
        <ele>601.0</ele>
        <time>2021-02-14T10:57:29Z</time>
      </trkpt>
      <trkpt lat="43.450214" lon="-5.582577">
        <ele>601.0</ele>
        <time>2021-02-14T10:57:30Z</time>
      </trkpt>
      <trkpt lat="43.450214" lon="-5.582586">
        <ele>601.0</ele>
        <time>2021-02-14T10:57:31Z</time>
      </trkpt>
      <trkpt lat="43.45021" lon="-5.5825963">
        <ele>601.0</ele>
        <time>2021-02-14T10:57:32Z</time>
      </trkpt>
      <trkpt lat="43.45021" lon="-5.5826073">
        <ele>601.0</ele>
        <time>2021-02-14T10:57:33Z</time>
      </trkpt>
      <trkpt lat="43.450203" lon="-5.582617">
        <ele>601.0</ele>
        <time>2021-02-14T10:57:34Z</time>
      </trkpt>
      <trkpt lat="43.450203" lon="-5.582626">
        <ele>602.0</ele>
        <time>2021-02-14T10:57:35Z</time>
      </trkpt>
      <trkpt lat="43.450195" lon="-5.582635">
        <ele>602.0</ele>
        <time>2021-02-14T10:57:36Z</time>
      </trkpt>
      <trkpt lat="43.450188" lon="-5.5826426">
        <ele>602.0</ele>
        <time>2021-02-14T10:57:37Z</time>
      </trkpt>
      <trkpt lat="43.450188" lon="-5.5826483">
        <ele>602.0</ele>
        <time>2021-02-14T10:57:38Z</time>
      </trkpt>
      <trkpt lat="43.450184" lon="-5.5826554">
        <ele>602.0</ele>
        <time>2021-02-14T10:57:39Z</time>
      </trkpt>
      <trkpt lat="43.45018" lon="-5.5826626">
        <ele>602.0</ele>
        <time>2021-02-14T10:57:40Z</time>
      </trkpt>
      <trkpt lat="43.450172" lon="-5.5826693">
        <ele>602.0</ele>
        <time>2021-02-14T10:57:41Z</time>
      </trkpt>
      <trkpt lat="43.45017" lon="-5.582677">
        <ele>602.0</ele>
        <time>2021-02-14T10:57:42Z</time>
      </trkpt>
      <trkpt lat="43.450157" lon="-5.582686">
        <ele>603.0</ele>
        <time>2021-02-14T10:57:43Z</time>
      </trkpt>
      <trkpt lat="43.450153" lon="-5.5826955">
        <ele>603.0</ele>
        <time>2021-02-14T10:57:44Z</time>
      </trkpt>
      <trkpt lat="43.45014" lon="-5.5827055">
        <ele>603.0</ele>
        <time>2021-02-14T10:57:45Z</time>
      </trkpt>
      <trkpt lat="43.450134" lon="-5.582715">
        <ele>603.0</ele>
        <time>2021-02-14T10:57:46Z</time>
      </trkpt>
      <trkpt lat="43.450127" lon="-5.582725">
        <ele>603.0</ele>
        <time>2021-02-14T10:57:47Z</time>
      </trkpt>
      <trkpt lat="43.45012" lon="-5.5827374">
        <ele>603.0</ele>
        <time>2021-02-14T10:57:48Z</time>
      </trkpt>
      <trkpt lat="43.45011" lon="-5.5827494">
        <ele>603.0</ele>
        <time>2021-02-14T10:57:49Z</time>
      </trkpt>
      <trkpt lat="43.450108" lon="-5.5827622">
        <ele>603.0</ele>
        <time>2021-02-14T10:57:50Z</time>
      </trkpt>
      <trkpt lat="43.450096" lon="-5.5827765">
        <ele>603.0</ele>
        <time>2021-02-14T10:57:51Z</time>
      </trkpt>
      <trkpt lat="43.450085" lon="-5.5827928">
        <ele>603.0</ele>
        <time>2021-02-14T10:57:52Z</time>
      </trkpt>
      <trkpt lat="43.450077" lon="-5.582809">
        <ele>604.0</ele>
        <time>2021-02-14T10:57:53Z</time>
      </trkpt>
      <trkpt lat="43.450066" lon="-5.5828257">
        <ele>604.0</ele>
        <time>2021-02-14T10:57:54Z</time>
      </trkpt>
      <trkpt lat="43.45006" lon="-5.5828424">
        <ele>604.0</ele>
        <time>2021-02-14T10:57:55Z</time>
      </trkpt>
      <trkpt lat="43.450054" lon="-5.582857">
        <ele>604.0</ele>
        <time>2021-02-14T10:57:56Z</time>
      </trkpt>
      <trkpt lat="43.45005" lon="-5.582871">
        <ele>604.0</ele>
        <time>2021-02-14T10:57:57Z</time>
      </trkpt>
      <trkpt lat="43.450047" lon="-5.5828843">
        <ele>604.0</ele>
        <time>2021-02-14T10:57:58Z</time>
      </trkpt>
      <trkpt lat="43.45004" lon="-5.582899">
        <ele>604.0</ele>
        <time>2021-02-14T10:57:59Z</time>
      </trkpt>
      <trkpt lat="43.45003" lon="-5.5829144">
        <ele>604.0</ele>
        <time>2021-02-14T10:58:00Z</time>
      </trkpt>
      <trkpt lat="43.450024" lon="-5.58293">
        <ele>604.0</ele>
        <time>2021-02-14T10:58:01Z</time>
      </trkpt>
      <trkpt lat="43.450016" lon="-5.582945">
        <ele>604.0</ele>
        <time>2021-02-14T10:58:02Z</time>
      </trkpt>
      <trkpt lat="43.45001" lon="-5.5829573">
        <ele>604.0</ele>
        <time>2021-02-14T10:58:03Z</time>
      </trkpt>
      <trkpt lat="43.450005" lon="-5.582971">
        <ele>604.0</ele>
        <time>2021-02-14T10:58:04Z</time>
      </trkpt>
      <trkpt lat="43.45" lon="-5.5829835">
        <ele>604.0</ele>
        <time>2021-02-14T10:58:05Z</time>
      </trkpt>
      <trkpt lat="43.44999" lon="-5.5829964">
        <ele>605.0</ele>
        <time>2021-02-14T10:58:06Z</time>
      </trkpt>
      <trkpt lat="43.449978" lon="-5.5830107">
        <ele>605.0</ele>
        <time>2021-02-14T10:58:07Z</time>
      </trkpt>
      <trkpt lat="43.449974" lon="-5.5830245">
        <ele>605.0</ele>
        <time>2021-02-14T10:58:08Z</time>
      </trkpt>
      <trkpt lat="43.44997" lon="-5.5830355">
        <ele>605.0</ele>
        <time>2021-02-14T10:58:09Z</time>
      </trkpt>
      <trkpt lat="43.44996" lon="-5.583048">
        <ele>605.0</ele>
        <time>2021-02-14T10:58:10Z</time>
      </trkpt>
      <trkpt lat="43.449947" lon="-5.5830603">
        <ele>605.0</ele>
        <time>2021-02-14T10:58:11Z</time>
      </trkpt>
      <trkpt lat="43.44994" lon="-5.583073">
        <ele>605.0</ele>
        <time>2021-02-14T10:58:12Z</time>
      </trkpt>
      <trkpt lat="43.44993" lon="-5.583089">
        <ele>605.0</ele>
        <time>2021-02-14T10:58:13Z</time>
      </trkpt>
      <trkpt lat="43.44993" lon="-5.583099">
        <ele>605.0</ele>
        <time>2021-02-14T10:58:14Z</time>
      </trkpt>
      <trkpt lat="43.44992" lon="-5.5831122">
        <ele>605.0</ele>
        <time>2021-02-14T10:58:15Z</time>
      </trkpt>
      <trkpt lat="43.44992" lon="-5.583127">
        <ele>606.0</ele>
        <time>2021-02-14T10:58:16Z</time>
      </trkpt>
      <trkpt lat="43.44992" lon="-5.583143">
        <ele>606.0</ele>
        <time>2021-02-14T10:58:17Z</time>
      </trkpt>
      <trkpt lat="43.449917" lon="-5.583159">
        <ele>606.0</ele>
        <time>2021-02-14T10:58:18Z</time>
      </trkpt>
      <trkpt lat="43.449917" lon="-5.5831733">
        <ele>606.0</ele>
        <time>2021-02-14T10:58:19Z</time>
      </trkpt>
      <trkpt lat="43.449913" lon="-5.5831866">
        <ele>606.0</ele>
        <time>2021-02-14T10:58:20Z</time>
      </trkpt>
      <trkpt lat="43.449905" lon="-5.5832">
        <ele>606.0</ele>
        <time>2021-02-14T10:58:21Z</time>
      </trkpt>
      <trkpt lat="43.4499" lon="-5.5832148">
        <ele>606.0</ele>
        <time>2021-02-14T10:58:22Z</time>
      </trkpt>
      <trkpt lat="43.44989" lon="-5.583228">
        <ele>606.0</ele>
        <time>2021-02-14T10:58:23Z</time>
      </trkpt>
      <trkpt lat="43.449886" lon="-5.5832405">
        <ele>606.0</ele>
        <time>2021-02-14T10:58:24Z</time>
      </trkpt>
      <trkpt lat="43.449883" lon="-5.583251">
        <ele>606.0</ele>
        <time>2021-02-14T10:58:25Z</time>
      </trkpt>
      <trkpt lat="43.449883" lon="-5.583262">
        <ele>606.0</ele>
        <time>2021-02-14T10:58:26Z</time>
      </trkpt>
      <trkpt lat="43.449875" lon="-5.583273">
        <ele>606.0</ele>
        <time>2021-02-14T10:58:27Z</time>
      </trkpt>
      <trkpt lat="43.449875" lon="-5.5832844">
        <ele>606.0</ele>
        <time>2021-02-14T10:58:28Z</time>
      </trkpt>
      <trkpt lat="43.44987" lon="-5.583294">
        <ele>606.0</ele>
        <time>2021-02-14T10:58:29Z</time>
      </trkpt>
      <trkpt lat="43.44987" lon="-5.5833044">
        <ele>607.0</ele>
        <time>2021-02-14T10:58:30Z</time>
      </trkpt>
      <trkpt lat="43.449867" lon="-5.5833135">
        <ele>607.0</ele>
        <time>2021-02-14T10:58:31Z</time>
      </trkpt>
      <trkpt lat="43.449867" lon="-5.5833235">
        <ele>607.0</ele>
        <time>2021-02-14T10:58:32Z</time>
      </trkpt>
      <trkpt lat="43.44986" lon="-5.583335">
        <ele>607.0</ele>
        <time>2021-02-14T10:58:33Z</time>
      </trkpt>
      <trkpt lat="43.449852" lon="-5.583348">
        <ele>607.0</ele>
        <time>2021-02-14T10:58:34Z</time>
      </trkpt>
      <trkpt lat="43.449844" lon="-5.5833626">
        <ele>607.0</ele>
        <time>2021-02-14T10:58:35Z</time>
      </trkpt>
      <trkpt lat="43.44984" lon="-5.5833764">
        <ele>607.0</ele>
        <time>2021-02-14T10:58:36Z</time>
      </trkpt>
      <trkpt lat="43.44983" lon="-5.5833893">
        <ele>607.0</ele>
        <time>2021-02-14T10:58:37Z</time>
      </trkpt>
      <trkpt lat="43.449825" lon="-5.583402">
        <ele>608.0</ele>
        <time>2021-02-14T10:58:38Z</time>
      </trkpt>
      <trkpt lat="43.44982" lon="-5.5834146">
        <ele>608.0</ele>
        <time>2021-02-14T10:58:39Z</time>
      </trkpt>
      <trkpt lat="43.449814" lon="-5.5834265">
        <ele>608.0</ele>
        <time>2021-02-14T10:58:40Z</time>
      </trkpt>
      <trkpt lat="43.449814" lon="-5.583439">
        <ele>608.0</ele>
        <time>2021-02-14T10:58:42Z</time>
      </trkpt>
      <trkpt lat="43.449806" lon="-5.583452">
        <ele>608.0</ele>
        <time>2021-02-14T10:58:42Z</time>
      </trkpt>
      <trkpt lat="43.4498" lon="-5.583465">
        <ele>608.0</ele>
        <time>2021-02-14T10:58:43Z</time>
      </trkpt>
      <trkpt lat="43.449795" lon="-5.583475">
        <ele>608.0</ele>
        <time>2021-02-14T10:58:44Z</time>
      </trkpt>
      <trkpt lat="43.449795" lon="-5.583486">
        <ele>608.0</ele>
        <time>2021-02-14T10:58:45Z</time>
      </trkpt>
      <trkpt lat="43.44979" lon="-5.5834975">
        <ele>609.0</ele>
        <time>2021-02-14T10:58:46Z</time>
      </trkpt>
      <trkpt lat="43.449783" lon="-5.5835123">
        <ele>609.0</ele>
        <time>2021-02-14T10:58:47Z</time>
      </trkpt>
      <trkpt lat="43.449776" lon="-5.5835276">
        <ele>609.0</ele>
        <time>2021-02-14T10:58:48Z</time>
      </trkpt>
      <trkpt lat="43.449768" lon="-5.583543">
        <ele>609.0</ele>
        <time>2021-02-14T10:58:49Z</time>
      </trkpt>
      <trkpt lat="43.449764" lon="-5.5835576">
        <ele>609.0</ele>
        <time>2021-02-14T10:58:50Z</time>
      </trkpt>
      <trkpt lat="43.44976" lon="-5.5835724">
        <ele>609.0</ele>
        <time>2021-02-14T10:58:51Z</time>
      </trkpt>
      <trkpt lat="43.449753" lon="-5.583587">
        <ele>610.0</ele>
        <time>2021-02-14T10:58:52Z</time>
      </trkpt>
      <trkpt lat="43.44975" lon="-5.5836024">
        <ele>610.0</ele>
        <time>2021-02-14T10:58:53Z</time>
      </trkpt>
      <trkpt lat="43.44975" lon="-5.583619">
        <ele>610.0</ele>
        <time>2021-02-14T10:58:54Z</time>
      </trkpt>
      <trkpt lat="43.449753" lon="-5.583636">
        <ele>610.0</ele>
        <time>2021-02-14T10:58:55Z</time>
      </trkpt>
      <trkpt lat="43.44976" lon="-5.5836525">
        <ele>610.0</ele>
        <time>2021-02-14T10:58:56Z</time>
      </trkpt>
      <trkpt lat="43.449764" lon="-5.5836673">
        <ele>611.0</ele>
        <time>2021-02-14T10:58:57Z</time>
      </trkpt>
      <trkpt lat="43.449768" lon="-5.583679">
        <ele>611.0</ele>
        <time>2021-02-14T10:58:58Z</time>
      </trkpt>
      <trkpt lat="43.449776" lon="-5.5836906">
        <ele>611.0</ele>
        <time>2021-02-14T10:58:59Z</time>
      </trkpt>
      <trkpt lat="43.449776" lon="-5.5836997">
        <ele>611.0</ele>
        <time>2021-02-14T10:59:00Z</time>
      </trkpt>
      <trkpt lat="43.44978" lon="-5.5837073">
        <ele>611.0</ele>
        <time>2021-02-14T10:59:01Z</time>
      </trkpt>
      <trkpt lat="43.44978" lon="-5.583713">
        <ele>611.0</ele>
        <time>2021-02-14T10:59:02Z</time>
      </trkpt>
      <trkpt lat="43.44978" lon="-5.5837173">
        <ele>611.0</ele>
        <time>2021-02-14T10:59:03Z</time>
      </trkpt>
      <trkpt lat="43.44978" lon="-5.583721">
        <ele>611.0</ele>
        <time>2021-02-14T10:59:04Z</time>
      </trkpt>
      <trkpt lat="43.44978" lon="-5.583727">
        <ele>611.0</ele>
        <time>2021-02-14T10:59:05Z</time>
      </trkpt>
      <trkpt lat="43.449776" lon="-5.583733">
        <ele>611.0</ele>
        <time>2021-02-14T10:59:06Z</time>
      </trkpt>
      <trkpt lat="43.449776" lon="-5.5837417">
        <ele>611.0</ele>
        <time>2021-02-14T10:59:07Z</time>
      </trkpt>
      <trkpt lat="43.449768" lon="-5.5837517">
        <ele>611.0</ele>
        <time>2021-02-14T10:59:08Z</time>
      </trkpt>
      <trkpt lat="43.449768" lon="-5.5837626">
        <ele>612.0</ele>
        <time>2021-02-14T10:59:09Z</time>
      </trkpt>
      <trkpt lat="43.449768" lon="-5.5837727">
        <ele>612.0</ele>
        <time>2021-02-14T10:59:10Z</time>
      </trkpt>
      <trkpt lat="43.449768" lon="-5.583784">
        <ele>612.0</ele>
        <time>2021-02-14T10:59:11Z</time>
      </trkpt>
      <trkpt lat="43.449768" lon="-5.5837965">
        <ele>612.0</ele>
        <time>2021-02-14T10:59:12Z</time>
      </trkpt>
      <trkpt lat="43.449764" lon="-5.5838084">
        <ele>612.0</ele>
        <time>2021-02-14T10:59:13Z</time>
      </trkpt>
      <trkpt lat="43.449764" lon="-5.5838184">
        <ele>613.0</ele>
        <time>2021-02-14T10:59:14Z</time>
      </trkpt>
      <trkpt lat="43.449764" lon="-5.583826">
        <ele>613.0</ele>
        <time>2021-02-14T10:59:15Z</time>
      </trkpt>
      <trkpt lat="43.449768" lon="-5.583831">
        <ele>613.0</ele>
        <time>2021-02-14T10:59:16Z</time>
      </trkpt>
      <trkpt lat="43.449768" lon="-5.583837">
        <ele>613.0</ele>
        <time>2021-02-14T10:59:17Z</time>
      </trkpt>
      <trkpt lat="43.449764" lon="-5.583847">
        <ele>614.0</ele>
        <time>2021-02-14T10:59:18Z</time>
      </trkpt>
      <trkpt lat="43.449764" lon="-5.5838566">
        <ele>614.0</ele>
        <time>2021-02-14T10:59:19Z</time>
      </trkpt>
      <trkpt lat="43.44976" lon="-5.5838675">
        <ele>614.0</ele>
        <time>2021-02-14T10:59:20Z</time>
      </trkpt>
      <trkpt lat="43.44976" lon="-5.5838823">
        <ele>614.0</ele>
        <time>2021-02-14T10:59:21Z</time>
      </trkpt>
      <trkpt lat="43.44976" lon="-5.5839">
        <ele>614.0</ele>
        <time>2021-02-14T10:59:22Z</time>
      </trkpt>
      <trkpt lat="43.44976" lon="-5.583914">
        <ele>615.0</ele>
        <time>2021-02-14T10:59:23Z</time>
      </trkpt>
      <trkpt lat="43.449753" lon="-5.583967">
        <ele>615.0</ele>
        <time>2021-02-14T10:59:25Z</time>
      </trkpt>
      <trkpt lat="43.449753" lon="-5.583973">
        <ele>615.0</ele>
        <time>2021-02-14T10:59:26Z</time>
      </trkpt>
      <trkpt lat="43.44975" lon="-5.583981">
        <ele>615.0</ele>
        <time>2021-02-14T10:59:27Z</time>
      </trkpt>
      <trkpt lat="43.449745" lon="-5.5839868">
        <ele>616.0</ele>
        <time>2021-02-14T10:59:28Z</time>
      </trkpt>
      <trkpt lat="43.449738" lon="-5.5839944">
        <ele>616.0</ele>
        <time>2021-02-14T10:59:29Z</time>
      </trkpt>
      <trkpt lat="43.449734" lon="-5.584004">
        <ele>616.0</ele>
        <time>2021-02-14T10:59:30Z</time>
      </trkpt>
      <trkpt lat="43.449734" lon="-5.584012">
        <ele>616.0</ele>
        <time>2021-02-14T10:59:31Z</time>
      </trkpt>
      <trkpt lat="43.449734" lon="-5.5840263">
        <ele>616.0</ele>
        <time>2021-02-14T10:59:32Z</time>
      </trkpt>
      <trkpt lat="43.449734" lon="-5.5840416">
        <ele>616.0</ele>
        <time>2021-02-14T10:59:33Z</time>
      </trkpt>
      <trkpt lat="43.449726" lon="-5.584059">
        <ele>616.0</ele>
        <time>2021-02-14T10:59:34Z</time>
      </trkpt>
      <trkpt lat="43.449722" lon="-5.584077">
        <ele>616.0</ele>
        <time>2021-02-14T10:59:35Z</time>
      </trkpt>
      <trkpt lat="43.44972" lon="-5.5840936">
        <ele>616.0</ele>
        <time>2021-02-14T10:59:36Z</time>
      </trkpt>
      <trkpt lat="43.44971" lon="-5.5841036">
        <ele>616.0</ele>
        <time>2021-02-14T10:59:37Z</time>
      </trkpt>
      <trkpt lat="43.44971" lon="-5.584112">
        <ele>616.0</ele>
        <time>2021-02-14T10:59:38Z</time>
      </trkpt>
      <trkpt lat="43.44972" lon="-5.5841208">
        <ele>617.0</ele>
        <time>2021-02-14T10:59:39Z</time>
      </trkpt>
      <trkpt lat="43.44972" lon="-5.5841336">
        <ele>617.0</ele>
        <time>2021-02-14T10:59:40Z</time>
      </trkpt>
      <trkpt lat="43.44972" lon="-5.584144">
        <ele>617.0</ele>
        <time>2021-02-14T10:59:41Z</time>
      </trkpt>
      <trkpt lat="43.44972" lon="-5.5841575">
        <ele>617.0</ele>
        <time>2021-02-14T10:59:42Z</time>
      </trkpt>
      <trkpt lat="43.44972" lon="-5.5841727">
        <ele>617.0</ele>
        <time>2021-02-14T10:59:43Z</time>
      </trkpt>
      <trkpt lat="43.44971" lon="-5.584188">
        <ele>617.0</ele>
        <time>2021-02-14T10:59:44Z</time>
      </trkpt>
      <trkpt lat="43.44971" lon="-5.584199">
        <ele>618.0</ele>
        <time>2021-02-14T10:59:45Z</time>
      </trkpt>
      <trkpt lat="43.449707" lon="-5.5842113">
        <ele>618.0</ele>
        <time>2021-02-14T10:59:46Z</time>
      </trkpt>
      <trkpt lat="43.449707" lon="-5.5842233">
        <ele>618.0</ele>
        <time>2021-02-14T10:59:47Z</time>
      </trkpt>
      <trkpt lat="43.449707" lon="-5.584236">
        <ele>618.0</ele>
        <time>2021-02-14T10:59:48Z</time>
      </trkpt>
      <trkpt lat="43.449707" lon="-5.5842495">
        <ele>618.0</ele>
        <time>2021-02-14T10:59:49Z</time>
      </trkpt>
      <trkpt lat="43.449707" lon="-5.584263">
        <ele>619.0</ele>
        <time>2021-02-14T10:59:50Z</time>
      </trkpt>
      <trkpt lat="43.449707" lon="-5.584274">
        <ele>619.0</ele>
        <time>2021-02-14T10:59:51Z</time>
      </trkpt>
      <trkpt lat="43.449707" lon="-5.5842814">
        <ele>619.0</ele>
        <time>2021-02-14T10:59:52Z</time>
      </trkpt>
      <trkpt lat="43.449703" lon="-5.584289">
        <ele>619.0</ele>
        <time>2021-02-14T10:59:53Z</time>
      </trkpt>
      <trkpt lat="43.449703" lon="-5.584297">
        <ele>619.0</ele>
        <time>2021-02-14T10:59:54Z</time>
      </trkpt>
      <trkpt lat="43.449703" lon="-5.584306">
        <ele>620.0</ele>
        <time>2021-02-14T10:59:55Z</time>
      </trkpt>
      <trkpt lat="43.449696" lon="-5.5843167">
        <ele>620.0</ele>
        <time>2021-02-14T10:59:56Z</time>
      </trkpt>
      <trkpt lat="43.44969" lon="-5.58433">
        <ele>620.0</ele>
        <time>2021-02-14T10:59:57Z</time>
      </trkpt>
      <trkpt lat="43.449688" lon="-5.5843425">
        <ele>620.0</ele>
        <time>2021-02-14T10:59:58Z</time>
      </trkpt>
      <trkpt lat="43.449688" lon="-5.5843525">
        <ele>620.0</ele>
        <time>2021-02-14T10:59:59Z</time>
      </trkpt>
      <trkpt lat="43.44968" lon="-5.584363">
        <ele>620.0</ele>
        <time>2021-02-14T11:00:00Z</time>
      </trkpt>
      <trkpt lat="43.449677" lon="-5.5843744">
        <ele>621.0</ele>
        <time>2021-02-14T11:00:01Z</time>
      </trkpt>
      <trkpt lat="43.449673" lon="-5.5843854">
        <ele>621.0</ele>
        <time>2021-02-14T11:00:02Z</time>
      </trkpt>
      <trkpt lat="43.449665" lon="-5.584395">
        <ele>621.0</ele>
        <time>2021-02-14T11:00:03Z</time>
      </trkpt>
      <trkpt lat="43.449665" lon="-5.5844045">
        <ele>621.0</ele>
        <time>2021-02-14T11:00:04Z</time>
      </trkpt>
      <trkpt lat="43.44966" lon="-5.584412">
        <ele>621.0</ele>
        <time>2021-02-14T11:00:05Z</time>
      </trkpt>
      <trkpt lat="43.44966" lon="-5.5844193">
        <ele>621.0</ele>
        <time>2021-02-14T11:00:06Z</time>
      </trkpt>
      <trkpt lat="43.449657" lon="-5.5844274">
        <ele>621.0</ele>
        <time>2021-02-14T11:00:07Z</time>
      </trkpt>
      <trkpt lat="43.449657" lon="-5.5844364">
        <ele>621.0</ele>
        <time>2021-02-14T11:00:08Z</time>
      </trkpt>
      <trkpt lat="43.44965" lon="-5.584444">
        <ele>621.0</ele>
        <time>2021-02-14T11:00:09Z</time>
      </trkpt>
      <trkpt lat="43.44965" lon="-5.5844517">
        <ele>621.0</ele>
        <time>2021-02-14T11:00:10Z</time>
      </trkpt>
      <trkpt lat="43.44965" lon="-5.584459">
        <ele>622.0</ele>
        <time>2021-02-14T11:00:11Z</time>
      </trkpt>
      <trkpt lat="43.44965" lon="-5.5844626">
        <ele>622.0</ele>
        <time>2021-02-14T11:00:12Z</time>
      </trkpt>
      <trkpt lat="43.449646" lon="-5.5844655">
        <ele>622.0</ele>
        <time>2021-02-14T11:00:13Z</time>
      </trkpt>
      <trkpt lat="43.449642" lon="-5.584468">
        <ele>622.0</ele>
        <time>2021-02-14T11:00:14Z</time>
      </trkpt>
      <trkpt lat="43.449642" lon="-5.584472">
        <ele>622.0</ele>
        <time>2021-02-14T11:00:15Z</time>
      </trkpt>
      <trkpt lat="43.449635" lon="-5.5844774">
        <ele>622.0</ele>
        <time>2021-02-14T11:00:16Z</time>
      </trkpt>
      <trkpt lat="43.44963" lon="-5.5844836">
        <ele>623.0</ele>
        <time>2021-02-14T11:00:17Z</time>
      </trkpt>
      <trkpt lat="43.449627" lon="-5.5844903">
        <ele>623.0</ele>
        <time>2021-02-14T11:00:18Z</time>
      </trkpt>
      <trkpt lat="43.449615" lon="-5.584498">
        <ele>623.0</ele>
        <time>2021-02-14T11:00:19Z</time>
      </trkpt>
      <trkpt lat="43.449604" lon="-5.5845056">
        <ele>623.0</ele>
        <time>2021-02-14T11:00:20Z</time>
      </trkpt>
      <trkpt lat="43.44959" lon="-5.5845127">
        <ele>623.0</ele>
        <time>2021-02-14T11:00:21Z</time>
      </trkpt>
      <trkpt lat="43.44958" lon="-5.5845184">
        <ele>624.0</ele>
        <time>2021-02-14T11:00:22Z</time>
      </trkpt>
      <trkpt lat="43.449574" lon="-5.584526">
        <ele>624.0</ele>
        <time>2021-02-14T11:00:23Z</time>
      </trkpt>
      <trkpt lat="43.44957" lon="-5.5845366">
        <ele>624.0</ele>
        <time>2021-02-14T11:00:24Z</time>
      </trkpt>
      <trkpt lat="43.449566" lon="-5.584545">
        <ele>624.0</ele>
        <time>2021-02-14T11:00:25Z</time>
      </trkpt>
      <trkpt lat="43.44956" lon="-5.584553">
        <ele>624.0</ele>
        <time>2021-02-14T11:00:26Z</time>
      </trkpt>
      <trkpt lat="43.44955" lon="-5.5845723">
        <ele>625.0</ele>
        <time>2021-02-14T11:00:28Z</time>
      </trkpt>
      <trkpt lat="43.44955" lon="-5.5845733">
        <ele>625.0</ele>
        <time>2021-02-14T11:00:29Z</time>
      </trkpt>
      <trkpt lat="43.449543" lon="-5.584575">
        <ele>625.0</ele>
        <time>2021-02-14T11:00:30Z</time>
      </trkpt>
      <trkpt lat="43.449543" lon="-5.584577">
        <ele>625.0</ele>
        <time>2021-02-14T11:00:31Z</time>
      </trkpt>
      <trkpt lat="43.449543" lon="-5.584579">
        <ele>625.0</ele>
        <time>2021-02-14T11:00:32Z</time>
      </trkpt>
      <trkpt lat="43.449543" lon="-5.5845804">
        <ele>626.0</ele>
        <time>2021-02-14T11:00:33Z</time>
      </trkpt>
      <trkpt lat="43.44955" lon="-5.58458">
        <ele>626.0</ele>
        <time>2021-02-14T11:00:34Z</time>
      </trkpt>
      <trkpt lat="43.44955" lon="-5.584578">
        <ele>626.0</ele>
        <time>2021-02-14T11:00:35Z</time>
      </trkpt>
      <trkpt lat="43.44955" lon="-5.584579">
        <ele>626.0</ele>
        <time>2021-02-14T11:00:36Z</time>
      </trkpt>
      <trkpt lat="43.44955" lon="-5.5845838">
        <ele>627.0</ele>
        <time>2021-02-14T11:00:37Z</time>
      </trkpt>
      <trkpt lat="43.449543" lon="-5.584593">
        <ele>627.0</ele>
        <time>2021-02-14T11:00:38Z</time>
      </trkpt>
      <trkpt lat="43.44954" lon="-5.5846014">
        <ele>627.0</ele>
        <time>2021-02-14T11:00:38Z</time>
      </trkpt>
      <trkpt lat="43.44953" lon="-5.5846124">
        <ele>627.0</ele>
        <time>2021-02-14T11:00:39Z</time>
      </trkpt>
      <trkpt lat="43.449528" lon="-5.5846252">
        <ele>627.0</ele>
        <time>2021-02-14T11:00:40Z</time>
      </trkpt>
      <trkpt lat="43.449524" lon="-5.5846415">
        <ele>627.0</ele>
        <time>2021-02-14T11:00:41Z</time>
      </trkpt>
      <trkpt lat="43.449516" lon="-5.584653">
        <ele>627.0</ele>
        <time>2021-02-14T11:00:42Z</time>
      </trkpt>
      <trkpt lat="43.449516" lon="-5.584666">
        <ele>627.0</ele>
        <time>2021-02-14T11:00:43Z</time>
      </trkpt>
      <trkpt lat="43.449512" lon="-5.5846777">
        <ele>627.0</ele>
        <time>2021-02-14T11:00:44Z</time>
      </trkpt>
      <trkpt lat="43.449512" lon="-5.5846906">
        <ele>627.0</ele>
        <time>2021-02-14T11:00:45Z</time>
      </trkpt>
      <trkpt lat="43.44951" lon="-5.584705">
        <ele>628.0</ele>
        <time>2021-02-14T11:00:46Z</time>
      </trkpt>
      <trkpt lat="43.4495" lon="-5.58472">
        <ele>628.0</ele>
        <time>2021-02-14T11:00:47Z</time>
      </trkpt>
      <trkpt lat="43.4495" lon="-5.584732">
        <ele>628.0</ele>
        <time>2021-02-14T11:00:48Z</time>
      </trkpt>
      <trkpt lat="43.449497" lon="-5.5847435">
        <ele>628.0</ele>
        <time>2021-02-14T11:00:49Z</time>
      </trkpt>
      <trkpt lat="43.449493" lon="-5.5847554">
        <ele>628.0</ele>
        <time>2021-02-14T11:00:50Z</time>
      </trkpt>
      <trkpt lat="43.449486" lon="-5.5847673">
        <ele>628.0</ele>
        <time>2021-02-14T11:00:51Z</time>
      </trkpt>
      <trkpt lat="43.449482" lon="-5.584779">
        <ele>628.0</ele>
        <time>2021-02-14T11:00:52Z</time>
      </trkpt>
      <trkpt lat="43.44948" lon="-5.5847917">
        <ele>628.0</ele>
        <time>2021-02-14T11:00:53Z</time>
      </trkpt>
      <trkpt lat="43.449467" lon="-5.5848064">
        <ele>628.0</ele>
        <time>2021-02-14T11:00:54Z</time>
      </trkpt>
      <trkpt lat="43.449455" lon="-5.584822">
        <ele>628.0</ele>
        <time>2021-02-14T11:00:55Z</time>
      </trkpt>
      <trkpt lat="43.44945" lon="-5.584837">
        <ele>628.0</ele>
        <time>2021-02-14T11:00:56Z</time>
      </trkpt>
      <trkpt lat="43.44944" lon="-5.5848546">
        <ele>628.0</ele>
        <time>2021-02-14T11:00:57Z</time>
      </trkpt>
      <trkpt lat="43.449436" lon="-5.584872">
        <ele>628.0</ele>
        <time>2021-02-14T11:00:58Z</time>
      </trkpt>
      <trkpt lat="43.449425" lon="-5.5848894">
        <ele>628.0</ele>
        <time>2021-02-14T11:00:59Z</time>
      </trkpt>
      <trkpt lat="43.449417" lon="-5.5849075">
        <ele>628.0</ele>
        <time>2021-02-14T11:01:00Z</time>
      </trkpt>
      <trkpt lat="43.44941" lon="-5.584922">
        <ele>629.0</ele>
        <time>2021-02-14T11:01:01Z</time>
      </trkpt>
      <trkpt lat="43.4494" lon="-5.5849333">
        <ele>629.0</ele>
        <time>2021-02-14T11:01:02Z</time>
      </trkpt>
      <trkpt lat="43.449394" lon="-5.584945">
        <ele>629.0</ele>
        <time>2021-02-14T11:01:03Z</time>
      </trkpt>
      <trkpt lat="43.449394" lon="-5.5849576">
        <ele>629.0</ele>
        <time>2021-02-14T11:01:04Z</time>
      </trkpt>
      <trkpt lat="43.44939" lon="-5.5849695">
        <ele>629.0</ele>
        <time>2021-02-14T11:01:05Z</time>
      </trkpt>
      <trkpt lat="43.44939" lon="-5.5849824">
        <ele>629.0</ele>
        <time>2021-02-14T11:01:06Z</time>
      </trkpt>
      <trkpt lat="43.44939" lon="-5.5849934">
        <ele>629.0</ele>
        <time>2021-02-14T11:01:07Z</time>
      </trkpt>
      <trkpt lat="43.449387" lon="-5.585005">
        <ele>629.0</ele>
        <time>2021-02-14T11:01:08Z</time>
      </trkpt>
      <trkpt lat="43.449387" lon="-5.585014">
        <ele>629.0</ele>
        <time>2021-02-14T11:01:09Z</time>
      </trkpt>
      <trkpt lat="43.44938" lon="-5.585024">
        <ele>629.0</ele>
        <time>2021-02-14T11:01:10Z</time>
      </trkpt>
      <trkpt lat="43.44938" lon="-5.5850363">
        <ele>629.0</ele>
        <time>2021-02-14T11:01:11Z</time>
      </trkpt>
      <trkpt lat="43.449375" lon="-5.585049">
        <ele>629.0</ele>
        <time>2021-02-14T11:01:12Z</time>
      </trkpt>
      <trkpt lat="43.449375" lon="-5.5850596">
        <ele>630.0</ele>
        <time>2021-02-14T11:01:13Z</time>
      </trkpt>
      <trkpt lat="43.44937" lon="-5.5850687">
        <ele>630.0</ele>
        <time>2021-02-14T11:01:14Z</time>
      </trkpt>
      <trkpt lat="43.44937" lon="-5.5850782">
        <ele>630.0</ele>
        <time>2021-02-14T11:01:15Z</time>
      </trkpt>
      <trkpt lat="43.44937" lon="-5.5850873">
        <ele>630.0</ele>
        <time>2021-02-14T11:01:16Z</time>
      </trkpt>
      <trkpt lat="43.449364" lon="-5.5850964">
        <ele>630.0</ele>
        <time>2021-02-14T11:01:17Z</time>
      </trkpt>
      <trkpt lat="43.449364" lon="-5.585106">
        <ele>630.0</ele>
        <time>2021-02-14T11:01:18Z</time>
      </trkpt>
      <trkpt lat="43.449364" lon="-5.585117">
        <ele>630.0</ele>
        <time>2021-02-14T11:01:19Z</time>
      </trkpt>
      <trkpt lat="43.44936" lon="-5.5851283">
        <ele>631.0</ele>
        <time>2021-02-14T11:01:20Z</time>
      </trkpt>
      <trkpt lat="43.449356" lon="-5.585141">
        <ele>631.0</ele>
        <time>2021-02-14T11:01:21Z</time>
      </trkpt>
      <trkpt lat="43.449356" lon="-5.585156">
        <ele>631.0</ele>
        <time>2021-02-14T11:01:22Z</time>
      </trkpt>
      <trkpt lat="43.44935" lon="-5.585166">
        <ele>631.0</ele>
        <time>2021-02-14T11:01:23Z</time>
      </trkpt>
      <trkpt lat="43.44935" lon="-5.5851774">
        <ele>631.0</ele>
        <time>2021-02-14T11:01:24Z</time>
      </trkpt>
      <trkpt lat="43.449345" lon="-5.5851893">
        <ele>631.0</ele>
        <time>2021-02-14T11:01:25Z</time>
      </trkpt>
      <trkpt lat="43.449345" lon="-5.5851994">
        <ele>632.0</ele>
        <time>2021-02-14T11:01:26Z</time>
      </trkpt>
      <trkpt lat="43.449337" lon="-5.5852094">
        <ele>632.0</ele>
        <time>2021-02-14T11:01:27Z</time>
      </trkpt>
      <trkpt lat="43.44933" lon="-5.5852456">
        <ele>632.0</ele>
        <time>2021-02-14T11:01:29Z</time>
      </trkpt>
      <trkpt lat="43.44933" lon="-5.5852494">
        <ele>632.0</ele>
        <time>2021-02-14T11:01:30Z</time>
      </trkpt>
      <trkpt lat="43.44932" lon="-5.585257">
        <ele>632.0</ele>
        <time>2021-02-14T11:01:31Z</time>
      </trkpt>
      <trkpt lat="43.449314" lon="-5.585264">
        <ele>632.0</ele>
        <time>2021-02-14T11:01:32Z</time>
      </trkpt>
      <trkpt lat="43.449306" lon="-5.5852704">
        <ele>632.0</ele>
        <time>2021-02-14T11:01:33Z</time>
      </trkpt>
      <trkpt lat="43.449306" lon="-5.5852757">
        <ele>632.0</ele>
        <time>2021-02-14T11:01:34Z</time>
      </trkpt>
      <trkpt lat="43.449303" lon="-5.5852804">
        <ele>632.0</ele>
        <time>2021-02-14T11:01:35Z</time>
      </trkpt>
      <trkpt lat="43.449303" lon="-5.5852838">
        <ele>632.0</ele>
        <time>2021-02-14T11:01:36Z</time>
      </trkpt>
      <trkpt lat="43.449303" lon="-5.5852895">
        <ele>632.0</ele>
        <time>2021-02-14T11:01:37Z</time>
      </trkpt>
      <trkpt lat="43.4493" lon="-5.585297">
        <ele>632.0</ele>
        <time>2021-02-14T11:01:38Z</time>
      </trkpt>
      <trkpt lat="43.4493" lon="-5.585308">
        <ele>633.0</ele>
        <time>2021-02-14T11:01:39Z</time>
      </trkpt>
      <trkpt lat="43.4493" lon="-5.5853176">
        <ele>633.0</ele>
        <time>2021-02-14T11:01:40Z</time>
      </trkpt>
      <trkpt lat="43.44929" lon="-5.585325">
        <ele>633.0</ele>
        <time>2021-02-14T11:01:41Z</time>
      </trkpt>
      <trkpt lat="43.44929" lon="-5.5853333">
        <ele>633.0</ele>
        <time>2021-02-14T11:01:42Z</time>
      </trkpt>
      <trkpt lat="43.449287" lon="-5.585343">
        <ele>633.0</ele>
        <time>2021-02-14T11:01:43Z</time>
      </trkpt>
      <trkpt lat="43.449287" lon="-5.585351">
        <ele>633.0</ele>
        <time>2021-02-14T11:01:44Z</time>
      </trkpt>
      <trkpt lat="43.449284" lon="-5.5853596">
        <ele>634.0</ele>
        <time>2021-02-14T11:01:45Z</time>
      </trkpt>
      <trkpt lat="43.449284" lon="-5.585367">
        <ele>634.0</ele>
        <time>2021-02-14T11:01:46Z</time>
      </trkpt>
      <trkpt lat="43.449276" lon="-5.5853767">
        <ele>634.0</ele>
        <time>2021-02-14T11:01:47Z</time>
      </trkpt>
      <trkpt lat="43.44927" lon="-5.5853925">
        <ele>634.0</ele>
        <time>2021-02-14T11:01:48Z</time>
      </trkpt>
      <trkpt lat="43.449257" lon="-5.5854073">
        <ele>634.0</ele>
        <time>2021-02-14T11:01:49Z</time>
      </trkpt>
      <trkpt lat="43.449253" lon="-5.5854187">
        <ele>635.0</ele>
        <time>2021-02-14T11:01:50Z</time>
      </trkpt>
      <trkpt lat="43.44924" lon="-5.5854325">
        <ele>635.0</ele>
        <time>2021-02-14T11:01:51Z</time>
      </trkpt>
      <trkpt lat="43.44923" lon="-5.585444">
        <ele>635.0</ele>
        <time>2021-02-14T11:01:52Z</time>
      </trkpt>
      <trkpt lat="43.449226" lon="-5.585452">
        <ele>635.0</ele>
        <time>2021-02-14T11:01:53Z</time>
      </trkpt>
      <trkpt lat="43.449223" lon="-5.5854635">
        <ele>635.0</ele>
        <time>2021-02-14T11:01:54Z</time>
      </trkpt>
      <trkpt lat="43.44921" lon="-5.5854764">
        <ele>636.0</ele>
        <time>2021-02-14T11:01:55Z</time>
      </trkpt>
      <trkpt lat="43.449207" lon="-5.585487">
        <ele>636.0</ele>
        <time>2021-02-14T11:01:56Z</time>
      </trkpt>
      <trkpt lat="43.4492" lon="-5.5854955">
        <ele>636.0</ele>
        <time>2021-02-14T11:01:57Z</time>
      </trkpt>
      <trkpt lat="43.449196" lon="-5.585502">
        <ele>636.0</ele>
        <time>2021-02-14T11:01:58Z</time>
      </trkpt>
      <trkpt lat="43.449192" lon="-5.585506">
        <ele>636.0</ele>
        <time>2021-02-14T11:01:59Z</time>
      </trkpt>
      <trkpt lat="43.449184" lon="-5.585511">
        <ele>636.0</ele>
        <time>2021-02-14T11:02:00Z</time>
      </trkpt>
      <trkpt lat="43.44918" lon="-5.585514">
        <ele>637.0</ele>
        <time>2021-02-14T11:02:01Z</time>
      </trkpt>
      <trkpt lat="43.449177" lon="-5.5855174">
        <ele>637.0</ele>
        <time>2021-02-14T11:02:02Z</time>
      </trkpt>
      <trkpt lat="43.449165" lon="-5.5855217">
        <ele>637.0</ele>
        <time>2021-02-14T11:02:03Z</time>
      </trkpt>
      <trkpt lat="43.44916" lon="-5.585528">
        <ele>637.0</ele>
        <time>2021-02-14T11:02:04Z</time>
      </trkpt>
      <trkpt lat="43.44915" lon="-5.5855336">
        <ele>637.0</ele>
        <time>2021-02-14T11:02:05Z</time>
      </trkpt>
      <trkpt lat="43.44914" lon="-5.585538">
        <ele>638.0</ele>
        <time>2021-02-14T11:02:06Z</time>
      </trkpt>
      <trkpt lat="43.449127" lon="-5.585542">
        <ele>638.0</ele>
        <time>2021-02-14T11:02:07Z</time>
      </trkpt>
      <trkpt lat="43.449112" lon="-5.5855474">
        <ele>638.0</ele>
        <time>2021-02-14T11:02:08Z</time>
      </trkpt>
      <trkpt lat="43.449097" lon="-5.585554">
        <ele>638.0</ele>
        <time>2021-02-14T11:02:09Z</time>
      </trkpt>
      <trkpt lat="43.44908" lon="-5.585561">
        <ele>638.0</ele>
        <time>2021-02-14T11:02:10Z</time>
      </trkpt>
      <trkpt lat="43.449066" lon="-5.5855675">
        <ele>639.0</ele>
        <time>2021-02-14T11:02:11Z</time>
      </trkpt>
      <trkpt lat="43.44905" lon="-5.5855722">
        <ele>639.0</ele>
        <time>2021-02-14T11:02:12Z</time>
      </trkpt>
      <trkpt lat="43.449043" lon="-5.585579">
        <ele>639.0</ele>
        <time>2021-02-14T11:02:13Z</time>
      </trkpt>
      <trkpt lat="43.44903" lon="-5.5855827">
        <ele>639.0</ele>
        <time>2021-02-14T11:02:14Z</time>
      </trkpt>
      <trkpt lat="43.44902" lon="-5.5855865">
        <ele>639.0</ele>
        <time>2021-02-14T11:02:15Z</time>
      </trkpt>
      <trkpt lat="43.449013" lon="-5.585587">
        <ele>640.0</ele>
        <time>2021-02-14T11:02:16Z</time>
      </trkpt>
      <trkpt lat="43.449" lon="-5.5855885">
        <ele>640.0</ele>
        <time>2021-02-14T11:02:17Z</time>
      </trkpt>
      <trkpt lat="43.44899" lon="-5.5855885">
        <ele>640.0</ele>
        <time>2021-02-14T11:02:18Z</time>
      </trkpt>
      <trkpt lat="43.448982" lon="-5.585591">
        <ele>640.0</ele>
        <time>2021-02-14T11:02:19Z</time>
      </trkpt>
      <trkpt lat="43.448967" lon="-5.5855947">
        <ele>640.0</ele>
        <time>2021-02-14T11:02:20Z</time>
      </trkpt>
      <trkpt lat="43.448956" lon="-5.5855994">
        <ele>640.0</ele>
        <time>2021-02-14T11:02:21Z</time>
      </trkpt>
      <trkpt lat="43.448944" lon="-5.585603">
        <ele>640.0</ele>
        <time>2021-02-14T11:02:22Z</time>
      </trkpt>
      <trkpt lat="43.448933" lon="-5.5856075">
        <ele>640.0</ele>
        <time>2021-02-14T11:02:23Z</time>
      </trkpt>
      <trkpt lat="43.448925" lon="-5.5856104">
        <ele>640.0</ele>
        <time>2021-02-14T11:02:24Z</time>
      </trkpt>
      <trkpt lat="43.448914" lon="-5.5856104">
        <ele>640.0</ele>
        <time>2021-02-14T11:02:25Z</time>
      </trkpt>
      <trkpt lat="43.44891" lon="-5.5856094">
        <ele>641.0</ele>
        <time>2021-02-14T11:02:26Z</time>
      </trkpt>
      <trkpt lat="43.448902" lon="-5.5856094">
        <ele>641.0</ele>
        <time>2021-02-14T11:02:27Z</time>
      </trkpt>
      <trkpt lat="43.448895" lon="-5.585611">
        <ele>641.0</ele>
        <time>2021-02-14T11:02:28Z</time>
      </trkpt>
      <trkpt lat="43.448887" lon="-5.585614">
        <ele>641.0</ele>
        <time>2021-02-14T11:02:29Z</time>
      </trkpt>
      <trkpt lat="43.448883" lon="-5.585616">
        <ele>641.0</ele>
        <time>2021-02-14T11:02:30Z</time>
      </trkpt>
      <trkpt lat="43.44887" lon="-5.585616">
        <ele>642.0</ele>
        <time>2021-02-14T11:02:31Z</time>
      </trkpt>
      <trkpt lat="43.448868" lon="-5.5856147">
        <ele>642.0</ele>
        <time>2021-02-14T11:02:32Z</time>
      </trkpt>
      <trkpt lat="43.448853" lon="-5.5856104">
        <ele>642.0</ele>
        <time>2021-02-14T11:02:34Z</time>
      </trkpt>
      <trkpt lat="43.448853" lon="-5.5856104">
        <ele>642.0</ele>
        <time>2021-02-14T11:02:35Z</time>
      </trkpt>
      <trkpt lat="43.44885" lon="-5.5856094">
        <ele>642.0</ele>
        <time>2021-02-14T11:02:36Z</time>
      </trkpt>
      <trkpt lat="43.44885" lon="-5.5856085">
        <ele>643.0</ele>
        <time>2021-02-14T11:02:37Z</time>
      </trkpt>
      <trkpt lat="43.448837" lon="-5.585609">
        <ele>643.0</ele>
        <time>2021-02-14T11:02:38Z</time>
      </trkpt>
      <trkpt lat="43.448833" lon="-5.5856113">
        <ele>643.0</ele>
        <time>2021-02-14T11:02:39Z</time>
      </trkpt>
      <trkpt lat="43.448822" lon="-5.585616">
        <ele>643.0</ele>
        <time>2021-02-14T11:02:40Z</time>
      </trkpt>
      <trkpt lat="43.44881" lon="-5.5856185">
        <ele>643.0</ele>
        <time>2021-02-14T11:02:41Z</time>
      </trkpt>
      <trkpt lat="43.448795" lon="-5.58562">
        <ele>644.0</ele>
        <time>2021-02-14T11:02:44Z</time>
      </trkpt>
      <trkpt lat="43.44879" lon="-5.5856223">
        <ele>644.0</ele>
        <time>2021-02-14T11:02:45Z</time>
      </trkpt>
      <trkpt lat="43.448788" lon="-5.5856237">
        <ele>644.0</ele>
        <time>2021-02-14T11:02:46Z</time>
      </trkpt>
      <trkpt lat="43.44878" lon="-5.5856237">
        <ele>644.0</ele>
        <time>2021-02-14T11:02:47Z</time>
      </trkpt>
      <trkpt lat="43.44878" lon="-5.5856223">
        <ele>645.0</ele>
        <time>2021-02-14T11:02:48Z</time>
      </trkpt>
      <trkpt lat="43.448772" lon="-5.585627">
        <ele>645.0</ele>
        <time>2021-02-14T11:02:49Z</time>
      </trkpt>
      <trkpt lat="43.448765" lon="-5.5856347">
        <ele>645.0</ele>
        <time>2021-02-14T11:02:50Z</time>
      </trkpt>
      <trkpt lat="43.448753" lon="-5.585641">
        <ele>645.0</ele>
        <time>2021-02-14T11:02:51Z</time>
      </trkpt>
      <trkpt lat="43.44875" lon="-5.5856466">
        <ele>645.0</ele>
        <time>2021-02-14T11:02:52Z</time>
      </trkpt>
      <trkpt lat="43.448746" lon="-5.5856514">
        <ele>646.0</ele>
        <time>2021-02-14T11:02:53Z</time>
      </trkpt>
      <trkpt lat="43.44874" lon="-5.585655">
        <ele>646.0</ele>
        <time>2021-02-14T11:02:54Z</time>
      </trkpt>
      <trkpt lat="43.44874" lon="-5.585659">
        <ele>646.0</ele>
        <time>2021-02-14T11:02:55Z</time>
      </trkpt>
      <trkpt lat="43.448734" lon="-5.585661">
        <ele>646.0</ele>
        <time>2021-02-14T11:02:56Z</time>
      </trkpt>
      <trkpt lat="43.448734" lon="-5.585663">
        <ele>646.0</ele>
        <time>2021-02-14T11:02:57Z</time>
      </trkpt>
      <trkpt lat="43.44873" lon="-5.5856647">
        <ele>646.0</ele>
        <time>2021-02-14T11:02:58Z</time>
      </trkpt>
      <trkpt lat="43.448723" lon="-5.585667">
        <ele>646.0</ele>
        <time>2021-02-14T11:02:59Z</time>
      </trkpt>
      <trkpt lat="43.4487" lon="-5.585675">
        <ele>646.0</ele>
        <time>2021-02-14T11:03:01Z</time>
      </trkpt>
      <trkpt lat="43.4487" lon="-5.5856757">
        <ele>646.0</ele>
        <time>2021-02-14T11:03:02Z</time>
      </trkpt>
      <trkpt lat="43.448692" lon="-5.5856757">
        <ele>646.0</ele>
        <time>2021-02-14T11:03:03Z</time>
      </trkpt>
      <trkpt lat="43.44869" lon="-5.585676">
        <ele>646.0</ele>
        <time>2021-02-14T11:03:04Z</time>
      </trkpt>
      <trkpt lat="43.448677" lon="-5.585676">
        <ele>646.0</ele>
        <time>2021-02-14T11:03:05Z</time>
      </trkpt>
      <trkpt lat="43.44867" lon="-5.5856767">
        <ele>646.0</ele>
        <time>2021-02-14T11:03:06Z</time>
      </trkpt>
      <trkpt lat="43.448654" lon="-5.585678">
        <ele>647.0</ele>
        <time>2021-02-14T11:03:07Z</time>
      </trkpt>
      <trkpt lat="43.448643" lon="-5.5856805">
        <ele>647.0</ele>
        <time>2021-02-14T11:03:08Z</time>
      </trkpt>
      <trkpt lat="43.448627" lon="-5.5856857">
        <ele>647.0</ele>
        <time>2021-02-14T11:03:09Z</time>
      </trkpt>
      <trkpt lat="43.448616" lon="-5.5856953">
        <ele>647.0</ele>
        <time>2021-02-14T11:03:10Z</time>
      </trkpt>
      <trkpt lat="43.4486" lon="-5.5857086">
        <ele>647.0</ele>
        <time>2021-02-14T11:03:11Z</time>
      </trkpt>
      <trkpt lat="43.448593" lon="-5.5857215">
        <ele>647.0</ele>
        <time>2021-02-14T11:03:12Z</time>
      </trkpt>
      <trkpt lat="43.44858" lon="-5.5857325">
        <ele>647.0</ele>
        <time>2021-02-14T11:03:13Z</time>
      </trkpt>
      <trkpt lat="43.448578" lon="-5.5857406">
        <ele>647.0</ele>
        <time>2021-02-14T11:03:14Z</time>
      </trkpt>
      <trkpt lat="43.448044" lon="-5.5857515">
        <ele>653.0</ele>
        <time>2021-02-14T11:04:02Z</time>
      </trkpt>
      <trkpt lat="43.448063" lon="-5.5857735">
        <ele>653.0</ele>
        <time>2021-02-14T11:04:04Z</time>
      </trkpt>
      <trkpt lat="43.448063" lon="-5.5857754">
        <ele>653.0</ele>
        <time>2021-02-14T11:04:05Z</time>
      </trkpt>
      <trkpt lat="43.448074" lon="-5.5857816">
        <ele>653.0</ele>
        <time>2021-02-14T11:04:08Z</time>
      </trkpt>
      <trkpt lat="43.448074" lon="-5.5857806">
        <ele>653.0</ele>
        <time>2021-02-14T11:04:09Z</time>
      </trkpt>
      <trkpt lat="43.448074" lon="-5.5857887">
        <ele>653.0</ele>
        <time>2021-02-14T11:04:10Z</time>
      </trkpt>
      <trkpt lat="43.448074" lon="-5.585796">
        <ele>653.0</ele>
        <time>2021-02-14T11:04:11Z</time>
      </trkpt>
      <trkpt lat="43.448074" lon="-5.585808">
        <ele>653.0</ele>
        <time>2021-02-14T11:04:12Z</time>
      </trkpt>
      <trkpt lat="43.448074" lon="-5.585816">
        <ele>653.0</ele>
        <time>2021-02-14T11:04:13Z</time>
      </trkpt>
      <trkpt lat="43.448074" lon="-5.58582">
        <ele>653.0</ele>
        <time>2021-02-14T11:04:14Z</time>
      </trkpt>
      <trkpt lat="43.44808" lon="-5.5858235">
        <ele>653.0</ele>
        <time>2021-02-14T11:04:26Z</time>
      </trkpt>
      <trkpt lat="43.44808" lon="-5.5858235">
        <ele>653.0</ele>
        <time>2021-02-14T11:04:28Z</time>
      </trkpt>
      <trkpt lat="43.44808" lon="-5.5858226">
        <ele>653.0</ele>
        <time>2021-02-14T11:04:29Z</time>
      </trkpt>
      <trkpt lat="43.44808" lon="-5.5858226">
        <ele>653.0</ele>
        <time>2021-02-14T11:04:30Z</time>
      </trkpt>
      <trkpt lat="43.44808" lon="-5.585824">
        <ele>653.0</ele>
        <time>2021-02-14T11:04:31Z</time>
      </trkpt>
      <trkpt lat="43.448074" lon="-5.5858245">
        <ele>653.0</ele>
        <time>2021-02-14T11:04:43Z</time>
      </trkpt>
      <trkpt lat="43.44807" lon="-5.5858245">
        <ele>653.0</ele>
        <time>2021-02-14T11:04:44Z</time>
      </trkpt>
      <trkpt lat="43.44807" lon="-5.5858245">
        <ele>653.0</ele>
        <time>2021-02-14T11:04:45Z</time>
      </trkpt>
      <trkpt lat="43.448063" lon="-5.585824">
        <ele>653.0</ele>
        <time>2021-02-14T11:04:46Z</time>
      </trkpt>
      <trkpt lat="43.44806" lon="-5.585824">
        <ele>653.0</ele>
        <time>2021-02-14T11:04:47Z</time>
      </trkpt>
      <trkpt lat="43.448048" lon="-5.5858226">
        <ele>653.0</ele>
        <time>2021-02-14T11:04:48Z</time>
      </trkpt>
      <trkpt lat="43.448044" lon="-5.5858207">
        <ele>653.0</ele>
        <time>2021-02-14T11:04:49Z</time>
      </trkpt>
      <trkpt lat="43.44804" lon="-5.58582">
        <ele>653.0</ele>
        <time>2021-02-14T11:04:50Z</time>
      </trkpt>
      <trkpt lat="43.44803" lon="-5.5858164">
        <ele>653.0</ele>
        <time>2021-02-14T11:04:51Z</time>
      </trkpt>
      <trkpt lat="43.448025" lon="-5.5858097">
        <ele>653.0</ele>
        <time>2021-02-14T11:04:52Z</time>
      </trkpt>
      <trkpt lat="43.448017" lon="-5.585803">
        <ele>653.0</ele>
        <time>2021-02-14T11:04:53Z</time>
      </trkpt>
      <trkpt lat="43.44801" lon="-5.5857983">
        <ele>653.0</ele>
        <time>2021-02-14T11:04:53Z</time>
      </trkpt>
      <trkpt lat="43.448" lon="-5.5857944">
        <ele>653.0</ele>
        <time>2021-02-14T11:04:54Z</time>
      </trkpt>
      <trkpt lat="43.448" lon="-5.5857906">
        <ele>653.0</ele>
        <time>2021-02-14T11:04:55Z</time>
      </trkpt>
      <trkpt lat="43.44799" lon="-5.5857873">
        <ele>653.0</ele>
        <time>2021-02-14T11:04:56Z</time>
      </trkpt>
      <trkpt lat="43.447983" lon="-5.585783">
        <ele>653.0</ele>
        <time>2021-02-14T11:04:57Z</time>
      </trkpt>
      <trkpt lat="43.447975" lon="-5.5857806">
        <ele>653.0</ele>
        <time>2021-02-14T11:04:58Z</time>
      </trkpt>
      <trkpt lat="43.447968" lon="-5.5857778">
        <ele>653.0</ele>
        <time>2021-02-14T11:04:59Z</time>
      </trkpt>
      <trkpt lat="43.44796" lon="-5.5857773">
        <ele>653.0</ele>
        <time>2021-02-14T11:05:00Z</time>
      </trkpt>
      <trkpt lat="43.447952" lon="-5.5857787">
        <ele>653.0</ele>
        <time>2021-02-14T11:05:01Z</time>
      </trkpt>
      <trkpt lat="43.447945" lon="-5.5857816">
        <ele>653.0</ele>
        <time>2021-02-14T11:05:02Z</time>
      </trkpt>
      <trkpt lat="43.447937" lon="-5.5857835">
        <ele>653.0</ele>
        <time>2021-02-14T11:05:03Z</time>
      </trkpt>
      <trkpt lat="43.447937" lon="-5.5857797">
        <ele>653.0</ele>
        <time>2021-02-14T11:05:04Z</time>
      </trkpt>
      <trkpt lat="43.447937" lon="-5.585772">
        <ele>653.0</ele>
        <time>2021-02-14T11:05:05Z</time>
      </trkpt>
      <trkpt lat="43.44793" lon="-5.5857644">
        <ele>653.0</ele>
        <time>2021-02-14T11:05:06Z</time>
      </trkpt>
      <trkpt lat="43.44792" lon="-5.5857587">
        <ele>653.0</ele>
        <time>2021-02-14T11:05:07Z</time>
      </trkpt>
      <trkpt lat="43.447906" lon="-5.585755">
        <ele>653.0</ele>
        <time>2021-02-14T11:05:08Z</time>
      </trkpt>
      <trkpt lat="43.447895" lon="-5.5857525">
        <ele>653.0</ele>
        <time>2021-02-14T11:05:09Z</time>
      </trkpt>
      <trkpt lat="43.44788" lon="-5.585749">
        <ele>653.0</ele>
        <time>2021-02-14T11:05:10Z</time>
      </trkpt>
      <trkpt lat="43.447865" lon="-5.585746">
        <ele>653.0</ele>
        <time>2021-02-14T11:05:11Z</time>
      </trkpt>
      <trkpt lat="43.447853" lon="-5.585742">
        <ele>653.0</ele>
        <time>2021-02-14T11:05:12Z</time>
      </trkpt>
      <trkpt lat="43.447845" lon="-5.5857377">
        <ele>653.0</ele>
        <time>2021-02-14T11:05:13Z</time>
      </trkpt>
      <trkpt lat="43.447834" lon="-5.585736">
        <ele>653.0</ele>
        <time>2021-02-14T11:05:14Z</time>
      </trkpt>
      <trkpt lat="43.44782" lon="-5.585736">
        <ele>653.0</ele>
        <time>2021-02-14T11:05:15Z</time>
      </trkpt>
      <trkpt lat="43.447807" lon="-5.585735">
        <ele>653.0</ele>
        <time>2021-02-14T11:05:16Z</time>
      </trkpt>
      <trkpt lat="43.447792" lon="-5.585733">
        <ele>653.0</ele>
        <time>2021-02-14T11:05:17Z</time>
      </trkpt>
      <trkpt lat="43.44778" lon="-5.58573">
        <ele>653.0</ele>
        <time>2021-02-14T11:05:18Z</time>
      </trkpt>
      <trkpt lat="43.447777" lon="-5.585725">
        <ele>653.0</ele>
        <time>2021-02-14T11:05:19Z</time>
      </trkpt>
      <trkpt lat="43.447765" lon="-5.5857196">
        <ele>653.0</ele>
        <time>2021-02-14T11:05:20Z</time>
      </trkpt>
      <trkpt lat="43.44776" lon="-5.5857134">
        <ele>653.0</ele>
        <time>2021-02-14T11:05:21Z</time>
      </trkpt>
      <trkpt lat="43.44775" lon="-5.5857067">
        <ele>653.0</ele>
        <time>2021-02-14T11:05:22Z</time>
      </trkpt>
      <trkpt lat="43.447746" lon="-5.5856986">
        <ele>653.0</ele>
        <time>2021-02-14T11:05:23Z</time>
      </trkpt>
      <trkpt lat="43.447742" lon="-5.585692">
        <ele>653.0</ele>
        <time>2021-02-14T11:05:24Z</time>
      </trkpt>
      <trkpt lat="43.447742" lon="-5.5856857">
        <ele>653.0</ele>
        <time>2021-02-14T11:05:25Z</time>
      </trkpt>
      <trkpt lat="43.447735" lon="-5.58568">
        <ele>653.0</ele>
        <time>2021-02-14T11:05:26Z</time>
      </trkpt>
      <trkpt lat="43.447727" lon="-5.585676">
        <ele>653.0</ele>
        <time>2021-02-14T11:05:27Z</time>
      </trkpt>
      <trkpt lat="43.44772" lon="-5.5856724">
        <ele>653.0</ele>
        <time>2021-02-14T11:05:28Z</time>
      </trkpt>
      <trkpt lat="43.447716" lon="-5.585667">
        <ele>653.0</ele>
        <time>2021-02-14T11:05:29Z</time>
      </trkpt>
      <trkpt lat="43.447704" lon="-5.5856633">
        <ele>653.0</ele>
        <time>2021-02-14T11:05:30Z</time>
      </trkpt>
      <trkpt lat="43.4477" lon="-5.5856595">
        <ele>653.0</ele>
        <time>2021-02-14T11:05:31Z</time>
      </trkpt>
      <trkpt lat="43.447697" lon="-5.585657">
        <ele>653.0</ele>
        <time>2021-02-14T11:05:32Z</time>
      </trkpt>
      <trkpt lat="43.447685" lon="-5.5856557">
        <ele>653.0</ele>
        <time>2021-02-14T11:05:33Z</time>
      </trkpt>
      <trkpt lat="43.447674" lon="-5.585655">
        <ele>653.0</ele>
        <time>2021-02-14T11:05:34Z</time>
      </trkpt>
      <trkpt lat="43.44767" lon="-5.585654">
        <ele>653.0</ele>
        <time>2021-02-14T11:05:35Z</time>
      </trkpt>
      <trkpt lat="43.44766" lon="-5.5856533">
        <ele>653.0</ele>
        <time>2021-02-14T11:05:36Z</time>
      </trkpt>
      <trkpt lat="43.44765" lon="-5.5856524">
        <ele>653.0</ele>
        <time>2021-02-14T11:05:37Z</time>
      </trkpt>
      <trkpt lat="43.447636" lon="-5.58565">
        <ele>653.0</ele>
        <time>2021-02-14T11:05:38Z</time>
      </trkpt>
      <trkpt lat="43.44762" lon="-5.5856457">
        <ele>656.0</ele>
        <time>2021-02-14T11:05:39Z</time>
      </trkpt>
      <trkpt lat="43.44761" lon="-5.585637">
        <ele>656.0</ele>
        <time>2021-02-14T11:05:40Z</time>
      </trkpt>
      <trkpt lat="43.447594" lon="-5.58563">
        <ele>656.0</ele>
        <time>2021-02-14T11:05:41Z</time>
      </trkpt>
      <trkpt lat="43.447582" lon="-5.585627">
        <ele>656.0</ele>
        <time>2021-02-14T11:05:42Z</time>
      </trkpt>
      <trkpt lat="43.44757" lon="-5.585622">
        <ele>656.0</ele>
        <time>2021-02-14T11:05:43Z</time>
      </trkpt>
      <trkpt lat="43.447563" lon="-5.585617">
        <ele>656.0</ele>
        <time>2021-02-14T11:05:44Z</time>
      </trkpt>
      <trkpt lat="43.447548" lon="-5.5856147">
        <ele>656.0</ele>
        <time>2021-02-14T11:05:45Z</time>
      </trkpt>
      <trkpt lat="43.447536" lon="-5.5856133">
        <ele>656.0</ele>
        <time>2021-02-14T11:05:46Z</time>
      </trkpt>
      <trkpt lat="43.447525" lon="-5.5856113">
        <ele>656.0</ele>
        <time>2021-02-14T11:05:47Z</time>
      </trkpt>
      <trkpt lat="43.447517" lon="-5.585609">
        <ele>656.0</ele>
        <time>2021-02-14T11:05:48Z</time>
      </trkpt>
      <trkpt lat="43.447506" lon="-5.5856066">
        <ele>656.0</ele>
        <time>2021-02-14T11:05:49Z</time>
      </trkpt>
      <trkpt lat="43.447495" lon="-5.5856056">
        <ele>656.0</ele>
        <time>2021-02-14T11:05:50Z</time>
      </trkpt>
      <trkpt lat="43.447487" lon="-5.5856056">
        <ele>656.0</ele>
        <time>2021-02-14T11:05:51Z</time>
      </trkpt>
      <trkpt lat="43.447475" lon="-5.585603">
        <ele>656.0</ele>
        <time>2021-02-14T11:05:52Z</time>
      </trkpt>
      <trkpt lat="43.447464" lon="-5.585599">
        <ele>656.0</ele>
        <time>2021-02-14T11:05:53Z</time>
      </trkpt>
      <trkpt lat="43.447456" lon="-5.5855937">
        <ele>656.0</ele>
        <time>2021-02-14T11:05:54Z</time>
      </trkpt>
      <trkpt lat="43.44745" lon="-5.5855904">
        <ele>656.0</ele>
        <time>2021-02-14T11:05:55Z</time>
      </trkpt>
      <trkpt lat="43.44744" lon="-5.585589">
        <ele>656.0</ele>
        <time>2021-02-14T11:05:56Z</time>
      </trkpt>
      <trkpt lat="43.44743" lon="-5.585589">
        <ele>656.0</ele>
        <time>2021-02-14T11:05:57Z</time>
      </trkpt>
      <trkpt lat="43.44742" lon="-5.5855904">
        <ele>656.0</ele>
        <time>2021-02-14T11:05:58Z</time>
      </trkpt>
      <trkpt lat="43.447407" lon="-5.585589">
        <ele>656.0</ele>
        <time>2021-02-14T11:05:59Z</time>
      </trkpt>
      <trkpt lat="43.44739" lon="-5.58559">
        <ele>656.0</ele>
        <time>2021-02-14T11:06:00Z</time>
      </trkpt>
      <trkpt lat="43.447384" lon="-5.585592">
        <ele>656.0</ele>
        <time>2021-02-14T11:06:01Z</time>
      </trkpt>
      <trkpt lat="43.44737" lon="-5.5855937">
        <ele>656.0</ele>
        <time>2021-02-14T11:06:02Z</time>
      </trkpt>
      <trkpt lat="43.447357" lon="-5.5855937">
        <ele>656.0</ele>
        <time>2021-02-14T11:06:03Z</time>
      </trkpt>
      <trkpt lat="43.447346" lon="-5.5855937">
        <ele>656.0</ele>
        <time>2021-02-14T11:06:04Z</time>
      </trkpt>
      <trkpt lat="43.447342" lon="-5.5855937">
        <ele>656.0</ele>
        <time>2021-02-14T11:06:05Z</time>
      </trkpt>
      <trkpt lat="43.44733" lon="-5.5855923">
        <ele>656.0</ele>
        <time>2021-02-14T11:06:06Z</time>
      </trkpt>
      <trkpt lat="43.447323" lon="-5.585591">
        <ele>656.0</ele>
        <time>2021-02-14T11:06:07Z</time>
      </trkpt>
      <trkpt lat="43.44731" lon="-5.5855904">
        <ele>656.0</ele>
        <time>2021-02-14T11:06:08Z</time>
      </trkpt>
      <trkpt lat="43.4473" lon="-5.5855923">
        <ele>657.0</ele>
        <time>2021-02-14T11:06:09Z</time>
      </trkpt>
      <trkpt lat="43.447296" lon="-5.5855956">
        <ele>657.0</ele>
        <time>2021-02-14T11:06:10Z</time>
      </trkpt>
      <trkpt lat="43.447285" lon="-5.585598">
        <ele>657.0</ele>
        <time>2021-02-14T11:06:11Z</time>
      </trkpt>
      <trkpt lat="43.447277" lon="-5.585603">
        <ele>657.0</ele>
        <time>2021-02-14T11:06:12Z</time>
      </trkpt>
      <trkpt lat="43.44726" lon="-5.585607">
        <ele>657.0</ele>
        <time>2021-02-14T11:06:13Z</time>
      </trkpt>
      <trkpt lat="43.447254" lon="-5.5856075">
        <ele>657.0</ele>
        <time>2021-02-14T11:06:14Z</time>
      </trkpt>
      <trkpt lat="43.44725" lon="-5.585605">
        <ele>657.0</ele>
        <time>2021-02-14T11:06:15Z</time>
      </trkpt>
      <trkpt lat="43.44724" lon="-5.585603">
        <ele>657.0</ele>
        <time>2021-02-14T11:06:16Z</time>
      </trkpt>
      <trkpt lat="43.447235" lon="-5.585602">
        <ele>657.0</ele>
        <time>2021-02-14T11:06:17Z</time>
      </trkpt>
      <trkpt lat="43.447224" lon="-5.5855994">
        <ele>657.0</ele>
        <time>2021-02-14T11:06:18Z</time>
      </trkpt>
      <trkpt lat="43.44722" lon="-5.5855947">
        <ele>657.0</ele>
        <time>2021-02-14T11:06:19Z</time>
      </trkpt>
      <trkpt lat="43.44721" lon="-5.585592">
        <ele>658.0</ele>
        <time>2021-02-14T11:06:20Z</time>
      </trkpt>
      <trkpt lat="43.447205" lon="-5.585588">
        <ele>658.0</ele>
        <time>2021-02-14T11:06:21Z</time>
      </trkpt>
      <trkpt lat="43.447197" lon="-5.5855846">
        <ele>658.0</ele>
        <time>2021-02-14T11:06:22Z</time>
      </trkpt>
      <trkpt lat="43.44719" lon="-5.5855823">
        <ele>658.0</ele>
        <time>2021-02-14T11:06:23Z</time>
      </trkpt>
      <trkpt lat="43.447178" lon="-5.585579">
        <ele>658.0</ele>
        <time>2021-02-14T11:06:24Z</time>
      </trkpt>
      <trkpt lat="43.447166" lon="-5.585573">
        <ele>658.0</ele>
        <time>2021-02-14T11:06:25Z</time>
      </trkpt>
      <trkpt lat="43.447163" lon="-5.5855646">
        <ele>658.0</ele>
        <time>2021-02-14T11:06:26Z</time>
      </trkpt>
      <trkpt lat="43.44715" lon="-5.585554">
        <ele>659.0</ele>
        <time>2021-02-14T11:06:27Z</time>
      </trkpt>
      <trkpt lat="43.447147" lon="-5.585542">
        <ele>659.0</ele>
        <time>2021-02-14T11:06:28Z</time>
      </trkpt>
      <trkpt lat="43.447144" lon="-5.5855336">
        <ele>659.0</ele>
        <time>2021-02-14T11:06:29Z</time>
      </trkpt>
      <trkpt lat="43.447136" lon="-5.585525">
        <ele>659.0</ele>
        <time>2021-02-14T11:06:30Z</time>
      </trkpt>
      <trkpt lat="43.447132" lon="-5.585518">
        <ele>659.0</ele>
        <time>2021-02-14T11:06:31Z</time>
      </trkpt>
      <trkpt lat="43.44713" lon="-5.5855117">
        <ele>659.0</ele>
        <time>2021-02-14T11:06:32Z</time>
      </trkpt>
      <trkpt lat="43.44713" lon="-5.5855026">
        <ele>659.0</ele>
        <time>2021-02-14T11:06:33Z</time>
      </trkpt>
      <trkpt lat="43.44712" lon="-5.585491">
        <ele>659.0</ele>
        <time>2021-02-14T11:06:34Z</time>
      </trkpt>
      <trkpt lat="43.447117" lon="-5.5854836">
        <ele>659.0</ele>
        <time>2021-02-14T11:06:35Z</time>
      </trkpt>
      <trkpt lat="43.447117" lon="-5.5854764">
        <ele>660.0</ele>
        <time>2021-02-14T11:06:36Z</time>
      </trkpt>
      <trkpt lat="43.447113" lon="-5.58547">
        <ele>660.0</ele>
        <time>2021-02-14T11:06:37Z</time>
      </trkpt>
      <trkpt lat="43.447105" lon="-5.585465">
        <ele>660.0</ele>
        <time>2021-02-14T11:06:38Z</time>
      </trkpt>
      <trkpt lat="43.4471" lon="-5.5854597">
        <ele>660.0</ele>
        <time>2021-02-14T11:06:39Z</time>
      </trkpt>
      <trkpt lat="43.447098" lon="-5.585452">
        <ele>660.0</ele>
        <time>2021-02-14T11:06:40Z</time>
      </trkpt>
      <trkpt lat="43.44709" lon="-5.585442">
        <ele>660.0</ele>
        <time>2021-02-14T11:06:41Z</time>
      </trkpt>
      <trkpt lat="43.44709" lon="-5.5854297">
        <ele>660.0</ele>
        <time>2021-02-14T11:06:42Z</time>
      </trkpt>
      <trkpt lat="43.447083" lon="-5.5854197">
        <ele>661.0</ele>
        <time>2021-02-14T11:06:43Z</time>
      </trkpt>
      <trkpt lat="43.447075" lon="-5.585408">
        <ele>661.0</ele>
        <time>2021-02-14T11:06:44Z</time>
      </trkpt>
      <trkpt lat="43.44707" lon="-5.5853944">
        <ele>661.0</ele>
        <time>2021-02-14T11:06:45Z</time>
      </trkpt>
      <trkpt lat="43.44706" lon="-5.585381">
        <ele>661.0</ele>
        <time>2021-02-14T11:06:46Z</time>
      </trkpt>
      <trkpt lat="43.447056" lon="-5.5853696">
        <ele>661.0</ele>
        <time>2021-02-14T11:06:47Z</time>
      </trkpt>
      <trkpt lat="43.447052" lon="-5.5853577">
        <ele>661.0</ele>
        <time>2021-02-14T11:06:48Z</time>
      </trkpt>
      <trkpt lat="43.44704" lon="-5.585343">
        <ele>662.0</ele>
        <time>2021-02-14T11:06:49Z</time>
      </trkpt>
      <trkpt lat="43.447037" lon="-5.5853267">
        <ele>662.0</ele>
        <time>2021-02-14T11:06:50Z</time>
      </trkpt>
      <trkpt lat="43.447025" lon="-5.5853095">
        <ele>662.0</ele>
        <time>2021-02-14T11:06:51Z</time>
      </trkpt>
      <trkpt lat="43.447014" lon="-5.5852933">
        <ele>662.0</ele>
        <time>2021-02-14T11:06:52Z</time>
      </trkpt>
      <trkpt lat="43.447002" lon="-5.5852804">
        <ele>662.0</ele>
        <time>2021-02-14T11:06:53Z</time>
      </trkpt>
      <trkpt lat="43.446995" lon="-5.5852666">
        <ele>662.0</ele>
        <time>2021-02-14T11:06:54Z</time>
      </trkpt>
      <trkpt lat="43.446987" lon="-5.5852537">
        <ele>662.0</ele>
        <time>2021-02-14T11:06:55Z</time>
      </trkpt>
      <trkpt lat="43.44698" lon="-5.5852423">
        <ele>662.0</ele>
        <time>2021-02-14T11:06:56Z</time>
      </trkpt>
      <trkpt lat="43.446968" lon="-5.5852327">
        <ele>662.0</ele>
        <time>2021-02-14T11:06:57Z</time>
      </trkpt>
      <trkpt lat="43.446964" lon="-5.585223">
        <ele>662.0</ele>
        <time>2021-02-14T11:06:58Z</time>
      </trkpt>
      <trkpt lat="43.446957" lon="-5.5852127">
        <ele>662.0</ele>
        <time>2021-02-14T11:06:59Z</time>
      </trkpt>
      <trkpt lat="43.44695" lon="-5.5852017">
        <ele>662.0</ele>
        <time>2021-02-14T11:07:00Z</time>
      </trkpt>
      <trkpt lat="43.44694" lon="-5.5851903">
        <ele>662.0</ele>
        <time>2021-02-14T11:07:01Z</time>
      </trkpt>
      <trkpt lat="43.446938" lon="-5.5851774">
        <ele>662.0</ele>
        <time>2021-02-14T11:07:02Z</time>
      </trkpt>
      <trkpt lat="43.446934" lon="-5.585165">
        <ele>662.0</ele>
        <time>2021-02-14T11:07:03Z</time>
      </trkpt>
      <trkpt lat="43.446926" lon="-5.585154">
        <ele>662.0</ele>
        <time>2021-02-14T11:07:04Z</time>
      </trkpt>
      <trkpt lat="43.44692" lon="-5.5851464">
        <ele>662.0</ele>
        <time>2021-02-14T11:07:05Z</time>
      </trkpt>
      <trkpt lat="43.446907" lon="-5.5851393">
        <ele>662.0</ele>
        <time>2021-02-14T11:07:06Z</time>
      </trkpt>
      <trkpt lat="43.446896" lon="-5.585134">
        <ele>662.0</ele>
        <time>2021-02-14T11:07:07Z</time>
      </trkpt>
      <trkpt lat="43.44689" lon="-5.585129">
        <ele>662.0</ele>
        <time>2021-02-14T11:07:08Z</time>
      </trkpt>
      <trkpt lat="43.446888" lon="-5.585121">
        <ele>662.0</ele>
        <time>2021-02-14T11:07:09Z</time>
      </trkpt>
      <trkpt lat="43.44688" lon="-5.585111">
        <ele>663.0</ele>
        <time>2021-02-14T11:07:10Z</time>
      </trkpt>
      <trkpt lat="43.446873" lon="-5.5850983">
        <ele>663.0</ele>
        <time>2021-02-14T11:07:11Z</time>
      </trkpt>
      <trkpt lat="43.446865" lon="-5.5850897">
        <ele>663.0</ele>
        <time>2021-02-14T11:07:12Z</time>
      </trkpt>
      <trkpt lat="43.446857" lon="-5.5850835">
        <ele>663.0</ele>
        <time>2021-02-14T11:07:13Z</time>
      </trkpt>
      <trkpt lat="43.446846" lon="-5.5850797">
        <ele>663.0</ele>
        <time>2021-02-14T11:07:14Z</time>
      </trkpt>
      <trkpt lat="43.446835" lon="-5.5850763">
        <ele>663.0</ele>
        <time>2021-02-14T11:07:15Z</time>
      </trkpt>
      <trkpt lat="43.44683" lon="-5.5850725">
        <ele>663.0</ele>
        <time>2021-02-14T11:07:16Z</time>
      </trkpt>
      <trkpt lat="43.44682" lon="-5.5850697">
        <ele>663.0</ele>
        <time>2021-02-14T11:07:17Z</time>
      </trkpt>
      <trkpt lat="43.446815" lon="-5.5850663">
        <ele>663.0</ele>
        <time>2021-02-14T11:07:18Z</time>
      </trkpt>
      <trkpt lat="43.446804" lon="-5.5850625">
        <ele>663.0</ele>
        <time>2021-02-14T11:07:19Z</time>
      </trkpt>
      <trkpt lat="43.446793" lon="-5.5850573">
        <ele>663.0</ele>
        <time>2021-02-14T11:07:20Z</time>
      </trkpt>
      <trkpt lat="43.446785" lon="-5.585053">
        <ele>663.0</ele>
        <time>2021-02-14T11:07:21Z</time>
      </trkpt>
      <trkpt lat="43.446774" lon="-5.585048">
        <ele>663.0</ele>
        <time>2021-02-14T11:07:22Z</time>
      </trkpt>
      <trkpt lat="43.44677" lon="-5.585042">
        <ele>663.0</ele>
        <time>2021-02-14T11:07:23Z</time>
      </trkpt>
      <trkpt lat="43.446754" lon="-5.5850344">
        <ele>663.0</ele>
        <time>2021-02-14T11:07:24Z</time>
      </trkpt>
      <trkpt lat="43.446743" lon="-5.5850267">
        <ele>663.0</ele>
        <time>2021-02-14T11:07:25Z</time>
      </trkpt>
      <trkpt lat="43.44673" lon="-5.5850196">
        <ele>663.0</ele>
        <time>2021-02-14T11:07:26Z</time>
      </trkpt>
      <trkpt lat="43.446724" lon="-5.5850124">
        <ele>663.0</ele>
        <time>2021-02-14T11:07:27Z</time>
      </trkpt>
      <trkpt lat="43.446712" lon="-5.5850053">
        <ele>663.0</ele>
        <time>2021-02-14T11:07:28Z</time>
      </trkpt>
      <trkpt lat="43.446697" lon="-5.5849986">
        <ele>663.0</ele>
        <time>2021-02-14T11:07:29Z</time>
      </trkpt>
      <trkpt lat="43.446686" lon="-5.5849886">
        <ele>663.0</ele>
        <time>2021-02-14T11:07:30Z</time>
      </trkpt>
      <trkpt lat="43.44668" lon="-5.5849786">
        <ele>663.0</ele>
        <time>2021-02-14T11:07:31Z</time>
      </trkpt>
      <trkpt lat="43.446667" lon="-5.584968">
        <ele>663.0</ele>
        <time>2021-02-14T11:07:32Z</time>
      </trkpt>
      <trkpt lat="43.446655" lon="-5.584958">
        <ele>663.0</ele>
        <time>2021-02-14T11:07:33Z</time>
      </trkpt>
      <trkpt lat="43.44664" lon="-5.5849466">
        <ele>663.0</ele>
        <time>2021-02-14T11:07:34Z</time>
      </trkpt>
      <trkpt lat="43.44663" lon="-5.584936">
        <ele>663.0</ele>
        <time>2021-02-14T11:07:35Z</time>
      </trkpt>
      <trkpt lat="43.44662" lon="-5.5849295">
        <ele>663.0</ele>
        <time>2021-02-14T11:07:36Z</time>
      </trkpt>
      <trkpt lat="43.44661" lon="-5.5849223">
        <ele>663.0</ele>
        <time>2021-02-14T11:07:37Z</time>
      </trkpt>
      <trkpt lat="43.446598" lon="-5.584915">
        <ele>663.0</ele>
        <time>2021-02-14T11:07:38Z</time>
      </trkpt>
      <trkpt lat="43.44659" lon="-5.584908">
        <ele>663.0</ele>
        <time>2021-02-14T11:07:39Z</time>
      </trkpt>
      <trkpt lat="43.44658" lon="-5.5848975">
        <ele>663.0</ele>
        <time>2021-02-14T11:07:40Z</time>
      </trkpt>
      <trkpt lat="43.446564" lon="-5.584887">
        <ele>663.0</ele>
        <time>2021-02-14T11:07:41Z</time>
      </trkpt>
      <trkpt lat="43.44656" lon="-5.5848794">
        <ele>663.0</ele>
        <time>2021-02-14T11:07:42Z</time>
      </trkpt>
      <trkpt lat="43.44655" lon="-5.584871">
        <ele>663.0</ele>
        <time>2021-02-14T11:07:43Z</time>
      </trkpt>
      <trkpt lat="43.446537" lon="-5.584862">
        <ele>662.0</ele>
        <time>2021-02-14T11:07:44Z</time>
      </trkpt>
      <trkpt lat="43.446533" lon="-5.5848527">
        <ele>662.0</ele>
        <time>2021-02-14T11:07:45Z</time>
      </trkpt>
      <trkpt lat="43.44652" lon="-5.584842">
        <ele>662.0</ele>
        <time>2021-02-14T11:07:46Z</time>
      </trkpt>
      <trkpt lat="43.446514" lon="-5.5848303">
        <ele>662.0</ele>
        <time>2021-02-14T11:07:47Z</time>
      </trkpt>
      <trkpt lat="43.446503" lon="-5.584818">
        <ele>662.0</ele>
        <time>2021-02-14T11:07:48Z</time>
      </trkpt>
      <trkpt lat="43.446487" lon="-5.5848064">
        <ele>662.0</ele>
        <time>2021-02-14T11:07:49Z</time>
      </trkpt>
      <trkpt lat="43.446476" lon="-5.5847974">
        <ele>662.0</ele>
        <time>2021-02-14T11:07:50Z</time>
      </trkpt>
      <trkpt lat="43.44647" lon="-5.5847893">
        <ele>662.0</ele>
        <time>2021-02-14T11:07:51Z</time>
      </trkpt>
      <trkpt lat="43.446457" lon="-5.5847797">
        <ele>662.0</ele>
        <time>2021-02-14T11:07:52Z</time>
      </trkpt>
      <trkpt lat="43.446445" lon="-5.5847697">
        <ele>662.0</ele>
        <time>2021-02-14T11:07:53Z</time>
      </trkpt>
      <trkpt lat="43.446434" lon="-5.584759">
        <ele>662.0</ele>
        <time>2021-02-14T11:07:54Z</time>
      </trkpt>
      <trkpt lat="43.44642" lon="-5.5847464">
        <ele>661.0</ele>
        <time>2021-02-14T11:07:55Z</time>
      </trkpt>
      <trkpt lat="43.44641" lon="-5.584733">
        <ele>661.0</ele>
        <time>2021-02-14T11:07:56Z</time>
      </trkpt>
      <trkpt lat="43.446396" lon="-5.58472">
        <ele>661.0</ele>
        <time>2021-02-14T11:07:57Z</time>
      </trkpt>
      <trkpt lat="43.446384" lon="-5.5847087">
        <ele>661.0</ele>
        <time>2021-02-14T11:07:58Z</time>
      </trkpt>
      <trkpt lat="43.44637" lon="-5.584697">
        <ele>661.0</ele>
        <time>2021-02-14T11:07:59Z</time>
      </trkpt>
      <trkpt lat="43.446358" lon="-5.5846853">
        <ele>661.0</ele>
        <time>2021-02-14T11:08:00Z</time>
      </trkpt>
      <trkpt lat="43.44635" lon="-5.584672">
        <ele>661.0</ele>
        <time>2021-02-14T11:08:01Z</time>
      </trkpt>
      <trkpt lat="43.446342" lon="-5.5846586">
        <ele>661.0</ele>
        <time>2021-02-14T11:08:02Z</time>
      </trkpt>
      <trkpt lat="43.446335" lon="-5.5846443">
        <ele>661.0</ele>
        <time>2021-02-14T11:08:03Z</time>
      </trkpt>
      <trkpt lat="43.446327" lon="-5.5846305">
        <ele>661.0</ele>
        <time>2021-02-14T11:08:04Z</time>
      </trkpt>
      <trkpt lat="43.44632" lon="-5.5846176">
        <ele>661.0</ele>
        <time>2021-02-14T11:08:05Z</time>
      </trkpt>
      <trkpt lat="43.44631" lon="-5.584605">
        <ele>661.0</ele>
        <time>2021-02-14T11:08:06Z</time>
      </trkpt>
      <trkpt lat="43.446297" lon="-5.5845957">
        <ele>661.0</ele>
        <time>2021-02-14T11:08:07Z</time>
      </trkpt>
      <trkpt lat="43.44629" lon="-5.5845857">
        <ele>660.0</ele>
        <time>2021-02-14T11:08:08Z</time>
      </trkpt>
      <trkpt lat="43.446278" lon="-5.5845733">
        <ele>660.0</ele>
        <time>2021-02-14T11:08:09Z</time>
      </trkpt>
      <trkpt lat="43.446266" lon="-5.5845637">
        <ele>660.0</ele>
        <time>2021-02-14T11:08:10Z</time>
      </trkpt>
      <trkpt lat="43.44626" lon="-5.5845575">
        <ele>660.0</ele>
        <time>2021-02-14T11:08:11Z</time>
      </trkpt>
      <trkpt lat="43.446247" lon="-5.5845523">
        <ele>660.0</ele>
        <time>2021-02-14T11:08:12Z</time>
      </trkpt>
      <trkpt lat="43.44624" lon="-5.5845423">
        <ele>660.0</ele>
        <time>2021-02-14T11:08:13Z</time>
      </trkpt>
      <trkpt lat="43.44623" lon="-5.5845313">
        <ele>660.0</ele>
        <time>2021-02-14T11:08:14Z</time>
      </trkpt>
      <trkpt lat="43.446224" lon="-5.58452">
        <ele>660.0</ele>
        <time>2021-02-14T11:08:15Z</time>
      </trkpt>
      <trkpt lat="43.446224" lon="-5.584506">
        <ele>660.0</ele>
        <time>2021-02-14T11:08:16Z</time>
      </trkpt>
      <trkpt lat="43.44622" lon="-5.584494">
        <ele>660.0</ele>
        <time>2021-02-14T11:08:17Z</time>
      </trkpt>
      <trkpt lat="43.446217" lon="-5.5844827">
        <ele>660.0</ele>
        <time>2021-02-14T11:08:18Z</time>
      </trkpt>
      <trkpt lat="43.446205" lon="-5.584472">
        <ele>659.0</ele>
        <time>2021-02-14T11:08:19Z</time>
      </trkpt>
      <trkpt lat="43.446194" lon="-5.5844626">
        <ele>659.0</ele>
        <time>2021-02-14T11:08:20Z</time>
      </trkpt>
      <trkpt lat="43.446186" lon="-5.5844555">
        <ele>659.0</ele>
        <time>2021-02-14T11:08:21Z</time>
      </trkpt>
      <trkpt lat="43.446175" lon="-5.584451">
        <ele>659.0</ele>
        <time>2021-02-14T11:08:22Z</time>
      </trkpt>
      <trkpt lat="43.446163" lon="-5.584449">
        <ele>659.0</ele>
        <time>2021-02-14T11:08:23Z</time>
      </trkpt>
      <trkpt lat="43.44616" lon="-5.5844455">
        <ele>659.0</ele>
        <time>2021-02-14T11:08:24Z</time>
      </trkpt>
      <trkpt lat="43.446148" lon="-5.584442">
        <ele>659.0</ele>
        <time>2021-02-14T11:08:25Z</time>
      </trkpt>
      <trkpt lat="43.44614" lon="-5.5844398">
        <ele>659.0</ele>
        <time>2021-02-14T11:08:26Z</time>
      </trkpt>
      <trkpt lat="43.446133" lon="-5.5844364">
        <ele>659.0</ele>
        <time>2021-02-14T11:08:27Z</time>
      </trkpt>
      <trkpt lat="43.446125" lon="-5.584434">
        <ele>659.0</ele>
        <time>2021-02-14T11:08:28Z</time>
      </trkpt>
      <trkpt lat="43.446117" lon="-5.584435">
        <ele>659.0</ele>
        <time>2021-02-14T11:08:29Z</time>
      </trkpt>
      <trkpt lat="43.44611" lon="-5.584437">
        <ele>659.0</ele>
        <time>2021-02-14T11:08:30Z</time>
      </trkpt>
      <trkpt lat="43.446102" lon="-5.5844398">
        <ele>658.0</ele>
        <time>2021-02-14T11:08:31Z</time>
      </trkpt>
      <trkpt lat="43.446095" lon="-5.584442">
        <ele>658.0</ele>
        <time>2021-02-14T11:08:32Z</time>
      </trkpt>
      <trkpt lat="43.446083" lon="-5.584443">
        <ele>658.0</ele>
        <time>2021-02-14T11:08:33Z</time>
      </trkpt>
      <trkpt lat="43.44607" lon="-5.584443">
        <ele>658.0</ele>
        <time>2021-02-14T11:08:34Z</time>
      </trkpt>
      <trkpt lat="43.44606" lon="-5.584442">
        <ele>658.0</ele>
        <time>2021-02-14T11:08:35Z</time>
      </trkpt>
      <trkpt lat="43.446053" lon="-5.584442">
        <ele>658.0</ele>
        <time>2021-02-14T11:08:36Z</time>
      </trkpt>
      <trkpt lat="43.446037" lon="-5.58444">
        <ele>658.0</ele>
        <time>2021-02-14T11:08:37Z</time>
      </trkpt>
      <trkpt lat="43.446026" lon="-5.5844364">
        <ele>658.0</ele>
        <time>2021-02-14T11:08:38Z</time>
      </trkpt>
      <trkpt lat="43.446014" lon="-5.584433">
        <ele>658.0</ele>
        <time>2021-02-14T11:08:39Z</time>
      </trkpt>
      <trkpt lat="43.446007" lon="-5.584432">
        <ele>658.0</ele>
        <time>2021-02-14T11:08:40Z</time>
      </trkpt>
      <trkpt lat="43.445995" lon="-5.5844307">
        <ele>658.0</ele>
        <time>2021-02-14T11:08:41Z</time>
      </trkpt>
      <trkpt lat="43.445984" lon="-5.58443">
        <ele>658.0</ele>
        <time>2021-02-14T11:08:42Z</time>
      </trkpt>
      <trkpt lat="43.44597" lon="-5.5844293">
        <ele>658.0</ele>
        <time>2021-02-14T11:08:43Z</time>
      </trkpt>
      <trkpt lat="43.44595" lon="-5.584434">
        <ele>658.0</ele>
        <time>2021-02-14T11:08:45Z</time>
      </trkpt>
      <trkpt lat="43.44595" lon="-5.584433">
        <ele>658.0</ele>
        <time>2021-02-14T11:08:46Z</time>
      </trkpt>
      <trkpt lat="43.445946" lon="-5.584436">
        <ele>658.0</ele>
        <time>2021-02-14T11:08:47Z</time>
      </trkpt>
      <trkpt lat="43.445934" lon="-5.5844393">
        <ele>658.0</ele>
        <time>2021-02-14T11:08:48Z</time>
      </trkpt>
      <trkpt lat="43.445923" lon="-5.58444">
        <ele>657.0</ele>
        <time>2021-02-14T11:08:49Z</time>
      </trkpt>
      <trkpt lat="43.44592" lon="-5.584442">
        <ele>657.0</ele>
        <time>2021-02-14T11:08:50Z</time>
      </trkpt>
      <trkpt lat="43.445908" lon="-5.5844455">
        <ele>657.0</ele>
        <time>2021-02-14T11:08:51Z</time>
      </trkpt>
      <trkpt lat="43.445904" lon="-5.5844474">
        <ele>657.0</ele>
        <time>2021-02-14T11:08:52Z</time>
      </trkpt>
      <trkpt lat="43.4459" lon="-5.584448">
        <ele>657.0</ele>
        <time>2021-02-14T11:08:53Z</time>
      </trkpt>
      <trkpt lat="43.445892" lon="-5.58445">
        <ele>657.0</ele>
        <time>2021-02-14T11:08:54Z</time>
      </trkpt>
      <trkpt lat="43.44589" lon="-5.5844545">
        <ele>657.0</ele>
        <time>2021-02-14T11:08:55Z</time>
      </trkpt>
      <trkpt lat="43.445885" lon="-5.584459">
        <ele>657.0</ele>
        <time>2021-02-14T11:08:56Z</time>
      </trkpt>
      <trkpt lat="43.445885" lon="-5.5844646">
        <ele>657.0</ele>
        <time>2021-02-14T11:08:57Z</time>
      </trkpt>
      <trkpt lat="43.445877" lon="-5.5844774">
        <ele>657.0</ele>
        <time>2021-02-14T11:08:59Z</time>
      </trkpt>
      <trkpt lat="43.445873" lon="-5.584478">
        <ele>657.0</ele>
        <time>2021-02-14T11:09:00Z</time>
      </trkpt>
      <trkpt lat="43.445873" lon="-5.58448">
        <ele>657.0</ele>
        <time>2021-02-14T11:09:01Z</time>
      </trkpt>
      <trkpt lat="43.445866" lon="-5.584488">
        <ele>657.0</ele>
        <time>2021-02-14T11:09:06Z</time>
      </trkpt>
      <trkpt lat="43.445866" lon="-5.5844865">
        <ele>657.0</ele>
        <time>2021-02-14T11:09:07Z</time>
      </trkpt>
      <trkpt lat="43.445866" lon="-5.5844865">
        <ele>657.0</ele>
        <time>2021-02-14T11:09:08Z</time>
      </trkpt>
      <trkpt lat="43.445866" lon="-5.5844836">
        <ele>657.0</ele>
        <time>2021-02-14T11:09:08Z</time>
      </trkpt>
      <trkpt lat="43.445866" lon="-5.584478">
        <ele>657.0</ele>
        <time>2021-02-14T11:09:09Z</time>
      </trkpt>
      <trkpt lat="43.44586" lon="-5.584471">
        <ele>657.0</ele>
        <time>2021-02-14T11:09:10Z</time>
      </trkpt>
      <trkpt lat="43.44586" lon="-5.5844646">
        <ele>657.0</ele>
        <time>2021-02-14T11:09:11Z</time>
      </trkpt>
      <trkpt lat="43.44586" lon="-5.5844584">
        <ele>657.0</ele>
        <time>2021-02-14T11:09:12Z</time>
      </trkpt>
      <trkpt lat="43.445858" lon="-5.5844526">
        <ele>657.0</ele>
        <time>2021-02-14T11:09:13Z</time>
      </trkpt>
      <trkpt lat="43.445858" lon="-5.584448">
        <ele>657.0</ele>
        <time>2021-02-14T11:09:14Z</time>
      </trkpt>
      <trkpt lat="43.44585" lon="-5.584446">
        <ele>657.0</ele>
        <time>2021-02-14T11:09:15Z</time>
      </trkpt>
      <trkpt lat="43.44585" lon="-5.584446">
        <ele>657.0</ele>
        <time>2021-02-14T11:09:16Z</time>
      </trkpt>
      <trkpt lat="43.445847" lon="-5.584447">
        <ele>657.0</ele>
        <time>2021-02-14T11:09:17Z</time>
      </trkpt>
      <trkpt lat="43.445843" lon="-5.5844493">
        <ele>657.0</ele>
        <time>2021-02-14T11:09:18Z</time>
      </trkpt>
      <trkpt lat="43.44583" lon="-5.584455">
        <ele>657.0</ele>
        <time>2021-02-14T11:09:19Z</time>
      </trkpt>
      <trkpt lat="43.445827" lon="-5.5844607">
        <ele>657.0</ele>
        <time>2021-02-14T11:09:20Z</time>
      </trkpt>
      <trkpt lat="43.445816" lon="-5.5844655">
        <ele>657.0</ele>
        <time>2021-02-14T11:09:21Z</time>
      </trkpt>
      <trkpt lat="43.445812" lon="-5.584466">
        <ele>657.0</ele>
        <time>2021-02-14T11:09:22Z</time>
      </trkpt>
      <trkpt lat="43.445805" lon="-5.584464">
        <ele>657.0</ele>
        <time>2021-02-14T11:09:23Z</time>
      </trkpt>
      <trkpt lat="43.445797" lon="-5.5844593">
        <ele>657.0</ele>
        <time>2021-02-14T11:09:24Z</time>
      </trkpt>
      <trkpt lat="43.44579" lon="-5.5844507">
        <ele>657.0</ele>
        <time>2021-02-14T11:09:25Z</time>
      </trkpt>
      <trkpt lat="43.44578" lon="-5.584441">
        <ele>657.0</ele>
        <time>2021-02-14T11:09:26Z</time>
      </trkpt>
      <trkpt lat="43.445774" lon="-5.58443">
        <ele>657.0</ele>
        <time>2021-02-14T11:09:27Z</time>
      </trkpt>
      <trkpt lat="43.445766" lon="-5.5844197">
        <ele>657.0</ele>
        <time>2021-02-14T11:09:28Z</time>
      </trkpt>
      <trkpt lat="43.44576" lon="-5.5844126">
        <ele>657.0</ele>
        <time>2021-02-14T11:09:29Z</time>
      </trkpt>
      <trkpt lat="43.44575" lon="-5.5844107">
        <ele>657.0</ele>
        <time>2021-02-14T11:09:30Z</time>
      </trkpt>
      <trkpt lat="43.44574" lon="-5.5844116">
        <ele>657.0</ele>
        <time>2021-02-14T11:09:31Z</time>
      </trkpt>
      <trkpt lat="43.44573" lon="-5.5844116">
        <ele>657.0</ele>
        <time>2021-02-14T11:09:32Z</time>
      </trkpt>
      <trkpt lat="43.44572" lon="-5.5844126">
        <ele>657.0</ele>
        <time>2021-02-14T11:09:33Z</time>
      </trkpt>
      <trkpt lat="43.44571" lon="-5.5844145">
        <ele>657.0</ele>
        <time>2021-02-14T11:09:34Z</time>
      </trkpt>
      <trkpt lat="43.445698" lon="-5.584417">
        <ele>657.0</ele>
        <time>2021-02-14T11:09:35Z</time>
      </trkpt>
      <trkpt lat="43.44569" lon="-5.584419">
        <ele>657.0</ele>
        <time>2021-02-14T11:09:36Z</time>
      </trkpt>
      <trkpt lat="43.445683" lon="-5.5844216">
        <ele>657.0</ele>
        <time>2021-02-14T11:09:37Z</time>
      </trkpt>
      <trkpt lat="43.44568" lon="-5.584425">
        <ele>657.0</ele>
        <time>2021-02-14T11:09:38Z</time>
      </trkpt>
      <trkpt lat="43.445667" lon="-5.5844293">
        <ele>657.0</ele>
        <time>2021-02-14T11:09:39Z</time>
      </trkpt>
      <trkpt lat="43.445656" lon="-5.5844326">
        <ele>657.0</ele>
        <time>2021-02-14T11:09:40Z</time>
      </trkpt>
      <trkpt lat="43.445652" lon="-5.5844364">
        <ele>657.0</ele>
        <time>2021-02-14T11:09:41Z</time>
      </trkpt>
      <trkpt lat="43.445652" lon="-5.584438">
        <ele>657.0</ele>
        <time>2021-02-14T11:09:42Z</time>
      </trkpt>
      <trkpt lat="43.44565" lon="-5.58444">
        <ele>657.0</ele>
        <time>2021-02-14T11:09:43Z</time>
      </trkpt>
      <trkpt lat="43.44564" lon="-5.5844393">
        <ele>657.0</ele>
        <time>2021-02-14T11:09:46Z</time>
      </trkpt>
      <trkpt lat="43.44564" lon="-5.584441">
        <ele>657.0</ele>
        <time>2021-02-14T11:09:50Z</time>
      </trkpt>
      <trkpt lat="43.44564" lon="-5.5844417">
        <ele>657.0</ele>
        <time>2021-02-14T11:09:51Z</time>
      </trkpt>
      <trkpt lat="43.44564" lon="-5.584445">
        <ele>657.0</ele>
        <time>2021-02-14T11:09:52Z</time>
      </trkpt>
      <trkpt lat="43.44564" lon="-5.584449">
        <ele>657.0</ele>
        <time>2021-02-14T11:09:53Z</time>
      </trkpt>
      <trkpt lat="43.445637" lon="-5.5844607">
        <ele>657.0</ele>
        <time>2021-02-14T11:09:55Z</time>
      </trkpt>
      <trkpt lat="43.445637" lon="-5.584471">
        <ele>657.0</ele>
        <time>2021-02-14T11:10:15Z</time>
      </trkpt>
      <trkpt lat="43.445637" lon="-5.584472">
        <ele>657.0</ele>
        <time>2021-02-14T11:10:16Z</time>
      </trkpt>
      <trkpt lat="43.445637" lon="-5.584475">
        <ele>657.0</ele>
        <time>2021-02-14T11:10:17Z</time>
      </trkpt>
      <trkpt lat="43.445637" lon="-5.5844855">
        <ele>657.0</ele>
        <time>2021-02-14T11:10:21Z</time>
      </trkpt>
      <trkpt lat="43.445618" lon="-5.584488">
        <ele>657.0</ele>
        <time>2021-02-14T11:10:37Z</time>
      </trkpt>
      <trkpt lat="43.445618" lon="-5.584488">
        <ele>657.0</ele>
        <time>2021-02-14T11:10:38Z</time>
      </trkpt>
      <trkpt lat="43.445606" lon="-5.584481">
        <ele>657.0</ele>
        <time>2021-02-14T11:11:04Z</time>
      </trkpt>
      <trkpt lat="43.445602" lon="-5.5844774">
        <ele>657.0</ele>
        <time>2021-02-14T11:11:08Z</time>
      </trkpt>
      <trkpt lat="43.445595" lon="-5.5844755">
        <ele>657.0</ele>
        <time>2021-02-14T11:11:09Z</time>
      </trkpt>
      <trkpt lat="43.445595" lon="-5.584474">
        <ele>657.0</ele>
        <time>2021-02-14T11:11:10Z</time>
      </trkpt>
      <trkpt lat="43.445587" lon="-5.584472">
        <ele>657.0</ele>
        <time>2021-02-14T11:11:11Z</time>
      </trkpt>
      <trkpt lat="43.44558" lon="-5.584468">
        <ele>657.0</ele>
        <time>2021-02-14T11:11:12Z</time>
      </trkpt>
      <trkpt lat="43.44557" lon="-5.5844626">
        <ele>657.0</ele>
        <time>2021-02-14T11:11:13Z</time>
      </trkpt>
      <trkpt lat="43.445564" lon="-5.5844574">
        <ele>657.0</ele>
        <time>2021-02-14T11:11:14Z</time>
      </trkpt>
      <trkpt lat="43.445557" lon="-5.584453">
        <ele>657.0</ele>
        <time>2021-02-14T11:11:15Z</time>
      </trkpt>
      <trkpt lat="43.445545" lon="-5.584449">
        <ele>657.0</ele>
        <time>2021-02-14T11:11:16Z</time>
      </trkpt>
      <trkpt lat="43.445534" lon="-5.5844436">
        <ele>657.0</ele>
        <time>2021-02-14T11:11:17Z</time>
      </trkpt>
      <trkpt lat="43.445526" lon="-5.584442">
        <ele>657.0</ele>
        <time>2021-02-14T11:11:18Z</time>
      </trkpt>
      <trkpt lat="43.445515" lon="-5.5844417">
        <ele>657.0</ele>
        <time>2021-02-14T11:11:19Z</time>
      </trkpt>
      <trkpt lat="43.445503" lon="-5.5844417">
        <ele>657.0</ele>
        <time>2021-02-14T11:11:20Z</time>
      </trkpt>
      <trkpt lat="43.445496" lon="-5.58444">
        <ele>657.0</ele>
        <time>2021-02-14T11:11:21Z</time>
      </trkpt>
      <trkpt lat="43.445484" lon="-5.5844393">
        <ele>657.0</ele>
        <time>2021-02-14T11:11:22Z</time>
      </trkpt>
      <trkpt lat="43.445473" lon="-5.5844383">
        <ele>656.0</ele>
        <time>2021-02-14T11:11:23Z</time>
      </trkpt>
      <trkpt lat="43.44546" lon="-5.5844383">
        <ele>656.0</ele>
        <time>2021-02-14T11:11:24Z</time>
      </trkpt>
      <trkpt lat="43.445454" lon="-5.584438">
        <ele>656.0</ele>
        <time>2021-02-14T11:11:25Z</time>
      </trkpt>
      <trkpt lat="43.445442" lon="-5.5844398">
        <ele>656.0</ele>
        <time>2021-02-14T11:11:26Z</time>
      </trkpt>
      <trkpt lat="43.44543" lon="-5.584445">
        <ele>656.0</ele>
        <time>2021-02-14T11:11:27Z</time>
      </trkpt>
      <trkpt lat="43.445423" lon="-5.584449">
        <ele>656.0</ele>
        <time>2021-02-14T11:11:28Z</time>
      </trkpt>
      <trkpt lat="43.445415" lon="-5.5844526">
        <ele>656.0</ele>
        <time>2021-02-14T11:11:29Z</time>
      </trkpt>
      <trkpt lat="43.445408" lon="-5.5844564">
        <ele>656.0</ele>
        <time>2021-02-14T11:11:30Z</time>
      </trkpt>
      <trkpt lat="43.4454" lon="-5.5844593">
        <ele>656.0</ele>
        <time>2021-02-14T11:11:31Z</time>
      </trkpt>
      <trkpt lat="43.445393" lon="-5.584462">
        <ele>656.0</ele>
        <time>2021-02-14T11:11:32Z</time>
      </trkpt>
      <trkpt lat="43.44538" lon="-5.5844636">
        <ele>656.0</ele>
        <time>2021-02-14T11:11:33Z</time>
      </trkpt>
      <trkpt lat="43.445377" lon="-5.5844646">
        <ele>656.0</ele>
        <time>2021-02-14T11:11:34Z</time>
      </trkpt>
      <trkpt lat="43.445366" lon="-5.5844665">
        <ele>656.0</ele>
        <time>2021-02-14T11:11:35Z</time>
      </trkpt>
      <trkpt lat="43.44535" lon="-5.5844693">
        <ele>656.0</ele>
        <time>2021-02-14T11:11:37Z</time>
      </trkpt>
      <trkpt lat="43.44535" lon="-5.584474">
        <ele>656.0</ele>
        <time>2021-02-14T11:11:41Z</time>
      </trkpt>
      <trkpt lat="43.445347" lon="-5.584471">
        <ele>656.0</ele>
        <time>2021-02-14T11:11:43Z</time>
      </trkpt>
      <trkpt lat="43.445347" lon="-5.584472">
        <ele>656.0</ele>
        <time>2021-02-14T11:11:45Z</time>
      </trkpt>
      <trkpt lat="43.44535" lon="-5.5844755">
        <ele>656.0</ele>
        <time>2021-02-14T11:11:48Z</time>
      </trkpt>
      <trkpt lat="43.44535" lon="-5.584476">
        <ele>656.0</ele>
        <time>2021-02-14T11:11:49Z</time>
      </trkpt>
      <trkpt lat="43.445347" lon="-5.5844755">
        <ele>656.0</ele>
        <time>2021-02-14T11:11:57Z</time>
      </trkpt>
      <trkpt lat="43.44534" lon="-5.584475">
        <ele>656.0</ele>
        <time>2021-02-14T11:11:58Z</time>
      </trkpt>
      <trkpt lat="43.445335" lon="-5.584475">
        <ele>656.0</ele>
        <time>2021-02-14T11:11:59Z</time>
      </trkpt>
      <trkpt lat="43.445324" lon="-5.584474">
        <ele>656.0</ele>
        <time>2021-02-14T11:12:00Z</time>
      </trkpt>
      <trkpt lat="43.445316" lon="-5.5844717">
        <ele>656.0</ele>
        <time>2021-02-14T11:12:01Z</time>
      </trkpt>
      <trkpt lat="43.445305" lon="-5.5844693">
        <ele>656.0</ele>
        <time>2021-02-14T11:12:02Z</time>
      </trkpt>
      <trkpt lat="43.445293" lon="-5.5844665">
        <ele>656.0</ele>
        <time>2021-02-14T11:12:03Z</time>
      </trkpt>
      <trkpt lat="43.445282" lon="-5.5844665">
        <ele>656.0</ele>
        <time>2021-02-14T11:12:04Z</time>
      </trkpt>
      <trkpt lat="43.445267" lon="-5.5844684">
        <ele>656.0</ele>
        <time>2021-02-14T11:12:05Z</time>
      </trkpt>
      <trkpt lat="43.44525" lon="-5.584474">
        <ele>656.0</ele>
        <time>2021-02-14T11:12:06Z</time>
      </trkpt>
      <trkpt lat="43.445236" lon="-5.5844817">
        <ele>656.0</ele>
        <time>2021-02-14T11:12:07Z</time>
      </trkpt>
      <trkpt lat="43.44522" lon="-5.5844903">
        <ele>656.0</ele>
        <time>2021-02-14T11:12:08Z</time>
      </trkpt>
      <trkpt lat="43.445206" lon="-5.5844965">
        <ele>656.0</ele>
        <time>2021-02-14T11:12:09Z</time>
      </trkpt>
      <trkpt lat="43.445198" lon="-5.584503">
        <ele>656.0</ele>
        <time>2021-02-14T11:12:10Z</time>
      </trkpt>
      <trkpt lat="43.445183" lon="-5.5845094">
        <ele>656.0</ele>
        <time>2021-02-14T11:12:11Z</time>
      </trkpt>
      <trkpt lat="43.44517" lon="-5.5845146">
        <ele>656.0</ele>
        <time>2021-02-14T11:12:12Z</time>
      </trkpt>
      <trkpt lat="43.44516" lon="-5.5845184">
        <ele>656.0</ele>
        <time>2021-02-14T11:12:13Z</time>
      </trkpt>
      <trkpt lat="43.445152" lon="-5.584518">
        <ele>656.0</ele>
        <time>2021-02-14T11:12:14Z</time>
      </trkpt>
      <trkpt lat="43.44514" lon="-5.584513">
        <ele>656.0</ele>
        <time>2021-02-14T11:12:15Z</time>
      </trkpt>
      <trkpt lat="43.44513" lon="-5.5845094">
        <ele>656.0</ele>
        <time>2021-02-14T11:12:16Z</time>
      </trkpt>
      <trkpt lat="43.44512" lon="-5.5845094">
        <ele>656.0</ele>
        <time>2021-02-14T11:12:17Z</time>
      </trkpt>
      <trkpt lat="43.445114" lon="-5.5845113">
        <ele>656.0</ele>
        <time>2021-02-14T11:12:18Z</time>
      </trkpt>
      <trkpt lat="43.445107" lon="-5.584513">
        <ele>656.0</ele>
        <time>2021-02-14T11:12:19Z</time>
      </trkpt>
      <trkpt lat="43.445095" lon="-5.5845113">
        <ele>656.0</ele>
        <time>2021-02-14T11:12:20Z</time>
      </trkpt>
      <trkpt lat="43.44508" lon="-5.584508">
        <ele>656.0</ele>
        <time>2021-02-14T11:12:21Z</time>
      </trkpt>
      <trkpt lat="43.445065" lon="-5.5845056">
        <ele>656.0</ele>
        <time>2021-02-14T11:12:22Z</time>
      </trkpt>
      <trkpt lat="43.445053" lon="-5.584505">
        <ele>656.0</ele>
        <time>2021-02-14T11:12:23Z</time>
      </trkpt>
      <trkpt lat="43.445038" lon="-5.584505">
        <ele>656.0</ele>
        <time>2021-02-14T11:12:24Z</time>
      </trkpt>
      <trkpt lat="43.445026" lon="-5.584505">
        <ele>654.0</ele>
        <time>2021-02-14T11:12:25Z</time>
      </trkpt>
      <trkpt lat="43.44502" lon="-5.584505">
        <ele>654.0</ele>
        <time>2021-02-14T11:12:26Z</time>
      </trkpt>
      <trkpt lat="43.445007" lon="-5.584507">
        <ele>654.0</ele>
        <time>2021-02-14T11:12:27Z</time>
      </trkpt>
      <trkpt lat="43.444996" lon="-5.58451">
        <ele>654.0</ele>
        <time>2021-02-14T11:12:28Z</time>
      </trkpt>
      <trkpt lat="43.444992" lon="-5.584514">
        <ele>654.0</ele>
        <time>2021-02-14T11:12:29Z</time>
      </trkpt>
      <trkpt lat="43.44498" lon="-5.5845184">
        <ele>654.0</ele>
        <time>2021-02-14T11:12:30Z</time>
      </trkpt>
      <trkpt lat="43.444973" lon="-5.5845227">
        <ele>654.0</ele>
        <time>2021-02-14T11:12:31Z</time>
      </trkpt>
      <trkpt lat="43.444958" lon="-5.584524">
        <ele>654.0</ele>
        <time>2021-02-14T11:12:32Z</time>
      </trkpt>
      <trkpt lat="43.444946" lon="-5.5845227">
        <ele>654.0</ele>
        <time>2021-02-14T11:12:33Z</time>
      </trkpt>
      <trkpt lat="43.444935" lon="-5.584521">
        <ele>654.0</ele>
        <time>2021-02-14T11:12:34Z</time>
      </trkpt>
      <trkpt lat="43.444927" lon="-5.584518">
        <ele>654.0</ele>
        <time>2021-02-14T11:12:35Z</time>
      </trkpt>
      <trkpt lat="43.444916" lon="-5.5845146">
        <ele>654.0</ele>
        <time>2021-02-14T11:12:36Z</time>
      </trkpt>
      <trkpt lat="43.444904" lon="-5.584512">
        <ele>654.0</ele>
        <time>2021-02-14T11:12:37Z</time>
      </trkpt>
      <trkpt lat="43.444893" lon="-5.58451">
        <ele>654.0</ele>
        <time>2021-02-14T11:12:38Z</time>
      </trkpt>
      <trkpt lat="43.44489" lon="-5.5845094">
        <ele>654.0</ele>
        <time>2021-02-14T11:12:39Z</time>
      </trkpt>
      <trkpt lat="43.444885" lon="-5.584511">
        <ele>654.0</ele>
        <time>2021-02-14T11:12:40Z</time>
      </trkpt>
      <trkpt lat="43.444878" lon="-5.5845094">
        <ele>654.0</ele>
        <time>2021-02-14T11:12:41Z</time>
      </trkpt>
      <trkpt lat="43.44487" lon="-5.5845056">
        <ele>654.0</ele>
        <time>2021-02-14T11:12:44Z</time>
      </trkpt>
      <trkpt lat="43.44487" lon="-5.5845094">
        <ele>654.0</ele>
        <time>2021-02-14T11:12:46Z</time>
      </trkpt>
      <trkpt lat="43.44487" lon="-5.58451">
        <ele>654.0</ele>
        <time>2021-02-14T11:12:47Z</time>
      </trkpt>
      <trkpt lat="43.44487" lon="-5.5845113">
        <ele>654.0</ele>
        <time>2021-02-14T11:12:48Z</time>
      </trkpt>
      <trkpt lat="43.44487" lon="-5.5845127">
        <ele>654.0</ele>
        <time>2021-02-14T11:12:49Z</time>
      </trkpt>
      <trkpt lat="43.44487" lon="-5.584515">
        <ele>654.0</ele>
        <time>2021-02-14T11:12:50Z</time>
      </trkpt>
      <trkpt lat="43.444874" lon="-5.5845222">
        <ele>654.0</ele>
        <time>2021-02-14T11:12:57Z</time>
      </trkpt>
      <trkpt lat="43.44487" lon="-5.584526">
        <ele>654.0</ele>
        <time>2021-02-14T11:13:15Z</time>
      </trkpt>
      <trkpt lat="43.444862" lon="-5.584524">
        <ele>654.0</ele>
        <time>2021-02-14T11:13:16Z</time>
      </trkpt>
      <trkpt lat="43.444855" lon="-5.584522">
        <ele>654.0</ele>
        <time>2021-02-14T11:13:17Z</time>
      </trkpt>
      <trkpt lat="43.444847" lon="-5.584519">
        <ele>654.0</ele>
        <time>2021-02-14T11:13:18Z</time>
      </trkpt>
      <trkpt lat="43.44483" lon="-5.584513">
        <ele>654.0</ele>
        <time>2021-02-14T11:13:19Z</time>
      </trkpt>
      <trkpt lat="43.444817" lon="-5.584508">
        <ele>654.0</ele>
        <time>2021-02-14T11:13:20Z</time>
      </trkpt>
      <trkpt lat="43.4448" lon="-5.584503">
        <ele>654.0</ele>
        <time>2021-02-14T11:13:21Z</time>
      </trkpt>
      <trkpt lat="43.444794" lon="-5.5844984">
        <ele>654.0</ele>
        <time>2021-02-14T11:13:22Z</time>
      </trkpt>
      <trkpt lat="43.44478" lon="-5.5844975">
        <ele>654.0</ele>
        <time>2021-02-14T11:13:23Z</time>
      </trkpt>
      <trkpt lat="43.444763" lon="-5.584498">
        <ele>654.0</ele>
        <time>2021-02-14T11:13:23Z</time>
      </trkpt>
      <trkpt lat="43.444748" lon="-5.5844946">
        <ele>654.0</ele>
        <time>2021-02-14T11:13:24Z</time>
      </trkpt>
      <trkpt lat="43.444736" lon="-5.584491">
        <ele>654.0</ele>
        <time>2021-02-14T11:13:25Z</time>
      </trkpt>
      <trkpt lat="43.444725" lon="-5.584488">
        <ele>654.0</ele>
        <time>2021-02-14T11:13:26Z</time>
      </trkpt>
      <trkpt lat="43.444717" lon="-5.584485">
        <ele>654.0</ele>
        <time>2021-02-14T11:13:27Z</time>
      </trkpt>
      <trkpt lat="43.444706" lon="-5.5844827">
        <ele>654.0</ele>
        <time>2021-02-14T11:13:28Z</time>
      </trkpt>
      <trkpt lat="43.444695" lon="-5.5844793">
        <ele>654.0</ele>
        <time>2021-02-14T11:13:29Z</time>
      </trkpt>
      <trkpt lat="43.444683" lon="-5.584475">
        <ele>654.0</ele>
        <time>2021-02-14T11:13:30Z</time>
      </trkpt>
      <trkpt lat="43.444675" lon="-5.58447">
        <ele>654.0</ele>
        <time>2021-02-14T11:13:31Z</time>
      </trkpt>
      <trkpt lat="43.444664" lon="-5.584466">
        <ele>654.0</ele>
        <time>2021-02-14T11:13:32Z</time>
      </trkpt>
      <trkpt lat="43.44466" lon="-5.5844626">
        <ele>654.0</ele>
        <time>2021-02-14T11:13:33Z</time>
      </trkpt>
      <trkpt lat="43.44465" lon="-5.5844584">
        <ele>654.0</ele>
        <time>2021-02-14T11:13:34Z</time>
      </trkpt>
      <trkpt lat="43.444637" lon="-5.5844545">
        <ele>654.0</ele>
        <time>2021-02-14T11:13:35Z</time>
      </trkpt>
      <trkpt lat="43.444633" lon="-5.58445">
        <ele>654.0</ele>
        <time>2021-02-14T11:13:36Z</time>
      </trkpt>
      <trkpt lat="43.444622" lon="-5.584444">
        <ele>654.0</ele>
        <time>2021-02-14T11:13:37Z</time>
      </trkpt>
      <trkpt lat="43.444614" lon="-5.5844364">
        <ele>654.0</ele>
        <time>2021-02-14T11:13:38Z</time>
      </trkpt>
      <trkpt lat="43.444607" lon="-5.5844283">
        <ele>654.0</ele>
        <time>2021-02-14T11:13:39Z</time>
      </trkpt>
      <trkpt lat="43.4446" lon="-5.584419">
        <ele>654.0</ele>
        <time>2021-02-14T11:13:40Z</time>
      </trkpt>
      <trkpt lat="43.44459" lon="-5.5844088">
        <ele>654.0</ele>
        <time>2021-02-14T11:13:41Z</time>
      </trkpt>
      <trkpt lat="43.444584" lon="-5.584401">
        <ele>654.0</ele>
        <time>2021-02-14T11:13:42Z</time>
      </trkpt>
      <trkpt lat="43.444576" lon="-5.5843954">
        <ele>652.0</ele>
        <time>2021-02-14T11:13:43Z</time>
      </trkpt>
      <trkpt lat="43.44457" lon="-5.5843883">
        <ele>652.0</ele>
        <time>2021-02-14T11:13:44Z</time>
      </trkpt>
      <trkpt lat="43.44456" lon="-5.58438">
        <ele>652.0</ele>
        <time>2021-02-14T11:13:45Z</time>
      </trkpt>
      <trkpt lat="43.444553" lon="-5.584371">
        <ele>652.0</ele>
        <time>2021-02-14T11:13:46Z</time>
      </trkpt>
      <trkpt lat="43.444546" lon="-5.584362">
        <ele>652.0</ele>
        <time>2021-02-14T11:13:47Z</time>
      </trkpt>
      <trkpt lat="43.44454" lon="-5.5843534">
        <ele>652.0</ele>
        <time>2021-02-14T11:13:48Z</time>
      </trkpt>
      <trkpt lat="43.44453" lon="-5.5843463">
        <ele>652.0</ele>
        <time>2021-02-14T11:13:49Z</time>
      </trkpt>
      <trkpt lat="43.444523" lon="-5.5843415">
        <ele>652.0</ele>
        <time>2021-02-14T11:13:50Z</time>
      </trkpt>
      <trkpt lat="43.44451" lon="-5.5843377">
        <ele>652.0</ele>
        <time>2021-02-14T11:13:51Z</time>
      </trkpt>
      <trkpt lat="43.4445" lon="-5.584334">
        <ele>652.0</ele>
        <time>2021-02-14T11:13:52Z</time>
      </trkpt>
      <trkpt lat="43.444496" lon="-5.5843296">
        <ele>652.0</ele>
        <time>2021-02-14T11:13:53Z</time>
      </trkpt>
      <trkpt lat="43.444485" lon="-5.5843253">
        <ele>652.0</ele>
        <time>2021-02-14T11:13:54Z</time>
      </trkpt>
      <trkpt lat="43.444473" lon="-5.5843215">
        <ele>652.0</ele>
        <time>2021-02-14T11:13:55Z</time>
      </trkpt>
      <trkpt lat="43.44447" lon="-5.5843153">
        <ele>652.0</ele>
        <time>2021-02-14T11:13:56Z</time>
      </trkpt>
      <trkpt lat="43.444458" lon="-5.5843077">
        <ele>652.0</ele>
        <time>2021-02-14T11:13:57Z</time>
      </trkpt>
      <trkpt lat="43.444454" lon="-5.5843">
        <ele>652.0</ele>
        <time>2021-02-14T11:13:58Z</time>
      </trkpt>
      <trkpt lat="43.444443" lon="-5.5842905">
        <ele>652.0</ele>
        <time>2021-02-14T11:13:59Z</time>
      </trkpt>
      <trkpt lat="43.444435" lon="-5.5842824">
        <ele>652.0</ele>
        <time>2021-02-14T11:14:00Z</time>
      </trkpt>
      <trkpt lat="43.444424" lon="-5.584273">
        <ele>652.0</ele>
        <time>2021-02-14T11:14:01Z</time>
      </trkpt>
      <trkpt lat="43.444412" lon="-5.5842648">
        <ele>652.0</ele>
        <time>2021-02-14T11:14:02Z</time>
      </trkpt>
      <trkpt lat="43.444405" lon="-5.584257">
        <ele>652.0</ele>
        <time>2021-02-14T11:14:03Z</time>
      </trkpt>
      <trkpt lat="43.444397" lon="-5.5842524">
        <ele>652.0</ele>
        <time>2021-02-14T11:14:04Z</time>
      </trkpt>
      <trkpt lat="43.44439" lon="-5.5842485">
        <ele>652.0</ele>
        <time>2021-02-14T11:14:05Z</time>
      </trkpt>
      <trkpt lat="43.444378" lon="-5.584244">
        <ele>652.0</ele>
        <time>2021-02-14T11:14:06Z</time>
      </trkpt>
      <trkpt lat="43.444366" lon="-5.584238">
        <ele>652.0</ele>
        <time>2021-02-14T11:14:07Z</time>
      </trkpt>
      <trkpt lat="43.444363" lon="-5.5842323">
        <ele>652.0</ele>
        <time>2021-02-14T11:14:08Z</time>
      </trkpt>
      <trkpt lat="43.44435" lon="-5.5842247">
        <ele>652.0</ele>
        <time>2021-02-14T11:14:09Z</time>
      </trkpt>
      <trkpt lat="43.444347" lon="-5.5842156">
        <ele>652.0</ele>
        <time>2021-02-14T11:14:10Z</time>
      </trkpt>
      <trkpt lat="43.444336" lon="-5.5842056">
        <ele>652.0</ele>
        <time>2021-02-14T11:14:11Z</time>
      </trkpt>
      <trkpt lat="43.444332" lon="-5.5841966">
        <ele>652.0</ele>
        <time>2021-02-14T11:14:12Z</time>
      </trkpt>
      <trkpt lat="43.444324" lon="-5.584184">
        <ele>652.0</ele>
        <time>2021-02-14T11:14:13Z</time>
      </trkpt>
      <trkpt lat="43.44432" lon="-5.5841722">
        <ele>652.0</ele>
        <time>2021-02-14T11:14:14Z</time>
      </trkpt>
      <trkpt lat="43.444317" lon="-5.5841618">
        <ele>652.0</ele>
        <time>2021-02-14T11:14:15Z</time>
      </trkpt>
      <trkpt lat="43.44431" lon="-5.5841517">
        <ele>652.0</ele>
        <time>2021-02-14T11:14:16Z</time>
      </trkpt>
      <trkpt lat="43.444305" lon="-5.584145">
        <ele>652.0</ele>
        <time>2021-02-14T11:14:17Z</time>
      </trkpt>
      <trkpt lat="43.444305" lon="-5.5841427">
        <ele>652.0</ele>
        <time>2021-02-14T11:14:18Z</time>
      </trkpt>
      <trkpt lat="43.444305" lon="-5.584141">
        <ele>652.0</ele>
        <time>2021-02-14T11:14:19Z</time>
      </trkpt>
      <trkpt lat="43.4443" lon="-5.5841384">
        <ele>652.0</ele>
        <time>2021-02-14T11:14:20Z</time>
      </trkpt>
      <trkpt lat="43.4443" lon="-5.584139">
        <ele>652.0</ele>
        <time>2021-02-14T11:14:21Z</time>
      </trkpt>
      <trkpt lat="43.4443" lon="-5.5841327">
        <ele>652.0</ele>
        <time>2021-02-14T11:14:23Z</time>
      </trkpt>
      <trkpt lat="43.4443" lon="-5.5841312">
        <ele>652.0</ele>
        <time>2021-02-14T11:14:24Z</time>
      </trkpt>
      <trkpt lat="43.4443" lon="-5.5841274">
        <ele>652.0</ele>
        <time>2021-02-14T11:14:25Z</time>
      </trkpt>
      <trkpt lat="43.4443" lon="-5.584124">
        <ele>652.0</ele>
        <time>2021-02-14T11:14:26Z</time>
      </trkpt>
      <trkpt lat="43.4443" lon="-5.58412">
        <ele>652.0</ele>
        <time>2021-02-14T11:14:28Z</time>
      </trkpt>
      <trkpt lat="43.444294" lon="-5.5841203">
        <ele>652.0</ele>
        <time>2021-02-14T11:14:29Z</time>
      </trkpt>
      <trkpt lat="43.44429" lon="-5.584122">
        <ele>652.0</ele>
        <time>2021-02-14T11:14:30Z</time>
      </trkpt>
      <trkpt lat="43.444286" lon="-5.5841227">
        <ele>652.0</ele>
        <time>2021-02-14T11:14:31Z</time>
      </trkpt>
      <trkpt lat="43.444275" lon="-5.584124">
        <ele>652.0</ele>
        <time>2021-02-14T11:14:32Z</time>
      </trkpt>
      <trkpt lat="43.44427" lon="-5.5841255">
        <ele>652.0</ele>
        <time>2021-02-14T11:14:33Z</time>
      </trkpt>
      <trkpt lat="43.444256" lon="-5.584124">
        <ele>652.0</ele>
        <time>2021-02-14T11:14:34Z</time>
      </trkpt>
      <trkpt lat="43.44425" lon="-5.5841227">
        <ele>652.0</ele>
        <time>2021-02-14T11:14:35Z</time>
      </trkpt>
      <trkpt lat="43.44424" lon="-5.5841208">
        <ele>652.0</ele>
        <time>2021-02-14T11:14:36Z</time>
      </trkpt>
      <trkpt lat="43.44423" lon="-5.5841184">
        <ele>652.0</ele>
        <time>2021-02-14T11:14:37Z</time>
      </trkpt>
      <trkpt lat="43.444218" lon="-5.584114">
        <ele>652.0</ele>
        <time>2021-02-14T11:14:38Z</time>
      </trkpt>
      <trkpt lat="43.44421" lon="-5.584109">
        <ele>652.0</ele>
        <time>2021-02-14T11:14:39Z</time>
      </trkpt>
      <trkpt lat="43.44418" lon="-5.5840793">
        <ele>652.0</ele>
        <time>2021-02-14T11:14:41Z</time>
      </trkpt>
      <trkpt lat="43.44418" lon="-5.584077">
        <ele>652.0</ele>
        <time>2021-02-14T11:14:42Z</time>
      </trkpt>
      <trkpt lat="43.44417" lon="-5.5840697">
        <ele>654.0</ele>
        <time>2021-02-14T11:14:43Z</time>
      </trkpt>
      <trkpt lat="43.444168" lon="-5.584062">
        <ele>654.0</ele>
        <time>2021-02-14T11:14:44Z</time>
      </trkpt>
      <trkpt lat="43.444164" lon="-5.584055">
        <ele>654.0</ele>
        <time>2021-02-14T11:14:45Z</time>
      </trkpt>
      <trkpt lat="43.444157" lon="-5.5840507">
        <ele>654.0</ele>
        <time>2021-02-14T11:14:46Z</time>
      </trkpt>
      <trkpt lat="43.44415" lon="-5.584046">
        <ele>654.0</ele>
        <time>2021-02-14T11:14:47Z</time>
      </trkpt>
      <trkpt lat="43.444138" lon="-5.584041">
        <ele>654.0</ele>
        <time>2021-02-14T11:14:48Z</time>
      </trkpt>
      <trkpt lat="43.444126" lon="-5.5840364">
        <ele>654.0</ele>
        <time>2021-02-14T11:14:49Z</time>
      </trkpt>
      <trkpt lat="43.444115" lon="-5.5840316">
        <ele>654.0</ele>
        <time>2021-02-14T11:14:50Z</time>
      </trkpt>
      <trkpt lat="43.444107" lon="-5.5840273">
        <ele>654.0</ele>
        <time>2021-02-14T11:14:51Z</time>
      </trkpt>
      <trkpt lat="43.4441" lon="-5.5840235">
        <ele>655.0</ele>
        <time>2021-02-14T11:14:52Z</time>
      </trkpt>
      <trkpt lat="43.44409" lon="-5.5840206">
        <ele>655.0</ele>
        <time>2021-02-14T11:14:53Z</time>
      </trkpt>
      <trkpt lat="43.44408" lon="-5.584015">
        <ele>655.0</ele>
        <time>2021-02-14T11:14:54Z</time>
      </trkpt>
      <trkpt lat="43.44407" lon="-5.5840116">
        <ele>655.0</ele>
        <time>2021-02-14T11:14:55Z</time>
      </trkpt>
      <trkpt lat="43.44406" lon="-5.5840073">
        <ele>655.0</ele>
        <time>2021-02-14T11:14:56Z</time>
      </trkpt>
      <trkpt lat="43.444054" lon="-5.584">
        <ele>655.0</ele>
        <time>2021-02-14T11:14:57Z</time>
      </trkpt>
      <trkpt lat="43.444046" lon="-5.5839925">
        <ele>655.0</ele>
        <time>2021-02-14T11:14:58Z</time>
      </trkpt>
      <trkpt lat="43.444035" lon="-5.5839853">
        <ele>655.0</ele>
        <time>2021-02-14T11:14:59Z</time>
      </trkpt>
      <trkpt lat="43.444023" lon="-5.5839787">
        <ele>655.0</ele>
        <time>2021-02-14T11:15:00Z</time>
      </trkpt>
      <trkpt lat="43.444016" lon="-5.583972">
        <ele>655.0</ele>
        <time>2021-02-14T11:15:01Z</time>
      </trkpt>
      <trkpt lat="43.444004" lon="-5.5839653">
        <ele>655.0</ele>
        <time>2021-02-14T11:15:02Z</time>
      </trkpt>
      <trkpt lat="43.444" lon="-5.583961">
        <ele>655.0</ele>
        <time>2021-02-14T11:15:03Z</time>
      </trkpt>
      <trkpt lat="43.44399" lon="-5.5839605">
        <ele>655.0</ele>
        <time>2021-02-14T11:15:04Z</time>
      </trkpt>
      <trkpt lat="43.443977" lon="-5.583965">
        <ele>655.0</ele>
        <time>2021-02-14T11:15:05Z</time>
      </trkpt>
      <trkpt lat="43.443974" lon="-5.583967">
        <ele>655.0</ele>
        <time>2021-02-14T11:15:06Z</time>
      </trkpt>
      <trkpt lat="43.443962" lon="-5.5839725">
        <ele>655.0</ele>
        <time>2021-02-14T11:15:07Z</time>
      </trkpt>
      <trkpt lat="43.443954" lon="-5.583974">
        <ele>655.0</ele>
        <time>2021-02-14T11:15:08Z</time>
      </trkpt>
      <trkpt lat="43.443947" lon="-5.583973">
        <ele>655.0</ele>
        <time>2021-02-14T11:15:09Z</time>
      </trkpt>
      <trkpt lat="43.443935" lon="-5.5839705">
        <ele>655.0</ele>
        <time>2021-02-14T11:15:10Z</time>
      </trkpt>
      <trkpt lat="43.443928" lon="-5.5839653">
        <ele>655.0</ele>
        <time>2021-02-14T11:15:11Z</time>
      </trkpt>
      <trkpt lat="43.44392" lon="-5.5839596">
        <ele>655.0</ele>
        <time>2021-02-14T11:15:12Z</time>
      </trkpt>
      <trkpt lat="43.443913" lon="-5.5839524">
        <ele>655.0</ele>
        <time>2021-02-14T11:15:13Z</time>
      </trkpt>
      <trkpt lat="43.443905" lon="-5.583945">
        <ele>655.0</ele>
        <time>2021-02-14T11:15:14Z</time>
      </trkpt>
      <trkpt lat="43.443897" lon="-5.5839353">
        <ele>655.0</ele>
        <time>2021-02-14T11:15:15Z</time>
      </trkpt>
      <trkpt lat="43.44389" lon="-5.5839276">
        <ele>655.0</ele>
        <time>2021-02-14T11:15:16Z</time>
      </trkpt>
      <trkpt lat="43.443886" lon="-5.5839214">
        <ele>655.0</ele>
        <time>2021-02-14T11:15:17Z</time>
      </trkpt>
      <trkpt lat="43.443882" lon="-5.583916">
        <ele>655.0</ele>
        <time>2021-02-14T11:15:18Z</time>
      </trkpt>
      <trkpt lat="43.443882" lon="-5.5839105">
        <ele>655.0</ele>
        <time>2021-02-14T11:15:19Z</time>
      </trkpt>
      <trkpt lat="43.443874" lon="-5.5839">
        <ele>655.0</ele>
        <time>2021-02-14T11:15:20Z</time>
      </trkpt>
      <trkpt lat="43.443874" lon="-5.58389">
        <ele>655.0</ele>
        <time>2021-02-14T11:15:21Z</time>
      </trkpt>
      <trkpt lat="43.44387" lon="-5.583883">
        <ele>655.0</ele>
        <time>2021-02-14T11:15:22Z</time>
      </trkpt>
      <trkpt lat="43.443867" lon="-5.5838785">
        <ele>655.0</ele>
        <time>2021-02-14T11:15:23Z</time>
      </trkpt>
      <trkpt lat="43.443855" lon="-5.5838766">
        <ele>655.0</ele>
        <time>2021-02-14T11:15:24Z</time>
      </trkpt>
      <trkpt lat="43.44385" lon="-5.583877">
        <ele>655.0</ele>
        <time>2021-02-14T11:15:25Z</time>
      </trkpt>
      <trkpt lat="43.44384" lon="-5.583879">
        <ele>655.0</ele>
        <time>2021-02-14T11:15:26Z</time>
      </trkpt>
      <trkpt lat="43.44383" lon="-5.583883">
        <ele>655.0</ele>
        <time>2021-02-14T11:15:27Z</time>
      </trkpt>
      <trkpt lat="43.44382" lon="-5.5838823">
        <ele>655.0</ele>
        <time>2021-02-14T11:15:28Z</time>
      </trkpt>
      <trkpt lat="43.44381" lon="-5.583881">
        <ele>655.0</ele>
        <time>2021-02-14T11:15:29Z</time>
      </trkpt>
      <trkpt lat="43.443798" lon="-5.5838804">
        <ele>655.0</ele>
        <time>2021-02-14T11:15:30Z</time>
      </trkpt>
      <trkpt lat="43.44379" lon="-5.5838795">
        <ele>655.0</ele>
        <time>2021-02-14T11:15:31Z</time>
      </trkpt>
      <trkpt lat="43.44378" lon="-5.5838766">
        <ele>655.0</ele>
        <time>2021-02-14T11:15:32Z</time>
      </trkpt>
      <trkpt lat="43.443768" lon="-5.5838695">
        <ele>655.0</ele>
        <time>2021-02-14T11:15:33Z</time>
      </trkpt>
      <trkpt lat="43.44376" lon="-5.5838637">
        <ele>655.0</ele>
        <time>2021-02-14T11:15:34Z</time>
      </trkpt>
      <trkpt lat="43.44375" lon="-5.5838604">
        <ele>655.0</ele>
        <time>2021-02-14T11:15:35Z</time>
      </trkpt>
      <trkpt lat="43.443733" lon="-5.58386">
        <ele>655.0</ele>
        <time>2021-02-14T11:15:36Z</time>
      </trkpt>
      <trkpt lat="43.44372" lon="-5.583859">
        <ele>655.0</ele>
        <time>2021-02-14T11:15:37Z</time>
      </trkpt>
      <trkpt lat="43.44371" lon="-5.5838585">
        <ele>655.0</ele>
        <time>2021-02-14T11:15:38Z</time>
      </trkpt>
      <trkpt lat="43.443703" lon="-5.5838585">
        <ele>655.0</ele>
        <time>2021-02-14T11:15:39Z</time>
      </trkpt>
      <trkpt lat="43.443695" lon="-5.5838566">
        <ele>655.0</ele>
        <time>2021-02-14T11:15:40Z</time>
      </trkpt>
      <trkpt lat="43.443687" lon="-5.5838532">
        <ele>655.0</ele>
        <time>2021-02-14T11:15:41Z</time>
      </trkpt>
      <trkpt lat="43.443676" lon="-5.583851">
        <ele>655.0</ele>
        <time>2021-02-14T11:15:42Z</time>
      </trkpt>
      <trkpt lat="43.443665" lon="-5.5838485">
        <ele>655.0</ele>
        <time>2021-02-14T11:15:43Z</time>
      </trkpt>
      <trkpt lat="43.443657" lon="-5.583847">
        <ele>655.0</ele>
        <time>2021-02-14T11:15:44Z</time>
      </trkpt>
      <trkpt lat="43.443645" lon="-5.5838447">
        <ele>655.0</ele>
        <time>2021-02-14T11:15:45Z</time>
      </trkpt>
      <trkpt lat="43.443634" lon="-5.583843">
        <ele>655.0</ele>
        <time>2021-02-14T11:15:46Z</time>
      </trkpt>
      <trkpt lat="43.443626" lon="-5.5838413">
        <ele>655.0</ele>
        <time>2021-02-14T11:15:47Z</time>
      </trkpt>
      <trkpt lat="43.443615" lon="-5.58384">
        <ele>655.0</ele>
        <time>2021-02-14T11:15:48Z</time>
      </trkpt>
      <trkpt lat="43.443604" lon="-5.583839">
        <ele>655.0</ele>
        <time>2021-02-14T11:15:49Z</time>
      </trkpt>
      <trkpt lat="43.443596" lon="-5.5838375">
        <ele>655.0</ele>
        <time>2021-02-14T11:15:50Z</time>
      </trkpt>
      <trkpt lat="43.443584" lon="-5.583834">
        <ele>655.0</ele>
        <time>2021-02-14T11:15:51Z</time>
      </trkpt>
      <trkpt lat="43.443573" lon="-5.5838327">
        <ele>655.0</ele>
        <time>2021-02-14T11:15:52Z</time>
      </trkpt>
      <trkpt lat="43.443565" lon="-5.583832">
        <ele>655.0</ele>
        <time>2021-02-14T11:15:53Z</time>
      </trkpt>
      <trkpt lat="43.443554" lon="-5.583832">
        <ele>655.0</ele>
        <time>2021-02-14T11:15:54Z</time>
      </trkpt>
      <trkpt lat="43.443546" lon="-5.5838327">
        <ele>655.0</ele>
        <time>2021-02-14T11:15:55Z</time>
      </trkpt>
      <trkpt lat="43.44354" lon="-5.5838346">
        <ele>655.0</ele>
        <time>2021-02-14T11:15:56Z</time>
      </trkpt>
      <trkpt lat="43.443527" lon="-5.583838">
        <ele>655.0</ele>
        <time>2021-02-14T11:15:58Z</time>
      </trkpt>
      <trkpt lat="43.443527" lon="-5.5838375">
        <ele>655.0</ele>
        <time>2021-02-14T11:15:59Z</time>
      </trkpt>
      <trkpt lat="43.443527" lon="-5.5838346">
        <ele>655.0</ele>
        <time>2021-02-14T11:16:00Z</time>
      </trkpt>
      <trkpt lat="43.443523" lon="-5.583832">
        <ele>657.0</ele>
        <time>2021-02-14T11:16:01Z</time>
      </trkpt>
      <trkpt lat="43.443512" lon="-5.583828">
        <ele>657.0</ele>
        <time>2021-02-14T11:16:02Z</time>
      </trkpt>
      <trkpt lat="43.4435" lon="-5.583826">
        <ele>657.0</ele>
        <time>2021-02-14T11:16:03Z</time>
      </trkpt>
      <trkpt lat="43.443493" lon="-5.583827">
        <ele>657.0</ele>
        <time>2021-02-14T11:16:04Z</time>
      </trkpt>
      <trkpt lat="43.44348" lon="-5.583829">
        <ele>657.0</ele>
        <time>2021-02-14T11:16:05Z</time>
      </trkpt>
      <trkpt lat="43.443478" lon="-5.5838304">
        <ele>657.0</ele>
        <time>2021-02-14T11:16:06Z</time>
      </trkpt>
      <trkpt lat="43.443466" lon="-5.583832">
        <ele>657.0</ele>
        <time>2021-02-14T11:16:07Z</time>
      </trkpt>
      <trkpt lat="43.443462" lon="-5.5838327">
        <ele>657.0</ele>
        <time>2021-02-14T11:16:08Z</time>
      </trkpt>
      <trkpt lat="43.44345" lon="-5.5838346">
        <ele>657.0</ele>
        <time>2021-02-14T11:16:09Z</time>
      </trkpt>
      <trkpt lat="43.44344" lon="-5.583839">
        <ele>657.0</ele>
        <time>2021-02-14T11:16:10Z</time>
      </trkpt>
      <trkpt lat="43.44343" lon="-5.5838437">
        <ele>657.0</ele>
        <time>2021-02-14T11:16:11Z</time>
      </trkpt>
      <trkpt lat="43.443424" lon="-5.583851">
        <ele>657.0</ele>
        <time>2021-02-14T11:16:12Z</time>
      </trkpt>
      <trkpt lat="43.443417" lon="-5.583858">
        <ele>657.0</ele>
        <time>2021-02-14T11:16:13Z</time>
      </trkpt>
      <trkpt lat="43.443405" lon="-5.583865">
        <ele>658.0</ele>
        <time>2021-02-14T11:16:14Z</time>
      </trkpt>
      <trkpt lat="43.4434" lon="-5.583871">
        <ele>658.0</ele>
        <time>2021-02-14T11:16:15Z</time>
      </trkpt>
      <trkpt lat="43.443386" lon="-5.5838847">
        <ele>658.0</ele>
        <time>2021-02-14T11:16:16Z</time>
      </trkpt>
      <trkpt lat="43.443375" lon="-5.5839033">
        <ele>658.0</ele>
        <time>2021-02-14T11:16:17Z</time>
      </trkpt>
      <trkpt lat="43.443363" lon="-5.5839195">
        <ele>658.0</ele>
        <time>2021-02-14T11:16:18Z</time>
      </trkpt>
      <trkpt lat="43.44335" lon="-5.583935">
        <ele>658.0</ele>
        <time>2021-02-14T11:16:19Z</time>
      </trkpt>
      <trkpt lat="43.443344" lon="-5.5839486">
        <ele>658.0</ele>
        <time>2021-02-14T11:16:20Z</time>
      </trkpt>
      <trkpt lat="43.443333" lon="-5.5839667">
        <ele>658.0</ele>
        <time>2021-02-14T11:16:21Z</time>
      </trkpt>
      <trkpt lat="43.44332" lon="-5.5839787">
        <ele>659.0</ele>
        <time>2021-02-14T11:16:22Z</time>
      </trkpt>
      <trkpt lat="43.443306" lon="-5.5839796">
        <ele>659.0</ele>
        <time>2021-02-14T11:16:23Z</time>
      </trkpt>
      <trkpt lat="43.4433" lon="-5.5839634">
        <ele>659.0</ele>
        <time>2021-02-14T11:16:24Z</time>
      </trkpt>
      <trkpt lat="43.443275" lon="-5.5839486">
        <ele>659.0</ele>
        <time>2021-02-14T11:16:25Z</time>
      </trkpt>
      <trkpt lat="43.44326" lon="-5.5839367">
        <ele>659.0</ele>
        <time>2021-02-14T11:16:26Z</time>
      </trkpt>
      <trkpt lat="43.443245" lon="-5.5839276">
        <ele>659.0</ele>
        <time>2021-02-14T11:16:27Z</time>
      </trkpt>
      <trkpt lat="43.443226" lon="-5.5839257">
        <ele>659.0</ele>
        <time>2021-02-14T11:16:28Z</time>
      </trkpt>
      <trkpt lat="43.443207" lon="-5.583926">
        <ele>659.0</ele>
        <time>2021-02-14T11:16:29Z</time>
      </trkpt>
      <trkpt lat="43.44319" lon="-5.583929">
        <ele>659.0</ele>
        <time>2021-02-14T11:16:30Z</time>
      </trkpt>
      <trkpt lat="43.44318" lon="-5.583932">
        <ele>659.0</ele>
        <time>2021-02-14T11:16:31Z</time>
      </trkpt>
      <trkpt lat="43.443176" lon="-5.583937">
        <ele>659.0</ele>
        <time>2021-02-14T11:16:32Z</time>
      </trkpt>
      <trkpt lat="43.44317" lon="-5.58394">
        <ele>659.0</ele>
        <time>2021-02-14T11:16:33Z</time>
      </trkpt>
      <trkpt lat="43.443165" lon="-5.5839405">
        <ele>659.0</ele>
        <time>2021-02-14T11:16:34Z</time>
      </trkpt>
      <trkpt lat="43.443157" lon="-5.5839405">
        <ele>659.0</ele>
        <time>2021-02-14T11:16:35Z</time>
      </trkpt>
      <trkpt lat="43.443153" lon="-5.583943">
        <ele>660.0</ele>
        <time>2021-02-14T11:16:36Z</time>
      </trkpt>
      <trkpt lat="43.443142" lon="-5.5839486">
        <ele>660.0</ele>
        <time>2021-02-14T11:16:37Z</time>
      </trkpt>
      <trkpt lat="43.44314" lon="-5.5839577">
        <ele>660.0</ele>
        <time>2021-02-14T11:16:38Z</time>
      </trkpt>
      <trkpt lat="43.443134" lon="-5.5839663">
        <ele>660.0</ele>
        <time>2021-02-14T11:16:39Z</time>
      </trkpt>
      <trkpt lat="43.443134" lon="-5.5839725">
        <ele>660.0</ele>
        <time>2021-02-14T11:16:40Z</time>
      </trkpt>
      <trkpt lat="43.443127" lon="-5.583972">
        <ele>660.0</ele>
        <time>2021-02-14T11:16:41Z</time>
      </trkpt>
      <trkpt lat="43.44312" lon="-5.583971">
        <ele>660.0</ele>
        <time>2021-02-14T11:16:42Z</time>
      </trkpt>
      <trkpt lat="43.44311" lon="-5.58397">
        <ele>660.0</ele>
        <time>2021-02-14T11:16:43Z</time>
      </trkpt>
      <trkpt lat="43.443108" lon="-5.5839686">
        <ele>660.0</ele>
        <time>2021-02-14T11:16:44Z</time>
      </trkpt>
      <trkpt lat="43.443092" lon="-5.583956">
        <ele>661.0</ele>
        <time>2021-02-14T11:16:45Z</time>
      </trkpt>
      <trkpt lat="43.443077" lon="-5.58394">
        <ele>661.0</ele>
        <time>2021-02-14T11:16:46Z</time>
      </trkpt>
      <trkpt lat="43.44306" lon="-5.5839224">
        <ele>661.0</ele>
        <time>2021-02-14T11:16:47Z</time>
      </trkpt>
      <trkpt lat="43.443047" lon="-5.5839014">
        <ele>661.0</ele>
        <time>2021-02-14T11:16:48Z</time>
      </trkpt>
      <trkpt lat="43.44303" lon="-5.5838814">
        <ele>661.0</ele>
        <time>2021-02-14T11:16:49Z</time>
      </trkpt>
      <trkpt lat="43.44302" lon="-5.5838604">
        <ele>661.0</ele>
        <time>2021-02-14T11:16:50Z</time>
      </trkpt>
      <trkpt lat="43.443005" lon="-5.5838428">
        <ele>661.0</ele>
        <time>2021-02-14T11:16:51Z</time>
      </trkpt>
      <trkpt lat="43.442997" lon="-5.5838265">
        <ele>661.0</ele>
        <time>2021-02-14T11:16:52Z</time>
      </trkpt>
      <trkpt lat="43.442986" lon="-5.583813">
        <ele>661.0</ele>
        <time>2021-02-14T11:16:53Z</time>
      </trkpt>
      <trkpt lat="43.442974" lon="-5.583802">
        <ele>661.0</ele>
        <time>2021-02-14T11:16:54Z</time>
      </trkpt>
      <trkpt lat="43.442963" lon="-5.583794">
        <ele>661.0</ele>
        <time>2021-02-14T11:16:55Z</time>
      </trkpt>
      <trkpt lat="43.442955" lon="-5.583786">
        <ele>661.0</ele>
        <time>2021-02-14T11:16:56Z</time>
      </trkpt>
      <trkpt lat="43.44293" lon="-5.583756">
        <ele>661.0</ele>
        <time>2021-02-14T11:16:58Z</time>
      </trkpt>
      <trkpt lat="43.44293" lon="-5.5837502">
        <ele>661.0</ele>
        <time>2021-02-14T11:16:59Z</time>
      </trkpt>
      <trkpt lat="43.442917" lon="-5.5837398">
        <ele>661.0</ele>
        <time>2021-02-14T11:17:00Z</time>
      </trkpt>
      <trkpt lat="43.44291" lon="-5.583733">
        <ele>661.0</ele>
        <time>2021-02-14T11:17:01Z</time>
      </trkpt>
      <trkpt lat="43.442894" lon="-5.583726">
        <ele>661.0</ele>
        <time>2021-02-14T11:17:02Z</time>
      </trkpt>
      <trkpt lat="43.442883" lon="-5.5837173">
        <ele>661.0</ele>
        <time>2021-02-14T11:17:03Z</time>
      </trkpt>
      <trkpt lat="43.44287" lon="-5.583709">
        <ele>661.0</ele>
        <time>2021-02-14T11:17:04Z</time>
      </trkpt>
      <trkpt lat="43.442867" lon="-5.5836997">
        <ele>661.0</ele>
        <time>2021-02-14T11:17:05Z</time>
      </trkpt>
      <trkpt lat="43.442856" lon="-5.583693">
        <ele>661.0</ele>
        <time>2021-02-14T11:17:06Z</time>
      </trkpt>
      <trkpt lat="43.44285" lon="-5.583685">
        <ele>661.0</ele>
        <time>2021-02-14T11:17:07Z</time>
      </trkpt>
      <trkpt lat="43.442837" lon="-5.58368">
        <ele>661.0</ele>
        <time>2021-02-14T11:17:08Z</time>
      </trkpt>
      <trkpt lat="43.442825" lon="-5.5836782">
        <ele>661.0</ele>
        <time>2021-02-14T11:17:09Z</time>
      </trkpt>
      <trkpt lat="43.442818" lon="-5.583679">
        <ele>661.0</ele>
        <time>2021-02-14T11:17:10Z</time>
      </trkpt>
      <trkpt lat="43.442806" lon="-5.583681">
        <ele>662.0</ele>
        <time>2021-02-14T11:17:11Z</time>
      </trkpt>
      <trkpt lat="43.44279" lon="-5.5836844">
        <ele>662.0</ele>
        <time>2021-02-14T11:17:12Z</time>
      </trkpt>
      <trkpt lat="43.44278" lon="-5.5836883">
        <ele>662.0</ele>
        <time>2021-02-14T11:17:13Z</time>
      </trkpt>
      <trkpt lat="43.442776" lon="-5.5836906">
        <ele>662.0</ele>
        <time>2021-02-14T11:17:14Z</time>
      </trkpt>
      <trkpt lat="43.442764" lon="-5.58369">
        <ele>662.0</ele>
        <time>2021-02-14T11:17:15Z</time>
      </trkpt>
      <trkpt lat="43.44275" lon="-5.583686">
        <ele>662.0</ele>
        <time>2021-02-14T11:17:16Z</time>
      </trkpt>
      <trkpt lat="43.442734" lon="-5.58368">
        <ele>662.0</ele>
        <time>2021-02-14T11:17:17Z</time>
      </trkpt>
      <trkpt lat="43.442715" lon="-5.5836735">
        <ele>662.0</ele>
        <time>2021-02-14T11:17:18Z</time>
      </trkpt>
      <trkpt lat="43.44269" lon="-5.5836706">
        <ele>662.0</ele>
        <time>2021-02-14T11:17:19Z</time>
      </trkpt>
      <trkpt lat="43.44267" lon="-5.583673">
        <ele>662.0</ele>
        <time>2021-02-14T11:17:20Z</time>
      </trkpt>
      <trkpt lat="43.442654" lon="-5.5836806">
        <ele>662.0</ele>
        <time>2021-02-14T11:17:21Z</time>
      </trkpt>
      <trkpt lat="43.44264" lon="-5.5836897">
        <ele>662.0</ele>
        <time>2021-02-14T11:17:22Z</time>
      </trkpt>
      <trkpt lat="43.442627" lon="-5.5836987">
        <ele>662.0</ele>
        <time>2021-02-14T11:17:23Z</time>
      </trkpt>
      <trkpt lat="43.442616" lon="-5.583705">
        <ele>663.0</ele>
        <time>2021-02-14T11:17:24Z</time>
      </trkpt>
      <trkpt lat="43.4426" lon="-5.583709">
        <ele>663.0</ele>
        <time>2021-02-14T11:17:25Z</time>
      </trkpt>
      <trkpt lat="43.442593" lon="-5.583713">
        <ele>663.0</ele>
        <time>2021-02-14T11:17:26Z</time>
      </trkpt>
      <trkpt lat="43.442574" lon="-5.5837193">
        <ele>663.0</ele>
        <time>2021-02-14T11:17:27Z</time>
      </trkpt>
      <trkpt lat="43.442566" lon="-5.583725">
        <ele>663.0</ele>
        <time>2021-02-14T11:17:28Z</time>
      </trkpt>
      <trkpt lat="43.442554" lon="-5.5837317">
        <ele>663.0</ele>
        <time>2021-02-14T11:17:29Z</time>
      </trkpt>
      <trkpt lat="43.442543" lon="-5.5837398">
        <ele>663.0</ele>
        <time>2021-02-14T11:17:30Z</time>
      </trkpt>
      <trkpt lat="43.442528" lon="-5.5837464">
        <ele>663.0</ele>
        <time>2021-02-14T11:17:31Z</time>
      </trkpt>
      <trkpt lat="43.442513" lon="-5.583753">
        <ele>663.0</ele>
        <time>2021-02-14T11:17:32Z</time>
      </trkpt>
      <trkpt lat="43.442505" lon="-5.5837593">
        <ele>663.0</ele>
        <time>2021-02-14T11:17:33Z</time>
      </trkpt>
      <trkpt lat="43.44248" lon="-5.583836">
        <ele>665.0</ele>
        <time>2021-02-14T11:17:42Z</time>
      </trkpt>
      <trkpt lat="43.442467" lon="-5.5838437">
        <ele>665.0</ele>
        <time>2021-02-14T11:17:43Z</time>
      </trkpt>
      <trkpt lat="43.44246" lon="-5.5838475">
        <ele>665.0</ele>
        <time>2021-02-14T11:17:44Z</time>
      </trkpt>
      <trkpt lat="43.442444" lon="-5.583854">
        <ele>665.0</ele>
        <time>2021-02-14T11:17:45Z</time>
      </trkpt>
      <trkpt lat="43.44243" lon="-5.5838637">
        <ele>665.0</ele>
        <time>2021-02-14T11:17:46Z</time>
      </trkpt>
      <trkpt lat="43.442413" lon="-5.5838757">
        <ele>665.0</ele>
        <time>2021-02-14T11:17:47Z</time>
      </trkpt>
      <trkpt lat="43.4424" lon="-5.58389">
        <ele>665.0</ele>
        <time>2021-02-14T11:17:48Z</time>
      </trkpt>
      <trkpt lat="43.44239" lon="-5.583905">
        <ele>665.0</ele>
        <time>2021-02-14T11:17:49Z</time>
      </trkpt>
      <trkpt lat="43.442387" lon="-5.5839205">
        <ele>665.0</ele>
        <time>2021-02-14T11:17:50Z</time>
      </trkpt>
      <trkpt lat="43.442375" lon="-5.5839353">
        <ele>665.0</ele>
        <time>2021-02-14T11:17:51Z</time>
      </trkpt>
      <trkpt lat="43.442375" lon="-5.5839496">
        <ele>665.0</ele>
        <time>2021-02-14T11:17:52Z</time>
      </trkpt>
      <trkpt lat="43.44237" lon="-5.5839643">
        <ele>665.0</ele>
        <time>2021-02-14T11:17:53Z</time>
      </trkpt>
      <trkpt lat="43.44237" lon="-5.5839796">
        <ele>665.0</ele>
        <time>2021-02-14T11:17:54Z</time>
      </trkpt>
      <trkpt lat="43.44237" lon="-5.5839944">
        <ele>665.0</ele>
        <time>2021-02-14T11:17:55Z</time>
      </trkpt>
      <trkpt lat="43.44237" lon="-5.584008">
        <ele>666.0</ele>
        <time>2021-02-14T11:17:56Z</time>
      </trkpt>
      <trkpt lat="43.442375" lon="-5.584021">
        <ele>666.0</ele>
        <time>2021-02-14T11:17:57Z</time>
      </trkpt>
      <trkpt lat="43.442375" lon="-5.584034">
        <ele>666.0</ele>
        <time>2021-02-14T11:17:58Z</time>
      </trkpt>
      <trkpt lat="43.442375" lon="-5.5840487">
        <ele>666.0</ele>
        <time>2021-02-14T11:17:59Z</time>
      </trkpt>
      <trkpt lat="43.44238" lon="-5.5840626">
        <ele>666.0</ele>
        <time>2021-02-14T11:18:00Z</time>
      </trkpt>
      <trkpt lat="43.44238" lon="-5.584076">
        <ele>666.0</ele>
        <time>2021-02-14T11:18:01Z</time>
      </trkpt>
      <trkpt lat="43.44238" lon="-5.5840907">
        <ele>667.0</ele>
        <time>2021-02-14T11:18:02Z</time>
      </trkpt>
      <trkpt lat="43.44238" lon="-5.5841064">
        <ele>667.0</ele>
        <time>2021-02-14T11:18:03Z</time>
      </trkpt>
      <trkpt lat="43.44238" lon="-5.5841203">
        <ele>667.0</ele>
        <time>2021-02-14T11:18:04Z</time>
      </trkpt>
      <trkpt lat="43.44238" lon="-5.5841336">
        <ele>667.0</ele>
        <time>2021-02-14T11:18:05Z</time>
      </trkpt>
      <trkpt lat="43.44238" lon="-5.584148">
        <ele>667.0</ele>
        <time>2021-02-14T11:18:06Z</time>
      </trkpt>
      <trkpt lat="43.442375" lon="-5.584163">
        <ele>667.0</ele>
        <time>2021-02-14T11:18:07Z</time>
      </trkpt>
      <trkpt lat="43.442375" lon="-5.5841794">
        <ele>668.0</ele>
        <time>2021-02-14T11:18:08Z</time>
      </trkpt>
      <trkpt lat="43.442375" lon="-5.5841956">
        <ele>668.0</ele>
        <time>2021-02-14T11:18:09Z</time>
      </trkpt>
      <trkpt lat="43.44237" lon="-5.5842094">
        <ele>668.0</ele>
        <time>2021-02-14T11:18:10Z</time>
      </trkpt>
      <trkpt lat="43.442375" lon="-5.5842233">
        <ele>668.0</ele>
        <time>2021-02-14T11:18:11Z</time>
      </trkpt>
      <trkpt lat="43.442375" lon="-5.584236">
        <ele>668.0</ele>
        <time>2021-02-14T11:18:12Z</time>
      </trkpt>
      <trkpt lat="43.44238" lon="-5.5842466">
        <ele>668.0</ele>
        <time>2021-02-14T11:18:13Z</time>
      </trkpt>
      <trkpt lat="43.442387" lon="-5.584255">
        <ele>668.0</ele>
        <time>2021-02-14T11:18:14Z</time>
      </trkpt>
      <trkpt lat="43.44239" lon="-5.5842648">
        <ele>668.0</ele>
        <time>2021-02-14T11:18:15Z</time>
      </trkpt>
      <trkpt lat="43.4424" lon="-5.584273">
        <ele>668.0</ele>
        <time>2021-02-14T11:18:16Z</time>
      </trkpt>
      <trkpt lat="43.442413" lon="-5.584293">
        <ele>668.0</ele>
        <time>2021-02-14T11:18:18Z</time>
      </trkpt>
      <trkpt lat="43.442413" lon="-5.5842953">
        <ele>668.0</ele>
        <time>2021-02-14T11:18:19Z</time>
      </trkpt>
      <trkpt lat="43.442413" lon="-5.5842977">
        <ele>668.0</ele>
        <time>2021-02-14T11:18:20Z</time>
      </trkpt>
      <trkpt lat="43.442417" lon="-5.584302">
        <ele>668.0</ele>
        <time>2021-02-14T11:18:21Z</time>
      </trkpt>
      <trkpt lat="43.44242" lon="-5.5843053">
        <ele>668.0</ele>
        <time>2021-02-14T11:18:22Z</time>
      </trkpt>
      <trkpt lat="43.44242" lon="-5.5843053">
        <ele>668.0</ele>
        <time>2021-02-14T11:18:23Z</time>
      </trkpt>
      <trkpt lat="43.44242" lon="-5.584304">
        <ele>668.0</ele>
        <time>2021-02-14T11:18:24Z</time>
      </trkpt>
      <trkpt lat="43.44242" lon="-5.584302">
        <ele>668.0</ele>
        <time>2021-02-14T11:18:25Z</time>
      </trkpt>
      <trkpt lat="43.442417" lon="-5.5842996">
        <ele>668.0</ele>
        <time>2021-02-14T11:18:26Z</time>
      </trkpt>
      <trkpt lat="43.442417" lon="-5.584291">
        <ele>668.0</ele>
        <time>2021-02-14T11:18:28Z</time>
      </trkpt>
      <trkpt lat="43.442413" lon="-5.5842905">
        <ele>668.0</ele>
        <time>2021-02-14T11:18:29Z</time>
      </trkpt>
      <trkpt lat="43.442413" lon="-5.584291">
        <ele>668.0</ele>
        <time>2021-02-14T11:18:30Z</time>
      </trkpt>
      <trkpt lat="43.44242" lon="-5.5842996">
        <ele>668.0</ele>
        <time>2021-02-14T11:18:56Z</time>
      </trkpt>
      <trkpt lat="43.44243" lon="-5.5843015">
        <ele>668.0</ele>
        <time>2021-02-14T11:18:57Z</time>
      </trkpt>
      <trkpt lat="43.442432" lon="-5.584305">
        <ele>668.0</ele>
        <time>2021-02-14T11:18:58Z</time>
      </trkpt>
      <trkpt lat="43.442444" lon="-5.584311">
        <ele>668.0</ele>
        <time>2021-02-14T11:18:59Z</time>
      </trkpt>
      <trkpt lat="43.44246" lon="-5.58432">
        <ele>668.0</ele>
        <time>2021-02-14T11:19:00Z</time>
      </trkpt>
      <trkpt lat="43.442474" lon="-5.58433">
        <ele>670.0</ele>
        <time>2021-02-14T11:19:01Z</time>
      </trkpt>
      <trkpt lat="43.442482" lon="-5.5843368">
        <ele>670.0</ele>
        <time>2021-02-14T11:19:02Z</time>
      </trkpt>
      <trkpt lat="43.442497" lon="-5.5843425">
        <ele>670.0</ele>
        <time>2021-02-14T11:19:03Z</time>
      </trkpt>
      <trkpt lat="43.44251" lon="-5.5843463">
        <ele>670.0</ele>
        <time>2021-02-14T11:19:04Z</time>
      </trkpt>
      <trkpt lat="43.442524" lon="-5.584347">
        <ele>671.0</ele>
        <time>2021-02-14T11:19:05Z</time>
      </trkpt>
      <trkpt lat="43.442535" lon="-5.5843444">
        <ele>671.0</ele>
        <time>2021-02-14T11:19:06Z</time>
      </trkpt>
      <trkpt lat="43.442543" lon="-5.5843396">
        <ele>671.0</ele>
        <time>2021-02-14T11:19:07Z</time>
      </trkpt>
      <trkpt lat="43.44255" lon="-5.584333">
        <ele>671.0</ele>
        <time>2021-02-14T11:19:08Z</time>
      </trkpt>
      <trkpt lat="43.442554" lon="-5.584326">
        <ele>671.0</ele>
        <time>2021-02-14T11:19:09Z</time>
      </trkpt>
      <trkpt lat="43.442554" lon="-5.58432">
        <ele>671.0</ele>
        <time>2021-02-14T11:19:10Z</time>
      </trkpt>
      <trkpt lat="43.44257" lon="-5.5842996">
        <ele>671.0</ele>
        <time>2021-02-14T11:19:12Z</time>
      </trkpt>
      <trkpt lat="43.44257" lon="-5.584298">
        <ele>671.0</ele>
        <time>2021-02-14T11:19:13Z</time>
      </trkpt>
      <trkpt lat="43.44257" lon="-5.584297">
        <ele>671.0</ele>
        <time>2021-02-14T11:19:14Z</time>
      </trkpt>
      <trkpt lat="43.442574" lon="-5.5842957">
        <ele>671.0</ele>
        <time>2021-02-14T11:19:15Z</time>
      </trkpt>
      <trkpt lat="43.442574" lon="-5.584294">
        <ele>672.0</ele>
        <time>2021-02-14T11:19:16Z</time>
      </trkpt>
      <trkpt lat="43.442585" lon="-5.584286">
        <ele>672.0</ele>
        <time>2021-02-14T11:19:18Z</time>
      </trkpt>
      <trkpt lat="43.442585" lon="-5.5842853">
        <ele>672.0</ele>
        <time>2021-02-14T11:19:19Z</time>
      </trkpt>
      <trkpt lat="43.442585" lon="-5.5842853">
        <ele>672.0</ele>
        <time>2021-02-14T11:19:20Z</time>
      </trkpt>
      <trkpt lat="43.442593" lon="-5.5842853">
        <ele>672.0</ele>
        <time>2021-02-14T11:19:21Z</time>
      </trkpt>
      <trkpt lat="43.442596" lon="-5.584289">
        <ele>672.0</ele>
        <time>2021-02-14T11:19:30Z</time>
      </trkpt>
      <trkpt lat="43.442596" lon="-5.5842924">
        <ele>672.0</ele>
        <time>2021-02-14T11:19:31Z</time>
      </trkpt>
      <trkpt lat="43.4426" lon="-5.584299">
        <ele>672.0</ele>
        <time>2021-02-14T11:19:32Z</time>
      </trkpt>
      <trkpt lat="43.4426" lon="-5.5843096">
        <ele>672.0</ele>
        <time>2021-02-14T11:19:33Z</time>
      </trkpt>
      <trkpt lat="43.442608" lon="-5.5843205">
        <ele>672.0</ele>
        <time>2021-02-14T11:19:34Z</time>
      </trkpt>
      <trkpt lat="43.442608" lon="-5.5843315">
        <ele>672.0</ele>
        <time>2021-02-14T11:19:35Z</time>
      </trkpt>
      <trkpt lat="43.44261" lon="-5.5843406">
        <ele>672.0</ele>
        <time>2021-02-14T11:19:36Z</time>
      </trkpt>
      <trkpt lat="43.44261" lon="-5.584345">
        <ele>672.0</ele>
        <time>2021-02-14T11:19:37Z</time>
      </trkpt>
      <trkpt lat="43.44263" lon="-5.5843515">
        <ele>672.0</ele>
        <time>2021-02-14T11:19:39Z</time>
      </trkpt>
      <trkpt lat="43.44263" lon="-5.584348">
        <ele>672.0</ele>
        <time>2021-02-14T11:19:40Z</time>
      </trkpt>
      <trkpt lat="43.44263" lon="-5.5843425">
        <ele>672.0</ele>
        <time>2021-02-14T11:19:41Z</time>
      </trkpt>
      <trkpt lat="43.44263" lon="-5.584333">
        <ele>672.0</ele>
        <time>2021-02-14T11:19:42Z</time>
      </trkpt>
      <trkpt lat="43.44263" lon="-5.5843205">
        <ele>672.0</ele>
        <time>2021-02-14T11:19:43Z</time>
      </trkpt>
      <trkpt lat="43.44263" lon="-5.5843086">
        <ele>672.0</ele>
        <time>2021-02-14T11:19:44Z</time>
      </trkpt>
      <trkpt lat="43.44263" lon="-5.5842977">
        <ele>672.0</ele>
        <time>2021-02-14T11:19:45Z</time>
      </trkpt>
      <trkpt lat="43.442627" lon="-5.5842886">
        <ele>672.0</ele>
        <time>2021-02-14T11:19:46Z</time>
      </trkpt>
      <trkpt lat="43.442623" lon="-5.5842805">
        <ele>672.0</ele>
        <time>2021-02-14T11:19:47Z</time>
      </trkpt>
      <trkpt lat="43.442623" lon="-5.5842733">
        <ele>672.0</ele>
        <time>2021-02-14T11:19:48Z</time>
      </trkpt>
      <trkpt lat="43.442623" lon="-5.584268">
        <ele>672.0</ele>
        <time>2021-02-14T11:19:49Z</time>
      </trkpt>
      <trkpt lat="43.442616" lon="-5.584264">
        <ele>672.0</ele>
        <time>2021-02-14T11:19:50Z</time>
      </trkpt>
      <trkpt lat="43.442616" lon="-5.584258">
        <ele>672.0</ele>
        <time>2021-02-14T11:19:51Z</time>
      </trkpt>
      <trkpt lat="43.442623" lon="-5.5842495">
        <ele>672.0</ele>
        <time>2021-02-14T11:19:52Z</time>
      </trkpt>
      <trkpt lat="43.442623" lon="-5.584244">
        <ele>672.0</ele>
        <time>2021-02-14T11:19:53Z</time>
      </trkpt>
      <trkpt lat="43.442627" lon="-5.5842366">
        <ele>672.0</ele>
        <time>2021-02-14T11:19:54Z</time>
      </trkpt>
      <trkpt lat="43.44263" lon="-5.5842304">
        <ele>672.0</ele>
        <time>2021-02-14T11:19:55Z</time>
      </trkpt>
      <trkpt lat="43.44264" lon="-5.584226">
        <ele>672.0</ele>
        <time>2021-02-14T11:19:56Z</time>
      </trkpt>
      <trkpt lat="43.442646" lon="-5.5842247">
        <ele>672.0</ele>
        <time>2021-02-14T11:19:57Z</time>
      </trkpt>
      <trkpt lat="43.44266" lon="-5.5842247">
        <ele>672.0</ele>
        <time>2021-02-14T11:19:58Z</time>
      </trkpt>
      <trkpt lat="43.442673" lon="-5.584225">
        <ele>672.0</ele>
        <time>2021-02-14T11:19:59Z</time>
      </trkpt>
      <trkpt lat="43.442684" lon="-5.584228">
        <ele>672.0</ele>
        <time>2021-02-14T11:20:00Z</time>
      </trkpt>
      <trkpt lat="43.442688" lon="-5.584232">
        <ele>672.0</ele>
        <time>2021-02-14T11:20:01Z</time>
      </trkpt>
      <trkpt lat="43.44269" lon="-5.5842366">
        <ele>672.0</ele>
        <time>2021-02-14T11:20:02Z</time>
      </trkpt>
      <trkpt lat="43.442703" lon="-5.584242">
        <ele>672.0</ele>
        <time>2021-02-14T11:20:03Z</time>
      </trkpt>
      <trkpt lat="43.442715" lon="-5.5842457">
        <ele>672.0</ele>
        <time>2021-02-14T11:20:04Z</time>
      </trkpt>
      <trkpt lat="43.44272" lon="-5.584247">
        <ele>672.0</ele>
        <time>2021-02-14T11:20:05Z</time>
      </trkpt>
      <trkpt lat="43.44273" lon="-5.5842485">
        <ele>672.0</ele>
        <time>2021-02-14T11:20:06Z</time>
      </trkpt>
      <trkpt lat="43.442673" lon="-5.5840936">
        <ele>710.0</ele>
        <time>2021-02-14T11:35:11Z</time>
      </trkpt>
      <trkpt lat="43.442684" lon="-5.5841026">
        <ele>710.0</ele>
        <time>2021-02-14T11:35:12Z</time>
      </trkpt>
      <trkpt lat="43.4427" lon="-5.584157">
        <ele>710.0</ele>
        <time>2021-02-14T11:35:15Z</time>
      </trkpt>
      <trkpt lat="43.442688" lon="-5.584154">
        <ele>710.0</ele>
        <time>2021-02-14T11:35:15Z</time>
      </trkpt>
      <trkpt lat="43.44267" lon="-5.5841484">
        <ele>710.0</ele>
        <time>2021-02-14T11:35:16Z</time>
      </trkpt>
      <trkpt lat="43.442642" lon="-5.5841384">
        <ele>710.0</ele>
        <time>2021-02-14T11:35:17Z</time>
      </trkpt>
      <trkpt lat="43.442627" lon="-5.5841327">
        <ele>710.0</ele>
        <time>2021-02-14T11:35:19Z</time>
      </trkpt>
      <trkpt lat="43.442608" lon="-5.584131">
        <ele>710.0</ele>
        <time>2021-02-14T11:35:19Z</time>
      </trkpt>
      <trkpt lat="43.442585" lon="-5.5841312">
        <ele>710.0</ele>
        <time>2021-02-14T11:35:20Z</time>
      </trkpt>
      <trkpt lat="43.44257" lon="-5.584131">
        <ele>709.0</ele>
        <time>2021-02-14T11:35:22Z</time>
      </trkpt>
      <trkpt lat="43.442554" lon="-5.584127">
        <ele>709.0</ele>
        <time>2021-02-14T11:35:22Z</time>
      </trkpt>
      <trkpt lat="43.44254" lon="-5.584127">
        <ele>709.0</ele>
        <time>2021-02-14T11:35:23Z</time>
      </trkpt>
      <trkpt lat="43.442524" lon="-5.5841327">
        <ele>709.0</ele>
        <time>2021-02-14T11:35:24Z</time>
      </trkpt>
      <trkpt lat="43.442513" lon="-5.5841374">
        <ele>709.0</ele>
        <time>2021-02-14T11:35:25Z</time>
      </trkpt>
      <trkpt lat="43.44251" lon="-5.584142">
        <ele>709.0</ele>
        <time>2021-02-14T11:35:26Z</time>
      </trkpt>
      <trkpt lat="43.442505" lon="-5.584148">
        <ele>709.0</ele>
        <time>2021-02-14T11:35:27Z</time>
      </trkpt>
      <trkpt lat="43.442505" lon="-5.584156">
        <ele>710.0</ele>
        <time>2021-02-14T11:35:28Z</time>
      </trkpt>
      <trkpt lat="43.442543" lon="-5.5842133">
        <ele>710.0</ele>
        <time>2021-02-14T11:35:30Z</time>
      </trkpt>
      <trkpt lat="43.442543" lon="-5.5842137">
        <ele>710.0</ele>
        <time>2021-02-14T11:35:31Z</time>
      </trkpt>
      <trkpt lat="43.44255" lon="-5.584216">
        <ele>710.0</ele>
        <time>2021-02-14T11:35:32Z</time>
      </trkpt>
      <trkpt lat="43.44255" lon="-5.584218">
        <ele>710.0</ele>
        <time>2021-02-14T11:35:33Z</time>
      </trkpt>
      <trkpt lat="43.44255" lon="-5.58422">
        <ele>710.0</ele>
        <time>2021-02-14T11:35:35Z</time>
      </trkpt>
      <trkpt lat="43.442543" lon="-5.584217">
        <ele>710.0</ele>
        <time>2021-02-14T11:35:37Z</time>
      </trkpt>
      <trkpt lat="43.442543" lon="-5.5842156">
        <ele>710.0</ele>
        <time>2021-02-14T11:35:38Z</time>
      </trkpt>
      <trkpt lat="43.442543" lon="-5.5842137">
        <ele>710.0</ele>
        <time>2021-02-14T11:35:39Z</time>
      </trkpt>
      <trkpt lat="43.442543" lon="-5.5842104">
        <ele>710.0</ele>
        <time>2021-02-14T11:35:40Z</time>
      </trkpt>
      <trkpt lat="43.44254" lon="-5.584206">
        <ele>710.0</ele>
        <time>2021-02-14T11:35:41Z</time>
      </trkpt>
      <trkpt lat="43.442528" lon="-5.5842037">
        <ele>710.0</ele>
        <time>2021-02-14T11:35:42Z</time>
      </trkpt>
      <trkpt lat="43.44252" lon="-5.5842004">
        <ele>710.0</ele>
        <time>2021-02-14T11:35:43Z</time>
      </trkpt>
      <trkpt lat="43.44251" lon="-5.584197">
        <ele>710.0</ele>
        <time>2021-02-14T11:35:44Z</time>
      </trkpt>
      <trkpt lat="43.442493" lon="-5.584195">
        <ele>710.0</ele>
        <time>2021-02-14T11:35:45Z</time>
      </trkpt>
      <trkpt lat="43.442482" lon="-5.5841947">
        <ele>710.0</ele>
        <time>2021-02-14T11:35:46Z</time>
      </trkpt>
      <trkpt lat="43.442474" lon="-5.5841966">
        <ele>710.0</ele>
        <time>2021-02-14T11:35:47Z</time>
      </trkpt>
      <trkpt lat="43.442467" lon="-5.5842004">
        <ele>710.0</ele>
        <time>2021-02-14T11:35:48Z</time>
      </trkpt>
      <trkpt lat="43.442463" lon="-5.5842037">
        <ele>710.0</ele>
        <time>2021-02-14T11:35:50Z</time>
      </trkpt>
      <trkpt lat="43.44246" lon="-5.5842056">
        <ele>710.0</ele>
        <time>2021-02-14T11:35:50Z</time>
      </trkpt>
      <trkpt lat="43.442448" lon="-5.5842066">
        <ele>710.0</ele>
        <time>2021-02-14T11:35:51Z</time>
      </trkpt>
      <trkpt lat="43.442444" lon="-5.5842066">
        <ele>709.0</ele>
        <time>2021-02-14T11:35:52Z</time>
      </trkpt>
      <trkpt lat="43.442436" lon="-5.5842104">
        <ele>709.0</ele>
        <time>2021-02-14T11:35:53Z</time>
      </trkpt>
      <trkpt lat="43.442432" lon="-5.584218">
        <ele>709.0</ele>
        <time>2021-02-14T11:35:54Z</time>
      </trkpt>
      <trkpt lat="43.44243" lon="-5.584228">
        <ele>709.0</ele>
        <time>2021-02-14T11:35:55Z</time>
      </trkpt>
      <trkpt lat="43.44242" lon="-5.584238">
        <ele>709.0</ele>
        <time>2021-02-14T11:35:56Z</time>
      </trkpt>
      <trkpt lat="43.44242" lon="-5.5842476">
        <ele>709.0</ele>
        <time>2021-02-14T11:35:57Z</time>
      </trkpt>
      <trkpt lat="43.442417" lon="-5.584255">
        <ele>708.0</ele>
        <time>2021-02-14T11:35:58Z</time>
      </trkpt>
      <trkpt lat="43.442413" lon="-5.584262">
        <ele>708.0</ele>
        <time>2021-02-14T11:35:59Z</time>
      </trkpt>
      <trkpt lat="43.4424" lon="-5.5842667">
        <ele>708.0</ele>
        <time>2021-02-14T11:36:00Z</time>
      </trkpt>
      <trkpt lat="43.442394" lon="-5.5842733">
        <ele>708.0</ele>
        <time>2021-02-14T11:36:01Z</time>
      </trkpt>
      <trkpt lat="43.442387" lon="-5.5842834">
        <ele>708.0</ele>
        <time>2021-02-14T11:36:02Z</time>
      </trkpt>
      <trkpt lat="43.44238" lon="-5.584296">
        <ele>708.0</ele>
        <time>2021-02-14T11:36:03Z</time>
      </trkpt>
      <trkpt lat="43.442375" lon="-5.5843563">
        <ele>708.0</ele>
        <time>2021-02-14T11:36:05Z</time>
      </trkpt>
      <trkpt lat="43.442375" lon="-5.584359">
        <ele>708.0</ele>
        <time>2021-02-14T11:36:06Z</time>
      </trkpt>
      <trkpt lat="43.44237" lon="-5.584363">
        <ele>707.0</ele>
        <time>2021-02-14T11:36:07Z</time>
      </trkpt>
      <trkpt lat="43.44237" lon="-5.5843687">
        <ele>707.0</ele>
        <time>2021-02-14T11:36:08Z</time>
      </trkpt>
      <trkpt lat="43.44237" lon="-5.584374">
        <ele>707.0</ele>
        <time>2021-02-14T11:36:09Z</time>
      </trkpt>
      <trkpt lat="43.442364" lon="-5.584378">
        <ele>707.0</ele>
        <time>2021-02-14T11:36:10Z</time>
      </trkpt>
      <trkpt lat="43.442364" lon="-5.5843797">
        <ele>707.0</ele>
        <time>2021-02-14T11:36:11Z</time>
      </trkpt>
      <trkpt lat="43.442364" lon="-5.584382">
        <ele>707.0</ele>
        <time>2021-02-14T11:36:13Z</time>
      </trkpt>
      <trkpt lat="43.44237" lon="-5.5843844">
        <ele>707.0</ele>
        <time>2021-02-14T11:36:14Z</time>
      </trkpt>
      <trkpt lat="43.44237" lon="-5.584391">
        <ele>707.0</ele>
        <time>2021-02-14T11:36:15Z</time>
      </trkpt>
      <trkpt lat="43.44237" lon="-5.5843973">
        <ele>707.0</ele>
        <time>2021-02-14T11:36:16Z</time>
      </trkpt>
      <trkpt lat="43.44237" lon="-5.5844045">
        <ele>707.0</ele>
        <time>2021-02-14T11:36:17Z</time>
      </trkpt>
      <trkpt lat="43.44237" lon="-5.58441">
        <ele>707.0</ele>
        <time>2021-02-14T11:36:18Z</time>
      </trkpt>
      <trkpt lat="43.44237" lon="-5.584416">
        <ele>707.0</ele>
        <time>2021-02-14T11:36:19Z</time>
      </trkpt>
      <trkpt lat="43.442375" lon="-5.5844235">
        <ele>707.0</ele>
        <time>2021-02-14T11:36:20Z</time>
      </trkpt>
      <trkpt lat="43.442375" lon="-5.5844326">
        <ele>707.0</ele>
        <time>2021-02-14T11:36:21Z</time>
      </trkpt>
      <trkpt lat="43.442375" lon="-5.584443">
        <ele>707.0</ele>
        <time>2021-02-14T11:36:22Z</time>
      </trkpt>
      <trkpt lat="43.442375" lon="-5.5844536">
        <ele>707.0</ele>
        <time>2021-02-14T11:36:23Z</time>
      </trkpt>
      <trkpt lat="43.442375" lon="-5.5844646">
        <ele>707.0</ele>
        <time>2021-02-14T11:36:24Z</time>
      </trkpt>
      <trkpt lat="43.44238" lon="-5.5844736">
        <ele>707.0</ele>
        <time>2021-02-14T11:36:25Z</time>
      </trkpt>
      <trkpt lat="43.442387" lon="-5.584481">
        <ele>707.0</ele>
        <time>2021-02-14T11:36:26Z</time>
      </trkpt>
      <trkpt lat="43.442387" lon="-5.584487">
        <ele>707.0</ele>
        <time>2021-02-14T11:36:27Z</time>
      </trkpt>
      <trkpt lat="43.44239" lon="-5.5844946">
        <ele>707.0</ele>
        <time>2021-02-14T11:36:28Z</time>
      </trkpt>
      <trkpt lat="43.44239" lon="-5.584502">
        <ele>707.0</ele>
        <time>2021-02-14T11:36:29Z</time>
      </trkpt>
      <trkpt lat="43.44239" lon="-5.5845113">
        <ele>707.0</ele>
        <time>2021-02-14T11:36:30Z</time>
      </trkpt>
      <trkpt lat="43.44239" lon="-5.584519">
        <ele>707.0</ele>
        <time>2021-02-14T11:36:31Z</time>
      </trkpt>
      <trkpt lat="43.44239" lon="-5.5845294">
        <ele>707.0</ele>
        <time>2021-02-14T11:36:32Z</time>
      </trkpt>
      <trkpt lat="43.44239" lon="-5.5845394">
        <ele>707.0</ele>
        <time>2021-02-14T11:36:33Z</time>
      </trkpt>
      <trkpt lat="43.44239" lon="-5.5845504">
        <ele>707.0</ele>
        <time>2021-02-14T11:36:34Z</time>
      </trkpt>
      <trkpt lat="43.44239" lon="-5.584561">
        <ele>707.0</ele>
        <time>2021-02-14T11:36:35Z</time>
      </trkpt>
      <trkpt lat="43.44239" lon="-5.5845723">
        <ele>707.0</ele>
        <time>2021-02-14T11:36:36Z</time>
      </trkpt>
      <trkpt lat="43.44239" lon="-5.584584">
        <ele>707.0</ele>
        <time>2021-02-14T11:36:37Z</time>
      </trkpt>
      <trkpt lat="43.442394" lon="-5.5845947">
        <ele>707.0</ele>
        <time>2021-02-14T11:36:38Z</time>
      </trkpt>
      <trkpt lat="43.4424" lon="-5.584603">
        <ele>707.0</ele>
        <time>2021-02-14T11:36:39Z</time>
      </trkpt>
      <trkpt lat="43.442413" lon="-5.584615">
        <ele>707.0</ele>
        <time>2021-02-14T11:36:41Z</time>
      </trkpt>
      <trkpt lat="43.442413" lon="-5.584614">
        <ele>707.0</ele>
        <time>2021-02-14T11:36:42Z</time>
      </trkpt>
      <trkpt lat="43.442417" lon="-5.584616">
        <ele>707.0</ele>
        <time>2021-02-14T11:36:43Z</time>
      </trkpt>
      <trkpt lat="43.442417" lon="-5.58462">
        <ele>707.0</ele>
        <time>2021-02-14T11:36:44Z</time>
      </trkpt>
      <trkpt lat="43.442417" lon="-5.5846257">
        <ele>707.0</ele>
        <time>2021-02-14T11:36:45Z</time>
      </trkpt>
      <trkpt lat="43.442413" lon="-5.584629">
        <ele>707.0</ele>
        <time>2021-02-14T11:36:46Z</time>
      </trkpt>
      <trkpt lat="43.442406" lon="-5.5846305">
        <ele>707.0</ele>
        <time>2021-02-14T11:36:47Z</time>
      </trkpt>
      <trkpt lat="43.442394" lon="-5.5846295">
        <ele>707.0</ele>
        <time>2021-02-14T11:36:48Z</time>
      </trkpt>
      <trkpt lat="43.44239" lon="-5.5846286">
        <ele>707.0</ele>
        <time>2021-02-14T11:36:49Z</time>
      </trkpt>
      <trkpt lat="43.442387" lon="-5.584629">
        <ele>707.0</ele>
        <time>2021-02-14T11:36:50Z</time>
      </trkpt>
      <trkpt lat="43.44238" lon="-5.5846305">
        <ele>707.0</ele>
        <time>2021-02-14T11:36:51Z</time>
      </trkpt>
      <trkpt lat="43.44238" lon="-5.5846324">
        <ele>707.0</ele>
        <time>2021-02-14T11:36:52Z</time>
      </trkpt>
      <trkpt lat="43.442375" lon="-5.5846357">
        <ele>707.0</ele>
        <time>2021-02-14T11:36:53Z</time>
      </trkpt>
      <trkpt lat="43.442375" lon="-5.5846386">
        <ele>707.0</ele>
        <time>2021-02-14T11:36:54Z</time>
      </trkpt>
      <trkpt lat="43.44237" lon="-5.584644">
        <ele>707.0</ele>
        <time>2021-02-14T11:36:55Z</time>
      </trkpt>
      <trkpt lat="43.44237" lon="-5.584651">
        <ele>707.0</ele>
        <time>2021-02-14T11:36:56Z</time>
      </trkpt>
      <trkpt lat="43.442364" lon="-5.584659">
        <ele>707.0</ele>
        <time>2021-02-14T11:36:57Z</time>
      </trkpt>
      <trkpt lat="43.442364" lon="-5.5846667">
        <ele>707.0</ele>
        <time>2021-02-14T11:36:58Z</time>
      </trkpt>
      <trkpt lat="43.442364" lon="-5.584674">
        <ele>707.0</ele>
        <time>2021-02-14T11:36:59Z</time>
      </trkpt>
      <trkpt lat="43.44236" lon="-5.5846806">
        <ele>707.0</ele>
        <time>2021-02-14T11:37:00Z</time>
      </trkpt>
      <trkpt lat="43.44236" lon="-5.5846853">
        <ele>707.0</ele>
        <time>2021-02-14T11:37:01Z</time>
      </trkpt>
      <trkpt lat="43.44236" lon="-5.584692">
        <ele>707.0</ele>
        <time>2021-02-14T11:37:02Z</time>
      </trkpt>
      <trkpt lat="43.44236" lon="-5.5846977">
        <ele>707.0</ele>
        <time>2021-02-14T11:37:03Z</time>
      </trkpt>
      <trkpt lat="43.44236" lon="-5.5847025">
        <ele>707.0</ele>
        <time>2021-02-14T11:37:04Z</time>
      </trkpt>
      <trkpt lat="43.44235" lon="-5.5847244">
        <ele>707.0</ele>
        <time>2021-02-14T11:37:06Z</time>
      </trkpt>
      <trkpt lat="43.44235" lon="-5.584727">
        <ele>707.0</ele>
        <time>2021-02-14T11:37:07Z</time>
      </trkpt>
      <trkpt lat="43.44235" lon="-5.584731">
        <ele>707.0</ele>
        <time>2021-02-14T11:37:08Z</time>
      </trkpt>
      <trkpt lat="43.44235" lon="-5.584735">
        <ele>707.0</ele>
        <time>2021-02-14T11:37:09Z</time>
      </trkpt>
      <trkpt lat="43.442345" lon="-5.5847397">
        <ele>707.0</ele>
        <time>2021-02-14T11:37:10Z</time>
      </trkpt>
      <trkpt lat="43.44234" lon="-5.5847454">
        <ele>707.0</ele>
        <time>2021-02-14T11:37:11Z</time>
      </trkpt>
      <trkpt lat="43.442333" lon="-5.5847507">
        <ele>707.0</ele>
        <time>2021-02-14T11:37:12Z</time>
      </trkpt>
      <trkpt lat="43.44233" lon="-5.5847564">
        <ele>707.0</ele>
        <time>2021-02-14T11:37:13Z</time>
      </trkpt>
      <trkpt lat="43.442326" lon="-5.584763">
        <ele>707.0</ele>
        <time>2021-02-14T11:37:14Z</time>
      </trkpt>
      <trkpt lat="43.442318" lon="-5.5847697">
        <ele>707.0</ele>
        <time>2021-02-14T11:37:15Z</time>
      </trkpt>
      <trkpt lat="43.442314" lon="-5.5847783">
        <ele>707.0</ele>
        <time>2021-02-14T11:37:16Z</time>
      </trkpt>
      <trkpt lat="43.44231" lon="-5.5847883">
        <ele>707.0</ele>
        <time>2021-02-14T11:37:17Z</time>
      </trkpt>
      <trkpt lat="43.442303" lon="-5.584799">
        <ele>707.0</ele>
        <time>2021-02-14T11:37:18Z</time>
      </trkpt>
      <trkpt lat="43.442303" lon="-5.584812">
        <ele>707.0</ele>
        <time>2021-02-14T11:37:19Z</time>
      </trkpt>
      <trkpt lat="43.4423" lon="-5.584827">
        <ele>707.0</ele>
        <time>2021-02-14T11:37:20Z</time>
      </trkpt>
      <trkpt lat="43.442295" lon="-5.5848436">
        <ele>707.0</ele>
        <time>2021-02-14T11:37:21Z</time>
      </trkpt>
      <trkpt lat="43.442303" lon="-5.5849113">
        <ele>707.0</ele>
        <time>2021-02-14T11:37:23Z</time>
      </trkpt>
      <trkpt lat="43.442303" lon="-5.5849166">
        <ele>707.0</ele>
        <time>2021-02-14T11:37:24Z</time>
      </trkpt>
      <trkpt lat="43.442303" lon="-5.584923">
        <ele>707.0</ele>
        <time>2021-02-14T11:37:25Z</time>
      </trkpt>
      <trkpt lat="43.442303" lon="-5.5849276">
        <ele>707.0</ele>
        <time>2021-02-14T11:37:26Z</time>
      </trkpt>
      <trkpt lat="43.4423" lon="-5.5849338">
        <ele>707.0</ele>
        <time>2021-02-14T11:37:27Z</time>
      </trkpt>
      <trkpt lat="43.442295" lon="-5.58494">
        <ele>707.0</ele>
        <time>2021-02-14T11:37:28Z</time>
      </trkpt>
      <trkpt lat="43.442284" lon="-5.584947">
        <ele>707.0</ele>
        <time>2021-02-14T11:37:29Z</time>
      </trkpt>
      <trkpt lat="43.44228" lon="-5.584953">
        <ele>707.0</ele>
        <time>2021-02-14T11:37:30Z</time>
      </trkpt>
      <trkpt lat="43.44228" lon="-5.5849614">
        <ele>706.0</ele>
        <time>2021-02-14T11:37:31Z</time>
      </trkpt>
      <trkpt lat="43.44228" lon="-5.5849705">
        <ele>706.0</ele>
        <time>2021-02-14T11:37:32Z</time>
      </trkpt>
      <trkpt lat="43.44228" lon="-5.584983">
        <ele>706.0</ele>
        <time>2021-02-14T11:37:33Z</time>
      </trkpt>
      <trkpt lat="43.44228" lon="-5.5849967">
        <ele>706.0</ele>
        <time>2021-02-14T11:37:34Z</time>
      </trkpt>
      <trkpt lat="43.44228" lon="-5.5850124">
        <ele>706.0</ele>
        <time>2021-02-14T11:37:35Z</time>
      </trkpt>
      <trkpt lat="43.442284" lon="-5.5850296">
        <ele>706.0</ele>
        <time>2021-02-14T11:37:36Z</time>
      </trkpt>
      <trkpt lat="43.442287" lon="-5.5850463">
        <ele>706.0</ele>
        <time>2021-02-14T11:37:37Z</time>
      </trkpt>
      <trkpt lat="43.442295" lon="-5.5850635">
        <ele>706.0</ele>
        <time>2021-02-14T11:37:38Z</time>
      </trkpt>
      <trkpt lat="43.442295" lon="-5.585082">
        <ele>707.0</ele>
        <time>2021-02-14T11:37:39Z</time>
      </trkpt>
      <trkpt lat="43.4423" lon="-5.5850983">
        <ele>707.0</ele>
        <time>2021-02-14T11:37:40Z</time>
      </trkpt>
      <trkpt lat="43.4423" lon="-5.5851116">
        <ele>707.0</ele>
        <time>2021-02-14T11:37:41Z</time>
      </trkpt>
      <trkpt lat="43.4423" lon="-5.585122">
        <ele>707.0</ele>
        <time>2021-02-14T11:37:42Z</time>
      </trkpt>
      <trkpt lat="43.4423" lon="-5.585132">
        <ele>707.0</ele>
        <time>2021-02-14T11:37:43Z</time>
      </trkpt>
      <trkpt lat="43.4423" lon="-5.5851426">
        <ele>707.0</ele>
        <time>2021-02-14T11:37:44Z</time>
      </trkpt>
      <trkpt lat="43.442287" lon="-5.58519">
        <ele>707.0</ele>
        <time>2021-02-14T11:37:46Z</time>
      </trkpt>
      <trkpt lat="43.442284" lon="-5.585192">
        <ele>708.0</ele>
        <time>2021-02-14T11:37:47Z</time>
      </trkpt>
      <trkpt lat="43.442284" lon="-5.585199">
        <ele>708.0</ele>
        <time>2021-02-14T11:37:48Z</time>
      </trkpt>
      <trkpt lat="43.442284" lon="-5.5852065">
        <ele>708.0</ele>
        <time>2021-02-14T11:37:49Z</time>
      </trkpt>
      <trkpt lat="43.44228" lon="-5.585214">
        <ele>708.0</ele>
        <time>2021-02-14T11:37:50Z</time>
      </trkpt>
      <trkpt lat="43.442272" lon="-5.585224">
        <ele>708.0</ele>
        <time>2021-02-14T11:37:51Z</time>
      </trkpt>
      <trkpt lat="43.44227" lon="-5.5852385">
        <ele>708.0</ele>
        <time>2021-02-14T11:37:52Z</time>
      </trkpt>
      <trkpt lat="43.44227" lon="-5.5852537">
        <ele>708.0</ele>
        <time>2021-02-14T11:37:53Z</time>
      </trkpt>
      <trkpt lat="43.442265" lon="-5.5852685">
        <ele>708.0</ele>
        <time>2021-02-14T11:37:54Z</time>
      </trkpt>
      <trkpt lat="43.442257" lon="-5.5852833">
        <ele>708.0</ele>
        <time>2021-02-14T11:37:55Z</time>
      </trkpt>
      <trkpt lat="43.442257" lon="-5.5852966">
        <ele>708.0</ele>
        <time>2021-02-14T11:37:56Z</time>
      </trkpt>
      <trkpt lat="43.442253" lon="-5.5853066">
        <ele>708.0</ele>
        <time>2021-02-14T11:37:57Z</time>
      </trkpt>
      <trkpt lat="43.44225" lon="-5.5853176">
        <ele>708.0</ele>
        <time>2021-02-14T11:37:58Z</time>
      </trkpt>
      <trkpt lat="43.44224" lon="-5.5853267">
        <ele>708.0</ele>
        <time>2021-02-14T11:37:59Z</time>
      </trkpt>
      <trkpt lat="43.442238" lon="-5.585336">
        <ele>708.0</ele>
        <time>2021-02-14T11:38:00Z</time>
      </trkpt>
      <trkpt lat="43.442234" lon="-5.5853453">
        <ele>708.0</ele>
        <time>2021-02-14T11:38:01Z</time>
      </trkpt>
      <trkpt lat="43.442226" lon="-5.5853515">
        <ele>708.0</ele>
        <time>2021-02-14T11:38:02Z</time>
      </trkpt>
      <trkpt lat="43.442226" lon="-5.58536">
        <ele>708.0</ele>
        <time>2021-02-14T11:38:03Z</time>
      </trkpt>
      <trkpt lat="43.442223" lon="-5.585368">
        <ele>708.0</ele>
        <time>2021-02-14T11:38:04Z</time>
      </trkpt>
      <trkpt lat="43.442223" lon="-5.5853767">
        <ele>708.0</ele>
        <time>2021-02-14T11:38:05Z</time>
      </trkpt>
      <trkpt lat="43.442223" lon="-5.585384">
        <ele>708.0</ele>
        <time>2021-02-14T11:38:06Z</time>
      </trkpt>
      <trkpt lat="43.442223" lon="-5.5853925">
        <ele>709.0</ele>
        <time>2021-02-14T11:38:07Z</time>
      </trkpt>
      <trkpt lat="43.442223" lon="-5.5854044">
        <ele>709.0</ele>
        <time>2021-02-14T11:38:08Z</time>
      </trkpt>
      <trkpt lat="43.442223" lon="-5.585417">
        <ele>709.0</ele>
        <time>2021-02-14T11:38:09Z</time>
      </trkpt>
      <trkpt lat="43.442223" lon="-5.5854297">
        <ele>709.0</ele>
        <time>2021-02-14T11:38:10Z</time>
      </trkpt>
      <trkpt lat="43.442223" lon="-5.585443">
        <ele>709.0</ele>
        <time>2021-02-14T11:38:11Z</time>
      </trkpt>
      <trkpt lat="43.44222" lon="-5.585457">
        <ele>709.0</ele>
        <time>2021-02-14T11:38:12Z</time>
      </trkpt>
      <trkpt lat="43.44222" lon="-5.58547">
        <ele>709.0</ele>
        <time>2021-02-14T11:38:13Z</time>
      </trkpt>
      <trkpt lat="43.44222" lon="-5.585485">
        <ele>709.0</ele>
        <time>2021-02-14T11:38:14Z</time>
      </trkpt>
      <trkpt lat="43.44221" lon="-5.5855002">
        <ele>709.0</ele>
        <time>2021-02-14T11:38:15Z</time>
      </trkpt>
      <trkpt lat="43.44221" lon="-5.5855174">
        <ele>709.0</ele>
        <time>2021-02-14T11:38:16Z</time>
      </trkpt>
      <trkpt lat="43.442207" lon="-5.5855346">
        <ele>709.0</ele>
        <time>2021-02-14T11:38:17Z</time>
      </trkpt>
      <trkpt lat="43.4422" lon="-5.5855513">
        <ele>710.0</ele>
        <time>2021-02-14T11:38:18Z</time>
      </trkpt>
      <trkpt lat="43.4422" lon="-5.5855675">
        <ele>710.0</ele>
        <time>2021-02-14T11:38:19Z</time>
      </trkpt>
      <trkpt lat="43.442196" lon="-5.585583">
        <ele>710.0</ele>
        <time>2021-02-14T11:38:20Z</time>
      </trkpt>
      <trkpt lat="43.4422" lon="-5.585602">
        <ele>710.0</ele>
        <time>2021-02-14T11:38:21Z</time>
      </trkpt>
      <trkpt lat="43.4422" lon="-5.5856214">
        <ele>710.0</ele>
        <time>2021-02-14T11:38:22Z</time>
      </trkpt>
      <trkpt lat="43.442207" lon="-5.585637">
        <ele>711.0</ele>
        <time>2021-02-14T11:38:23Z</time>
      </trkpt>
      <trkpt lat="43.44222" lon="-5.5856524">
        <ele>711.0</ele>
        <time>2021-02-14T11:38:24Z</time>
      </trkpt>
      <trkpt lat="43.44222" lon="-5.5856676">
        <ele>711.0</ele>
        <time>2021-02-14T11:38:25Z</time>
      </trkpt>
      <trkpt lat="43.44222" lon="-5.58568">
        <ele>711.0</ele>
        <time>2021-02-14T11:38:26Z</time>
      </trkpt>
      <trkpt lat="43.44222" lon="-5.5856895">
        <ele>711.0</ele>
        <time>2021-02-14T11:38:27Z</time>
      </trkpt>
      <trkpt lat="43.44222" lon="-5.5856953">
        <ele>711.0</ele>
        <time>2021-02-14T11:38:28Z</time>
      </trkpt>
      <trkpt lat="43.442223" lon="-5.585695">
        <ele>711.0</ele>
        <time>2021-02-14T11:38:29Z</time>
      </trkpt>
      <trkpt lat="43.442223" lon="-5.5856915">
        <ele>711.0</ele>
        <time>2021-02-14T11:38:30Z</time>
      </trkpt>
      <trkpt lat="43.442226" lon="-5.5856857">
        <ele>711.0</ele>
        <time>2021-02-14T11:38:32Z</time>
      </trkpt>
      <trkpt lat="43.442223" lon="-5.5856857">
        <ele>711.0</ele>
        <time>2021-02-14T11:38:33Z</time>
      </trkpt>
      <trkpt lat="43.442223" lon="-5.585687">
        <ele>711.0</ele>
        <time>2021-02-14T11:38:34Z</time>
      </trkpt>
      <trkpt lat="43.44222" lon="-5.58569">
        <ele>711.0</ele>
        <time>2021-02-14T11:38:35Z</time>
      </trkpt>
      <trkpt lat="43.442207" lon="-5.5856943">
        <ele>711.0</ele>
        <time>2021-02-14T11:38:36Z</time>
      </trkpt>
      <trkpt lat="43.4422" lon="-5.585697">
        <ele>711.0</ele>
        <time>2021-02-14T11:38:37Z</time>
      </trkpt>
      <trkpt lat="43.4422" lon="-5.5857005">
        <ele>711.0</ele>
        <time>2021-02-14T11:38:38Z</time>
      </trkpt>
      <trkpt lat="43.442196" lon="-5.585705">
        <ele>711.0</ele>
        <time>2021-02-14T11:38:39Z</time>
      </trkpt>
      <trkpt lat="43.442196" lon="-5.5857105">
        <ele>711.0</ele>
        <time>2021-02-14T11:38:40Z</time>
      </trkpt>
      <trkpt lat="43.442192" lon="-5.5857177">
        <ele>711.0</ele>
        <time>2021-02-14T11:38:41Z</time>
      </trkpt>
      <trkpt lat="43.442192" lon="-5.5857253">
        <ele>711.0</ele>
        <time>2021-02-14T11:38:42Z</time>
      </trkpt>
      <trkpt lat="43.442184" lon="-5.585732">
        <ele>711.0</ele>
        <time>2021-02-14T11:38:43Z</time>
      </trkpt>
      <trkpt lat="43.442184" lon="-5.5857377">
        <ele>711.0</ele>
        <time>2021-02-14T11:38:44Z</time>
      </trkpt>
      <trkpt lat="43.442184" lon="-5.585743">
        <ele>711.0</ele>
        <time>2021-02-14T11:38:45Z</time>
      </trkpt>
      <trkpt lat="43.442184" lon="-5.585749">
        <ele>712.0</ele>
        <time>2021-02-14T11:38:46Z</time>
      </trkpt>
      <trkpt lat="43.44218" lon="-5.5857553">
        <ele>712.0</ele>
        <time>2021-02-14T11:38:47Z</time>
      </trkpt>
      <trkpt lat="43.44218" lon="-5.5857625">
        <ele>712.0</ele>
        <time>2021-02-14T11:38:48Z</time>
      </trkpt>
      <trkpt lat="43.442177" lon="-5.585771">
        <ele>712.0</ele>
        <time>2021-02-14T11:38:49Z</time>
      </trkpt>
      <trkpt lat="43.442177" lon="-5.5857787">
        <ele>712.0</ele>
        <time>2021-02-14T11:38:50Z</time>
      </trkpt>
      <trkpt lat="43.44217" lon="-5.5857863">
        <ele>712.0</ele>
        <time>2021-02-14T11:38:51Z</time>
      </trkpt>
      <trkpt lat="43.44217" lon="-5.5857935">
        <ele>713.0</ele>
        <time>2021-02-14T11:38:52Z</time>
      </trkpt>
      <trkpt lat="43.44217" lon="-5.5857997">
        <ele>713.0</ele>
        <time>2021-02-14T11:38:53Z</time>
      </trkpt>
      <trkpt lat="43.442165" lon="-5.585807">
        <ele>713.0</ele>
        <time>2021-02-14T11:38:54Z</time>
      </trkpt>
      <trkpt lat="43.442165" lon="-5.5858135">
        <ele>713.0</ele>
        <time>2021-02-14T11:38:55Z</time>
      </trkpt>
      <trkpt lat="43.442165" lon="-5.58582">
        <ele>713.0</ele>
        <time>2021-02-14T11:38:56Z</time>
      </trkpt>
      <trkpt lat="43.44216" lon="-5.5858274">
        <ele>713.0</ele>
        <time>2021-02-14T11:38:57Z</time>
      </trkpt>
      <trkpt lat="43.44216" lon="-5.585835">
        <ele>713.0</ele>
        <time>2021-02-14T11:38:58Z</time>
      </trkpt>
      <trkpt lat="43.442154" lon="-5.585841">
        <ele>713.0</ele>
        <time>2021-02-14T11:38:59Z</time>
      </trkpt>
      <trkpt lat="43.442165" lon="-5.5858593">
        <ele>714.0</ele>
        <time>2021-02-14T11:39:01Z</time>
      </trkpt>
      <trkpt lat="43.442165" lon="-5.585858">
        <ele>714.0</ele>
        <time>2021-02-14T11:39:02Z</time>
      </trkpt>
      <trkpt lat="43.442165" lon="-5.585856">
        <ele>714.0</ele>
        <time>2021-02-14T11:39:03Z</time>
      </trkpt>
      <trkpt lat="43.44216" lon="-5.5858536">
        <ele>714.0</ele>
        <time>2021-02-14T11:39:04Z</time>
      </trkpt>
      <trkpt lat="43.442165" lon="-5.5858536">
        <ele>714.0</ele>
        <time>2021-02-14T11:39:05Z</time>
      </trkpt>
      <trkpt lat="43.442165" lon="-5.5858526">
        <ele>714.0</ele>
        <time>2021-02-14T11:39:06Z</time>
      </trkpt>
      <trkpt lat="43.44216" lon="-5.5858502">
        <ele>714.0</ele>
        <time>2021-02-14T11:39:07Z</time>
      </trkpt>
      <trkpt lat="43.44216" lon="-5.5858483">
        <ele>714.0</ele>
        <time>2021-02-14T11:39:08Z</time>
      </trkpt>
      <trkpt lat="43.442165" lon="-5.585846">
        <ele>714.0</ele>
        <time>2021-02-14T11:39:09Z</time>
      </trkpt>
      <trkpt lat="43.442165" lon="-5.585843">
        <ele>714.0</ele>
        <time>2021-02-14T11:39:10Z</time>
      </trkpt>
      <trkpt lat="43.442154" lon="-5.5858374">
        <ele>714.0</ele>
        <time>2021-02-14T11:39:12Z</time>
      </trkpt>
      <trkpt lat="43.442154" lon="-5.5858393">
        <ele>714.0</ele>
        <time>2021-02-14T11:39:13Z</time>
      </trkpt>
      <trkpt lat="43.442154" lon="-5.585843">
        <ele>714.0</ele>
        <time>2021-02-14T11:39:14Z</time>
      </trkpt>
      <trkpt lat="43.44215" lon="-5.585848">
        <ele>714.0</ele>
        <time>2021-02-14T11:39:15Z</time>
      </trkpt>
      <trkpt lat="43.44215" lon="-5.5858526">
        <ele>714.0</ele>
        <time>2021-02-14T11:39:16Z</time>
      </trkpt>
      <trkpt lat="43.44215" lon="-5.5858593">
        <ele>714.0</ele>
        <time>2021-02-14T11:39:17Z</time>
      </trkpt>
      <trkpt lat="43.442146" lon="-5.585865">
        <ele>714.0</ele>
        <time>2021-02-14T11:39:18Z</time>
      </trkpt>
      <trkpt lat="43.442146" lon="-5.585871">
        <ele>714.0</ele>
        <time>2021-02-14T11:39:19Z</time>
      </trkpt>
      <trkpt lat="43.44214" lon="-5.5858784">
        <ele>714.0</ele>
        <time>2021-02-14T11:39:20Z</time>
      </trkpt>
      <trkpt lat="43.442135" lon="-5.5858846">
        <ele>714.0</ele>
        <time>2021-02-14T11:39:21Z</time>
      </trkpt>
      <trkpt lat="43.442135" lon="-5.5858912">
        <ele>714.0</ele>
        <time>2021-02-14T11:39:22Z</time>
      </trkpt>
      <trkpt lat="43.44213" lon="-5.5858955">
        <ele>714.0</ele>
        <time>2021-02-14T11:39:23Z</time>
      </trkpt>
      <trkpt lat="43.442123" lon="-5.5858984">
        <ele>714.0</ele>
        <time>2021-02-14T11:39:24Z</time>
      </trkpt>
      <trkpt lat="43.44211" lon="-5.585901">
        <ele>714.0</ele>
        <time>2021-02-14T11:39:25Z</time>
      </trkpt>
      <trkpt lat="43.44211" lon="-5.5858994">
        <ele>714.0</ele>
        <time>2021-02-14T11:39:26Z</time>
      </trkpt>
      <trkpt lat="43.44211" lon="-5.5858984">
        <ele>714.0</ele>
        <time>2021-02-14T11:39:27Z</time>
      </trkpt>
      <trkpt lat="43.442104" lon="-5.5858984">
        <ele>714.0</ele>
        <time>2021-02-14T11:39:28Z</time>
      </trkpt>
      <trkpt lat="43.442104" lon="-5.5858984">
        <ele>714.0</ele>
        <time>2021-02-14T11:39:29Z</time>
      </trkpt>
      <trkpt lat="43.4421" lon="-5.5858984">
        <ele>714.0</ele>
        <time>2021-02-14T11:39:30Z</time>
      </trkpt>
      <trkpt lat="43.442093" lon="-5.585899">
        <ele>714.0</ele>
        <time>2021-02-14T11:39:31Z</time>
      </trkpt>
      <trkpt lat="43.44209" lon="-5.5858994">
        <ele>714.0</ele>
        <time>2021-02-14T11:39:32Z</time>
      </trkpt>
      <trkpt lat="43.44209" lon="-5.585902">
        <ele>714.0</ele>
        <time>2021-02-14T11:39:33Z</time>
      </trkpt>
      <trkpt lat="43.442085" lon="-5.5859046">
        <ele>714.0</ele>
        <time>2021-02-14T11:39:34Z</time>
      </trkpt>
      <trkpt lat="43.442085" lon="-5.585908">
        <ele>714.0</ele>
        <time>2021-02-14T11:39:35Z</time>
      </trkpt>
      <trkpt lat="43.442078" lon="-5.585913">
        <ele>714.0</ele>
        <time>2021-02-14T11:39:36Z</time>
      </trkpt>
      <trkpt lat="43.442074" lon="-5.585918">
        <ele>714.0</ele>
        <time>2021-02-14T11:39:37Z</time>
      </trkpt>
      <trkpt lat="43.44207" lon="-5.5859237">
        <ele>714.0</ele>
        <time>2021-02-14T11:39:38Z</time>
      </trkpt>
      <trkpt lat="43.44207" lon="-5.585929">
        <ele>714.0</ele>
        <time>2021-02-14T11:39:39Z</time>
      </trkpt>
      <trkpt lat="43.442062" lon="-5.5859327">
        <ele>714.0</ele>
        <time>2021-02-14T11:39:40Z</time>
      </trkpt>
      <trkpt lat="43.442062" lon="-5.585936">
        <ele>714.0</ele>
        <time>2021-02-14T11:39:41Z</time>
      </trkpt>
      <trkpt lat="43.442055" lon="-5.585949">
        <ele>714.0</ele>
        <time>2021-02-14T11:39:47Z</time>
      </trkpt>
      <trkpt lat="43.442055" lon="-5.5859528">
        <ele>714.0</ele>
        <time>2021-02-14T11:40:04Z</time>
      </trkpt>
      <trkpt lat="43.442043" lon="-5.5859537">
        <ele>714.0</ele>
        <time>2021-02-14T11:40:09Z</time>
      </trkpt>
      <trkpt lat="43.442043" lon="-5.5859537">
        <ele>714.0</ele>
        <time>2021-02-14T11:40:10Z</time>
      </trkpt>
      <trkpt lat="43.44204" lon="-5.5859547">
        <ele>714.0</ele>
        <time>2021-02-14T11:40:11Z</time>
      </trkpt>
      <trkpt lat="43.44204" lon="-5.5859547">
        <ele>714.0</ele>
        <time>2021-02-14T11:40:12Z</time>
      </trkpt>
      <trkpt lat="43.44203" lon="-5.5859556">
        <ele>714.0</ele>
        <time>2021-02-14T11:40:13Z</time>
      </trkpt>
      <trkpt lat="43.442024" lon="-5.5859575">
        <ele>714.0</ele>
        <time>2021-02-14T11:40:14Z</time>
      </trkpt>
      <trkpt lat="43.442024" lon="-5.585963">
        <ele>714.0</ele>
        <time>2021-02-14T11:40:15Z</time>
      </trkpt>
      <trkpt lat="43.442017" lon="-5.585968">
        <ele>714.0</ele>
        <time>2021-02-14T11:40:16Z</time>
      </trkpt>
      <trkpt lat="43.442005" lon="-5.5859737">
        <ele>714.0</ele>
        <time>2021-02-14T11:40:17Z</time>
      </trkpt>
      <trkpt lat="43.442" lon="-5.5859795">
        <ele>714.0</ele>
        <time>2021-02-14T11:40:18Z</time>
      </trkpt>
      <trkpt lat="43.44199" lon="-5.585986">
        <ele>714.0</ele>
        <time>2021-02-14T11:40:19Z</time>
      </trkpt>
      <trkpt lat="43.441982" lon="-5.585993">
        <ele>714.0</ele>
        <time>2021-02-14T11:40:20Z</time>
      </trkpt>
      <trkpt lat="43.44197" lon="-5.5859985">
        <ele>714.0</ele>
        <time>2021-02-14T11:40:21Z</time>
      </trkpt>
      <trkpt lat="43.441967" lon="-5.5860043">
        <ele>714.0</ele>
        <time>2021-02-14T11:40:22Z</time>
      </trkpt>
      <trkpt lat="43.441956" lon="-5.586009">
        <ele>714.0</ele>
        <time>2021-02-14T11:40:23Z</time>
      </trkpt>
      <trkpt lat="43.44195" lon="-5.5860133">
        <ele>714.0</ele>
        <time>2021-02-14T11:40:24Z</time>
      </trkpt>
      <trkpt lat="43.441944" lon="-5.5860167">
        <ele>714.0</ele>
        <time>2021-02-14T11:40:25Z</time>
      </trkpt>
      <trkpt lat="43.44194" lon="-5.586022">
        <ele>714.0</ele>
        <time>2021-02-14T11:40:26Z</time>
      </trkpt>
      <trkpt lat="43.44194" lon="-5.586026">
        <ele>714.0</ele>
        <time>2021-02-14T11:40:27Z</time>
      </trkpt>
      <trkpt lat="43.441936" lon="-5.58603">
        <ele>714.0</ele>
        <time>2021-02-14T11:40:28Z</time>
      </trkpt>
      <trkpt lat="43.44193" lon="-5.586033">
        <ele>714.0</ele>
        <time>2021-02-14T11:40:29Z</time>
      </trkpt>
      <trkpt lat="43.441925" lon="-5.586035">
        <ele>714.0</ele>
        <time>2021-02-14T11:40:30Z</time>
      </trkpt>
      <trkpt lat="43.44192" lon="-5.5860367">
        <ele>714.0</ele>
        <time>2021-02-14T11:40:31Z</time>
      </trkpt>
      <trkpt lat="43.44192" lon="-5.5860386">
        <ele>714.0</ele>
        <time>2021-02-14T11:40:32Z</time>
      </trkpt>
      <trkpt lat="43.441914" lon="-5.586039">
        <ele>714.0</ele>
        <time>2021-02-14T11:40:33Z</time>
      </trkpt>
      <trkpt lat="43.44191" lon="-5.586039">
        <ele>714.0</ele>
        <time>2021-02-14T11:40:34Z</time>
      </trkpt>
      <trkpt lat="43.44191" lon="-5.5860395">
        <ele>714.0</ele>
        <time>2021-02-14T11:40:35Z</time>
      </trkpt>
      <trkpt lat="43.441906" lon="-5.5860415">
        <ele>714.0</ele>
        <time>2021-02-14T11:40:36Z</time>
      </trkpt>
      <trkpt lat="43.4419" lon="-5.586043">
        <ele>714.0</ele>
        <time>2021-02-14T11:40:37Z</time>
      </trkpt>
      <trkpt lat="43.441895" lon="-5.5860453">
        <ele>714.0</ele>
        <time>2021-02-14T11:40:38Z</time>
      </trkpt>
      <trkpt lat="43.44189" lon="-5.586047">
        <ele>714.0</ele>
        <time>2021-02-14T11:40:39Z</time>
      </trkpt>
      <trkpt lat="43.441883" lon="-5.58605">
        <ele>714.0</ele>
        <time>2021-02-14T11:40:40Z</time>
      </trkpt>
      <trkpt lat="43.44188" lon="-5.5860505">
        <ele>714.0</ele>
        <time>2021-02-14T11:40:41Z</time>
      </trkpt>
      <trkpt lat="43.441875" lon="-5.586051">
        <ele>714.0</ele>
        <time>2021-02-14T11:40:42Z</time>
      </trkpt>
      <trkpt lat="43.441868" lon="-5.586052">
        <ele>714.0</ele>
        <time>2021-02-14T11:40:43Z</time>
      </trkpt>
      <trkpt lat="43.441868" lon="-5.586053">
        <ele>714.0</ele>
        <time>2021-02-14T11:40:44Z</time>
      </trkpt>
      <trkpt lat="43.441864" lon="-5.5860543">
        <ele>714.0</ele>
        <time>2021-02-14T11:40:45Z</time>
      </trkpt>
      <trkpt lat="43.44186" lon="-5.586055">
        <ele>714.0</ele>
        <time>2021-02-14T11:40:46Z</time>
      </trkpt>
      <trkpt lat="43.441853" lon="-5.5860558">
        <ele>714.0</ele>
        <time>2021-02-14T11:40:47Z</time>
      </trkpt>
      <trkpt lat="43.44185" lon="-5.586057">
        <ele>714.0</ele>
        <time>2021-02-14T11:40:48Z</time>
      </trkpt>
      <trkpt lat="43.44185" lon="-5.5860596">
        <ele>714.0</ele>
        <time>2021-02-14T11:40:49Z</time>
      </trkpt>
      <trkpt lat="43.441845" lon="-5.5860615">
        <ele>714.0</ele>
        <time>2021-02-14T11:40:50Z</time>
      </trkpt>
      <trkpt lat="43.441837" lon="-5.586063">
        <ele>714.0</ele>
        <time>2021-02-14T11:40:51Z</time>
      </trkpt>
      <trkpt lat="43.441833" lon="-5.586066">
        <ele>714.0</ele>
        <time>2021-02-14T11:40:52Z</time>
      </trkpt>
      <trkpt lat="43.441822" lon="-5.586069">
        <ele>714.0</ele>
        <time>2021-02-14T11:40:53Z</time>
      </trkpt>
      <trkpt lat="43.44182" lon="-5.5860744">
        <ele>714.0</ele>
        <time>2021-02-14T11:40:54Z</time>
      </trkpt>
      <trkpt lat="43.44181" lon="-5.5860815">
        <ele>714.0</ele>
        <time>2021-02-14T11:40:55Z</time>
      </trkpt>
      <trkpt lat="43.441803" lon="-5.586088">
        <ele>714.0</ele>
        <time>2021-02-14T11:40:56Z</time>
      </trkpt>
      <trkpt lat="43.441795" lon="-5.586094">
        <ele>714.0</ele>
        <time>2021-02-14T11:40:57Z</time>
      </trkpt>
      <trkpt lat="43.44179" lon="-5.586101">
        <ele>714.0</ele>
        <time>2021-02-14T11:40:58Z</time>
      </trkpt>
      <trkpt lat="43.441788" lon="-5.5861096">
        <ele>714.0</ele>
        <time>2021-02-14T11:40:59Z</time>
      </trkpt>
      <trkpt lat="43.44178" lon="-5.586119">
        <ele>714.0</ele>
        <time>2021-02-14T11:41:00Z</time>
      </trkpt>
      <trkpt lat="43.441776" lon="-5.586128">
        <ele>714.0</ele>
        <time>2021-02-14T11:41:01Z</time>
      </trkpt>
      <trkpt lat="43.441772" lon="-5.5861344">
        <ele>714.0</ele>
        <time>2021-02-14T11:41:02Z</time>
      </trkpt>
      <trkpt lat="43.441772" lon="-5.5861473">
        <ele>714.0</ele>
        <time>2021-02-14T11:41:06Z</time>
      </trkpt>
      <trkpt lat="43.441772" lon="-5.586148">
        <ele>714.0</ele>
        <time>2021-02-14T11:41:07Z</time>
      </trkpt>
      <trkpt lat="43.441772" lon="-5.5861535">
        <ele>714.0</ele>
        <time>2021-02-14T11:41:09Z</time>
      </trkpt>
      <trkpt lat="43.441772" lon="-5.5861545">
        <ele>717.0</ele>
        <time>2021-02-14T11:41:10Z</time>
      </trkpt>
      <trkpt lat="43.441772" lon="-5.586162">
        <ele>717.0</ele>
        <time>2021-02-14T11:41:15Z</time>
      </trkpt>
      <trkpt lat="43.441772" lon="-5.586163">
        <ele>717.0</ele>
        <time>2021-02-14T11:41:16Z</time>
      </trkpt>
      <trkpt lat="43.44176" lon="-5.586167">
        <ele>717.0</ele>
        <time>2021-02-14T11:41:18Z</time>
      </trkpt>
      <trkpt lat="43.44176" lon="-5.5861683">
        <ele>717.0</ele>
        <time>2021-02-14T11:41:19Z</time>
      </trkpt>
      <trkpt lat="43.441757" lon="-5.5861697">
        <ele>717.0</ele>
        <time>2021-02-14T11:41:20Z</time>
      </trkpt>
      <trkpt lat="43.441757" lon="-5.5861773">
        <ele>717.0</ele>
        <time>2021-02-14T11:41:23Z</time>
      </trkpt>
      <trkpt lat="43.441757" lon="-5.586174">
        <ele>717.0</ele>
        <time>2021-02-14T11:41:26Z</time>
      </trkpt>
      <trkpt lat="43.441757" lon="-5.5861745">
        <ele>717.0</ele>
        <time>2021-02-14T11:41:27Z</time>
      </trkpt>
      <trkpt lat="43.44175" lon="-5.586177">
        <ele>717.0</ele>
        <time>2021-02-14T11:41:28Z</time>
      </trkpt>
      <trkpt lat="43.44175" lon="-5.586177">
        <ele>717.0</ele>
        <time>2021-02-14T11:41:29Z</time>
      </trkpt>
      <trkpt lat="43.44175" lon="-5.5861754">
        <ele>717.0</ele>
        <time>2021-02-14T11:41:30Z</time>
      </trkpt>
      <trkpt lat="43.44175" lon="-5.5861745">
        <ele>717.0</ele>
        <time>2021-02-14T11:41:31Z</time>
      </trkpt>
      <trkpt lat="43.441757" lon="-5.5861745">
        <ele>717.0</ele>
        <time>2021-02-14T11:41:32Z</time>
      </trkpt>
      <trkpt lat="43.441757" lon="-5.5861754">
        <ele>717.0</ele>
        <time>2021-02-14T11:41:33Z</time>
      </trkpt>
      <trkpt lat="43.44175" lon="-5.5861754">
        <ele>717.0</ele>
        <time>2021-02-14T11:42:18Z</time>
      </trkpt>
      <trkpt lat="43.44175" lon="-5.5861826">
        <ele>717.0</ele>
        <time>2021-02-14T11:42:22Z</time>
      </trkpt>
      <trkpt lat="43.441757" lon="-5.5861807">
        <ele>717.0</ele>
        <time>2021-02-14T11:43:01Z</time>
      </trkpt>
      <trkpt lat="43.441757" lon="-5.5861793">
        <ele>717.0</ele>
        <time>2021-02-14T11:43:02Z</time>
      </trkpt>
      <trkpt lat="43.441757" lon="-5.586172">
        <ele>717.0</ele>
        <time>2021-02-14T11:43:04Z</time>
      </trkpt>
      <trkpt lat="43.441757" lon="-5.586164">
        <ele>717.0</ele>
        <time>2021-02-14T11:43:07Z</time>
      </trkpt>
      <trkpt lat="43.441757" lon="-5.5861626">
        <ele>717.0</ele>
        <time>2021-02-14T11:43:08Z</time>
      </trkpt>
      <trkpt lat="43.441757" lon="-5.5861607">
        <ele>717.0</ele>
        <time>2021-02-14T11:43:09Z</time>
      </trkpt>
      <trkpt lat="43.441757" lon="-5.5861583">
        <ele>717.0</ele>
        <time>2021-02-14T11:43:10Z</time>
      </trkpt>
      <trkpt lat="43.44176" lon="-5.5861473">
        <ele>717.0</ele>
        <time>2021-02-14T11:43:13Z</time>
      </trkpt>
      <trkpt lat="43.44176" lon="-5.586144">
        <ele>717.0</ele>
        <time>2021-02-14T11:43:15Z</time>
      </trkpt>
      <trkpt lat="43.441765" lon="-5.586142">
        <ele>717.0</ele>
        <time>2021-02-14T11:43:18Z</time>
      </trkpt>
      <trkpt lat="43.441765" lon="-5.5861254">
        <ele>717.0</ele>
        <time>2021-02-14T11:44:03Z</time>
      </trkpt>
      <trkpt lat="43.441772" lon="-5.586116">
        <ele>717.0</ele>
        <time>2021-02-14T11:44:13Z</time>
      </trkpt>
      <trkpt lat="43.44178" lon="-5.5861173">
        <ele>717.0</ele>
        <time>2021-02-14T11:45:19Z</time>
      </trkpt>
      <trkpt lat="43.44178" lon="-5.5861235">
        <ele>717.0</ele>
        <time>2021-02-14T11:45:20Z</time>
      </trkpt>
      <trkpt lat="43.44178" lon="-5.586136">
        <ele>717.0</ele>
        <time>2021-02-14T11:45:21Z</time>
      </trkpt>
      <trkpt lat="43.441776" lon="-5.5861516">
        <ele>717.0</ele>
        <time>2021-02-14T11:45:22Z</time>
      </trkpt>
      <trkpt lat="43.441772" lon="-5.586169">
        <ele>717.0</ele>
        <time>2021-02-14T11:45:23Z</time>
      </trkpt>
      <trkpt lat="43.441765" lon="-5.586189">
        <ele>717.0</ele>
        <time>2021-02-14T11:45:24Z</time>
      </trkpt>
      <trkpt lat="43.44176" lon="-5.586208">
        <ele>717.0</ele>
        <time>2021-02-14T11:45:25Z</time>
      </trkpt>
      <trkpt lat="43.441757" lon="-5.5862284">
        <ele>717.0</ele>
        <time>2021-02-14T11:45:26Z</time>
      </trkpt>
      <trkpt lat="43.441746" lon="-5.586249">
        <ele>717.0</ele>
        <time>2021-02-14T11:45:27Z</time>
      </trkpt>
      <trkpt lat="43.441742" lon="-5.5862694">
        <ele>717.0</ele>
        <time>2021-02-14T11:45:28Z</time>
      </trkpt>
      <trkpt lat="43.441734" lon="-5.5862875">
        <ele>717.0</ele>
        <time>2021-02-14T11:45:29Z</time>
      </trkpt>
      <trkpt lat="43.44173" lon="-5.5863028">
        <ele>717.0</ele>
        <time>2021-02-14T11:45:30Z</time>
      </trkpt>
      <trkpt lat="43.441727" lon="-5.586316">
        <ele>717.0</ele>
        <time>2021-02-14T11:45:31Z</time>
      </trkpt>
      <trkpt lat="43.44172" lon="-5.5863295">
        <ele>717.0</ele>
        <time>2021-02-14T11:45:32Z</time>
      </trkpt>
      <trkpt lat="43.441715" lon="-5.58634">
        <ele>717.0</ele>
        <time>2021-02-14T11:45:33Z</time>
      </trkpt>
      <trkpt lat="43.44171" lon="-5.5863633">
        <ele>717.0</ele>
        <time>2021-02-14T11:45:35Z</time>
      </trkpt>
      <trkpt lat="43.441704" lon="-5.5863633">
        <ele>717.0</ele>
        <time>2021-02-14T11:45:36Z</time>
      </trkpt>
      <trkpt lat="43.4417" lon="-5.586374">
        <ele>717.0</ele>
        <time>2021-02-14T11:45:38Z</time>
      </trkpt>
      <trkpt lat="43.4417" lon="-5.586376">
        <ele>717.0</ele>
        <time>2021-02-14T11:45:39Z</time>
      </trkpt>
      <trkpt lat="43.4417" lon="-5.5863833">
        <ele>717.0</ele>
        <time>2021-02-14T11:45:40Z</time>
      </trkpt>
      <trkpt lat="43.4417" lon="-5.586394">
        <ele>717.0</ele>
        <time>2021-02-14T11:45:41Z</time>
      </trkpt>
      <trkpt lat="43.441696" lon="-5.5864043">
        <ele>717.0</ele>
        <time>2021-02-14T11:45:42Z</time>
      </trkpt>
      <trkpt lat="43.441696" lon="-5.586416">
        <ele>717.0</ele>
        <time>2021-02-14T11:45:43Z</time>
      </trkpt>
      <trkpt lat="43.441696" lon="-5.5864315">
        <ele>717.0</ele>
        <time>2021-02-14T11:45:44Z</time>
      </trkpt>
      <trkpt lat="43.441696" lon="-5.5864463">
        <ele>717.0</ele>
        <time>2021-02-14T11:45:45Z</time>
      </trkpt>
      <trkpt lat="43.44169" lon="-5.5864596">
        <ele>717.0</ele>
        <time>2021-02-14T11:45:46Z</time>
      </trkpt>
      <trkpt lat="43.44169" lon="-5.5864697">
        <ele>717.0</ele>
        <time>2021-02-14T11:45:47Z</time>
      </trkpt>
      <trkpt lat="43.441685" lon="-5.5864773">
        <ele>717.0</ele>
        <time>2021-02-14T11:45:48Z</time>
      </trkpt>
      <trkpt lat="43.441685" lon="-5.586483">
        <ele>717.0</ele>
        <time>2021-02-14T11:45:49Z</time>
      </trkpt>
      <trkpt lat="43.44168" lon="-5.5864973">
        <ele>717.0</ele>
        <time>2021-02-14T11:45:52Z</time>
      </trkpt>
      <trkpt lat="43.44168" lon="-5.5865054">
        <ele>717.0</ele>
        <time>2021-02-14T11:45:54Z</time>
      </trkpt>
      <trkpt lat="43.44168" lon="-5.586507">
        <ele>717.0</ele>
        <time>2021-02-14T11:45:55Z</time>
      </trkpt>
      <trkpt lat="43.441673" lon="-5.5865107">
        <ele>717.0</ele>
        <time>2021-02-14T11:45:56Z</time>
      </trkpt>
      <trkpt lat="43.441673" lon="-5.5865164">
        <ele>717.0</ele>
        <time>2021-02-14T11:45:57Z</time>
      </trkpt>
      <trkpt lat="43.44167" lon="-5.586523">
        <ele>717.0</ele>
        <time>2021-02-14T11:45:58Z</time>
      </trkpt>
      <trkpt lat="43.441666" lon="-5.5865297">
        <ele>717.0</ele>
        <time>2021-02-14T11:45:59Z</time>
      </trkpt>
      <trkpt lat="43.441666" lon="-5.586539">
        <ele>717.0</ele>
        <time>2021-02-14T11:46:00Z</time>
      </trkpt>
      <trkpt lat="43.441658" lon="-5.5865483">
        <ele>717.0</ele>
        <time>2021-02-14T11:46:01Z</time>
      </trkpt>
      <trkpt lat="43.441654" lon="-5.5865574">
        <ele>717.0</ele>
        <time>2021-02-14T11:46:02Z</time>
      </trkpt>
      <trkpt lat="43.441654" lon="-5.586566">
        <ele>717.0</ele>
        <time>2021-02-14T11:46:03Z</time>
      </trkpt>
      <trkpt lat="43.44165" lon="-5.5865726">
        <ele>717.0</ele>
        <time>2021-02-14T11:46:04Z</time>
      </trkpt>
      <trkpt lat="43.441643" lon="-5.5865774">
        <ele>717.0</ele>
        <time>2021-02-14T11:46:05Z</time>
      </trkpt>
      <trkpt lat="43.441635" lon="-5.586592">
        <ele>717.0</ele>
        <time>2021-02-14T11:46:08Z</time>
      </trkpt>
      <trkpt lat="43.441635" lon="-5.586592">
        <ele>717.0</ele>
        <time>2021-02-14T11:46:09Z</time>
      </trkpt>
      <trkpt lat="43.441628" lon="-5.5865927">
        <ele>717.0</ele>
        <time>2021-02-14T11:46:10Z</time>
      </trkpt>
      <trkpt lat="43.441624" lon="-5.586595">
        <ele>717.0</ele>
        <time>2021-02-14T11:46:11Z</time>
      </trkpt>
      <trkpt lat="43.441624" lon="-5.586597">
        <ele>717.0</ele>
        <time>2021-02-14T11:46:12Z</time>
      </trkpt>
      <trkpt lat="43.441616" lon="-5.586599">
        <ele>717.0</ele>
        <time>2021-02-14T11:46:13Z</time>
      </trkpt>
      <trkpt lat="43.441612" lon="-5.5866003">
        <ele>717.0</ele>
        <time>2021-02-14T11:46:14Z</time>
      </trkpt>
      <trkpt lat="43.441612" lon="-5.586602">
        <ele>717.0</ele>
        <time>2021-02-14T11:46:15Z</time>
      </trkpt>
      <trkpt lat="43.44161" lon="-5.5866036">
        <ele>717.0</ele>
        <time>2021-02-14T11:46:16Z</time>
      </trkpt>
      <trkpt lat="43.44161" lon="-5.5866046">
        <ele>717.0</ele>
        <time>2021-02-14T11:46:17Z</time>
      </trkpt>
      <trkpt lat="43.4416" lon="-5.586606">
        <ele>717.0</ele>
        <time>2021-02-14T11:46:18Z</time>
      </trkpt>
      <trkpt lat="43.4416" lon="-5.5866117">
        <ele>717.0</ele>
        <time>2021-02-14T11:46:19Z</time>
      </trkpt>
      <trkpt lat="43.441597" lon="-5.5866184">
        <ele>717.0</ele>
        <time>2021-02-14T11:46:20Z</time>
      </trkpt>
      <trkpt lat="43.441597" lon="-5.586626">
        <ele>717.0</ele>
        <time>2021-02-14T11:46:21Z</time>
      </trkpt>
      <trkpt lat="43.441593" lon="-5.5866323">
        <ele>717.0</ele>
        <time>2021-02-14T11:46:22Z</time>
      </trkpt>
      <trkpt lat="43.441593" lon="-5.586638">
        <ele>717.0</ele>
        <time>2021-02-14T11:46:23Z</time>
      </trkpt>
      <trkpt lat="43.441586" lon="-5.5866437">
        <ele>717.0</ele>
        <time>2021-02-14T11:46:24Z</time>
      </trkpt>
      <trkpt lat="43.441586" lon="-5.586649">
        <ele>717.0</ele>
        <time>2021-02-14T11:46:25Z</time>
      </trkpt>
      <trkpt lat="43.441586" lon="-5.586654">
        <ele>717.0</ele>
        <time>2021-02-14T11:46:26Z</time>
      </trkpt>
      <trkpt lat="43.441586" lon="-5.5866604">
        <ele>717.0</ele>
        <time>2021-02-14T11:46:27Z</time>
      </trkpt>
      <trkpt lat="43.441586" lon="-5.586666">
        <ele>717.0</ele>
        <time>2021-02-14T11:46:28Z</time>
      </trkpt>
      <trkpt lat="43.441586" lon="-5.5866737">
        <ele>717.0</ele>
        <time>2021-02-14T11:46:29Z</time>
      </trkpt>
      <trkpt lat="43.441586" lon="-5.5866823">
        <ele>717.0</ele>
        <time>2021-02-14T11:46:30Z</time>
      </trkpt>
      <trkpt lat="43.441586" lon="-5.586692">
        <ele>717.0</ele>
        <time>2021-02-14T11:46:31Z</time>
      </trkpt>
      <trkpt lat="43.441586" lon="-5.5867014">
        <ele>717.0</ele>
        <time>2021-02-14T11:46:32Z</time>
      </trkpt>
      <trkpt lat="43.441586" lon="-5.586712">
        <ele>720.0</ele>
        <time>2021-02-14T11:46:33Z</time>
      </trkpt>
      <trkpt lat="43.441593" lon="-5.586722">
        <ele>720.0</ele>
        <time>2021-02-14T11:46:34Z</time>
      </trkpt>
      <trkpt lat="43.441593" lon="-5.5867324">
        <ele>720.0</ele>
        <time>2021-02-14T11:46:35Z</time>
      </trkpt>
      <trkpt lat="43.441593" lon="-5.586742">
        <ele>720.0</ele>
        <time>2021-02-14T11:46:36Z</time>
      </trkpt>
      <trkpt lat="43.441597" lon="-5.5867496">
        <ele>720.0</ele>
        <time>2021-02-14T11:46:37Z</time>
      </trkpt>
      <trkpt lat="43.441597" lon="-5.5867543">
        <ele>720.0</ele>
        <time>2021-02-14T11:46:38Z</time>
      </trkpt>
      <trkpt lat="43.4416" lon="-5.5867596">
        <ele>720.0</ele>
        <time>2021-02-14T11:46:39Z</time>
      </trkpt>
      <trkpt lat="43.4416" lon="-5.5867662">
        <ele>720.0</ele>
        <time>2021-02-14T11:46:40Z</time>
      </trkpt>
      <trkpt lat="43.44161" lon="-5.586771">
        <ele>721.0</ele>
        <time>2021-02-14T11:46:41Z</time>
      </trkpt>
      <trkpt lat="43.441612" lon="-5.586776">
        <ele>721.0</ele>
        <time>2021-02-14T11:46:42Z</time>
      </trkpt>
      <trkpt lat="43.441612" lon="-5.5867796">
        <ele>721.0</ele>
        <time>2021-02-14T11:46:43Z</time>
      </trkpt>
      <trkpt lat="43.441612" lon="-5.586784">
        <ele>721.0</ele>
        <time>2021-02-14T11:46:44Z</time>
      </trkpt>
      <trkpt lat="43.441616" lon="-5.5867877">
        <ele>721.0</ele>
        <time>2021-02-14T11:46:45Z</time>
      </trkpt>
      <trkpt lat="43.441612" lon="-5.586802">
        <ele>722.0</ele>
        <time>2021-02-14T11:46:47Z</time>
      </trkpt>
      <trkpt lat="43.441612" lon="-5.5868025">
        <ele>722.0</ele>
        <time>2021-02-14T11:46:48Z</time>
      </trkpt>
      <trkpt lat="43.441616" lon="-5.586806">
        <ele>722.0</ele>
        <time>2021-02-14T11:46:49Z</time>
      </trkpt>
      <trkpt lat="43.441624" lon="-5.586808">
        <ele>722.0</ele>
        <time>2021-02-14T11:46:53Z</time>
      </trkpt>
      <trkpt lat="43.441624" lon="-5.586808">
        <ele>722.0</ele>
        <time>2021-02-14T11:46:54Z</time>
      </trkpt>
      <trkpt lat="43.441628" lon="-5.586808">
        <ele>722.0</ele>
        <time>2021-02-14T11:46:55Z</time>
      </trkpt>
      <trkpt lat="43.441628" lon="-5.5868115">
        <ele>722.0</ele>
        <time>2021-02-14T11:46:56Z</time>
      </trkpt>
      <trkpt lat="43.441628" lon="-5.5868154">
        <ele>722.0</ele>
        <time>2021-02-14T11:46:57Z</time>
      </trkpt>
      <trkpt lat="43.441635" lon="-5.5868206">
        <ele>722.0</ele>
        <time>2021-02-14T11:46:58Z</time>
      </trkpt>
      <trkpt lat="43.441635" lon="-5.5868254">
        <ele>722.0</ele>
        <time>2021-02-14T11:46:59Z</time>
      </trkpt>
      <trkpt lat="43.441635" lon="-5.5868297">
        <ele>722.0</ele>
        <time>2021-02-14T11:47:00Z</time>
      </trkpt>
      <trkpt lat="43.441635" lon="-5.586832">
        <ele>722.0</ele>
        <time>2021-02-14T11:47:01Z</time>
      </trkpt>
      <trkpt lat="43.44164" lon="-5.58684">
        <ele>722.0</ele>
        <time>2021-02-14T11:47:03Z</time>
      </trkpt>
      <trkpt lat="43.44164" lon="-5.586841">
        <ele>723.0</ele>
        <time>2021-02-14T11:47:04Z</time>
      </trkpt>
      <trkpt lat="43.441643" lon="-5.586842">
        <ele>723.0</ele>
        <time>2021-02-14T11:47:05Z</time>
      </trkpt>
      <trkpt lat="43.44165" lon="-5.5868435">
        <ele>723.0</ele>
        <time>2021-02-14T11:47:06Z</time>
      </trkpt>
      <trkpt lat="43.44165" lon="-5.586846">
        <ele>723.0</ele>
        <time>2021-02-14T11:47:07Z</time>
      </trkpt>
      <trkpt lat="43.441654" lon="-5.5868487">
        <ele>723.0</ele>
        <time>2021-02-14T11:47:08Z</time>
      </trkpt>
      <trkpt lat="43.441658" lon="-5.5868526">
        <ele>723.0</ele>
        <time>2021-02-14T11:47:09Z</time>
      </trkpt>
      <trkpt lat="43.441666" lon="-5.586858">
        <ele>723.0</ele>
        <time>2021-02-14T11:47:10Z</time>
      </trkpt>
      <trkpt lat="43.44167" lon="-5.586864">
        <ele>724.0</ele>
        <time>2021-02-14T11:47:11Z</time>
      </trkpt>
      <trkpt lat="43.44167" lon="-5.5868692">
        <ele>724.0</ele>
        <time>2021-02-14T11:47:12Z</time>
      </trkpt>
      <trkpt lat="43.441673" lon="-5.5868754">
        <ele>724.0</ele>
        <time>2021-02-14T11:47:13Z</time>
      </trkpt>
      <trkpt lat="43.441673" lon="-5.586881">
        <ele>724.0</ele>
        <time>2021-02-14T11:47:14Z</time>
      </trkpt>
      <trkpt lat="43.441673" lon="-5.586889">
        <ele>724.0</ele>
        <time>2021-02-14T11:47:15Z</time>
      </trkpt>
      <trkpt lat="43.44168" lon="-5.5868974">
        <ele>724.0</ele>
        <time>2021-02-14T11:47:16Z</time>
      </trkpt>
      <trkpt lat="43.44168" lon="-5.586907">
        <ele>724.0</ele>
        <time>2021-02-14T11:47:17Z</time>
      </trkpt>
      <trkpt lat="43.44168" lon="-5.586917">
        <ele>724.0</ele>
        <time>2021-02-14T11:47:18Z</time>
      </trkpt>
      <trkpt lat="43.441673" lon="-5.586928">
        <ele>724.0</ele>
        <time>2021-02-14T11:47:19Z</time>
      </trkpt>
      <trkpt lat="43.441673" lon="-5.586941">
        <ele>724.0</ele>
        <time>2021-02-14T11:47:20Z</time>
      </trkpt>
      <trkpt lat="43.441673" lon="-5.586953">
        <ele>724.0</ele>
        <time>2021-02-14T11:47:21Z</time>
      </trkpt>
      <trkpt lat="43.441673" lon="-5.5869627">
        <ele>724.0</ele>
        <time>2021-02-14T11:47:22Z</time>
      </trkpt>
      <trkpt lat="43.441673" lon="-5.586971">
        <ele>724.0</ele>
        <time>2021-02-14T11:47:23Z</time>
      </trkpt>
      <trkpt lat="43.441673" lon="-5.586978">
        <ele>724.0</ele>
        <time>2021-02-14T11:47:24Z</time>
      </trkpt>
      <trkpt lat="43.44168" lon="-5.586983">
        <ele>724.0</ele>
        <time>2021-02-14T11:47:25Z</time>
      </trkpt>
      <trkpt lat="43.44168" lon="-5.586988">
        <ele>724.0</ele>
        <time>2021-02-14T11:47:26Z</time>
      </trkpt>
      <trkpt lat="43.44168" lon="-5.5869946">
        <ele>724.0</ele>
        <time>2021-02-14T11:47:27Z</time>
      </trkpt>
      <trkpt lat="43.441685" lon="-5.5869985">
        <ele>724.0</ele>
        <time>2021-02-14T11:47:28Z</time>
      </trkpt>
      <trkpt lat="43.441685" lon="-5.587008">
        <ele>724.0</ele>
        <time>2021-02-14T11:47:34Z</time>
      </trkpt>
      <trkpt lat="43.441685" lon="-5.587015">
        <ele>724.0</ele>
        <time>2021-02-14T11:47:53Z</time>
      </trkpt>
      <trkpt lat="43.441685" lon="-5.587015">
        <ele>724.0</ele>
        <time>2021-02-14T11:47:54Z</time>
      </trkpt>
      <trkpt lat="43.441685" lon="-5.587016">
        <ele>724.0</ele>
        <time>2021-02-14T11:47:54Z</time>
      </trkpt>
      <trkpt lat="43.441685" lon="-5.5870175">
        <ele>724.0</ele>
        <time>2021-02-14T11:47:55Z</time>
      </trkpt>
      <trkpt lat="43.441685" lon="-5.5870214">
        <ele>724.0</ele>
        <time>2021-02-14T11:47:56Z</time>
      </trkpt>
      <trkpt lat="43.44168" lon="-5.587026">
        <ele>724.0</ele>
        <time>2021-02-14T11:47:57Z</time>
      </trkpt>
      <trkpt lat="43.44168" lon="-5.587031">
        <ele>724.0</ele>
        <time>2021-02-14T11:47:58Z</time>
      </trkpt>
      <trkpt lat="43.44168" lon="-5.5870366">
        <ele>724.0</ele>
        <time>2021-02-14T11:47:59Z</time>
      </trkpt>
      <trkpt lat="43.441673" lon="-5.5870423">
        <ele>724.0</ele>
        <time>2021-02-14T11:48:00Z</time>
      </trkpt>
      <trkpt lat="43.44167" lon="-5.5870504">
        <ele>724.0</ele>
        <time>2021-02-14T11:48:01Z</time>
      </trkpt>
      <trkpt lat="43.441666" lon="-5.5870585">
        <ele>724.0</ele>
        <time>2021-02-14T11:48:02Z</time>
      </trkpt>
      <trkpt lat="43.441666" lon="-5.587068">
        <ele>724.0</ele>
        <time>2021-02-14T11:48:03Z</time>
      </trkpt>
      <trkpt lat="43.441658" lon="-5.587075">
        <ele>724.0</ele>
        <time>2021-02-14T11:48:04Z</time>
      </trkpt>
      <trkpt lat="43.441654" lon="-5.5870814">
        <ele>724.0</ele>
        <time>2021-02-14T11:48:05Z</time>
      </trkpt>
      <trkpt lat="43.44165" lon="-5.587088">
        <ele>724.0</ele>
        <time>2021-02-14T11:48:06Z</time>
      </trkpt>
      <trkpt lat="43.441643" lon="-5.5870953">
        <ele>724.0</ele>
        <time>2021-02-14T11:48:07Z</time>
      </trkpt>
      <trkpt lat="43.441643" lon="-5.587105">
        <ele>724.0</ele>
        <time>2021-02-14T11:48:08Z</time>
      </trkpt>
      <trkpt lat="43.44164" lon="-5.5871143">
        <ele>724.0</ele>
        <time>2021-02-14T11:48:09Z</time>
      </trkpt>
      <trkpt lat="43.441635" lon="-5.5871243">
        <ele>724.0</ele>
        <time>2021-02-14T11:48:10Z</time>
      </trkpt>
      <trkpt lat="43.441628" lon="-5.587131">
        <ele>724.0</ele>
        <time>2021-02-14T11:48:11Z</time>
      </trkpt>
      <trkpt lat="43.441624" lon="-5.5871367">
        <ele>724.0</ele>
        <time>2021-02-14T11:48:12Z</time>
      </trkpt>
      <trkpt lat="43.441616" lon="-5.587141">
        <ele>724.0</ele>
        <time>2021-02-14T11:48:13Z</time>
      </trkpt>
      <trkpt lat="43.441616" lon="-5.587146">
        <ele>724.0</ele>
        <time>2021-02-14T11:48:14Z</time>
      </trkpt>
      <trkpt lat="43.441612" lon="-5.5871615">
        <ele>724.0</ele>
        <time>2021-02-14T11:48:17Z</time>
      </trkpt>
      <trkpt lat="43.441612" lon="-5.587162">
        <ele>724.0</ele>
        <time>2021-02-14T11:48:18Z</time>
      </trkpt>
      <trkpt lat="43.44161" lon="-5.587167">
        <ele>724.0</ele>
        <time>2021-02-14T11:48:20Z</time>
      </trkpt>
      <trkpt lat="43.44161" lon="-5.5871673">
        <ele>724.0</ele>
        <time>2021-02-14T11:48:21Z</time>
      </trkpt>
      <trkpt lat="43.4416" lon="-5.58717">
        <ele>724.0</ele>
        <time>2021-02-14T11:48:22Z</time>
      </trkpt>
      <trkpt lat="43.4416" lon="-5.587172">
        <ele>724.0</ele>
        <time>2021-02-14T11:48:23Z</time>
      </trkpt>
      <trkpt lat="43.441597" lon="-5.5871725">
        <ele>724.0</ele>
        <time>2021-02-14T11:48:24Z</time>
      </trkpt>
      <trkpt lat="43.441593" lon="-5.5871725">
        <ele>724.0</ele>
        <time>2021-02-14T11:48:25Z</time>
      </trkpt>
      <trkpt lat="43.441593" lon="-5.5871706">
        <ele>724.0</ele>
        <time>2021-02-14T11:48:26Z</time>
      </trkpt>
      <trkpt lat="43.441593" lon="-5.587167">
        <ele>724.0</ele>
        <time>2021-02-14T11:48:27Z</time>
      </trkpt>
      <trkpt lat="43.441586" lon="-5.587163">
        <ele>724.0</ele>
        <time>2021-02-14T11:48:28Z</time>
      </trkpt>
      <trkpt lat="43.441586" lon="-5.5871615">
        <ele>724.0</ele>
        <time>2021-02-14T11:48:29Z</time>
      </trkpt>
      <trkpt lat="43.44158" lon="-5.5871615">
        <ele>724.0</ele>
        <time>2021-02-14T11:48:30Z</time>
      </trkpt>
      <trkpt lat="43.441578" lon="-5.587165">
        <ele>724.0</ele>
        <time>2021-02-14T11:48:33Z</time>
      </trkpt>
      <trkpt lat="43.441578" lon="-5.587165">
        <ele>724.0</ele>
        <time>2021-02-14T11:48:34Z</time>
      </trkpt>
      <trkpt lat="43.441578" lon="-5.587165">
        <ele>724.0</ele>
        <time>2021-02-14T11:48:35Z</time>
      </trkpt>
      <trkpt lat="43.441578" lon="-5.5871596">
        <ele>724.0</ele>
        <time>2021-02-14T11:48:38Z</time>
      </trkpt>
      <trkpt lat="43.44157" lon="-5.5871596">
        <ele>724.0</ele>
        <time>2021-02-14T11:48:39Z</time>
      </trkpt>
      <trkpt lat="43.44157" lon="-5.58716">
        <ele>724.0</ele>
        <time>2021-02-14T11:48:40Z</time>
      </trkpt>
      <trkpt lat="43.441566" lon="-5.587165">
        <ele>724.0</ele>
        <time>2021-02-14T11:48:45Z</time>
      </trkpt>
      <trkpt lat="43.441566" lon="-5.5871634">
        <ele>724.0</ele>
        <time>2021-02-14T11:48:46Z</time>
      </trkpt>
      <trkpt lat="43.441566" lon="-5.587163">
        <ele>724.0</ele>
        <time>2021-02-14T11:48:47Z</time>
      </trkpt>
      <trkpt lat="43.441563" lon="-5.587162">
        <ele>724.0</ele>
        <time>2021-02-14T11:48:48Z</time>
      </trkpt>
      <trkpt lat="43.44155" lon="-5.5871816">
        <ele>724.0</ele>
        <time>2021-02-14T11:49:54Z</time>
      </trkpt>
      <trkpt lat="43.44155" lon="-5.5871916">
        <ele>724.0</ele>
        <time>2021-02-14T11:50:00Z</time>
      </trkpt>
      <trkpt lat="43.44155" lon="-5.5871935">
        <ele>724.0</ele>
        <time>2021-02-14T11:50:01Z</time>
      </trkpt>
      <trkpt lat="43.44155" lon="-5.5871973">
        <ele>724.0</ele>
        <time>2021-02-14T11:50:02Z</time>
      </trkpt>
      <trkpt lat="43.44155" lon="-5.5872025">
        <ele>724.0</ele>
        <time>2021-02-14T11:50:03Z</time>
      </trkpt>
      <trkpt lat="43.44155" lon="-5.5872283">
        <ele>724.0</ele>
        <time>2021-02-14T11:50:25Z</time>
      </trkpt>
      <trkpt lat="43.44155" lon="-5.5872326">
        <ele>724.0</ele>
        <time>2021-02-14T11:50:26Z</time>
      </trkpt>
      <trkpt lat="43.44155" lon="-5.5872397">
        <ele>724.0</ele>
        <time>2021-02-14T11:50:27Z</time>
      </trkpt>
      <trkpt lat="43.44155" lon="-5.5872498">
        <ele>724.0</ele>
        <time>2021-02-14T11:50:28Z</time>
      </trkpt>
      <trkpt lat="43.44155" lon="-5.5872636">
        <ele>724.0</ele>
        <time>2021-02-14T11:50:29Z</time>
      </trkpt>
      <trkpt lat="43.44155" lon="-5.587275">
        <ele>724.0</ele>
        <time>2021-02-14T11:50:30Z</time>
      </trkpt>
      <trkpt lat="43.44155" lon="-5.587286">
        <ele>724.0</ele>
        <time>2021-02-14T11:50:31Z</time>
      </trkpt>
      <trkpt lat="43.44155" lon="-5.5872965">
        <ele>724.0</ele>
        <time>2021-02-14T11:50:32Z</time>
      </trkpt>
      <trkpt lat="43.44155" lon="-5.587313">
        <ele>724.0</ele>
        <time>2021-02-14T11:50:33Z</time>
      </trkpt>
      <trkpt lat="43.441555" lon="-5.58733">
        <ele>724.0</ele>
        <time>2021-02-14T11:50:34Z</time>
      </trkpt>
      <trkpt lat="43.441555" lon="-5.587347">
        <ele>724.0</ele>
        <time>2021-02-14T11:50:35Z</time>
      </trkpt>
      <trkpt lat="43.441563" lon="-5.587365">
        <ele>724.0</ele>
        <time>2021-02-14T11:50:36Z</time>
      </trkpt>
      <trkpt lat="43.441566" lon="-5.587378">
        <ele>724.0</ele>
        <time>2021-02-14T11:50:37Z</time>
      </trkpt>
      <trkpt lat="43.441566" lon="-5.5873876">
        <ele>724.0</ele>
        <time>2021-02-14T11:50:38Z</time>
      </trkpt>
      <trkpt lat="43.441566" lon="-5.587397">
        <ele>724.0</ele>
        <time>2021-02-14T11:50:39Z</time>
      </trkpt>
      <trkpt lat="43.441566" lon="-5.587405">
        <ele>724.0</ele>
        <time>2021-02-14T11:50:40Z</time>
      </trkpt>
      <trkpt lat="43.44157" lon="-5.58741">
        <ele>724.0</ele>
        <time>2021-02-14T11:50:41Z</time>
      </trkpt>
      <trkpt lat="43.44157" lon="-5.587412">
        <ele>724.0</ele>
        <time>2021-02-14T11:50:42Z</time>
      </trkpt>
      <trkpt lat="43.44157" lon="-5.587415">
        <ele>724.0</ele>
        <time>2021-02-14T11:50:43Z</time>
      </trkpt>
      <trkpt lat="43.44157" lon="-5.587415">
        <ele>724.0</ele>
        <time>2021-02-14T11:50:44Z</time>
      </trkpt>
      <trkpt lat="43.44157" lon="-5.5874143">
        <ele>724.0</ele>
        <time>2021-02-14T11:50:45Z</time>
      </trkpt>
      <trkpt lat="43.441566" lon="-5.5874143">
        <ele>724.0</ele>
        <time>2021-02-14T11:50:46Z</time>
      </trkpt>
      <trkpt lat="43.441566" lon="-5.587418">
        <ele>724.0</ele>
        <time>2021-02-14T11:50:47Z</time>
      </trkpt>
      <trkpt lat="43.441566" lon="-5.587421">
        <ele>724.0</ele>
        <time>2021-02-14T11:50:48Z</time>
      </trkpt>
      <trkpt lat="43.441566" lon="-5.5874214">
        <ele>724.0</ele>
        <time>2021-02-14T11:51:06Z</time>
      </trkpt>
      <trkpt lat="43.441566" lon="-5.587421">
        <ele>724.0</ele>
        <time>2021-02-14T11:51:07Z</time>
      </trkpt>
      <trkpt lat="43.441563" lon="-5.587416">
        <ele>724.0</ele>
        <time>2021-02-14T11:51:09Z</time>
      </trkpt>
      <trkpt lat="43.441563" lon="-5.5874143">
        <ele>724.0</ele>
        <time>2021-02-14T11:51:12Z</time>
      </trkpt>
      <trkpt lat="43.441555" lon="-5.5874143">
        <ele>724.0</ele>
        <time>2021-02-14T11:51:13Z</time>
      </trkpt>
      <trkpt lat="43.44155" lon="-5.587416">
        <ele>724.0</ele>
        <time>2021-02-14T11:51:16Z</time>
      </trkpt>
      <trkpt lat="43.44154" lon="-5.587416">
        <ele>724.0</ele>
        <time>2021-02-14T11:51:24Z</time>
      </trkpt>
      <trkpt lat="43.441536" lon="-5.5874248">
        <ele>724.0</ele>
        <time>2021-02-14T11:51:27Z</time>
      </trkpt>
      <trkpt lat="43.441536" lon="-5.5874257">
        <ele>724.0</ele>
        <time>2021-02-14T11:51:28Z</time>
      </trkpt>
      <trkpt lat="43.44154" lon="-5.587432">
        <ele>724.0</ele>
        <time>2021-02-14T11:51:29Z</time>
      </trkpt>
      <trkpt lat="43.441547" lon="-5.5874414">
        <ele>724.0</ele>
        <time>2021-02-14T11:51:30Z</time>
      </trkpt>
      <trkpt lat="43.44155" lon="-5.587451">
        <ele>724.0</ele>
        <time>2021-02-14T11:51:31Z</time>
      </trkpt>
      <trkpt lat="43.441555" lon="-5.587463">
        <ele>724.0</ele>
        <time>2021-02-14T11:51:32Z</time>
      </trkpt>
      <trkpt lat="43.441563" lon="-5.5874724">
        <ele>724.0</ele>
        <time>2021-02-14T11:51:33Z</time>
      </trkpt>
      <trkpt lat="43.441566" lon="-5.587481">
        <ele>724.0</ele>
        <time>2021-02-14T11:51:34Z</time>
      </trkpt>
      <trkpt lat="43.441566" lon="-5.5874887">
        <ele>724.0</ele>
        <time>2021-02-14T11:51:35Z</time>
      </trkpt>
      <trkpt lat="43.441566" lon="-5.5874968">
        <ele>724.0</ele>
        <time>2021-02-14T11:51:36Z</time>
      </trkpt>
      <trkpt lat="43.441566" lon="-5.5875034">
        <ele>724.0</ele>
        <time>2021-02-14T11:51:37Z</time>
      </trkpt>
      <trkpt lat="43.44158" lon="-5.587515">
        <ele>724.0</ele>
        <time>2021-02-14T11:51:40Z</time>
      </trkpt>
      <trkpt lat="43.44158" lon="-5.5875163">
        <ele>724.0</ele>
        <time>2021-02-14T11:51:41Z</time>
      </trkpt>
      <trkpt lat="43.44158" lon="-5.587519">
        <ele>724.0</ele>
        <time>2021-02-14T11:51:42Z</time>
      </trkpt>
      <trkpt lat="43.441586" lon="-5.587523">
        <ele>724.0</ele>
        <time>2021-02-14T11:51:43Z</time>
      </trkpt>
      <trkpt lat="43.441593" lon="-5.587525">
        <ele>724.0</ele>
        <time>2021-02-14T11:51:44Z</time>
      </trkpt>
      <trkpt lat="43.441597" lon="-5.587538">
        <ele>724.0</ele>
        <time>2021-02-14T11:51:46Z</time>
      </trkpt>
      <trkpt lat="43.441597" lon="-5.5875406">
        <ele>724.0</ele>
        <time>2021-02-14T11:51:47Z</time>
      </trkpt>
      <trkpt lat="43.4416" lon="-5.587547">
        <ele>724.0</ele>
        <time>2021-02-14T11:51:48Z</time>
      </trkpt>
      <trkpt lat="43.4416" lon="-5.5875554">
        <ele>724.0</ele>
        <time>2021-02-14T11:51:49Z</time>
      </trkpt>
      <trkpt lat="43.4416" lon="-5.5875635">
        <ele>724.0</ele>
        <time>2021-02-14T11:51:50Z</time>
      </trkpt>
      <trkpt lat="43.4416" lon="-5.5875697">
        <ele>724.0</ele>
        <time>2021-02-14T11:51:51Z</time>
      </trkpt>
      <trkpt lat="43.4416" lon="-5.587576">
        <ele>724.0</ele>
        <time>2021-02-14T11:51:52Z</time>
      </trkpt>
      <trkpt lat="43.4416" lon="-5.5875816">
        <ele>724.0</ele>
        <time>2021-02-14T11:51:53Z</time>
      </trkpt>
      <trkpt lat="43.4416" lon="-5.5875854">
        <ele>724.0</ele>
        <time>2021-02-14T11:51:54Z</time>
      </trkpt>
      <trkpt lat="43.441597" lon="-5.5875893">
        <ele>724.0</ele>
        <time>2021-02-14T11:51:55Z</time>
      </trkpt>
      <trkpt lat="43.441593" lon="-5.587596">
        <ele>724.0</ele>
        <time>2021-02-14T11:52:01Z</time>
      </trkpt>
      <trkpt lat="43.441586" lon="-5.587601">
        <ele>728.0</ele>
        <time>2021-02-14T11:52:19Z</time>
      </trkpt>
      <trkpt lat="43.441586" lon="-5.587602">
        <ele>728.0</ele>
        <time>2021-02-14T11:52:20Z</time>
      </trkpt>
      <trkpt lat="43.441578" lon="-5.5876145">
        <ele>728.0</ele>
        <time>2021-02-14T11:52:28Z</time>
      </trkpt>
      <trkpt lat="43.441578" lon="-5.5876184">
        <ele>728.0</ele>
        <time>2021-02-14T11:52:29Z</time>
      </trkpt>
      <trkpt lat="43.441566" lon="-5.587627">
        <ele>728.0</ele>
        <time>2021-02-14T11:52:30Z</time>
      </trkpt>
      <trkpt lat="43.441563" lon="-5.5876384">
        <ele>728.0</ele>
        <time>2021-02-14T11:52:31Z</time>
      </trkpt>
      <trkpt lat="43.441547" lon="-5.58765">
        <ele>728.0</ele>
        <time>2021-02-14T11:52:32Z</time>
      </trkpt>
      <trkpt lat="43.441536" lon="-5.587665">
        <ele>728.0</ele>
        <time>2021-02-14T11:52:33Z</time>
      </trkpt>
      <trkpt lat="43.441525" lon="-5.5876837">
        <ele>728.0</ele>
        <time>2021-02-14T11:52:34Z</time>
      </trkpt>
      <trkpt lat="43.44152" lon="-5.587703">
        <ele>728.0</ele>
        <time>2021-02-14T11:52:35Z</time>
      </trkpt>
      <trkpt lat="43.44151" lon="-5.58772">
        <ele>728.0</ele>
        <time>2021-02-14T11:52:36Z</time>
      </trkpt>
      <trkpt lat="43.441505" lon="-5.5877337">
        <ele>728.0</ele>
        <time>2021-02-14T11:52:37Z</time>
      </trkpt>
      <trkpt lat="43.4415" lon="-5.587746">
        <ele>728.0</ele>
        <time>2021-02-14T11:52:38Z</time>
      </trkpt>
      <trkpt lat="43.441494" lon="-5.5877566">
        <ele>728.0</ele>
        <time>2021-02-14T11:52:39Z</time>
      </trkpt>
      <trkpt lat="43.44149" lon="-5.5877686">
        <ele>728.0</ele>
        <time>2021-02-14T11:52:40Z</time>
      </trkpt>
      <trkpt lat="43.441486" lon="-5.5877786">
        <ele>728.0</ele>
        <time>2021-02-14T11:52:41Z</time>
      </trkpt>
      <trkpt lat="43.44148" lon="-5.5877876">
        <ele>728.0</ele>
        <time>2021-02-14T11:52:42Z</time>
      </trkpt>
      <trkpt lat="43.441475" lon="-5.5877957">
        <ele>728.0</ele>
        <time>2021-02-14T11:52:43Z</time>
      </trkpt>
      <trkpt lat="43.44147" lon="-5.5878043">
        <ele>728.0</ele>
        <time>2021-02-14T11:52:44Z</time>
      </trkpt>
      <trkpt lat="43.441463" lon="-5.5878158">
        <ele>728.0</ele>
        <time>2021-02-14T11:52:45Z</time>
      </trkpt>
      <trkpt lat="43.44146" lon="-5.5878267">
        <ele>728.0</ele>
        <time>2021-02-14T11:52:46Z</time>
      </trkpt>
      <trkpt lat="43.44146" lon="-5.5878386">
        <ele>728.0</ele>
        <time>2021-02-14T11:52:47Z</time>
      </trkpt>
      <trkpt lat="43.441456" lon="-5.587849">
        <ele>728.0</ele>
        <time>2021-02-14T11:52:48Z</time>
      </trkpt>
      <trkpt lat="43.44145" lon="-5.587861">
        <ele>728.0</ele>
        <time>2021-02-14T11:52:49Z</time>
      </trkpt>
      <trkpt lat="43.441444" lon="-5.587874">
        <ele>728.0</ele>
        <time>2021-02-14T11:52:50Z</time>
      </trkpt>
      <trkpt lat="43.44144" lon="-5.5878887">
        <ele>728.0</ele>
        <time>2021-02-14T11:52:51Z</time>
      </trkpt>
      <trkpt lat="43.441433" lon="-5.5879025">
        <ele>728.0</ele>
        <time>2021-02-14T11:52:52Z</time>
      </trkpt>
      <trkpt lat="43.441433" lon="-5.587917">
        <ele>728.0</ele>
        <time>2021-02-14T11:52:53Z</time>
      </trkpt>
      <trkpt lat="43.44143" lon="-5.587932">
        <ele>728.0</ele>
        <time>2021-02-14T11:52:54Z</time>
      </trkpt>
      <trkpt lat="43.441418" lon="-5.5879455">
        <ele>728.0</ele>
        <time>2021-02-14T11:52:55Z</time>
      </trkpt>
      <trkpt lat="43.441418" lon="-5.587958">
        <ele>728.0</ele>
        <time>2021-02-14T11:52:56Z</time>
      </trkpt>
      <trkpt lat="43.441414" lon="-5.5879693">
        <ele>728.0</ele>
        <time>2021-02-14T11:52:57Z</time>
      </trkpt>
      <trkpt lat="43.441406" lon="-5.587981">
        <ele>728.0</ele>
        <time>2021-02-14T11:52:58Z</time>
      </trkpt>
      <trkpt lat="43.441402" lon="-5.587996">
        <ele>728.0</ele>
        <time>2021-02-14T11:52:59Z</time>
      </trkpt>
      <trkpt lat="43.4414" lon="-5.588011">
        <ele>728.0</ele>
        <time>2021-02-14T11:53:00Z</time>
      </trkpt>
      <trkpt lat="43.44139" lon="-5.588025">
        <ele>728.0</ele>
        <time>2021-02-14T11:53:01Z</time>
      </trkpt>
      <trkpt lat="43.441387" lon="-5.588035">
        <ele>728.0</ele>
        <time>2021-02-14T11:53:02Z</time>
      </trkpt>
      <trkpt lat="43.441376" lon="-5.588044">
        <ele>728.0</ele>
        <time>2021-02-14T11:53:03Z</time>
      </trkpt>
      <trkpt lat="43.441372" lon="-5.588053">
        <ele>728.0</ele>
        <time>2021-02-14T11:53:04Z</time>
      </trkpt>
      <trkpt lat="43.44136" lon="-5.5880613">
        <ele>728.0</ele>
        <time>2021-02-14T11:53:05Z</time>
      </trkpt>
      <trkpt lat="43.441353" lon="-5.5880704">
        <ele>728.0</ele>
        <time>2021-02-14T11:53:06Z</time>
      </trkpt>
      <trkpt lat="43.441345" lon="-5.5880775">
        <ele>728.0</ele>
        <time>2021-02-14T11:53:07Z</time>
      </trkpt>
      <trkpt lat="43.44134" lon="-5.5880837">
        <ele>728.0</ele>
        <time>2021-02-14T11:53:08Z</time>
      </trkpt>
      <trkpt lat="43.441338" lon="-5.5880876">
        <ele>728.0</ele>
        <time>2021-02-14T11:53:09Z</time>
      </trkpt>
      <trkpt lat="43.441322" lon="-5.5881023">
        <ele>728.0</ele>
        <time>2021-02-14T11:53:14Z</time>
      </trkpt>
      <trkpt lat="43.441322" lon="-5.5881057">
        <ele>728.0</ele>
        <time>2021-02-14T11:53:15Z</time>
      </trkpt>
      <trkpt lat="43.441315" lon="-5.5881114">
        <ele>728.0</ele>
        <time>2021-02-14T11:53:16Z</time>
      </trkpt>
      <trkpt lat="43.44131" lon="-5.5881186">
        <ele>728.0</ele>
        <time>2021-02-14T11:53:17Z</time>
      </trkpt>
      <trkpt lat="43.441307" lon="-5.588126">
        <ele>728.0</ele>
        <time>2021-02-14T11:53:18Z</time>
      </trkpt>
      <trkpt lat="43.441296" lon="-5.5881343">
        <ele>728.0</ele>
        <time>2021-02-14T11:53:19Z</time>
      </trkpt>
      <trkpt lat="43.44129" lon="-5.5881433">
        <ele>728.0</ele>
        <time>2021-02-14T11:53:20Z</time>
      </trkpt>
      <trkpt lat="43.44128" lon="-5.588151">
        <ele>728.0</ele>
        <time>2021-02-14T11:53:21Z</time>
      </trkpt>
      <trkpt lat="43.441277" lon="-5.5881596">
        <ele>728.0</ele>
        <time>2021-02-14T11:53:22Z</time>
      </trkpt>
      <trkpt lat="43.441265" lon="-5.5881677">
        <ele>728.0</ele>
        <time>2021-02-14T11:53:23Z</time>
      </trkpt>
      <trkpt lat="43.44126" lon="-5.5881767">
        <ele>728.0</ele>
        <time>2021-02-14T11:53:24Z</time>
      </trkpt>
      <trkpt lat="43.44125" lon="-5.588186">
        <ele>728.0</ele>
        <time>2021-02-14T11:53:25Z</time>
      </trkpt>
      <trkpt lat="43.441246" lon="-5.5881934">
        <ele>728.0</ele>
        <time>2021-02-14T11:53:26Z</time>
      </trkpt>
      <trkpt lat="43.441235" lon="-5.588201">
        <ele>728.0</ele>
        <time>2021-02-14T11:53:27Z</time>
      </trkpt>
      <trkpt lat="43.441227" lon="-5.5882072">
        <ele>728.0</ele>
        <time>2021-02-14T11:53:28Z</time>
      </trkpt>
      <trkpt lat="43.44122" lon="-5.588213">
        <ele>728.0</ele>
        <time>2021-02-14T11:53:29Z</time>
      </trkpt>
      <trkpt lat="43.441208" lon="-5.5882177">
        <ele>728.0</ele>
        <time>2021-02-14T11:53:30Z</time>
      </trkpt>
      <trkpt lat="43.441204" lon="-5.5882225">
        <ele>728.0</ele>
        <time>2021-02-14T11:53:31Z</time>
      </trkpt>
      <trkpt lat="43.441196" lon="-5.5882287">
        <ele>728.0</ele>
        <time>2021-02-14T11:53:32Z</time>
      </trkpt>
      <trkpt lat="43.441193" lon="-5.588235">
        <ele>728.0</ele>
        <time>2021-02-14T11:53:33Z</time>
      </trkpt>
      <trkpt lat="43.44119" lon="-5.588239">
        <ele>728.0</ele>
        <time>2021-02-14T11:53:34Z</time>
      </trkpt>
      <trkpt lat="43.441177" lon="-5.588243">
        <ele>728.0</ele>
        <time>2021-02-14T11:53:35Z</time>
      </trkpt>
      <trkpt lat="43.441174" lon="-5.588248">
        <ele>728.0</ele>
        <time>2021-02-14T11:53:36Z</time>
      </trkpt>
      <trkpt lat="43.441166" lon="-5.588251">
        <ele>728.0</ele>
        <time>2021-02-14T11:53:37Z</time>
      </trkpt>
      <trkpt lat="43.44116" lon="-5.588256">
        <ele>728.0</ele>
        <time>2021-02-14T11:53:38Z</time>
      </trkpt>
      <trkpt lat="43.44115" lon="-5.588261">
        <ele>728.0</ele>
        <time>2021-02-14T11:53:39Z</time>
      </trkpt>
      <trkpt lat="43.441147" lon="-5.5882664">
        <ele>728.0</ele>
        <time>2021-02-14T11:53:40Z</time>
      </trkpt>
      <trkpt lat="43.441135" lon="-5.5882707">
        <ele>728.0</ele>
        <time>2021-02-14T11:53:41Z</time>
      </trkpt>
      <trkpt lat="43.44113" lon="-5.5882754">
        <ele>728.0</ele>
        <time>2021-02-14T11:53:42Z</time>
      </trkpt>
      <trkpt lat="43.44112" lon="-5.5882783">
        <ele>728.0</ele>
        <time>2021-02-14T11:53:43Z</time>
      </trkpt>
      <trkpt lat="43.441116" lon="-5.5882816">
        <ele>728.0</ele>
        <time>2021-02-14T11:53:44Z</time>
      </trkpt>
      <trkpt lat="43.441097" lon="-5.5882893">
        <ele>728.0</ele>
        <time>2021-02-14T11:53:46Z</time>
      </trkpt>
      <trkpt lat="43.441097" lon="-5.5882893">
        <ele>728.0</ele>
        <time>2021-02-14T11:53:47Z</time>
      </trkpt>
      <trkpt lat="43.441097" lon="-5.5882916">
        <ele>728.0</ele>
        <time>2021-02-14T11:53:48Z</time>
      </trkpt>
      <trkpt lat="43.44109" lon="-5.588295">
        <ele>728.0</ele>
        <time>2021-02-14T11:53:49Z</time>
      </trkpt>
      <trkpt lat="43.441086" lon="-5.5882998">
        <ele>728.0</ele>
        <time>2021-02-14T11:53:50Z</time>
      </trkpt>
      <trkpt lat="43.441074" lon="-5.5883045">
        <ele>728.0</ele>
        <time>2021-02-14T11:53:51Z</time>
      </trkpt>
      <trkpt lat="43.44107" lon="-5.588311">
        <ele>728.0</ele>
        <time>2021-02-14T11:53:52Z</time>
      </trkpt>
      <trkpt lat="43.44106" lon="-5.588318">
        <ele>728.0</ele>
        <time>2021-02-14T11:53:53Z</time>
      </trkpt>
      <trkpt lat="43.441055" lon="-5.5883245">
        <ele>728.0</ele>
        <time>2021-02-14T11:53:54Z</time>
      </trkpt>
      <trkpt lat="43.441044" lon="-5.5883327">
        <ele>728.0</ele>
        <time>2021-02-14T11:53:55Z</time>
      </trkpt>
      <trkpt lat="43.441032" lon="-5.5883417">
        <ele>728.0</ele>
        <time>2021-02-14T11:53:56Z</time>
      </trkpt>
      <trkpt lat="43.441025" lon="-5.5883493">
        <ele>728.0</ele>
        <time>2021-02-14T11:53:57Z</time>
      </trkpt>
      <trkpt lat="43.441013" lon="-5.5883565">
        <ele>728.0</ele>
        <time>2021-02-14T11:53:58Z</time>
      </trkpt>
      <trkpt lat="43.441" lon="-5.588361">
        <ele>728.0</ele>
        <time>2021-02-14T11:53:59Z</time>
      </trkpt>
      <trkpt lat="43.440994" lon="-5.5883656">
        <ele>728.0</ele>
        <time>2021-02-14T11:54:00Z</time>
      </trkpt>
      <trkpt lat="43.440983" lon="-5.5883703">
        <ele>728.0</ele>
        <time>2021-02-14T11:54:01Z</time>
      </trkpt>
      <trkpt lat="43.44097" lon="-5.5883756">
        <ele>728.0</ele>
        <time>2021-02-14T11:54:02Z</time>
      </trkpt>
      <trkpt lat="43.440964" lon="-5.5883813">
        <ele>728.0</ele>
        <time>2021-02-14T11:54:03Z</time>
      </trkpt>
      <trkpt lat="43.44095" lon="-5.5883884">
        <ele>728.0</ele>
        <time>2021-02-14T11:54:04Z</time>
      </trkpt>
      <trkpt lat="43.44094" lon="-5.588394">
        <ele>728.0</ele>
        <time>2021-02-14T11:54:05Z</time>
      </trkpt>
      <trkpt lat="43.440933" lon="-5.588398">
        <ele>728.0</ele>
        <time>2021-02-14T11:54:06Z</time>
      </trkpt>
      <trkpt lat="43.44092" lon="-5.588403">
        <ele>728.0</ele>
        <time>2021-02-14T11:54:07Z</time>
      </trkpt>
      <trkpt lat="43.440918" lon="-5.588411">
        <ele>728.0</ele>
        <time>2021-02-14T11:54:08Z</time>
      </trkpt>
      <trkpt lat="43.440907" lon="-5.588422">
        <ele>728.0</ele>
        <time>2021-02-14T11:54:09Z</time>
      </trkpt>
      <trkpt lat="43.440903" lon="-5.5884333">
        <ele>728.0</ele>
        <time>2021-02-14T11:54:10Z</time>
      </trkpt>
      <trkpt lat="43.44089" lon="-5.5884438">
        <ele>728.0</ele>
        <time>2021-02-14T11:54:11Z</time>
      </trkpt>
      <trkpt lat="43.44088" lon="-5.588452">
        <ele>728.0</ele>
        <time>2021-02-14T11:54:12Z</time>
      </trkpt>
      <trkpt lat="43.440872" lon="-5.5884595">
        <ele>728.0</ele>
        <time>2021-02-14T11:54:13Z</time>
      </trkpt>
      <trkpt lat="43.44086" lon="-5.588465">
        <ele>728.0</ele>
        <time>2021-02-14T11:54:14Z</time>
      </trkpt>
      <trkpt lat="43.44085" lon="-5.5884705">
        <ele>728.0</ele>
        <time>2021-02-14T11:54:15Z</time>
      </trkpt>
      <trkpt lat="43.440838" lon="-5.588474">
        <ele>728.0</ele>
        <time>2021-02-14T11:54:16Z</time>
      </trkpt>
      <trkpt lat="43.44083" lon="-5.5884767">
        <ele>728.0</ele>
        <time>2021-02-14T11:54:17Z</time>
      </trkpt>
      <trkpt lat="43.44082" lon="-5.588484">
        <ele>728.0</ele>
        <time>2021-02-14T11:54:18Z</time>
      </trkpt>
      <trkpt lat="43.440815" lon="-5.58849">
        <ele>728.0</ele>
        <time>2021-02-14T11:54:19Z</time>
      </trkpt>
      <trkpt lat="43.440804" lon="-5.588497">
        <ele>728.0</ele>
        <time>2021-02-14T11:54:20Z</time>
      </trkpt>
      <trkpt lat="43.4408" lon="-5.588505">
        <ele>728.0</ele>
        <time>2021-02-14T11:54:21Z</time>
      </trkpt>
      <trkpt lat="43.44079" lon="-5.5885124">
        <ele>728.0</ele>
        <time>2021-02-14T11:54:22Z</time>
      </trkpt>
      <trkpt lat="43.440777" lon="-5.5885205">
        <ele>728.0</ele>
        <time>2021-02-14T11:54:23Z</time>
      </trkpt>
      <trkpt lat="43.44077" lon="-5.588527">
        <ele>728.0</ele>
        <time>2021-02-14T11:54:24Z</time>
      </trkpt>
      <trkpt lat="43.440758" lon="-5.588534">
        <ele>728.0</ele>
        <time>2021-02-14T11:54:25Z</time>
      </trkpt>
      <trkpt lat="43.440746" lon="-5.58854">
        <ele>728.0</ele>
        <time>2021-02-14T11:54:26Z</time>
      </trkpt>
      <trkpt lat="43.440742" lon="-5.588546">
        <ele>728.0</ele>
        <time>2021-02-14T11:54:27Z</time>
      </trkpt>
      <trkpt lat="43.44073" lon="-5.588553">
        <ele>728.0</ele>
        <time>2021-02-14T11:54:28Z</time>
      </trkpt>
      <trkpt lat="43.440723" lon="-5.58856">
        <ele>728.0</ele>
        <time>2021-02-14T11:54:29Z</time>
      </trkpt>
      <trkpt lat="43.440712" lon="-5.588566">
        <ele>728.0</ele>
        <time>2021-02-14T11:54:30Z</time>
      </trkpt>
      <trkpt lat="43.4407" lon="-5.588572">
        <ele>728.0</ele>
        <time>2021-02-14T11:54:31Z</time>
      </trkpt>
      <trkpt lat="43.440693" lon="-5.588579">
        <ele>728.0</ele>
        <time>2021-02-14T11:54:32Z</time>
      </trkpt>
      <trkpt lat="43.44068" lon="-5.5885854">
        <ele>728.0</ele>
        <time>2021-02-14T11:54:33Z</time>
      </trkpt>
      <trkpt lat="43.44067" lon="-5.588592">
        <ele>728.0</ele>
        <time>2021-02-14T11:54:34Z</time>
      </trkpt>
      <trkpt lat="43.440662" lon="-5.5885997">
        <ele>728.0</ele>
        <time>2021-02-14T11:54:35Z</time>
      </trkpt>
      <trkpt lat="43.440655" lon="-5.588607">
        <ele>728.0</ele>
        <time>2021-02-14T11:54:36Z</time>
      </trkpt>
      <trkpt lat="43.440643" lon="-5.588614">
        <ele>728.0</ele>
        <time>2021-02-14T11:54:37Z</time>
      </trkpt>
      <trkpt lat="43.440636" lon="-5.588622">
        <ele>728.0</ele>
        <time>2021-02-14T11:54:38Z</time>
      </trkpt>
      <trkpt lat="43.440628" lon="-5.58863">
        <ele>728.0</ele>
        <time>2021-02-14T11:54:39Z</time>
      </trkpt>
      <trkpt lat="43.440624" lon="-5.5886383">
        <ele>728.0</ele>
        <time>2021-02-14T11:54:40Z</time>
      </trkpt>
      <trkpt lat="43.44062" lon="-5.588645">
        <ele>728.0</ele>
        <time>2021-02-14T11:54:41Z</time>
      </trkpt>
      <trkpt lat="43.440613" lon="-5.5886517">
        <ele>728.0</ele>
        <time>2021-02-14T11:54:42Z</time>
      </trkpt>
      <trkpt lat="43.44061" lon="-5.5886583">
        <ele>729.0</ele>
        <time>2021-02-14T11:54:43Z</time>
      </trkpt>
      <trkpt lat="43.440605" lon="-5.588665">
        <ele>729.0</ele>
        <time>2021-02-14T11:54:44Z</time>
      </trkpt>
      <trkpt lat="43.440598" lon="-5.5886726">
        <ele>729.0</ele>
        <time>2021-02-14T11:54:45Z</time>
      </trkpt>
      <trkpt lat="43.440594" lon="-5.5886807">
        <ele>729.0</ele>
        <time>2021-02-14T11:54:46Z</time>
      </trkpt>
      <trkpt lat="43.440582" lon="-5.588688">
        <ele>729.0</ele>
        <time>2021-02-14T11:54:47Z</time>
      </trkpt>
      <trkpt lat="43.44058" lon="-5.5886936">
        <ele>729.0</ele>
        <time>2021-02-14T11:54:48Z</time>
      </trkpt>
      <trkpt lat="43.440567" lon="-5.5886974">
        <ele>729.0</ele>
        <time>2021-02-14T11:54:49Z</time>
      </trkpt>
      <trkpt lat="43.44056" lon="-5.588701">
        <ele>729.0</ele>
        <time>2021-02-14T11:54:50Z</time>
      </trkpt>
      <trkpt lat="43.440548" lon="-5.588703">
        <ele>729.0</ele>
        <time>2021-02-14T11:54:51Z</time>
      </trkpt>
      <trkpt lat="43.440544" lon="-5.588704">
        <ele>729.0</ele>
        <time>2021-02-14T11:54:52Z</time>
      </trkpt>
      <trkpt lat="43.440533" lon="-5.5887046">
        <ele>729.0</ele>
        <time>2021-02-14T11:54:53Z</time>
      </trkpt>
      <trkpt lat="43.44052" lon="-5.588705">
        <ele>729.0</ele>
        <time>2021-02-14T11:54:54Z</time>
      </trkpt>
      <trkpt lat="43.440514" lon="-5.588705">
        <ele>729.0</ele>
        <time>2021-02-14T11:54:55Z</time>
      </trkpt>
      <trkpt lat="43.440506" lon="-5.588706">
        <ele>729.0</ele>
        <time>2021-02-14T11:54:56Z</time>
      </trkpt>
      <trkpt lat="43.4405" lon="-5.5887065">
        <ele>730.0</ele>
        <time>2021-02-14T11:54:57Z</time>
      </trkpt>
      <trkpt lat="43.440487" lon="-5.588708">
        <ele>730.0</ele>
        <time>2021-02-14T11:54:58Z</time>
      </trkpt>
      <trkpt lat="43.440475" lon="-5.5887094">
        <ele>730.0</ele>
        <time>2021-02-14T11:54:59Z</time>
      </trkpt>
      <trkpt lat="43.440464" lon="-5.5887113">
        <ele>730.0</ele>
        <time>2021-02-14T11:55:00Z</time>
      </trkpt>
      <trkpt lat="43.44046" lon="-5.5887103">
        <ele>730.0</ele>
        <time>2021-02-14T11:55:01Z</time>
      </trkpt>
      <trkpt lat="43.44045" lon="-5.58871">
        <ele>730.0</ele>
        <time>2021-02-14T11:55:02Z</time>
      </trkpt>
      <trkpt lat="43.44044" lon="-5.588708">
        <ele>731.0</ele>
        <time>2021-02-14T11:55:03Z</time>
      </trkpt>
      <trkpt lat="43.44043" lon="-5.5887065">
        <ele>731.0</ele>
        <time>2021-02-14T11:55:04Z</time>
      </trkpt>
      <trkpt lat="43.44042" lon="-5.588705">
        <ele>731.0</ele>
        <time>2021-02-14T11:55:05Z</time>
      </trkpt>
      <trkpt lat="43.440414" lon="-5.588706">
        <ele>731.0</ele>
        <time>2021-02-14T11:55:06Z</time>
      </trkpt>
      <trkpt lat="43.440403" lon="-5.588707">
        <ele>731.0</ele>
        <time>2021-02-14T11:55:07Z</time>
      </trkpt>
      <trkpt lat="43.440395" lon="-5.588708">
        <ele>732.0</ele>
        <time>2021-02-14T11:55:08Z</time>
      </trkpt>
      <trkpt lat="43.440388" lon="-5.588707">
        <ele>732.0</ele>
        <time>2021-02-14T11:55:09Z</time>
      </trkpt>
      <trkpt lat="43.44038" lon="-5.5887065">
        <ele>732.0</ele>
        <time>2021-02-14T11:55:10Z</time>
      </trkpt>
      <trkpt lat="43.440372" lon="-5.5887046">
        <ele>732.0</ele>
        <time>2021-02-14T11:55:11Z</time>
      </trkpt>
      <trkpt lat="43.440365" lon="-5.588702">
        <ele>733.0</ele>
        <time>2021-02-14T11:55:12Z</time>
      </trkpt>
      <trkpt lat="43.440353" lon="-5.588701">
        <ele>733.0</ele>
        <time>2021-02-14T11:55:13Z</time>
      </trkpt>
      <trkpt lat="43.440342" lon="-5.5887003">
        <ele>733.0</ele>
        <time>2021-02-14T11:55:14Z</time>
      </trkpt>
      <trkpt lat="43.44034" lon="-5.5886993">
        <ele>733.0</ele>
        <time>2021-02-14T11:55:15Z</time>
      </trkpt>
      <trkpt lat="43.440327" lon="-5.5887003">
        <ele>733.0</ele>
        <time>2021-02-14T11:55:16Z</time>
      </trkpt>
      <trkpt lat="43.44032" lon="-5.5887012">
        <ele>733.0</ele>
        <time>2021-02-14T11:55:17Z</time>
      </trkpt>
      <trkpt lat="43.44031" lon="-5.5887046">
        <ele>733.0</ele>
        <time>2021-02-14T11:55:18Z</time>
      </trkpt>
      <trkpt lat="43.440308" lon="-5.588708">
        <ele>733.0</ele>
        <time>2021-02-14T11:55:19Z</time>
      </trkpt>
      <trkpt lat="43.440296" lon="-5.5887117">
        <ele>733.0</ele>
        <time>2021-02-14T11:55:20Z</time>
      </trkpt>
      <trkpt lat="43.440292" lon="-5.5887156">
        <ele>734.0</ele>
        <time>2021-02-14T11:55:21Z</time>
      </trkpt>
      <trkpt lat="43.44028" lon="-5.588721">
        <ele>734.0</ele>
        <time>2021-02-14T11:55:22Z</time>
      </trkpt>
      <trkpt lat="43.44027" lon="-5.588727">
        <ele>734.0</ele>
        <time>2021-02-14T11:55:23Z</time>
      </trkpt>
      <trkpt lat="43.44026" lon="-5.588731">
        <ele>734.0</ele>
        <time>2021-02-14T11:55:24Z</time>
      </trkpt>
      <trkpt lat="43.440254" lon="-5.5887337">
        <ele>734.0</ele>
        <time>2021-02-14T11:55:25Z</time>
      </trkpt>
      <trkpt lat="43.440247" lon="-5.588734">
        <ele>734.0</ele>
        <time>2021-02-14T11:55:26Z</time>
      </trkpt>
      <trkpt lat="43.440235" lon="-5.588738">
        <ele>735.0</ele>
        <time>2021-02-14T11:55:27Z</time>
      </trkpt>
      <trkpt lat="43.44023" lon="-5.5887423">
        <ele>735.0</ele>
        <time>2021-02-14T11:55:28Z</time>
      </trkpt>
      <trkpt lat="43.44022" lon="-5.588748">
        <ele>735.0</ele>
        <time>2021-02-14T11:55:29Z</time>
      </trkpt>
      <trkpt lat="43.44021" lon="-5.588753">
        <ele>735.0</ele>
        <time>2021-02-14T11:55:30Z</time>
      </trkpt>
      <trkpt lat="43.4402" lon="-5.5887556">
        <ele>735.0</ele>
        <time>2021-02-14T11:55:31Z</time>
      </trkpt>
      <trkpt lat="43.44019" lon="-5.5887585">
        <ele>735.0</ele>
        <time>2021-02-14T11:55:32Z</time>
      </trkpt>
      <trkpt lat="43.440178" lon="-5.5887585">
        <ele>736.0</ele>
        <time>2021-02-14T11:55:33Z</time>
      </trkpt>
      <trkpt lat="43.44017" lon="-5.588758">
        <ele>736.0</ele>
        <time>2021-02-14T11:55:34Z</time>
      </trkpt>
      <trkpt lat="43.44016" lon="-5.5887556">
        <ele>736.0</ele>
        <time>2021-02-14T11:55:35Z</time>
      </trkpt>
      <trkpt lat="43.440147" lon="-5.588753">
        <ele>736.0</ele>
        <time>2021-02-14T11:55:36Z</time>
      </trkpt>
      <trkpt lat="43.44014" lon="-5.588751">
        <ele>737.0</ele>
        <time>2021-02-14T11:55:37Z</time>
      </trkpt>
      <trkpt lat="43.44013" lon="-5.588748">
        <ele>737.0</ele>
        <time>2021-02-14T11:55:38Z</time>
      </trkpt>
      <trkpt lat="43.440117" lon="-5.5887475">
        <ele>737.0</ele>
        <time>2021-02-14T11:55:39Z</time>
      </trkpt>
      <trkpt lat="43.44011" lon="-5.588747">
        <ele>737.0</ele>
        <time>2021-02-14T11:55:40Z</time>
      </trkpt>
      <trkpt lat="43.440098" lon="-5.5887475">
        <ele>737.0</ele>
        <time>2021-02-14T11:55:41Z</time>
      </trkpt>
      <trkpt lat="43.440086" lon="-5.588748">
        <ele>737.0</ele>
        <time>2021-02-14T11:55:42Z</time>
      </trkpt>
      <trkpt lat="43.440075" lon="-5.5887494">
        <ele>738.0</ele>
        <time>2021-02-14T11:55:43Z</time>
      </trkpt>
      <trkpt lat="43.44007" lon="-5.58875">
        <ele>738.0</ele>
        <time>2021-02-14T11:55:44Z</time>
      </trkpt>
      <trkpt lat="43.44006" lon="-5.5887513">
        <ele>738.0</ele>
        <time>2021-02-14T11:55:45Z</time>
      </trkpt>
      <trkpt lat="43.440052" lon="-5.5887527">
        <ele>738.0</ele>
        <time>2021-02-14T11:55:46Z</time>
      </trkpt>
      <trkpt lat="43.440044" lon="-5.5887537">
        <ele>738.0</ele>
        <time>2021-02-14T11:55:47Z</time>
      </trkpt>
      <trkpt lat="43.440037" lon="-5.5887556">
        <ele>739.0</ele>
        <time>2021-02-14T11:55:48Z</time>
      </trkpt>
      <trkpt lat="43.440025" lon="-5.5887556">
        <ele>739.0</ele>
        <time>2021-02-14T11:55:49Z</time>
      </trkpt>
      <trkpt lat="43.440014" lon="-5.5887556">
        <ele>739.0</ele>
        <time>2021-02-14T11:55:50Z</time>
      </trkpt>
      <trkpt lat="43.440006" lon="-5.588755">
        <ele>739.0</ele>
        <time>2021-02-14T11:55:51Z</time>
      </trkpt>
      <trkpt lat="43.439995" lon="-5.5887566">
        <ele>739.0</ele>
        <time>2021-02-14T11:55:52Z</time>
      </trkpt>
      <trkpt lat="43.43999" lon="-5.5887585">
        <ele>739.0</ele>
        <time>2021-02-14T11:55:53Z</time>
      </trkpt>
      <trkpt lat="43.43998" lon="-5.5887604">
        <ele>740.0</ele>
        <time>2021-02-14T11:55:54Z</time>
      </trkpt>
      <trkpt lat="43.43997" lon="-5.588762">
        <ele>740.0</ele>
        <time>2021-02-14T11:55:55Z</time>
      </trkpt>
      <trkpt lat="43.439953" lon="-5.5887637">
        <ele>740.0</ele>
        <time>2021-02-14T11:55:56Z</time>
      </trkpt>
      <trkpt lat="43.439945" lon="-5.5887666">
        <ele>740.0</ele>
        <time>2021-02-14T11:55:57Z</time>
      </trkpt>
      <trkpt lat="43.439934" lon="-5.588768">
        <ele>741.0</ele>
        <time>2021-02-14T11:55:58Z</time>
      </trkpt>
      <trkpt lat="43.43993" lon="-5.5887694">
        <ele>741.0</ele>
        <time>2021-02-14T11:55:59Z</time>
      </trkpt>
      <trkpt lat="43.43992" lon="-5.58877">
        <ele>741.0</ele>
        <time>2021-02-14T11:56:00Z</time>
      </trkpt>
      <trkpt lat="43.439907" lon="-5.58877">
        <ele>741.0</ele>
        <time>2021-02-14T11:56:01Z</time>
      </trkpt>
      <trkpt lat="43.4399" lon="-5.5887713">
        <ele>741.0</ele>
        <time>2021-02-14T11:56:02Z</time>
      </trkpt>
      <trkpt lat="43.439888" lon="-5.588772">
        <ele>741.0</ele>
        <time>2021-02-14T11:56:03Z</time>
      </trkpt>
      <trkpt lat="43.43988" lon="-5.5887737">
        <ele>741.0</ele>
        <time>2021-02-14T11:56:04Z</time>
      </trkpt>
      <trkpt lat="43.439873" lon="-5.588776">
        <ele>741.0</ele>
        <time>2021-02-14T11:56:05Z</time>
      </trkpt>
      <trkpt lat="43.439865" lon="-5.5887794">
        <ele>742.0</ele>
        <time>2021-02-14T11:56:06Z</time>
      </trkpt>
      <trkpt lat="43.439857" lon="-5.588781">
        <ele>742.0</ele>
        <time>2021-02-14T11:56:07Z</time>
      </trkpt>
      <trkpt lat="43.439846" lon="-5.58878">
        <ele>742.0</ele>
        <time>2021-02-14T11:56:08Z</time>
      </trkpt>
      <trkpt lat="43.439835" lon="-5.588779">
        <ele>742.0</ele>
        <time>2021-02-14T11:56:09Z</time>
      </trkpt>
      <trkpt lat="43.439827" lon="-5.588779">
        <ele>742.0</ele>
        <time>2021-02-14T11:56:10Z</time>
      </trkpt>
      <trkpt lat="43.43982" lon="-5.588781">
        <ele>743.0</ele>
        <time>2021-02-14T11:56:11Z</time>
      </trkpt>
      <trkpt lat="43.439816" lon="-5.588781">
        <ele>743.0</ele>
        <time>2021-02-14T11:56:12Z</time>
      </trkpt>
      <trkpt lat="43.43981" lon="-5.5887794">
        <ele>743.0</ele>
        <time>2021-02-14T11:56:13Z</time>
      </trkpt>
      <trkpt lat="43.439804" lon="-5.5887794">
        <ele>743.0</ele>
        <time>2021-02-14T11:56:14Z</time>
      </trkpt>
      <trkpt lat="43.439796" lon="-5.588781">
        <ele>743.0</ele>
        <time>2021-02-14T11:56:15Z</time>
      </trkpt>
      <trkpt lat="43.43979" lon="-5.58878">
        <ele>743.0</ele>
        <time>2021-02-14T11:56:16Z</time>
      </trkpt>
      <trkpt lat="43.43978" lon="-5.588779">
        <ele>744.0</ele>
        <time>2021-02-14T11:56:17Z</time>
      </trkpt>
      <trkpt lat="43.43977" lon="-5.588779">
        <ele>744.0</ele>
        <time>2021-02-14T11:56:18Z</time>
      </trkpt>
      <trkpt lat="43.43976" lon="-5.588778">
        <ele>744.0</ele>
        <time>2021-02-14T11:56:19Z</time>
      </trkpt>
      <trkpt lat="43.43975" lon="-5.5887775">
        <ele>744.0</ele>
        <time>2021-02-14T11:56:20Z</time>
      </trkpt>
      <trkpt lat="43.439743" lon="-5.588777">
        <ele>744.0</ele>
        <time>2021-02-14T11:56:21Z</time>
      </trkpt>
      <trkpt lat="43.439735" lon="-5.588779">
        <ele>745.0</ele>
        <time>2021-02-14T11:56:22Z</time>
      </trkpt>
      <trkpt lat="43.439724" lon="-5.58878">
        <ele>745.0</ele>
        <time>2021-02-14T11:56:23Z</time>
      </trkpt>
      <trkpt lat="43.439713" lon="-5.58878">
        <ele>745.0</ele>
        <time>2021-02-14T11:56:24Z</time>
      </trkpt>
      <trkpt lat="43.43971" lon="-5.588778">
        <ele>745.0</ele>
        <time>2021-02-14T11:56:24Z</time>
      </trkpt>
      <trkpt lat="43.439697" lon="-5.5887756">
        <ele>746.0</ele>
        <time>2021-02-14T11:56:25Z</time>
      </trkpt>
      <trkpt lat="43.439693" lon="-5.5887737">
        <ele>746.0</ele>
        <time>2021-02-14T11:56:26Z</time>
      </trkpt>
      <trkpt lat="43.439682" lon="-5.5887723">
        <ele>746.0</ele>
        <time>2021-02-14T11:56:27Z</time>
      </trkpt>
      <trkpt lat="43.43968" lon="-5.5887723">
        <ele>746.0</ele>
        <time>2021-02-14T11:56:28Z</time>
      </trkpt>
      <trkpt lat="43.439667" lon="-5.5887733">
        <ele>746.0</ele>
        <time>2021-02-14T11:56:29Z</time>
      </trkpt>
      <trkpt lat="43.439655" lon="-5.5887737">
        <ele>747.0</ele>
        <time>2021-02-14T11:56:30Z</time>
      </trkpt>
      <trkpt lat="43.439648" lon="-5.588774">
        <ele>747.0</ele>
        <time>2021-02-14T11:56:31Z</time>
      </trkpt>
      <trkpt lat="43.439636" lon="-5.588775">
        <ele>747.0</ele>
        <time>2021-02-14T11:56:32Z</time>
      </trkpt>
      <trkpt lat="43.439632" lon="-5.588778">
        <ele>747.0</ele>
        <time>2021-02-14T11:56:33Z</time>
      </trkpt>
      <trkpt lat="43.43962" lon="-5.5887794">
        <ele>747.0</ele>
        <time>2021-02-14T11:56:34Z</time>
      </trkpt>
      <trkpt lat="43.43961" lon="-5.5887814">
        <ele>747.0</ele>
        <time>2021-02-14T11:56:35Z</time>
      </trkpt>
      <trkpt lat="43.439606" lon="-5.5887823">
        <ele>747.0</ele>
        <time>2021-02-14T11:56:36Z</time>
      </trkpt>
      <trkpt lat="43.4396" lon="-5.5887814">
        <ele>747.0</ele>
        <time>2021-02-14T11:56:37Z</time>
      </trkpt>
      <trkpt lat="43.43959" lon="-5.5887823">
        <ele>747.0</ele>
        <time>2021-02-14T11:56:38Z</time>
      </trkpt>
      <trkpt lat="43.43958" lon="-5.588783">
        <ele>747.0</ele>
        <time>2021-02-14T11:56:39Z</time>
      </trkpt>
      <trkpt lat="43.43957" lon="-5.5887847">
        <ele>747.0</ele>
        <time>2021-02-14T11:56:40Z</time>
      </trkpt>
      <trkpt lat="43.43956" lon="-5.588786">
        <ele>748.0</ele>
        <time>2021-02-14T11:56:41Z</time>
      </trkpt>
      <trkpt lat="43.43955" lon="-5.588786">
        <ele>748.0</ele>
        <time>2021-02-14T11:56:42Z</time>
      </trkpt>
      <trkpt lat="43.43954" lon="-5.588786">
        <ele>748.0</ele>
        <time>2021-02-14T11:56:43Z</time>
      </trkpt>
      <trkpt lat="43.43953" lon="-5.5887866">
        <ele>748.0</ele>
        <time>2021-02-14T11:56:44Z</time>
      </trkpt>
      <trkpt lat="43.439518" lon="-5.588789">
        <ele>748.0</ele>
        <time>2021-02-14T11:56:45Z</time>
      </trkpt>
      <trkpt lat="43.439514" lon="-5.5887947">
        <ele>748.0</ele>
        <time>2021-02-14T11:56:46Z</time>
      </trkpt>
      <trkpt lat="43.43951" lon="-5.5888004">
        <ele>749.0</ele>
        <time>2021-02-14T11:56:47Z</time>
      </trkpt>
      <trkpt lat="43.4395" lon="-5.5888042">
        <ele>749.0</ele>
        <time>2021-02-14T11:56:48Z</time>
      </trkpt>
      <trkpt lat="43.439487" lon="-5.5888076">
        <ele>749.0</ele>
        <time>2021-02-14T11:56:49Z</time>
      </trkpt>
      <trkpt lat="43.439476" lon="-5.5888114">
        <ele>749.0</ele>
        <time>2021-02-14T11:56:50Z</time>
      </trkpt>
      <trkpt lat="43.43946" lon="-5.588816">
        <ele>750.0</ele>
        <time>2021-02-14T11:56:51Z</time>
      </trkpt>
      <trkpt lat="43.439453" lon="-5.58882">
        <ele>750.0</ele>
        <time>2021-02-14T11:56:52Z</time>
      </trkpt>
      <trkpt lat="43.43944" lon="-5.5888224">
        <ele>750.0</ele>
        <time>2021-02-14T11:56:53Z</time>
      </trkpt>
      <trkpt lat="43.439426" lon="-5.5888257">
        <ele>750.0</ele>
        <time>2021-02-14T11:56:54Z</time>
      </trkpt>
      <trkpt lat="43.439415" lon="-5.588828">
        <ele>750.0</ele>
        <time>2021-02-14T11:56:55Z</time>
      </trkpt>
      <trkpt lat="43.439407" lon="-5.58883">
        <ele>750.0</ele>
        <time>2021-02-14T11:56:56Z</time>
      </trkpt>
      <trkpt lat="43.439396" lon="-5.588833">
        <ele>750.0</ele>
        <time>2021-02-14T11:56:57Z</time>
      </trkpt>
      <trkpt lat="43.439384" lon="-5.5888352">
        <ele>751.0</ele>
        <time>2021-02-14T11:56:58Z</time>
      </trkpt>
      <trkpt lat="43.439377" lon="-5.588837">
        <ele>751.0</ele>
        <time>2021-02-14T11:56:59Z</time>
      </trkpt>
      <trkpt lat="43.439365" lon="-5.5888405">
        <ele>751.0</ele>
        <time>2021-02-14T11:57:00Z</time>
      </trkpt>
      <trkpt lat="43.439354" lon="-5.588845">
        <ele>751.0</ele>
        <time>2021-02-14T11:57:01Z</time>
      </trkpt>
      <trkpt lat="43.439346" lon="-5.5888467">
        <ele>751.0</ele>
        <time>2021-02-14T11:57:02Z</time>
      </trkpt>
      <trkpt lat="43.439335" lon="-5.588846">
        <ele>751.0</ele>
        <time>2021-02-14T11:57:03Z</time>
      </trkpt>
      <trkpt lat="43.439323" lon="-5.5888453">
        <ele>752.0</ele>
        <time>2021-02-14T11:57:04Z</time>
      </trkpt>
      <trkpt lat="43.439316" lon="-5.588845">
        <ele>752.0</ele>
        <time>2021-02-14T11:57:05Z</time>
      </trkpt>
      <trkpt lat="43.439304" lon="-5.588845">
        <ele>752.0</ele>
        <time>2021-02-14T11:57:06Z</time>
      </trkpt>
      <trkpt lat="43.43929" lon="-5.5888443">
        <ele>752.0</ele>
        <time>2021-02-14T11:57:07Z</time>
      </trkpt>
      <trkpt lat="43.439278" lon="-5.5888433">
        <ele>752.0</ele>
        <time>2021-02-14T11:57:08Z</time>
      </trkpt>
      <trkpt lat="43.439266" lon="-5.5888443">
        <ele>753.0</ele>
        <time>2021-02-14T11:57:09Z</time>
      </trkpt>
      <trkpt lat="43.43926" lon="-5.5888453">
        <ele>753.0</ele>
        <time>2021-02-14T11:57:10Z</time>
      </trkpt>
      <trkpt lat="43.439247" lon="-5.588847">
        <ele>753.0</ele>
        <time>2021-02-14T11:57:11Z</time>
      </trkpt>
      <trkpt lat="43.439236" lon="-5.58885">
        <ele>753.0</ele>
        <time>2021-02-14T11:57:12Z</time>
      </trkpt>
      <trkpt lat="43.43922" lon="-5.588853">
        <ele>753.0</ele>
        <time>2021-02-14T11:57:13Z</time>
      </trkpt>
      <trkpt lat="43.439213" lon="-5.5888553">
        <ele>753.0</ele>
        <time>2021-02-14T11:57:14Z</time>
      </trkpt>
      <trkpt lat="43.439198" lon="-5.588856">
        <ele>753.0</ele>
        <time>2021-02-14T11:57:15Z</time>
      </trkpt>
      <trkpt lat="43.439186" lon="-5.5888577">
        <ele>753.0</ele>
        <time>2021-02-14T11:57:16Z</time>
      </trkpt>
      <trkpt lat="43.439175" lon="-5.588859">
        <ele>754.0</ele>
        <time>2021-02-14T11:57:17Z</time>
      </trkpt>
      <trkpt lat="43.439167" lon="-5.588861">
        <ele>754.0</ele>
        <time>2021-02-14T11:57:18Z</time>
      </trkpt>
      <trkpt lat="43.43915" lon="-5.588863">
        <ele>754.0</ele>
        <time>2021-02-14T11:57:19Z</time>
      </trkpt>
      <trkpt lat="43.43914" lon="-5.588864">
        <ele>754.0</ele>
        <time>2021-02-14T11:57:20Z</time>
      </trkpt>
      <trkpt lat="43.439125" lon="-5.588865">
        <ele>755.0</ele>
        <time>2021-02-14T11:57:21Z</time>
      </trkpt>
      <trkpt lat="43.439114" lon="-5.5888653">
        <ele>755.0</ele>
        <time>2021-02-14T11:57:22Z</time>
      </trkpt>
      <trkpt lat="43.4391" lon="-5.5888677">
        <ele>755.0</ele>
        <time>2021-02-14T11:57:23Z</time>
      </trkpt>
      <trkpt lat="43.439087" lon="-5.5888715">
        <ele>755.0</ele>
        <time>2021-02-14T11:57:24Z</time>
      </trkpt>
      <trkpt lat="43.43908" lon="-5.5888762">
        <ele>755.0</ele>
        <time>2021-02-14T11:57:25Z</time>
      </trkpt>
      <trkpt lat="43.439068" lon="-5.588878">
        <ele>755.0</ele>
        <time>2021-02-14T11:57:26Z</time>
      </trkpt>
      <trkpt lat="43.439056" lon="-5.588878">
        <ele>755.0</ele>
        <time>2021-02-14T11:57:27Z</time>
      </trkpt>
      <trkpt lat="43.43905" lon="-5.5888777">
        <ele>755.0</ele>
        <time>2021-02-14T11:57:28Z</time>
      </trkpt>
      <trkpt lat="43.439037" lon="-5.5888762">
        <ele>755.0</ele>
        <time>2021-02-14T11:57:29Z</time>
      </trkpt>
      <trkpt lat="43.439022" lon="-5.5888753">
        <ele>755.0</ele>
        <time>2021-02-14T11:57:30Z</time>
      </trkpt>
      <trkpt lat="43.43901" lon="-5.5888743">
        <ele>755.0</ele>
        <time>2021-02-14T11:57:31Z</time>
      </trkpt>
      <trkpt lat="43.439003" lon="-5.5888743">
        <ele>755.0</ele>
        <time>2021-02-14T11:57:32Z</time>
      </trkpt>
      <trkpt lat="43.43899" lon="-5.5888743">
        <ele>755.0</ele>
        <time>2021-02-14T11:57:33Z</time>
      </trkpt>
      <trkpt lat="43.43898" lon="-5.5888753">
        <ele>755.0</ele>
        <time>2021-02-14T11:57:34Z</time>
      </trkpt>
      <trkpt lat="43.438972" lon="-5.5888753">
        <ele>755.0</ele>
        <time>2021-02-14T11:57:35Z</time>
      </trkpt>
      <trkpt lat="43.43896" lon="-5.5888777">
        <ele>755.0</ele>
        <time>2021-02-14T11:57:36Z</time>
      </trkpt>
      <trkpt lat="43.438946" lon="-5.5888796">
        <ele>755.0</ele>
        <time>2021-02-14T11:57:37Z</time>
      </trkpt>
      <trkpt lat="43.43893" lon="-5.5888815">
        <ele>755.0</ele>
        <time>2021-02-14T11:57:38Z</time>
      </trkpt>
      <trkpt lat="43.43892" lon="-5.5888834">
        <ele>755.0</ele>
        <time>2021-02-14T11:57:39Z</time>
      </trkpt>
      <trkpt lat="43.438904" lon="-5.588882">
        <ele>755.0</ele>
        <time>2021-02-14T11:57:40Z</time>
      </trkpt>
      <trkpt lat="43.438892" lon="-5.5888805">
        <ele>755.0</ele>
        <time>2021-02-14T11:57:41Z</time>
      </trkpt>
      <trkpt lat="43.438877" lon="-5.5888767">
        <ele>756.0</ele>
        <time>2021-02-14T11:57:42Z</time>
      </trkpt>
      <trkpt lat="43.43887" lon="-5.588875">
        <ele>756.0</ele>
        <time>2021-02-14T11:57:43Z</time>
      </trkpt>
      <trkpt lat="43.438858" lon="-5.5888734">
        <ele>756.0</ele>
        <time>2021-02-14T11:57:44Z</time>
      </trkpt>
      <trkpt lat="43.438847" lon="-5.588875">
        <ele>756.0</ele>
        <time>2021-02-14T11:57:45Z</time>
      </trkpt>
      <trkpt lat="43.43884" lon="-5.5888767">
        <ele>756.0</ele>
        <time>2021-02-14T11:57:46Z</time>
      </trkpt>
      <trkpt lat="43.438824" lon="-5.5888796">
        <ele>756.0</ele>
        <time>2021-02-14T11:57:47Z</time>
      </trkpt>
      <trkpt lat="43.438816" lon="-5.5888834">
        <ele>756.0</ele>
        <time>2021-02-14T11:57:48Z</time>
      </trkpt>
      <trkpt lat="43.43881" lon="-5.5888863">
        <ele>757.0</ele>
        <time>2021-02-14T11:57:49Z</time>
      </trkpt>
      <trkpt lat="43.438797" lon="-5.588888">
        <ele>757.0</ele>
        <time>2021-02-14T11:57:50Z</time>
      </trkpt>
      <trkpt lat="43.438786" lon="-5.58889">
        <ele>757.0</ele>
        <time>2021-02-14T11:57:51Z</time>
      </trkpt>
      <trkpt lat="43.438778" lon="-5.588892">
        <ele>757.0</ele>
        <time>2021-02-14T11:57:52Z</time>
      </trkpt>
      <trkpt lat="43.438766" lon="-5.588894">
        <ele>757.0</ele>
        <time>2021-02-14T11:57:53Z</time>
      </trkpt>
      <trkpt lat="43.438755" lon="-5.5888953">
        <ele>757.0</ele>
        <time>2021-02-14T11:57:54Z</time>
      </trkpt>
      <trkpt lat="43.438747" lon="-5.588897">
        <ele>757.0</ele>
        <time>2021-02-14T11:57:55Z</time>
      </trkpt>
      <trkpt lat="43.438736" lon="-5.5888987">
        <ele>758.0</ele>
        <time>2021-02-14T11:57:56Z</time>
      </trkpt>
      <trkpt lat="43.438725" lon="-5.5888996">
        <ele>758.0</ele>
        <time>2021-02-14T11:57:57Z</time>
      </trkpt>
      <trkpt lat="43.438713" lon="-5.5888987">
        <ele>758.0</ele>
        <time>2021-02-14T11:57:58Z</time>
      </trkpt>
      <trkpt lat="43.438705" lon="-5.588897">
        <ele>758.0</ele>
        <time>2021-02-14T11:57:59Z</time>
      </trkpt>
      <trkpt lat="43.438694" lon="-5.5888968">
        <ele>758.0</ele>
        <time>2021-02-14T11:58:00Z</time>
      </trkpt>
      <trkpt lat="43.438683" lon="-5.5888968">
        <ele>758.0</ele>
        <time>2021-02-14T11:58:01Z</time>
      </trkpt>
      <trkpt lat="43.438675" lon="-5.5888977">
        <ele>758.0</ele>
        <time>2021-02-14T11:58:02Z</time>
      </trkpt>
      <trkpt lat="43.438667" lon="-5.588899">
        <ele>759.0</ele>
        <time>2021-02-14T11:58:03Z</time>
      </trkpt>
      <trkpt lat="43.43866" lon="-5.5888996">
        <ele>759.0</ele>
        <time>2021-02-14T11:58:04Z</time>
      </trkpt>
      <trkpt lat="43.43865" lon="-5.588902">
        <ele>759.0</ele>
        <time>2021-02-14T11:58:05Z</time>
      </trkpt>
      <trkpt lat="43.438637" lon="-5.588903">
        <ele>759.0</ele>
        <time>2021-02-14T11:58:06Z</time>
      </trkpt>
      <trkpt lat="43.43862" lon="-5.5889025">
        <ele>759.0</ele>
        <time>2021-02-14T11:58:07Z</time>
      </trkpt>
      <trkpt lat="43.438606" lon="-5.5889006">
        <ele>759.0</ele>
        <time>2021-02-14T11:58:08Z</time>
      </trkpt>
      <trkpt lat="43.438583" lon="-5.588888">
        <ele>761.0</ele>
        <time>2021-02-14T11:58:12Z</time>
      </trkpt>
      <trkpt lat="43.438587" lon="-5.588889">
        <ele>761.0</ele>
        <time>2021-02-14T11:58:13Z</time>
      </trkpt>
      <trkpt lat="43.4386" lon="-5.588891">
        <ele>761.0</ele>
        <time>2021-02-14T11:58:14Z</time>
      </trkpt>
      <trkpt lat="43.438606" lon="-5.5888953">
        <ele>761.0</ele>
        <time>2021-02-14T11:58:15Z</time>
      </trkpt>
      <trkpt lat="43.438614" lon="-5.588899">
        <ele>761.0</ele>
        <time>2021-02-14T11:58:16Z</time>
      </trkpt>
      <trkpt lat="43.438618" lon="-5.588904">
        <ele>761.0</ele>
        <time>2021-02-14T11:58:17Z</time>
      </trkpt>
      <trkpt lat="43.43862" lon="-5.588908">
        <ele>761.0</ele>
        <time>2021-02-14T11:58:18Z</time>
      </trkpt>
      <trkpt lat="43.43862" lon="-5.5889134">
        <ele>761.0</ele>
        <time>2021-02-14T11:58:19Z</time>
      </trkpt>
      <trkpt lat="43.438618" lon="-5.5889177">
        <ele>761.0</ele>
        <time>2021-02-14T11:58:20Z</time>
      </trkpt>
      <trkpt lat="43.4386" lon="-5.588928">
        <ele>762.0</ele>
        <time>2021-02-14T11:58:21Z</time>
      </trkpt>
      <trkpt lat="43.438583" lon="-5.5889397">
        <ele>762.0</ele>
        <time>2021-02-14T11:58:22Z</time>
      </trkpt>
      <trkpt lat="43.43857" lon="-5.588942">
        <ele>762.0</ele>
        <time>2021-02-14T11:58:23Z</time>
      </trkpt>
      <trkpt lat="43.438553" lon="-5.5889444">
        <ele>762.0</ele>
        <time>2021-02-14T11:58:24Z</time>
      </trkpt>
      <trkpt lat="43.438534" lon="-5.5889473">
        <ele>762.0</ele>
        <time>2021-02-14T11:58:25Z</time>
      </trkpt>
      <trkpt lat="43.438526" lon="-5.5889506">
        <ele>762.0</ele>
        <time>2021-02-14T11:58:26Z</time>
      </trkpt>
      <trkpt lat="43.43852" lon="-5.5889544">
        <ele>762.0</ele>
        <time>2021-02-14T11:58:27Z</time>
      </trkpt>
      <trkpt lat="43.43852" lon="-5.588957">
        <ele>762.0</ele>
        <time>2021-02-14T11:58:28Z</time>
      </trkpt>
      <trkpt lat="43.43851" lon="-5.588966">
        <ele>762.0</ele>
        <time>2021-02-14T11:58:29Z</time>
      </trkpt>
      <trkpt lat="43.4385" lon="-5.5889688">
        <ele>762.0</ele>
        <time>2021-02-14T11:58:30Z</time>
      </trkpt>
      <trkpt lat="43.438488" lon="-5.5889735">
        <ele>762.0</ele>
        <time>2021-02-14T11:58:31Z</time>
      </trkpt>
      <trkpt lat="43.43847" lon="-5.588979">
        <ele>762.0</ele>
        <time>2021-02-14T11:58:32Z</time>
      </trkpt>
      <trkpt lat="43.438454" lon="-5.5889797">
        <ele>762.0</ele>
        <time>2021-02-14T11:58:33Z</time>
      </trkpt>
      <trkpt lat="43.438435" lon="-5.5889792">
        <ele>763.0</ele>
        <time>2021-02-14T11:58:34Z</time>
      </trkpt>
      <trkpt lat="43.43841" lon="-5.588978">
        <ele>763.0</ele>
        <time>2021-02-14T11:58:35Z</time>
      </trkpt>
      <trkpt lat="43.438393" lon="-5.5889792">
        <ele>763.0</ele>
        <time>2021-02-14T11:58:36Z</time>
      </trkpt>
      <trkpt lat="43.438374" lon="-5.5889797">
        <ele>763.0</ele>
        <time>2021-02-14T11:58:37Z</time>
      </trkpt>
      <trkpt lat="43.43836" lon="-5.588976">
        <ele>763.0</ele>
        <time>2021-02-14T11:58:38Z</time>
      </trkpt>
      <trkpt lat="43.43834" lon="-5.588972">
        <ele>764.0</ele>
        <time>2021-02-14T11:58:39Z</time>
      </trkpt>
      <trkpt lat="43.43833" lon="-5.5889688">
        <ele>764.0</ele>
        <time>2021-02-14T11:58:40Z</time>
      </trkpt>
      <trkpt lat="43.43832" lon="-5.5889683">
        <ele>764.0</ele>
        <time>2021-02-14T11:58:41Z</time>
      </trkpt>
      <trkpt lat="43.438316" lon="-5.5889697">
        <ele>764.0</ele>
        <time>2021-02-14T11:58:42Z</time>
      </trkpt>
      <trkpt lat="43.438305" lon="-5.588972">
        <ele>764.0</ele>
        <time>2021-02-14T11:58:43Z</time>
      </trkpt>
      <trkpt lat="43.438293" lon="-5.5889726">
        <ele>764.0</ele>
        <time>2021-02-14T11:58:44Z</time>
      </trkpt>
      <trkpt lat="43.438286" lon="-5.5889726">
        <ele>764.0</ele>
        <time>2021-02-14T11:58:45Z</time>
      </trkpt>
      <trkpt lat="43.438274" lon="-5.588972">
        <ele>765.0</ele>
        <time>2021-02-14T11:58:46Z</time>
      </trkpt>
      <trkpt lat="43.438263" lon="-5.5889735">
        <ele>765.0</ele>
        <time>2021-02-14T11:58:47Z</time>
      </trkpt>
      <trkpt lat="43.43826" lon="-5.588975">
        <ele>765.0</ele>
        <time>2021-02-14T11:58:48Z</time>
      </trkpt>
      <trkpt lat="43.438248" lon="-5.588976">
        <ele>765.0</ele>
        <time>2021-02-14T11:58:49Z</time>
      </trkpt>
      <trkpt lat="43.43824" lon="-5.588976">
        <ele>766.0</ele>
        <time>2021-02-14T11:58:50Z</time>
      </trkpt>
      <trkpt lat="43.43823" lon="-5.5889754">
        <ele>766.0</ele>
        <time>2021-02-14T11:58:51Z</time>
      </trkpt>
      <trkpt lat="43.438217" lon="-5.5889726">
        <ele>766.0</ele>
        <time>2021-02-14T11:58:52Z</time>
      </trkpt>
      <trkpt lat="43.43821" lon="-5.5889707">
        <ele>766.0</ele>
        <time>2021-02-14T11:58:53Z</time>
      </trkpt>
      <trkpt lat="43.438198" lon="-5.5889707">
        <ele>766.0</ele>
        <time>2021-02-14T11:58:54Z</time>
      </trkpt>
      <trkpt lat="43.438187" lon="-5.5889735">
        <ele>767.0</ele>
        <time>2021-02-14T11:58:55Z</time>
      </trkpt>
      <trkpt lat="43.43818" lon="-5.588977">
        <ele>767.0</ele>
        <time>2021-02-14T11:58:56Z</time>
      </trkpt>
      <trkpt lat="43.43817" lon="-5.5889807">
        <ele>767.0</ele>
        <time>2021-02-14T11:58:57Z</time>
      </trkpt>
      <trkpt lat="43.438164" lon="-5.588983">
        <ele>767.0</ele>
        <time>2021-02-14T11:58:58Z</time>
      </trkpt>
      <trkpt lat="43.438156" lon="-5.5889864">
        <ele>767.0</ele>
        <time>2021-02-14T11:58:59Z</time>
      </trkpt>
      <trkpt lat="43.438145" lon="-5.5889883">
        <ele>768.0</ele>
        <time>2021-02-14T11:59:00Z</time>
      </trkpt>
      <trkpt lat="43.438137" lon="-5.58899">
        <ele>768.0</ele>
        <time>2021-02-14T11:59:01Z</time>
      </trkpt>
      <trkpt lat="43.438126" lon="-5.58899">
        <ele>768.0</ele>
        <time>2021-02-14T11:59:02Z</time>
      </trkpt>
      <trkpt lat="43.438114" lon="-5.588991">
        <ele>768.0</ele>
        <time>2021-02-14T11:59:03Z</time>
      </trkpt>
      <trkpt lat="43.438107" lon="-5.5889926">
        <ele>768.0</ele>
        <time>2021-02-14T11:59:04Z</time>
      </trkpt>
      <trkpt lat="43.438095" lon="-5.588994">
        <ele>768.0</ele>
        <time>2021-02-14T11:59:05Z</time>
      </trkpt>
      <trkpt lat="43.43809" lon="-5.5889945">
        <ele>769.0</ele>
        <time>2021-02-14T11:59:06Z</time>
      </trkpt>
      <trkpt lat="43.43808" lon="-5.588996">
        <ele>769.0</ele>
        <time>2021-02-14T11:59:07Z</time>
      </trkpt>
      <trkpt lat="43.43807" lon="-5.588996">
        <ele>769.0</ele>
        <time>2021-02-14T11:59:08Z</time>
      </trkpt>
      <trkpt lat="43.43806" lon="-5.5889964">
        <ele>769.0</ele>
        <time>2021-02-14T11:59:09Z</time>
      </trkpt>
      <trkpt lat="43.43805" lon="-5.589">
        <ele>769.0</ele>
        <time>2021-02-14T11:59:10Z</time>
      </trkpt>
      <trkpt lat="43.438046" lon="-5.589004">
        <ele>769.0</ele>
        <time>2021-02-14T11:59:11Z</time>
      </trkpt>
      <trkpt lat="43.438034" lon="-5.589006">
        <ele>770.0</ele>
        <time>2021-02-14T11:59:12Z</time>
      </trkpt>
      <trkpt lat="43.438023" lon="-5.589008">
        <ele>770.0</ele>
        <time>2021-02-14T11:59:13Z</time>
      </trkpt>
      <trkpt lat="43.43802" lon="-5.58901">
        <ele>770.0</ele>
        <time>2021-02-14T11:59:14Z</time>
      </trkpt>
      <trkpt lat="43.438007" lon="-5.589011">
        <ele>770.0</ele>
        <time>2021-02-14T11:59:15Z</time>
      </trkpt>
      <trkpt lat="43.438" lon="-5.589011">
        <ele>770.0</ele>
        <time>2021-02-14T11:59:16Z</time>
      </trkpt>
      <trkpt lat="43.43799" lon="-5.5890107">
        <ele>771.0</ele>
        <time>2021-02-14T11:59:17Z</time>
      </trkpt>
      <trkpt lat="43.437977" lon="-5.589008">
        <ele>771.0</ele>
        <time>2021-02-14T11:59:18Z</time>
      </trkpt>
      <trkpt lat="43.43797" lon="-5.589007">
        <ele>771.0</ele>
        <time>2021-02-14T11:59:19Z</time>
      </trkpt>
      <trkpt lat="43.437958" lon="-5.5890055">
        <ele>771.0</ele>
        <time>2021-02-14T11:59:20Z</time>
      </trkpt>
      <trkpt lat="43.437946" lon="-5.589005">
        <ele>771.0</ele>
        <time>2021-02-14T11:59:21Z</time>
      </trkpt>
      <trkpt lat="43.437935" lon="-5.5890055">
        <ele>771.0</ele>
        <time>2021-02-14T11:59:22Z</time>
      </trkpt>
      <trkpt lat="43.437927" lon="-5.589008">
        <ele>771.0</ele>
        <time>2021-02-14T11:59:23Z</time>
      </trkpt>
      <trkpt lat="43.43792" lon="-5.5890117">
        <ele>771.0</ele>
        <time>2021-02-14T11:59:24Z</time>
      </trkpt>
      <trkpt lat="43.437912" lon="-5.5890155">
        <ele>771.0</ele>
        <time>2021-02-14T11:59:25Z</time>
      </trkpt>
      <trkpt lat="43.437904" lon="-5.5890203">
        <ele>771.0</ele>
        <time>2021-02-14T11:59:26Z</time>
      </trkpt>
      <trkpt lat="43.4379" lon="-5.5890236">
        <ele>771.0</ele>
        <time>2021-02-14T11:59:27Z</time>
      </trkpt>
      <trkpt lat="43.437897" lon="-5.5890274">
        <ele>772.0</ele>
        <time>2021-02-14T11:59:28Z</time>
      </trkpt>
      <trkpt lat="43.437885" lon="-5.5890293">
        <ele>772.0</ele>
        <time>2021-02-14T11:59:29Z</time>
      </trkpt>
      <trkpt lat="43.43788" lon="-5.5890303">
        <ele>772.0</ele>
        <time>2021-02-14T11:59:30Z</time>
      </trkpt>
      <trkpt lat="43.437874" lon="-5.5890317">
        <ele>772.0</ele>
        <time>2021-02-14T11:59:31Z</time>
      </trkpt>
      <trkpt lat="43.437866" lon="-5.589034">
        <ele>772.0</ele>
        <time>2021-02-14T11:59:32Z</time>
      </trkpt>
      <trkpt lat="43.43786" lon="-5.589038">
        <ele>772.0</ele>
        <time>2021-02-14T11:59:33Z</time>
      </trkpt>
      <trkpt lat="43.43785" lon="-5.589041">
        <ele>772.0</ele>
        <time>2021-02-14T11:59:34Z</time>
      </trkpt>
      <trkpt lat="43.437843" lon="-5.5890436">
        <ele>772.0</ele>
        <time>2021-02-14T11:59:35Z</time>
      </trkpt>
      <trkpt lat="43.437836" lon="-5.5890455">
        <ele>773.0</ele>
        <time>2021-02-14T11:59:36Z</time>
      </trkpt>
      <trkpt lat="43.437824" lon="-5.5890484">
        <ele>773.0</ele>
        <time>2021-02-14T11:59:37Z</time>
      </trkpt>
      <trkpt lat="43.437813" lon="-5.5890503">
        <ele>773.0</ele>
        <time>2021-02-14T11:59:38Z</time>
      </trkpt>
      <trkpt lat="43.437805" lon="-5.589051">
        <ele>773.0</ele>
        <time>2021-02-14T11:59:39Z</time>
      </trkpt>
      <trkpt lat="43.437794" lon="-5.5890503">
        <ele>773.0</ele>
        <time>2021-02-14T11:59:40Z</time>
      </trkpt>
      <trkpt lat="43.437782" lon="-5.58905">
        <ele>773.0</ele>
        <time>2021-02-14T11:59:41Z</time>
      </trkpt>
      <trkpt lat="43.437775" lon="-5.589052">
        <ele>774.0</ele>
        <time>2021-02-14T11:59:42Z</time>
      </trkpt>
      <trkpt lat="43.437767" lon="-5.5890555">
        <ele>774.0</ele>
        <time>2021-02-14T11:59:43Z</time>
      </trkpt>
      <trkpt lat="43.437756" lon="-5.5890594">
        <ele>774.0</ele>
        <time>2021-02-14T11:59:44Z</time>
      </trkpt>
      <trkpt lat="43.43775" lon="-5.589062">
        <ele>775.0</ele>
        <time>2021-02-14T11:59:45Z</time>
      </trkpt>
      <trkpt lat="43.43774" lon="-5.589063">
        <ele>775.0</ele>
        <time>2021-02-14T11:59:46Z</time>
      </trkpt>
      <trkpt lat="43.437733" lon="-5.589063">
        <ele>775.0</ele>
        <time>2021-02-14T11:59:47Z</time>
      </trkpt>
      <trkpt lat="43.43772" lon="-5.589063">
        <ele>775.0</ele>
        <time>2021-02-14T11:59:48Z</time>
      </trkpt>
      <trkpt lat="43.43771" lon="-5.589062">
        <ele>775.0</ele>
        <time>2021-02-14T11:59:49Z</time>
      </trkpt>
      <trkpt lat="43.437706" lon="-5.5890617">
        <ele>776.0</ele>
        <time>2021-02-14T11:59:50Z</time>
      </trkpt>
      <trkpt lat="43.437695" lon="-5.5890613">
        <ele>776.0</ele>
        <time>2021-02-14T11:59:51Z</time>
      </trkpt>
      <trkpt lat="43.43768" lon="-5.58906">
        <ele>776.0</ele>
        <time>2021-02-14T11:59:52Z</time>
      </trkpt>
      <trkpt lat="43.43767" lon="-5.58906">
        <ele>776.0</ele>
        <time>2021-02-14T11:59:53Z</time>
      </trkpt>
      <trkpt lat="43.43766" lon="-5.5890603">
        <ele>776.0</ele>
        <time>2021-02-14T11:59:54Z</time>
      </trkpt>
      <trkpt lat="43.43765" lon="-5.5890613">
        <ele>776.0</ele>
        <time>2021-02-14T11:59:55Z</time>
      </trkpt>
      <trkpt lat="43.43764" lon="-5.5890617">
        <ele>777.0</ele>
        <time>2021-02-14T11:59:56Z</time>
      </trkpt>
      <trkpt lat="43.437634" lon="-5.5890636">
        <ele>777.0</ele>
        <time>2021-02-14T11:59:57Z</time>
      </trkpt>
      <trkpt lat="43.437626" lon="-5.589065">
        <ele>777.0</ele>
        <time>2021-02-14T11:59:58Z</time>
      </trkpt>
      <trkpt lat="43.43762" lon="-5.589066">
        <ele>777.0</ele>
        <time>2021-02-14T11:59:59Z</time>
      </trkpt>
      <trkpt lat="43.437614" lon="-5.589067">
        <ele>777.0</ele>
        <time>2021-02-14T12:00:00Z</time>
      </trkpt>
      <trkpt lat="43.437603" lon="-5.589067">
        <ele>778.0</ele>
        <time>2021-02-14T12:00:01Z</time>
      </trkpt>
      <trkpt lat="43.437595" lon="-5.589064">
        <ele>778.0</ele>
        <time>2021-02-14T12:00:02Z</time>
      </trkpt>
      <trkpt lat="43.437584" lon="-5.5890617">
        <ele>778.0</ele>
        <time>2021-02-14T12:00:03Z</time>
      </trkpt>
      <trkpt lat="43.437572" lon="-5.58906">
        <ele>778.0</ele>
        <time>2021-02-14T12:00:04Z</time>
      </trkpt>
      <trkpt lat="43.43756" lon="-5.5890584">
        <ele>778.0</ele>
        <time>2021-02-14T12:00:05Z</time>
      </trkpt>
      <trkpt lat="43.437553" lon="-5.5890594">
        <ele>778.0</ele>
        <time>2021-02-14T12:00:06Z</time>
      </trkpt>
      <trkpt lat="43.437542" lon="-5.5890603">
        <ele>778.0</ele>
        <time>2021-02-14T12:00:07Z</time>
      </trkpt>
      <trkpt lat="43.43753" lon="-5.589062">
        <ele>778.0</ele>
        <time>2021-02-14T12:00:08Z</time>
      </trkpt>
      <trkpt lat="43.437523" lon="-5.589064">
        <ele>779.0</ele>
        <time>2021-02-14T12:00:09Z</time>
      </trkpt>
      <trkpt lat="43.43751" lon="-5.589068">
        <ele>779.0</ele>
        <time>2021-02-14T12:00:10Z</time>
      </trkpt>
      <trkpt lat="43.4375" lon="-5.589072">
        <ele>779.0</ele>
        <time>2021-02-14T12:00:11Z</time>
      </trkpt>
      <trkpt lat="43.437496" lon="-5.589075">
        <ele>779.0</ele>
        <time>2021-02-14T12:00:12Z</time>
      </trkpt>
      <trkpt lat="43.437485" lon="-5.589077">
        <ele>779.0</ele>
        <time>2021-02-14T12:00:13Z</time>
      </trkpt>
      <trkpt lat="43.437477" lon="-5.589078">
        <ele>779.0</ele>
        <time>2021-02-14T12:00:14Z</time>
      </trkpt>
      <trkpt lat="43.437466" lon="-5.589079">
        <ele>779.0</ele>
        <time>2021-02-14T12:00:15Z</time>
      </trkpt>
      <trkpt lat="43.437454" lon="-5.589081">
        <ele>779.0</ele>
        <time>2021-02-14T12:00:16Z</time>
      </trkpt>
      <trkpt lat="43.437447" lon="-5.5890846">
        <ele>779.0</ele>
        <time>2021-02-14T12:00:17Z</time>
      </trkpt>
      <trkpt lat="43.437435" lon="-5.58909">
        <ele>779.0</ele>
        <time>2021-02-14T12:00:18Z</time>
      </trkpt>
      <trkpt lat="43.43743" lon="-5.589097">
        <ele>779.0</ele>
        <time>2021-02-14T12:00:19Z</time>
      </trkpt>
      <trkpt lat="43.43742" lon="-5.589103">
        <ele>779.0</ele>
        <time>2021-02-14T12:00:20Z</time>
      </trkpt>
      <trkpt lat="43.43741" lon="-5.589109">
        <ele>779.0</ele>
        <time>2021-02-14T12:00:21Z</time>
      </trkpt>
      <trkpt lat="43.4374" lon="-5.5891156">
        <ele>779.0</ele>
        <time>2021-02-14T12:00:22Z</time>
      </trkpt>
      <trkpt lat="43.437393" lon="-5.5891237">
        <ele>779.0</ele>
        <time>2021-02-14T12:00:23Z</time>
      </trkpt>
      <trkpt lat="43.437386" lon="-5.589131">
        <ele>779.0</ele>
        <time>2021-02-14T12:00:24Z</time>
      </trkpt>
      <trkpt lat="43.437374" lon="-5.589137">
        <ele>779.0</ele>
        <time>2021-02-14T12:00:25Z</time>
      </trkpt>
      <trkpt lat="43.437363" lon="-5.5891433">
        <ele>779.0</ele>
        <time>2021-02-14T12:00:26Z</time>
      </trkpt>
      <trkpt lat="43.43735" lon="-5.5891495">
        <ele>779.0</ele>
        <time>2021-02-14T12:00:27Z</time>
      </trkpt>
      <trkpt lat="43.437344" lon="-5.5891557">
        <ele>779.0</ele>
        <time>2021-02-14T12:00:28Z</time>
      </trkpt>
      <trkpt lat="43.437332" lon="-5.5891614">
        <ele>779.0</ele>
        <time>2021-02-14T12:00:29Z</time>
      </trkpt>
      <trkpt lat="43.43732" lon="-5.5891666">
        <ele>779.0</ele>
        <time>2021-02-14T12:00:30Z</time>
      </trkpt>
      <trkpt lat="43.437313" lon="-5.5891724">
        <ele>779.0</ele>
        <time>2021-02-14T12:00:31Z</time>
      </trkpt>
      <trkpt lat="43.437305" lon="-5.589179">
        <ele>779.0</ele>
        <time>2021-02-14T12:00:32Z</time>
      </trkpt>
      <trkpt lat="43.437298" lon="-5.589185">
        <ele>779.0</ele>
        <time>2021-02-14T12:00:33Z</time>
      </trkpt>
      <trkpt lat="43.437286" lon="-5.5891943">
        <ele>779.0</ele>
        <time>2021-02-14T12:00:34Z</time>
      </trkpt>
      <trkpt lat="43.437283" lon="-5.5892043">
        <ele>779.0</ele>
        <time>2021-02-14T12:00:35Z</time>
      </trkpt>
      <trkpt lat="43.43727" lon="-5.5892153">
        <ele>779.0</ele>
        <time>2021-02-14T12:00:36Z</time>
      </trkpt>
      <trkpt lat="43.43726" lon="-5.589228">
        <ele>779.0</ele>
        <time>2021-02-14T12:00:37Z</time>
      </trkpt>
      <trkpt lat="43.437256" lon="-5.5892425">
        <ele>779.0</ele>
        <time>2021-02-14T12:00:38Z</time>
      </trkpt>
      <trkpt lat="43.437244" lon="-5.5892577">
        <ele>779.0</ele>
        <time>2021-02-14T12:00:39Z</time>
      </trkpt>
      <trkpt lat="43.43724" lon="-5.5892744">
        <ele>779.0</ele>
        <time>2021-02-14T12:00:39Z</time>
      </trkpt>
      <trkpt lat="43.437237" lon="-5.58929">
        <ele>779.0</ele>
        <time>2021-02-14T12:00:40Z</time>
      </trkpt>
      <trkpt lat="43.43723" lon="-5.589305">
        <ele>779.0</ele>
        <time>2021-02-14T12:00:41Z</time>
      </trkpt>
      <trkpt lat="43.437225" lon="-5.589318">
        <ele>779.0</ele>
        <time>2021-02-14T12:00:42Z</time>
      </trkpt>
      <trkpt lat="43.43722" lon="-5.589329">
        <ele>779.0</ele>
        <time>2021-02-14T12:00:43Z</time>
      </trkpt>
      <trkpt lat="43.43722" lon="-5.589337">
        <ele>779.0</ele>
        <time>2021-02-14T12:00:44Z</time>
      </trkpt>
      <trkpt lat="43.43722" lon="-5.58934">
        <ele>779.0</ele>
        <time>2021-02-14T12:00:45Z</time>
      </trkpt>
      <trkpt lat="43.437214" lon="-5.5893435">
        <ele>779.0</ele>
        <time>2021-02-14T12:00:46Z</time>
      </trkpt>
      <trkpt lat="43.437214" lon="-5.5893474">
        <ele>779.0</ele>
        <time>2021-02-14T12:00:47Z</time>
      </trkpt>
      <trkpt lat="43.43721" lon="-5.589352">
        <ele>779.0</ele>
        <time>2021-02-14T12:00:48Z</time>
      </trkpt>
      <trkpt lat="43.437206" lon="-5.5893593">
        <ele>779.0</ele>
        <time>2021-02-14T12:00:49Z</time>
      </trkpt>
      <trkpt lat="43.4372" lon="-5.5893664">
        <ele>779.0</ele>
        <time>2021-02-14T12:00:50Z</time>
      </trkpt>
      <trkpt lat="43.43719" lon="-5.5893736">
        <ele>779.0</ele>
        <time>2021-02-14T12:00:51Z</time>
      </trkpt>
      <trkpt lat="43.43718" lon="-5.5893803">
        <ele>779.0</ele>
        <time>2021-02-14T12:00:52Z</time>
      </trkpt>
      <trkpt lat="43.43717" lon="-5.589389">
        <ele>779.0</ele>
        <time>2021-02-14T12:00:53Z</time>
      </trkpt>
      <trkpt lat="43.437164" lon="-5.5894">
        <ele>779.0</ele>
        <time>2021-02-14T12:00:54Z</time>
      </trkpt>
      <trkpt lat="43.437153" lon="-5.5894113">
        <ele>779.0</ele>
        <time>2021-02-14T12:00:55Z</time>
      </trkpt>
      <trkpt lat="43.43714" lon="-5.5894213">
        <ele>779.0</ele>
        <time>2021-02-14T12:00:56Z</time>
      </trkpt>
      <trkpt lat="43.437134" lon="-5.589431">
        <ele>779.0</ele>
        <time>2021-02-14T12:00:57Z</time>
      </trkpt>
      <trkpt lat="43.437126" lon="-5.589442">
        <ele>779.0</ele>
        <time>2021-02-14T12:00:58Z</time>
      </trkpt>
      <trkpt lat="43.43712" lon="-5.589454">
        <ele>779.0</ele>
        <time>2021-02-14T12:00:59Z</time>
      </trkpt>
      <trkpt lat="43.437107" lon="-5.589464">
        <ele>779.0</ele>
        <time>2021-02-14T12:01:00Z</time>
      </trkpt>
      <trkpt lat="43.437103" lon="-5.5894756">
        <ele>779.0</ele>
        <time>2021-02-14T12:01:01Z</time>
      </trkpt>
      <trkpt lat="43.43709" lon="-5.589484">
        <ele>779.0</ele>
        <time>2021-02-14T12:01:02Z</time>
      </trkpt>
      <trkpt lat="43.437088" lon="-5.5894933">
        <ele>779.0</ele>
        <time>2021-02-14T12:01:03Z</time>
      </trkpt>
      <trkpt lat="43.437077" lon="-5.5895014">
        <ele>779.0</ele>
        <time>2021-02-14T12:01:04Z</time>
      </trkpt>
      <trkpt lat="43.437073" lon="-5.589509">
        <ele>779.0</ele>
        <time>2021-02-14T12:01:05Z</time>
      </trkpt>
      <trkpt lat="43.43706" lon="-5.5895185">
        <ele>779.0</ele>
        <time>2021-02-14T12:01:06Z</time>
      </trkpt>
      <trkpt lat="43.437057" lon="-5.589528">
        <ele>780.0</ele>
        <time>2021-02-14T12:01:07Z</time>
      </trkpt>
      <trkpt lat="43.437046" lon="-5.589538">
        <ele>780.0</ele>
        <time>2021-02-14T12:01:08Z</time>
      </trkpt>
      <trkpt lat="43.437042" lon="-5.5895467">
        <ele>780.0</ele>
        <time>2021-02-14T12:01:09Z</time>
      </trkpt>
      <trkpt lat="43.43703" lon="-5.5895553">
        <ele>780.0</ele>
        <time>2021-02-14T12:01:10Z</time>
      </trkpt>
      <trkpt lat="43.437027" lon="-5.5895643">
        <ele>780.0</ele>
        <time>2021-02-14T12:01:11Z</time>
      </trkpt>
      <trkpt lat="43.437016" lon="-5.589575">
        <ele>780.0</ele>
        <time>2021-02-14T12:01:12Z</time>
      </trkpt>
      <trkpt lat="43.43701" lon="-5.5895853">
        <ele>780.0</ele>
        <time>2021-02-14T12:01:13Z</time>
      </trkpt>
      <trkpt lat="43.437" lon="-5.589593">
        <ele>780.0</ele>
        <time>2021-02-14T12:01:14Z</time>
      </trkpt>
      <trkpt lat="43.436996" lon="-5.589599">
        <ele>780.0</ele>
        <time>2021-02-14T12:01:15Z</time>
      </trkpt>
      <trkpt lat="43.436985" lon="-5.5896063">
        <ele>780.0</ele>
        <time>2021-02-14T12:01:16Z</time>
      </trkpt>
      <trkpt lat="43.436974" lon="-5.5896153">
        <ele>780.0</ele>
        <time>2021-02-14T12:01:17Z</time>
      </trkpt>
      <trkpt lat="43.43697" lon="-5.5896263">
        <ele>780.0</ele>
        <time>2021-02-14T12:01:18Z</time>
      </trkpt>
      <trkpt lat="43.43696" lon="-5.589639">
        <ele>780.0</ele>
        <time>2021-02-14T12:01:19Z</time>
      </trkpt>
      <trkpt lat="43.436954" lon="-5.589651">
        <ele>780.0</ele>
        <time>2021-02-14T12:01:20Z</time>
      </trkpt>
      <trkpt lat="43.436943" lon="-5.5896635">
        <ele>780.0</ele>
        <time>2021-02-14T12:01:21Z</time>
      </trkpt>
      <trkpt lat="43.43693" lon="-5.589675">
        <ele>780.0</ele>
        <time>2021-02-14T12:01:22Z</time>
      </trkpt>
      <trkpt lat="43.436924" lon="-5.589684">
        <ele>780.0</ele>
        <time>2021-02-14T12:01:23Z</time>
      </trkpt>
      <trkpt lat="43.436913" lon="-5.589696">
        <ele>780.0</ele>
        <time>2021-02-14T12:01:24Z</time>
      </trkpt>
      <trkpt lat="43.4369" lon="-5.589707">
        <ele>780.0</ele>
        <time>2021-02-14T12:01:25Z</time>
      </trkpt>
      <trkpt lat="43.436897" lon="-5.589719">
        <ele>780.0</ele>
        <time>2021-02-14T12:01:26Z</time>
      </trkpt>
      <trkpt lat="43.436886" lon="-5.5897317">
        <ele>780.0</ele>
        <time>2021-02-14T12:01:27Z</time>
      </trkpt>
      <trkpt lat="43.436882" lon="-5.589742">
        <ele>780.0</ele>
        <time>2021-02-14T12:01:28Z</time>
      </trkpt>
      <trkpt lat="43.43688" lon="-5.589755">
        <ele>780.0</ele>
        <time>2021-02-14T12:01:29Z</time>
      </trkpt>
      <trkpt lat="43.43687" lon="-5.5897675">
        <ele>780.0</ele>
        <time>2021-02-14T12:01:30Z</time>
      </trkpt>
      <trkpt lat="43.436863" lon="-5.5897794">
        <ele>780.0</ele>
        <time>2021-02-14T12:01:31Z</time>
      </trkpt>
      <trkpt lat="43.43685" lon="-5.589791">
        <ele>780.0</ele>
        <time>2021-02-14T12:01:32Z</time>
      </trkpt>
      <trkpt lat="43.43684" lon="-5.589801">
        <ele>780.0</ele>
        <time>2021-02-14T12:01:33Z</time>
      </trkpt>
      <trkpt lat="43.436832" lon="-5.5898094">
        <ele>780.0</ele>
        <time>2021-02-14T12:01:34Z</time>
      </trkpt>
      <trkpt lat="43.43682" lon="-5.5898185">
        <ele>781.0</ele>
        <time>2021-02-14T12:01:35Z</time>
      </trkpt>
      <trkpt lat="43.43681" lon="-5.5898285">
        <ele>781.0</ele>
        <time>2021-02-14T12:01:36Z</time>
      </trkpt>
      <trkpt lat="43.4368" lon="-5.589842">
        <ele>781.0</ele>
        <time>2021-02-14T12:01:37Z</time>
      </trkpt>
      <trkpt lat="43.436794" lon="-5.589855">
        <ele>781.0</ele>
        <time>2021-02-14T12:01:38Z</time>
      </trkpt>
      <trkpt lat="43.43679" lon="-5.5898695">
        <ele>781.0</ele>
        <time>2021-02-14T12:01:39Z</time>
      </trkpt>
      <trkpt lat="43.436783" lon="-5.5898824">
        <ele>781.0</ele>
        <time>2021-02-14T12:01:40Z</time>
      </trkpt>
      <trkpt lat="43.43678" lon="-5.5898952">
        <ele>781.0</ele>
        <time>2021-02-14T12:01:41Z</time>
      </trkpt>
      <trkpt lat="43.436775" lon="-5.5899067">
        <ele>781.0</ele>
        <time>2021-02-14T12:01:42Z</time>
      </trkpt>
      <trkpt lat="43.436768" lon="-5.5899177">
        <ele>781.0</ele>
        <time>2021-02-14T12:01:43Z</time>
      </trkpt>
      <trkpt lat="43.436764" lon="-5.5899277">
        <ele>781.0</ele>
        <time>2021-02-14T12:01:44Z</time>
      </trkpt>
      <trkpt lat="43.436752" lon="-5.589937">
        <ele>781.0</ele>
        <time>2021-02-14T12:01:45Z</time>
      </trkpt>
      <trkpt lat="43.43675" lon="-5.5899444">
        <ele>781.0</ele>
        <time>2021-02-14T12:01:46Z</time>
      </trkpt>
      <trkpt lat="43.436745" lon="-5.5899506">
        <ele>781.0</ele>
        <time>2021-02-14T12:01:47Z</time>
      </trkpt>
      <trkpt lat="43.436733" lon="-5.589957">
        <ele>781.0</ele>
        <time>2021-02-14T12:01:48Z</time>
      </trkpt>
      <trkpt lat="43.43673" lon="-5.589963">
        <ele>781.0</ele>
        <time>2021-02-14T12:01:49Z</time>
      </trkpt>
      <trkpt lat="43.436718" lon="-5.5899687">
        <ele>781.0</ele>
        <time>2021-02-14T12:01:50Z</time>
      </trkpt>
      <trkpt lat="43.436714" lon="-5.589976">
        <ele>781.0</ele>
        <time>2021-02-14T12:01:51Z</time>
      </trkpt>
      <trkpt lat="43.436703" lon="-5.589984">
        <ele>781.0</ele>
        <time>2021-02-14T12:01:52Z</time>
      </trkpt>
      <trkpt lat="43.4367" lon="-5.5899944">
        <ele>781.0</ele>
        <time>2021-02-14T12:01:53Z</time>
      </trkpt>
      <trkpt lat="43.43669" lon="-5.5900044">
        <ele>781.0</ele>
        <time>2021-02-14T12:01:54Z</time>
      </trkpt>
      <trkpt lat="43.436684" lon="-5.5900154">
        <ele>781.0</ele>
        <time>2021-02-14T12:01:55Z</time>
      </trkpt>
      <trkpt lat="43.436672" lon="-5.5900245">
        <ele>781.0</ele>
        <time>2021-02-14T12:01:56Z</time>
      </trkpt>
      <trkpt lat="43.43666" lon="-5.590033">
        <ele>781.0</ele>
        <time>2021-02-14T12:01:57Z</time>
      </trkpt>
      <trkpt lat="43.436653" lon="-5.590044">
        <ele>781.0</ele>
        <time>2021-02-14T12:01:58Z</time>
      </trkpt>
      <trkpt lat="43.43664" lon="-5.5900555">
        <ele>781.0</ele>
        <time>2021-02-14T12:01:59Z</time>
      </trkpt>
      <trkpt lat="43.43663" lon="-5.5900683">
        <ele>781.0</ele>
        <time>2021-02-14T12:02:00Z</time>
      </trkpt>
      <trkpt lat="43.436626" lon="-5.5900817">
        <ele>781.0</ele>
        <time>2021-02-14T12:02:02Z</time>
      </trkpt>
      <trkpt lat="43.436615" lon="-5.5900955">
        <ele>781.0</ele>
        <time>2021-02-14T12:02:02Z</time>
      </trkpt>
      <trkpt lat="43.436604" lon="-5.590107">
        <ele>781.0</ele>
        <time>2021-02-14T12:02:03Z</time>
      </trkpt>
      <trkpt lat="43.4366" lon="-5.590118">
        <ele>781.0</ele>
        <time>2021-02-14T12:02:04Z</time>
      </trkpt>
      <trkpt lat="43.43659" lon="-5.5901265">
        <ele>781.0</ele>
        <time>2021-02-14T12:02:05Z</time>
      </trkpt>
      <trkpt lat="43.43658" lon="-5.5901346">
        <ele>781.0</ele>
        <time>2021-02-14T12:02:06Z</time>
      </trkpt>
      <trkpt lat="43.436573" lon="-5.5901423">
        <ele>781.0</ele>
        <time>2021-02-14T12:02:07Z</time>
      </trkpt>
      <trkpt lat="43.436558" lon="-5.590149">
        <ele>781.0</ele>
        <time>2021-02-14T12:02:08Z</time>
      </trkpt>
      <trkpt lat="43.43655" lon="-5.5901546">
        <ele>781.0</ele>
        <time>2021-02-14T12:02:09Z</time>
      </trkpt>
      <trkpt lat="43.43654" lon="-5.59016">
        <ele>781.0</ele>
        <time>2021-02-14T12:02:10Z</time>
      </trkpt>
      <trkpt lat="43.436535" lon="-5.590163">
        <ele>781.0</ele>
        <time>2021-02-14T12:02:11Z</time>
      </trkpt>
      <trkpt lat="43.436523" lon="-5.5901675">
        <ele>781.0</ele>
        <time>2021-02-14T12:02:12Z</time>
      </trkpt>
      <trkpt lat="43.436512" lon="-5.5901723">
        <ele>781.0</ele>
        <time>2021-02-14T12:02:13Z</time>
      </trkpt>
      <trkpt lat="43.43651" lon="-5.59018">
        <ele>781.0</ele>
        <time>2021-02-14T12:02:14Z</time>
      </trkpt>
      <trkpt lat="43.436504" lon="-5.5901914">
        <ele>781.0</ele>
        <time>2021-02-14T12:02:15Z</time>
      </trkpt>
      <trkpt lat="43.43651" lon="-5.590206">
        <ele>781.0</ele>
        <time>2021-02-14T12:02:16Z</time>
      </trkpt>
      <trkpt lat="43.43651" lon="-5.5902214">
        <ele>781.0</ele>
        <time>2021-02-14T12:02:17Z</time>
      </trkpt>
      <trkpt lat="43.43651" lon="-5.5902348">
        <ele>781.0</ele>
        <time>2021-02-14T12:02:18Z</time>
      </trkpt>
      <trkpt lat="43.43651" lon="-5.5902457">
        <ele>781.0</ele>
        <time>2021-02-14T12:02:19Z</time>
      </trkpt>
      <trkpt lat="43.436497" lon="-5.590253">
        <ele>781.0</ele>
        <time>2021-02-14T12:02:20Z</time>
      </trkpt>
      <trkpt lat="43.436493" lon="-5.590258">
        <ele>781.0</ele>
        <time>2021-02-14T12:02:21Z</time>
      </trkpt>
      <trkpt lat="43.43649" lon="-5.590264">
        <ele>781.0</ele>
        <time>2021-02-14T12:02:22Z</time>
      </trkpt>
      <trkpt lat="43.436474" lon="-5.5902705">
        <ele>781.0</ele>
        <time>2021-02-14T12:02:23Z</time>
      </trkpt>
      <trkpt lat="43.436466" lon="-5.590277">
        <ele>781.0</ele>
        <time>2021-02-14T12:02:24Z</time>
      </trkpt>
      <trkpt lat="43.43645" lon="-5.590285">
        <ele>781.0</ele>
        <time>2021-02-14T12:02:25Z</time>
      </trkpt>
      <trkpt lat="43.436443" lon="-5.590294">
        <ele>781.0</ele>
        <time>2021-02-14T12:02:26Z</time>
      </trkpt>
      <trkpt lat="43.43643" lon="-5.5903034">
        <ele>781.0</ele>
        <time>2021-02-14T12:02:27Z</time>
      </trkpt>
      <trkpt lat="43.436417" lon="-5.590317">
        <ele>781.0</ele>
        <time>2021-02-14T12:02:28Z</time>
      </trkpt>
      <trkpt lat="43.436405" lon="-5.590329">
        <ele>781.0</ele>
        <time>2021-02-14T12:02:29Z</time>
      </trkpt>
      <trkpt lat="43.436394" lon="-5.5903397">
        <ele>781.0</ele>
        <time>2021-02-14T12:02:30Z</time>
      </trkpt>
      <trkpt lat="43.436386" lon="-5.5903487">
        <ele>781.0</ele>
        <time>2021-02-14T12:02:31Z</time>
      </trkpt>
      <trkpt lat="43.43638" lon="-5.5903525">
        <ele>781.0</ele>
        <time>2021-02-14T12:02:32Z</time>
      </trkpt>
      <trkpt lat="43.43637" lon="-5.5903573">
        <ele>781.0</ele>
        <time>2021-02-14T12:02:34Z</time>
      </trkpt>
      <trkpt lat="43.43637" lon="-5.5903563">
        <ele>781.0</ele>
        <time>2021-02-14T12:02:35Z</time>
      </trkpt>
      <trkpt lat="43.436375" lon="-5.5903425">
        <ele>781.0</ele>
        <time>2021-02-14T12:02:37Z</time>
      </trkpt>
      <trkpt lat="43.43638" lon="-5.5903378">
        <ele>781.0</ele>
        <time>2021-02-14T12:02:38Z</time>
      </trkpt>
      <trkpt lat="43.436386" lon="-5.590329">
        <ele>781.0</ele>
        <time>2021-02-14T12:02:39Z</time>
      </trkpt>
      <trkpt lat="43.436386" lon="-5.590321">
        <ele>781.0</ele>
        <time>2021-02-14T12:02:40Z</time>
      </trkpt>
      <trkpt lat="43.436386" lon="-5.5903163">
        <ele>781.0</ele>
        <time>2021-02-14T12:02:41Z</time>
      </trkpt>
      <trkpt lat="43.436375" lon="-5.590319">
        <ele>781.0</ele>
        <time>2021-02-14T12:02:42Z</time>
      </trkpt>
      <trkpt lat="43.43637" lon="-5.5903225">
        <ele>781.0</ele>
        <time>2021-02-14T12:02:43Z</time>
      </trkpt>
      <trkpt lat="43.43637" lon="-5.590326">
        <ele>781.0</ele>
        <time>2021-02-14T12:02:44Z</time>
      </trkpt>
      <trkpt lat="43.436375" lon="-5.5903277">
        <ele>781.0</ele>
        <time>2021-02-14T12:02:46Z</time>
      </trkpt>
      <trkpt lat="43.436386" lon="-5.5903206">
        <ele>781.0</ele>
        <time>2021-02-14T12:02:48Z</time>
      </trkpt>
      <trkpt lat="43.436386" lon="-5.59032">
        <ele>781.0</ele>
        <time>2021-02-14T12:02:49Z</time>
      </trkpt>
      <trkpt lat="43.436386" lon="-5.59032">
        <ele>781.0</ele>
        <time>2021-02-14T12:02:50Z</time>
      </trkpt>
      <trkpt lat="43.436386" lon="-5.590319">
        <ele>781.0</ele>
        <time>2021-02-14T12:02:51Z</time>
      </trkpt>
      <trkpt lat="43.43639" lon="-5.590319">
        <ele>781.0</ele>
        <time>2021-02-14T12:02:52Z</time>
      </trkpt>
      <trkpt lat="43.43639" lon="-5.59032">
        <ele>781.0</ele>
        <time>2021-02-14T12:02:53Z</time>
      </trkpt>
      <trkpt lat="43.436394" lon="-5.5903206">
        <ele>781.0</ele>
        <time>2021-02-14T12:02:54Z</time>
      </trkpt>
      <trkpt lat="43.4364" lon="-5.5903172">
        <ele>781.0</ele>
        <time>2021-02-14T12:02:57Z</time>
      </trkpt>
      <trkpt lat="43.4364" lon="-5.590318">
        <ele>781.0</ele>
        <time>2021-02-14T12:02:58Z</time>
      </trkpt>
      <trkpt lat="43.436394" lon="-5.5903277">
        <ele>781.0</ele>
        <time>2021-02-14T12:03:00Z</time>
      </trkpt>
      <trkpt lat="43.43639" lon="-5.590328">
        <ele>781.0</ele>
        <time>2021-02-14T12:03:01Z</time>
      </trkpt>
      <trkpt lat="43.43639" lon="-5.5903296">
        <ele>781.0</ele>
        <time>2021-02-14T12:03:02Z</time>
      </trkpt>
      <trkpt lat="43.43639" lon="-5.5903316">
        <ele>781.0</ele>
        <time>2021-02-14T12:03:03Z</time>
      </trkpt>
      <trkpt lat="43.436375" lon="-5.5903373">
        <ele>781.0</ele>
        <time>2021-02-14T12:03:06Z</time>
      </trkpt>
      <trkpt lat="43.43637" lon="-5.5903378">
        <ele>781.0</ele>
        <time>2021-02-14T12:03:07Z</time>
      </trkpt>
      <trkpt lat="43.436363" lon="-5.590339">
        <ele>781.0</ele>
        <time>2021-02-14T12:03:08Z</time>
      </trkpt>
      <trkpt lat="43.43636" lon="-5.5903406">
        <ele>781.0</ele>
        <time>2021-02-14T12:03:09Z</time>
      </trkpt>
      <trkpt lat="43.436356" lon="-5.5903416">
        <ele>781.0</ele>
        <time>2021-02-14T12:03:10Z</time>
      </trkpt>
      <trkpt lat="43.436356" lon="-5.5903425">
        <ele>781.0</ele>
        <time>2021-02-14T12:03:11Z</time>
      </trkpt>
      <trkpt lat="43.436348" lon="-5.5903435">
        <ele>781.0</ele>
        <time>2021-02-14T12:03:12Z</time>
      </trkpt>
      <trkpt lat="43.436344" lon="-5.590345">
        <ele>781.0</ele>
        <time>2021-02-14T12:03:13Z</time>
      </trkpt>
      <trkpt lat="43.436344" lon="-5.5903463">
        <ele>781.0</ele>
        <time>2021-02-14T12:03:14Z</time>
      </trkpt>
      <trkpt lat="43.436344" lon="-5.5903482">
        <ele>781.0</ele>
        <time>2021-02-14T12:03:15Z</time>
      </trkpt>
      <trkpt lat="43.436344" lon="-5.59035">
        <ele>781.0</ele>
        <time>2021-02-14T12:03:16Z</time>
      </trkpt>
      <trkpt lat="43.43634" lon="-5.590354">
        <ele>781.0</ele>
        <time>2021-02-14T12:03:18Z</time>
      </trkpt>
      <trkpt lat="43.43634" lon="-5.5903544">
        <ele>781.0</ele>
        <time>2021-02-14T12:03:19Z</time>
      </trkpt>
      <trkpt lat="43.436333" lon="-5.590354">
        <ele>781.0</ele>
        <time>2021-02-14T12:03:21Z</time>
      </trkpt>
      <trkpt lat="43.436333" lon="-5.5903506">
        <ele>781.0</ele>
        <time>2021-02-14T12:03:23Z</time>
      </trkpt>
      <trkpt lat="43.43633" lon="-5.590354">
        <ele>781.0</ele>
        <time>2021-02-14T12:03:25Z</time>
      </trkpt>
      <trkpt lat="43.43633" lon="-5.5903544">
        <ele>781.0</ele>
        <time>2021-02-14T12:03:26Z</time>
      </trkpt>
      <trkpt lat="43.436325" lon="-5.5903544">
        <ele>781.0</ele>
        <time>2021-02-14T12:03:27Z</time>
      </trkpt>
      <trkpt lat="43.436325" lon="-5.590354">
        <ele>781.0</ele>
        <time>2021-02-14T12:03:28Z</time>
      </trkpt>
      <trkpt lat="43.436317" lon="-5.5903516">
        <ele>781.0</ele>
        <time>2021-02-14T12:03:29Z</time>
      </trkpt>
      <trkpt lat="43.436317" lon="-5.5903473">
        <ele>781.0</ele>
        <time>2021-02-14T12:03:30Z</time>
      </trkpt>
      <trkpt lat="43.436302" lon="-5.5903373">
        <ele>781.0</ele>
        <time>2021-02-14T12:04:06Z</time>
      </trkpt>
      <trkpt lat="43.436302" lon="-5.590337">
        <ele>781.0</ele>
        <time>2021-02-14T12:04:07Z</time>
      </trkpt>
      <trkpt lat="43.436295" lon="-5.590336">
        <ele>781.0</ele>
        <time>2021-02-14T12:04:23Z</time>
      </trkpt>
      <trkpt lat="43.436295" lon="-5.5903373">
        <ele>781.0</ele>
        <time>2021-02-14T12:04:24Z</time>
      </trkpt>
      <trkpt lat="43.436287" lon="-5.590341">
        <ele>781.0</ele>
        <time>2021-02-14T12:04:25Z</time>
      </trkpt>
      <trkpt lat="43.436283" lon="-5.590347">
        <ele>781.0</ele>
        <time>2021-02-14T12:04:26Z</time>
      </trkpt>
      <trkpt lat="43.43627" lon="-5.5903544">
        <ele>781.0</ele>
        <time>2021-02-14T12:04:27Z</time>
      </trkpt>
      <trkpt lat="43.436264" lon="-5.59036">
        <ele>781.0</ele>
        <time>2021-02-14T12:04:28Z</time>
      </trkpt>
      <trkpt lat="43.436253" lon="-5.590366">
        <ele>781.0</ele>
        <time>2021-02-14T12:04:29Z</time>
      </trkpt>
      <trkpt lat="43.43624" lon="-5.590374">
        <ele>781.0</ele>
        <time>2021-02-14T12:04:30Z</time>
      </trkpt>
      <trkpt lat="43.436234" lon="-5.590382">
        <ele>781.0</ele>
        <time>2021-02-14T12:04:31Z</time>
      </trkpt>
      <trkpt lat="43.436222" lon="-5.590392">
        <ele>781.0</ele>
        <time>2021-02-14T12:04:32Z</time>
      </trkpt>
      <trkpt lat="43.436214" lon="-5.5904045">
        <ele>781.0</ele>
        <time>2021-02-14T12:04:33Z</time>
      </trkpt>
      <trkpt lat="43.43621" lon="-5.590416">
        <ele>781.0</ele>
        <time>2021-02-14T12:04:34Z</time>
      </trkpt>
      <trkpt lat="43.4362" lon="-5.5904274">
        <ele>781.0</ele>
        <time>2021-02-14T12:04:35Z</time>
      </trkpt>
      <trkpt lat="43.43619" lon="-5.5904384">
        <ele>781.0</ele>
        <time>2021-02-14T12:04:36Z</time>
      </trkpt>
      <trkpt lat="43.436184" lon="-5.5904493">
        <ele>781.0</ele>
        <time>2021-02-14T12:04:37Z</time>
      </trkpt>
      <trkpt lat="43.436176" lon="-5.5904584">
        <ele>781.0</ele>
        <time>2021-02-14T12:04:38Z</time>
      </trkpt>
      <trkpt lat="43.43617" lon="-5.590469">
        <ele>781.0</ele>
        <time>2021-02-14T12:04:39Z</time>
      </trkpt>
      <trkpt lat="43.436165" lon="-5.59048">
        <ele>781.0</ele>
        <time>2021-02-14T12:04:40Z</time>
      </trkpt>
      <trkpt lat="43.43616" lon="-5.5904922">
        <ele>782.0</ele>
        <time>2021-02-14T12:04:41Z</time>
      </trkpt>
      <trkpt lat="43.436153" lon="-5.5905023">
        <ele>782.0</ele>
        <time>2021-02-14T12:04:42Z</time>
      </trkpt>
      <trkpt lat="43.43615" lon="-5.5905094">
        <ele>782.0</ele>
        <time>2021-02-14T12:04:43Z</time>
      </trkpt>
      <trkpt lat="43.436146" lon="-5.5905166">
        <ele>782.0</ele>
        <time>2021-02-14T12:04:44Z</time>
      </trkpt>
      <trkpt lat="43.43614" lon="-5.590523">
        <ele>782.0</ele>
        <time>2021-02-14T12:04:45Z</time>
      </trkpt>
      <trkpt lat="43.436134" lon="-5.5905294">
        <ele>782.0</ele>
        <time>2021-02-14T12:04:46Z</time>
      </trkpt>
      <trkpt lat="43.436123" lon="-5.5905395">
        <ele>782.0</ele>
        <time>2021-02-14T12:04:47Z</time>
      </trkpt>
      <trkpt lat="43.436115" lon="-5.590551">
        <ele>782.0</ele>
        <time>2021-02-14T12:04:48Z</time>
      </trkpt>
      <trkpt lat="43.436104" lon="-5.5905614">
        <ele>782.0</ele>
        <time>2021-02-14T12:04:49Z</time>
      </trkpt>
      <trkpt lat="43.4361" lon="-5.5905743">
        <ele>782.0</ele>
        <time>2021-02-14T12:04:50Z</time>
      </trkpt>
      <trkpt lat="43.436092" lon="-5.590586">
        <ele>782.0</ele>
        <time>2021-02-14T12:04:51Z</time>
      </trkpt>
      <trkpt lat="43.436085" lon="-5.5905986">
        <ele>783.0</ele>
        <time>2021-02-14T12:04:52Z</time>
      </trkpt>
      <trkpt lat="43.436073" lon="-5.590613">
        <ele>783.0</ele>
        <time>2021-02-14T12:04:53Z</time>
      </trkpt>
      <trkpt lat="43.43606" lon="-5.590627">
        <ele>783.0</ele>
        <time>2021-02-14T12:04:54Z</time>
      </trkpt>
      <trkpt lat="43.436054" lon="-5.590642">
        <ele>783.0</ele>
        <time>2021-02-14T12:04:54Z</time>
      </trkpt>
      <trkpt lat="43.436047" lon="-5.5906553">
        <ele>783.0</ele>
        <time>2021-02-14T12:04:56Z</time>
      </trkpt>
      <trkpt lat="43.43604" lon="-5.5906663">
        <ele>783.0</ele>
        <time>2021-02-14T12:04:56Z</time>
      </trkpt>
      <trkpt lat="43.436028" lon="-5.590678">
        <ele>783.0</ele>
        <time>2021-02-14T12:04:57Z</time>
      </trkpt>
      <trkpt lat="43.43602" lon="-5.59069">
        <ele>783.0</ele>
        <time>2021-02-14T12:04:58Z</time>
      </trkpt>
      <trkpt lat="43.436012" lon="-5.5907006">
        <ele>783.0</ele>
        <time>2021-02-14T12:04:59Z</time>
      </trkpt>
      <trkpt lat="43.436" lon="-5.5907097">
        <ele>784.0</ele>
        <time>2021-02-14T12:05:00Z</time>
      </trkpt>
      <trkpt lat="43.435997" lon="-5.5907187">
        <ele>784.0</ele>
        <time>2021-02-14T12:05:01Z</time>
      </trkpt>
      <trkpt lat="43.435986" lon="-5.590726">
        <ele>784.0</ele>
        <time>2021-02-14T12:05:02Z</time>
      </trkpt>
      <trkpt lat="43.43598" lon="-5.5907326">
        <ele>784.0</ele>
        <time>2021-02-14T12:05:03Z</time>
      </trkpt>
      <trkpt lat="43.43597" lon="-5.5907407">
        <ele>784.0</ele>
        <time>2021-02-14T12:05:04Z</time>
      </trkpt>
      <trkpt lat="43.435966" lon="-5.5907507">
        <ele>784.0</ele>
        <time>2021-02-14T12:05:05Z</time>
      </trkpt>
      <trkpt lat="43.435955" lon="-5.590763">
        <ele>784.0</ele>
        <time>2021-02-14T12:05:06Z</time>
      </trkpt>
      <trkpt lat="43.43595" lon="-5.5907736">
        <ele>784.0</ele>
        <time>2021-02-14T12:05:07Z</time>
      </trkpt>
      <trkpt lat="43.435944" lon="-5.5907845">
        <ele>785.0</ele>
        <time>2021-02-14T12:05:08Z</time>
      </trkpt>
      <trkpt lat="43.43594" lon="-5.590794">
        <ele>785.0</ele>
        <time>2021-02-14T12:05:09Z</time>
      </trkpt>
      <trkpt lat="43.435936" lon="-5.5908036">
        <ele>785.0</ele>
        <time>2021-02-14T12:05:10Z</time>
      </trkpt>
      <trkpt lat="43.43593" lon="-5.5908146">
        <ele>785.0</ele>
        <time>2021-02-14T12:05:11Z</time>
      </trkpt>
      <trkpt lat="43.435925" lon="-5.590824">
        <ele>785.0</ele>
        <time>2021-02-14T12:05:12Z</time>
      </trkpt>
      <trkpt lat="43.43592" lon="-5.5908327">
        <ele>785.0</ele>
        <time>2021-02-14T12:05:13Z</time>
      </trkpt>
      <trkpt lat="43.435913" lon="-5.590842">
        <ele>785.0</ele>
        <time>2021-02-14T12:05:14Z</time>
      </trkpt>
      <trkpt lat="43.43591" lon="-5.5908504">
        <ele>786.0</ele>
        <time>2021-02-14T12:05:15Z</time>
      </trkpt>
      <trkpt lat="43.435905" lon="-5.5908604">
        <ele>786.0</ele>
        <time>2021-02-14T12:05:16Z</time>
      </trkpt>
      <trkpt lat="43.435898" lon="-5.590869">
        <ele>786.0</ele>
        <time>2021-02-14T12:05:17Z</time>
      </trkpt>
      <trkpt lat="43.435894" lon="-5.590878">
        <ele>786.0</ele>
        <time>2021-02-14T12:05:18Z</time>
      </trkpt>
      <trkpt lat="43.43589" lon="-5.5908856">
        <ele>786.0</ele>
        <time>2021-02-14T12:05:19Z</time>
      </trkpt>
      <trkpt lat="43.435883" lon="-5.5908933">
        <ele>787.0</ele>
        <time>2021-02-14T12:05:20Z</time>
      </trkpt>
      <trkpt lat="43.435875" lon="-5.5909004">
        <ele>787.0</ele>
        <time>2021-02-14T12:05:21Z</time>
      </trkpt>
      <trkpt lat="43.435867" lon="-5.590908">
        <ele>787.0</ele>
        <time>2021-02-14T12:05:22Z</time>
      </trkpt>
      <trkpt lat="43.43586" lon="-5.5909166">
        <ele>787.0</ele>
        <time>2021-02-14T12:05:23Z</time>
      </trkpt>
      <trkpt lat="43.435852" lon="-5.590926">
        <ele>787.0</ele>
        <time>2021-02-14T12:05:24Z</time>
      </trkpt>
      <trkpt lat="43.43585" lon="-5.590937">
        <ele>787.0</ele>
        <time>2021-02-14T12:05:25Z</time>
      </trkpt>
      <trkpt lat="43.435844" lon="-5.590947">
        <ele>787.0</ele>
        <time>2021-02-14T12:05:26Z</time>
      </trkpt>
      <trkpt lat="43.435837" lon="-5.590958">
        <ele>787.0</ele>
        <time>2021-02-14T12:05:27Z</time>
      </trkpt>
      <trkpt lat="43.435833" lon="-5.590969">
        <ele>787.0</ele>
        <time>2021-02-14T12:05:28Z</time>
      </trkpt>
      <trkpt lat="43.435825" lon="-5.5909786">
        <ele>787.0</ele>
        <time>2021-02-14T12:05:29Z</time>
      </trkpt>
      <trkpt lat="43.435818" lon="-5.5909863">
        <ele>787.0</ele>
        <time>2021-02-14T12:05:30Z</time>
      </trkpt>
      <trkpt lat="43.43581" lon="-5.5909953">
        <ele>787.0</ele>
        <time>2021-02-14T12:05:31Z</time>
      </trkpt>
      <trkpt lat="43.435806" lon="-5.591005">
        <ele>788.0</ele>
        <time>2021-02-14T12:05:32Z</time>
      </trkpt>
      <trkpt lat="43.435802" lon="-5.591016">
        <ele>788.0</ele>
        <time>2021-02-14T12:05:33Z</time>
      </trkpt>
      <trkpt lat="43.435795" lon="-5.5910273">
        <ele>788.0</ele>
        <time>2021-02-14T12:05:34Z</time>
      </trkpt>
      <trkpt lat="43.435787" lon="-5.591038">
        <ele>788.0</ele>
        <time>2021-02-14T12:05:35Z</time>
      </trkpt>
      <trkpt lat="43.43578" lon="-5.5910497">
        <ele>788.0</ele>
        <time>2021-02-14T12:05:36Z</time>
      </trkpt>
      <trkpt lat="43.435772" lon="-5.591059">
        <ele>788.0</ele>
        <time>2021-02-14T12:05:37Z</time>
      </trkpt>
      <trkpt lat="43.435764" lon="-5.5910683">
        <ele>789.0</ele>
        <time>2021-02-14T12:05:38Z</time>
      </trkpt>
      <trkpt lat="43.435757" lon="-5.5910745">
        <ele>789.0</ele>
        <time>2021-02-14T12:05:39Z</time>
      </trkpt>
      <trkpt lat="43.43575" lon="-5.59108">
        <ele>789.0</ele>
        <time>2021-02-14T12:05:40Z</time>
      </trkpt>
      <trkpt lat="43.43574" lon="-5.5910873">
        <ele>789.0</ele>
        <time>2021-02-14T12:05:41Z</time>
      </trkpt>
      <trkpt lat="43.435734" lon="-5.5910964">
        <ele>789.0</ele>
        <time>2021-02-14T12:05:42Z</time>
      </trkpt>
      <trkpt lat="43.435726" lon="-5.5911055">
        <ele>789.0</ele>
        <time>2021-02-14T12:05:43Z</time>
      </trkpt>
      <trkpt lat="43.43572" lon="-5.591116">
        <ele>790.0</ele>
        <time>2021-02-14T12:05:44Z</time>
      </trkpt>
      <trkpt lat="43.43571" lon="-5.591126">
        <ele>790.0</ele>
        <time>2021-02-14T12:05:45Z</time>
      </trkpt>
      <trkpt lat="43.4357" lon="-5.591136">
        <ele>790.0</ele>
        <time>2021-02-14T12:05:46Z</time>
      </trkpt>
      <trkpt lat="43.435688" lon="-5.5911465">
        <ele>790.0</ele>
        <time>2021-02-14T12:05:47Z</time>
      </trkpt>
      <trkpt lat="43.43568" lon="-5.591156">
        <ele>791.0</ele>
        <time>2021-02-14T12:05:48Z</time>
      </trkpt>
      <trkpt lat="43.435673" lon="-5.591166">
        <ele>791.0</ele>
        <time>2021-02-14T12:05:49Z</time>
      </trkpt>
      <trkpt lat="43.435665" lon="-5.5911756">
        <ele>791.0</ele>
        <time>2021-02-14T12:05:50Z</time>
      </trkpt>
      <trkpt lat="43.435654" lon="-5.591184">
        <ele>791.0</ele>
        <time>2021-02-14T12:05:51Z</time>
      </trkpt>
      <trkpt lat="43.43565" lon="-5.591192">
        <ele>791.0</ele>
        <time>2021-02-14T12:05:52Z</time>
      </trkpt>
      <trkpt lat="43.43564" lon="-5.591198">
        <ele>791.0</ele>
        <time>2021-02-14T12:05:53Z</time>
      </trkpt>
      <trkpt lat="43.435627" lon="-5.5912037">
        <ele>791.0</ele>
        <time>2021-02-14T12:05:54Z</time>
      </trkpt>
      <trkpt lat="43.435623" lon="-5.5912094">
        <ele>792.0</ele>
        <time>2021-02-14T12:05:55Z</time>
      </trkpt>
      <trkpt lat="43.43561" lon="-5.591215">
        <ele>792.0</ele>
        <time>2021-02-14T12:05:56Z</time>
      </trkpt>
      <trkpt lat="43.4356" lon="-5.5912204">
        <ele>792.0</ele>
        <time>2021-02-14T12:05:57Z</time>
      </trkpt>
      <trkpt lat="43.435596" lon="-5.5912275">
        <ele>792.0</ele>
        <time>2021-02-14T12:05:58Z</time>
      </trkpt>
      <trkpt lat="43.435593" lon="-5.5912366">
        <ele>792.0</ele>
        <time>2021-02-14T12:05:59Z</time>
      </trkpt>
      <trkpt lat="43.43558" lon="-5.591246">
        <ele>792.0</ele>
        <time>2021-02-14T12:06:00Z</time>
      </trkpt>
      <trkpt lat="43.435577" lon="-5.5912514">
        <ele>793.0</ele>
        <time>2021-02-14T12:06:01Z</time>
      </trkpt>
      <trkpt lat="43.435566" lon="-5.591255">
        <ele>793.0</ele>
        <time>2021-02-14T12:06:02Z</time>
      </trkpt>
      <trkpt lat="43.435555" lon="-5.591256">
        <ele>793.0</ele>
        <time>2021-02-14T12:06:03Z</time>
      </trkpt>
      <trkpt lat="43.43554" lon="-5.591254">
        <ele>793.0</ele>
        <time>2021-02-14T12:06:04Z</time>
      </trkpt>
      <trkpt lat="43.435524" lon="-5.591254">
        <ele>794.0</ele>
        <time>2021-02-14T12:06:05Z</time>
      </trkpt>
      <trkpt lat="43.43551" lon="-5.591255">
        <ele>794.0</ele>
        <time>2021-02-14T12:06:06Z</time>
      </trkpt>
      <trkpt lat="43.43549" lon="-5.591257">
        <ele>794.0</ele>
        <time>2021-02-14T12:06:07Z</time>
      </trkpt>
      <trkpt lat="43.43548" lon="-5.59126">
        <ele>794.0</ele>
        <time>2021-02-14T12:06:08Z</time>
      </trkpt>
      <trkpt lat="43.435474" lon="-5.59127">
        <ele>794.0</ele>
        <time>2021-02-14T12:06:09Z</time>
      </trkpt>
      <trkpt lat="43.43547" lon="-5.59128">
        <ele>794.0</ele>
        <time>2021-02-14T12:06:10Z</time>
      </trkpt>
      <trkpt lat="43.435463" lon="-5.591291">
        <ele>794.0</ele>
        <time>2021-02-14T12:06:11Z</time>
      </trkpt>
      <trkpt lat="43.43546" lon="-5.5913024">
        <ele>794.0</ele>
        <time>2021-02-14T12:06:12Z</time>
      </trkpt>
      <trkpt lat="43.435448" lon="-5.5913095">
        <ele>794.0</ele>
        <time>2021-02-14T12:06:13Z</time>
      </trkpt>
      <trkpt lat="43.435436" lon="-5.591315">
        <ele>794.0</ele>
        <time>2021-02-14T12:06:14Z</time>
      </trkpt>
      <trkpt lat="43.435432" lon="-5.5913215">
        <ele>794.0</ele>
        <time>2021-02-14T12:06:15Z</time>
      </trkpt>
      <trkpt lat="43.435406" lon="-5.5913486">
        <ele>794.0</ele>
        <time>2021-02-14T12:06:17Z</time>
      </trkpt>
      <trkpt lat="43.435402" lon="-5.5913486">
        <ele>794.0</ele>
        <time>2021-02-14T12:06:18Z</time>
      </trkpt>
      <trkpt lat="43.43539" lon="-5.591346">
        <ele>794.0</ele>
        <time>2021-02-14T12:06:19Z</time>
      </trkpt>
      <trkpt lat="43.435383" lon="-5.591342">
        <ele>794.0</ele>
        <time>2021-02-14T12:06:20Z</time>
      </trkpt>
      <trkpt lat="43.43537" lon="-5.591338">
        <ele>795.0</ele>
        <time>2021-02-14T12:06:21Z</time>
      </trkpt>
      <trkpt lat="43.435356" lon="-5.591332">
        <ele>795.0</ele>
        <time>2021-02-14T12:06:22Z</time>
      </trkpt>
      <trkpt lat="43.43534" lon="-5.5913267">
        <ele>795.0</ele>
        <time>2021-02-14T12:06:23Z</time>
      </trkpt>
      <trkpt lat="43.435326" lon="-5.5913215">
        <ele>795.0</ele>
        <time>2021-02-14T12:06:24Z</time>
      </trkpt>
      <trkpt lat="43.435314" lon="-5.5913186">
        <ele>795.0</ele>
        <time>2021-02-14T12:06:25Z</time>
      </trkpt>
      <trkpt lat="43.435307" lon="-5.591317">
        <ele>795.0</ele>
        <time>2021-02-14T12:06:26Z</time>
      </trkpt>
      <trkpt lat="43.435295" lon="-5.591317">
        <ele>795.0</ele>
        <time>2021-02-14T12:06:27Z</time>
      </trkpt>
      <trkpt lat="43.435284" lon="-5.5913186">
        <ele>795.0</ele>
        <time>2021-02-14T12:06:28Z</time>
      </trkpt>
      <trkpt lat="43.435276" lon="-5.591319">
        <ele>795.0</ele>
        <time>2021-02-14T12:06:29Z</time>
      </trkpt>
      <trkpt lat="43.435265" lon="-5.5913196">
        <ele>795.0</ele>
        <time>2021-02-14T12:06:30Z</time>
      </trkpt>
      <trkpt lat="43.43525" lon="-5.5913196">
        <ele>795.0</ele>
        <time>2021-02-14T12:06:31Z</time>
      </trkpt>
      <trkpt lat="43.435238" lon="-5.5913186">
        <ele>796.0</ele>
        <time>2021-02-14T12:06:32Z</time>
      </trkpt>
      <trkpt lat="43.435223" lon="-5.591317">
        <ele>796.0</ele>
        <time>2021-02-14T12:06:33Z</time>
      </trkpt>
      <trkpt lat="43.435207" lon="-5.591314">
        <ele>796.0</ele>
        <time>2021-02-14T12:06:34Z</time>
      </trkpt>
      <trkpt lat="43.43519" lon="-5.591312">
        <ele>796.0</ele>
        <time>2021-02-14T12:06:35Z</time>
      </trkpt>
      <trkpt lat="43.435177" lon="-5.5913105">
        <ele>796.0</ele>
        <time>2021-02-14T12:06:36Z</time>
      </trkpt>
      <trkpt lat="43.43516" lon="-5.5913115">
        <ele>796.0</ele>
        <time>2021-02-14T12:06:37Z</time>
      </trkpt>
      <trkpt lat="43.43515" lon="-5.5913115">
        <ele>796.0</ele>
        <time>2021-02-14T12:06:38Z</time>
      </trkpt>
      <trkpt lat="43.435143" lon="-5.5913115">
        <ele>796.0</ele>
        <time>2021-02-14T12:06:39Z</time>
      </trkpt>
      <trkpt lat="43.43513" lon="-5.59131">
        <ele>796.0</ele>
        <time>2021-02-14T12:06:40Z</time>
      </trkpt>
      <trkpt lat="43.435116" lon="-5.591308">
        <ele>796.0</ele>
        <time>2021-02-14T12:06:41Z</time>
      </trkpt>
      <trkpt lat="43.435104" lon="-5.5913057">
        <ele>796.0</ele>
        <time>2021-02-14T12:06:42Z</time>
      </trkpt>
      <trkpt lat="43.435097" lon="-5.5913024">
        <ele>796.0</ele>
        <time>2021-02-14T12:06:43Z</time>
      </trkpt>
      <trkpt lat="43.43508" lon="-5.591299">
        <ele>796.0</ele>
        <time>2021-02-14T12:06:44Z</time>
      </trkpt>
      <trkpt lat="43.43507" lon="-5.5912967">
        <ele>796.0</ele>
        <time>2021-02-14T12:06:45Z</time>
      </trkpt>
      <trkpt lat="43.435055" lon="-5.5912952">
        <ele>796.0</ele>
        <time>2021-02-14T12:06:46Z</time>
      </trkpt>
      <trkpt lat="43.435043" lon="-5.5912943">
        <ele>796.0</ele>
        <time>2021-02-14T12:06:47Z</time>
      </trkpt>
      <trkpt lat="43.43503" lon="-5.591293">
        <ele>796.0</ele>
        <time>2021-02-14T12:06:48Z</time>
      </trkpt>
      <trkpt lat="43.435024" lon="-5.5912924">
        <ele>796.0</ele>
        <time>2021-02-14T12:06:49Z</time>
      </trkpt>
      <trkpt lat="43.435013" lon="-5.5912924">
        <ele>796.0</ele>
        <time>2021-02-14T12:06:50Z</time>
      </trkpt>
      <trkpt lat="43.435" lon="-5.5912924">
        <ele>796.0</ele>
        <time>2021-02-14T12:06:51Z</time>
      </trkpt>
      <trkpt lat="43.434994" lon="-5.5912943">
        <ele>796.0</ele>
        <time>2021-02-14T12:06:52Z</time>
      </trkpt>
      <trkpt lat="43.434982" lon="-5.591297">
        <ele>796.0</ele>
        <time>2021-02-14T12:06:53Z</time>
      </trkpt>
      <trkpt lat="43.434967" lon="-5.5913">
        <ele>796.0</ele>
        <time>2021-02-14T12:06:54Z</time>
      </trkpt>
      <trkpt lat="43.434956" lon="-5.5913024">
        <ele>796.0</ele>
        <time>2021-02-14T12:06:55Z</time>
      </trkpt>
      <trkpt lat="43.43494" lon="-5.5913043">
        <ele>796.0</ele>
        <time>2021-02-14T12:06:56Z</time>
      </trkpt>
      <trkpt lat="43.434933" lon="-5.5913043">
        <ele>796.0</ele>
        <time>2021-02-14T12:06:57Z</time>
      </trkpt>
      <trkpt lat="43.43492" lon="-5.5913043">
        <ele>796.0</ele>
        <time>2021-02-14T12:06:58Z</time>
      </trkpt>
      <trkpt lat="43.43491" lon="-5.591306">
        <ele>796.0</ele>
        <time>2021-02-14T12:06:59Z</time>
      </trkpt>
      <trkpt lat="43.434902" lon="-5.5913086">
        <ele>796.0</ele>
        <time>2021-02-14T12:07:00Z</time>
      </trkpt>
      <trkpt lat="43.434887" lon="-5.591312">
        <ele>796.0</ele>
        <time>2021-02-14T12:07:01Z</time>
      </trkpt>
      <trkpt lat="43.434875" lon="-5.5913153">
        <ele>796.0</ele>
        <time>2021-02-14T12:07:02Z</time>
      </trkpt>
      <trkpt lat="43.434864" lon="-5.591319">
        <ele>796.0</ele>
        <time>2021-02-14T12:07:03Z</time>
      </trkpt>
      <trkpt lat="43.43485" lon="-5.591321">
        <ele>796.0</ele>
        <time>2021-02-14T12:07:04Z</time>
      </trkpt>
      <trkpt lat="43.434837" lon="-5.591323">
        <ele>796.0</ele>
        <time>2021-02-14T12:07:05Z</time>
      </trkpt>
      <trkpt lat="43.43483" lon="-5.591326">
        <ele>796.0</ele>
        <time>2021-02-14T12:07:06Z</time>
      </trkpt>
      <trkpt lat="43.43482" lon="-5.5913286">
        <ele>796.0</ele>
        <time>2021-02-14T12:07:07Z</time>
      </trkpt>
      <trkpt lat="43.434807" lon="-5.5913305">
        <ele>796.0</ele>
        <time>2021-02-14T12:07:08Z</time>
      </trkpt>
      <trkpt lat="43.4348" lon="-5.591332">
        <ele>796.0</ele>
        <time>2021-02-14T12:07:09Z</time>
      </trkpt>
      <trkpt lat="43.43479" lon="-5.591332">
        <ele>798.0</ele>
        <time>2021-02-14T12:07:10Z</time>
      </trkpt>
      <trkpt lat="43.434784" lon="-5.5913305">
        <ele>798.0</ele>
        <time>2021-02-14T12:07:11Z</time>
      </trkpt>
      <trkpt lat="43.43477" lon="-5.59133">
        <ele>798.0</ele>
        <time>2021-02-14T12:07:14Z</time>
      </trkpt>
      <trkpt lat="43.43477" lon="-5.59133">
        <ele>798.0</ele>
        <time>2021-02-14T12:07:18Z</time>
      </trkpt>
      <trkpt lat="43.43477" lon="-5.5913267">
        <ele>798.0</ele>
        <time>2021-02-14T12:07:31Z</time>
      </trkpt>
      <trkpt lat="43.43476" lon="-5.591327">
        <ele>798.0</ele>
        <time>2021-02-14T12:07:32Z</time>
      </trkpt>
      <trkpt lat="43.434753" lon="-5.591329">
        <ele>798.0</ele>
        <time>2021-02-14T12:07:33Z</time>
      </trkpt>
      <trkpt lat="43.434742" lon="-5.5913324">
        <ele>798.0</ele>
        <time>2021-02-14T12:07:34Z</time>
      </trkpt>
      <trkpt lat="43.43473" lon="-5.591336">
        <ele>798.0</ele>
        <time>2021-02-14T12:07:35Z</time>
      </trkpt>
      <trkpt lat="43.434723" lon="-5.591338">
        <ele>798.0</ele>
        <time>2021-02-14T12:07:36Z</time>
      </trkpt>
      <trkpt lat="43.434708" lon="-5.591341">
        <ele>798.0</ele>
        <time>2021-02-14T12:07:37Z</time>
      </trkpt>
      <trkpt lat="43.434692" lon="-5.591343">
        <ele>798.0</ele>
        <time>2021-02-14T12:07:38Z</time>
      </trkpt>
      <trkpt lat="43.434673" lon="-5.591344">
        <ele>798.0</ele>
        <time>2021-02-14T12:07:39Z</time>
      </trkpt>
      <trkpt lat="43.434658" lon="-5.5913453">
        <ele>798.0</ele>
        <time>2021-02-14T12:07:40Z</time>
      </trkpt>
      <trkpt lat="43.434643" lon="-5.591349">
        <ele>798.0</ele>
        <time>2021-02-14T12:07:41Z</time>
      </trkpt>
      <trkpt lat="43.434635" lon="-5.5913544">
        <ele>798.0</ele>
        <time>2021-02-14T12:07:42Z</time>
      </trkpt>
      <trkpt lat="43.434624" lon="-5.591361">
        <ele>798.0</ele>
        <time>2021-02-14T12:07:43Z</time>
      </trkpt>
      <trkpt lat="43.434612" lon="-5.5913677">
        <ele>798.0</ele>
        <time>2021-02-14T12:07:44Z</time>
      </trkpt>
      <trkpt lat="43.434605" lon="-5.591374">
        <ele>798.0</ele>
        <time>2021-02-14T12:07:45Z</time>
      </trkpt>
      <trkpt lat="43.434593" lon="-5.5913796">
        <ele>798.0</ele>
        <time>2021-02-14T12:07:46Z</time>
      </trkpt>
      <trkpt lat="43.434578" lon="-5.5913863">
        <ele>798.0</ele>
        <time>2021-02-14T12:07:47Z</time>
      </trkpt>
      <trkpt lat="43.434566" lon="-5.5913954">
        <ele>798.0</ele>
        <time>2021-02-14T12:07:48Z</time>
      </trkpt>
      <trkpt lat="43.43456" lon="-5.591406">
        <ele>798.0</ele>
        <time>2021-02-14T12:07:49Z</time>
      </trkpt>
      <trkpt lat="43.43455" lon="-5.591418">
        <ele>798.0</ele>
        <time>2021-02-14T12:07:50Z</time>
      </trkpt>
      <trkpt lat="43.434544" lon="-5.591429">
        <ele>798.0</ele>
        <time>2021-02-14T12:07:51Z</time>
      </trkpt>
      <trkpt lat="43.434532" lon="-5.5914407">
        <ele>798.0</ele>
        <time>2021-02-14T12:07:52Z</time>
      </trkpt>
      <trkpt lat="43.43452" lon="-5.5914526">
        <ele>798.0</ele>
        <time>2021-02-14T12:07:53Z</time>
      </trkpt>
      <trkpt lat="43.434513" lon="-5.5914645">
        <ele>798.0</ele>
        <time>2021-02-14T12:07:54Z</time>
      </trkpt>
      <trkpt lat="43.434505" lon="-5.591475">
        <ele>798.0</ele>
        <time>2021-02-14T12:07:55Z</time>
      </trkpt>
      <trkpt lat="43.434498" lon="-5.591485">
        <ele>798.0</ele>
        <time>2021-02-14T12:07:56Z</time>
      </trkpt>
      <trkpt lat="43.43449" lon="-5.5914936">
        <ele>798.0</ele>
        <time>2021-02-14T12:07:57Z</time>
      </trkpt>
      <trkpt lat="43.43448" lon="-5.5915027">
        <ele>798.0</ele>
        <time>2021-02-14T12:07:58Z</time>
      </trkpt>
      <trkpt lat="43.434475" lon="-5.5915112">
        <ele>798.0</ele>
        <time>2021-02-14T12:07:59Z</time>
      </trkpt>
      <trkpt lat="43.434464" lon="-5.5915194">
        <ele>798.0</ele>
        <time>2021-02-14T12:08:00Z</time>
      </trkpt>
      <trkpt lat="43.43446" lon="-5.5915284">
        <ele>798.0</ele>
        <time>2021-02-14T12:08:01Z</time>
      </trkpt>
      <trkpt lat="43.434456" lon="-5.5915394">
        <ele>798.0</ele>
        <time>2021-02-14T12:08:02Z</time>
      </trkpt>
      <trkpt lat="43.43445" lon="-5.5915513">
        <ele>798.0</ele>
        <time>2021-02-14T12:08:03Z</time>
      </trkpt>
      <trkpt lat="43.43444" lon="-5.5915623">
        <ele>798.0</ele>
        <time>2021-02-14T12:08:04Z</time>
      </trkpt>
      <trkpt lat="43.434433" lon="-5.5915723">
        <ele>798.0</ele>
        <time>2021-02-14T12:08:05Z</time>
      </trkpt>
      <trkpt lat="43.434418" lon="-5.591598">
        <ele>798.0</ele>
        <time>2021-02-14T12:08:08Z</time>
      </trkpt>
      <trkpt lat="43.434418" lon="-5.5915985">
        <ele>798.0</ele>
        <time>2021-02-14T12:08:09Z</time>
      </trkpt>
      <trkpt lat="43.434418" lon="-5.5916014">
        <ele>798.0</ele>
        <time>2021-02-14T12:08:10Z</time>
      </trkpt>
      <trkpt lat="43.434414" lon="-5.5916085">
        <ele>798.0</ele>
        <time>2021-02-14T12:08:11Z</time>
      </trkpt>
      <trkpt lat="43.434402" lon="-5.591617">
        <ele>798.0</ele>
        <time>2021-02-14T12:08:12Z</time>
      </trkpt>
      <trkpt lat="43.434395" lon="-5.591626">
        <ele>799.0</ele>
        <time>2021-02-14T12:08:13Z</time>
      </trkpt>
      <trkpt lat="43.434383" lon="-5.5916357">
        <ele>799.0</ele>
        <time>2021-02-14T12:08:14Z</time>
      </trkpt>
      <trkpt lat="43.434372" lon="-5.5916452">
        <ele>799.0</ele>
        <time>2021-02-14T12:08:15Z</time>
      </trkpt>
      <trkpt lat="43.434364" lon="-5.591656">
        <ele>799.0</ele>
        <time>2021-02-14T12:08:16Z</time>
      </trkpt>
      <trkpt lat="43.434353" lon="-5.591667">
        <ele>799.0</ele>
        <time>2021-02-14T12:08:17Z</time>
      </trkpt>
      <trkpt lat="43.43434" lon="-5.5916786">
        <ele>799.0</ele>
        <time>2021-02-14T12:08:18Z</time>
      </trkpt>
      <trkpt lat="43.434334" lon="-5.591689">
        <ele>799.0</ele>
        <time>2021-02-14T12:08:19Z</time>
      </trkpt>
      <trkpt lat="43.43432" lon="-5.591697">
        <ele>799.0</ele>
        <time>2021-02-14T12:08:20Z</time>
      </trkpt>
      <trkpt lat="43.434307" lon="-5.591705">
        <ele>799.0</ele>
        <time>2021-02-14T12:08:21Z</time>
      </trkpt>
      <trkpt lat="43.434296" lon="-5.591712">
        <ele>799.0</ele>
        <time>2021-02-14T12:08:22Z</time>
      </trkpt>
      <trkpt lat="43.434284" lon="-5.591719">
        <ele>799.0</ele>
        <time>2021-02-14T12:08:23Z</time>
      </trkpt>
      <trkpt lat="43.43427" lon="-5.591727">
        <ele>799.0</ele>
        <time>2021-02-14T12:08:24Z</time>
      </trkpt>
      <trkpt lat="43.43426" lon="-5.5917344">
        <ele>799.0</ele>
        <time>2021-02-14T12:08:25Z</time>
      </trkpt>
      <trkpt lat="43.434254" lon="-5.59174">
        <ele>799.0</ele>
        <time>2021-02-14T12:08:26Z</time>
      </trkpt>
      <trkpt lat="43.434246" lon="-5.5917444">
        <ele>799.0</ele>
        <time>2021-02-14T12:08:27Z</time>
      </trkpt>
      <trkpt lat="43.43424" lon="-5.591749">
        <ele>799.0</ele>
        <time>2021-02-14T12:08:28Z</time>
      </trkpt>
      <trkpt lat="43.43422" lon="-5.591757">
        <ele>799.0</ele>
        <time>2021-02-14T12:08:30Z</time>
      </trkpt>
      <trkpt lat="43.434208" lon="-5.591761">
        <ele>799.0</ele>
        <time>2021-02-14T12:08:34Z</time>
      </trkpt>
      <trkpt lat="43.434208" lon="-5.591762">
        <ele>799.0</ele>
        <time>2021-02-14T12:08:35Z</time>
      </trkpt>
      <trkpt lat="43.434204" lon="-5.591763">
        <ele>799.0</ele>
        <time>2021-02-14T12:08:36Z</time>
      </trkpt>
      <trkpt lat="43.4342" lon="-5.591767">
        <ele>799.0</ele>
        <time>2021-02-14T12:08:37Z</time>
      </trkpt>
      <trkpt lat="43.43419" lon="-5.5917697">
        <ele>799.0</ele>
        <time>2021-02-14T12:08:38Z</time>
      </trkpt>
      <trkpt lat="43.434177" lon="-5.591772">
        <ele>798.0</ele>
        <time>2021-02-14T12:08:39Z</time>
      </trkpt>
      <trkpt lat="43.434162" lon="-5.5917754">
        <ele>798.0</ele>
        <time>2021-02-14T12:08:40Z</time>
      </trkpt>
      <trkpt lat="43.43416" lon="-5.5917788">
        <ele>798.0</ele>
        <time>2021-02-14T12:08:41Z</time>
      </trkpt>
      <trkpt lat="43.434147" lon="-5.5917816">
        <ele>798.0</ele>
        <time>2021-02-14T12:08:42Z</time>
      </trkpt>
      <trkpt lat="43.434143" lon="-5.5917864">
        <ele>798.0</ele>
        <time>2021-02-14T12:08:44Z</time>
      </trkpt>
      <trkpt lat="43.434143" lon="-5.591785">
        <ele>798.0</ele>
        <time>2021-02-14T12:08:47Z</time>
      </trkpt>
      <trkpt lat="43.43413" lon="-5.591785">
        <ele>798.0</ele>
        <time>2021-02-14T12:08:49Z</time>
      </trkpt>
      <trkpt lat="43.43413" lon="-5.5917854">
        <ele>798.0</ele>
        <time>2021-02-14T12:08:50Z</time>
      </trkpt>
      <trkpt lat="43.434128" lon="-5.5917883">
        <ele>798.0</ele>
        <time>2021-02-14T12:08:51Z</time>
      </trkpt>
      <trkpt lat="43.434116" lon="-5.591792">
        <ele>798.0</ele>
        <time>2021-02-14T12:08:52Z</time>
      </trkpt>
      <trkpt lat="43.43411" lon="-5.591795">
        <ele>798.0</ele>
        <time>2021-02-14T12:08:53Z</time>
      </trkpt>
      <trkpt lat="43.4341" lon="-5.5917993">
        <ele>797.0</ele>
        <time>2021-02-14T12:08:54Z</time>
      </trkpt>
      <trkpt lat="43.43409" lon="-5.5917997">
        <ele>797.0</ele>
        <time>2021-02-14T12:08:55Z</time>
      </trkpt>
      <trkpt lat="43.434082" lon="-5.5917964">
        <ele>797.0</ele>
        <time>2021-02-14T12:08:56Z</time>
      </trkpt>
      <trkpt lat="43.43407" lon="-5.591796">
        <ele>797.0</ele>
        <time>2021-02-14T12:08:57Z</time>
      </trkpt>
      <trkpt lat="43.43406" lon="-5.5917974">
        <ele>797.0</ele>
        <time>2021-02-14T12:08:58Z</time>
      </trkpt>
      <trkpt lat="43.434055" lon="-5.5918">
        <ele>797.0</ele>
        <time>2021-02-14T12:08:59Z</time>
      </trkpt>
      <trkpt lat="43.43405" lon="-5.5918036">
        <ele>797.0</ele>
        <time>2021-02-14T12:09:00Z</time>
      </trkpt>
      <trkpt lat="43.43404" lon="-5.5918074">
        <ele>796.0</ele>
        <time>2021-02-14T12:09:01Z</time>
      </trkpt>
      <trkpt lat="43.434036" lon="-5.5918093">
        <ele>796.0</ele>
        <time>2021-02-14T12:09:02Z</time>
      </trkpt>
      <trkpt lat="43.434025" lon="-5.5918107">
        <ele>796.0</ele>
        <time>2021-02-14T12:09:03Z</time>
      </trkpt>
      <trkpt lat="43.43402" lon="-5.5918117">
        <ele>796.0</ele>
        <time>2021-02-14T12:09:04Z</time>
      </trkpt>
      <trkpt lat="43.43401" lon="-5.591813">
        <ele>796.0</ele>
        <time>2021-02-14T12:09:05Z</time>
      </trkpt>
      <trkpt lat="43.434" lon="-5.5918136">
        <ele>796.0</ele>
        <time>2021-02-14T12:09:06Z</time>
      </trkpt>
      <trkpt lat="43.43399" lon="-5.5918117">
        <ele>796.0</ele>
        <time>2021-02-14T12:09:07Z</time>
      </trkpt>
      <trkpt lat="43.43398" lon="-5.5918107">
        <ele>795.0</ele>
        <time>2021-02-14T12:09:08Z</time>
      </trkpt>
      <trkpt lat="43.433968" lon="-5.5918097">
        <ele>795.0</ele>
        <time>2021-02-14T12:09:09Z</time>
      </trkpt>
      <trkpt lat="43.43396" lon="-5.5918093">
        <ele>795.0</ele>
        <time>2021-02-14T12:09:09Z</time>
      </trkpt>
      <trkpt lat="43.433945" lon="-5.591808">
        <ele>795.0</ele>
        <time>2021-02-14T12:09:10Z</time>
      </trkpt>
      <trkpt lat="43.43393" lon="-5.591805">
        <ele>795.0</ele>
        <time>2021-02-14T12:09:11Z</time>
      </trkpt>
      <trkpt lat="43.433914" lon="-5.591801">
        <ele>795.0</ele>
        <time>2021-02-14T12:09:12Z</time>
      </trkpt>
      <trkpt lat="43.433895" lon="-5.5917983">
        <ele>795.0</ele>
        <time>2021-02-14T12:09:13Z</time>
      </trkpt>
      <trkpt lat="43.43388" lon="-5.5917964">
        <ele>795.0</ele>
        <time>2021-02-14T12:09:14Z</time>
      </trkpt>
      <trkpt lat="43.433872" lon="-5.591795">
        <ele>795.0</ele>
        <time>2021-02-14T12:09:15Z</time>
      </trkpt>
      <trkpt lat="43.43386" lon="-5.591794">
        <ele>795.0</ele>
        <time>2021-02-14T12:09:16Z</time>
      </trkpt>
      <trkpt lat="43.43385" lon="-5.591792">
        <ele>795.0</ele>
        <time>2021-02-14T12:09:17Z</time>
      </trkpt>
      <trkpt lat="43.433846" lon="-5.591791">
        <ele>795.0</ele>
        <time>2021-02-14T12:09:18Z</time>
      </trkpt>
      <trkpt lat="43.433834" lon="-5.5917864">
        <ele>795.0</ele>
        <time>2021-02-14T12:09:21Z</time>
      </trkpt>
      <trkpt lat="43.433834" lon="-5.5917854">
        <ele>795.0</ele>
        <time>2021-02-14T12:09:22Z</time>
      </trkpt>
      <trkpt lat="43.43383" lon="-5.5917854">
        <ele>795.0</ele>
        <time>2021-02-14T12:09:23Z</time>
      </trkpt>
      <trkpt lat="43.43383" lon="-5.5917854">
        <ele>795.0</ele>
        <time>2021-02-14T12:09:24Z</time>
      </trkpt>
      <trkpt lat="43.433826" lon="-5.5917873">
        <ele>795.0</ele>
        <time>2021-02-14T12:09:25Z</time>
      </trkpt>
      <trkpt lat="43.433815" lon="-5.59179">
        <ele>795.0</ele>
        <time>2021-02-14T12:09:26Z</time>
      </trkpt>
      <trkpt lat="43.43381" lon="-5.5917945">
        <ele>795.0</ele>
        <time>2021-02-14T12:09:27Z</time>
      </trkpt>
      <trkpt lat="43.433804" lon="-5.5917993">
        <ele>795.0</ele>
        <time>2021-02-14T12:09:28Z</time>
      </trkpt>
      <trkpt lat="43.433773" lon="-5.5918164">
        <ele>795.0</ele>
        <time>2021-02-14T12:09:30Z</time>
      </trkpt>
      <trkpt lat="43.433773" lon="-5.5918174">
        <ele>794.0</ele>
        <time>2021-02-14T12:09:31Z</time>
      </trkpt>
      <trkpt lat="43.43377" lon="-5.5918202">
        <ele>794.0</ele>
        <time>2021-02-14T12:09:32Z</time>
      </trkpt>
      <trkpt lat="43.433765" lon="-5.5918245">
        <ele>794.0</ele>
        <time>2021-02-14T12:09:33Z</time>
      </trkpt>
      <trkpt lat="43.433758" lon="-5.5918317">
        <ele>794.0</ele>
        <time>2021-02-14T12:09:34Z</time>
      </trkpt>
      <trkpt lat="43.43375" lon="-5.5918393">
        <ele>794.0</ele>
        <time>2021-02-14T12:09:35Z</time>
      </trkpt>
      <trkpt lat="43.43374" lon="-5.591846">
        <ele>794.0</ele>
        <time>2021-02-14T12:09:36Z</time>
      </trkpt>
      <trkpt lat="43.433727" lon="-5.5918508">
        <ele>793.0</ele>
        <time>2021-02-14T12:09:37Z</time>
      </trkpt>
      <trkpt lat="43.43372" lon="-5.591854">
        <ele>793.0</ele>
        <time>2021-02-14T12:09:38Z</time>
      </trkpt>
      <trkpt lat="43.43371" lon="-5.591858">
        <ele>793.0</ele>
        <time>2021-02-14T12:09:39Z</time>
      </trkpt>
      <trkpt lat="43.433697" lon="-5.5918603">
        <ele>793.0</ele>
        <time>2021-02-14T12:09:40Z</time>
      </trkpt>
      <trkpt lat="43.433685" lon="-5.5918655">
        <ele>793.0</ele>
        <time>2021-02-14T12:09:41Z</time>
      </trkpt>
      <trkpt lat="43.433678" lon="-5.5918703">
        <ele>793.0</ele>
        <time>2021-02-14T12:09:42Z</time>
      </trkpt>
      <trkpt lat="43.433666" lon="-5.591874">
        <ele>793.0</ele>
        <time>2021-02-14T12:09:43Z</time>
      </trkpt>
      <trkpt lat="43.43365" lon="-5.5918784">
        <ele>793.0</ele>
        <time>2021-02-14T12:09:44Z</time>
      </trkpt>
      <trkpt lat="43.43364" lon="-5.5918837">
        <ele>793.0</ele>
        <time>2021-02-14T12:09:45Z</time>
      </trkpt>
      <trkpt lat="43.43363" lon="-5.591888">
        <ele>793.0</ele>
        <time>2021-02-14T12:09:46Z</time>
      </trkpt>
      <trkpt lat="43.43362" lon="-5.591893">
        <ele>793.0</ele>
        <time>2021-02-14T12:09:47Z</time>
      </trkpt>
      <trkpt lat="43.43361" lon="-5.591899">
        <ele>793.0</ele>
        <time>2021-02-14T12:09:48Z</time>
      </trkpt>
      <trkpt lat="43.4336" lon="-5.5919065">
        <ele>793.0</ele>
        <time>2021-02-14T12:09:49Z</time>
      </trkpt>
      <trkpt lat="43.43359" lon="-5.591916">
        <ele>793.0</ele>
        <time>2021-02-14T12:09:50Z</time>
      </trkpt>
      <trkpt lat="43.433586" lon="-5.5919256">
        <ele>793.0</ele>
        <time>2021-02-14T12:09:51Z</time>
      </trkpt>
      <trkpt lat="43.433575" lon="-5.591937">
        <ele>793.0</ele>
        <time>2021-02-14T12:09:52Z</time>
      </trkpt>
      <trkpt lat="43.43357" lon="-5.591949">
        <ele>793.0</ele>
        <time>2021-02-14T12:09:53Z</time>
      </trkpt>
      <trkpt lat="43.43356" lon="-5.5919595">
        <ele>793.0</ele>
        <time>2021-02-14T12:09:54Z</time>
      </trkpt>
      <trkpt lat="43.433548" lon="-5.5919704">
        <ele>793.0</ele>
        <time>2021-02-14T12:09:55Z</time>
      </trkpt>
      <trkpt lat="43.43354" lon="-5.59198">
        <ele>793.0</ele>
        <time>2021-02-14T12:09:56Z</time>
      </trkpt>
      <trkpt lat="43.43353" lon="-5.5919886">
        <ele>793.0</ele>
        <time>2021-02-14T12:09:57Z</time>
      </trkpt>
      <trkpt lat="43.433517" lon="-5.591998">
        <ele>793.0</ele>
        <time>2021-02-14T12:09:58Z</time>
      </trkpt>
      <trkpt lat="43.433506" lon="-5.592007">
        <ele>793.0</ele>
        <time>2021-02-14T12:09:59Z</time>
      </trkpt>
      <trkpt lat="43.4335" lon="-5.592016">
        <ele>793.0</ele>
        <time>2021-02-14T12:10:00Z</time>
      </trkpt>
      <trkpt lat="43.433487" lon="-5.5920267">
        <ele>793.0</ele>
        <time>2021-02-14T12:10:01Z</time>
      </trkpt>
      <trkpt lat="43.433475" lon="-5.592037">
        <ele>793.0</ele>
        <time>2021-02-14T12:10:02Z</time>
      </trkpt>
      <trkpt lat="43.433468" lon="-5.5920467">
        <ele>793.0</ele>
        <time>2021-02-14T12:10:03Z</time>
      </trkpt>
      <trkpt lat="43.433456" lon="-5.592056">
        <ele>793.0</ele>
        <time>2021-02-14T12:10:04Z</time>
      </trkpt>
      <trkpt lat="43.433445" lon="-5.592065">
        <ele>793.0</ele>
        <time>2021-02-14T12:10:05Z</time>
      </trkpt>
      <trkpt lat="43.43343" lon="-5.592073">
        <ele>793.0</ele>
        <time>2021-02-14T12:10:06Z</time>
      </trkpt>
      <trkpt lat="43.433422" lon="-5.5920825">
        <ele>793.0</ele>
        <time>2021-02-14T12:10:07Z</time>
      </trkpt>
      <trkpt lat="43.433414" lon="-5.5920935">
        <ele>793.0</ele>
        <time>2021-02-14T12:10:08Z</time>
      </trkpt>
      <trkpt lat="43.433407" lon="-5.592105">
        <ele>793.0</ele>
        <time>2021-02-14T12:10:09Z</time>
      </trkpt>
      <trkpt lat="43.4334" lon="-5.5921173">
        <ele>793.0</ele>
        <time>2021-02-14T12:10:10Z</time>
      </trkpt>
      <trkpt lat="43.433395" lon="-5.592129">
        <ele>793.0</ele>
        <time>2021-02-14T12:10:11Z</time>
      </trkpt>
      <trkpt lat="43.433384" lon="-5.5921416">
        <ele>793.0</ele>
        <time>2021-02-14T12:10:12Z</time>
      </trkpt>
      <trkpt lat="43.43338" lon="-5.592153">
        <ele>793.0</ele>
        <time>2021-02-14T12:10:13Z</time>
      </trkpt>
      <trkpt lat="43.43337" lon="-5.592164">
        <ele>793.0</ele>
        <time>2021-02-14T12:10:14Z</time>
      </trkpt>
      <trkpt lat="43.433365" lon="-5.5921745">
        <ele>793.0</ele>
        <time>2021-02-14T12:10:15Z</time>
      </trkpt>
      <trkpt lat="43.43336" lon="-5.5921855">
        <ele>792.0</ele>
        <time>2021-02-14T12:10:16Z</time>
      </trkpt>
      <trkpt lat="43.433353" lon="-5.592198">
        <ele>792.0</ele>
        <time>2021-02-14T12:10:17Z</time>
      </trkpt>
      <trkpt lat="43.43335" lon="-5.59221">
        <ele>792.0</ele>
        <time>2021-02-14T12:10:18Z</time>
      </trkpt>
      <trkpt lat="43.433346" lon="-5.5922203">
        <ele>792.0</ele>
        <time>2021-02-14T12:10:19Z</time>
      </trkpt>
      <trkpt lat="43.43334" lon="-5.5922313">
        <ele>792.0</ele>
        <time>2021-02-14T12:10:20Z</time>
      </trkpt>
      <trkpt lat="43.433334" lon="-5.592242">
        <ele>792.0</ele>
        <time>2021-02-14T12:10:21Z</time>
      </trkpt>
      <trkpt lat="43.433323" lon="-5.592254">
        <ele>792.0</ele>
        <time>2021-02-14T12:10:22Z</time>
      </trkpt>
      <trkpt lat="43.43331" lon="-5.5922637">
        <ele>792.0</ele>
        <time>2021-02-14T12:10:23Z</time>
      </trkpt>
      <trkpt lat="43.433304" lon="-5.5922737">
        <ele>792.0</ele>
        <time>2021-02-14T12:10:24Z</time>
      </trkpt>
      <trkpt lat="43.433292" lon="-5.5922837">
        <ele>792.0</ele>
        <time>2021-02-14T12:10:25Z</time>
      </trkpt>
      <trkpt lat="43.43329" lon="-5.5922937">
        <ele>792.0</ele>
        <time>2021-02-14T12:10:26Z</time>
      </trkpt>
      <trkpt lat="43.433277" lon="-5.5923047">
        <ele>792.0</ele>
        <time>2021-02-14T12:10:27Z</time>
      </trkpt>
      <trkpt lat="43.433273" lon="-5.592314">
        <ele>792.0</ele>
        <time>2021-02-14T12:10:28Z</time>
      </trkpt>
      <trkpt lat="43.433266" lon="-5.592322">
        <ele>792.0</ele>
        <time>2021-02-14T12:10:29Z</time>
      </trkpt>
      <trkpt lat="43.433258" lon="-5.5923295">
        <ele>792.0</ele>
        <time>2021-02-14T12:10:30Z</time>
      </trkpt>
      <trkpt lat="43.43325" lon="-5.592337">
        <ele>792.0</ele>
        <time>2021-02-14T12:10:31Z</time>
      </trkpt>
      <trkpt lat="43.433247" lon="-5.5923457">
        <ele>792.0</ele>
        <time>2021-02-14T12:10:32Z</time>
      </trkpt>
      <trkpt lat="43.433235" lon="-5.592354">
        <ele>792.0</ele>
        <time>2021-02-14T12:10:33Z</time>
      </trkpt>
      <trkpt lat="43.43323" lon="-5.5923615">
        <ele>792.0</ele>
        <time>2021-02-14T12:10:34Z</time>
      </trkpt>
      <trkpt lat="43.43322" lon="-5.592368">
        <ele>792.0</ele>
        <time>2021-02-14T12:10:35Z</time>
      </trkpt>
      <trkpt lat="43.433212" lon="-5.592389">
        <ele>792.0</ele>
        <time>2021-02-14T12:10:40Z</time>
      </trkpt>
      <trkpt lat="43.433205" lon="-5.5923915">
        <ele>792.0</ele>
        <time>2021-02-14T12:10:41Z</time>
      </trkpt>
      <trkpt lat="43.433205" lon="-5.5923963">
        <ele>792.0</ele>
        <time>2021-02-14T12:10:42Z</time>
      </trkpt>
      <trkpt lat="43.433197" lon="-5.592404">
        <ele>792.0</ele>
        <time>2021-02-14T12:10:43Z</time>
      </trkpt>
      <trkpt lat="43.43319" lon="-5.592413">
        <ele>792.0</ele>
        <time>2021-02-14T12:10:44Z</time>
      </trkpt>
      <trkpt lat="43.43318" lon="-5.592421">
        <ele>792.0</ele>
        <time>2021-02-14T12:10:45Z</time>
      </trkpt>
      <trkpt lat="43.433174" lon="-5.5924306">
        <ele>792.0</ele>
        <time>2021-02-14T12:10:46Z</time>
      </trkpt>
      <trkpt lat="43.433167" lon="-5.5924377">
        <ele>792.0</ele>
        <time>2021-02-14T12:10:47Z</time>
      </trkpt>
      <trkpt lat="43.433155" lon="-5.5924454">
        <ele>792.0</ele>
        <time>2021-02-14T12:10:48Z</time>
      </trkpt>
      <trkpt lat="43.43315" lon="-5.592454">
        <ele>792.0</ele>
        <time>2021-02-14T12:10:49Z</time>
      </trkpt>
      <trkpt lat="43.433144" lon="-5.5924616">
        <ele>792.0</ele>
        <time>2021-02-14T12:10:50Z</time>
      </trkpt>
      <trkpt lat="43.433136" lon="-5.592469">
        <ele>792.0</ele>
        <time>2021-02-14T12:10:51Z</time>
      </trkpt>
      <trkpt lat="43.433125" lon="-5.592481">
        <ele>792.0</ele>
        <time>2021-02-14T12:10:52Z</time>
      </trkpt>
      <trkpt lat="43.433113" lon="-5.592496">
        <ele>792.0</ele>
        <time>2021-02-14T12:10:53Z</time>
      </trkpt>
      <trkpt lat="43.43311" lon="-5.59251">
        <ele>792.0</ele>
        <time>2021-02-14T12:10:54Z</time>
      </trkpt>
      <trkpt lat="43.4331" lon="-5.592523">
        <ele>792.0</ele>
        <time>2021-02-14T12:10:55Z</time>
      </trkpt>
      <trkpt lat="43.433094" lon="-5.5925345">
        <ele>790.0</ele>
        <time>2021-02-14T12:10:56Z</time>
      </trkpt>
      <trkpt lat="43.433086" lon="-5.5925455">
        <ele>790.0</ele>
        <time>2021-02-14T12:10:57Z</time>
      </trkpt>
      <trkpt lat="43.43308" lon="-5.592552">
        <ele>790.0</ele>
        <time>2021-02-14T12:10:58Z</time>
      </trkpt>
      <trkpt lat="43.433067" lon="-5.592556">
        <ele>790.0</ele>
        <time>2021-02-14T12:10:59Z</time>
      </trkpt>
      <trkpt lat="43.433052" lon="-5.592558">
        <ele>790.0</ele>
        <time>2021-02-14T12:11:00Z</time>
      </trkpt>
      <trkpt lat="43.43304" lon="-5.5925627">
        <ele>790.0</ele>
        <time>2021-02-14T12:11:01Z</time>
      </trkpt>
      <trkpt lat="43.433033" lon="-5.5925703">
        <ele>790.0</ele>
        <time>2021-02-14T12:11:02Z</time>
      </trkpt>
      <trkpt lat="43.43302" lon="-5.59258">
        <ele>789.0</ele>
        <time>2021-02-14T12:11:03Z</time>
      </trkpt>
      <trkpt lat="43.43301" lon="-5.592589">
        <ele>789.0</ele>
        <time>2021-02-14T12:11:04Z</time>
      </trkpt>
      <trkpt lat="43.433002" lon="-5.592598">
        <ele>789.0</ele>
        <time>2021-02-14T12:11:05Z</time>
      </trkpt>
      <trkpt lat="43.43299" lon="-5.592608">
        <ele>789.0</ele>
        <time>2021-02-14T12:11:06Z</time>
      </trkpt>
      <trkpt lat="43.43298" lon="-5.5926204">
        <ele>789.0</ele>
        <time>2021-02-14T12:11:07Z</time>
      </trkpt>
      <trkpt lat="43.432976" lon="-5.5926323">
        <ele>789.0</ele>
        <time>2021-02-14T12:11:08Z</time>
      </trkpt>
      <trkpt lat="43.432964" lon="-5.592645">
        <ele>789.0</ele>
        <time>2021-02-14T12:11:09Z</time>
      </trkpt>
      <trkpt lat="43.43296" lon="-5.5926585">
        <ele>789.0</ele>
        <time>2021-02-14T12:11:10Z</time>
      </trkpt>
      <trkpt lat="43.432957" lon="-5.592672">
        <ele>789.0</ele>
        <time>2021-02-14T12:11:11Z</time>
      </trkpt>
      <trkpt lat="43.432945" lon="-5.592686">
        <ele>789.0</ele>
        <time>2021-02-14T12:11:12Z</time>
      </trkpt>
      <trkpt lat="43.432945" lon="-5.5927014">
        <ele>789.0</ele>
        <time>2021-02-14T12:11:13Z</time>
      </trkpt>
      <trkpt lat="43.432938" lon="-5.5927143">
        <ele>789.0</ele>
        <time>2021-02-14T12:11:14Z</time>
      </trkpt>
      <trkpt lat="43.432934" lon="-5.592726">
        <ele>789.0</ele>
        <time>2021-02-14T12:11:15Z</time>
      </trkpt>
      <trkpt lat="43.43293" lon="-5.592736">
        <ele>789.0</ele>
        <time>2021-02-14T12:11:16Z</time>
      </trkpt>
      <trkpt lat="43.432922" lon="-5.5927463">
        <ele>789.0</ele>
        <time>2021-02-14T12:11:17Z</time>
      </trkpt>
      <trkpt lat="43.43292" lon="-5.5927563">
        <ele>789.0</ele>
        <time>2021-02-14T12:11:18Z</time>
      </trkpt>
      <trkpt lat="43.432907" lon="-5.5927663">
        <ele>789.0</ele>
        <time>2021-02-14T12:11:19Z</time>
      </trkpt>
      <trkpt lat="43.432903" lon="-5.5927744">
        <ele>789.0</ele>
        <time>2021-02-14T12:11:20Z</time>
      </trkpt>
      <trkpt lat="43.4329" lon="-5.592782">
        <ele>789.0</ele>
        <time>2021-02-14T12:11:21Z</time>
      </trkpt>
      <trkpt lat="43.43289" lon="-5.5927896">
        <ele>789.0</ele>
        <time>2021-02-14T12:11:22Z</time>
      </trkpt>
      <trkpt lat="43.432888" lon="-5.5927954">
        <ele>789.0</ele>
        <time>2021-02-14T12:11:23Z</time>
      </trkpt>
      <trkpt lat="43.432877" lon="-5.5928006">
        <ele>789.0</ele>
        <time>2021-02-14T12:11:24Z</time>
      </trkpt>
      <trkpt lat="43.432873" lon="-5.592808">
        <ele>789.0</ele>
        <time>2021-02-14T12:11:25Z</time>
      </trkpt>
      <trkpt lat="43.43287" lon="-5.592814">
        <ele>789.0</ele>
        <time>2021-02-14T12:11:26Z</time>
      </trkpt>
      <trkpt lat="43.43287" lon="-5.5928216">
        <ele>789.0</ele>
        <time>2021-02-14T12:11:27Z</time>
      </trkpt>
      <trkpt lat="43.43286" lon="-5.5928288">
        <ele>789.0</ele>
        <time>2021-02-14T12:11:28Z</time>
      </trkpt>
      <trkpt lat="43.432858" lon="-5.5928345">
        <ele>789.0</ele>
        <time>2021-02-14T12:11:29Z</time>
      </trkpt>
      <trkpt lat="43.432858" lon="-5.5928416">
        <ele>789.0</ele>
        <time>2021-02-14T12:11:30Z</time>
      </trkpt>
      <trkpt lat="43.432854" lon="-5.592849">
        <ele>789.0</ele>
        <time>2021-02-14T12:11:31Z</time>
      </trkpt>
      <trkpt lat="43.432854" lon="-5.592857">
        <ele>789.0</ele>
        <time>2021-02-14T12:11:32Z</time>
      </trkpt>
      <trkpt lat="43.432842" lon="-5.592866">
        <ele>789.0</ele>
        <time>2021-02-14T12:11:33Z</time>
      </trkpt>
      <trkpt lat="43.43284" lon="-5.5928755">
        <ele>788.0</ele>
        <time>2021-02-14T12:11:34Z</time>
      </trkpt>
      <trkpt lat="43.43283" lon="-5.592887">
        <ele>788.0</ele>
        <time>2021-02-14T12:11:35Z</time>
      </trkpt>
      <trkpt lat="43.432827" lon="-5.5928984">
        <ele>788.0</ele>
        <time>2021-02-14T12:11:36Z</time>
      </trkpt>
      <trkpt lat="43.432816" lon="-5.5929103">
        <ele>788.0</ele>
        <time>2021-02-14T12:11:37Z</time>
      </trkpt>
      <trkpt lat="43.43281" lon="-5.5929217">
        <ele>788.0</ele>
        <time>2021-02-14T12:11:38Z</time>
      </trkpt>
      <trkpt lat="43.432808" lon="-5.592933">
        <ele>788.0</ele>
        <time>2021-02-14T12:11:39Z</time>
      </trkpt>
      <trkpt lat="43.4328" lon="-5.592944">
        <ele>788.0</ele>
        <time>2021-02-14T12:11:40Z</time>
      </trkpt>
      <trkpt lat="43.432796" lon="-5.592954">
        <ele>788.0</ele>
        <time>2021-02-14T12:11:41Z</time>
      </trkpt>
      <trkpt lat="43.432785" lon="-5.5929646">
        <ele>788.0</ele>
        <time>2021-02-14T12:11:42Z</time>
      </trkpt>
      <trkpt lat="43.43278" lon="-5.592974">
        <ele>788.0</ele>
        <time>2021-02-14T12:11:43Z</time>
      </trkpt>
      <trkpt lat="43.432777" lon="-5.5929837">
        <ele>788.0</ele>
        <time>2021-02-14T12:11:44Z</time>
      </trkpt>
      <trkpt lat="43.432766" lon="-5.5929937">
        <ele>787.0</ele>
        <time>2021-02-14T12:11:45Z</time>
      </trkpt>
      <trkpt lat="43.432762" lon="-5.5930037">
        <ele>787.0</ele>
        <time>2021-02-14T12:11:46Z</time>
      </trkpt>
      <trkpt lat="43.432755" lon="-5.5930133">
        <ele>787.0</ele>
        <time>2021-02-14T12:11:47Z</time>
      </trkpt>
      <trkpt lat="43.432743" lon="-5.593023">
        <ele>787.0</ele>
        <time>2021-02-14T12:11:48Z</time>
      </trkpt>
      <trkpt lat="43.43274" lon="-5.5930324">
        <ele>787.0</ele>
        <time>2021-02-14T12:11:49Z</time>
      </trkpt>
      <trkpt lat="43.432728" lon="-5.593042">
        <ele>787.0</ele>
        <time>2021-02-14T12:11:50Z</time>
      </trkpt>
      <trkpt lat="43.432724" lon="-5.593051">
        <ele>786.0</ele>
        <time>2021-02-14T12:11:51Z</time>
      </trkpt>
      <trkpt lat="43.43272" lon="-5.5930605">
        <ele>786.0</ele>
        <time>2021-02-14T12:11:52Z</time>
      </trkpt>
      <trkpt lat="43.432713" lon="-5.5930715">
        <ele>786.0</ele>
        <time>2021-02-14T12:11:53Z</time>
      </trkpt>
      <trkpt lat="43.432705" lon="-5.5930815">
        <ele>786.0</ele>
        <time>2021-02-14T12:11:54Z</time>
      </trkpt>
      <trkpt lat="43.432697" lon="-5.593092">
        <ele>786.0</ele>
        <time>2021-02-14T12:11:55Z</time>
      </trkpt>
      <trkpt lat="43.43269" lon="-5.5931015">
        <ele>786.0</ele>
        <time>2021-02-14T12:11:56Z</time>
      </trkpt>
      <trkpt lat="43.432682" lon="-5.593111">
        <ele>785.0</ele>
        <time>2021-02-14T12:11:57Z</time>
      </trkpt>
      <trkpt lat="43.432674" lon="-5.593118">
        <ele>785.0</ele>
        <time>2021-02-14T12:11:58Z</time>
      </trkpt>
      <trkpt lat="43.432667" lon="-5.5931253">
        <ele>785.0</ele>
        <time>2021-02-14T12:11:59Z</time>
      </trkpt>
      <trkpt lat="43.432663" lon="-5.593131">
        <ele>785.0</ele>
        <time>2021-02-14T12:12:00Z</time>
      </trkpt>
      <trkpt lat="43.43265" lon="-5.5931373">
        <ele>785.0</ele>
        <time>2021-02-14T12:12:01Z</time>
      </trkpt>
      <trkpt lat="43.432648" lon="-5.5931425">
        <ele>785.0</ele>
        <time>2021-02-14T12:12:02Z</time>
      </trkpt>
      <trkpt lat="43.432636" lon="-5.593148">
        <ele>785.0</ele>
        <time>2021-02-14T12:12:03Z</time>
      </trkpt>
      <trkpt lat="43.43263" lon="-5.5931544">
        <ele>784.0</ele>
        <time>2021-02-14T12:12:04Z</time>
      </trkpt>
      <trkpt lat="43.43262" lon="-5.593162">
        <ele>784.0</ele>
        <time>2021-02-14T12:12:05Z</time>
      </trkpt>
      <trkpt lat="43.432617" lon="-5.5931687">
        <ele>784.0</ele>
        <time>2021-02-14T12:12:06Z</time>
      </trkpt>
      <trkpt lat="43.432613" lon="-5.5931745">
        <ele>784.0</ele>
        <time>2021-02-14T12:12:07Z</time>
      </trkpt>
      <trkpt lat="43.432602" lon="-5.59318">
        <ele>784.0</ele>
        <time>2021-02-14T12:12:08Z</time>
      </trkpt>
      <trkpt lat="43.4326" lon="-5.5931864">
        <ele>784.0</ele>
        <time>2021-02-14T12:12:09Z</time>
      </trkpt>
      <trkpt lat="43.43259" lon="-5.593194">
        <ele>784.0</ele>
        <time>2021-02-14T12:12:10Z</time>
      </trkpt>
      <trkpt lat="43.432587" lon="-5.593202">
        <ele>784.0</ele>
        <time>2021-02-14T12:12:11Z</time>
      </trkpt>
      <trkpt lat="43.432583" lon="-5.5932107">
        <ele>784.0</ele>
        <time>2021-02-14T12:12:12Z</time>
      </trkpt>
      <trkpt lat="43.432575" lon="-5.5932198">
        <ele>784.0</ele>
        <time>2021-02-14T12:12:13Z</time>
      </trkpt>
      <trkpt lat="43.43257" lon="-5.5932293">
        <ele>784.0</ele>
        <time>2021-02-14T12:12:14Z</time>
      </trkpt>
      <trkpt lat="43.432568" lon="-5.59324">
        <ele>784.0</ele>
        <time>2021-02-14T12:12:15Z</time>
      </trkpt>
      <trkpt lat="43.432556" lon="-5.593249">
        <ele>784.0</ele>
        <time>2021-02-14T12:12:16Z</time>
      </trkpt>
      <trkpt lat="43.43255" lon="-5.5932565">
        <ele>783.0</ele>
        <time>2021-02-14T12:12:17Z</time>
      </trkpt>
      <trkpt lat="43.43254" lon="-5.593262">
        <ele>783.0</ele>
        <time>2021-02-14T12:12:18Z</time>
      </trkpt>
      <trkpt lat="43.432533" lon="-5.593266">
        <ele>783.0</ele>
        <time>2021-02-14T12:12:19Z</time>
      </trkpt>
      <trkpt lat="43.43253" lon="-5.5932684">
        <ele>783.0</ele>
        <time>2021-02-14T12:12:20Z</time>
      </trkpt>
      <trkpt lat="43.432526" lon="-5.5932717">
        <ele>783.0</ele>
        <time>2021-02-14T12:12:21Z</time>
      </trkpt>
      <trkpt lat="43.432518" lon="-5.593275">
        <ele>783.0</ele>
        <time>2021-02-14T12:12:22Z</time>
      </trkpt>
      <trkpt lat="43.43251" lon="-5.593278">
        <ele>782.0</ele>
        <time>2021-02-14T12:12:23Z</time>
      </trkpt>
      <trkpt lat="43.4325" lon="-5.5932813">
        <ele>782.0</ele>
        <time>2021-02-14T12:12:24Z</time>
      </trkpt>
      <trkpt lat="43.432487" lon="-5.5932846">
        <ele>782.0</ele>
        <time>2021-02-14T12:12:25Z</time>
      </trkpt>
      <trkpt lat="43.43248" lon="-5.5932856">
        <ele>782.0</ele>
        <time>2021-02-14T12:12:26Z</time>
      </trkpt>
      <trkpt lat="43.432472" lon="-5.593287">
        <ele>782.0</ele>
        <time>2021-02-14T12:12:27Z</time>
      </trkpt>
      <trkpt lat="43.432465" lon="-5.593287">
        <ele>782.0</ele>
        <time>2021-02-14T12:12:28Z</time>
      </trkpt>
      <trkpt lat="43.43245" lon="-5.5932875">
        <ele>782.0</ele>
        <time>2021-02-14T12:12:29Z</time>
      </trkpt>
      <trkpt lat="43.432438" lon="-5.5932913">
        <ele>782.0</ele>
        <time>2021-02-14T12:12:30Z</time>
      </trkpt>
      <trkpt lat="43.432423" lon="-5.5932937">
        <ele>782.0</ele>
        <time>2021-02-14T12:12:31Z</time>
      </trkpt>
      <trkpt lat="43.432407" lon="-5.5932946">
        <ele>781.0</ele>
        <time>2021-02-14T12:12:32Z</time>
      </trkpt>
      <trkpt lat="43.432396" lon="-5.5932956">
        <ele>781.0</ele>
        <time>2021-02-14T12:12:33Z</time>
      </trkpt>
      <trkpt lat="43.43238" lon="-5.5932965">
        <ele>781.0</ele>
        <time>2021-02-14T12:12:34Z</time>
      </trkpt>
      <trkpt lat="43.432365" lon="-5.5932975">
        <ele>781.0</ele>
        <time>2021-02-14T12:12:35Z</time>
      </trkpt>
      <trkpt lat="43.43235" lon="-5.5932975">
        <ele>781.0</ele>
        <time>2021-02-14T12:12:36Z</time>
      </trkpt>
      <trkpt lat="43.43234" lon="-5.5932946">
        <ele>781.0</ele>
        <time>2021-02-14T12:12:37Z</time>
      </trkpt>
      <trkpt lat="43.432323" lon="-5.5932913">
        <ele>781.0</ele>
        <time>2021-02-14T12:12:38Z</time>
      </trkpt>
      <trkpt lat="43.432316" lon="-5.5932884">
        <ele>781.0</ele>
        <time>2021-02-14T12:12:39Z</time>
      </trkpt>
      <trkpt lat="43.4323" lon="-5.5932865">
        <ele>780.0</ele>
        <time>2021-02-14T12:12:40Z</time>
      </trkpt>
      <trkpt lat="43.43229" lon="-5.5932856">
        <ele>780.0</ele>
        <time>2021-02-14T12:12:41Z</time>
      </trkpt>
      <trkpt lat="43.432278" lon="-5.5932856">
        <ele>780.0</ele>
        <time>2021-02-14T12:12:42Z</time>
      </trkpt>
      <trkpt lat="43.43227" lon="-5.5932865">
        <ele>780.0</ele>
        <time>2021-02-14T12:12:43Z</time>
      </trkpt>
      <trkpt lat="43.43226" lon="-5.5932865">
        <ele>780.0</ele>
        <time>2021-02-14T12:12:44Z</time>
      </trkpt>
      <trkpt lat="43.432247" lon="-5.5932865">
        <ele>780.0</ele>
        <time>2021-02-14T12:12:45Z</time>
      </trkpt>
      <trkpt lat="43.43224" lon="-5.593285">
        <ele>780.0</ele>
        <time>2021-02-14T12:12:46Z</time>
      </trkpt>
      <trkpt lat="43.432228" lon="-5.5932846">
        <ele>779.0</ele>
        <time>2021-02-14T12:12:47Z</time>
      </trkpt>
      <trkpt lat="43.432224" lon="-5.593285">
        <ele>779.0</ele>
        <time>2021-02-14T12:12:48Z</time>
      </trkpt>
      <trkpt lat="43.432213" lon="-5.5932865">
        <ele>779.0</ele>
        <time>2021-02-14T12:12:49Z</time>
      </trkpt>
      <trkpt lat="43.4322" lon="-5.5932884">
        <ele>779.0</ele>
        <time>2021-02-14T12:12:50Z</time>
      </trkpt>
      <trkpt lat="43.432194" lon="-5.593291">
        <ele>779.0</ele>
        <time>2021-02-14T12:12:51Z</time>
      </trkpt>
      <trkpt lat="43.432186" lon="-5.5932937">
        <ele>779.0</ele>
        <time>2021-02-14T12:12:52Z</time>
      </trkpt>
      <trkpt lat="43.432182" lon="-5.5932956">
        <ele>779.0</ele>
        <time>2021-02-14T12:12:53Z</time>
      </trkpt>
      <trkpt lat="43.43217" lon="-5.5932984">
        <ele>779.0</ele>
        <time>2021-02-14T12:12:54Z</time>
      </trkpt>
      <trkpt lat="43.432167" lon="-5.5933022">
        <ele>779.0</ele>
        <time>2021-02-14T12:12:55Z</time>
      </trkpt>
      <trkpt lat="43.432156" lon="-5.593306">
        <ele>779.0</ele>
        <time>2021-02-14T12:12:56Z</time>
      </trkpt>
      <trkpt lat="43.43215" lon="-5.59331">
        <ele>779.0</ele>
        <time>2021-02-14T12:12:57Z</time>
      </trkpt>
      <trkpt lat="43.43214" lon="-5.5933127">
        <ele>779.0</ele>
        <time>2021-02-14T12:12:58Z</time>
      </trkpt>
      <trkpt lat="43.43213" lon="-5.593315">
        <ele>779.0</ele>
        <time>2021-02-14T12:12:59Z</time>
      </trkpt>
      <trkpt lat="43.43212" lon="-5.59332">
        <ele>779.0</ele>
        <time>2021-02-14T12:13:00Z</time>
      </trkpt>
      <trkpt lat="43.432106" lon="-5.593324">
        <ele>778.0</ele>
        <time>2021-02-14T12:13:01Z</time>
      </trkpt>
      <trkpt lat="43.432095" lon="-5.5933294">
        <ele>778.0</ele>
        <time>2021-02-14T12:13:02Z</time>
      </trkpt>
      <trkpt lat="43.432083" lon="-5.593334">
        <ele>778.0</ele>
        <time>2021-02-14T12:13:03Z</time>
      </trkpt>
      <trkpt lat="43.432076" lon="-5.5933404">
        <ele>778.0</ele>
        <time>2021-02-14T12:13:04Z</time>
      </trkpt>
      <trkpt lat="43.432068" lon="-5.593343">
        <ele>778.0</ele>
        <time>2021-02-14T12:13:05Z</time>
      </trkpt>
      <trkpt lat="43.43206" lon="-5.593345">
        <ele>777.0</ele>
        <time>2021-02-14T12:13:06Z</time>
      </trkpt>
      <trkpt lat="43.43205" lon="-5.5933485">
        <ele>777.0</ele>
        <time>2021-02-14T12:13:07Z</time>
      </trkpt>
      <trkpt lat="43.432045" lon="-5.593353">
        <ele>777.0</ele>
        <time>2021-02-14T12:13:08Z</time>
      </trkpt>
      <trkpt lat="43.432034" lon="-5.5933585">
        <ele>777.0</ele>
        <time>2021-02-14T12:13:09Z</time>
      </trkpt>
      <trkpt lat="43.43202" lon="-5.5933647">
        <ele>777.0</ele>
        <time>2021-02-14T12:13:10Z</time>
      </trkpt>
      <trkpt lat="43.432007" lon="-5.5933704">
        <ele>777.0</ele>
        <time>2021-02-14T12:13:11Z</time>
      </trkpt>
      <trkpt lat="43.43199" lon="-5.593376">
        <ele>777.0</ele>
        <time>2021-02-14T12:13:12Z</time>
      </trkpt>
      <trkpt lat="43.431984" lon="-5.593382">
        <ele>777.0</ele>
        <time>2021-02-14T12:13:13Z</time>
      </trkpt>
      <trkpt lat="43.431965" lon="-5.5933876">
        <ele>776.0</ele>
        <time>2021-02-14T12:13:14Z</time>
      </trkpt>
      <trkpt lat="43.431957" lon="-5.593392">
        <ele>776.0</ele>
        <time>2021-02-14T12:13:15Z</time>
      </trkpt>
      <trkpt lat="43.431946" lon="-5.5933933">
        <ele>776.0</ele>
        <time>2021-02-14T12:13:16Z</time>
      </trkpt>
      <trkpt lat="43.431934" lon="-5.593394">
        <ele>776.0</ele>
        <time>2021-02-14T12:13:17Z</time>
      </trkpt>
      <trkpt lat="43.43193" lon="-5.5933957">
        <ele>776.0</ele>
        <time>2021-02-14T12:13:18Z</time>
      </trkpt>
      <trkpt lat="43.43192" lon="-5.593397">
        <ele>775.0</ele>
        <time>2021-02-14T12:13:19Z</time>
      </trkpt>
      <trkpt lat="43.43191" lon="-5.5933986">
        <ele>775.0</ele>
        <time>2021-02-14T12:13:20Z</time>
      </trkpt>
      <trkpt lat="43.431904" lon="-5.5934005">
        <ele>775.0</ele>
        <time>2021-02-14T12:13:21Z</time>
      </trkpt>
      <trkpt lat="43.431896" lon="-5.5934033">
        <ele>775.0</ele>
        <time>2021-02-14T12:13:22Z</time>
      </trkpt>
      <trkpt lat="43.431885" lon="-5.5934052">
        <ele>775.0</ele>
        <time>2021-02-14T12:13:23Z</time>
      </trkpt>
      <trkpt lat="43.43188" lon="-5.593406">
        <ele>775.0</ele>
        <time>2021-02-14T12:13:24Z</time>
      </trkpt>
      <trkpt lat="43.43187" lon="-5.5934052">
        <ele>774.0</ele>
        <time>2021-02-14T12:13:24Z</time>
      </trkpt>
      <trkpt lat="43.431858" lon="-5.593406">
        <ele>774.0</ele>
        <time>2021-02-14T12:13:25Z</time>
      </trkpt>
      <trkpt lat="43.43185" lon="-5.593408">
        <ele>774.0</ele>
        <time>2021-02-14T12:13:26Z</time>
      </trkpt>
      <trkpt lat="43.43184" lon="-5.59341">
        <ele>774.0</ele>
        <time>2021-02-14T12:13:27Z</time>
      </trkpt>
      <trkpt lat="43.431828" lon="-5.5934105">
        <ele>774.0</ele>
        <time>2021-02-14T12:13:28Z</time>
      </trkpt>
      <trkpt lat="43.431824" lon="-5.593411">
        <ele>773.0</ele>
        <time>2021-02-14T12:13:29Z</time>
      </trkpt>
      <trkpt lat="43.431812" lon="-5.5934134">
        <ele>773.0</ele>
        <time>2021-02-14T12:13:30Z</time>
      </trkpt>
      <trkpt lat="43.43181" lon="-5.5934153">
        <ele>773.0</ele>
        <time>2021-02-14T12:13:31Z</time>
      </trkpt>
      <trkpt lat="43.431797" lon="-5.593419">
        <ele>773.0</ele>
        <time>2021-02-14T12:13:32Z</time>
      </trkpt>
      <trkpt lat="43.43179" lon="-5.593422">
        <ele>773.0</ele>
        <time>2021-02-14T12:13:33Z</time>
      </trkpt>
      <trkpt lat="43.43178" lon="-5.593427">
        <ele>773.0</ele>
        <time>2021-02-14T12:13:34Z</time>
      </trkpt>
      <trkpt lat="43.43177" lon="-5.593431">
        <ele>773.0</ele>
        <time>2021-02-14T12:13:35Z</time>
      </trkpt>
      <trkpt lat="43.431767" lon="-5.593435">
        <ele>773.0</ele>
        <time>2021-02-14T12:13:36Z</time>
      </trkpt>
      <trkpt lat="43.431755" lon="-5.5934367">
        <ele>773.0</ele>
        <time>2021-02-14T12:13:37Z</time>
      </trkpt>
      <trkpt lat="43.43175" lon="-5.5934396">
        <ele>773.0</ele>
        <time>2021-02-14T12:13:38Z</time>
      </trkpt>
      <trkpt lat="43.43174" lon="-5.593444">
        <ele>773.0</ele>
        <time>2021-02-14T12:13:39Z</time>
      </trkpt>
      <trkpt lat="43.431736" lon="-5.593447">
        <ele>772.0</ele>
        <time>2021-02-14T12:13:40Z</time>
      </trkpt>
      <trkpt lat="43.431725" lon="-5.5934515">
        <ele>772.0</ele>
        <time>2021-02-14T12:13:41Z</time>
      </trkpt>
      <trkpt lat="43.431717" lon="-5.5934567">
        <ele>772.0</ele>
        <time>2021-02-14T12:13:42Z</time>
      </trkpt>
      <trkpt lat="43.431705" lon="-5.5934625">
        <ele>772.0</ele>
        <time>2021-02-14T12:13:43Z</time>
      </trkpt>
      <trkpt lat="43.4317" lon="-5.5934687">
        <ele>772.0</ele>
        <time>2021-02-14T12:13:44Z</time>
      </trkpt>
      <trkpt lat="43.43169" lon="-5.5934744">
        <ele>772.0</ele>
        <time>2021-02-14T12:13:45Z</time>
      </trkpt>
      <trkpt lat="43.43168" lon="-5.5934796">
        <ele>771.0</ele>
        <time>2021-02-14T12:13:46Z</time>
      </trkpt>
      <trkpt lat="43.431675" lon="-5.593485">
        <ele>771.0</ele>
        <time>2021-02-14T12:13:47Z</time>
      </trkpt>
      <trkpt lat="43.431664" lon="-5.593489">
        <ele>771.0</ele>
        <time>2021-02-14T12:13:48Z</time>
      </trkpt>
      <trkpt lat="43.43166" lon="-5.593493">
        <ele>771.0</ele>
        <time>2021-02-14T12:13:49Z</time>
      </trkpt>
      <trkpt lat="43.43165" lon="-5.593498">
        <ele>771.0</ele>
        <time>2021-02-14T12:13:50Z</time>
      </trkpt>
      <trkpt lat="43.431644" lon="-5.5935035">
        <ele>771.0</ele>
        <time>2021-02-14T12:13:51Z</time>
      </trkpt>
      <trkpt lat="43.431633" lon="-5.5935073">
        <ele>770.0</ele>
        <time>2021-02-14T12:13:52Z</time>
      </trkpt>
      <trkpt lat="43.431625" lon="-5.5935106">
        <ele>770.0</ele>
        <time>2021-02-14T12:13:53Z</time>
      </trkpt>
      <trkpt lat="43.431614" lon="-5.5935135">
        <ele>770.0</ele>
        <time>2021-02-14T12:13:54Z</time>
      </trkpt>
      <trkpt lat="43.4316" lon="-5.59352">
        <ele>770.0</ele>
        <time>2021-02-14T12:13:55Z</time>
      </trkpt>
      <trkpt lat="43.431587" lon="-5.593527">
        <ele>770.0</ele>
        <time>2021-02-14T12:13:56Z</time>
      </trkpt>
      <trkpt lat="43.431576" lon="-5.593534">
        <ele>770.0</ele>
        <time>2021-02-14T12:13:57Z</time>
      </trkpt>
      <trkpt lat="43.43157" lon="-5.5935407">
        <ele>770.0</ele>
        <time>2021-02-14T12:13:58Z</time>
      </trkpt>
      <trkpt lat="43.431553" lon="-5.5935435">
        <ele>770.0</ele>
        <time>2021-02-14T12:13:59Z</time>
      </trkpt>
      <trkpt lat="43.43154" lon="-5.5935435">
        <ele>770.0</ele>
        <time>2021-02-14T12:14:00Z</time>
      </trkpt>
      <trkpt lat="43.431526" lon="-5.5935435">
        <ele>769.0</ele>
        <time>2021-02-14T12:14:01Z</time>
      </trkpt>
      <trkpt lat="43.431515" lon="-5.5935435">
        <ele>769.0</ele>
        <time>2021-02-14T12:14:02Z</time>
      </trkpt>
      <trkpt lat="43.431507" lon="-5.5935454">
        <ele>769.0</ele>
        <time>2021-02-14T12:14:03Z</time>
      </trkpt>
      <trkpt lat="43.431496" lon="-5.5935483">
        <ele>769.0</ele>
        <time>2021-02-14T12:14:04Z</time>
      </trkpt>
      <trkpt lat="43.43149" lon="-5.593552">
        <ele>769.0</ele>
        <time>2021-02-14T12:14:05Z</time>
      </trkpt>
      <trkpt lat="43.43148" lon="-5.593556">
        <ele>769.0</ele>
        <time>2021-02-14T12:14:06Z</time>
      </trkpt>
      <trkpt lat="43.431477" lon="-5.5935597">
        <ele>768.0</ele>
        <time>2021-02-14T12:14:07Z</time>
      </trkpt>
      <trkpt lat="43.431465" lon="-5.5935636">
        <ele>768.0</ele>
        <time>2021-02-14T12:14:08Z</time>
      </trkpt>
      <trkpt lat="43.43146" lon="-5.593568">
        <ele>768.0</ele>
        <time>2021-02-14T12:14:09Z</time>
      </trkpt>
      <trkpt lat="43.431454" lon="-5.5935736">
        <ele>768.0</ele>
        <time>2021-02-14T12:14:10Z</time>
      </trkpt>
      <trkpt lat="43.431454" lon="-5.5935817">
        <ele>768.0</ele>
        <time>2021-02-14T12:14:11Z</time>
      </trkpt>
      <trkpt lat="43.43145" lon="-5.593591">
        <ele>768.0</ele>
        <time>2021-02-14T12:14:12Z</time>
      </trkpt>
      <trkpt lat="43.431446" lon="-5.5936007">
        <ele>768.0</ele>
        <time>2021-02-14T12:14:13Z</time>
      </trkpt>
      <trkpt lat="43.431446" lon="-5.593611">
        <ele>768.0</ele>
        <time>2021-02-14T12:14:14Z</time>
      </trkpt>
      <trkpt lat="43.43144" lon="-5.59362">
        <ele>768.0</ele>
        <time>2021-02-14T12:14:15Z</time>
      </trkpt>
      <trkpt lat="43.431435" lon="-5.593628">
        <ele>768.0</ele>
        <time>2021-02-14T12:14:16Z</time>
      </trkpt>
      <trkpt lat="43.43143" lon="-5.5936384">
        <ele>768.0</ele>
        <time>2021-02-14T12:14:17Z</time>
      </trkpt>
      <trkpt lat="43.431423" lon="-5.59365">
        <ele>768.0</ele>
        <time>2021-02-14T12:14:18Z</time>
      </trkpt>
      <trkpt lat="43.43142" lon="-5.5936613">
        <ele>768.0</ele>
        <time>2021-02-14T12:14:19Z</time>
      </trkpt>
      <trkpt lat="43.431416" lon="-5.5936728">
        <ele>768.0</ele>
        <time>2021-02-14T12:14:20Z</time>
      </trkpt>
      <trkpt lat="43.431408" lon="-5.5936837">
        <ele>768.0</ele>
        <time>2021-02-14T12:14:21Z</time>
      </trkpt>
      <trkpt lat="43.431404" lon="-5.5936933">
        <ele>768.0</ele>
        <time>2021-02-14T12:14:22Z</time>
      </trkpt>
      <trkpt lat="43.431404" lon="-5.5937037">
        <ele>768.0</ele>
        <time>2021-02-14T12:14:23Z</time>
      </trkpt>
      <trkpt lat="43.4314" lon="-5.5937133">
        <ele>768.0</ele>
        <time>2021-02-14T12:14:24Z</time>
      </trkpt>
      <trkpt lat="43.4314" lon="-5.5937223">
        <ele>768.0</ele>
        <time>2021-02-14T12:14:25Z</time>
      </trkpt>
      <trkpt lat="43.4314" lon="-5.5937314">
        <ele>767.0</ele>
        <time>2021-02-14T12:14:26Z</time>
      </trkpt>
      <trkpt lat="43.4314" lon="-5.593741">
        <ele>767.0</ele>
        <time>2021-02-14T12:14:27Z</time>
      </trkpt>
      <trkpt lat="43.431393" lon="-5.5937495">
        <ele>767.0</ele>
        <time>2021-02-14T12:14:28Z</time>
      </trkpt>
      <trkpt lat="43.431393" lon="-5.5937595">
        <ele>767.0</ele>
        <time>2021-02-14T12:14:29Z</time>
      </trkpt>
      <trkpt lat="43.43138" lon="-5.593769">
        <ele>767.0</ele>
        <time>2021-02-14T12:14:30Z</time>
      </trkpt>
      <trkpt lat="43.43138" lon="-5.5937786">
        <ele>767.0</ele>
        <time>2021-02-14T12:14:31Z</time>
      </trkpt>
      <trkpt lat="43.431377" lon="-5.5937886">
        <ele>767.0</ele>
        <time>2021-02-14T12:14:32Z</time>
      </trkpt>
      <trkpt lat="43.431377" lon="-5.5937996">
        <ele>767.0</ele>
        <time>2021-02-14T12:14:33Z</time>
      </trkpt>
      <trkpt lat="43.431374" lon="-5.593813">
        <ele>767.0</ele>
        <time>2021-02-14T12:14:34Z</time>
      </trkpt>
      <trkpt lat="43.431374" lon="-5.5938253">
        <ele>766.0</ele>
        <time>2021-02-14T12:14:35Z</time>
      </trkpt>
      <trkpt lat="43.431374" lon="-5.593837">
        <ele>766.0</ele>
        <time>2021-02-14T12:14:36Z</time>
      </trkpt>
      <trkpt lat="43.431366" lon="-5.5938473">
        <ele>766.0</ele>
        <time>2021-02-14T12:14:37Z</time>
      </trkpt>
      <trkpt lat="43.431366" lon="-5.5938587">
        <ele>766.0</ele>
        <time>2021-02-14T12:14:38Z</time>
      </trkpt>
      <trkpt lat="43.431366" lon="-5.59387">
        <ele>766.0</ele>
        <time>2021-02-14T12:14:39Z</time>
      </trkpt>
      <trkpt lat="43.431362" lon="-5.593881">
        <ele>766.0</ele>
        <time>2021-02-14T12:14:40Z</time>
      </trkpt>
      <trkpt lat="43.431362" lon="-5.5938926">
        <ele>765.0</ele>
        <time>2021-02-14T12:14:41Z</time>
      </trkpt>
      <trkpt lat="43.43136" lon="-5.5939045">
        <ele>765.0</ele>
        <time>2021-02-14T12:14:42Z</time>
      </trkpt>
      <trkpt lat="43.43136" lon="-5.593917">
        <ele>765.0</ele>
        <time>2021-02-14T12:14:43Z</time>
      </trkpt>
      <trkpt lat="43.43135" lon="-5.5939302">
        <ele>765.0</ele>
        <time>2021-02-14T12:14:44Z</time>
      </trkpt>
      <trkpt lat="43.43135" lon="-5.5939445">
        <ele>765.0</ele>
        <time>2021-02-14T12:14:45Z</time>
      </trkpt>
      <trkpt lat="43.431347" lon="-5.593959">
        <ele>765.0</ele>
        <time>2021-02-14T12:14:46Z</time>
      </trkpt>
      <trkpt lat="43.431343" lon="-5.5939736">
        <ele>765.0</ele>
        <time>2021-02-14T12:14:47Z</time>
      </trkpt>
      <trkpt lat="43.431343" lon="-5.593985">
        <ele>765.0</ele>
        <time>2021-02-14T12:14:48Z</time>
      </trkpt>
      <trkpt lat="43.431343" lon="-5.593994">
        <ele>765.0</ele>
        <time>2021-02-14T12:14:49Z</time>
      </trkpt>
      <trkpt lat="43.431343" lon="-5.5940056">
        <ele>765.0</ele>
        <time>2021-02-14T12:14:50Z</time>
      </trkpt>
      <trkpt lat="43.431343" lon="-5.5940156">
        <ele>765.0</ele>
        <time>2021-02-14T12:14:51Z</time>
      </trkpt>
      <trkpt lat="43.431335" lon="-5.5940275">
        <ele>765.0</ele>
        <time>2021-02-14T12:14:52Z</time>
      </trkpt>
      <trkpt lat="43.431335" lon="-5.5940385">
        <ele>765.0</ele>
        <time>2021-02-14T12:14:53Z</time>
      </trkpt>
      <trkpt lat="43.431335" lon="-5.594046">
        <ele>764.0</ele>
        <time>2021-02-14T12:14:54Z</time>
      </trkpt>
      <trkpt lat="43.431335" lon="-5.5940504">
        <ele>764.0</ele>
        <time>2021-02-14T12:14:55Z</time>
      </trkpt>
      <trkpt lat="43.43133" lon="-5.5940537">
        <ele>764.0</ele>
        <time>2021-02-14T12:14:56Z</time>
      </trkpt>
      <trkpt lat="43.431328" lon="-5.5940557">
        <ele>764.0</ele>
        <time>2021-02-14T12:14:57Z</time>
      </trkpt>
      <trkpt lat="43.43132" lon="-5.594058">
        <ele>764.0</ele>
        <time>2021-02-14T12:14:58Z</time>
      </trkpt>
      <trkpt lat="43.431316" lon="-5.5940614">
        <ele>764.0</ele>
        <time>2021-02-14T12:14:59Z</time>
      </trkpt>
      <trkpt lat="43.431313" lon="-5.594062">
        <ele>763.0</ele>
        <time>2021-02-14T12:15:00Z</time>
      </trkpt>
      <trkpt lat="43.4313" lon="-5.5940633">
        <ele>763.0</ele>
        <time>2021-02-14T12:15:01Z</time>
      </trkpt>
      <trkpt lat="43.43129" lon="-5.594065">
        <ele>763.0</ele>
        <time>2021-02-14T12:15:02Z</time>
      </trkpt>
      <trkpt lat="43.431282" lon="-5.5940685">
        <ele>763.0</ele>
        <time>2021-02-14T12:15:03Z</time>
      </trkpt>
      <trkpt lat="43.431274" lon="-5.594071">
        <ele>763.0</ele>
        <time>2021-02-14T12:15:04Z</time>
      </trkpt>
      <trkpt lat="43.43127" lon="-5.5940742">
        <ele>763.0</ele>
        <time>2021-02-14T12:15:05Z</time>
      </trkpt>
      <trkpt lat="43.43126" lon="-5.5940785">
        <ele>763.0</ele>
        <time>2021-02-14T12:15:06Z</time>
      </trkpt>
      <trkpt lat="43.431255" lon="-5.5940833">
        <ele>763.0</ele>
        <time>2021-02-14T12:15:07Z</time>
      </trkpt>
      <trkpt lat="43.431244" lon="-5.594089">
        <ele>763.0</ele>
        <time>2021-02-14T12:15:08Z</time>
      </trkpt>
      <trkpt lat="43.43124" lon="-5.5940933">
        <ele>763.0</ele>
        <time>2021-02-14T12:15:09Z</time>
      </trkpt>
      <trkpt lat="43.431236" lon="-5.5941">
        <ele>763.0</ele>
        <time>2021-02-14T12:15:10Z</time>
      </trkpt>
      <trkpt lat="43.43123" lon="-5.594106">
        <ele>763.0</ele>
        <time>2021-02-14T12:15:11Z</time>
      </trkpt>
      <trkpt lat="43.43123" lon="-5.5941114">
        <ele>763.0</ele>
        <time>2021-02-14T12:15:12Z</time>
      </trkpt>
      <trkpt lat="43.431225" lon="-5.594117">
        <ele>763.0</ele>
        <time>2021-02-14T12:15:13Z</time>
      </trkpt>
      <trkpt lat="43.43122" lon="-5.5941243">
        <ele>763.0</ele>
        <time>2021-02-14T12:15:14Z</time>
      </trkpt>
      <trkpt lat="43.43121" lon="-5.594132">
        <ele>763.0</ele>
        <time>2021-02-14T12:15:15Z</time>
      </trkpt>
      <trkpt lat="43.43121" lon="-5.594139">
        <ele>763.0</ele>
        <time>2021-02-14T12:15:16Z</time>
      </trkpt>
      <trkpt lat="43.4312" lon="-5.5941467">
        <ele>763.0</ele>
        <time>2021-02-14T12:15:17Z</time>
      </trkpt>
      <trkpt lat="43.431187" lon="-5.594157">
        <ele>763.0</ele>
        <time>2021-02-14T12:15:18Z</time>
      </trkpt>
      <trkpt lat="43.431183" lon="-5.59417">
        <ele>763.0</ele>
        <time>2021-02-14T12:15:19Z</time>
      </trkpt>
      <trkpt lat="43.43118" lon="-5.5941806">
        <ele>763.0</ele>
        <time>2021-02-14T12:15:20Z</time>
      </trkpt>
      <trkpt lat="43.431168" lon="-5.5941877">
        <ele>762.0</ele>
        <time>2021-02-14T12:15:21Z</time>
      </trkpt>
      <trkpt lat="43.431164" lon="-5.5941935">
        <ele>762.0</ele>
        <time>2021-02-14T12:15:22Z</time>
      </trkpt>
      <trkpt lat="43.431156" lon="-5.5942016">
        <ele>762.0</ele>
        <time>2021-02-14T12:15:23Z</time>
      </trkpt>
      <trkpt lat="43.431152" lon="-5.59421">
        <ele>762.0</ele>
        <time>2021-02-14T12:15:24Z</time>
      </trkpt>
      <trkpt lat="43.43115" lon="-5.5942187">
        <ele>762.0</ele>
        <time>2021-02-14T12:15:25Z</time>
      </trkpt>
      <trkpt lat="43.43115" lon="-5.5942264">
        <ele>762.0</ele>
        <time>2021-02-14T12:15:26Z</time>
      </trkpt>
      <trkpt lat="43.43114" lon="-5.5942335">
        <ele>761.0</ele>
        <time>2021-02-14T12:15:27Z</time>
      </trkpt>
      <trkpt lat="43.431137" lon="-5.594242">
        <ele>761.0</ele>
        <time>2021-02-14T12:15:28Z</time>
      </trkpt>
      <trkpt lat="43.431137" lon="-5.5942497">
        <ele>761.0</ele>
        <time>2021-02-14T12:15:29Z</time>
      </trkpt>
      <trkpt lat="43.431133" lon="-5.5942593">
        <ele>761.0</ele>
        <time>2021-02-14T12:15:30Z</time>
      </trkpt>
      <trkpt lat="43.431133" lon="-5.5942707">
        <ele>761.0</ele>
        <time>2021-02-14T12:15:31Z</time>
      </trkpt>
      <trkpt lat="43.431126" lon="-5.594282">
        <ele>761.0</ele>
        <time>2021-02-14T12:15:32Z</time>
      </trkpt>
      <trkpt lat="43.431126" lon="-5.594293">
        <ele>761.0</ele>
        <time>2021-02-14T12:15:33Z</time>
      </trkpt>
      <trkpt lat="43.43112" lon="-5.594303">
        <ele>761.0</ele>
        <time>2021-02-14T12:15:34Z</time>
      </trkpt>
      <trkpt lat="43.431118" lon="-5.594313">
        <ele>760.0</ele>
        <time>2021-02-14T12:15:35Z</time>
      </trkpt>
      <trkpt lat="43.43111" lon="-5.5943193">
        <ele>760.0</ele>
        <time>2021-02-14T12:15:36Z</time>
      </trkpt>
      <trkpt lat="43.431103" lon="-5.5943265">
        <ele>760.0</ele>
        <time>2021-02-14T12:15:37Z</time>
      </trkpt>
      <trkpt lat="43.431095" lon="-5.5943356">
        <ele>760.0</ele>
        <time>2021-02-14T12:15:38Z</time>
      </trkpt>
      <trkpt lat="43.43109" lon="-5.594347">
        <ele>760.0</ele>
        <time>2021-02-14T12:15:39Z</time>
      </trkpt>
      <trkpt lat="43.43109" lon="-5.59436">
        <ele>759.0</ele>
        <time>2021-02-14T12:15:40Z</time>
      </trkpt>
      <trkpt lat="43.431087" lon="-5.594373">
        <ele>759.0</ele>
        <time>2021-02-14T12:15:41Z</time>
      </trkpt>
      <trkpt lat="43.431087" lon="-5.594386">
        <ele>759.0</ele>
        <time>2021-02-14T12:15:42Z</time>
      </trkpt>
      <trkpt lat="43.43108" lon="-5.5943975">
        <ele>759.0</ele>
        <time>2021-02-14T12:15:43Z</time>
      </trkpt>
      <trkpt lat="43.431076" lon="-5.5944085">
        <ele>759.0</ele>
        <time>2021-02-14T12:15:44Z</time>
      </trkpt>
      <trkpt lat="43.431072" lon="-5.59442">
        <ele>759.0</ele>
        <time>2021-02-14T12:15:45Z</time>
      </trkpt>
      <trkpt lat="43.431065" lon="-5.5944295">
        <ele>759.0</ele>
        <time>2021-02-14T12:15:46Z</time>
      </trkpt>
      <trkpt lat="43.43106" lon="-5.5944395">
        <ele>759.0</ele>
        <time>2021-02-14T12:15:47Z</time>
      </trkpt>
      <trkpt lat="43.431057" lon="-5.594452">
        <ele>758.0</ele>
        <time>2021-02-14T12:15:48Z</time>
      </trkpt>
      <trkpt lat="43.43105" lon="-5.594462">
        <ele>758.0</ele>
        <time>2021-02-14T12:15:49Z</time>
      </trkpt>
      <trkpt lat="43.431046" lon="-5.5944715">
        <ele>758.0</ele>
        <time>2021-02-14T12:15:50Z</time>
      </trkpt>
      <trkpt lat="43.43104" lon="-5.5944815">
        <ele>758.0</ele>
        <time>2021-02-14T12:15:51Z</time>
      </trkpt>
      <trkpt lat="43.431034" lon="-5.5944915">
        <ele>758.0</ele>
        <time>2021-02-14T12:15:52Z</time>
      </trkpt>
      <trkpt lat="43.43103" lon="-5.5945">
        <ele>758.0</ele>
        <time>2021-02-14T12:15:53Z</time>
      </trkpt>
      <trkpt lat="43.431026" lon="-5.594508">
        <ele>758.0</ele>
        <time>2021-02-14T12:15:54Z</time>
      </trkpt>
      <trkpt lat="43.43102" lon="-5.5945163">
        <ele>758.0</ele>
        <time>2021-02-14T12:15:55Z</time>
      </trkpt>
      <trkpt lat="43.431007" lon="-5.5945263">
        <ele>758.0</ele>
        <time>2021-02-14T12:15:56Z</time>
      </trkpt>
      <trkpt lat="43.431004" lon="-5.594536">
        <ele>758.0</ele>
        <time>2021-02-14T12:15:57Z</time>
      </trkpt>
      <trkpt lat="43.431004" lon="-5.5945425">
        <ele>758.0</ele>
        <time>2021-02-14T12:15:58Z</time>
      </trkpt>
      <trkpt lat="43.431004" lon="-5.5945516">
        <ele>758.0</ele>
        <time>2021-02-14T12:15:59Z</time>
      </trkpt>
      <trkpt lat="43.431004" lon="-5.5945606">
        <ele>758.0</ele>
        <time>2021-02-14T12:16:00Z</time>
      </trkpt>
      <trkpt lat="43.431004" lon="-5.594567">
        <ele>758.0</ele>
        <time>2021-02-14T12:16:01Z</time>
      </trkpt>
      <trkpt lat="43.431004" lon="-5.5945735">
        <ele>758.0</ele>
        <time>2021-02-14T12:16:02Z</time>
      </trkpt>
      <trkpt lat="43.431004" lon="-5.5945816">
        <ele>757.0</ele>
        <time>2021-02-14T12:16:03Z</time>
      </trkpt>
      <trkpt lat="43.431" lon="-5.5945907">
        <ele>757.0</ele>
        <time>2021-02-14T12:16:04Z</time>
      </trkpt>
      <trkpt lat="43.431" lon="-5.594601">
        <ele>757.0</ele>
        <time>2021-02-14T12:16:05Z</time>
      </trkpt>
      <trkpt lat="43.430992" lon="-5.5946116">
        <ele>757.0</ele>
        <time>2021-02-14T12:16:06Z</time>
      </trkpt>
      <trkpt lat="43.430992" lon="-5.5946207">
        <ele>757.0</ele>
        <time>2021-02-14T12:16:07Z</time>
      </trkpt>
      <trkpt lat="43.430992" lon="-5.5946274">
        <ele>757.0</ele>
        <time>2021-02-14T12:16:08Z</time>
      </trkpt>
      <trkpt lat="43.430992" lon="-5.594632">
        <ele>757.0</ele>
        <time>2021-02-14T12:16:09Z</time>
      </trkpt>
      <trkpt lat="43.43099" lon="-5.594636">
        <ele>757.0</ele>
        <time>2021-02-14T12:16:10Z</time>
      </trkpt>
      <trkpt lat="43.430984" lon="-5.594641">
        <ele>757.0</ele>
        <time>2021-02-14T12:16:12Z</time>
      </trkpt>
      <trkpt lat="43.43097" lon="-5.5946393">
        <ele>757.0</ele>
        <time>2021-02-14T12:16:14Z</time>
      </trkpt>
      <trkpt lat="43.43097" lon="-5.5946426">
        <ele>757.0</ele>
        <time>2021-02-14T12:16:17Z</time>
      </trkpt>
      <trkpt lat="43.430973" lon="-5.594643">
        <ele>757.0</ele>
        <time>2021-02-14T12:16:18Z</time>
      </trkpt>
      <trkpt lat="43.430973" lon="-5.5946445">
        <ele>757.0</ele>
        <time>2021-02-14T12:16:19Z</time>
      </trkpt>
      <trkpt lat="43.430973" lon="-5.5946445">
        <ele>757.0</ele>
        <time>2021-02-14T12:16:21Z</time>
      </trkpt>
      <trkpt lat="43.430973" lon="-5.5946426">
        <ele>757.0</ele>
        <time>2021-02-14T12:16:23Z</time>
      </trkpt>
      <trkpt lat="43.430977" lon="-5.5946426">
        <ele>757.0</ele>
        <time>2021-02-14T12:17:45Z</time>
      </trkpt>
      <trkpt lat="43.430984" lon="-5.594631">
        <ele>757.0</ele>
        <time>2021-02-14T12:18:08Z</time>
      </trkpt>
      <trkpt lat="43.430984" lon="-5.5946302">
        <ele>757.0</ele>
        <time>2021-02-14T12:18:09Z</time>
      </trkpt>
      <trkpt lat="43.430984" lon="-5.5946283">
        <ele>757.0</ele>
        <time>2021-02-14T12:18:10Z</time>
      </trkpt>
      <trkpt lat="43.430984" lon="-5.5946264">
        <ele>757.0</ele>
        <time>2021-02-14T12:18:11Z</time>
      </trkpt>
      <trkpt lat="43.430984" lon="-5.5946245">
        <ele>757.0</ele>
        <time>2021-02-14T12:18:12Z</time>
      </trkpt>
      <trkpt lat="43.430984" lon="-5.594622">
        <ele>757.0</ele>
        <time>2021-02-14T12:18:13Z</time>
      </trkpt>
      <trkpt lat="43.43099" lon="-5.5946145">
        <ele>757.0</ele>
        <time>2021-02-14T12:18:17Z</time>
      </trkpt>
      <trkpt lat="43.430984" lon="-5.5946093">
        <ele>757.0</ele>
        <time>2021-02-14T12:18:43Z</time>
      </trkpt>
      <trkpt lat="43.430977" lon="-5.594608">
        <ele>757.0</ele>
        <time>2021-02-14T12:18:45Z</time>
      </trkpt>
      <trkpt lat="43.430977" lon="-5.594605">
        <ele>757.0</ele>
        <time>2021-02-14T12:18:47Z</time>
      </trkpt>
      <trkpt lat="43.430977" lon="-5.5945997">
        <ele>757.0</ele>
        <time>2021-02-14T12:18:49Z</time>
      </trkpt>
      <trkpt lat="43.430977" lon="-5.5945945">
        <ele>757.0</ele>
        <time>2021-02-14T12:18:51Z</time>
      </trkpt>
      <trkpt lat="43.430977" lon="-5.594589">
        <ele>757.0</ele>
        <time>2021-02-14T12:18:53Z</time>
      </trkpt>
      <trkpt lat="43.430977" lon="-5.5945888">
        <ele>757.0</ele>
        <time>2021-02-14T12:18:54Z</time>
      </trkpt>
      <trkpt lat="43.430977" lon="-5.594587">
        <ele>757.0</ele>
        <time>2021-02-14T12:18:55Z</time>
      </trkpt>
      <trkpt lat="43.430973" lon="-5.594581">
        <ele>757.0</ele>
        <time>2021-02-14T12:18:57Z</time>
      </trkpt>
      <trkpt lat="43.430973" lon="-5.5945797">
        <ele>757.0</ele>
        <time>2021-02-14T12:18:59Z</time>
      </trkpt>
      <trkpt lat="43.43097" lon="-5.594575">
        <ele>757.0</ele>
        <time>2021-02-14T12:19:12Z</time>
      </trkpt>
      <trkpt lat="43.43096" lon="-5.594573">
        <ele>757.0</ele>
        <time>2021-02-14T12:19:16Z</time>
      </trkpt>
      <trkpt lat="43.430958" lon="-5.5945644">
        <ele>757.0</ele>
        <time>2021-02-14T12:19:24Z</time>
      </trkpt>
      <trkpt lat="43.43108" lon="-5.5945845">
        <ele>757.0</ele>
        <time>2021-02-14T12:23:34Z</time>
      </trkpt>
      <trkpt lat="43.43108" lon="-5.5945816">
        <ele>757.0</ele>
        <time>2021-02-14T12:23:35Z</time>
      </trkpt>
      <trkpt lat="43.43108" lon="-5.5945754">
        <ele>757.0</ele>
        <time>2021-02-14T12:23:36Z</time>
      </trkpt>
      <trkpt lat="43.431087" lon="-5.594568">
        <ele>757.0</ele>
        <time>2021-02-14T12:23:37Z</time>
      </trkpt>
      <trkpt lat="43.43109" lon="-5.594559">
        <ele>757.0</ele>
        <time>2021-02-14T12:23:38Z</time>
      </trkpt>
      <trkpt lat="43.431095" lon="-5.5945497">
        <ele>757.0</ele>
        <time>2021-02-14T12:23:39Z</time>
      </trkpt>
      <trkpt lat="43.431103" lon="-5.594537">
        <ele>757.0</ele>
        <time>2021-02-14T12:23:40Z</time>
      </trkpt>
      <trkpt lat="43.43111" lon="-5.5945244">
        <ele>757.0</ele>
        <time>2021-02-14T12:23:41Z</time>
      </trkpt>
      <trkpt lat="43.43112" lon="-5.594512">
        <ele>757.0</ele>
        <time>2021-02-14T12:23:42Z</time>
      </trkpt>
      <trkpt lat="43.431126" lon="-5.5945">
        <ele>757.0</ele>
        <time>2021-02-14T12:23:43Z</time>
      </trkpt>
      <trkpt lat="43.431137" lon="-5.594488">
        <ele>757.0</ele>
        <time>2021-02-14T12:23:44Z</time>
      </trkpt>
      <trkpt lat="43.43115" lon="-5.594476">
        <ele>757.0</ele>
        <time>2021-02-14T12:23:45Z</time>
      </trkpt>
      <trkpt lat="43.431156" lon="-5.5944633">
        <ele>757.0</ele>
        <time>2021-02-14T12:23:46Z</time>
      </trkpt>
      <trkpt lat="43.431168" lon="-5.5944486">
        <ele>757.0</ele>
        <time>2021-02-14T12:23:47Z</time>
      </trkpt>
      <trkpt lat="43.43118" lon="-5.5944357">
        <ele>757.0</ele>
        <time>2021-02-14T12:23:48Z</time>
      </trkpt>
      <trkpt lat="43.431183" lon="-5.594426">
        <ele>757.0</ele>
        <time>2021-02-14T12:23:49Z</time>
      </trkpt>
      <trkpt lat="43.431187" lon="-5.594418">
        <ele>757.0</ele>
        <time>2021-02-14T12:23:50Z</time>
      </trkpt>
      <trkpt lat="43.431194" lon="-5.5944095">
        <ele>757.0</ele>
        <time>2021-02-14T12:23:51Z</time>
      </trkpt>
      <trkpt lat="43.4312" lon="-5.594403">
        <ele>757.0</ele>
        <time>2021-02-14T12:23:52Z</time>
      </trkpt>
      <trkpt lat="43.431202" lon="-5.594394">
        <ele>757.0</ele>
        <time>2021-02-14T12:23:53Z</time>
      </trkpt>
      <trkpt lat="43.431213" lon="-5.5943866">
        <ele>757.0</ele>
        <time>2021-02-14T12:23:54Z</time>
      </trkpt>
      <trkpt lat="43.43122" lon="-5.5943775">
        <ele>757.0</ele>
        <time>2021-02-14T12:23:55Z</time>
      </trkpt>
      <trkpt lat="43.43123" lon="-5.5943685">
        <ele>757.0</ele>
        <time>2021-02-14T12:23:56Z</time>
      </trkpt>
      <trkpt lat="43.431236" lon="-5.59436">
        <ele>757.0</ele>
        <time>2021-02-14T12:23:57Z</time>
      </trkpt>
      <trkpt lat="43.43124" lon="-5.594349">
        <ele>757.0</ele>
        <time>2021-02-14T12:23:58Z</time>
      </trkpt>
      <trkpt lat="43.43125" lon="-5.5943384">
        <ele>757.0</ele>
        <time>2021-02-14T12:23:59Z</time>
      </trkpt>
      <trkpt lat="43.431255" lon="-5.5943265">
        <ele>757.0</ele>
        <time>2021-02-14T12:24:00Z</time>
      </trkpt>
      <trkpt lat="43.43126" lon="-5.594317">
        <ele>757.0</ele>
        <time>2021-02-14T12:24:01Z</time>
      </trkpt>
      <trkpt lat="43.431267" lon="-5.594306">
        <ele>757.0</ele>
        <time>2021-02-14T12:24:02Z</time>
      </trkpt>
      <trkpt lat="43.431274" lon="-5.594297">
        <ele>757.0</ele>
        <time>2021-02-14T12:24:03Z</time>
      </trkpt>
      <trkpt lat="43.431282" lon="-5.594289">
        <ele>757.0</ele>
        <time>2021-02-14T12:24:04Z</time>
      </trkpt>
      <trkpt lat="43.431286" lon="-5.59428">
        <ele>757.0</ele>
        <time>2021-02-14T12:24:05Z</time>
      </trkpt>
      <trkpt lat="43.431286" lon="-5.594271">
        <ele>757.0</ele>
        <time>2021-02-14T12:24:06Z</time>
      </trkpt>
      <trkpt lat="43.43129" lon="-5.594263">
        <ele>757.0</ele>
        <time>2021-02-14T12:24:07Z</time>
      </trkpt>
      <trkpt lat="43.431297" lon="-5.5942535">
        <ele>757.0</ele>
        <time>2021-02-14T12:24:08Z</time>
      </trkpt>
      <trkpt lat="43.4313" lon="-5.594243">
        <ele>757.0</ele>
        <time>2021-02-14T12:24:09Z</time>
      </trkpt>
      <trkpt lat="43.431305" lon="-5.5942345">
        <ele>757.0</ele>
        <time>2021-02-14T12:24:10Z</time>
      </trkpt>
      <trkpt lat="43.431313" lon="-5.594226">
        <ele>757.0</ele>
        <time>2021-02-14T12:24:11Z</time>
      </trkpt>
      <trkpt lat="43.431316" lon="-5.594218">
        <ele>757.0</ele>
        <time>2021-02-14T12:24:12Z</time>
      </trkpt>
      <trkpt lat="43.431328" lon="-5.59421">
        <ele>765.0</ele>
        <time>2021-02-14T12:24:13Z</time>
      </trkpt>
      <trkpt lat="43.431343" lon="-5.5942">
        <ele>765.0</ele>
        <time>2021-02-14T12:24:14Z</time>
      </trkpt>
      <trkpt lat="43.43136" lon="-5.5941916">
        <ele>765.0</ele>
        <time>2021-02-14T12:24:15Z</time>
      </trkpt>
      <trkpt lat="43.431366" lon="-5.594183">
        <ele>765.0</ele>
        <time>2021-02-14T12:24:16Z</time>
      </trkpt>
      <trkpt lat="43.431377" lon="-5.594175">
        <ele>765.0</ele>
        <time>2021-02-14T12:24:17Z</time>
      </trkpt>
      <trkpt lat="43.43139" lon="-5.594167">
        <ele>765.0</ele>
        <time>2021-02-14T12:24:18Z</time>
      </trkpt>
      <trkpt lat="43.431393" lon="-5.594157">
        <ele>765.0</ele>
        <time>2021-02-14T12:24:19Z</time>
      </trkpt>
      <trkpt lat="43.4314" lon="-5.594146">
        <ele>765.0</ele>
        <time>2021-02-14T12:24:20Z</time>
      </trkpt>
      <trkpt lat="43.431404" lon="-5.5941358">
        <ele>765.0</ele>
        <time>2021-02-14T12:24:21Z</time>
      </trkpt>
      <trkpt lat="43.431404" lon="-5.594127">
        <ele>765.0</ele>
        <time>2021-02-14T12:24:22Z</time>
      </trkpt>
      <trkpt lat="43.431408" lon="-5.5941186">
        <ele>766.0</ele>
        <time>2021-02-14T12:24:23Z</time>
      </trkpt>
      <trkpt lat="43.431416" lon="-5.5941067">
        <ele>766.0</ele>
        <time>2021-02-14T12:24:24Z</time>
      </trkpt>
      <trkpt lat="43.431423" lon="-5.594093">
        <ele>766.0</ele>
        <time>2021-02-14T12:24:25Z</time>
      </trkpt>
      <trkpt lat="43.43143" lon="-5.59408">
        <ele>766.0</ele>
        <time>2021-02-14T12:24:26Z</time>
      </trkpt>
      <trkpt lat="43.431435" lon="-5.5940666">
        <ele>767.0</ele>
        <time>2021-02-14T12:24:27Z</time>
      </trkpt>
      <trkpt lat="43.43144" lon="-5.594054">
        <ele>767.0</ele>
        <time>2021-02-14T12:24:28Z</time>
      </trkpt>
      <trkpt lat="43.431446" lon="-5.5940447">
        <ele>767.0</ele>
        <time>2021-02-14T12:24:29Z</time>
      </trkpt>
      <trkpt lat="43.431446" lon="-5.5940385">
        <ele>767.0</ele>
        <time>2021-02-14T12:24:30Z</time>
      </trkpt>
      <trkpt lat="43.431446" lon="-5.5940332">
        <ele>767.0</ele>
        <time>2021-02-14T12:24:31Z</time>
      </trkpt>
      <trkpt lat="43.43145" lon="-5.594031">
        <ele>767.0</ele>
        <time>2021-02-14T12:24:32Z</time>
      </trkpt>
      <trkpt lat="43.43145" lon="-5.594031">
        <ele>767.0</ele>
        <time>2021-02-14T12:24:33Z</time>
      </trkpt>
      <trkpt lat="43.431454" lon="-5.594031">
        <ele>767.0</ele>
        <time>2021-02-14T12:24:34Z</time>
      </trkpt>
      <trkpt lat="43.431465" lon="-5.594029">
        <ele>767.0</ele>
        <time>2021-02-14T12:24:35Z</time>
      </trkpt>
      <trkpt lat="43.431477" lon="-5.594027">
        <ele>767.0</ele>
        <time>2021-02-14T12:24:36Z</time>
      </trkpt>
      <trkpt lat="43.431484" lon="-5.5940256">
        <ele>767.0</ele>
        <time>2021-02-14T12:24:37Z</time>
      </trkpt>
      <trkpt lat="43.431496" lon="-5.594024">
        <ele>767.0</ele>
        <time>2021-02-14T12:24:38Z</time>
      </trkpt>
      <trkpt lat="43.4315" lon="-5.5940237">
        <ele>767.0</ele>
        <time>2021-02-14T12:24:39Z</time>
      </trkpt>
      <trkpt lat="43.43151" lon="-5.594023">
        <ele>767.0</ele>
        <time>2021-02-14T12:24:40Z</time>
      </trkpt>
      <trkpt lat="43.431522" lon="-5.594023">
        <ele>768.0</ele>
        <time>2021-02-14T12:24:41Z</time>
      </trkpt>
      <trkpt lat="43.43153" lon="-5.5940256">
        <ele>768.0</ele>
        <time>2021-02-14T12:24:42Z</time>
      </trkpt>
      <trkpt lat="43.431538" lon="-5.594028">
        <ele>768.0</ele>
        <time>2021-02-14T12:24:43Z</time>
      </trkpt>
      <trkpt lat="43.431557" lon="-5.5940385">
        <ele>768.0</ele>
        <time>2021-02-14T12:24:45Z</time>
      </trkpt>
      <trkpt lat="43.431557" lon="-5.5940366">
        <ele>768.0</ele>
        <time>2021-02-14T12:24:47Z</time>
      </trkpt>
      <trkpt lat="43.431557" lon="-5.5940366">
        <ele>768.0</ele>
        <time>2021-02-14T12:24:48Z</time>
      </trkpt>
      <trkpt lat="43.431557" lon="-5.594037">
        <ele>768.0</ele>
        <time>2021-02-14T12:24:49Z</time>
      </trkpt>
      <trkpt lat="43.43156" lon="-5.5940385">
        <ele>768.0</ele>
        <time>2021-02-14T12:24:50Z</time>
      </trkpt>
      <trkpt lat="43.43157" lon="-5.594039">
        <ele>768.0</ele>
        <time>2021-02-14T12:24:51Z</time>
      </trkpt>
      <trkpt lat="43.431572" lon="-5.59404">
        <ele>768.0</ele>
        <time>2021-02-14T12:24:52Z</time>
      </trkpt>
      <trkpt lat="43.431576" lon="-5.594042">
        <ele>769.0</ele>
        <time>2021-02-14T12:24:53Z</time>
      </trkpt>
      <trkpt lat="43.431587" lon="-5.594043">
        <ele>769.0</ele>
        <time>2021-02-14T12:24:54Z</time>
      </trkpt>
      <trkpt lat="43.431595" lon="-5.594044">
        <ele>769.0</ele>
        <time>2021-02-14T12:24:55Z</time>
      </trkpt>
      <trkpt lat="43.431602" lon="-5.5940456">
        <ele>769.0</ele>
        <time>2021-02-14T12:24:56Z</time>
      </trkpt>
      <trkpt lat="43.43161" lon="-5.5940475">
        <ele>769.0</ele>
        <time>2021-02-14T12:24:57Z</time>
      </trkpt>
      <trkpt lat="43.431618" lon="-5.5940485">
        <ele>769.0</ele>
        <time>2021-02-14T12:24:58Z</time>
      </trkpt>
      <trkpt lat="43.431625" lon="-5.5940533">
        <ele>769.0</ele>
        <time>2021-02-14T12:24:59Z</time>
      </trkpt>
      <trkpt lat="43.43163" lon="-5.5940576">
        <ele>769.0</ele>
        <time>2021-02-14T12:25:00Z</time>
      </trkpt>
      <trkpt lat="43.431633" lon="-5.594063">
        <ele>769.0</ele>
        <time>2021-02-14T12:25:01Z</time>
      </trkpt>
      <trkpt lat="43.431644" lon="-5.594066">
        <ele>770.0</ele>
        <time>2021-02-14T12:25:02Z</time>
      </trkpt>
      <trkpt lat="43.431656" lon="-5.594068">
        <ele>770.0</ele>
        <time>2021-02-14T12:25:03Z</time>
      </trkpt>
      <trkpt lat="43.431664" lon="-5.5940685">
        <ele>770.0</ele>
        <time>2021-02-14T12:25:04Z</time>
      </trkpt>
      <trkpt lat="43.431675" lon="-5.594069">
        <ele>770.0</ele>
        <time>2021-02-14T12:25:05Z</time>
      </trkpt>
      <trkpt lat="43.431686" lon="-5.594071">
        <ele>770.0</ele>
        <time>2021-02-14T12:25:06Z</time>
      </trkpt>
      <trkpt lat="43.431694" lon="-5.594073">
        <ele>770.0</ele>
        <time>2021-02-14T12:25:07Z</time>
      </trkpt>
      <trkpt lat="43.4317" lon="-5.5940757">
        <ele>770.0</ele>
        <time>2021-02-14T12:25:08Z</time>
      </trkpt>
      <trkpt lat="43.431705" lon="-5.5940757">
        <ele>770.0</ele>
        <time>2021-02-14T12:25:09Z</time>
      </trkpt>
      <trkpt lat="43.431717" lon="-5.5940747">
        <ele>770.0</ele>
        <time>2021-02-14T12:25:10Z</time>
      </trkpt>
      <trkpt lat="43.43172" lon="-5.5940747">
        <ele>770.0</ele>
        <time>2021-02-14T12:25:11Z</time>
      </trkpt>
      <trkpt lat="43.431732" lon="-5.5940747">
        <ele>770.0</ele>
        <time>2021-02-14T12:25:12Z</time>
      </trkpt>
      <trkpt lat="43.43174" lon="-5.5940723">
        <ele>770.0</ele>
        <time>2021-02-14T12:25:13Z</time>
      </trkpt>
      <trkpt lat="43.43175" lon="-5.594071">
        <ele>770.0</ele>
        <time>2021-02-14T12:25:14Z</time>
      </trkpt>
      <trkpt lat="43.431763" lon="-5.5940685">
        <ele>770.0</ele>
        <time>2021-02-14T12:25:15Z</time>
      </trkpt>
      <trkpt lat="43.431767" lon="-5.5940666">
        <ele>770.0</ele>
        <time>2021-02-14T12:25:16Z</time>
      </trkpt>
      <trkpt lat="43.43177" lon="-5.594065">
        <ele>770.0</ele>
        <time>2021-02-14T12:25:17Z</time>
      </trkpt>
      <trkpt lat="43.431778" lon="-5.594066">
        <ele>770.0</ele>
        <time>2021-02-14T12:25:18Z</time>
      </trkpt>
      <trkpt lat="43.43179" lon="-5.5940647">
        <ele>770.0</ele>
        <time>2021-02-14T12:25:19Z</time>
      </trkpt>
      <trkpt lat="43.431793" lon="-5.5940633">
        <ele>771.0</ele>
        <time>2021-02-14T12:25:20Z</time>
      </trkpt>
      <trkpt lat="43.431805" lon="-5.594059">
        <ele>771.0</ele>
        <time>2021-02-14T12:25:21Z</time>
      </trkpt>
      <trkpt lat="43.431812" lon="-5.5940533">
        <ele>771.0</ele>
        <time>2021-02-14T12:25:22Z</time>
      </trkpt>
      <trkpt lat="43.431824" lon="-5.5940466">
        <ele>771.0</ele>
        <time>2021-02-14T12:25:23Z</time>
      </trkpt>
      <trkpt lat="43.431835" lon="-5.594039">
        <ele>771.0</ele>
        <time>2021-02-14T12:25:24Z</time>
      </trkpt>
      <trkpt lat="43.431843" lon="-5.594033">
        <ele>771.0</ele>
        <time>2021-02-14T12:25:25Z</time>
      </trkpt>
      <trkpt lat="43.43185" lon="-5.594028">
        <ele>771.0</ele>
        <time>2021-02-14T12:25:26Z</time>
      </trkpt>
      <trkpt lat="43.431858" lon="-5.594025">
        <ele>771.0</ele>
        <time>2021-02-14T12:25:27Z</time>
      </trkpt>
      <trkpt lat="43.431866" lon="-5.594024">
        <ele>771.0</ele>
        <time>2021-02-14T12:25:28Z</time>
      </trkpt>
      <trkpt lat="43.431866" lon="-5.594025">
        <ele>772.0</ele>
        <time>2021-02-14T12:25:29Z</time>
      </trkpt>
      <trkpt lat="43.43187" lon="-5.594024">
        <ele>772.0</ele>
        <time>2021-02-14T12:25:30Z</time>
      </trkpt>
      <trkpt lat="43.43187" lon="-5.5940194">
        <ele>772.0</ele>
        <time>2021-02-14T12:25:31Z</time>
      </trkpt>
      <trkpt lat="43.431873" lon="-5.5940094">
        <ele>772.0</ele>
        <time>2021-02-14T12:25:32Z</time>
      </trkpt>
      <trkpt lat="43.43188" lon="-5.593998">
        <ele>772.0</ele>
        <time>2021-02-14T12:25:33Z</time>
      </trkpt>
      <trkpt lat="43.43188" lon="-5.593989">
        <ele>772.0</ele>
        <time>2021-02-14T12:25:34Z</time>
      </trkpt>
      <trkpt lat="43.43188" lon="-5.5939765">
        <ele>772.0</ele>
        <time>2021-02-14T12:25:37Z</time>
      </trkpt>
      <trkpt lat="43.43188" lon="-5.5939794">
        <ele>772.0</ele>
        <time>2021-02-14T12:25:38Z</time>
      </trkpt>
      <trkpt lat="43.431885" lon="-5.593985">
        <ele>772.0</ele>
        <time>2021-02-14T12:25:39Z</time>
      </trkpt>
      <trkpt lat="43.43189" lon="-5.593997">
        <ele>772.0</ele>
        <time>2021-02-14T12:25:40Z</time>
      </trkpt>
      <trkpt lat="43.4319" lon="-5.594007">
        <ele>772.0</ele>
        <time>2021-02-14T12:25:41Z</time>
      </trkpt>
      <trkpt lat="43.431904" lon="-5.5940166">
        <ele>772.0</ele>
        <time>2021-02-14T12:25:42Z</time>
      </trkpt>
      <trkpt lat="43.43191" lon="-5.594025">
        <ele>772.0</ele>
        <time>2021-02-14T12:25:43Z</time>
      </trkpt>
      <trkpt lat="43.431915" lon="-5.594032">
        <ele>772.0</ele>
        <time>2021-02-14T12:25:44Z</time>
      </trkpt>
      <trkpt lat="43.431927" lon="-5.59405">
        <ele>772.0</ele>
        <time>2021-02-14T12:25:46Z</time>
      </trkpt>
      <trkpt lat="43.43193" lon="-5.5940495">
        <ele>772.0</ele>
        <time>2021-02-14T12:25:47Z</time>
      </trkpt>
      <trkpt lat="43.43193" lon="-5.594048">
        <ele>772.0</ele>
        <time>2021-02-14T12:25:48Z</time>
      </trkpt>
      <trkpt lat="43.43193" lon="-5.5940466">
        <ele>772.0</ele>
        <time>2021-02-14T12:25:49Z</time>
      </trkpt>
      <trkpt lat="43.43193" lon="-5.59405">
        <ele>772.0</ele>
        <time>2021-02-14T12:25:53Z</time>
      </trkpt>
      <trkpt lat="43.43193" lon="-5.5940504">
        <ele>772.0</ele>
        <time>2021-02-14T12:25:54Z</time>
      </trkpt>
      <trkpt lat="43.431934" lon="-5.5940537">
        <ele>772.0</ele>
        <time>2021-02-14T12:25:55Z</time>
      </trkpt>
      <trkpt lat="43.431934" lon="-5.594058">
        <ele>772.0</ele>
        <time>2021-02-14T12:25:56Z</time>
      </trkpt>
      <trkpt lat="43.431942" lon="-5.594063">
        <ele>772.0</ele>
        <time>2021-02-14T12:25:57Z</time>
      </trkpt>
      <trkpt lat="43.431942" lon="-5.5940685">
        <ele>772.0</ele>
        <time>2021-02-14T12:25:58Z</time>
      </trkpt>
      <trkpt lat="43.431946" lon="-5.594073">
        <ele>772.0</ele>
        <time>2021-02-14T12:25:59Z</time>
      </trkpt>
      <trkpt lat="43.43195" lon="-5.5940766">
        <ele>772.0</ele>
        <time>2021-02-14T12:26:00Z</time>
      </trkpt>
      <trkpt lat="43.431957" lon="-5.59408">
        <ele>772.0</ele>
        <time>2021-02-14T12:26:01Z</time>
      </trkpt>
      <trkpt lat="43.431965" lon="-5.594082">
        <ele>772.0</ele>
        <time>2021-02-14T12:26:02Z</time>
      </trkpt>
      <trkpt lat="43.431973" lon="-5.5940843">
        <ele>772.0</ele>
        <time>2021-02-14T12:26:03Z</time>
      </trkpt>
      <trkpt lat="43.431976" lon="-5.594087">
        <ele>772.0</ele>
        <time>2021-02-14T12:26:04Z</time>
      </trkpt>
      <trkpt lat="43.431984" lon="-5.5940886">
        <ele>772.0</ele>
        <time>2021-02-14T12:26:05Z</time>
      </trkpt>
      <trkpt lat="43.431988" lon="-5.5940895">
        <ele>772.0</ele>
        <time>2021-02-14T12:26:06Z</time>
      </trkpt>
      <trkpt lat="43.43199" lon="-5.5940914">
        <ele>772.0</ele>
        <time>2021-02-14T12:26:07Z</time>
      </trkpt>
      <trkpt lat="43.432003" lon="-5.5940943">
        <ele>772.0</ele>
        <time>2021-02-14T12:26:08Z</time>
      </trkpt>
      <trkpt lat="43.432007" lon="-5.594096">
        <ele>772.0</ele>
        <time>2021-02-14T12:26:09Z</time>
      </trkpt>
      <trkpt lat="43.43202" lon="-5.5940986">
        <ele>772.0</ele>
        <time>2021-02-14T12:26:09Z</time>
      </trkpt>
      <trkpt lat="43.432022" lon="-5.594102">
        <ele>772.0</ele>
        <time>2021-02-14T12:26:10Z</time>
      </trkpt>
      <trkpt lat="43.43203" lon="-5.5941057">
        <ele>772.0</ele>
        <time>2021-02-14T12:26:11Z</time>
      </trkpt>
      <trkpt lat="43.432034" lon="-5.594108">
        <ele>772.0</ele>
        <time>2021-02-14T12:26:12Z</time>
      </trkpt>
      <trkpt lat="43.432037" lon="-5.594112">
        <ele>772.0</ele>
        <time>2021-02-14T12:26:13Z</time>
      </trkpt>
      <trkpt lat="43.432045" lon="-5.5941157">
        <ele>772.0</ele>
        <time>2021-02-14T12:26:14Z</time>
      </trkpt>
      <trkpt lat="43.43205" lon="-5.5941205">
        <ele>772.0</ele>
        <time>2021-02-14T12:26:15Z</time>
      </trkpt>
      <trkpt lat="43.43205" lon="-5.594125">
        <ele>772.0</ele>
        <time>2021-02-14T12:26:16Z</time>
      </trkpt>
      <trkpt lat="43.432053" lon="-5.59413">
        <ele>772.0</ele>
        <time>2021-02-14T12:26:17Z</time>
      </trkpt>
      <trkpt lat="43.432053" lon="-5.594135">
        <ele>772.0</ele>
        <time>2021-02-14T12:26:18Z</time>
      </trkpt>
      <trkpt lat="43.43206" lon="-5.5941377">
        <ele>772.0</ele>
        <time>2021-02-14T12:26:19Z</time>
      </trkpt>
      <trkpt lat="43.432064" lon="-5.594139">
        <ele>772.0</ele>
        <time>2021-02-14T12:26:20Z</time>
      </trkpt>
      <trkpt lat="43.432064" lon="-5.594141">
        <ele>772.0</ele>
        <time>2021-02-14T12:26:21Z</time>
      </trkpt>
      <trkpt lat="43.432068" lon="-5.5941434">
        <ele>772.0</ele>
        <time>2021-02-14T12:26:22Z</time>
      </trkpt>
      <trkpt lat="43.432076" lon="-5.5941453">
        <ele>772.0</ele>
        <time>2021-02-14T12:26:23Z</time>
      </trkpt>
      <trkpt lat="43.432076" lon="-5.594147">
        <ele>772.0</ele>
        <time>2021-02-14T12:26:24Z</time>
      </trkpt>
      <trkpt lat="43.43208" lon="-5.5941515">
        <ele>772.0</ele>
        <time>2021-02-14T12:26:29Z</time>
      </trkpt>
      <trkpt lat="43.432083" lon="-5.5941563">
        <ele>772.0</ele>
        <time>2021-02-14T12:26:31Z</time>
      </trkpt>
      <trkpt lat="43.432083" lon="-5.594158">
        <ele>772.0</ele>
        <time>2021-02-14T12:26:33Z</time>
      </trkpt>
      <trkpt lat="43.432083" lon="-5.5941634">
        <ele>772.0</ele>
        <time>2021-02-14T12:26:35Z</time>
      </trkpt>
      <trkpt lat="43.432083" lon="-5.5941663">
        <ele>772.0</ele>
        <time>2021-02-14T12:26:37Z</time>
      </trkpt>
      <trkpt lat="43.43209" lon="-5.5941615">
        <ele>772.0</ele>
        <time>2021-02-14T12:26:39Z</time>
      </trkpt>
      <trkpt lat="43.43209" lon="-5.5941615">
        <ele>772.0</ele>
        <time>2021-02-14T12:26:40Z</time>
      </trkpt>
      <trkpt lat="43.432095" lon="-5.5941634">
        <ele>772.0</ele>
        <time>2021-02-14T12:26:41Z</time>
      </trkpt>
      <trkpt lat="43.4321" lon="-5.5941653">
        <ele>772.0</ele>
        <time>2021-02-14T12:26:42Z</time>
      </trkpt>
      <trkpt lat="43.432106" lon="-5.594167">
        <ele>772.0</ele>
        <time>2021-02-14T12:26:43Z</time>
      </trkpt>
      <trkpt lat="43.43211" lon="-5.594168">
        <ele>772.0</ele>
        <time>2021-02-14T12:26:44Z</time>
      </trkpt>
      <trkpt lat="43.43212" lon="-5.5941696">
        <ele>772.0</ele>
        <time>2021-02-14T12:26:45Z</time>
      </trkpt>
      <trkpt lat="43.432125" lon="-5.59417">
        <ele>772.0</ele>
        <time>2021-02-14T12:26:46Z</time>
      </trkpt>
      <trkpt lat="43.43213" lon="-5.5941696">
        <ele>772.0</ele>
        <time>2021-02-14T12:26:47Z</time>
      </trkpt>
      <trkpt lat="43.43214" lon="-5.594169">
        <ele>772.0</ele>
        <time>2021-02-14T12:26:48Z</time>
      </trkpt>
      <trkpt lat="43.432144" lon="-5.5941696">
        <ele>772.0</ele>
        <time>2021-02-14T12:26:49Z</time>
      </trkpt>
      <trkpt lat="43.43215" lon="-5.5941715">
        <ele>772.0</ele>
        <time>2021-02-14T12:26:50Z</time>
      </trkpt>
      <trkpt lat="43.432156" lon="-5.594174">
        <ele>772.0</ele>
        <time>2021-02-14T12:26:51Z</time>
      </trkpt>
      <trkpt lat="43.43216" lon="-5.5941787">
        <ele>772.0</ele>
        <time>2021-02-14T12:26:52Z</time>
      </trkpt>
      <trkpt lat="43.43216" lon="-5.5941834">
        <ele>772.0</ele>
        <time>2021-02-14T12:26:53Z</time>
      </trkpt>
      <trkpt lat="43.43216" lon="-5.594188">
        <ele>772.0</ele>
        <time>2021-02-14T12:26:54Z</time>
      </trkpt>
      <trkpt lat="43.432167" lon="-5.594192">
        <ele>772.0</ele>
        <time>2021-02-14T12:26:55Z</time>
      </trkpt>
      <trkpt lat="43.43217" lon="-5.5941944">
        <ele>772.0</ele>
        <time>2021-02-14T12:26:56Z</time>
      </trkpt>
      <trkpt lat="43.432182" lon="-5.5941978">
        <ele>772.0</ele>
        <time>2021-02-14T12:26:57Z</time>
      </trkpt>
      <trkpt lat="43.432194" lon="-5.5942">
        <ele>772.0</ele>
        <time>2021-02-14T12:26:58Z</time>
      </trkpt>
      <trkpt lat="43.4322" lon="-5.594207">
        <ele>772.0</ele>
        <time>2021-02-14T12:26:59Z</time>
      </trkpt>
      <trkpt lat="43.432213" lon="-5.594214">
        <ele>772.0</ele>
        <time>2021-02-14T12:27:00Z</time>
      </trkpt>
      <trkpt lat="43.432224" lon="-5.5942197">
        <ele>772.0</ele>
        <time>2021-02-14T12:27:01Z</time>
      </trkpt>
      <trkpt lat="43.432228" lon="-5.594224">
        <ele>772.0</ele>
        <time>2021-02-14T12:27:02Z</time>
      </trkpt>
      <trkpt lat="43.43224" lon="-5.5942283">
        <ele>772.0</ele>
        <time>2021-02-14T12:27:03Z</time>
      </trkpt>
      <trkpt lat="43.432247" lon="-5.5942297">
        <ele>772.0</ele>
        <time>2021-02-14T12:27:04Z</time>
      </trkpt>
      <trkpt lat="43.43226" lon="-5.5942273">
        <ele>772.0</ele>
        <time>2021-02-14T12:27:05Z</time>
      </trkpt>
      <trkpt lat="43.432274" lon="-5.5942216">
        <ele>772.0</ele>
        <time>2021-02-14T12:27:06Z</time>
      </trkpt>
      <trkpt lat="43.432285" lon="-5.594218">
        <ele>772.0</ele>
        <time>2021-02-14T12:27:07Z</time>
      </trkpt>
      <trkpt lat="43.432293" lon="-5.594213">
        <ele>772.0</ele>
        <time>2021-02-14T12:27:08Z</time>
      </trkpt>
      <trkpt lat="43.432304" lon="-5.59421">
        <ele>772.0</ele>
        <time>2021-02-14T12:27:09Z</time>
      </trkpt>
      <trkpt lat="43.432316" lon="-5.594208">
        <ele>772.0</ele>
        <time>2021-02-14T12:27:10Z</time>
      </trkpt>
      <trkpt lat="43.432323" lon="-5.594206">
        <ele>772.0</ele>
        <time>2021-02-14T12:27:11Z</time>
      </trkpt>
      <trkpt lat="43.432335" lon="-5.594206">
        <ele>772.0</ele>
        <time>2021-02-14T12:27:12Z</time>
      </trkpt>
      <trkpt lat="43.432346" lon="-5.594206">
        <ele>772.0</ele>
        <time>2021-02-14T12:27:13Z</time>
      </trkpt>
      <trkpt lat="43.43235" lon="-5.5942073">
        <ele>772.0</ele>
        <time>2021-02-14T12:27:14Z</time>
      </trkpt>
      <trkpt lat="43.43236" lon="-5.5942106">
        <ele>772.0</ele>
        <time>2021-02-14T12:27:15Z</time>
      </trkpt>
      <trkpt lat="43.432373" lon="-5.594215">
        <ele>772.0</ele>
        <time>2021-02-14T12:27:16Z</time>
      </trkpt>
      <trkpt lat="43.43238" lon="-5.5942197">
        <ele>772.0</ele>
        <time>2021-02-14T12:27:17Z</time>
      </trkpt>
      <trkpt lat="43.432392" lon="-5.594226">
        <ele>772.0</ele>
        <time>2021-02-14T12:27:18Z</time>
      </trkpt>
      <trkpt lat="43.432396" lon="-5.594231">
        <ele>772.0</ele>
        <time>2021-02-14T12:27:19Z</time>
      </trkpt>
      <trkpt lat="43.432404" lon="-5.5942364">
        <ele>772.0</ele>
        <time>2021-02-14T12:27:20Z</time>
      </trkpt>
      <trkpt lat="43.43242" lon="-5.594239">
        <ele>772.0</ele>
        <time>2021-02-14T12:27:22Z</time>
      </trkpt>
      <trkpt lat="43.432423" lon="-5.594237">
        <ele>772.0</ele>
        <time>2021-02-14T12:27:23Z</time>
      </trkpt>
      <trkpt lat="43.432426" lon="-5.5942316">
        <ele>772.0</ele>
        <time>2021-02-14T12:27:24Z</time>
      </trkpt>
      <trkpt lat="43.432434" lon="-5.594226">
        <ele>772.0</ele>
        <time>2021-02-14T12:27:25Z</time>
      </trkpt>
      <trkpt lat="43.432438" lon="-5.5942187">
        <ele>772.0</ele>
        <time>2021-02-14T12:27:26Z</time>
      </trkpt>
      <trkpt lat="43.432438" lon="-5.5942125">
        <ele>772.0</ele>
        <time>2021-02-14T12:27:27Z</time>
      </trkpt>
      <trkpt lat="43.43244" lon="-5.594207">
        <ele>772.0</ele>
        <time>2021-02-14T12:27:28Z</time>
      </trkpt>
      <trkpt lat="43.43245" lon="-5.594204">
        <ele>772.0</ele>
        <time>2021-02-14T12:27:29Z</time>
      </trkpt>
      <trkpt lat="43.432453" lon="-5.5942016">
        <ele>772.0</ele>
        <time>2021-02-14T12:27:30Z</time>
      </trkpt>
      <trkpt lat="43.432457" lon="-5.594199">
        <ele>772.0</ele>
        <time>2021-02-14T12:27:31Z</time>
      </trkpt>
      <trkpt lat="43.432465" lon="-5.5941978">
        <ele>772.0</ele>
        <time>2021-02-14T12:27:32Z</time>
      </trkpt>
      <trkpt lat="43.432484" lon="-5.5941963">
        <ele>772.0</ele>
        <time>2021-02-14T12:27:34Z</time>
      </trkpt>
      <trkpt lat="43.432484" lon="-5.5941973">
        <ele>772.0</ele>
        <time>2021-02-14T12:27:35Z</time>
      </trkpt>
      <trkpt lat="43.432487" lon="-5.594199">
        <ele>772.0</ele>
        <time>2021-02-14T12:27:36Z</time>
      </trkpt>
      <trkpt lat="43.4325" lon="-5.594203">
        <ele>772.0</ele>
        <time>2021-02-14T12:27:38Z</time>
      </trkpt>
      <trkpt lat="43.4325" lon="-5.594202">
        <ele>771.0</ele>
        <time>2021-02-14T12:27:39Z</time>
      </trkpt>
      <trkpt lat="43.432503" lon="-5.5941978">
        <ele>771.0</ele>
        <time>2021-02-14T12:27:45Z</time>
      </trkpt>
      <trkpt lat="43.4325" lon="-5.5941944">
        <ele>771.0</ele>
        <time>2021-02-14T12:27:47Z</time>
      </trkpt>
      <trkpt lat="43.432514" lon="-5.5941944">
        <ele>771.0</ele>
        <time>2021-02-14T12:28:05Z</time>
      </trkpt>
      <trkpt lat="43.432518" lon="-5.594194">
        <ele>771.0</ele>
        <time>2021-02-14T12:28:06Z</time>
      </trkpt>
      <trkpt lat="43.43253" lon="-5.5941916">
        <ele>771.0</ele>
        <time>2021-02-14T12:28:07Z</time>
      </trkpt>
      <trkpt lat="43.432545" lon="-5.5941896">
        <ele>771.0</ele>
        <time>2021-02-14T12:28:08Z</time>
      </trkpt>
      <trkpt lat="43.432556" lon="-5.594187">
        <ele>771.0</ele>
        <time>2021-02-14T12:28:09Z</time>
      </trkpt>
      <trkpt lat="43.43257" lon="-5.594186">
        <ele>771.0</ele>
        <time>2021-02-14T12:28:10Z</time>
      </trkpt>
      <trkpt lat="43.432587" lon="-5.5941834">
        <ele>771.0</ele>
        <time>2021-02-14T12:28:11Z</time>
      </trkpt>
      <trkpt lat="43.432602" lon="-5.5941815">
        <ele>771.0</ele>
        <time>2021-02-14T12:28:12Z</time>
      </trkpt>
      <trkpt lat="43.432617" lon="-5.5941806">
        <ele>771.0</ele>
        <time>2021-02-14T12:28:13Z</time>
      </trkpt>
      <trkpt lat="43.432636" lon="-5.5941806">
        <ele>771.0</ele>
        <time>2021-02-14T12:28:14Z</time>
      </trkpt>
      <trkpt lat="43.43265" lon="-5.594181">
        <ele>771.0</ele>
        <time>2021-02-14T12:28:15Z</time>
      </trkpt>
      <trkpt lat="43.432667" lon="-5.5941815">
        <ele>771.0</ele>
        <time>2021-02-14T12:28:16Z</time>
      </trkpt>
      <trkpt lat="43.432682" lon="-5.594183">
        <ele>771.0</ele>
        <time>2021-02-14T12:28:17Z</time>
      </trkpt>
      <trkpt lat="43.432693" lon="-5.5941834">
        <ele>771.0</ele>
        <time>2021-02-14T12:28:18Z</time>
      </trkpt>
      <trkpt lat="43.432705" lon="-5.594183">
        <ele>770.0</ele>
        <time>2021-02-14T12:28:19Z</time>
      </trkpt>
      <trkpt lat="43.432713" lon="-5.594183">
        <ele>770.0</ele>
        <time>2021-02-14T12:28:20Z</time>
      </trkpt>
      <trkpt lat="43.432728" lon="-5.5941825">
        <ele>770.0</ele>
        <time>2021-02-14T12:28:21Z</time>
      </trkpt>
      <trkpt lat="43.43274" lon="-5.5941796">
        <ele>770.0</ele>
        <time>2021-02-14T12:28:22Z</time>
      </trkpt>
      <trkpt lat="43.43275" lon="-5.5941753">
        <ele>770.0</ele>
        <time>2021-02-14T12:28:23Z</time>
      </trkpt>
      <trkpt lat="43.432762" lon="-5.59417">
        <ele>770.0</ele>
        <time>2021-02-14T12:28:24Z</time>
      </trkpt>
      <trkpt lat="43.43277" lon="-5.594166">
        <ele>770.0</ele>
        <time>2021-02-14T12:28:25Z</time>
      </trkpt>
      <trkpt lat="43.432785" lon="-5.594162">
        <ele>770.0</ele>
        <time>2021-02-14T12:28:26Z</time>
      </trkpt>
      <trkpt lat="43.432796" lon="-5.594159">
        <ele>770.0</ele>
        <time>2021-02-14T12:28:27Z</time>
      </trkpt>
      <trkpt lat="43.432808" lon="-5.594158">
        <ele>770.0</ele>
        <time>2021-02-14T12:28:28Z</time>
      </trkpt>
      <trkpt lat="43.432823" lon="-5.59416">
        <ele>770.0</ele>
        <time>2021-02-14T12:28:29Z</time>
      </trkpt>
      <trkpt lat="43.43283" lon="-5.594164">
        <ele>770.0</ele>
        <time>2021-02-14T12:28:30Z</time>
      </trkpt>
      <trkpt lat="43.432842" lon="-5.5941663">
        <ele>769.0</ele>
        <time>2021-02-14T12:28:31Z</time>
      </trkpt>
      <trkpt lat="43.432858" lon="-5.5941696">
        <ele>769.0</ele>
        <time>2021-02-14T12:28:32Z</time>
      </trkpt>
      <trkpt lat="43.43287" lon="-5.5941715">
        <ele>769.0</ele>
        <time>2021-02-14T12:28:33Z</time>
      </trkpt>
      <trkpt lat="43.432873" lon="-5.594172">
        <ele>769.0</ele>
        <time>2021-02-14T12:28:34Z</time>
      </trkpt>
      <trkpt lat="43.432884" lon="-5.594173">
        <ele>769.0</ele>
        <time>2021-02-14T12:28:35Z</time>
      </trkpt>
      <trkpt lat="43.43289" lon="-5.5941734">
        <ele>769.0</ele>
        <time>2021-02-14T12:28:36Z</time>
      </trkpt>
      <trkpt lat="43.432903" lon="-5.594172">
        <ele>769.0</ele>
        <time>2021-02-14T12:28:37Z</time>
      </trkpt>
      <trkpt lat="43.432915" lon="-5.594171">
        <ele>768.0</ele>
        <time>2021-02-14T12:28:38Z</time>
      </trkpt>
      <trkpt lat="43.432922" lon="-5.5941696">
        <ele>768.0</ele>
        <time>2021-02-14T12:28:39Z</time>
      </trkpt>
      <trkpt lat="43.432934" lon="-5.594166">
        <ele>768.0</ele>
        <time>2021-02-14T12:28:40Z</time>
      </trkpt>
      <trkpt lat="43.432945" lon="-5.5941644">
        <ele>768.0</ele>
        <time>2021-02-14T12:28:41Z</time>
      </trkpt>
      <trkpt lat="43.43296" lon="-5.5941625">
        <ele>768.0</ele>
        <time>2021-02-14T12:28:42Z</time>
      </trkpt>
      <trkpt lat="43.432976" lon="-5.594162">
        <ele>768.0</ele>
        <time>2021-02-14T12:28:43Z</time>
      </trkpt>
      <trkpt lat="43.432987" lon="-5.5941625">
        <ele>768.0</ele>
        <time>2021-02-14T12:28:44Z</time>
      </trkpt>
      <trkpt lat="43.432995" lon="-5.5941634">
        <ele>768.0</ele>
        <time>2021-02-14T12:28:45Z</time>
      </trkpt>
      <trkpt lat="43.43301" lon="-5.5941644">
        <ele>768.0</ele>
        <time>2021-02-14T12:28:46Z</time>
      </trkpt>
      <trkpt lat="43.43302" lon="-5.594162">
        <ele>768.0</ele>
        <time>2021-02-14T12:28:47Z</time>
      </trkpt>
      <trkpt lat="43.433037" lon="-5.59416">
        <ele>767.0</ele>
        <time>2021-02-14T12:28:48Z</time>
      </trkpt>
      <trkpt lat="43.43305" lon="-5.59416">
        <ele>767.0</ele>
        <time>2021-02-14T12:28:49Z</time>
      </trkpt>
      <trkpt lat="43.433056" lon="-5.594159">
        <ele>767.0</ele>
        <time>2021-02-14T12:28:50Z</time>
      </trkpt>
      <trkpt lat="43.433064" lon="-5.594158">
        <ele>767.0</ele>
        <time>2021-02-14T12:28:51Z</time>
      </trkpt>
      <trkpt lat="43.43307" lon="-5.5941567">
        <ele>767.0</ele>
        <time>2021-02-14T12:28:52Z</time>
      </trkpt>
      <trkpt lat="43.433083" lon="-5.594155">
        <ele>767.0</ele>
        <time>2021-02-14T12:28:53Z</time>
      </trkpt>
      <trkpt lat="43.433094" lon="-5.5941496">
        <ele>767.0</ele>
        <time>2021-02-14T12:28:54Z</time>
      </trkpt>
      <trkpt lat="43.4331" lon="-5.594146">
        <ele>767.0</ele>
        <time>2021-02-14T12:28:55Z</time>
      </trkpt>
      <trkpt lat="43.43311" lon="-5.594143">
        <ele>767.0</ele>
        <time>2021-02-14T12:28:56Z</time>
      </trkpt>
      <trkpt lat="43.433117" lon="-5.594139">
        <ele>767.0</ele>
        <time>2021-02-14T12:28:57Z</time>
      </trkpt>
      <trkpt lat="43.43313" lon="-5.5941358">
        <ele>767.0</ele>
        <time>2021-02-14T12:28:58Z</time>
      </trkpt>
      <trkpt lat="43.433136" lon="-5.5941343">
        <ele>767.0</ele>
        <time>2021-02-14T12:28:59Z</time>
      </trkpt>
      <trkpt lat="43.433144" lon="-5.594134">
        <ele>767.0</ele>
        <time>2021-02-14T12:29:00Z</time>
      </trkpt>
      <trkpt lat="43.433155" lon="-5.594132">
        <ele>767.0</ele>
        <time>2021-02-14T12:29:01Z</time>
      </trkpt>
      <trkpt lat="43.433167" lon="-5.594132">
        <ele>767.0</ele>
        <time>2021-02-14T12:29:02Z</time>
      </trkpt>
      <trkpt lat="43.433174" lon="-5.5941324">
        <ele>767.0</ele>
        <time>2021-02-14T12:29:03Z</time>
      </trkpt>
      <trkpt lat="43.43319" lon="-5.594134">
        <ele>767.0</ele>
        <time>2021-02-14T12:29:04Z</time>
      </trkpt>
      <trkpt lat="43.433197" lon="-5.594135">
        <ele>767.0</ele>
        <time>2021-02-14T12:29:05Z</time>
      </trkpt>
      <trkpt lat="43.433205" lon="-5.594137">
        <ele>766.0</ele>
        <time>2021-02-14T12:29:06Z</time>
      </trkpt>
      <trkpt lat="43.433216" lon="-5.59414">
        <ele>766.0</ele>
        <time>2021-02-14T12:29:07Z</time>
      </trkpt>
      <trkpt lat="43.433228" lon="-5.5941453">
        <ele>766.0</ele>
        <time>2021-02-14T12:29:08Z</time>
      </trkpt>
      <trkpt lat="43.433235" lon="-5.5941515">
        <ele>766.0</ele>
        <time>2021-02-14T12:29:09Z</time>
      </trkpt>
      <trkpt lat="43.43325" lon="-5.5941544">
        <ele>766.0</ele>
        <time>2021-02-14T12:29:10Z</time>
      </trkpt>
      <trkpt lat="43.433266" lon="-5.5941563">
        <ele>766.0</ele>
        <time>2021-02-14T12:29:11Z</time>
      </trkpt>
      <trkpt lat="43.43328" lon="-5.5941586">
        <ele>766.0</ele>
        <time>2021-02-14T12:29:12Z</time>
      </trkpt>
      <trkpt lat="43.433296" lon="-5.5941615">
        <ele>766.0</ele>
        <time>2021-02-14T12:29:13Z</time>
      </trkpt>
      <trkpt lat="43.43331" lon="-5.594164">
        <ele>766.0</ele>
        <time>2021-02-14T12:29:14Z</time>
      </trkpt>
      <trkpt lat="43.433323" lon="-5.594168">
        <ele>766.0</ele>
        <time>2021-02-14T12:29:15Z</time>
      </trkpt>
      <trkpt lat="43.43334" lon="-5.594173">
        <ele>766.0</ele>
        <time>2021-02-14T12:29:16Z</time>
      </trkpt>
      <trkpt lat="43.433353" lon="-5.5941777">
        <ele>766.0</ele>
        <time>2021-02-14T12:29:17Z</time>
      </trkpt>
      <trkpt lat="43.43337" lon="-5.5941815">
        <ele>766.0</ele>
        <time>2021-02-14T12:29:18Z</time>
      </trkpt>
      <trkpt lat="43.43338" lon="-5.5941844">
        <ele>766.0</ele>
        <time>2021-02-14T12:29:19Z</time>
      </trkpt>
      <trkpt lat="43.43339" lon="-5.594187">
        <ele>765.0</ele>
        <time>2021-02-14T12:29:20Z</time>
      </trkpt>
      <trkpt lat="43.4334" lon="-5.5941906">
        <ele>765.0</ele>
        <time>2021-02-14T12:29:21Z</time>
      </trkpt>
      <trkpt lat="43.43341" lon="-5.594194">
        <ele>765.0</ele>
        <time>2021-02-14T12:29:22Z</time>
      </trkpt>
      <trkpt lat="43.433422" lon="-5.594196">
        <ele>765.0</ele>
        <time>2021-02-14T12:29:23Z</time>
      </trkpt>
      <trkpt lat="43.43343" lon="-5.5941973">
        <ele>765.0</ele>
        <time>2021-02-14T12:29:24Z</time>
      </trkpt>
      <trkpt lat="43.43344" lon="-5.5941978">
        <ele>765.0</ele>
        <time>2021-02-14T12:29:25Z</time>
      </trkpt>
      <trkpt lat="43.433456" lon="-5.594199">
        <ele>765.0</ele>
        <time>2021-02-14T12:29:26Z</time>
      </trkpt>
      <trkpt lat="43.433468" lon="-5.5941997">
        <ele>765.0</ele>
        <time>2021-02-14T12:29:27Z</time>
      </trkpt>
      <trkpt lat="43.433475" lon="-5.5942016">
        <ele>765.0</ele>
        <time>2021-02-14T12:29:28Z</time>
      </trkpt>
      <trkpt lat="43.433487" lon="-5.594203">
        <ele>765.0</ele>
        <time>2021-02-14T12:29:29Z</time>
      </trkpt>
      <trkpt lat="43.4335" lon="-5.594205">
        <ele>765.0</ele>
        <time>2021-02-14T12:29:30Z</time>
      </trkpt>
      <trkpt lat="43.433506" lon="-5.594209">
        <ele>765.0</ele>
        <time>2021-02-14T12:29:31Z</time>
      </trkpt>
      <trkpt lat="43.433514" lon="-5.594213">
        <ele>765.0</ele>
        <time>2021-02-14T12:29:32Z</time>
      </trkpt>
      <trkpt lat="43.433517" lon="-5.594218">
        <ele>765.0</ele>
        <time>2021-02-14T12:29:33Z</time>
      </trkpt>
      <trkpt lat="43.433525" lon="-5.5942225">
        <ele>765.0</ele>
        <time>2021-02-14T12:29:34Z</time>
      </trkpt>
      <trkpt lat="43.43353" lon="-5.594228">
        <ele>765.0</ele>
        <time>2021-02-14T12:29:35Z</time>
      </trkpt>
      <trkpt lat="43.433533" lon="-5.5942316">
        <ele>765.0</ele>
        <time>2021-02-14T12:29:36Z</time>
      </trkpt>
      <trkpt lat="43.43354" lon="-5.5942345">
        <ele>765.0</ele>
        <time>2021-02-14T12:29:37Z</time>
      </trkpt>
      <trkpt lat="43.433548" lon="-5.5942354">
        <ele>765.0</ele>
        <time>2021-02-14T12:29:38Z</time>
      </trkpt>
      <trkpt lat="43.43356" lon="-5.5942373">
        <ele>765.0</ele>
        <time>2021-02-14T12:29:39Z</time>
      </trkpt>
      <trkpt lat="43.43357" lon="-5.5942407">
        <ele>765.0</ele>
        <time>2021-02-14T12:29:40Z</time>
      </trkpt>
      <trkpt lat="43.43358" lon="-5.594243">
        <ele>765.0</ele>
        <time>2021-02-14T12:29:41Z</time>
      </trkpt>
      <trkpt lat="43.43359" lon="-5.5942445">
        <ele>765.0</ele>
        <time>2021-02-14T12:29:42Z</time>
      </trkpt>
      <trkpt lat="43.4336" lon="-5.594245">
        <ele>765.0</ele>
        <time>2021-02-14T12:29:43Z</time>
      </trkpt>
      <trkpt lat="43.43361" lon="-5.594245">
        <ele>765.0</ele>
        <time>2021-02-14T12:29:44Z</time>
      </trkpt>
      <trkpt lat="43.43362" lon="-5.594246">
        <ele>765.0</ele>
        <time>2021-02-14T12:29:45Z</time>
      </trkpt>
      <trkpt lat="43.43363" lon="-5.5942464">
        <ele>765.0</ele>
        <time>2021-02-14T12:29:46Z</time>
      </trkpt>
      <trkpt lat="43.43364" lon="-5.5942483">
        <ele>765.0</ele>
        <time>2021-02-14T12:29:47Z</time>
      </trkpt>
      <trkpt lat="43.433647" lon="-5.5942507">
        <ele>765.0</ele>
        <time>2021-02-14T12:29:48Z</time>
      </trkpt>
      <trkpt lat="43.433655" lon="-5.594254">
        <ele>765.0</ele>
        <time>2021-02-14T12:29:49Z</time>
      </trkpt>
      <trkpt lat="43.433662" lon="-5.594259">
        <ele>765.0</ele>
        <time>2021-02-14T12:29:50Z</time>
      </trkpt>
      <trkpt lat="43.433666" lon="-5.5942626">
        <ele>765.0</ele>
        <time>2021-02-14T12:29:51Z</time>
      </trkpt>
      <trkpt lat="43.433678" lon="-5.5942655">
        <ele>765.0</ele>
        <time>2021-02-14T12:29:52Z</time>
      </trkpt>
      <trkpt lat="43.43368" lon="-5.594269">
        <ele>765.0</ele>
        <time>2021-02-14T12:29:53Z</time>
      </trkpt>
      <trkpt lat="43.433693" lon="-5.5942707">
        <ele>765.0</ele>
        <time>2021-02-14T12:29:54Z</time>
      </trkpt>
      <trkpt lat="43.433697" lon="-5.594274">
        <ele>765.0</ele>
        <time>2021-02-14T12:29:55Z</time>
      </trkpt>
      <trkpt lat="43.433712" lon="-5.594279">
        <ele>765.0</ele>
        <time>2021-02-14T12:29:56Z</time>
      </trkpt>
      <trkpt lat="43.433723" lon="-5.594281">
        <ele>765.0</ele>
        <time>2021-02-14T12:29:57Z</time>
      </trkpt>
      <trkpt lat="43.433735" lon="-5.594286">
        <ele>765.0</ele>
        <time>2021-02-14T12:29:58Z</time>
      </trkpt>
      <trkpt lat="43.433743" lon="-5.5942926">
        <ele>765.0</ele>
        <time>2021-02-14T12:29:59Z</time>
      </trkpt>
      <trkpt lat="43.433754" lon="-5.5942974">
        <ele>765.0</ele>
        <time>2021-02-14T12:30:00Z</time>
      </trkpt>
      <trkpt lat="43.433765" lon="-5.5942993">
        <ele>765.0</ele>
        <time>2021-02-14T12:30:01Z</time>
      </trkpt>
      <trkpt lat="43.433773" lon="-5.594303">
        <ele>765.0</ele>
        <time>2021-02-14T12:30:02Z</time>
      </trkpt>
      <trkpt lat="43.433784" lon="-5.5943074">
        <ele>765.0</ele>
        <time>2021-02-14T12:30:03Z</time>
      </trkpt>
      <trkpt lat="43.433796" lon="-5.5943117">
        <ele>765.0</ele>
        <time>2021-02-14T12:30:04Z</time>
      </trkpt>
      <trkpt lat="43.43381" lon="-5.594314">
        <ele>765.0</ele>
        <time>2021-02-14T12:30:05Z</time>
      </trkpt>
      <trkpt lat="43.433815" lon="-5.5943174">
        <ele>765.0</ele>
        <time>2021-02-14T12:30:06Z</time>
      </trkpt>
      <trkpt lat="43.433826" lon="-5.59432">
        <ele>765.0</ele>
        <time>2021-02-14T12:30:07Z</time>
      </trkpt>
      <trkpt lat="43.433834" lon="-5.5943236">
        <ele>765.0</ele>
        <time>2021-02-14T12:30:08Z</time>
      </trkpt>
      <trkpt lat="43.43384" lon="-5.59433">
        <ele>765.0</ele>
        <time>2021-02-14T12:30:09Z</time>
      </trkpt>
      <trkpt lat="43.43385" lon="-5.5943356">
        <ele>765.0</ele>
        <time>2021-02-14T12:30:10Z</time>
      </trkpt>
      <trkpt lat="43.433857" lon="-5.5943403">
        <ele>765.0</ele>
        <time>2021-02-14T12:30:11Z</time>
      </trkpt>
      <trkpt lat="43.43386" lon="-5.5943475">
        <ele>765.0</ele>
        <time>2021-02-14T12:30:12Z</time>
      </trkpt>
      <trkpt lat="43.433865" lon="-5.594355">
        <ele>765.0</ele>
        <time>2021-02-14T12:30:13Z</time>
      </trkpt>
      <trkpt lat="43.433876" lon="-5.5943627">
        <ele>765.0</ele>
        <time>2021-02-14T12:30:14Z</time>
      </trkpt>
      <trkpt lat="43.43388" lon="-5.5943685">
        <ele>765.0</ele>
        <time>2021-02-14T12:30:15Z</time>
      </trkpt>
      <trkpt lat="43.43389" lon="-5.594373">
        <ele>765.0</ele>
        <time>2021-02-14T12:30:16Z</time>
      </trkpt>
      <trkpt lat="43.433903" lon="-5.5943804">
        <ele>765.0</ele>
        <time>2021-02-14T12:30:17Z</time>
      </trkpt>
      <trkpt lat="43.433914" lon="-5.5943885">
        <ele>765.0</ele>
        <time>2021-02-14T12:30:18Z</time>
      </trkpt>
      <trkpt lat="43.43392" lon="-5.5943947">
        <ele>765.0</ele>
        <time>2021-02-14T12:30:19Z</time>
      </trkpt>
      <trkpt lat="43.433937" lon="-5.5943985">
        <ele>765.0</ele>
        <time>2021-02-14T12:30:20Z</time>
      </trkpt>
      <trkpt lat="43.43395" lon="-5.594402">
        <ele>763.0</ele>
        <time>2021-02-14T12:30:21Z</time>
      </trkpt>
      <trkpt lat="43.43396" lon="-5.5944057">
        <ele>763.0</ele>
        <time>2021-02-14T12:30:22Z</time>
      </trkpt>
      <trkpt lat="43.433968" lon="-5.5944104">
        <ele>763.0</ele>
        <time>2021-02-14T12:30:23Z</time>
      </trkpt>
      <trkpt lat="43.433975" lon="-5.594415">
        <ele>763.0</ele>
        <time>2021-02-14T12:30:24Z</time>
      </trkpt>
      <trkpt lat="43.43398" lon="-5.59442">
        <ele>763.0</ele>
        <time>2021-02-14T12:30:24Z</time>
      </trkpt>
      <trkpt lat="43.43399" lon="-5.594424">
        <ele>763.0</ele>
        <time>2021-02-14T12:30:25Z</time>
      </trkpt>
      <trkpt lat="43.433994" lon="-5.5944257">
        <ele>763.0</ele>
        <time>2021-02-14T12:30:26Z</time>
      </trkpt>
      <trkpt lat="43.434" lon="-5.594426">
        <ele>763.0</ele>
        <time>2021-02-14T12:30:27Z</time>
      </trkpt>
      <trkpt lat="43.434" lon="-5.594426">
        <ele>763.0</ele>
        <time>2021-02-14T12:30:28Z</time>
      </trkpt>
      <trkpt lat="43.434006" lon="-5.5944247">
        <ele>763.0</ele>
        <time>2021-02-14T12:30:29Z</time>
      </trkpt>
      <trkpt lat="43.434006" lon="-5.594423">
        <ele>763.0</ele>
        <time>2021-02-14T12:30:30Z</time>
      </trkpt>
      <trkpt lat="43.434013" lon="-5.594418">
        <ele>763.0</ele>
        <time>2021-02-14T12:30:34Z</time>
      </trkpt>
      <trkpt lat="43.434013" lon="-5.594411">
        <ele>763.0</ele>
        <time>2021-02-14T12:30:37Z</time>
      </trkpt>
      <trkpt lat="43.434013" lon="-5.5944114">
        <ele>763.0</ele>
        <time>2021-02-14T12:30:38Z</time>
      </trkpt>
      <trkpt lat="43.43402" lon="-5.594413">
        <ele>763.0</ele>
        <time>2021-02-14T12:30:40Z</time>
      </trkpt>
      <trkpt lat="43.43402" lon="-5.594413">
        <ele>763.0</ele>
        <time>2021-02-14T12:30:41Z</time>
      </trkpt>
      <trkpt lat="43.434025" lon="-5.594418">
        <ele>763.0</ele>
        <time>2021-02-14T12:30:43Z</time>
      </trkpt>
      <trkpt lat="43.434025" lon="-5.594418">
        <ele>763.0</ele>
        <time>2021-02-14T12:30:49Z</time>
      </trkpt>
      <trkpt lat="43.434025" lon="-5.594421">
        <ele>763.0</ele>
        <time>2021-02-14T12:30:53Z</time>
      </trkpt>
      <trkpt lat="43.434025" lon="-5.594421">
        <ele>763.0</ele>
        <time>2021-02-14T12:30:54Z</time>
      </trkpt>
      <trkpt lat="43.434025" lon="-5.594421">
        <ele>763.0</ele>
        <time>2021-02-14T12:30:55Z</time>
      </trkpt>
      <trkpt lat="43.434025" lon="-5.5944204">
        <ele>763.0</ele>
        <time>2021-02-14T12:30:56Z</time>
      </trkpt>
      <trkpt lat="43.43402" lon="-5.594418">
        <ele>763.0</ele>
        <time>2021-02-14T12:30:58Z</time>
      </trkpt>
      <trkpt lat="43.43402" lon="-5.5944166">
        <ele>763.0</ele>
        <time>2021-02-14T12:30:59Z</time>
      </trkpt>
      <trkpt lat="43.434025" lon="-5.594415">
        <ele>763.0</ele>
        <time>2021-02-14T12:31:00Z</time>
      </trkpt>
      <trkpt lat="43.434025" lon="-5.594411">
        <ele>763.0</ele>
        <time>2021-02-14T12:31:02Z</time>
      </trkpt>
      <trkpt lat="43.43403" lon="-5.5944114">
        <ele>763.0</ele>
        <time>2021-02-14T12:31:03Z</time>
      </trkpt>
      <trkpt lat="43.43403" lon="-5.5944133">
        <ele>763.0</ele>
        <time>2021-02-14T12:31:04Z</time>
      </trkpt>
      <trkpt lat="43.43403" lon="-5.594421">
        <ele>763.0</ele>
        <time>2021-02-14T12:31:07Z</time>
      </trkpt>
      <trkpt lat="43.43403" lon="-5.594421">
        <ele>763.0</ele>
        <time>2021-02-14T12:31:08Z</time>
      </trkpt>
      <trkpt lat="43.434025" lon="-5.594416">
        <ele>763.0</ele>
        <time>2021-02-14T12:31:26Z</time>
      </trkpt>
      <trkpt lat="43.434025" lon="-5.594414">
        <ele>763.0</ele>
        <time>2021-02-14T12:31:28Z</time>
      </trkpt>
      <trkpt lat="43.434025" lon="-5.5944057">
        <ele>763.0</ele>
        <time>2021-02-14T12:31:31Z</time>
      </trkpt>
      <trkpt lat="43.434025" lon="-5.5944057">
        <ele>763.0</ele>
        <time>2021-02-14T12:31:35Z</time>
      </trkpt>
      <trkpt lat="43.43403" lon="-5.594405">
        <ele>763.0</ele>
        <time>2021-02-14T12:31:36Z</time>
      </trkpt>
      <trkpt lat="43.43404" lon="-5.594407">
        <ele>763.0</ele>
        <time>2021-02-14T12:31:37Z</time>
      </trkpt>
      <trkpt lat="43.434044" lon="-5.5944095">
        <ele>763.0</ele>
        <time>2021-02-14T12:31:38Z</time>
      </trkpt>
      <trkpt lat="43.434055" lon="-5.5944133">
        <ele>763.0</ele>
        <time>2021-02-14T12:31:39Z</time>
      </trkpt>
      <trkpt lat="43.434067" lon="-5.5944185">
        <ele>763.0</ele>
        <time>2021-02-14T12:31:40Z</time>
      </trkpt>
      <trkpt lat="43.434082" lon="-5.594426">
        <ele>763.0</ele>
        <time>2021-02-14T12:31:41Z</time>
      </trkpt>
      <trkpt lat="43.43409" lon="-5.594434">
        <ele>763.0</ele>
        <time>2021-02-14T12:31:42Z</time>
      </trkpt>
      <trkpt lat="43.4341" lon="-5.5944433">
        <ele>763.0</ele>
        <time>2021-02-14T12:31:43Z</time>
      </trkpt>
      <trkpt lat="43.43411" lon="-5.5944524">
        <ele>763.0</ele>
        <time>2021-02-14T12:31:44Z</time>
      </trkpt>
      <trkpt lat="43.434116" lon="-5.594461">
        <ele>763.0</ele>
        <time>2021-02-14T12:31:45Z</time>
      </trkpt>
      <trkpt lat="43.434124" lon="-5.5944695">
        <ele>763.0</ele>
        <time>2021-02-14T12:31:46Z</time>
      </trkpt>
      <trkpt lat="43.434124" lon="-5.5944796">
        <ele>763.0</ele>
        <time>2021-02-14T12:31:47Z</time>
      </trkpt>
      <trkpt lat="43.434128" lon="-5.5944877">
        <ele>763.0</ele>
        <time>2021-02-14T12:31:48Z</time>
      </trkpt>
      <trkpt lat="43.43413" lon="-5.594493">
        <ele>763.0</ele>
        <time>2021-02-14T12:31:49Z</time>
      </trkpt>
      <trkpt lat="43.43414" lon="-5.5944967">
        <ele>763.0</ele>
        <time>2021-02-14T12:31:50Z</time>
      </trkpt>
      <trkpt lat="43.43414" lon="-5.5945">
        <ele>763.0</ele>
        <time>2021-02-14T12:31:51Z</time>
      </trkpt>
      <trkpt lat="43.434143" lon="-5.594502">
        <ele>763.0</ele>
        <time>2021-02-14T12:31:52Z</time>
      </trkpt>
      <trkpt lat="43.434147" lon="-5.594504">
        <ele>763.0</ele>
        <time>2021-02-14T12:31:53Z</time>
      </trkpt>
      <trkpt lat="43.434155" lon="-5.594505">
        <ele>763.0</ele>
        <time>2021-02-14T12:31:54Z</time>
      </trkpt>
      <trkpt lat="43.43416" lon="-5.594506">
        <ele>763.0</ele>
        <time>2021-02-14T12:31:55Z</time>
      </trkpt>
      <trkpt lat="43.434162" lon="-5.5945067">
        <ele>763.0</ele>
        <time>2021-02-14T12:31:56Z</time>
      </trkpt>
      <trkpt lat="43.43417" lon="-5.5945067">
        <ele>763.0</ele>
        <time>2021-02-14T12:31:57Z</time>
      </trkpt>
      <trkpt lat="43.434174" lon="-5.594508">
        <ele>763.0</ele>
        <time>2021-02-14T12:31:58Z</time>
      </trkpt>
      <trkpt lat="43.434185" lon="-5.5945106">
        <ele>763.0</ele>
        <time>2021-02-14T12:31:59Z</time>
      </trkpt>
      <trkpt lat="43.43419" lon="-5.594514">
        <ele>763.0</ele>
        <time>2021-02-14T12:32:00Z</time>
      </trkpt>
      <trkpt lat="43.4342" lon="-5.594517">
        <ele>763.0</ele>
        <time>2021-02-14T12:32:01Z</time>
      </trkpt>
      <trkpt lat="43.434204" lon="-5.59452">
        <ele>763.0</ele>
        <time>2021-02-14T12:32:02Z</time>
      </trkpt>
      <trkpt lat="43.434208" lon="-5.5945234">
        <ele>763.0</ele>
        <time>2021-02-14T12:32:03Z</time>
      </trkpt>
      <trkpt lat="43.43422" lon="-5.5945253">
        <ele>763.0</ele>
        <time>2021-02-14T12:32:04Z</time>
      </trkpt>
      <trkpt lat="43.434223" lon="-5.5945287">
        <ele>763.0</ele>
        <time>2021-02-14T12:32:05Z</time>
      </trkpt>
      <trkpt lat="43.43423" lon="-5.594533">
        <ele>763.0</ele>
        <time>2021-02-14T12:32:06Z</time>
      </trkpt>
      <trkpt lat="43.434235" lon="-5.5945363">
        <ele>763.0</ele>
        <time>2021-02-14T12:32:07Z</time>
      </trkpt>
      <trkpt lat="43.43426" lon="-5.594549">
        <ele>763.0</ele>
        <time>2021-02-14T12:32:09Z</time>
      </trkpt>
      <trkpt lat="43.434265" lon="-5.5945506">
        <ele>763.0</ele>
        <time>2021-02-14T12:32:10Z</time>
      </trkpt>
      <trkpt lat="43.43427" lon="-5.594555">
        <ele>763.0</ele>
        <time>2021-02-14T12:32:11Z</time>
      </trkpt>
      <trkpt lat="43.434277" lon="-5.594559">
        <ele>763.0</ele>
        <time>2021-02-14T12:32:12Z</time>
      </trkpt>
      <trkpt lat="43.43428" lon="-5.5945644">
        <ele>763.0</ele>
        <time>2021-02-14T12:32:13Z</time>
      </trkpt>
      <trkpt lat="43.434284" lon="-5.5945687">
        <ele>763.0</ele>
        <time>2021-02-14T12:32:14Z</time>
      </trkpt>
      <trkpt lat="43.434296" lon="-5.594574">
        <ele>763.0</ele>
        <time>2021-02-14T12:32:15Z</time>
      </trkpt>
      <trkpt lat="43.434303" lon="-5.594579">
        <ele>763.0</ele>
        <time>2021-02-14T12:32:16Z</time>
      </trkpt>
      <trkpt lat="43.43431" lon="-5.5945826">
        <ele>763.0</ele>
        <time>2021-02-14T12:32:17Z</time>
      </trkpt>
      <trkpt lat="43.43432" lon="-5.594585">
        <ele>763.0</ele>
        <time>2021-02-14T12:32:18Z</time>
      </trkpt>
      <trkpt lat="43.434322" lon="-5.5945873">
        <ele>763.0</ele>
        <time>2021-02-14T12:32:19Z</time>
      </trkpt>
      <trkpt lat="43.434334" lon="-5.5945907">
        <ele>763.0</ele>
        <time>2021-02-14T12:32:20Z</time>
      </trkpt>
      <trkpt lat="43.434338" lon="-5.5945945">
        <ele>763.0</ele>
        <time>2021-02-14T12:32:21Z</time>
      </trkpt>
      <trkpt lat="43.43434" lon="-5.594598">
        <ele>763.0</ele>
        <time>2021-02-14T12:32:22Z</time>
      </trkpt>
      <trkpt lat="43.434353" lon="-5.594601">
        <ele>763.0</ele>
        <time>2021-02-14T12:32:23Z</time>
      </trkpt>
      <trkpt lat="43.434357" lon="-5.594606">
        <ele>763.0</ele>
        <time>2021-02-14T12:32:24Z</time>
      </trkpt>
      <trkpt lat="43.434364" lon="-5.5946116">
        <ele>763.0</ele>
        <time>2021-02-14T12:32:25Z</time>
      </trkpt>
      <trkpt lat="43.43437" lon="-5.5946183">
        <ele>763.0</ele>
        <time>2021-02-14T12:32:26Z</time>
      </trkpt>
      <trkpt lat="43.434372" lon="-5.5946245">
        <ele>763.0</ele>
        <time>2021-02-14T12:32:27Z</time>
      </trkpt>
      <trkpt lat="43.43438" lon="-5.59463">
        <ele>763.0</ele>
        <time>2021-02-14T12:32:28Z</time>
      </trkpt>
      <trkpt lat="43.434383" lon="-5.594635">
        <ele>763.0</ele>
        <time>2021-02-14T12:32:29Z</time>
      </trkpt>
      <trkpt lat="43.434383" lon="-5.59464">
        <ele>763.0</ele>
        <time>2021-02-14T12:32:30Z</time>
      </trkpt>
      <trkpt lat="43.434387" lon="-5.594643">
        <ele>763.0</ele>
        <time>2021-02-14T12:32:31Z</time>
      </trkpt>
      <trkpt lat="43.434387" lon="-5.594648">
        <ele>763.0</ele>
        <time>2021-02-14T12:32:32Z</time>
      </trkpt>
      <trkpt lat="43.434387" lon="-5.5946507">
        <ele>763.0</ele>
        <time>2021-02-14T12:32:33Z</time>
      </trkpt>
      <trkpt lat="43.434395" lon="-5.5946536">
        <ele>763.0</ele>
        <time>2021-02-14T12:32:34Z</time>
      </trkpt>
      <trkpt lat="43.4344" lon="-5.5946536">
        <ele>763.0</ele>
        <time>2021-02-14T12:32:35Z</time>
      </trkpt>
      <trkpt lat="43.4344" lon="-5.5946536">
        <ele>763.0</ele>
        <time>2021-02-14T12:32:36Z</time>
      </trkpt>
      <trkpt lat="43.434402" lon="-5.594652">
        <ele>763.0</ele>
        <time>2021-02-14T12:32:37Z</time>
      </trkpt>
      <trkpt lat="43.43441" lon="-5.5946507">
        <ele>763.0</ele>
        <time>2021-02-14T12:32:38Z</time>
      </trkpt>
      <trkpt lat="43.43441" lon="-5.59465">
        <ele>763.0</ele>
        <time>2021-02-14T12:32:39Z</time>
      </trkpt>
      <trkpt lat="43.434418" lon="-5.5946507">
        <ele>763.0</ele>
        <time>2021-02-14T12:32:46Z</time>
      </trkpt>
      <trkpt lat="43.434418" lon="-5.5946527">
        <ele>763.0</ele>
        <time>2021-02-14T12:32:47Z</time>
      </trkpt>
      <trkpt lat="43.434425" lon="-5.5946565">
        <ele>763.0</ele>
        <time>2021-02-14T12:32:48Z</time>
      </trkpt>
      <trkpt lat="43.43443" lon="-5.594662">
        <ele>763.0</ele>
        <time>2021-02-14T12:32:49Z</time>
      </trkpt>
      <trkpt lat="43.43444" lon="-5.5946703">
        <ele>763.0</ele>
        <time>2021-02-14T12:32:50Z</time>
      </trkpt>
      <trkpt lat="43.43445" lon="-5.594679">
        <ele>763.0</ele>
        <time>2021-02-14T12:32:51Z</time>
      </trkpt>
      <trkpt lat="43.43446" lon="-5.594688">
        <ele>763.0</ele>
        <time>2021-02-14T12:32:52Z</time>
      </trkpt>
      <trkpt lat="43.43447" lon="-5.5946984">
        <ele>763.0</ele>
        <time>2021-02-14T12:32:53Z</time>
      </trkpt>
      <trkpt lat="43.43448" lon="-5.594708">
        <ele>763.0</ele>
        <time>2021-02-14T12:32:54Z</time>
      </trkpt>
      <trkpt lat="43.434486" lon="-5.594717">
        <ele>763.0</ele>
        <time>2021-02-14T12:32:55Z</time>
      </trkpt>
      <trkpt lat="43.434498" lon="-5.5947237">
        <ele>763.0</ele>
        <time>2021-02-14T12:32:56Z</time>
      </trkpt>
      <trkpt lat="43.4345" lon="-5.594731">
        <ele>763.0</ele>
        <time>2021-02-14T12:32:57Z</time>
      </trkpt>
      <trkpt lat="43.434505" lon="-5.594737">
        <ele>763.0</ele>
        <time>2021-02-14T12:32:58Z</time>
      </trkpt>
      <trkpt lat="43.434513" lon="-5.5947456">
        <ele>763.0</ele>
        <time>2021-02-14T12:32:59Z</time>
      </trkpt>
      <trkpt lat="43.434517" lon="-5.594753">
        <ele>763.0</ele>
        <time>2021-02-14T12:33:00Z</time>
      </trkpt>
      <trkpt lat="43.43452" lon="-5.594759">
        <ele>763.0</ele>
        <time>2021-02-14T12:33:01Z</time>
      </trkpt>
      <trkpt lat="43.43453" lon="-5.594764">
        <ele>763.0</ele>
        <time>2021-02-14T12:33:02Z</time>
      </trkpt>
      <trkpt lat="43.434532" lon="-5.594768">
        <ele>763.0</ele>
        <time>2021-02-14T12:33:03Z</time>
      </trkpt>
      <trkpt lat="43.434536" lon="-5.594772">
        <ele>763.0</ele>
        <time>2021-02-14T12:33:04Z</time>
      </trkpt>
      <trkpt lat="43.434547" lon="-5.594775">
        <ele>763.0</ele>
        <time>2021-02-14T12:33:05Z</time>
      </trkpt>
      <trkpt lat="43.43455" lon="-5.594778">
        <ele>762.0</ele>
        <time>2021-02-14T12:33:06Z</time>
      </trkpt>
      <trkpt lat="43.434563" lon="-5.594782">
        <ele>762.0</ele>
        <time>2021-02-14T12:33:07Z</time>
      </trkpt>
      <trkpt lat="43.434574" lon="-5.5947857">
        <ele>762.0</ele>
        <time>2021-02-14T12:33:08Z</time>
      </trkpt>
      <trkpt lat="43.43458" lon="-5.5947886">
        <ele>762.0</ele>
        <time>2021-02-14T12:33:09Z</time>
      </trkpt>
      <trkpt lat="43.434593" lon="-5.594791">
        <ele>762.0</ele>
        <time>2021-02-14T12:33:10Z</time>
      </trkpt>
      <trkpt lat="43.434605" lon="-5.5947924">
        <ele>762.0</ele>
        <time>2021-02-14T12:33:11Z</time>
      </trkpt>
      <trkpt lat="43.434612" lon="-5.5947948">
        <ele>762.0</ele>
        <time>2021-02-14T12:33:12Z</time>
      </trkpt>
      <trkpt lat="43.434624" lon="-5.5947967">
        <ele>762.0</ele>
        <time>2021-02-14T12:33:13Z</time>
      </trkpt>
      <trkpt lat="43.434635" lon="-5.5947976">
        <ele>762.0</ele>
        <time>2021-02-14T12:33:14Z</time>
      </trkpt>
      <trkpt lat="43.434643" lon="-5.594798">
        <ele>762.0</ele>
        <time>2021-02-14T12:33:15Z</time>
      </trkpt>
      <trkpt lat="43.434654" lon="-5.5947976">
        <ele>762.0</ele>
        <time>2021-02-14T12:33:16Z</time>
      </trkpt>
      <trkpt lat="43.434658" lon="-5.5947995">
        <ele>762.0</ele>
        <time>2021-02-14T12:33:17Z</time>
      </trkpt>
      <trkpt lat="43.434666" lon="-5.5948052">
        <ele>762.0</ele>
        <time>2021-02-14T12:33:18Z</time>
      </trkpt>
      <trkpt lat="43.43467" lon="-5.594816">
        <ele>762.0</ele>
        <time>2021-02-14T12:33:19Z</time>
      </trkpt>
      <trkpt lat="43.434673" lon="-5.59483">
        <ele>762.0</ele>
        <time>2021-02-14T12:33:20Z</time>
      </trkpt>
      <trkpt lat="43.43468" lon="-5.5948424">
        <ele>762.0</ele>
        <time>2021-02-14T12:33:21Z</time>
      </trkpt>
      <trkpt lat="43.434685" lon="-5.594852">
        <ele>762.0</ele>
        <time>2021-02-14T12:33:22Z</time>
      </trkpt>
      <trkpt lat="43.434692" lon="-5.5948586">
        <ele>762.0</ele>
        <time>2021-02-14T12:33:23Z</time>
      </trkpt>
      <trkpt lat="43.434696" lon="-5.5948787">
        <ele>762.0</ele>
        <time>2021-02-14T12:33:26Z</time>
      </trkpt>
      <trkpt lat="43.434696" lon="-5.594879">
        <ele>762.0</ele>
        <time>2021-02-14T12:33:27Z</time>
      </trkpt>
      <trkpt lat="43.434696" lon="-5.5948806">
        <ele>762.0</ele>
        <time>2021-02-14T12:33:28Z</time>
      </trkpt>
      <trkpt lat="43.434696" lon="-5.5948825">
        <ele>762.0</ele>
        <time>2021-02-14T12:33:29Z</time>
      </trkpt>
      <trkpt lat="43.4347" lon="-5.594886">
        <ele>762.0</ele>
        <time>2021-02-14T12:33:30Z</time>
      </trkpt>
      <trkpt lat="43.4347" lon="-5.5948873">
        <ele>762.0</ele>
        <time>2021-02-14T12:33:31Z</time>
      </trkpt>
      <trkpt lat="43.43471" lon="-5.594886">
        <ele>762.0</ele>
        <time>2021-02-14T12:33:35Z</time>
      </trkpt>
      <trkpt lat="43.43471" lon="-5.5948853">
        <ele>762.0</ele>
        <time>2021-02-14T12:33:36Z</time>
      </trkpt>
      <trkpt lat="43.43471" lon="-5.594883">
        <ele>762.0</ele>
        <time>2021-02-14T12:33:37Z</time>
      </trkpt>
      <trkpt lat="43.434723" lon="-5.5948825">
        <ele>762.0</ele>
        <time>2021-02-14T12:33:39Z</time>
      </trkpt>
      <trkpt lat="43.434723" lon="-5.5948825">
        <ele>762.0</ele>
        <time>2021-02-14T12:33:40Z</time>
      </trkpt>
      <trkpt lat="43.434727" lon="-5.594889">
        <ele>762.0</ele>
        <time>2021-02-14T12:33:42Z</time>
      </trkpt>
      <trkpt lat="43.434727" lon="-5.5948896">
        <ele>762.0</ele>
        <time>2021-02-14T12:33:43Z</time>
      </trkpt>
      <trkpt lat="43.434727" lon="-5.594899">
        <ele>762.0</ele>
        <time>2021-02-14T12:33:45Z</time>
      </trkpt>
      <trkpt lat="43.434727" lon="-5.594899">
        <ele>762.0</ele>
        <time>2021-02-14T12:33:46Z</time>
      </trkpt>
      <trkpt lat="43.43473" lon="-5.5949006">
        <ele>762.0</ele>
        <time>2021-02-14T12:33:47Z</time>
      </trkpt>
      <trkpt lat="43.43474" lon="-5.5949073">
        <ele>762.0</ele>
        <time>2021-02-14T12:33:59Z</time>
      </trkpt>
      <trkpt lat="43.43474" lon="-5.59491">
        <ele>762.0</ele>
        <time>2021-02-14T12:34:00Z</time>
      </trkpt>
      <trkpt lat="43.434742" lon="-5.5949144">
        <ele>762.0</ele>
        <time>2021-02-14T12:34:01Z</time>
      </trkpt>
      <trkpt lat="43.434753" lon="-5.594923">
        <ele>762.0</ele>
        <time>2021-02-14T12:34:02Z</time>
      </trkpt>
      <trkpt lat="43.43476" lon="-5.5949326">
        <ele>762.0</ele>
        <time>2021-02-14T12:34:03Z</time>
      </trkpt>
      <trkpt lat="43.43477" lon="-5.5949416">
        <ele>762.0</ele>
        <time>2021-02-14T12:34:04Z</time>
      </trkpt>
      <trkpt lat="43.434776" lon="-5.5949497">
        <ele>762.0</ele>
        <time>2021-02-14T12:34:05Z</time>
      </trkpt>
      <trkpt lat="43.434784" lon="-5.594957">
        <ele>762.0</ele>
        <time>2021-02-14T12:34:06Z</time>
      </trkpt>
      <trkpt lat="43.434788" lon="-5.594963">
        <ele>762.0</ele>
        <time>2021-02-14T12:34:07Z</time>
      </trkpt>
      <trkpt lat="43.43479" lon="-5.5949697">
        <ele>762.0</ele>
        <time>2021-02-14T12:34:08Z</time>
      </trkpt>
      <trkpt lat="43.4348" lon="-5.5949745">
        <ele>762.0</ele>
        <time>2021-02-14T12:34:09Z</time>
      </trkpt>
      <trkpt lat="43.434803" lon="-5.59498">
        <ele>762.0</ele>
        <time>2021-02-14T12:34:10Z</time>
      </trkpt>
      <trkpt lat="43.434807" lon="-5.5949836">
        <ele>762.0</ele>
        <time>2021-02-14T12:34:11Z</time>
      </trkpt>
      <trkpt lat="43.434834" lon="-5.5950036">
        <ele>762.0</ele>
        <time>2021-02-14T12:34:13Z</time>
      </trkpt>
      <trkpt lat="43.434834" lon="-5.595006">
        <ele>762.0</ele>
        <time>2021-02-14T12:34:14Z</time>
      </trkpt>
      <trkpt lat="43.434834" lon="-5.5950155">
        <ele>762.0</ele>
        <time>2021-02-14T12:34:15Z</time>
      </trkpt>
      <trkpt lat="43.434837" lon="-5.5950294">
        <ele>762.0</ele>
        <time>2021-02-14T12:34:16Z</time>
      </trkpt>
      <trkpt lat="43.434845" lon="-5.5950427">
        <ele>762.0</ele>
        <time>2021-02-14T12:34:17Z</time>
      </trkpt>
      <trkpt lat="43.434845" lon="-5.595056">
        <ele>762.0</ele>
        <time>2021-02-14T12:34:18Z</time>
      </trkpt>
      <trkpt lat="43.434845" lon="-5.595066">
        <ele>762.0</ele>
        <time>2021-02-14T12:34:19Z</time>
      </trkpt>
      <trkpt lat="43.43485" lon="-5.5950747">
        <ele>762.0</ele>
        <time>2021-02-14T12:34:20Z</time>
      </trkpt>
      <trkpt lat="43.43485" lon="-5.595082">
        <ele>762.0</ele>
        <time>2021-02-14T12:34:21Z</time>
      </trkpt>
      <trkpt lat="43.434853" lon="-5.5950866">
        <ele>762.0</ele>
        <time>2021-02-14T12:34:22Z</time>
      </trkpt>
      <trkpt lat="43.43486" lon="-5.59509">
        <ele>762.0</ele>
        <time>2021-02-14T12:34:23Z</time>
      </trkpt>
      <trkpt lat="43.434864" lon="-5.5950933">
        <ele>762.0</ele>
        <time>2021-02-14T12:34:24Z</time>
      </trkpt>
      <trkpt lat="43.434868" lon="-5.5950975">
        <ele>762.0</ele>
        <time>2021-02-14T12:34:25Z</time>
      </trkpt>
      <trkpt lat="43.434875" lon="-5.5951014">
        <ele>762.0</ele>
        <time>2021-02-14T12:34:26Z</time>
      </trkpt>
      <trkpt lat="43.43488" lon="-5.595106">
        <ele>762.0</ele>
        <time>2021-02-14T12:34:27Z</time>
      </trkpt>
      <trkpt lat="43.43488" lon="-5.5951066">
        <ele>762.0</ele>
        <time>2021-02-14T12:34:28Z</time>
      </trkpt>
      <trkpt lat="43.434887" lon="-5.595106">
        <ele>762.0</ele>
        <time>2021-02-14T12:34:29Z</time>
      </trkpt>
      <trkpt lat="43.43489" lon="-5.5951033">
        <ele>762.0</ele>
        <time>2021-02-14T12:34:30Z</time>
      </trkpt>
      <trkpt lat="43.434895" lon="-5.595101">
        <ele>762.0</ele>
        <time>2021-02-14T12:34:31Z</time>
      </trkpt>
      <trkpt lat="43.434902" lon="-5.5950994">
        <ele>762.0</ele>
        <time>2021-02-14T12:34:32Z</time>
      </trkpt>
      <trkpt lat="43.43491" lon="-5.595096">
        <ele>762.0</ele>
        <time>2021-02-14T12:34:33Z</time>
      </trkpt>
      <trkpt lat="43.434917" lon="-5.5950933">
        <ele>762.0</ele>
        <time>2021-02-14T12:34:34Z</time>
      </trkpt>
      <trkpt lat="43.434925" lon="-5.5950913">
        <ele>762.0</ele>
        <time>2021-02-14T12:34:35Z</time>
      </trkpt>
      <trkpt lat="43.434933" lon="-5.595092">
        <ele>762.0</ele>
        <time>2021-02-14T12:34:36Z</time>
      </trkpt>
      <trkpt lat="43.43494" lon="-5.595095">
        <ele>762.0</ele>
        <time>2021-02-14T12:34:37Z</time>
      </trkpt>
      <trkpt lat="43.43494" lon="-5.595095">
        <ele>762.0</ele>
        <time>2021-02-14T12:34:38Z</time>
      </trkpt>
      <trkpt lat="43.434948" lon="-5.595095">
        <ele>762.0</ele>
        <time>2021-02-14T12:34:39Z</time>
      </trkpt>
      <trkpt lat="43.43495" lon="-5.5950923">
        <ele>762.0</ele>
        <time>2021-02-14T12:34:39Z</time>
      </trkpt>
      <trkpt lat="43.434963" lon="-5.595079">
        <ele>762.0</ele>
        <time>2021-02-14T12:34:42Z</time>
      </trkpt>
      <trkpt lat="43.434963" lon="-5.5950785">
        <ele>762.0</ele>
        <time>2021-02-14T12:34:43Z</time>
      </trkpt>
      <trkpt lat="43.434963" lon="-5.59508">
        <ele>761.0</ele>
        <time>2021-02-14T12:34:44Z</time>
      </trkpt>
      <trkpt lat="43.434967" lon="-5.595081">
        <ele>761.0</ele>
        <time>2021-02-14T12:34:45Z</time>
      </trkpt>
      <trkpt lat="43.434967" lon="-5.595081">
        <ele>761.0</ele>
        <time>2021-02-14T12:34:46Z</time>
      </trkpt>
      <trkpt lat="43.434967" lon="-5.5950804">
        <ele>761.0</ele>
        <time>2021-02-14T12:34:47Z</time>
      </trkpt>
      <trkpt lat="43.43497" lon="-5.5950823">
        <ele>761.0</ele>
        <time>2021-02-14T12:34:48Z</time>
      </trkpt>
      <trkpt lat="43.43498" lon="-5.595084">
        <ele>761.0</ele>
        <time>2021-02-14T12:34:49Z</time>
      </trkpt>
      <trkpt lat="43.434982" lon="-5.5950885">
        <ele>761.0</ele>
        <time>2021-02-14T12:34:50Z</time>
      </trkpt>
      <trkpt lat="43.434994" lon="-5.5950933">
        <ele>761.0</ele>
        <time>2021-02-14T12:34:51Z</time>
      </trkpt>
      <trkpt lat="43.435" lon="-5.5950994">
        <ele>761.0</ele>
        <time>2021-02-14T12:34:52Z</time>
      </trkpt>
      <trkpt lat="43.435013" lon="-5.595104">
        <ele>761.0</ele>
        <time>2021-02-14T12:34:53Z</time>
      </trkpt>
      <trkpt lat="43.435024" lon="-5.595106">
        <ele>761.0</ele>
        <time>2021-02-14T12:34:54Z</time>
      </trkpt>
      <trkpt lat="43.43503" lon="-5.595108">
        <ele>761.0</ele>
        <time>2021-02-14T12:34:55Z</time>
      </trkpt>
      <trkpt lat="43.43506" lon="-5.595107">
        <ele>761.0</ele>
        <time>2021-02-14T12:35:00Z</time>
      </trkpt>
      <trkpt lat="43.43506" lon="-5.595106">
        <ele>761.0</ele>
        <time>2021-02-14T12:35:01Z</time>
      </trkpt>
      <trkpt lat="43.43506" lon="-5.595097">
        <ele>761.0</ele>
        <time>2021-02-14T12:35:04Z</time>
      </trkpt>
      <trkpt lat="43.435066" lon="-5.595097">
        <ele>761.0</ele>
        <time>2021-02-14T12:35:05Z</time>
      </trkpt>
      <trkpt lat="43.43507" lon="-5.595104">
        <ele>761.0</ele>
        <time>2021-02-14T12:35:15Z</time>
      </trkpt>
      <trkpt lat="43.435074" lon="-5.5951085">
        <ele>761.0</ele>
        <time>2021-02-14T12:35:16Z</time>
      </trkpt>
      <trkpt lat="43.43508" lon="-5.5951185">
        <ele>761.0</ele>
        <time>2021-02-14T12:35:17Z</time>
      </trkpt>
      <trkpt lat="43.435085" lon="-5.5951304">
        <ele>761.0</ele>
        <time>2021-02-14T12:35:18Z</time>
      </trkpt>
      <trkpt lat="43.435097" lon="-5.5951457">
        <ele>761.0</ele>
        <time>2021-02-14T12:35:19Z</time>
      </trkpt>
      <trkpt lat="43.435104" lon="-5.5951595">
        <ele>761.0</ele>
        <time>2021-02-14T12:35:20Z</time>
      </trkpt>
      <trkpt lat="43.435116" lon="-5.5951743">
        <ele>761.0</ele>
        <time>2021-02-14T12:35:21Z</time>
      </trkpt>
      <trkpt lat="43.43513" lon="-5.5951896">
        <ele>761.0</ele>
        <time>2021-02-14T12:35:22Z</time>
      </trkpt>
      <trkpt lat="43.435143" lon="-5.595206">
        <ele>761.0</ele>
        <time>2021-02-14T12:35:23Z</time>
      </trkpt>
      <trkpt lat="43.435158" lon="-5.595223">
        <ele>761.0</ele>
        <time>2021-02-14T12:35:24Z</time>
      </trkpt>
      <trkpt lat="43.435165" lon="-5.5952396">
        <ele>761.0</ele>
        <time>2021-02-14T12:35:25Z</time>
      </trkpt>
      <trkpt lat="43.435173" lon="-5.5952525">
        <ele>761.0</ele>
        <time>2021-02-14T12:35:26Z</time>
      </trkpt>
      <trkpt lat="43.43518" lon="-5.5952625">
        <ele>761.0</ele>
        <time>2021-02-14T12:35:27Z</time>
      </trkpt>
      <trkpt lat="43.43519" lon="-5.595271">
        <ele>761.0</ele>
        <time>2021-02-14T12:35:28Z</time>
      </trkpt>
      <trkpt lat="43.435192" lon="-5.5952783">
        <ele>761.0</ele>
        <time>2021-02-14T12:35:29Z</time>
      </trkpt>
      <trkpt lat="43.435204" lon="-5.5952973">
        <ele>761.0</ele>
        <time>2021-02-14T12:35:33Z</time>
      </trkpt>
      <trkpt lat="43.435204" lon="-5.5952973">
        <ele>761.0</ele>
        <time>2021-02-14T12:35:34Z</time>
      </trkpt>
      <trkpt lat="43.435204" lon="-5.5952992">
        <ele>761.0</ele>
        <time>2021-02-14T12:35:35Z</time>
      </trkpt>
      <trkpt lat="43.435204" lon="-5.595301">
        <ele>761.0</ele>
        <time>2021-02-14T12:35:36Z</time>
      </trkpt>
      <trkpt lat="43.435207" lon="-5.5953083">
        <ele>761.0</ele>
        <time>2021-02-14T12:35:37Z</time>
      </trkpt>
      <trkpt lat="43.43521" lon="-5.595318">
        <ele>761.0</ele>
        <time>2021-02-14T12:35:38Z</time>
      </trkpt>
      <trkpt lat="43.435223" lon="-5.595327">
        <ele>761.0</ele>
        <time>2021-02-14T12:35:39Z</time>
      </trkpt>
      <trkpt lat="43.435226" lon="-5.595333">
        <ele>761.0</ele>
        <time>2021-02-14T12:35:40Z</time>
      </trkpt>
      <trkpt lat="43.435234" lon="-5.5953393">
        <ele>761.0</ele>
        <time>2021-02-14T12:35:41Z</time>
      </trkpt>
      <trkpt lat="43.435238" lon="-5.595346">
        <ele>761.0</ele>
        <time>2021-02-14T12:35:42Z</time>
      </trkpt>
      <trkpt lat="43.43524" lon="-5.595351">
        <ele>761.0</ele>
        <time>2021-02-14T12:35:43Z</time>
      </trkpt>
      <trkpt lat="43.43525" lon="-5.5953555">
        <ele>761.0</ele>
        <time>2021-02-14T12:35:44Z</time>
      </trkpt>
      <trkpt lat="43.435253" lon="-5.59536">
        <ele>761.0</ele>
        <time>2021-02-14T12:35:45Z</time>
      </trkpt>
      <trkpt lat="43.435253" lon="-5.5953655">
        <ele>761.0</ele>
        <time>2021-02-14T12:35:46Z</time>
      </trkpt>
      <trkpt lat="43.43526" lon="-5.595374">
        <ele>761.0</ele>
        <time>2021-02-14T12:35:47Z</time>
      </trkpt>
      <trkpt lat="43.43527" lon="-5.595383">
        <ele>761.0</ele>
        <time>2021-02-14T12:35:48Z</time>
      </trkpt>
      <trkpt lat="43.435276" lon="-5.595392">
        <ele>761.0</ele>
        <time>2021-02-14T12:35:49Z</time>
      </trkpt>
      <trkpt lat="43.43528" lon="-5.595402">
        <ele>761.0</ele>
        <time>2021-02-14T12:35:50Z</time>
      </trkpt>
      <trkpt lat="43.435284" lon="-5.5954103">
        <ele>761.0</ele>
        <time>2021-02-14T12:35:51Z</time>
      </trkpt>
      <trkpt lat="43.435295" lon="-5.595419">
        <ele>761.0</ele>
        <time>2021-02-14T12:35:52Z</time>
      </trkpt>
      <trkpt lat="43.4353" lon="-5.595426">
        <ele>761.0</ele>
        <time>2021-02-14T12:35:53Z</time>
      </trkpt>
      <trkpt lat="43.435307" lon="-5.5954337">
        <ele>761.0</ele>
        <time>2021-02-14T12:35:54Z</time>
      </trkpt>
      <trkpt lat="43.43531" lon="-5.59544">
        <ele>761.0</ele>
        <time>2021-02-14T12:35:55Z</time>
      </trkpt>
      <trkpt lat="43.43532" lon="-5.595447">
        <ele>761.0</ele>
        <time>2021-02-14T12:35:56Z</time>
      </trkpt>
      <trkpt lat="43.435326" lon="-5.5954547">
        <ele>761.0</ele>
        <time>2021-02-14T12:35:57Z</time>
      </trkpt>
      <trkpt lat="43.43533" lon="-5.5954623">
        <ele>761.0</ele>
        <time>2021-02-14T12:35:58Z</time>
      </trkpt>
      <trkpt lat="43.43534" lon="-5.595473">
        <ele>761.0</ele>
        <time>2021-02-14T12:35:59Z</time>
      </trkpt>
      <trkpt lat="43.435345" lon="-5.595483">
        <ele>761.0</ele>
        <time>2021-02-14T12:36:00Z</time>
      </trkpt>
      <trkpt lat="43.435356" lon="-5.595495">
        <ele>761.0</ele>
        <time>2021-02-14T12:36:01Z</time>
      </trkpt>
      <trkpt lat="43.43536" lon="-5.5955067">
        <ele>761.0</ele>
        <time>2021-02-14T12:36:02Z</time>
      </trkpt>
      <trkpt lat="43.43537" lon="-5.59552">
        <ele>761.0</ele>
        <time>2021-02-14T12:36:03Z</time>
      </trkpt>
      <trkpt lat="43.435387" lon="-5.595531">
        <ele>761.0</ele>
        <time>2021-02-14T12:36:04Z</time>
      </trkpt>
      <trkpt lat="43.435402" lon="-5.5955443">
        <ele>761.0</ele>
        <time>2021-02-14T12:36:05Z</time>
      </trkpt>
      <trkpt lat="43.435413" lon="-5.5955577">
        <ele>761.0</ele>
        <time>2021-02-14T12:36:06Z</time>
      </trkpt>
      <trkpt lat="43.43543" lon="-5.5955687">
        <ele>761.0</ele>
        <time>2021-02-14T12:36:07Z</time>
      </trkpt>
      <trkpt lat="43.435436" lon="-5.595577">
        <ele>761.0</ele>
        <time>2021-02-14T12:36:08Z</time>
      </trkpt>
      <trkpt lat="43.435444" lon="-5.595585">
        <ele>760.0</ele>
        <time>2021-02-14T12:36:09Z</time>
      </trkpt>
      <trkpt lat="43.435448" lon="-5.5955915">
        <ele>760.0</ele>
        <time>2021-02-14T12:36:10Z</time>
      </trkpt>
      <trkpt lat="43.435455" lon="-5.595598">
        <ele>760.0</ele>
        <time>2021-02-14T12:36:11Z</time>
      </trkpt>
      <trkpt lat="43.43546" lon="-5.595604">
        <ele>760.0</ele>
        <time>2021-02-14T12:36:12Z</time>
      </trkpt>
      <trkpt lat="43.435463" lon="-5.5956216">
        <ele>760.0</ele>
        <time>2021-02-14T12:36:14Z</time>
      </trkpt>
      <trkpt lat="43.43547" lon="-5.5956235">
        <ele>760.0</ele>
        <time>2021-02-14T12:36:15Z</time>
      </trkpt>
      <trkpt lat="43.43547" lon="-5.595627">
        <ele>760.0</ele>
        <time>2021-02-14T12:36:16Z</time>
      </trkpt>
      <trkpt lat="43.435474" lon="-5.59563">
        <ele>760.0</ele>
        <time>2021-02-14T12:36:17Z</time>
      </trkpt>
      <trkpt lat="43.43548" lon="-5.5956335">
        <ele>760.0</ele>
        <time>2021-02-14T12:36:18Z</time>
      </trkpt>
      <trkpt lat="43.435486" lon="-5.5956364">
        <ele>760.0</ele>
        <time>2021-02-14T12:36:19Z</time>
      </trkpt>
      <trkpt lat="43.435493" lon="-5.59564">
        <ele>760.0</ele>
        <time>2021-02-14T12:36:20Z</time>
      </trkpt>
      <trkpt lat="43.4355" lon="-5.595644">
        <ele>760.0</ele>
        <time>2021-02-14T12:36:21Z</time>
      </trkpt>
      <trkpt lat="43.435505" lon="-5.5956507">
        <ele>760.0</ele>
        <time>2021-02-14T12:36:22Z</time>
      </trkpt>
      <trkpt lat="43.43551" lon="-5.5956564">
        <ele>760.0</ele>
        <time>2021-02-14T12:36:23Z</time>
      </trkpt>
      <trkpt lat="43.435516" lon="-5.595662">
        <ele>760.0</ele>
        <time>2021-02-14T12:36:24Z</time>
      </trkpt>
      <trkpt lat="43.435524" lon="-5.5956674">
        <ele>760.0</ele>
        <time>2021-02-14T12:36:25Z</time>
      </trkpt>
      <trkpt lat="43.43553" lon="-5.595672">
        <ele>759.0</ele>
        <time>2021-02-14T12:36:26Z</time>
      </trkpt>
      <trkpt lat="43.43554" lon="-5.5956774">
        <ele>759.0</ele>
        <time>2021-02-14T12:36:27Z</time>
      </trkpt>
      <trkpt lat="43.435547" lon="-5.595687">
        <ele>759.0</ele>
        <time>2021-02-14T12:36:28Z</time>
      </trkpt>
      <trkpt lat="43.43555" lon="-5.5956974">
        <ele>759.0</ele>
        <time>2021-02-14T12:36:29Z</time>
      </trkpt>
      <trkpt lat="43.435562" lon="-5.5957093">
        <ele>759.0</ele>
        <time>2021-02-14T12:36:30Z</time>
      </trkpt>
      <trkpt lat="43.435566" lon="-5.595721">
        <ele>759.0</ele>
        <time>2021-02-14T12:36:31Z</time>
      </trkpt>
      <trkpt lat="43.43557" lon="-5.5957327">
        <ele>759.0</ele>
        <time>2021-02-14T12:36:32Z</time>
      </trkpt>
      <trkpt lat="43.435577" lon="-5.595742">
        <ele>759.0</ele>
        <time>2021-02-14T12:36:33Z</time>
      </trkpt>
      <trkpt lat="43.43558" lon="-5.595749">
        <ele>759.0</ele>
        <time>2021-02-14T12:36:34Z</time>
      </trkpt>
      <trkpt lat="43.435585" lon="-5.5957556">
        <ele>759.0</ele>
        <time>2021-02-14T12:36:35Z</time>
      </trkpt>
      <trkpt lat="43.435596" lon="-5.5957627">
        <ele>759.0</ele>
        <time>2021-02-14T12:36:36Z</time>
      </trkpt>
      <trkpt lat="43.4356" lon="-5.595771">
        <ele>759.0</ele>
        <time>2021-02-14T12:36:37Z</time>
      </trkpt>
      <trkpt lat="43.435608" lon="-5.5957823">
        <ele>758.0</ele>
        <time>2021-02-14T12:36:38Z</time>
      </trkpt>
      <trkpt lat="43.435616" lon="-5.5957956">
        <ele>758.0</ele>
        <time>2021-02-14T12:36:39Z</time>
      </trkpt>
      <trkpt lat="43.435623" lon="-5.59581">
        <ele>758.0</ele>
        <time>2021-02-14T12:36:40Z</time>
      </trkpt>
      <trkpt lat="43.435627" lon="-5.595822">
        <ele>758.0</ele>
        <time>2021-02-14T12:36:41Z</time>
      </trkpt>
      <trkpt lat="43.43564" lon="-5.5958343">
        <ele>758.0</ele>
        <time>2021-02-14T12:36:42Z</time>
      </trkpt>
      <trkpt lat="43.435642" lon="-5.5958443">
        <ele>758.0</ele>
        <time>2021-02-14T12:36:43Z</time>
      </trkpt>
      <trkpt lat="43.43565" lon="-5.5958524">
        <ele>757.0</ele>
        <time>2021-02-14T12:36:44Z</time>
      </trkpt>
      <trkpt lat="43.43565" lon="-5.59586">
        <ele>757.0</ele>
        <time>2021-02-14T12:36:45Z</time>
      </trkpt>
      <trkpt lat="43.435654" lon="-5.5958657">
        <ele>757.0</ele>
        <time>2021-02-14T12:36:46Z</time>
      </trkpt>
      <trkpt lat="43.435665" lon="-5.5958767">
        <ele>757.0</ele>
        <time>2021-02-14T12:36:48Z</time>
      </trkpt>
      <trkpt lat="43.43567" lon="-5.5958776">
        <ele>757.0</ele>
        <time>2021-02-14T12:36:49Z</time>
      </trkpt>
      <trkpt lat="43.435673" lon="-5.5958815">
        <ele>757.0</ele>
        <time>2021-02-14T12:36:50Z</time>
      </trkpt>
      <trkpt lat="43.43568" lon="-5.5958886">
        <ele>757.0</ele>
        <time>2021-02-14T12:36:51Z</time>
      </trkpt>
      <trkpt lat="43.435688" lon="-5.595894">
        <ele>757.0</ele>
        <time>2021-02-14T12:36:52Z</time>
      </trkpt>
      <trkpt lat="43.4357" lon="-5.5959015">
        <ele>757.0</ele>
        <time>2021-02-14T12:36:53Z</time>
      </trkpt>
      <trkpt lat="43.435703" lon="-5.5959105">
        <ele>757.0</ele>
        <time>2021-02-14T12:36:54Z</time>
      </trkpt>
      <trkpt lat="43.435715" lon="-5.5959187">
        <ele>756.0</ele>
        <time>2021-02-14T12:36:55Z</time>
      </trkpt>
      <trkpt lat="43.43572" lon="-5.595929">
        <ele>756.0</ele>
        <time>2021-02-14T12:36:56Z</time>
      </trkpt>
      <trkpt lat="43.435726" lon="-5.5959406">
        <ele>756.0</ele>
        <time>2021-02-14T12:36:57Z</time>
      </trkpt>
      <trkpt lat="43.43573" lon="-5.595954">
        <ele>756.0</ele>
        <time>2021-02-14T12:36:58Z</time>
      </trkpt>
      <trkpt lat="43.435734" lon="-5.5959635">
        <ele>756.0</ele>
        <time>2021-02-14T12:36:59Z</time>
      </trkpt>
      <trkpt lat="43.43574" lon="-5.5959725">
        <ele>756.0</ele>
        <time>2021-02-14T12:37:00Z</time>
      </trkpt>
      <trkpt lat="43.43575" lon="-5.5959797">
        <ele>756.0</ele>
        <time>2021-02-14T12:37:01Z</time>
      </trkpt>
      <trkpt lat="43.43576" lon="-5.5959873">
        <ele>756.0</ele>
        <time>2021-02-14T12:37:02Z</time>
      </trkpt>
      <trkpt lat="43.435764" lon="-5.595992">
        <ele>755.0</ele>
        <time>2021-02-14T12:37:03Z</time>
      </trkpt>
      <trkpt lat="43.435776" lon="-5.5959973">
        <ele>755.0</ele>
        <time>2021-02-14T12:37:04Z</time>
      </trkpt>
      <trkpt lat="43.435787" lon="-5.5960045">
        <ele>755.0</ele>
        <time>2021-02-14T12:37:05Z</time>
      </trkpt>
      <trkpt lat="43.435795" lon="-5.5960126">
        <ele>755.0</ele>
        <time>2021-02-14T12:37:06Z</time>
      </trkpt>
      <trkpt lat="43.435806" lon="-5.5960217">
        <ele>755.0</ele>
        <time>2021-02-14T12:37:07Z</time>
      </trkpt>
      <trkpt lat="43.435818" lon="-5.596032">
        <ele>755.0</ele>
        <time>2021-02-14T12:37:08Z</time>
      </trkpt>
      <trkpt lat="43.43582" lon="-5.5960407">
        <ele>755.0</ele>
        <time>2021-02-14T12:37:09Z</time>
      </trkpt>
      <trkpt lat="43.435833" lon="-5.5960493">
        <ele>755.0</ele>
        <time>2021-02-14T12:37:10Z</time>
      </trkpt>
      <trkpt lat="43.435837" lon="-5.5960593">
        <ele>755.0</ele>
        <time>2021-02-14T12:37:11Z</time>
      </trkpt>
      <trkpt lat="43.435844" lon="-5.5960684">
        <ele>755.0</ele>
        <time>2021-02-14T12:37:12Z</time>
      </trkpt>
      <trkpt lat="43.43585" lon="-5.5960793">
        <ele>755.0</ele>
        <time>2021-02-14T12:37:13Z</time>
      </trkpt>
      <trkpt lat="43.43585" lon="-5.5960884">
        <ele>755.0</ele>
        <time>2021-02-14T12:37:14Z</time>
      </trkpt>
      <trkpt lat="43.435852" lon="-5.5960975">
        <ele>755.0</ele>
        <time>2021-02-14T12:37:15Z</time>
      </trkpt>
      <trkpt lat="43.435852" lon="-5.5961056">
        <ele>755.0</ele>
        <time>2021-02-14T12:37:16Z</time>
      </trkpt>
      <trkpt lat="43.43586" lon="-5.596112">
        <ele>755.0</ele>
        <time>2021-02-14T12:37:17Z</time>
      </trkpt>
      <trkpt lat="43.435863" lon="-5.596118">
        <ele>755.0</ele>
        <time>2021-02-14T12:37:18Z</time>
      </trkpt>
      <trkpt lat="43.435867" lon="-5.5961227">
        <ele>755.0</ele>
        <time>2021-02-14T12:37:19Z</time>
      </trkpt>
      <trkpt lat="43.435867" lon="-5.5961294">
        <ele>755.0</ele>
        <time>2021-02-14T12:37:20Z</time>
      </trkpt>
      <trkpt lat="43.435867" lon="-5.596137">
        <ele>755.0</ele>
        <time>2021-02-14T12:37:21Z</time>
      </trkpt>
      <trkpt lat="43.435875" lon="-5.5961466">
        <ele>755.0</ele>
        <time>2021-02-14T12:37:22Z</time>
      </trkpt>
      <trkpt lat="43.435875" lon="-5.596158">
        <ele>755.0</ele>
        <time>2021-02-14T12:37:23Z</time>
      </trkpt>
      <trkpt lat="43.43588" lon="-5.5961704">
        <ele>755.0</ele>
        <time>2021-02-14T12:37:24Z</time>
      </trkpt>
      <trkpt lat="43.435883" lon="-5.596182">
        <ele>754.0</ele>
        <time>2021-02-14T12:37:25Z</time>
      </trkpt>
      <trkpt lat="43.43589" lon="-5.5961914">
        <ele>754.0</ele>
        <time>2021-02-14T12:37:26Z</time>
      </trkpt>
      <trkpt lat="43.435898" lon="-5.5962014">
        <ele>754.0</ele>
        <time>2021-02-14T12:37:27Z</time>
      </trkpt>
      <trkpt lat="43.43591" lon="-5.5962105">
        <ele>754.0</ele>
        <time>2021-02-14T12:37:28Z</time>
      </trkpt>
      <trkpt lat="43.43592" lon="-5.5962195">
        <ele>754.0</ele>
        <time>2021-02-14T12:37:29Z</time>
      </trkpt>
      <trkpt lat="43.435925" lon="-5.596227">
        <ele>754.0</ele>
        <time>2021-02-14T12:37:30Z</time>
      </trkpt>
      <trkpt lat="43.435936" lon="-5.596236">
        <ele>754.0</ele>
        <time>2021-02-14T12:37:31Z</time>
      </trkpt>
      <trkpt lat="43.43594" lon="-5.5962443">
        <ele>754.0</ele>
        <time>2021-02-14T12:37:32Z</time>
      </trkpt>
      <trkpt lat="43.435944" lon="-5.5962515">
        <ele>754.0</ele>
        <time>2021-02-14T12:37:33Z</time>
      </trkpt>
      <trkpt lat="43.43595" lon="-5.596257">
        <ele>754.0</ele>
        <time>2021-02-14T12:37:34Z</time>
      </trkpt>
      <trkpt lat="43.435955" lon="-5.596262">
        <ele>753.0</ele>
        <time>2021-02-14T12:37:35Z</time>
      </trkpt>
      <trkpt lat="43.43596" lon="-5.5962677">
        <ele>753.0</ele>
        <time>2021-02-14T12:37:36Z</time>
      </trkpt>
      <trkpt lat="43.435966" lon="-5.5962725">
        <ele>753.0</ele>
        <time>2021-02-14T12:37:37Z</time>
      </trkpt>
      <trkpt lat="43.435974" lon="-5.5962763">
        <ele>753.0</ele>
        <time>2021-02-14T12:37:38Z</time>
      </trkpt>
      <trkpt lat="43.43598" lon="-5.5962796">
        <ele>753.0</ele>
        <time>2021-02-14T12:37:39Z</time>
      </trkpt>
      <trkpt lat="43.435986" lon="-5.596285">
        <ele>753.0</ele>
        <time>2021-02-14T12:37:40Z</time>
      </trkpt>
      <trkpt lat="43.43599" lon="-5.596289">
        <ele>753.0</ele>
        <time>2021-02-14T12:37:41Z</time>
      </trkpt>
      <trkpt lat="43.435997" lon="-5.596293">
        <ele>753.0</ele>
        <time>2021-02-14T12:37:42Z</time>
      </trkpt>
      <trkpt lat="43.435997" lon="-5.596297">
        <ele>753.0</ele>
        <time>2021-02-14T12:37:43Z</time>
      </trkpt>
      <trkpt lat="43.436" lon="-5.5963006">
        <ele>753.0</ele>
        <time>2021-02-14T12:37:44Z</time>
      </trkpt>
      <trkpt lat="43.436005" lon="-5.5963054">
        <ele>753.0</ele>
        <time>2021-02-14T12:37:45Z</time>
      </trkpt>
      <trkpt lat="43.436005" lon="-5.5963097">
        <ele>753.0</ele>
        <time>2021-02-14T12:37:46Z</time>
      </trkpt>
      <trkpt lat="43.436012" lon="-5.596315">
        <ele>753.0</ele>
        <time>2021-02-14T12:37:47Z</time>
      </trkpt>
      <trkpt lat="43.436016" lon="-5.5963182">
        <ele>753.0</ele>
        <time>2021-02-14T12:37:48Z</time>
      </trkpt>
      <trkpt lat="43.43602" lon="-5.596321">
        <ele>753.0</ele>
        <time>2021-02-14T12:37:49Z</time>
      </trkpt>
      <trkpt lat="43.43602" lon="-5.596324">
        <ele>753.0</ele>
        <time>2021-02-14T12:37:50Z</time>
      </trkpt>
      <trkpt lat="43.436028" lon="-5.5963283">
        <ele>753.0</ele>
        <time>2021-02-14T12:37:51Z</time>
      </trkpt>
      <trkpt lat="43.43603" lon="-5.5963335">
        <ele>753.0</ele>
        <time>2021-02-14T12:37:52Z</time>
      </trkpt>
      <trkpt lat="43.43604" lon="-5.5963407">
        <ele>753.0</ele>
        <time>2021-02-14T12:37:53Z</time>
      </trkpt>
      <trkpt lat="43.436043" lon="-5.596347">
        <ele>753.0</ele>
        <time>2021-02-14T12:37:54Z</time>
      </trkpt>
      <trkpt lat="43.436047" lon="-5.5963526">
        <ele>752.0</ele>
        <time>2021-02-14T12:37:55Z</time>
      </trkpt>
      <trkpt lat="43.436054" lon="-5.596358">
        <ele>752.0</ele>
        <time>2021-02-14T12:37:56Z</time>
      </trkpt>
      <trkpt lat="43.43606" lon="-5.5963616">
        <ele>752.0</ele>
        <time>2021-02-14T12:37:57Z</time>
      </trkpt>
      <trkpt lat="43.43607" lon="-5.5963655">
        <ele>752.0</ele>
        <time>2021-02-14T12:37:58Z</time>
      </trkpt>
      <trkpt lat="43.436073" lon="-5.5963674">
        <ele>752.0</ele>
        <time>2021-02-14T12:37:59Z</time>
      </trkpt>
      <trkpt lat="43.436077" lon="-5.5963697">
        <ele>752.0</ele>
        <time>2021-02-14T12:38:00Z</time>
      </trkpt>
      <trkpt lat="43.436085" lon="-5.5963726">
        <ele>752.0</ele>
        <time>2021-02-14T12:38:01Z</time>
      </trkpt>
      <trkpt lat="43.43609" lon="-5.5963764">
        <ele>752.0</ele>
        <time>2021-02-14T12:38:02Z</time>
      </trkpt>
      <trkpt lat="43.436092" lon="-5.59638">
        <ele>752.0</ele>
        <time>2021-02-14T12:38:03Z</time>
      </trkpt>
      <trkpt lat="43.4361" lon="-5.5963855">
        <ele>752.0</ele>
        <time>2021-02-14T12:38:04Z</time>
      </trkpt>
      <trkpt lat="43.436108" lon="-5.5963917">
        <ele>752.0</ele>
        <time>2021-02-14T12:38:05Z</time>
      </trkpt>
      <trkpt lat="43.436115" lon="-5.596396">
        <ele>751.0</ele>
        <time>2021-02-14T12:38:06Z</time>
      </trkpt>
      <trkpt lat="43.43612" lon="-5.5963974">
        <ele>751.0</ele>
        <time>2021-02-14T12:38:07Z</time>
      </trkpt>
      <trkpt lat="43.43613" lon="-5.596396">
        <ele>751.0</ele>
        <time>2021-02-14T12:38:08Z</time>
      </trkpt>
      <trkpt lat="43.436134" lon="-5.596395">
        <ele>751.0</ele>
        <time>2021-02-14T12:38:09Z</time>
      </trkpt>
      <trkpt lat="43.436146" lon="-5.5963917">
        <ele>751.0</ele>
        <time>2021-02-14T12:38:10Z</time>
      </trkpt>
      <trkpt lat="43.436153" lon="-5.5963893">
        <ele>751.0</ele>
        <time>2021-02-14T12:38:11Z</time>
      </trkpt>
      <trkpt lat="43.43616" lon="-5.596388">
        <ele>751.0</ele>
        <time>2021-02-14T12:38:12Z</time>
      </trkpt>
      <trkpt lat="43.43617" lon="-5.5963883">
        <ele>751.0</ele>
        <time>2021-02-14T12:38:13Z</time>
      </trkpt>
      <trkpt lat="43.436176" lon="-5.5963902">
        <ele>751.0</ele>
        <time>2021-02-14T12:38:14Z</time>
      </trkpt>
      <trkpt lat="43.436184" lon="-5.596393">
        <ele>751.0</ele>
        <time>2021-02-14T12:38:15Z</time>
      </trkpt>
      <trkpt lat="43.436195" lon="-5.596396">
        <ele>751.0</ele>
        <time>2021-02-14T12:38:16Z</time>
      </trkpt>
      <trkpt lat="43.43621" lon="-5.5964">
        <ele>751.0</ele>
        <time>2021-02-14T12:38:17Z</time>
      </trkpt>
      <trkpt lat="43.436222" lon="-5.596403">
        <ele>751.0</ele>
        <time>2021-02-14T12:38:18Z</time>
      </trkpt>
      <trkpt lat="43.436237" lon="-5.596408">
        <ele>750.0</ele>
        <time>2021-02-14T12:38:19Z</time>
      </trkpt>
      <trkpt lat="43.43625" lon="-5.5964136">
        <ele>750.0</ele>
        <time>2021-02-14T12:38:20Z</time>
      </trkpt>
      <trkpt lat="43.436256" lon="-5.5964184">
        <ele>750.0</ele>
        <time>2021-02-14T12:38:21Z</time>
      </trkpt>
      <trkpt lat="43.436268" lon="-5.5964236">
        <ele>750.0</ele>
        <time>2021-02-14T12:38:22Z</time>
      </trkpt>
      <trkpt lat="43.43628" lon="-5.5964293">
        <ele>750.0</ele>
        <time>2021-02-14T12:38:23Z</time>
      </trkpt>
      <trkpt lat="43.436283" lon="-5.596435">
        <ele>750.0</ele>
        <time>2021-02-14T12:38:24Z</time>
      </trkpt>
      <trkpt lat="43.4363" lon="-5.596439">
        <ele>750.0</ele>
        <time>2021-02-14T12:38:25Z</time>
      </trkpt>
      <trkpt lat="43.436302" lon="-5.5964417">
        <ele>750.0</ele>
        <time>2021-02-14T12:38:26Z</time>
      </trkpt>
      <trkpt lat="43.436314" lon="-5.5964446">
        <ele>750.0</ele>
        <time>2021-02-14T12:38:27Z</time>
      </trkpt>
      <trkpt lat="43.436325" lon="-5.5964465">
        <ele>750.0</ele>
        <time>2021-02-14T12:38:28Z</time>
      </trkpt>
      <trkpt lat="43.43633" lon="-5.5964484">
        <ele>750.0</ele>
        <time>2021-02-14T12:38:29Z</time>
      </trkpt>
      <trkpt lat="43.436333" lon="-5.5964513">
        <ele>750.0</ele>
        <time>2021-02-14T12:38:30Z</time>
      </trkpt>
      <trkpt lat="43.436344" lon="-5.5964546">
        <ele>750.0</ele>
        <time>2021-02-14T12:38:31Z</time>
      </trkpt>
      <trkpt lat="43.43636" lon="-5.596457">
        <ele>750.0</ele>
        <time>2021-02-14T12:38:32Z</time>
      </trkpt>
      <trkpt lat="43.43637" lon="-5.596459">
        <ele>750.0</ele>
        <time>2021-02-14T12:38:33Z</time>
      </trkpt>
      <trkpt lat="43.436386" lon="-5.5964622">
        <ele>750.0</ele>
        <time>2021-02-14T12:38:34Z</time>
      </trkpt>
      <trkpt lat="43.43639" lon="-5.5964646">
        <ele>750.0</ele>
        <time>2021-02-14T12:38:35Z</time>
      </trkpt>
      <trkpt lat="43.4364" lon="-5.596468">
        <ele>750.0</ele>
        <time>2021-02-14T12:38:36Z</time>
      </trkpt>
      <trkpt lat="43.43641" lon="-5.5964684">
        <ele>750.0</ele>
        <time>2021-02-14T12:38:37Z</time>
      </trkpt>
      <trkpt lat="43.43642" lon="-5.596467">
        <ele>750.0</ele>
        <time>2021-02-14T12:38:38Z</time>
      </trkpt>
      <trkpt lat="43.436436" lon="-5.5964665">
        <ele>750.0</ele>
        <time>2021-02-14T12:38:39Z</time>
      </trkpt>
      <trkpt lat="43.436447" lon="-5.5964665">
        <ele>750.0</ele>
        <time>2021-02-14T12:38:40Z</time>
      </trkpt>
      <trkpt lat="43.43646" lon="-5.596466">
        <ele>750.0</ele>
        <time>2021-02-14T12:38:41Z</time>
      </trkpt>
      <trkpt lat="43.436466" lon="-5.596466">
        <ele>750.0</ele>
        <time>2021-02-14T12:38:42Z</time>
      </trkpt>
      <trkpt lat="43.436478" lon="-5.596465">
        <ele>750.0</ele>
        <time>2021-02-14T12:38:43Z</time>
      </trkpt>
      <trkpt lat="43.43649" lon="-5.596465">
        <ele>750.0</ele>
        <time>2021-02-14T12:38:44Z</time>
      </trkpt>
      <trkpt lat="43.436497" lon="-5.5964627">
        <ele>750.0</ele>
        <time>2021-02-14T12:38:45Z</time>
      </trkpt>
      <trkpt lat="43.436512" lon="-5.596459">
        <ele>750.0</ele>
        <time>2021-02-14T12:38:46Z</time>
      </trkpt>
      <trkpt lat="43.436523" lon="-5.5964565">
        <ele>750.0</ele>
        <time>2021-02-14T12:38:47Z</time>
      </trkpt>
      <trkpt lat="43.436535" lon="-5.5964546">
        <ele>750.0</ele>
        <time>2021-02-14T12:38:48Z</time>
      </trkpt>
      <trkpt lat="43.436543" lon="-5.596453">
        <ele>750.0</ele>
        <time>2021-02-14T12:38:49Z</time>
      </trkpt>
      <trkpt lat="43.436554" lon="-5.5964503">
        <ele>750.0</ele>
        <time>2021-02-14T12:38:50Z</time>
      </trkpt>
      <trkpt lat="43.43657" lon="-5.5964484">
        <ele>750.0</ele>
        <time>2021-02-14T12:38:51Z</time>
      </trkpt>
      <trkpt lat="43.43658" lon="-5.5964475">
        <ele>750.0</ele>
        <time>2021-02-14T12:38:52Z</time>
      </trkpt>
      <trkpt lat="43.43659" lon="-5.5964456">
        <ele>750.0</ele>
        <time>2021-02-14T12:38:53Z</time>
      </trkpt>
      <trkpt lat="43.436604" lon="-5.5964437">
        <ele>750.0</ele>
        <time>2021-02-14T12:38:54Z</time>
      </trkpt>
      <trkpt lat="43.436615" lon="-5.5964417">
        <ele>750.0</ele>
        <time>2021-02-14T12:38:54Z</time>
      </trkpt>
      <trkpt lat="43.43663" lon="-5.5964403">
        <ele>750.0</ele>
        <time>2021-02-14T12:38:55Z</time>
      </trkpt>
      <trkpt lat="43.43664" lon="-5.596439">
        <ele>750.0</ele>
        <time>2021-02-14T12:38:56Z</time>
      </trkpt>
      <trkpt lat="43.436653" lon="-5.596437">
        <ele>750.0</ele>
        <time>2021-02-14T12:38:57Z</time>
      </trkpt>
      <trkpt lat="43.43666" lon="-5.5964346">
        <ele>750.0</ele>
        <time>2021-02-14T12:38:58Z</time>
      </trkpt>
      <trkpt lat="43.436672" lon="-5.596433">
        <ele>750.0</ele>
        <time>2021-02-14T12:38:59Z</time>
      </trkpt>
      <trkpt lat="43.436684" lon="-5.5964327">
        <ele>750.0</ele>
        <time>2021-02-14T12:39:00Z</time>
      </trkpt>
      <trkpt lat="43.436687" lon="-5.596432">
        <ele>750.0</ele>
        <time>2021-02-14T12:39:01Z</time>
      </trkpt>
      <trkpt lat="43.4367" lon="-5.5964327">
        <ele>749.0</ele>
        <time>2021-02-14T12:39:02Z</time>
      </trkpt>
      <trkpt lat="43.436707" lon="-5.596433">
        <ele>749.0</ele>
        <time>2021-02-14T12:39:03Z</time>
      </trkpt>
      <trkpt lat="43.436718" lon="-5.5964327">
        <ele>749.0</ele>
        <time>2021-02-14T12:39:04Z</time>
      </trkpt>
      <trkpt lat="43.43673" lon="-5.5964303">
        <ele>749.0</ele>
        <time>2021-02-14T12:39:05Z</time>
      </trkpt>
      <trkpt lat="43.436733" lon="-5.5964255">
        <ele>749.0</ele>
        <time>2021-02-14T12:39:06Z</time>
      </trkpt>
      <trkpt lat="43.436745" lon="-5.5964193">
        <ele>749.0</ele>
        <time>2021-02-14T12:39:07Z</time>
      </trkpt>
      <trkpt lat="43.436745" lon="-5.5964103">
        <ele>749.0</ele>
        <time>2021-02-14T12:39:08Z</time>
      </trkpt>
      <trkpt lat="43.43675" lon="-5.5963993">
        <ele>749.0</ele>
        <time>2021-02-14T12:39:09Z</time>
      </trkpt>
      <trkpt lat="43.436752" lon="-5.5963874">
        <ele>749.0</ele>
        <time>2021-02-14T12:39:10Z</time>
      </trkpt>
      <trkpt lat="43.43676" lon="-5.596373">
        <ele>749.0</ele>
        <time>2021-02-14T12:39:11Z</time>
      </trkpt>
      <trkpt lat="43.436768" lon="-5.5963616">
        <ele>749.0</ele>
        <time>2021-02-14T12:39:12Z</time>
      </trkpt>
      <trkpt lat="43.436775" lon="-5.5963526">
        <ele>749.0</ele>
        <time>2021-02-14T12:39:13Z</time>
      </trkpt>
      <trkpt lat="43.436783" lon="-5.5963454">
        <ele>749.0</ele>
        <time>2021-02-14T12:39:14Z</time>
      </trkpt>
      <trkpt lat="43.436794" lon="-5.5963397">
        <ele>749.0</ele>
        <time>2021-02-14T12:39:15Z</time>
      </trkpt>
      <trkpt lat="43.4368" lon="-5.596335">
        <ele>749.0</ele>
        <time>2021-02-14T12:39:16Z</time>
      </trkpt>
      <trkpt lat="43.436806" lon="-5.59633">
        <ele>749.0</ele>
        <time>2021-02-14T12:39:17Z</time>
      </trkpt>
      <trkpt lat="43.43681" lon="-5.596326">
        <ele>749.0</ele>
        <time>2021-02-14T12:39:18Z</time>
      </trkpt>
      <trkpt lat="43.436817" lon="-5.596321">
        <ele>749.0</ele>
        <time>2021-02-14T12:39:19Z</time>
      </trkpt>
      <trkpt lat="43.43682" lon="-5.596317">
        <ele>749.0</ele>
        <time>2021-02-14T12:39:20Z</time>
      </trkpt>
      <trkpt lat="43.436825" lon="-5.596313">
        <ele>749.0</ele>
        <time>2021-02-14T12:39:21Z</time>
      </trkpt>
      <trkpt lat="43.436832" lon="-5.596309">
        <ele>749.0</ele>
        <time>2021-02-14T12:39:22Z</time>
      </trkpt>
      <trkpt lat="43.43684" lon="-5.5963054">
        <ele>749.0</ele>
        <time>2021-02-14T12:39:23Z</time>
      </trkpt>
      <trkpt lat="43.43685" lon="-5.5963006">
        <ele>749.0</ele>
        <time>2021-02-14T12:39:24Z</time>
      </trkpt>
      <trkpt lat="43.436863" lon="-5.596295">
        <ele>749.0</ele>
        <time>2021-02-14T12:39:25Z</time>
      </trkpt>
      <trkpt lat="43.43687" lon="-5.596289">
        <ele>748.0</ele>
        <time>2021-02-14T12:39:26Z</time>
      </trkpt>
      <trkpt lat="43.43688" lon="-5.5962834">
        <ele>748.0</ele>
        <time>2021-02-14T12:39:27Z</time>
      </trkpt>
      <trkpt lat="43.436882" lon="-5.5962763">
        <ele>748.0</ele>
        <time>2021-02-14T12:39:28Z</time>
      </trkpt>
      <trkpt lat="43.436893" lon="-5.59627">
        <ele>748.0</ele>
        <time>2021-02-14T12:39:29Z</time>
      </trkpt>
      <trkpt lat="43.436897" lon="-5.596264">
        <ele>748.0</ele>
        <time>2021-02-14T12:39:30Z</time>
      </trkpt>
      <trkpt lat="43.4369" lon="-5.596257">
        <ele>748.0</ele>
        <time>2021-02-14T12:39:31Z</time>
      </trkpt>
      <trkpt lat="43.436913" lon="-5.59625">
        <ele>748.0</ele>
        <time>2021-02-14T12:39:32Z</time>
      </trkpt>
      <trkpt lat="43.436916" lon="-5.5962405">
        <ele>748.0</ele>
        <time>2021-02-14T12:39:33Z</time>
      </trkpt>
      <trkpt lat="43.436928" lon="-5.5962296">
        <ele>748.0</ele>
        <time>2021-02-14T12:39:34Z</time>
      </trkpt>
      <trkpt lat="43.43694" lon="-5.596222">
        <ele>748.0</ele>
        <time>2021-02-14T12:39:35Z</time>
      </trkpt>
      <trkpt lat="43.436947" lon="-5.596214">
        <ele>748.0</ele>
        <time>2021-02-14T12:39:36Z</time>
      </trkpt>
      <trkpt lat="43.436954" lon="-5.5962048">
        <ele>748.0</ele>
        <time>2021-02-14T12:39:37Z</time>
      </trkpt>
      <trkpt lat="43.43696" lon="-5.596194">
        <ele>748.0</ele>
        <time>2021-02-14T12:39:38Z</time>
      </trkpt>
      <trkpt lat="43.43697" lon="-5.5961857">
        <ele>748.0</ele>
        <time>2021-02-14T12:39:39Z</time>
      </trkpt>
      <trkpt lat="43.436974" lon="-5.5961785">
        <ele>748.0</ele>
        <time>2021-02-14T12:39:40Z</time>
      </trkpt>
      <trkpt lat="43.436977" lon="-5.596173">
        <ele>748.0</ele>
        <time>2021-02-14T12:39:41Z</time>
      </trkpt>
      <trkpt lat="43.43699" lon="-5.5961647">
        <ele>748.0</ele>
        <time>2021-02-14T12:39:42Z</time>
      </trkpt>
      <trkpt lat="43.437" lon="-5.596156">
        <ele>748.0</ele>
        <time>2021-02-14T12:39:43Z</time>
      </trkpt>
      <trkpt lat="43.437016" lon="-5.5961466">
        <ele>748.0</ele>
        <time>2021-02-14T12:39:44Z</time>
      </trkpt>
      <trkpt lat="43.43703" lon="-5.596137">
        <ele>747.0</ele>
        <time>2021-02-14T12:39:45Z</time>
      </trkpt>
      <trkpt lat="43.437042" lon="-5.5961266">
        <ele>747.0</ele>
        <time>2021-02-14T12:39:46Z</time>
      </trkpt>
      <trkpt lat="43.437057" lon="-5.596118">
        <ele>747.0</ele>
        <time>2021-02-14T12:39:47Z</time>
      </trkpt>
      <trkpt lat="43.437065" lon="-5.596112">
        <ele>747.0</ele>
        <time>2021-02-14T12:39:48Z</time>
      </trkpt>
      <trkpt lat="43.437077" lon="-5.596108">
        <ele>747.0</ele>
        <time>2021-02-14T12:39:49Z</time>
      </trkpt>
      <trkpt lat="43.43709" lon="-5.596104">
        <ele>747.0</ele>
        <time>2021-02-14T12:39:50Z</time>
      </trkpt>
      <trkpt lat="43.437107" lon="-5.5961003">
        <ele>747.0</ele>
        <time>2021-02-14T12:39:51Z</time>
      </trkpt>
      <trkpt lat="43.437122" lon="-5.596096">
        <ele>747.0</ele>
        <time>2021-02-14T12:39:52Z</time>
      </trkpt>
      <trkpt lat="43.437134" lon="-5.5960927">
        <ele>747.0</ele>
        <time>2021-02-14T12:39:53Z</time>
      </trkpt>
      <trkpt lat="43.43715" lon="-5.5960894">
        <ele>747.0</ele>
        <time>2021-02-14T12:39:54Z</time>
      </trkpt>
      <trkpt lat="43.437157" lon="-5.5960855">
        <ele>747.0</ele>
        <time>2021-02-14T12:39:55Z</time>
      </trkpt>
      <trkpt lat="43.43717" lon="-5.5960813">
        <ele>747.0</ele>
        <time>2021-02-14T12:39:56Z</time>
      </trkpt>
      <trkpt lat="43.437172" lon="-5.596078">
        <ele>747.0</ele>
        <time>2021-02-14T12:39:57Z</time>
      </trkpt>
      <trkpt lat="43.437183" lon="-5.5960755">
        <ele>747.0</ele>
        <time>2021-02-14T12:39:58Z</time>
      </trkpt>
      <trkpt lat="43.43719" lon="-5.596073">
        <ele>747.0</ele>
        <time>2021-02-14T12:39:59Z</time>
      </trkpt>
      <trkpt lat="43.437195" lon="-5.5960712">
        <ele>747.0</ele>
        <time>2021-02-14T12:40:00Z</time>
      </trkpt>
      <trkpt lat="43.4372" lon="-5.5960693">
        <ele>747.0</ele>
        <time>2021-02-14T12:40:01Z</time>
      </trkpt>
      <trkpt lat="43.437206" lon="-5.5960693">
        <ele>747.0</ele>
        <time>2021-02-14T12:40:02Z</time>
      </trkpt>
      <trkpt lat="43.43721" lon="-5.5960717">
        <ele>747.0</ele>
        <time>2021-02-14T12:40:03Z</time>
      </trkpt>
      <trkpt lat="43.437214" lon="-5.596075">
        <ele>747.0</ele>
        <time>2021-02-14T12:40:04Z</time>
      </trkpt>
      <trkpt lat="43.43722" lon="-5.596077">
        <ele>747.0</ele>
        <time>2021-02-14T12:40:05Z</time>
      </trkpt>
      <trkpt lat="43.437225" lon="-5.596078">
        <ele>747.0</ele>
        <time>2021-02-14T12:40:06Z</time>
      </trkpt>
      <trkpt lat="43.43723" lon="-5.596079">
        <ele>747.0</ele>
        <time>2021-02-14T12:40:07Z</time>
      </trkpt>
      <trkpt lat="43.43724" lon="-5.596078">
        <ele>747.0</ele>
        <time>2021-02-14T12:40:08Z</time>
      </trkpt>
      <trkpt lat="43.437244" lon="-5.5960774">
        <ele>747.0</ele>
        <time>2021-02-14T12:40:09Z</time>
      </trkpt>
      <trkpt lat="43.437244" lon="-5.596078">
        <ele>747.0</ele>
        <time>2021-02-14T12:40:10Z</time>
      </trkpt>
      <trkpt lat="43.437252" lon="-5.5960774">
        <ele>747.0</ele>
        <time>2021-02-14T12:40:11Z</time>
      </trkpt>
      <trkpt lat="43.437256" lon="-5.596077">
        <ele>747.0</ele>
        <time>2021-02-14T12:40:12Z</time>
      </trkpt>
      <trkpt lat="43.43726" lon="-5.5960755">
        <ele>747.0</ele>
        <time>2021-02-14T12:40:13Z</time>
      </trkpt>
      <trkpt lat="43.437267" lon="-5.596075">
        <ele>747.0</ele>
        <time>2021-02-14T12:40:14Z</time>
      </trkpt>
      <trkpt lat="43.437267" lon="-5.596075">
        <ele>747.0</ele>
        <time>2021-02-14T12:40:15Z</time>
      </trkpt>
      <trkpt lat="43.43727" lon="-5.5960736">
        <ele>747.0</ele>
        <time>2021-02-14T12:40:16Z</time>
      </trkpt>
      <trkpt lat="43.437275" lon="-5.5960693">
        <ele>747.0</ele>
        <time>2021-02-14T12:40:17Z</time>
      </trkpt>
      <trkpt lat="43.437283" lon="-5.596064">
        <ele>747.0</ele>
        <time>2021-02-14T12:40:18Z</time>
      </trkpt>
      <trkpt lat="43.437286" lon="-5.596059">
        <ele>747.0</ele>
        <time>2021-02-14T12:40:19Z</time>
      </trkpt>
      <trkpt lat="43.43729" lon="-5.5960546">
        <ele>747.0</ele>
        <time>2021-02-14T12:40:20Z</time>
      </trkpt>
      <trkpt lat="43.437298" lon="-5.5960493">
        <ele>747.0</ele>
        <time>2021-02-14T12:40:21Z</time>
      </trkpt>
      <trkpt lat="43.437305" lon="-5.5960407">
        <ele>747.0</ele>
        <time>2021-02-14T12:40:22Z</time>
      </trkpt>
      <trkpt lat="43.437313" lon="-5.5960307">
        <ele>747.0</ele>
        <time>2021-02-14T12:40:23Z</time>
      </trkpt>
      <trkpt lat="43.437317" lon="-5.5960207">
        <ele>747.0</ele>
        <time>2021-02-14T12:40:24Z</time>
      </trkpt>
      <trkpt lat="43.43732" lon="-5.59601">
        <ele>747.0</ele>
        <time>2021-02-14T12:40:25Z</time>
      </trkpt>
      <trkpt lat="43.437332" lon="-5.595999">
        <ele>747.0</ele>
        <time>2021-02-14T12:40:26Z</time>
      </trkpt>
      <trkpt lat="43.437336" lon="-5.595989">
        <ele>747.0</ele>
        <time>2021-02-14T12:40:27Z</time>
      </trkpt>
      <trkpt lat="43.437347" lon="-5.5959797">
        <ele>747.0</ele>
        <time>2021-02-14T12:40:28Z</time>
      </trkpt>
      <trkpt lat="43.43735" lon="-5.595968">
        <ele>747.0</ele>
        <time>2021-02-14T12:40:29Z</time>
      </trkpt>
      <trkpt lat="43.437363" lon="-5.5959573">
        <ele>747.0</ele>
        <time>2021-02-14T12:40:30Z</time>
      </trkpt>
      <trkpt lat="43.437366" lon="-5.595945">
        <ele>747.0</ele>
        <time>2021-02-14T12:40:31Z</time>
      </trkpt>
      <trkpt lat="43.437374" lon="-5.595931">
        <ele>747.0</ele>
        <time>2021-02-14T12:40:32Z</time>
      </trkpt>
      <trkpt lat="43.437378" lon="-5.5959163">
        <ele>747.0</ele>
        <time>2021-02-14T12:40:33Z</time>
      </trkpt>
      <trkpt lat="43.43739" lon="-5.5959">
        <ele>747.0</ele>
        <time>2021-02-14T12:40:34Z</time>
      </trkpt>
      <trkpt lat="43.437393" lon="-5.5958853">
        <ele>747.0</ele>
        <time>2021-02-14T12:40:35Z</time>
      </trkpt>
      <trkpt lat="43.437405" lon="-5.5958724">
        <ele>747.0</ele>
        <time>2021-02-14T12:40:36Z</time>
      </trkpt>
      <trkpt lat="43.437416" lon="-5.5958624">
        <ele>747.0</ele>
        <time>2021-02-14T12:40:37Z</time>
      </trkpt>
      <trkpt lat="43.437424" lon="-5.5958543">
        <ele>747.0</ele>
        <time>2021-02-14T12:40:38Z</time>
      </trkpt>
      <trkpt lat="43.437435" lon="-5.5958476">
        <ele>745.0</ele>
        <time>2021-02-14T12:40:39Z</time>
      </trkpt>
      <trkpt lat="43.43745" lon="-5.5958405">
        <ele>745.0</ele>
        <time>2021-02-14T12:40:40Z</time>
      </trkpt>
      <trkpt lat="43.43746" lon="-5.59583">
        <ele>745.0</ele>
        <time>2021-02-14T12:40:41Z</time>
      </trkpt>
      <trkpt lat="43.43747" lon="-5.595815">
        <ele>745.0</ele>
        <time>2021-02-14T12:40:42Z</time>
      </trkpt>
      <trkpt lat="43.437477" lon="-5.595802">
        <ele>745.0</ele>
        <time>2021-02-14T12:40:43Z</time>
      </trkpt>
      <trkpt lat="43.437485" lon="-5.5957875">
        <ele>745.0</ele>
        <time>2021-02-14T12:40:44Z</time>
      </trkpt>
      <trkpt lat="43.437492" lon="-5.5957747">
        <ele>745.0</ele>
        <time>2021-02-14T12:40:45Z</time>
      </trkpt>
      <trkpt lat="43.437496" lon="-5.5957627">
        <ele>745.0</ele>
        <time>2021-02-14T12:40:46Z</time>
      </trkpt>
      <trkpt lat="43.437508" lon="-5.595752">
        <ele>745.0</ele>
        <time>2021-02-14T12:40:47Z</time>
      </trkpt>
      <trkpt lat="43.43751" lon="-5.595742">
        <ele>745.0</ele>
        <time>2021-02-14T12:40:48Z</time>
      </trkpt>
      <trkpt lat="43.437523" lon="-5.5957336">
        <ele>745.0</ele>
        <time>2021-02-14T12:40:49Z</time>
      </trkpt>
      <trkpt lat="43.43753" lon="-5.595722">
        <ele>745.0</ele>
        <time>2021-02-14T12:40:50Z</time>
      </trkpt>
      <trkpt lat="43.437542" lon="-5.595715">
        <ele>745.0</ele>
        <time>2021-02-14T12:40:51Z</time>
      </trkpt>
      <trkpt lat="43.437553" lon="-5.5957074">
        <ele>745.0</ele>
        <time>2021-02-14T12:40:52Z</time>
      </trkpt>
      <trkpt lat="43.43756" lon="-5.595702">
        <ele>745.0</ele>
        <time>2021-02-14T12:40:53Z</time>
      </trkpt>
      <trkpt lat="43.43757" lon="-5.595694">
        <ele>745.0</ele>
        <time>2021-02-14T12:40:54Z</time>
      </trkpt>
      <trkpt lat="43.43758" lon="-5.595683">
        <ele>745.0</ele>
        <time>2021-02-14T12:40:55Z</time>
      </trkpt>
      <trkpt lat="43.437584" lon="-5.595674">
        <ele>744.0</ele>
        <time>2021-02-14T12:40:56Z</time>
      </trkpt>
      <trkpt lat="43.437595" lon="-5.5956674">
        <ele>744.0</ele>
        <time>2021-02-14T12:40:57Z</time>
      </trkpt>
      <trkpt lat="43.437603" lon="-5.5956635">
        <ele>744.0</ele>
        <time>2021-02-14T12:40:58Z</time>
      </trkpt>
      <trkpt lat="43.437614" lon="-5.595662">
        <ele>744.0</ele>
        <time>2021-02-14T12:40:59Z</time>
      </trkpt>
      <trkpt lat="43.437626" lon="-5.5956607">
        <ele>744.0</ele>
        <time>2021-02-14T12:41:00Z</time>
      </trkpt>
      <trkpt lat="43.43763" lon="-5.5956583">
        <ele>744.0</ele>
        <time>2021-02-14T12:41:01Z</time>
      </trkpt>
      <trkpt lat="43.43764" lon="-5.595655">
        <ele>744.0</ele>
        <time>2021-02-14T12:41:02Z</time>
      </trkpt>
      <trkpt lat="43.43765" lon="-5.5956507">
        <ele>744.0</ele>
        <time>2021-02-14T12:41:03Z</time>
      </trkpt>
      <trkpt lat="43.437656" lon="-5.5956454">
        <ele>744.0</ele>
        <time>2021-02-14T12:41:04Z</time>
      </trkpt>
      <trkpt lat="43.43766" lon="-5.5956416">
        <ele>744.0</ele>
        <time>2021-02-14T12:41:05Z</time>
      </trkpt>
      <trkpt lat="43.437664" lon="-5.5956383">
        <ele>744.0</ele>
        <time>2021-02-14T12:41:06Z</time>
      </trkpt>
      <trkpt lat="43.43767" lon="-5.595636">
        <ele>744.0</ele>
        <time>2021-02-14T12:41:07Z</time>
      </trkpt>
      <trkpt lat="43.437675" lon="-5.5956335">
        <ele>744.0</ele>
        <time>2021-02-14T12:41:08Z</time>
      </trkpt>
      <trkpt lat="43.43768" lon="-5.5956306">
        <ele>744.0</ele>
        <time>2021-02-14T12:41:09Z</time>
      </trkpt>
      <trkpt lat="43.437687" lon="-5.5956273">
        <ele>743.0</ele>
        <time>2021-02-14T12:41:10Z</time>
      </trkpt>
      <trkpt lat="43.43769" lon="-5.5956235">
        <ele>743.0</ele>
        <time>2021-02-14T12:41:11Z</time>
      </trkpt>
      <trkpt lat="43.437695" lon="-5.5956187">
        <ele>743.0</ele>
        <time>2021-02-14T12:41:12Z</time>
      </trkpt>
      <trkpt lat="43.437702" lon="-5.5956116">
        <ele>743.0</ele>
        <time>2021-02-14T12:41:13Z</time>
      </trkpt>
      <trkpt lat="43.43771" lon="-5.595603">
        <ele>743.0</ele>
        <time>2021-02-14T12:41:14Z</time>
      </trkpt>
      <trkpt lat="43.437717" lon="-5.5955954">
        <ele>743.0</ele>
        <time>2021-02-14T12:41:15Z</time>
      </trkpt>
      <trkpt lat="43.43772" lon="-5.595589">
        <ele>743.0</ele>
        <time>2021-02-14T12:41:16Z</time>
      </trkpt>
      <trkpt lat="43.437725" lon="-5.5955815">
        <ele>743.0</ele>
        <time>2021-02-14T12:41:17Z</time>
      </trkpt>
      <trkpt lat="43.437737" lon="-5.595576">
        <ele>743.0</ele>
        <time>2021-02-14T12:41:18Z</time>
      </trkpt>
      <trkpt lat="43.43774" lon="-5.59557">
        <ele>743.0</ele>
        <time>2021-02-14T12:41:19Z</time>
      </trkpt>
      <trkpt lat="43.437748" lon="-5.5955644">
        <ele>743.0</ele>
        <time>2021-02-14T12:41:20Z</time>
      </trkpt>
      <trkpt lat="43.43775" lon="-5.595558">
        <ele>743.0</ele>
        <time>2021-02-14T12:41:21Z</time>
      </trkpt>
      <trkpt lat="43.437763" lon="-5.595554">
        <ele>743.0</ele>
        <time>2021-02-14T12:41:22Z</time>
      </trkpt>
      <trkpt lat="43.437767" lon="-5.5955486">
        <ele>743.0</ele>
        <time>2021-02-14T12:41:23Z</time>
      </trkpt>
      <trkpt lat="43.43778" lon="-5.595545">
        <ele>743.0</ele>
        <time>2021-02-14T12:41:24Z</time>
      </trkpt>
      <trkpt lat="43.437782" lon="-5.595542">
        <ele>743.0</ele>
        <time>2021-02-14T12:41:25Z</time>
      </trkpt>
      <trkpt lat="43.437794" lon="-5.5955367">
        <ele>743.0</ele>
        <time>2021-02-14T12:41:26Z</time>
      </trkpt>
      <trkpt lat="43.437805" lon="-5.5955276">
        <ele>743.0</ele>
        <time>2021-02-14T12:41:27Z</time>
      </trkpt>
      <trkpt lat="43.437813" lon="-5.5955215">
        <ele>743.0</ele>
        <time>2021-02-14T12:41:28Z</time>
      </trkpt>
      <trkpt lat="43.437824" lon="-5.595515">
        <ele>743.0</ele>
        <time>2021-02-14T12:41:29Z</time>
      </trkpt>
      <trkpt lat="43.437836" lon="-5.5955076">
        <ele>743.0</ele>
        <time>2021-02-14T12:41:30Z</time>
      </trkpt>
      <trkpt lat="43.437843" lon="-5.595502">
        <ele>743.0</ele>
        <time>2021-02-14T12:41:31Z</time>
      </trkpt>
      <trkpt lat="43.437855" lon="-5.595498">
        <ele>742.0</ele>
        <time>2021-02-14T12:41:32Z</time>
      </trkpt>
      <trkpt lat="43.437866" lon="-5.595495">
        <ele>742.0</ele>
        <time>2021-02-14T12:41:33Z</time>
      </trkpt>
      <trkpt lat="43.43787" lon="-5.5954924">
        <ele>742.0</ele>
        <time>2021-02-14T12:41:34Z</time>
      </trkpt>
      <trkpt lat="43.43788" lon="-5.5954895">
        <ele>742.0</ele>
        <time>2021-02-14T12:41:35Z</time>
      </trkpt>
      <trkpt lat="43.437885" lon="-5.595485">
        <ele>742.0</ele>
        <time>2021-02-14T12:41:36Z</time>
      </trkpt>
      <trkpt lat="43.43789" lon="-5.5954814">
        <ele>742.0</ele>
        <time>2021-02-14T12:41:37Z</time>
      </trkpt>
      <trkpt lat="43.437897" lon="-5.5954776">
        <ele>742.0</ele>
        <time>2021-02-14T12:41:38Z</time>
      </trkpt>
      <trkpt lat="43.437904" lon="-5.595474">
        <ele>742.0</ele>
        <time>2021-02-14T12:41:39Z</time>
      </trkpt>
      <trkpt lat="43.437912" lon="-5.5954695">
        <ele>742.0</ele>
        <time>2021-02-14T12:41:40Z</time>
      </trkpt>
      <trkpt lat="43.43792" lon="-5.595464">
        <ele>742.0</ele>
        <time>2021-02-14T12:41:41Z</time>
      </trkpt>
      <trkpt lat="43.43793" lon="-5.595458">
        <ele>742.0</ele>
        <time>2021-02-14T12:41:42Z</time>
      </trkpt>
      <trkpt lat="43.437935" lon="-5.5954514">
        <ele>742.0</ele>
        <time>2021-02-14T12:41:43Z</time>
      </trkpt>
      <trkpt lat="43.437946" lon="-5.5954437">
        <ele>742.0</ele>
        <time>2021-02-14T12:41:44Z</time>
      </trkpt>
      <trkpt lat="43.43795" lon="-5.5954347">
        <ele>742.0</ele>
        <time>2021-02-14T12:41:45Z</time>
      </trkpt>
      <trkpt lat="43.43796" lon="-5.595427">
        <ele>742.0</ele>
        <time>2021-02-14T12:41:46Z</time>
      </trkpt>
      <trkpt lat="43.43797" lon="-5.595419">
        <ele>742.0</ele>
        <time>2021-02-14T12:41:47Z</time>
      </trkpt>
      <trkpt lat="43.437973" lon="-5.59541">
        <ele>742.0</ele>
        <time>2021-02-14T12:41:48Z</time>
      </trkpt>
      <trkpt lat="43.437977" lon="-5.595402">
        <ele>742.0</ele>
        <time>2021-02-14T12:41:49Z</time>
      </trkpt>
      <trkpt lat="43.437984" lon="-5.5953927">
        <ele>742.0</ele>
        <time>2021-02-14T12:41:50Z</time>
      </trkpt>
      <trkpt lat="43.437992" lon="-5.595385">
        <ele>742.0</ele>
        <time>2021-02-14T12:41:51Z</time>
      </trkpt>
      <trkpt lat="43.438" lon="-5.595378">
        <ele>742.0</ele>
        <time>2021-02-14T12:41:52Z</time>
      </trkpt>
      <trkpt lat="43.438007" lon="-5.595371">
        <ele>742.0</ele>
        <time>2021-02-14T12:41:53Z</time>
      </trkpt>
      <trkpt lat="43.438015" lon="-5.595365">
        <ele>742.0</ele>
        <time>2021-02-14T12:41:54Z</time>
      </trkpt>
      <trkpt lat="43.438023" lon="-5.595359">
        <ele>742.0</ele>
        <time>2021-02-14T12:41:55Z</time>
      </trkpt>
      <trkpt lat="43.43803" lon="-5.595354">
        <ele>742.0</ele>
        <time>2021-02-14T12:41:56Z</time>
      </trkpt>
      <trkpt lat="43.438038" lon="-5.595348">
        <ele>742.0</ele>
        <time>2021-02-14T12:41:57Z</time>
      </trkpt>
      <trkpt lat="43.438046" lon="-5.595339">
        <ele>742.0</ele>
        <time>2021-02-14T12:41:58Z</time>
      </trkpt>
      <trkpt lat="43.438053" lon="-5.5953298">
        <ele>742.0</ele>
        <time>2021-02-14T12:41:59Z</time>
      </trkpt>
      <trkpt lat="43.43806" lon="-5.595322">
        <ele>742.0</ele>
        <time>2021-02-14T12:42:00Z</time>
      </trkpt>
      <trkpt lat="43.43807" lon="-5.5953145">
        <ele>742.0</ele>
        <time>2021-02-14T12:42:01Z</time>
      </trkpt>
      <trkpt lat="43.43808" lon="-5.5953093">
        <ele>742.0</ele>
        <time>2021-02-14T12:42:02Z</time>
      </trkpt>
      <trkpt lat="43.438084" lon="-5.5953074">
        <ele>742.0</ele>
        <time>2021-02-14T12:42:03Z</time>
      </trkpt>
      <trkpt lat="43.438095" lon="-5.5953074">
        <ele>742.0</ele>
        <time>2021-02-14T12:42:04Z</time>
      </trkpt>
      <trkpt lat="43.438107" lon="-5.5953093">
        <ele>742.0</ele>
        <time>2021-02-14T12:42:05Z</time>
      </trkpt>
      <trkpt lat="43.438114" lon="-5.595312">
        <ele>742.0</ele>
        <time>2021-02-14T12:42:06Z</time>
      </trkpt>
      <trkpt lat="43.438126" lon="-5.595318">
        <ele>742.0</ele>
        <time>2021-02-14T12:42:07Z</time>
      </trkpt>
      <trkpt lat="43.438137" lon="-5.595324">
        <ele>742.0</ele>
        <time>2021-02-14T12:42:08Z</time>
      </trkpt>
      <trkpt lat="43.438145" lon="-5.5953317">
        <ele>742.0</ele>
        <time>2021-02-14T12:42:09Z</time>
      </trkpt>
      <trkpt lat="43.438156" lon="-5.595342">
        <ele>742.0</ele>
        <time>2021-02-14T12:42:10Z</time>
      </trkpt>
      <trkpt lat="43.438168" lon="-5.5953517">
        <ele>742.0</ele>
        <time>2021-02-14T12:42:11Z</time>
      </trkpt>
      <trkpt lat="43.43818" lon="-5.5953627">
        <ele>742.0</ele>
        <time>2021-02-14T12:42:12Z</time>
      </trkpt>
      <trkpt lat="43.438187" lon="-5.595374">
        <ele>742.0</ele>
        <time>2021-02-14T12:42:13Z</time>
      </trkpt>
      <trkpt lat="43.438194" lon="-5.595383">
        <ele>742.0</ele>
        <time>2021-02-14T12:42:14Z</time>
      </trkpt>
      <trkpt lat="43.438198" lon="-5.595391">
        <ele>742.0</ele>
        <time>2021-02-14T12:42:15Z</time>
      </trkpt>
      <trkpt lat="43.438198" lon="-5.595395">
        <ele>742.0</ele>
        <time>2021-02-14T12:42:16Z</time>
      </trkpt>
      <trkpt lat="43.4382" lon="-5.5953965">
        <ele>742.0</ele>
        <time>2021-02-14T12:42:17Z</time>
      </trkpt>
      <trkpt lat="43.43821" lon="-5.595395">
        <ele>742.0</ele>
        <time>2021-02-14T12:42:21Z</time>
      </trkpt>
      <trkpt lat="43.4382" lon="-5.595395">
        <ele>742.0</ele>
        <time>2021-02-14T12:42:23Z</time>
      </trkpt>
      <trkpt lat="43.4382" lon="-5.595396">
        <ele>742.0</ele>
        <time>2021-02-14T12:42:24Z</time>
      </trkpt>
      <trkpt lat="43.438198" lon="-5.595399">
        <ele>742.0</ele>
        <time>2021-02-14T12:42:27Z</time>
      </trkpt>
      <trkpt lat="43.438198" lon="-5.595399">
        <ele>742.0</ele>
        <time>2021-02-14T12:42:28Z</time>
      </trkpt>
      <trkpt lat="43.438198" lon="-5.595401">
        <ele>742.0</ele>
        <time>2021-02-14T12:42:29Z</time>
      </trkpt>
      <trkpt lat="43.438198" lon="-5.5954027">
        <ele>742.0</ele>
        <time>2021-02-14T12:42:30Z</time>
      </trkpt>
      <trkpt lat="43.4382" lon="-5.5954065">
        <ele>742.0</ele>
        <time>2021-02-14T12:42:31Z</time>
      </trkpt>
      <trkpt lat="43.4382" lon="-5.59541">
        <ele>742.0</ele>
        <time>2021-02-14T12:42:32Z</time>
      </trkpt>
      <trkpt lat="43.43821" lon="-5.5954137">
        <ele>742.0</ele>
        <time>2021-02-14T12:42:33Z</time>
      </trkpt>
      <trkpt lat="43.438213" lon="-5.5954185">
        <ele>742.0</ele>
        <time>2021-02-14T12:42:34Z</time>
      </trkpt>
      <trkpt lat="43.438213" lon="-5.5954213">
        <ele>742.0</ele>
        <time>2021-02-14T12:42:35Z</time>
      </trkpt>
      <trkpt lat="43.43823" lon="-5.5954285">
        <ele>742.0</ele>
        <time>2021-02-14T12:42:37Z</time>
      </trkpt>
      <trkpt lat="43.43823" lon="-5.595428">
        <ele>742.0</ele>
        <time>2021-02-14T12:42:38Z</time>
      </trkpt>
      <trkpt lat="43.43823" lon="-5.5954285">
        <ele>742.0</ele>
        <time>2021-02-14T12:42:42Z</time>
      </trkpt>
      <trkpt lat="43.43823" lon="-5.5954285">
        <ele>742.0</ele>
        <time>2021-02-14T12:42:45Z</time>
      </trkpt>
      <trkpt lat="43.43823" lon="-5.595424">
        <ele>742.0</ele>
        <time>2021-02-14T12:42:54Z</time>
      </trkpt>
      <trkpt lat="43.43823" lon="-5.595421">
        <ele>742.0</ele>
        <time>2021-02-14T12:42:55Z</time>
      </trkpt>
      <trkpt lat="43.43823" lon="-5.5954165">
        <ele>742.0</ele>
        <time>2021-02-14T12:42:56Z</time>
      </trkpt>
      <trkpt lat="43.43823" lon="-5.5954094">
        <ele>742.0</ele>
        <time>2021-02-14T12:42:57Z</time>
      </trkpt>
      <trkpt lat="43.438225" lon="-5.5954022">
        <ele>742.0</ele>
        <time>2021-02-14T12:42:58Z</time>
      </trkpt>
      <trkpt lat="43.43823" lon="-5.595394">
        <ele>742.0</ele>
        <time>2021-02-14T12:42:59Z</time>
      </trkpt>
      <trkpt lat="43.43823" lon="-5.595385">
        <ele>742.0</ele>
        <time>2021-02-14T12:43:00Z</time>
      </trkpt>
      <trkpt lat="43.438232" lon="-5.59538">
        <ele>742.0</ele>
        <time>2021-02-14T12:43:01Z</time>
      </trkpt>
      <trkpt lat="43.43824" lon="-5.595367">
        <ele>742.0</ele>
        <time>2021-02-14T12:43:03Z</time>
      </trkpt>
      <trkpt lat="43.438244" lon="-5.595367">
        <ele>742.0</ele>
        <time>2021-02-14T12:43:05Z</time>
      </trkpt>
      <trkpt lat="43.438248" lon="-5.595367">
        <ele>742.0</ele>
        <time>2021-02-14T12:43:06Z</time>
      </trkpt>
      <trkpt lat="43.438248" lon="-5.595368">
        <ele>742.0</ele>
        <time>2021-02-14T12:43:07Z</time>
      </trkpt>
      <trkpt lat="43.438232" lon="-5.5953774">
        <ele>742.0</ele>
        <time>2021-02-14T12:43:09Z</time>
      </trkpt>
      <trkpt lat="43.43823" lon="-5.5953774">
        <ele>742.0</ele>
        <time>2021-02-14T12:43:10Z</time>
      </trkpt>
      <trkpt lat="43.438225" lon="-5.5953755">
        <ele>742.0</ele>
        <time>2021-02-14T12:43:11Z</time>
      </trkpt>
      <trkpt lat="43.438217" lon="-5.595371">
        <ele>742.0</ele>
        <time>2021-02-14T12:43:12Z</time>
      </trkpt>
      <trkpt lat="43.43821" lon="-5.5953636">
        <ele>742.0</ele>
        <time>2021-02-14T12:43:13Z</time>
      </trkpt>
      <trkpt lat="43.4382" lon="-5.5953555">
        <ele>742.0</ele>
        <time>2021-02-14T12:43:14Z</time>
      </trkpt>
      <trkpt lat="43.438198" lon="-5.5953484">
        <ele>742.0</ele>
        <time>2021-02-14T12:43:15Z</time>
      </trkpt>
      <trkpt lat="43.438194" lon="-5.5953407">
        <ele>742.0</ele>
        <time>2021-02-14T12:43:16Z</time>
      </trkpt>
      <trkpt lat="43.438187" lon="-5.5953298">
        <ele>742.0</ele>
        <time>2021-02-14T12:43:17Z</time>
      </trkpt>
      <trkpt lat="43.438187" lon="-5.595316">
        <ele>742.0</ele>
        <time>2021-02-14T12:43:18Z</time>
      </trkpt>
      <trkpt lat="43.438183" lon="-5.5953016">
        <ele>742.0</ele>
        <time>2021-02-14T12:43:19Z</time>
      </trkpt>
      <trkpt lat="43.438183" lon="-5.5952826">
        <ele>742.0</ele>
        <time>2021-02-14T12:43:20Z</time>
      </trkpt>
      <trkpt lat="43.438183" lon="-5.59526">
        <ele>742.0</ele>
        <time>2021-02-14T12:43:21Z</time>
      </trkpt>
      <trkpt lat="43.438187" lon="-5.595239">
        <ele>742.0</ele>
        <time>2021-02-14T12:43:22Z</time>
      </trkpt>
      <trkpt lat="43.438194" lon="-5.5952187">
        <ele>742.0</ele>
        <time>2021-02-14T12:43:23Z</time>
      </trkpt>
      <trkpt lat="43.438198" lon="-5.5952015">
        <ele>742.0</ele>
        <time>2021-02-14T12:43:24Z</time>
      </trkpt>
      <trkpt lat="43.4382" lon="-5.5951877">
        <ele>742.0</ele>
        <time>2021-02-14T12:43:25Z</time>
      </trkpt>
      <trkpt lat="43.43821" lon="-5.595176">
        <ele>742.0</ele>
        <time>2021-02-14T12:43:26Z</time>
      </trkpt>
      <trkpt lat="43.438217" lon="-5.5951653">
        <ele>742.0</ele>
        <time>2021-02-14T12:43:27Z</time>
      </trkpt>
      <trkpt lat="43.438225" lon="-5.595155">
        <ele>742.0</ele>
        <time>2021-02-14T12:43:28Z</time>
      </trkpt>
      <trkpt lat="43.438225" lon="-5.5951447">
        <ele>742.0</ele>
        <time>2021-02-14T12:43:29Z</time>
      </trkpt>
      <trkpt lat="43.43823" lon="-5.5951366">
        <ele>741.0</ele>
        <time>2021-02-14T12:43:30Z</time>
      </trkpt>
      <trkpt lat="43.438232" lon="-5.595129">
        <ele>741.0</ele>
        <time>2021-02-14T12:43:31Z</time>
      </trkpt>
      <trkpt lat="43.43824" lon="-5.5951214">
        <ele>741.0</ele>
        <time>2021-02-14T12:43:32Z</time>
      </trkpt>
      <trkpt lat="43.438244" lon="-5.5951123">
        <ele>741.0</ele>
        <time>2021-02-14T12:43:33Z</time>
      </trkpt>
      <trkpt lat="43.438255" lon="-5.5951047">
        <ele>741.0</ele>
        <time>2021-02-14T12:43:34Z</time>
      </trkpt>
      <trkpt lat="43.43826" lon="-5.595097">
        <ele>741.0</ele>
        <time>2021-02-14T12:43:35Z</time>
      </trkpt>
      <trkpt lat="43.43826" lon="-5.595088">
        <ele>741.0</ele>
        <time>2021-02-14T12:43:36Z</time>
      </trkpt>
      <trkpt lat="43.438255" lon="-5.595078">
        <ele>741.0</ele>
        <time>2021-02-14T12:43:37Z</time>
      </trkpt>
      <trkpt lat="43.438255" lon="-5.595067">
        <ele>741.0</ele>
        <time>2021-02-14T12:43:38Z</time>
      </trkpt>
      <trkpt lat="43.438255" lon="-5.5950594">
        <ele>741.0</ele>
        <time>2021-02-14T12:43:39Z</time>
      </trkpt>
      <trkpt lat="43.43826" lon="-5.5950522">
        <ele>741.0</ele>
        <time>2021-02-14T12:43:40Z</time>
      </trkpt>
      <trkpt lat="43.43826" lon="-5.595043">
        <ele>741.0</ele>
        <time>2021-02-14T12:43:41Z</time>
      </trkpt>
      <trkpt lat="43.43826" lon="-5.595032">
        <ele>741.0</ele>
        <time>2021-02-14T12:43:42Z</time>
      </trkpt>
      <trkpt lat="43.438263" lon="-5.5950212">
        <ele>741.0</ele>
        <time>2021-02-14T12:43:43Z</time>
      </trkpt>
      <trkpt lat="43.438263" lon="-5.5950108">
        <ele>741.0</ele>
        <time>2021-02-14T12:43:44Z</time>
      </trkpt>
      <trkpt lat="43.438263" lon="-5.5950003">
        <ele>741.0</ele>
        <time>2021-02-14T12:43:45Z</time>
      </trkpt>
      <trkpt lat="43.43827" lon="-5.594989">
        <ele>741.0</ele>
        <time>2021-02-14T12:43:46Z</time>
      </trkpt>
      <trkpt lat="43.438274" lon="-5.5949755">
        <ele>741.0</ele>
        <time>2021-02-14T12:43:47Z</time>
      </trkpt>
      <trkpt lat="43.438274" lon="-5.5949607">
        <ele>741.0</ele>
        <time>2021-02-14T12:43:48Z</time>
      </trkpt>
      <trkpt lat="43.438274" lon="-5.5949464">
        <ele>741.0</ele>
        <time>2021-02-14T12:43:49Z</time>
      </trkpt>
      <trkpt lat="43.43828" lon="-5.594931">
        <ele>741.0</ele>
        <time>2021-02-14T12:43:50Z</time>
      </trkpt>
      <trkpt lat="43.43828" lon="-5.5949183">
        <ele>741.0</ele>
        <time>2021-02-14T12:43:51Z</time>
      </trkpt>
      <trkpt lat="43.438286" lon="-5.5948806">
        <ele>741.0</ele>
        <time>2021-02-14T12:43:53Z</time>
      </trkpt>
      <trkpt lat="43.43829" lon="-5.594869">
        <ele>741.0</ele>
        <time>2021-02-14T12:43:55Z</time>
      </trkpt>
      <trkpt lat="43.43829" lon="-5.594867">
        <ele>741.0</ele>
        <time>2021-02-14T12:43:56Z</time>
      </trkpt>
      <trkpt lat="43.438293" lon="-5.594862">
        <ele>741.0</ele>
        <time>2021-02-14T12:43:57Z</time>
      </trkpt>
      <trkpt lat="43.4383" lon="-5.594854">
        <ele>741.0</ele>
        <time>2021-02-14T12:43:58Z</time>
      </trkpt>
      <trkpt lat="43.4383" lon="-5.5948434">
        <ele>741.0</ele>
        <time>2021-02-14T12:43:59Z</time>
      </trkpt>
      <trkpt lat="43.438305" lon="-5.5948324">
        <ele>741.0</ele>
        <time>2021-02-14T12:44:00Z</time>
      </trkpt>
      <trkpt lat="43.43831" lon="-5.5948205">
        <ele>741.0</ele>
        <time>2021-02-14T12:44:01Z</time>
      </trkpt>
      <trkpt lat="43.438316" lon="-5.5948095">
        <ele>741.0</ele>
        <time>2021-02-14T12:44:02Z</time>
      </trkpt>
      <trkpt lat="43.43832" lon="-5.5948">
        <ele>741.0</ele>
        <time>2021-02-14T12:44:03Z</time>
      </trkpt>
      <trkpt lat="43.438324" lon="-5.594791">
        <ele>741.0</ele>
        <time>2021-02-14T12:44:04Z</time>
      </trkpt>
      <trkpt lat="43.43833" lon="-5.594781">
        <ele>741.0</ele>
        <time>2021-02-14T12:44:05Z</time>
      </trkpt>
      <trkpt lat="43.438335" lon="-5.5947685">
        <ele>741.0</ele>
        <time>2021-02-14T12:44:06Z</time>
      </trkpt>
      <trkpt lat="43.43834" lon="-5.594759">
        <ele>741.0</ele>
        <time>2021-02-14T12:44:07Z</time>
      </trkpt>
      <trkpt lat="43.43834" lon="-5.594751">
        <ele>741.0</ele>
        <time>2021-02-14T12:44:08Z</time>
      </trkpt>
      <trkpt lat="43.43834" lon="-5.5947404">
        <ele>741.0</ele>
        <time>2021-02-14T12:44:09Z</time>
      </trkpt>
      <trkpt lat="43.43834" lon="-5.5947285">
        <ele>741.0</ele>
        <time>2021-02-14T12:44:10Z</time>
      </trkpt>
      <trkpt lat="43.43834" lon="-5.5947156">
        <ele>741.0</ele>
        <time>2021-02-14T12:44:11Z</time>
      </trkpt>
      <trkpt lat="43.438347" lon="-5.594703">
        <ele>741.0</ele>
        <time>2021-02-14T12:44:12Z</time>
      </trkpt>
      <trkpt lat="43.43835" lon="-5.59469">
        <ele>741.0</ele>
        <time>2021-02-14T12:44:13Z</time>
      </trkpt>
      <trkpt lat="43.43836" lon="-5.594676">
        <ele>741.0</ele>
        <time>2021-02-14T12:44:14Z</time>
      </trkpt>
      <trkpt lat="43.438366" lon="-5.594661">
        <ele>741.0</ele>
        <time>2021-02-14T12:44:15Z</time>
      </trkpt>
      <trkpt lat="43.438377" lon="-5.594647">
        <ele>741.0</ele>
        <time>2021-02-14T12:44:16Z</time>
      </trkpt>
      <trkpt lat="43.43838" lon="-5.59463">
        <ele>741.0</ele>
        <time>2021-02-14T12:44:17Z</time>
      </trkpt>
      <trkpt lat="43.438393" lon="-5.594613">
        <ele>741.0</ele>
        <time>2021-02-14T12:44:18Z</time>
      </trkpt>
      <trkpt lat="43.438396" lon="-5.5945964">
        <ele>741.0</ele>
        <time>2021-02-14T12:44:19Z</time>
      </trkpt>
      <trkpt lat="43.438404" lon="-5.5945835">
        <ele>741.0</ele>
        <time>2021-02-14T12:44:20Z</time>
      </trkpt>
      <trkpt lat="43.438408" lon="-5.594572">
        <ele>743.0</ele>
        <time>2021-02-14T12:44:21Z</time>
      </trkpt>
      <trkpt lat="43.43841" lon="-5.594561">
        <ele>743.0</ele>
        <time>2021-02-14T12:44:22Z</time>
      </trkpt>
      <trkpt lat="43.438423" lon="-5.5945516">
        <ele>743.0</ele>
        <time>2021-02-14T12:44:23Z</time>
      </trkpt>
      <trkpt lat="43.438427" lon="-5.594542">
        <ele>743.0</ele>
        <time>2021-02-14T12:44:24Z</time>
      </trkpt>
      <trkpt lat="43.43844" lon="-5.594531">
        <ele>743.0</ele>
        <time>2021-02-14T12:44:25Z</time>
      </trkpt>
      <trkpt lat="43.438442" lon="-5.5945196">
        <ele>743.0</ele>
        <time>2021-02-14T12:44:26Z</time>
      </trkpt>
      <trkpt lat="43.438454" lon="-5.5945096">
        <ele>743.0</ele>
        <time>2021-02-14T12:44:27Z</time>
      </trkpt>
      <trkpt lat="43.438465" lon="-5.594499">
        <ele>743.0</ele>
        <time>2021-02-14T12:44:28Z</time>
      </trkpt>
      <trkpt lat="43.43847" lon="-5.594489">
        <ele>743.0</ele>
        <time>2021-02-14T12:44:29Z</time>
      </trkpt>
      <trkpt lat="43.43848" lon="-5.594478">
        <ele>743.0</ele>
        <time>2021-02-14T12:44:30Z</time>
      </trkpt>
      <trkpt lat="43.438484" lon="-5.594469">
        <ele>743.0</ele>
        <time>2021-02-14T12:44:31Z</time>
      </trkpt>
      <trkpt lat="43.438496" lon="-5.5944614">
        <ele>744.0</ele>
        <time>2021-02-14T12:44:32Z</time>
      </trkpt>
      <trkpt lat="43.438503" lon="-5.5944533">
        <ele>744.0</ele>
        <time>2021-02-14T12:44:33Z</time>
      </trkpt>
      <trkpt lat="43.438515" lon="-5.594446">
        <ele>744.0</ele>
        <time>2021-02-14T12:44:34Z</time>
      </trkpt>
      <trkpt lat="43.438526" lon="-5.5944376">
        <ele>744.0</ele>
        <time>2021-02-14T12:44:35Z</time>
      </trkpt>
      <trkpt lat="43.43853" lon="-5.594429">
        <ele>744.0</ele>
        <time>2021-02-14T12:44:36Z</time>
      </trkpt>
      <trkpt lat="43.438534" lon="-5.594422">
        <ele>744.0</ele>
        <time>2021-02-14T12:44:37Z</time>
      </trkpt>
      <trkpt lat="43.43854" lon="-5.594415">
        <ele>744.0</ele>
        <time>2021-02-14T12:44:38Z</time>
      </trkpt>
      <trkpt lat="43.438545" lon="-5.5944104">
        <ele>744.0</ele>
        <time>2021-02-14T12:44:39Z</time>
      </trkpt>
      <trkpt lat="43.438553" lon="-5.594407">
        <ele>744.0</ele>
        <time>2021-02-14T12:44:40Z</time>
      </trkpt>
      <trkpt lat="43.438557" lon="-5.5944014">
        <ele>744.0</ele>
        <time>2021-02-14T12:44:41Z</time>
      </trkpt>
      <trkpt lat="43.43857" lon="-5.594396">
        <ele>744.0</ele>
        <time>2021-02-14T12:44:42Z</time>
      </trkpt>
      <trkpt lat="43.438572" lon="-5.594391">
        <ele>744.0</ele>
        <time>2021-02-14T12:44:43Z</time>
      </trkpt>
      <trkpt lat="43.438576" lon="-5.5943866">
        <ele>744.0</ele>
        <time>2021-02-14T12:44:44Z</time>
      </trkpt>
      <trkpt lat="43.438587" lon="-5.594383">
        <ele>744.0</ele>
        <time>2021-02-14T12:44:45Z</time>
      </trkpt>
      <trkpt lat="43.43859" lon="-5.5943804">
        <ele>744.0</ele>
        <time>2021-02-14T12:44:46Z</time>
      </trkpt>
      <trkpt lat="43.4386" lon="-5.594377">
        <ele>744.0</ele>
        <time>2021-02-14T12:44:47Z</time>
      </trkpt>
      <trkpt lat="43.438602" lon="-5.5943737">
        <ele>744.0</ele>
        <time>2021-02-14T12:44:48Z</time>
      </trkpt>
      <trkpt lat="43.438614" lon="-5.5943704">
        <ele>744.0</ele>
        <time>2021-02-14T12:44:49Z</time>
      </trkpt>
      <trkpt lat="43.43862" lon="-5.5943685">
        <ele>744.0</ele>
        <time>2021-02-14T12:44:50Z</time>
      </trkpt>
      <trkpt lat="43.438633" lon="-5.594366">
        <ele>744.0</ele>
        <time>2021-02-14T12:44:51Z</time>
      </trkpt>
      <trkpt lat="43.438644" lon="-5.5943623">
        <ele>744.0</ele>
        <time>2021-02-14T12:44:52Z</time>
      </trkpt>
      <trkpt lat="43.438652" lon="-5.594357">
        <ele>744.0</ele>
        <time>2021-02-14T12:44:53Z</time>
      </trkpt>
      <trkpt lat="43.438663" lon="-5.594352">
        <ele>744.0</ele>
        <time>2021-02-14T12:44:54Z</time>
      </trkpt>
      <trkpt lat="43.438675" lon="-5.594346">
        <ele>744.0</ele>
        <time>2021-02-14T12:44:55Z</time>
      </trkpt>
      <trkpt lat="43.438683" lon="-5.59434">
        <ele>744.0</ele>
        <time>2021-02-14T12:44:56Z</time>
      </trkpt>
      <trkpt lat="43.438694" lon="-5.594334">
        <ele>744.0</ele>
        <time>2021-02-14T12:44:57Z</time>
      </trkpt>
      <trkpt lat="43.43871" lon="-5.594329">
        <ele>744.0</ele>
        <time>2021-02-14T12:44:58Z</time>
      </trkpt>
      <trkpt lat="43.43872" lon="-5.594323">
        <ele>744.0</ele>
        <time>2021-02-14T12:44:59Z</time>
      </trkpt>
      <trkpt lat="43.438732" lon="-5.594316">
        <ele>744.0</ele>
        <time>2021-02-14T12:45:00Z</time>
      </trkpt>
      <trkpt lat="43.438747" lon="-5.5943093">
        <ele>744.0</ele>
        <time>2021-02-14T12:45:01Z</time>
      </trkpt>
      <trkpt lat="43.438755" lon="-5.594302">
        <ele>744.0</ele>
        <time>2021-02-14T12:45:02Z</time>
      </trkpt>
      <trkpt lat="43.43877" lon="-5.5942965">
        <ele>744.0</ele>
        <time>2021-02-14T12:45:03Z</time>
      </trkpt>
      <trkpt lat="43.43878" lon="-5.5942893">
        <ele>744.0</ele>
        <time>2021-02-14T12:45:04Z</time>
      </trkpt>
      <trkpt lat="43.438797" lon="-5.594282">
        <ele>744.0</ele>
        <time>2021-02-14T12:45:05Z</time>
      </trkpt>
      <trkpt lat="43.43881" lon="-5.594276">
        <ele>744.0</ele>
        <time>2021-02-14T12:45:06Z</time>
      </trkpt>
      <trkpt lat="43.438824" lon="-5.594269">
        <ele>744.0</ele>
        <time>2021-02-14T12:45:07Z</time>
      </trkpt>
      <trkpt lat="43.43883" lon="-5.594263">
        <ele>744.0</ele>
        <time>2021-02-14T12:45:08Z</time>
      </trkpt>
      <trkpt lat="43.438843" lon="-5.594256">
        <ele>744.0</ele>
        <time>2021-02-14T12:45:09Z</time>
      </trkpt>
      <trkpt lat="43.438854" lon="-5.594249">
        <ele>744.0</ele>
        <time>2021-02-14T12:45:10Z</time>
      </trkpt>
      <trkpt lat="43.43886" lon="-5.594242">
        <ele>744.0</ele>
        <time>2021-02-14T12:45:11Z</time>
      </trkpt>
      <trkpt lat="43.438877" lon="-5.594235">
        <ele>744.0</ele>
        <time>2021-02-14T12:45:12Z</time>
      </trkpt>
      <trkpt lat="43.43889" lon="-5.5942283">
        <ele>744.0</ele>
        <time>2021-02-14T12:45:13Z</time>
      </trkpt>
      <trkpt lat="43.4389" lon="-5.594222">
        <ele>744.0</ele>
        <time>2021-02-14T12:45:14Z</time>
      </trkpt>
      <trkpt lat="43.438908" lon="-5.594215">
        <ele>744.0</ele>
        <time>2021-02-14T12:45:15Z</time>
      </trkpt>
      <trkpt lat="43.43892" lon="-5.5942087">
        <ele>744.0</ele>
        <time>2021-02-14T12:45:16Z</time>
      </trkpt>
      <trkpt lat="43.43893" lon="-5.5942073">
        <ele>744.0</ele>
        <time>2021-02-14T12:45:17Z</time>
      </trkpt>
      <trkpt lat="43.438946" lon="-5.5942054">
        <ele>744.0</ele>
        <time>2021-02-14T12:45:18Z</time>
      </trkpt>
      <trkpt lat="43.438957" lon="-5.594204">
        <ele>744.0</ele>
        <time>2021-02-14T12:45:19Z</time>
      </trkpt>
      <trkpt lat="43.439003" lon="-5.5941997">
        <ele>744.0</ele>
        <time>2021-02-14T12:45:23Z</time>
      </trkpt>
      <trkpt lat="43.439007" lon="-5.5941997">
        <ele>744.0</ele>
        <time>2021-02-14T12:45:24Z</time>
      </trkpt>
      <trkpt lat="43.439007" lon="-5.5941997">
        <ele>744.0</ele>
        <time>2021-02-14T12:45:25Z</time>
      </trkpt>
      <trkpt lat="43.43901" lon="-5.5941973">
        <ele>744.0</ele>
        <time>2021-02-14T12:45:26Z</time>
      </trkpt>
      <trkpt lat="43.43902" lon="-5.5941944">
        <ele>744.0</ele>
        <time>2021-02-14T12:45:27Z</time>
      </trkpt>
      <trkpt lat="43.439037" lon="-5.5941863">
        <ele>744.0</ele>
        <time>2021-02-14T12:45:29Z</time>
      </trkpt>
      <trkpt lat="43.439037" lon="-5.594185">
        <ele>744.0</ele>
        <time>2021-02-14T12:45:30Z</time>
      </trkpt>
      <trkpt lat="43.43904" lon="-5.5941825">
        <ele>744.0</ele>
        <time>2021-02-14T12:45:31Z</time>
      </trkpt>
      <trkpt lat="43.43905" lon="-5.5941787">
        <ele>744.0</ele>
        <time>2021-02-14T12:45:32Z</time>
      </trkpt>
      <trkpt lat="43.439056" lon="-5.594174">
        <ele>744.0</ele>
        <time>2021-02-14T12:45:33Z</time>
      </trkpt>
      <trkpt lat="43.439064" lon="-5.59417">
        <ele>744.0</ele>
        <time>2021-02-14T12:45:34Z</time>
      </trkpt>
      <trkpt lat="43.43907" lon="-5.594167">
        <ele>744.0</ele>
        <time>2021-02-14T12:45:35Z</time>
      </trkpt>
      <trkpt lat="43.439083" lon="-5.5941625">
        <ele>744.0</ele>
        <time>2021-02-14T12:45:36Z</time>
      </trkpt>
      <trkpt lat="43.439095" lon="-5.594158">
        <ele>744.0</ele>
        <time>2021-02-14T12:45:37Z</time>
      </trkpt>
      <trkpt lat="43.439102" lon="-5.5941534">
        <ele>744.0</ele>
        <time>2021-02-14T12:45:38Z</time>
      </trkpt>
      <trkpt lat="43.43911" lon="-5.5941467">
        <ele>744.0</ele>
        <time>2021-02-14T12:45:39Z</time>
      </trkpt>
      <trkpt lat="43.43912" lon="-5.5941396">
        <ele>744.0</ele>
        <time>2021-02-14T12:45:40Z</time>
      </trkpt>
      <trkpt lat="43.43913" lon="-5.5941324">
        <ele>744.0</ele>
        <time>2021-02-14T12:45:41Z</time>
      </trkpt>
      <trkpt lat="43.439144" lon="-5.5941267">
        <ele>744.0</ele>
        <time>2021-02-14T12:45:42Z</time>
      </trkpt>
      <trkpt lat="43.43916" lon="-5.594121">
        <ele>744.0</ele>
        <time>2021-02-14T12:45:43Z</time>
      </trkpt>
      <trkpt lat="43.439182" lon="-5.594119">
        <ele>744.0</ele>
        <time>2021-02-14T12:45:44Z</time>
      </trkpt>
      <trkpt lat="43.439198" lon="-5.5941167">
        <ele>744.0</ele>
        <time>2021-02-14T12:45:45Z</time>
      </trkpt>
      <trkpt lat="43.439213" lon="-5.5941133">
        <ele>744.0</ele>
        <time>2021-02-14T12:45:46Z</time>
      </trkpt>
      <trkpt lat="43.439228" lon="-5.5941114">
        <ele>744.0</ele>
        <time>2021-02-14T12:45:47Z</time>
      </trkpt>
      <trkpt lat="43.439236" lon="-5.5941086">
        <ele>744.0</ele>
        <time>2021-02-14T12:45:48Z</time>
      </trkpt>
      <trkpt lat="43.439247" lon="-5.5941043">
        <ele>744.0</ele>
        <time>2021-02-14T12:45:49Z</time>
      </trkpt>
      <trkpt lat="43.43926" lon="-5.594102">
        <ele>744.0</ele>
        <time>2021-02-14T12:45:50Z</time>
      </trkpt>
      <trkpt lat="43.439266" lon="-5.594099">
        <ele>743.0</ele>
        <time>2021-02-14T12:45:51Z</time>
      </trkpt>
      <trkpt lat="43.43928" lon="-5.594096">
        <ele>743.0</ele>
        <time>2021-02-14T12:45:52Z</time>
      </trkpt>
      <trkpt lat="43.439293" lon="-5.5940933">
        <ele>743.0</ele>
        <time>2021-02-14T12:45:53Z</time>
      </trkpt>
      <trkpt lat="43.439304" lon="-5.5940895">
        <ele>743.0</ele>
        <time>2021-02-14T12:45:54Z</time>
      </trkpt>
      <trkpt lat="43.439316" lon="-5.5940843">
        <ele>743.0</ele>
        <time>2021-02-14T12:45:55Z</time>
      </trkpt>
      <trkpt lat="43.43932" lon="-5.5940833">
        <ele>743.0</ele>
        <time>2021-02-14T12:45:56Z</time>
      </trkpt>
      <trkpt lat="43.43933" lon="-5.594084">
        <ele>743.0</ele>
        <time>2021-02-14T12:45:57Z</time>
      </trkpt>
      <trkpt lat="43.439335" lon="-5.5940843">
        <ele>743.0</ele>
        <time>2021-02-14T12:45:58Z</time>
      </trkpt>
      <trkpt lat="43.439346" lon="-5.594085">
        <ele>742.0</ele>
        <time>2021-02-14T12:45:59Z</time>
      </trkpt>
      <trkpt lat="43.439354" lon="-5.594085">
        <ele>742.0</ele>
        <time>2021-02-14T12:46:00Z</time>
      </trkpt>
      <trkpt lat="43.43936" lon="-5.5940843">
        <ele>742.0</ele>
        <time>2021-02-14T12:46:01Z</time>
      </trkpt>
      <trkpt lat="43.43937" lon="-5.594084">
        <ele>742.0</ele>
        <time>2021-02-14T12:46:02Z</time>
      </trkpt>
      <trkpt lat="43.43938" lon="-5.5940833">
        <ele>742.0</ele>
        <time>2021-02-14T12:46:03Z</time>
      </trkpt>
      <trkpt lat="43.439384" lon="-5.594082">
        <ele>742.0</ele>
        <time>2021-02-14T12:46:04Z</time>
      </trkpt>
      <trkpt lat="43.439392" lon="-5.5940795">
        <ele>742.0</ele>
        <time>2021-02-14T12:46:05Z</time>
      </trkpt>
      <trkpt lat="43.439396" lon="-5.5940776">
        <ele>742.0</ele>
        <time>2021-02-14T12:46:06Z</time>
      </trkpt>
      <trkpt lat="43.439407" lon="-5.5940766">
        <ele>742.0</ele>
        <time>2021-02-14T12:46:07Z</time>
      </trkpt>
      <trkpt lat="43.43941" lon="-5.5940766">
        <ele>742.0</ele>
        <time>2021-02-14T12:46:08Z</time>
      </trkpt>
      <trkpt lat="43.439423" lon="-5.594076">
        <ele>742.0</ele>
        <time>2021-02-14T12:46:09Z</time>
      </trkpt>
      <trkpt lat="43.43943" lon="-5.5940742">
        <ele>742.0</ele>
        <time>2021-02-14T12:46:10Z</time>
      </trkpt>
      <trkpt lat="43.43944" lon="-5.5940723">
        <ele>742.0</ele>
        <time>2021-02-14T12:46:11Z</time>
      </trkpt>
      <trkpt lat="43.439453" lon="-5.5940704">
        <ele>741.0</ele>
        <time>2021-02-14T12:46:12Z</time>
      </trkpt>
      <trkpt lat="43.43947" lon="-5.594071">
        <ele>741.0</ele>
        <time>2021-02-14T12:46:13Z</time>
      </trkpt>
      <trkpt lat="43.439476" lon="-5.594074">
        <ele>741.0</ele>
        <time>2021-02-14T12:46:14Z</time>
      </trkpt>
      <trkpt lat="43.439487" lon="-5.5940766">
        <ele>741.0</ele>
        <time>2021-02-14T12:46:15Z</time>
      </trkpt>
      <trkpt lat="43.4395" lon="-5.59408">
        <ele>741.0</ele>
        <time>2021-02-14T12:46:16Z</time>
      </trkpt>
      <trkpt lat="43.43951" lon="-5.594084">
        <ele>741.0</ele>
        <time>2021-02-14T12:46:17Z</time>
      </trkpt>
      <trkpt lat="43.439518" lon="-5.5940886">
        <ele>741.0</ele>
        <time>2021-02-14T12:46:18Z</time>
      </trkpt>
      <trkpt lat="43.439526" lon="-5.594093">
        <ele>741.0</ele>
        <time>2021-02-14T12:46:19Z</time>
      </trkpt>
      <trkpt lat="43.439533" lon="-5.594097">
        <ele>741.0</ele>
        <time>2021-02-14T12:46:20Z</time>
      </trkpt>
      <trkpt lat="43.43955" lon="-5.594102">
        <ele>741.0</ele>
        <time>2021-02-14T12:46:21Z</time>
      </trkpt>
      <trkpt lat="43.43956" lon="-5.5941067">
        <ele>741.0</ele>
        <time>2021-02-14T12:46:22Z</time>
      </trkpt>
      <trkpt lat="43.43957" lon="-5.594113">
        <ele>741.0</ele>
        <time>2021-02-14T12:46:23Z</time>
      </trkpt>
      <trkpt lat="43.43958" lon="-5.594119">
        <ele>741.0</ele>
        <time>2021-02-14T12:46:24Z</time>
      </trkpt>
      <trkpt lat="43.439594" lon="-5.5941286">
        <ele>741.0</ele>
        <time>2021-02-14T12:46:25Z</time>
      </trkpt>
      <trkpt lat="43.43961" lon="-5.5941377">
        <ele>740.0</ele>
        <time>2021-02-14T12:46:26Z</time>
      </trkpt>
      <trkpt lat="43.43962" lon="-5.594146">
        <ele>740.0</ele>
        <time>2021-02-14T12:46:27Z</time>
      </trkpt>
      <trkpt lat="43.439636" lon="-5.5941544">
        <ele>740.0</ele>
        <time>2021-02-14T12:46:28Z</time>
      </trkpt>
      <trkpt lat="43.439648" lon="-5.5941625">
        <ele>740.0</ele>
        <time>2021-02-14T12:46:29Z</time>
      </trkpt>
      <trkpt lat="43.439655" lon="-5.5941677">
        <ele>740.0</ele>
        <time>2021-02-14T12:46:30Z</time>
      </trkpt>
      <trkpt lat="43.439663" lon="-5.594171">
        <ele>740.0</ele>
        <time>2021-02-14T12:46:31Z</time>
      </trkpt>
      <trkpt lat="43.43967" lon="-5.594172">
        <ele>740.0</ele>
        <time>2021-02-14T12:46:32Z</time>
      </trkpt>
      <trkpt lat="43.43968" lon="-5.594174">
        <ele>740.0</ele>
        <time>2021-02-14T12:46:33Z</time>
      </trkpt>
      <trkpt lat="43.439686" lon="-5.5941777">
        <ele>740.0</ele>
        <time>2021-02-14T12:46:34Z</time>
      </trkpt>
      <trkpt lat="43.439697" lon="-5.594185">
        <ele>740.0</ele>
        <time>2021-02-14T12:46:35Z</time>
      </trkpt>
      <trkpt lat="43.43971" lon="-5.5941935">
        <ele>740.0</ele>
        <time>2021-02-14T12:46:36Z</time>
      </trkpt>
      <trkpt lat="43.43972" lon="-5.594204">
        <ele>739.0</ele>
        <time>2021-02-14T12:46:37Z</time>
      </trkpt>
      <trkpt lat="43.439728" lon="-5.5942125">
        <ele>739.0</ele>
        <time>2021-02-14T12:46:38Z</time>
      </trkpt>
      <trkpt lat="43.439735" lon="-5.5942197">
        <ele>739.0</ele>
        <time>2021-02-14T12:46:39Z</time>
      </trkpt>
      <trkpt lat="43.439743" lon="-5.594224">
        <ele>739.0</ele>
        <time>2021-02-14T12:46:40Z</time>
      </trkpt>
      <trkpt lat="43.439754" lon="-5.5942254">
        <ele>739.0</ele>
        <time>2021-02-14T12:46:41Z</time>
      </trkpt>
      <trkpt lat="43.439766" lon="-5.5942254">
        <ele>739.0</ele>
        <time>2021-02-14T12:46:42Z</time>
      </trkpt>
      <trkpt lat="43.439774" lon="-5.5942254">
        <ele>739.0</ele>
        <time>2021-02-14T12:46:43Z</time>
      </trkpt>
      <trkpt lat="43.439785" lon="-5.594226">
        <ele>739.0</ele>
        <time>2021-02-14T12:46:44Z</time>
      </trkpt>
      <trkpt lat="43.43981" lon="-5.5942245">
        <ele>739.0</ele>
        <time>2021-02-14T12:46:46Z</time>
      </trkpt>
      <trkpt lat="43.43981" lon="-5.5942235">
        <ele>739.0</ele>
        <time>2021-02-14T12:46:47Z</time>
      </trkpt>
      <trkpt lat="43.439816" lon="-5.5942225">
        <ele>738.0</ele>
        <time>2021-02-14T12:46:48Z</time>
      </trkpt>
      <trkpt lat="43.439827" lon="-5.5942225">
        <ele>738.0</ele>
        <time>2021-02-14T12:46:49Z</time>
      </trkpt>
      <trkpt lat="43.439835" lon="-5.5942254">
        <ele>738.0</ele>
        <time>2021-02-14T12:46:50Z</time>
      </trkpt>
      <trkpt lat="43.43985" lon="-5.594231">
        <ele>738.0</ele>
        <time>2021-02-14T12:46:51Z</time>
      </trkpt>
      <trkpt lat="43.43986" lon="-5.5942388">
        <ele>738.0</ele>
        <time>2021-02-14T12:46:52Z</time>
      </trkpt>
      <trkpt lat="43.439877" lon="-5.5942445">
        <ele>738.0</ele>
        <time>2021-02-14T12:46:53Z</time>
      </trkpt>
      <trkpt lat="43.43989" lon="-5.5942497">
        <ele>738.0</ele>
        <time>2021-02-14T12:46:54Z</time>
      </trkpt>
      <trkpt lat="43.439903" lon="-5.5942535">
        <ele>738.0</ele>
        <time>2021-02-14T12:46:55Z</time>
      </trkpt>
      <trkpt lat="43.439915" lon="-5.594256">
        <ele>738.0</ele>
        <time>2021-02-14T12:46:56Z</time>
      </trkpt>
      <trkpt lat="43.439922" lon="-5.594259">
        <ele>738.0</ele>
        <time>2021-02-14T12:46:57Z</time>
      </trkpt>
      <trkpt lat="43.439934" lon="-5.594263">
        <ele>738.0</ele>
        <time>2021-02-14T12:46:58Z</time>
      </trkpt>
      <trkpt lat="43.439945" lon="-5.594267">
        <ele>738.0</ele>
        <time>2021-02-14T12:46:59Z</time>
      </trkpt>
      <trkpt lat="43.43996" lon="-5.594274">
        <ele>738.0</ele>
        <time>2021-02-14T12:47:00Z</time>
      </trkpt>
      <trkpt lat="43.43997" lon="-5.5942817">
        <ele>738.0</ele>
        <time>2021-02-14T12:47:01Z</time>
      </trkpt>
      <trkpt lat="43.439983" lon="-5.594288">
        <ele>738.0</ele>
        <time>2021-02-14T12:47:02Z</time>
      </trkpt>
      <trkpt lat="43.44" lon="-5.5942936">
        <ele>737.0</ele>
        <time>2021-02-14T12:47:03Z</time>
      </trkpt>
      <trkpt lat="43.44001" lon="-5.5942984">
        <ele>737.0</ele>
        <time>2021-02-14T12:47:04Z</time>
      </trkpt>
      <trkpt lat="43.440025" lon="-5.594303">
        <ele>737.0</ele>
        <time>2021-02-14T12:47:05Z</time>
      </trkpt>
      <trkpt lat="43.44003" lon="-5.594308">
        <ele>737.0</ele>
        <time>2021-02-14T12:47:06Z</time>
      </trkpt>
      <trkpt lat="43.44004" lon="-5.594315">
        <ele>737.0</ele>
        <time>2021-02-14T12:47:07Z</time>
      </trkpt>
      <trkpt lat="43.440052" lon="-5.5943217">
        <ele>737.0</ele>
        <time>2021-02-14T12:47:08Z</time>
      </trkpt>
      <trkpt lat="43.440067" lon="-5.59433">
        <ele>737.0</ele>
        <time>2021-02-14T12:47:09Z</time>
      </trkpt>
      <trkpt lat="43.440075" lon="-5.5943384">
        <ele>737.0</ele>
        <time>2021-02-14T12:47:10Z</time>
      </trkpt>
      <trkpt lat="43.440086" lon="-5.594351">
        <ele>737.0</ele>
        <time>2021-02-14T12:47:11Z</time>
      </trkpt>
      <trkpt lat="43.4401" lon="-5.594361">
        <ele>737.0</ele>
        <time>2021-02-14T12:47:12Z</time>
      </trkpt>
      <trkpt lat="43.440113" lon="-5.59437">
        <ele>737.0</ele>
        <time>2021-02-14T12:47:13Z</time>
      </trkpt>
      <trkpt lat="43.440125" lon="-5.594376">
        <ele>737.0</ele>
        <time>2021-02-14T12:47:14Z</time>
      </trkpt>
      <trkpt lat="43.44013" lon="-5.5943823">
        <ele>737.0</ele>
        <time>2021-02-14T12:47:15Z</time>
      </trkpt>
      <trkpt lat="43.44014" lon="-5.594388">
        <ele>737.0</ele>
        <time>2021-02-14T12:47:16Z</time>
      </trkpt>
      <trkpt lat="43.440144" lon="-5.594394">
        <ele>737.0</ele>
        <time>2021-02-14T12:47:17Z</time>
      </trkpt>
      <trkpt lat="43.440147" lon="-5.5943995">
        <ele>737.0</ele>
        <time>2021-02-14T12:47:18Z</time>
      </trkpt>
      <trkpt lat="43.440147" lon="-5.5944047">
        <ele>737.0</ele>
        <time>2021-02-14T12:47:19Z</time>
      </trkpt>
      <trkpt lat="43.440147" lon="-5.5944085">
        <ele>737.0</ele>
        <time>2021-02-14T12:47:20Z</time>
      </trkpt>
      <trkpt lat="43.440155" lon="-5.594419">
        <ele>737.0</ele>
        <time>2021-02-14T12:47:23Z</time>
      </trkpt>
      <trkpt lat="43.440155" lon="-5.5944204">
        <ele>737.0</ele>
        <time>2021-02-14T12:47:24Z</time>
      </trkpt>
      <trkpt lat="43.44016" lon="-5.5944295">
        <ele>737.0</ele>
        <time>2021-02-14T12:47:25Z</time>
      </trkpt>
      <trkpt lat="43.44016" lon="-5.5944295">
        <ele>737.0</ele>
        <time>2021-02-14T12:47:26Z</time>
      </trkpt>
      <trkpt lat="43.440163" lon="-5.594428">
        <ele>737.0</ele>
        <time>2021-02-14T12:47:27Z</time>
      </trkpt>
      <trkpt lat="43.44017" lon="-5.594428">
        <ele>737.0</ele>
        <time>2021-02-14T12:47:28Z</time>
      </trkpt>
      <trkpt lat="43.440174" lon="-5.594423">
        <ele>737.0</ele>
        <time>2021-02-14T12:47:31Z</time>
      </trkpt>
      <trkpt lat="43.440174" lon="-5.594422">
        <ele>737.0</ele>
        <time>2021-02-14T12:47:32Z</time>
      </trkpt>
      <trkpt lat="43.440178" lon="-5.594423">
        <ele>737.0</ele>
        <time>2021-02-14T12:47:33Z</time>
      </trkpt>
      <trkpt lat="43.440178" lon="-5.594422">
        <ele>737.0</ele>
        <time>2021-02-14T12:47:34Z</time>
      </trkpt>
      <trkpt lat="43.440178" lon="-5.594421">
        <ele>737.0</ele>
        <time>2021-02-14T12:47:35Z</time>
      </trkpt>
      <trkpt lat="43.440186" lon="-5.5944204">
        <ele>737.0</ele>
        <time>2021-02-14T12:47:36Z</time>
      </trkpt>
      <trkpt lat="43.44019" lon="-5.594421">
        <ele>737.0</ele>
        <time>2021-02-14T12:47:37Z</time>
      </trkpt>
      <trkpt lat="43.440193" lon="-5.594424">
        <ele>737.0</ele>
        <time>2021-02-14T12:47:38Z</time>
      </trkpt>
      <trkpt lat="43.4402" lon="-5.594427">
        <ele>737.0</ele>
        <time>2021-02-14T12:47:39Z</time>
      </trkpt>
      <trkpt lat="43.440205" lon="-5.5944295">
        <ele>737.0</ele>
        <time>2021-02-14T12:47:40Z</time>
      </trkpt>
      <trkpt lat="43.44021" lon="-5.5944333">
        <ele>737.0</ele>
        <time>2021-02-14T12:47:41Z</time>
      </trkpt>
      <trkpt lat="43.44022" lon="-5.594437">
        <ele>737.0</ele>
        <time>2021-02-14T12:47:42Z</time>
      </trkpt>
      <trkpt lat="43.440224" lon="-5.5944414">
        <ele>737.0</ele>
        <time>2021-02-14T12:47:43Z</time>
      </trkpt>
      <trkpt lat="43.440235" lon="-5.594447">
        <ele>737.0</ele>
        <time>2021-02-14T12:47:44Z</time>
      </trkpt>
      <trkpt lat="43.440247" lon="-5.5944533">
        <ele>737.0</ele>
        <time>2021-02-14T12:47:45Z</time>
      </trkpt>
      <trkpt lat="43.440254" lon="-5.594458">
        <ele>737.0</ele>
        <time>2021-02-14T12:47:46Z</time>
      </trkpt>
      <trkpt lat="43.440266" lon="-5.594464">
        <ele>737.0</ele>
        <time>2021-02-14T12:47:47Z</time>
      </trkpt>
      <trkpt lat="43.44027" lon="-5.5944695">
        <ele>737.0</ele>
        <time>2021-02-14T12:47:48Z</time>
      </trkpt>
      <trkpt lat="43.44028" lon="-5.5944777">
        <ele>737.0</ele>
        <time>2021-02-14T12:47:49Z</time>
      </trkpt>
      <trkpt lat="43.44029" lon="-5.594489">
        <ele>737.0</ele>
        <time>2021-02-14T12:47:50Z</time>
      </trkpt>
      <trkpt lat="43.440292" lon="-5.594501">
        <ele>737.0</ele>
        <time>2021-02-14T12:47:51Z</time>
      </trkpt>
      <trkpt lat="43.440304" lon="-5.594514">
        <ele>737.0</ele>
        <time>2021-02-14T12:47:52Z</time>
      </trkpt>
      <trkpt lat="43.440308" lon="-5.5945253">
        <ele>737.0</ele>
        <time>2021-02-14T12:47:53Z</time>
      </trkpt>
      <trkpt lat="43.440323" lon="-5.594532">
        <ele>737.0</ele>
        <time>2021-02-14T12:47:54Z</time>
      </trkpt>
      <trkpt lat="43.440334" lon="-5.594535">
        <ele>737.0</ele>
        <time>2021-02-14T12:47:55Z</time>
      </trkpt>
      <trkpt lat="43.440342" lon="-5.594536">
        <ele>737.0</ele>
        <time>2021-02-14T12:47:56Z</time>
      </trkpt>
      <trkpt lat="43.440353" lon="-5.5945363">
        <ele>737.0</ele>
        <time>2021-02-14T12:47:57Z</time>
      </trkpt>
      <trkpt lat="43.440365" lon="-5.5945377">
        <ele>737.0</ele>
        <time>2021-02-14T12:47:58Z</time>
      </trkpt>
      <trkpt lat="43.44037" lon="-5.5945415">
        <ele>737.0</ele>
        <time>2021-02-14T12:47:59Z</time>
      </trkpt>
      <trkpt lat="43.44038" lon="-5.594549">
        <ele>737.0</ele>
        <time>2021-02-14T12:48:00Z</time>
      </trkpt>
      <trkpt lat="43.440388" lon="-5.5945554">
        <ele>737.0</ele>
        <time>2021-02-14T12:48:01Z</time>
      </trkpt>
      <trkpt lat="43.440395" lon="-5.594565">
        <ele>737.0</ele>
        <time>2021-02-14T12:48:02Z</time>
      </trkpt>
      <trkpt lat="43.44042" lon="-5.594589">
        <ele>737.0</ele>
        <time>2021-02-14T12:48:04Z</time>
      </trkpt>
      <trkpt lat="43.440426" lon="-5.59459">
        <ele>738.0</ele>
        <time>2021-02-14T12:48:05Z</time>
      </trkpt>
      <trkpt lat="43.44043" lon="-5.5945926">
        <ele>738.0</ele>
        <time>2021-02-14T12:48:06Z</time>
      </trkpt>
      <trkpt lat="43.44044" lon="-5.5945964">
        <ele>738.0</ele>
        <time>2021-02-14T12:48:07Z</time>
      </trkpt>
      <trkpt lat="43.440445" lon="-5.594601">
        <ele>738.0</ele>
        <time>2021-02-14T12:48:08Z</time>
      </trkpt>
      <trkpt lat="43.440456" lon="-5.594605">
        <ele>738.0</ele>
        <time>2021-02-14T12:48:09Z</time>
      </trkpt>
      <trkpt lat="43.44046" lon="-5.594608">
        <ele>738.0</ele>
        <time>2021-02-14T12:48:10Z</time>
      </trkpt>
      <trkpt lat="43.44047" lon="-5.594613">
        <ele>738.0</ele>
        <time>2021-02-14T12:48:11Z</time>
      </trkpt>
      <trkpt lat="43.440483" lon="-5.5946217">
        <ele>738.0</ele>
        <time>2021-02-14T12:48:12Z</time>
      </trkpt>
      <trkpt lat="43.44049" lon="-5.594631">
        <ele>738.0</ele>
        <time>2021-02-14T12:48:13Z</time>
      </trkpt>
      <trkpt lat="43.440506" lon="-5.59464">
        <ele>738.0</ele>
        <time>2021-02-14T12:48:14Z</time>
      </trkpt>
      <trkpt lat="43.44052" lon="-5.594647">
        <ele>738.0</ele>
        <time>2021-02-14T12:48:15Z</time>
      </trkpt>
      <trkpt lat="43.440533" lon="-5.5946546">
        <ele>738.0</ele>
        <time>2021-02-14T12:48:16Z</time>
      </trkpt>
      <trkpt lat="43.440544" lon="-5.5946617">
        <ele>738.0</ele>
        <time>2021-02-14T12:48:17Z</time>
      </trkpt>
      <trkpt lat="43.44055" lon="-5.5946674">
        <ele>738.0</ele>
        <time>2021-02-14T12:48:18Z</time>
      </trkpt>
      <trkpt lat="43.440567" lon="-5.594674">
        <ele>738.0</ele>
        <time>2021-02-14T12:48:19Z</time>
      </trkpt>
      <trkpt lat="43.44058" lon="-5.5946846">
        <ele>738.0</ele>
        <time>2021-02-14T12:48:20Z</time>
      </trkpt>
      <trkpt lat="43.44059" lon="-5.594695">
        <ele>738.0</ele>
        <time>2021-02-14T12:48:21Z</time>
      </trkpt>
      <trkpt lat="43.440594" lon="-5.594706">
        <ele>738.0</ele>
        <time>2021-02-14T12:48:22Z</time>
      </trkpt>
      <trkpt lat="43.440605" lon="-5.594716">
        <ele>738.0</ele>
        <time>2021-02-14T12:48:23Z</time>
      </trkpt>
      <trkpt lat="43.440613" lon="-5.5947256">
        <ele>738.0</ele>
        <time>2021-02-14T12:48:24Z</time>
      </trkpt>
      <trkpt lat="43.440624" lon="-5.594735">
        <ele>738.0</ele>
        <time>2021-02-14T12:48:25Z</time>
      </trkpt>
      <trkpt lat="43.440636" lon="-5.5947437">
        <ele>738.0</ele>
        <time>2021-02-14T12:48:26Z</time>
      </trkpt>
      <trkpt lat="43.440643" lon="-5.594751">
        <ele>738.0</ele>
        <time>2021-02-14T12:48:27Z</time>
      </trkpt>
      <trkpt lat="43.440662" lon="-5.5947585">
        <ele>738.0</ele>
        <time>2021-02-14T12:48:28Z</time>
      </trkpt>
      <trkpt lat="43.44067" lon="-5.5947676">
        <ele>738.0</ele>
        <time>2021-02-14T12:48:29Z</time>
      </trkpt>
      <trkpt lat="43.44068" lon="-5.594777">
        <ele>738.0</ele>
        <time>2021-02-14T12:48:30Z</time>
      </trkpt>
      <trkpt lat="43.440693" lon="-5.5947847">
        <ele>738.0</ele>
        <time>2021-02-14T12:48:31Z</time>
      </trkpt>
      <trkpt lat="43.4407" lon="-5.5947924">
        <ele>738.0</ele>
        <time>2021-02-14T12:48:32Z</time>
      </trkpt>
      <trkpt lat="43.44071" lon="-5.5947995">
        <ele>738.0</ele>
        <time>2021-02-14T12:48:33Z</time>
      </trkpt>
      <trkpt lat="43.440716" lon="-5.5948052">
        <ele>738.0</ele>
        <time>2021-02-14T12:48:34Z</time>
      </trkpt>
      <trkpt lat="43.440727" lon="-5.5948114">
        <ele>738.0</ele>
        <time>2021-02-14T12:48:35Z</time>
      </trkpt>
      <trkpt lat="43.44073" lon="-5.594819">
        <ele>738.0</ele>
        <time>2021-02-14T12:48:36Z</time>
      </trkpt>
      <trkpt lat="43.440742" lon="-5.5948296">
        <ele>738.0</ele>
        <time>2021-02-14T12:48:37Z</time>
      </trkpt>
      <trkpt lat="43.440754" lon="-5.5948405">
        <ele>738.0</ele>
        <time>2021-02-14T12:48:38Z</time>
      </trkpt>
      <trkpt lat="43.44076" lon="-5.594851">
        <ele>738.0</ele>
        <time>2021-02-14T12:48:39Z</time>
      </trkpt>
      <trkpt lat="43.44077" lon="-5.5948615">
        <ele>738.0</ele>
        <time>2021-02-14T12:48:40Z</time>
      </trkpt>
      <trkpt lat="43.440777" lon="-5.594875">
        <ele>738.0</ele>
        <time>2021-02-14T12:48:41Z</time>
      </trkpt>
      <trkpt lat="43.440784" lon="-5.5948877">
        <ele>738.0</ele>
        <time>2021-02-14T12:48:42Z</time>
      </trkpt>
      <trkpt lat="43.440792" lon="-5.594899">
        <ele>737.0</ele>
        <time>2021-02-14T12:48:43Z</time>
      </trkpt>
      <trkpt lat="43.440804" lon="-5.594908">
        <ele>737.0</ele>
        <time>2021-02-14T12:48:44Z</time>
      </trkpt>
      <trkpt lat="43.440807" lon="-5.5949154">
        <ele>737.0</ele>
        <time>2021-02-14T12:48:45Z</time>
      </trkpt>
      <trkpt lat="43.440807" lon="-5.5949216">
        <ele>737.0</ele>
        <time>2021-02-14T12:48:46Z</time>
      </trkpt>
      <trkpt lat="43.440815" lon="-5.5949273">
        <ele>737.0</ele>
        <time>2021-02-14T12:48:47Z</time>
      </trkpt>
      <trkpt lat="43.44082" lon="-5.594931">
        <ele>737.0</ele>
        <time>2021-02-14T12:48:48Z</time>
      </trkpt>
      <trkpt lat="43.44083" lon="-5.594934">
        <ele>737.0</ele>
        <time>2021-02-14T12:48:49Z</time>
      </trkpt>
      <trkpt lat="43.440834" lon="-5.5949383">
        <ele>737.0</ele>
        <time>2021-02-14T12:48:50Z</time>
      </trkpt>
      <trkpt lat="43.440845" lon="-5.5949426">
        <ele>737.0</ele>
        <time>2021-02-14T12:48:51Z</time>
      </trkpt>
      <trkpt lat="43.440857" lon="-5.5949464">
        <ele>737.0</ele>
        <time>2021-02-14T12:48:52Z</time>
      </trkpt>
      <trkpt lat="43.440865" lon="-5.594952">
        <ele>737.0</ele>
        <time>2021-02-14T12:48:53Z</time>
      </trkpt>
      <trkpt lat="43.440876" lon="-5.5949583">
        <ele>737.0</ele>
        <time>2021-02-14T12:48:54Z</time>
      </trkpt>
      <trkpt lat="43.440887" lon="-5.594965">
        <ele>737.0</ele>
        <time>2021-02-14T12:48:55Z</time>
      </trkpt>
      <trkpt lat="43.440895" lon="-5.5949736">
        <ele>737.0</ele>
        <time>2021-02-14T12:48:56Z</time>
      </trkpt>
      <trkpt lat="43.440907" lon="-5.594981">
        <ele>737.0</ele>
        <time>2021-02-14T12:48:57Z</time>
      </trkpt>
      <trkpt lat="43.44091" lon="-5.5949883">
        <ele>737.0</ele>
        <time>2021-02-14T12:48:58Z</time>
      </trkpt>
      <trkpt lat="43.44092" lon="-5.594994">
        <ele>737.0</ele>
        <time>2021-02-14T12:48:59Z</time>
      </trkpt>
      <trkpt lat="43.440926" lon="-5.5950007">
        <ele>737.0</ele>
        <time>2021-02-14T12:49:00Z</time>
      </trkpt>
      <trkpt lat="43.440933" lon="-5.5950093">
        <ele>737.0</ele>
        <time>2021-02-14T12:49:01Z</time>
      </trkpt>
      <trkpt lat="43.44094" lon="-5.595017">
        <ele>737.0</ele>
        <time>2021-02-14T12:49:02Z</time>
      </trkpt>
      <trkpt lat="43.440956" lon="-5.595034">
        <ele>737.0</ele>
        <time>2021-02-14T12:49:04Z</time>
      </trkpt>
      <trkpt lat="43.440956" lon="-5.595035">
        <ele>737.0</ele>
        <time>2021-02-14T12:49:05Z</time>
      </trkpt>
      <trkpt lat="43.440964" lon="-5.595035">
        <ele>737.0</ele>
        <time>2021-02-14T12:49:06Z</time>
      </trkpt>
      <trkpt lat="43.44097" lon="-5.595036">
        <ele>737.0</ele>
        <time>2021-02-14T12:49:07Z</time>
      </trkpt>
      <trkpt lat="43.44098" lon="-5.595039">
        <ele>737.0</ele>
        <time>2021-02-14T12:49:08Z</time>
      </trkpt>
      <trkpt lat="43.440987" lon="-5.5950446">
        <ele>737.0</ele>
        <time>2021-02-14T12:49:09Z</time>
      </trkpt>
      <trkpt lat="43.440994" lon="-5.5950503">
        <ele>737.0</ele>
        <time>2021-02-14T12:49:10Z</time>
      </trkpt>
      <trkpt lat="43.441" lon="-5.5950575">
        <ele>737.0</ele>
        <time>2021-02-14T12:49:11Z</time>
      </trkpt>
      <trkpt lat="43.441013" lon="-5.595062">
        <ele>737.0</ele>
        <time>2021-02-14T12:49:12Z</time>
      </trkpt>
      <trkpt lat="43.441025" lon="-5.595065">
        <ele>737.0</ele>
        <time>2021-02-14T12:49:13Z</time>
      </trkpt>
      <trkpt lat="43.441044" lon="-5.595071">
        <ele>737.0</ele>
        <time>2021-02-14T12:49:17Z</time>
      </trkpt>
      <trkpt lat="43.441044" lon="-5.59507">
        <ele>737.0</ele>
        <time>2021-02-14T12:49:18Z</time>
      </trkpt>
      <trkpt lat="43.44105" lon="-5.59507">
        <ele>737.0</ele>
        <time>2021-02-14T12:49:19Z</time>
      </trkpt>
      <trkpt lat="43.441055" lon="-5.595072">
        <ele>737.0</ele>
        <time>2021-02-14T12:49:20Z</time>
      </trkpt>
      <trkpt lat="43.44106" lon="-5.595075">
        <ele>737.0</ele>
        <time>2021-02-14T12:49:21Z</time>
      </trkpt>
      <trkpt lat="43.44107" lon="-5.59508">
        <ele>737.0</ele>
        <time>2021-02-14T12:49:22Z</time>
      </trkpt>
      <trkpt lat="43.441082" lon="-5.5950866">
        <ele>737.0</ele>
        <time>2021-02-14T12:49:23Z</time>
      </trkpt>
      <trkpt lat="43.44109" lon="-5.595099">
        <ele>737.0</ele>
        <time>2021-02-14T12:49:24Z</time>
      </trkpt>
      <trkpt lat="43.441097" lon="-5.595112">
        <ele>737.0</ele>
        <time>2021-02-14T12:49:25Z</time>
      </trkpt>
      <trkpt lat="43.441105" lon="-5.595124">
        <ele>737.0</ele>
        <time>2021-02-14T12:49:26Z</time>
      </trkpt>
      <trkpt lat="43.441113" lon="-5.5951347">
        <ele>737.0</ele>
        <time>2021-02-14T12:49:27Z</time>
      </trkpt>
      <trkpt lat="43.441128" lon="-5.5951447">
        <ele>737.0</ele>
        <time>2021-02-14T12:49:28Z</time>
      </trkpt>
      <trkpt lat="43.44113" lon="-5.5951533">
        <ele>737.0</ele>
        <time>2021-02-14T12:49:29Z</time>
      </trkpt>
      <trkpt lat="43.441143" lon="-5.595161">
        <ele>737.0</ele>
        <time>2021-02-14T12:49:30Z</time>
      </trkpt>
      <trkpt lat="43.44115" lon="-5.5951686">
        <ele>737.0</ele>
        <time>2021-02-14T12:49:31Z</time>
      </trkpt>
      <trkpt lat="43.441166" lon="-5.5951753">
        <ele>737.0</ele>
        <time>2021-02-14T12:49:32Z</time>
      </trkpt>
      <trkpt lat="43.441177" lon="-5.5951777">
        <ele>737.0</ele>
        <time>2021-02-14T12:49:33Z</time>
      </trkpt>
      <trkpt lat="43.44119" lon="-5.5951796">
        <ele>737.0</ele>
        <time>2021-02-14T12:49:34Z</time>
      </trkpt>
      <trkpt lat="43.441204" lon="-5.59518">
        <ele>736.0</ele>
        <time>2021-02-14T12:49:35Z</time>
      </trkpt>
      <trkpt lat="43.44121" lon="-5.595183">
        <ele>736.0</ele>
        <time>2021-02-14T12:49:36Z</time>
      </trkpt>
      <trkpt lat="43.441227" lon="-5.5951853">
        <ele>736.0</ele>
        <time>2021-02-14T12:49:37Z</time>
      </trkpt>
      <trkpt lat="43.44124" lon="-5.595191">
        <ele>736.0</ele>
        <time>2021-02-14T12:49:38Z</time>
      </trkpt>
      <trkpt lat="43.441254" lon="-5.5951986">
        <ele>736.0</ele>
        <time>2021-02-14T12:49:39Z</time>
      </trkpt>
      <trkpt lat="43.441265" lon="-5.595207">
        <ele>736.0</ele>
        <time>2021-02-14T12:49:40Z</time>
      </trkpt>
      <trkpt lat="43.441277" lon="-5.5952153">
        <ele>736.0</ele>
        <time>2021-02-14T12:49:41Z</time>
      </trkpt>
      <trkpt lat="43.441284" lon="-5.595225">
        <ele>736.0</ele>
        <time>2021-02-14T12:49:42Z</time>
      </trkpt>
      <trkpt lat="43.441296" lon="-5.5952373">
        <ele>736.0</ele>
        <time>2021-02-14T12:49:43Z</time>
      </trkpt>
      <trkpt lat="43.441307" lon="-5.595249">
        <ele>736.0</ele>
        <time>2021-02-14T12:49:44Z</time>
      </trkpt>
      <trkpt lat="43.441315" lon="-5.59526">
        <ele>736.0</ele>
        <time>2021-02-14T12:49:45Z</time>
      </trkpt>
      <trkpt lat="43.441326" lon="-5.5952706">
        <ele>736.0</ele>
        <time>2021-02-14T12:49:46Z</time>
      </trkpt>
      <trkpt lat="43.441338" lon="-5.59528">
        <ele>736.0</ele>
        <time>2021-02-14T12:49:47Z</time>
      </trkpt>
      <trkpt lat="43.44134" lon="-5.5952907">
        <ele>736.0</ele>
        <time>2021-02-14T12:49:48Z</time>
      </trkpt>
      <trkpt lat="43.441353" lon="-5.5953026">
        <ele>736.0</ele>
        <time>2021-02-14T12:49:49Z</time>
      </trkpt>
      <trkpt lat="43.44136" lon="-5.595314">
        <ele>736.0</ele>
        <time>2021-02-14T12:49:50Z</time>
      </trkpt>
      <trkpt lat="43.44137" lon="-5.595325">
        <ele>736.0</ele>
        <time>2021-02-14T12:49:51Z</time>
      </trkpt>
      <trkpt lat="43.441376" lon="-5.595335">
        <ele>736.0</ele>
        <time>2021-02-14T12:49:52Z</time>
      </trkpt>
      <trkpt lat="43.441387" lon="-5.595344">
        <ele>736.0</ele>
        <time>2021-02-14T12:49:53Z</time>
      </trkpt>
      <trkpt lat="43.4414" lon="-5.595353">
        <ele>736.0</ele>
        <time>2021-02-14T12:49:54Z</time>
      </trkpt>
      <trkpt lat="43.441406" lon="-5.595361">
        <ele>736.0</ele>
        <time>2021-02-14T12:49:55Z</time>
      </trkpt>
      <trkpt lat="43.441418" lon="-5.5953684">
        <ele>736.0</ele>
        <time>2021-02-14T12:49:56Z</time>
      </trkpt>
      <trkpt lat="43.44142" lon="-5.5953755">
        <ele>736.0</ele>
        <time>2021-02-14T12:49:57Z</time>
      </trkpt>
      <trkpt lat="43.44143" lon="-5.595383">
        <ele>736.0</ele>
        <time>2021-02-14T12:49:58Z</time>
      </trkpt>
      <trkpt lat="43.441433" lon="-5.5953894">
        <ele>736.0</ele>
        <time>2021-02-14T12:49:59Z</time>
      </trkpt>
      <trkpt lat="43.441444" lon="-5.5953965">
        <ele>736.0</ele>
        <time>2021-02-14T12:50:00Z</time>
      </trkpt>
      <trkpt lat="43.44145" lon="-5.5954022">
        <ele>736.0</ele>
        <time>2021-02-14T12:50:01Z</time>
      </trkpt>
      <trkpt lat="43.44146" lon="-5.59541">
        <ele>736.0</ele>
        <time>2021-02-14T12:50:02Z</time>
      </trkpt>
      <trkpt lat="43.441463" lon="-5.5954185">
        <ele>736.0</ele>
        <time>2021-02-14T12:50:03Z</time>
      </trkpt>
      <trkpt lat="43.441475" lon="-5.595425">
        <ele>736.0</ele>
        <time>2021-02-14T12:50:04Z</time>
      </trkpt>
      <trkpt lat="43.441486" lon="-5.595432">
        <ele>736.0</ele>
        <time>2021-02-14T12:50:05Z</time>
      </trkpt>
      <trkpt lat="43.441494" lon="-5.5954394">
        <ele>736.0</ele>
        <time>2021-02-14T12:50:06Z</time>
      </trkpt>
      <trkpt lat="43.441505" lon="-5.5954447">
        <ele>736.0</ele>
        <time>2021-02-14T12:50:07Z</time>
      </trkpt>
      <trkpt lat="43.44151" lon="-5.595449">
        <ele>736.0</ele>
        <time>2021-02-14T12:50:08Z</time>
      </trkpt>
      <trkpt lat="43.44152" lon="-5.5954514">
        <ele>736.0</ele>
        <time>2021-02-14T12:50:09Z</time>
      </trkpt>
      <trkpt lat="43.441525" lon="-5.595454">
        <ele>736.0</ele>
        <time>2021-02-14T12:50:10Z</time>
      </trkpt>
      <trkpt lat="43.441536" lon="-5.5954585">
        <ele>736.0</ele>
        <time>2021-02-14T12:50:11Z</time>
      </trkpt>
      <trkpt lat="43.44154" lon="-5.595464">
        <ele>736.0</ele>
        <time>2021-02-14T12:50:12Z</time>
      </trkpt>
      <trkpt lat="43.44155" lon="-5.595471">
        <ele>736.0</ele>
        <time>2021-02-14T12:50:13Z</time>
      </trkpt>
      <trkpt lat="43.441563" lon="-5.595477">
        <ele>736.0</ele>
        <time>2021-02-14T12:50:14Z</time>
      </trkpt>
      <trkpt lat="43.44157" lon="-5.5954833">
        <ele>736.0</ele>
        <time>2021-02-14T12:50:15Z</time>
      </trkpt>
      <trkpt lat="43.44158" lon="-5.59549">
        <ele>736.0</ele>
        <time>2021-02-14T12:50:16Z</time>
      </trkpt>
      <trkpt lat="43.441586" lon="-5.595495">
        <ele>736.0</ele>
        <time>2021-02-14T12:50:17Z</time>
      </trkpt>
      <trkpt lat="43.441593" lon="-5.595499">
        <ele>736.0</ele>
        <time>2021-02-14T12:50:18Z</time>
      </trkpt>
      <trkpt lat="43.4416" lon="-5.5955057">
        <ele>737.0</ele>
        <time>2021-02-14T12:50:19Z</time>
      </trkpt>
      <trkpt lat="43.44161" lon="-5.5955143">
        <ele>737.0</ele>
        <time>2021-02-14T12:50:20Z</time>
      </trkpt>
      <trkpt lat="43.441616" lon="-5.5955243">
        <ele>737.0</ele>
        <time>2021-02-14T12:50:21Z</time>
      </trkpt>
      <trkpt lat="43.441628" lon="-5.595535">
        <ele>737.0</ele>
        <time>2021-02-14T12:50:22Z</time>
      </trkpt>
      <trkpt lat="43.44164" lon="-5.595545">
        <ele>737.0</ele>
        <time>2021-02-14T12:50:23Z</time>
      </trkpt>
      <trkpt lat="43.441654" lon="-5.5955563">
        <ele>737.0</ele>
        <time>2021-02-14T12:50:24Z</time>
      </trkpt>
      <trkpt lat="43.441666" lon="-5.595567">
        <ele>737.0</ele>
        <time>2021-02-14T12:50:25Z</time>
      </trkpt>
      <trkpt lat="43.44167" lon="-5.5955763">
        <ele>737.0</ele>
        <time>2021-02-14T12:50:26Z</time>
      </trkpt>
      <trkpt lat="43.44168" lon="-5.595584">
        <ele>737.0</ele>
        <time>2021-02-14T12:50:27Z</time>
      </trkpt>
      <trkpt lat="43.441685" lon="-5.5955915">
        <ele>737.0</ele>
        <time>2021-02-14T12:50:28Z</time>
      </trkpt>
      <trkpt lat="43.44169" lon="-5.595599">
        <ele>737.0</ele>
        <time>2021-02-14T12:50:29Z</time>
      </trkpt>
      <trkpt lat="43.4417" lon="-5.5956078">
        <ele>737.0</ele>
        <time>2021-02-14T12:50:30Z</time>
      </trkpt>
      <trkpt lat="43.441704" lon="-5.5956154">
        <ele>737.0</ele>
        <time>2021-02-14T12:50:31Z</time>
      </trkpt>
      <trkpt lat="43.441715" lon="-5.5956244">
        <ele>737.0</ele>
        <time>2021-02-14T12:50:32Z</time>
      </trkpt>
      <trkpt lat="43.441727" lon="-5.595634">
        <ele>737.0</ele>
        <time>2021-02-14T12:50:33Z</time>
      </trkpt>
      <trkpt lat="43.441734" lon="-5.5956435">
        <ele>737.0</ele>
        <time>2021-02-14T12:50:34Z</time>
      </trkpt>
      <trkpt lat="43.441746" lon="-5.5956535">
        <ele>737.0</ele>
        <time>2021-02-14T12:50:35Z</time>
      </trkpt>
      <trkpt lat="43.441757" lon="-5.5956645">
        <ele>737.0</ele>
        <time>2021-02-14T12:50:36Z</time>
      </trkpt>
      <trkpt lat="43.44176" lon="-5.5956736">
        <ele>737.0</ele>
        <time>2021-02-14T12:50:37Z</time>
      </trkpt>
      <trkpt lat="43.441765" lon="-5.59568">
        <ele>737.0</ele>
        <time>2021-02-14T12:50:38Z</time>
      </trkpt>
      <trkpt lat="43.441772" lon="-5.595685">
        <ele>737.0</ele>
        <time>2021-02-14T12:50:39Z</time>
      </trkpt>
      <trkpt lat="43.441776" lon="-5.5956936">
        <ele>737.0</ele>
        <time>2021-02-14T12:50:40Z</time>
      </trkpt>
      <trkpt lat="43.44179" lon="-5.595713">
        <ele>737.0</ele>
        <time>2021-02-14T12:50:42Z</time>
      </trkpt>
      <trkpt lat="43.44179" lon="-5.595716">
        <ele>737.0</ele>
        <time>2021-02-14T12:50:43Z</time>
      </trkpt>
      <trkpt lat="43.441795" lon="-5.59572">
        <ele>737.0</ele>
        <time>2021-02-14T12:50:44Z</time>
      </trkpt>
      <trkpt lat="43.441807" lon="-5.5957255">
        <ele>737.0</ele>
        <time>2021-02-14T12:50:45Z</time>
      </trkpt>
      <trkpt lat="43.44182" lon="-5.595733">
        <ele>737.0</ele>
        <time>2021-02-14T12:50:46Z</time>
      </trkpt>
      <trkpt lat="43.44183" lon="-5.5957394">
        <ele>737.0</ele>
        <time>2021-02-14T12:50:47Z</time>
      </trkpt>
      <trkpt lat="43.441833" lon="-5.5957465">
        <ele>737.0</ele>
        <time>2021-02-14T12:50:48Z</time>
      </trkpt>
      <trkpt lat="43.441845" lon="-5.5957556">
        <ele>737.0</ele>
        <time>2021-02-14T12:50:49Z</time>
      </trkpt>
      <trkpt lat="43.441853" lon="-5.595765">
        <ele>737.0</ele>
        <time>2021-02-14T12:50:50Z</time>
      </trkpt>
      <trkpt lat="43.441864" lon="-5.595776">
        <ele>737.0</ele>
        <time>2021-02-14T12:50:51Z</time>
      </trkpt>
      <trkpt lat="43.441875" lon="-5.5957875">
        <ele>737.0</ele>
        <time>2021-02-14T12:50:52Z</time>
      </trkpt>
      <trkpt lat="43.441883" lon="-5.5957985">
        <ele>737.0</ele>
        <time>2021-02-14T12:50:53Z</time>
      </trkpt>
      <trkpt lat="43.441895" lon="-5.5958085">
        <ele>737.0</ele>
        <time>2021-02-14T12:50:54Z</time>
      </trkpt>
      <trkpt lat="43.4419" lon="-5.595821">
        <ele>737.0</ele>
        <time>2021-02-14T12:50:55Z</time>
      </trkpt>
      <trkpt lat="43.441914" lon="-5.5958357">
        <ele>737.0</ele>
        <time>2021-02-14T12:50:56Z</time>
      </trkpt>
      <trkpt lat="43.441925" lon="-5.595851">
        <ele>737.0</ele>
        <time>2021-02-14T12:50:57Z</time>
      </trkpt>
      <trkpt lat="43.441944" lon="-5.5958714">
        <ele>737.0</ele>
        <time>2021-02-14T12:50:58Z</time>
      </trkpt>
      <trkpt lat="43.44196" lon="-5.5958924">
        <ele>736.0</ele>
        <time>2021-02-14T12:50:59Z</time>
      </trkpt>
      <trkpt lat="43.441975" lon="-5.595911">
        <ele>736.0</ele>
        <time>2021-02-14T12:51:00Z</time>
      </trkpt>
      <trkpt lat="43.441986" lon="-5.595926">
        <ele>736.0</ele>
        <time>2021-02-14T12:51:01Z</time>
      </trkpt>
      <trkpt lat="43.441998" lon="-5.595936">
        <ele>736.0</ele>
        <time>2021-02-14T12:51:02Z</time>
      </trkpt>
      <trkpt lat="43.442" lon="-5.595943">
        <ele>736.0</ele>
        <time>2021-02-14T12:51:03Z</time>
      </trkpt>
      <trkpt lat="43.442013" lon="-5.59595">
        <ele>736.0</ele>
        <time>2021-02-14T12:51:04Z</time>
      </trkpt>
      <trkpt lat="43.442024" lon="-5.595956">
        <ele>735.0</ele>
        <time>2021-02-14T12:51:05Z</time>
      </trkpt>
      <trkpt lat="43.44204" lon="-5.595962">
        <ele>735.0</ele>
        <time>2021-02-14T12:51:06Z</time>
      </trkpt>
      <trkpt lat="43.442047" lon="-5.59597">
        <ele>735.0</ele>
        <time>2021-02-14T12:51:07Z</time>
      </trkpt>
      <trkpt lat="43.44206" lon="-5.5959783">
        <ele>735.0</ele>
        <time>2021-02-14T12:51:08Z</time>
      </trkpt>
      <trkpt lat="43.44207" lon="-5.595988">
        <ele>735.0</ele>
        <time>2021-02-14T12:51:09Z</time>
      </trkpt>
      <trkpt lat="43.442078" lon="-5.5959964">
        <ele>735.0</ele>
        <time>2021-02-14T12:51:10Z</time>
      </trkpt>
      <trkpt lat="43.442093" lon="-5.5960045">
        <ele>735.0</ele>
        <time>2021-02-14T12:51:11Z</time>
      </trkpt>
      <trkpt lat="43.4421" lon="-5.596012">
        <ele>735.0</ele>
        <time>2021-02-14T12:51:12Z</time>
      </trkpt>
      <trkpt lat="43.44211" lon="-5.596018">
        <ele>735.0</ele>
        <time>2021-02-14T12:51:13Z</time>
      </trkpt>
      <trkpt lat="43.442116" lon="-5.5960255">
        <ele>735.0</ele>
        <time>2021-02-14T12:51:14Z</time>
      </trkpt>
      <trkpt lat="43.442123" lon="-5.596032">
        <ele>735.0</ele>
        <time>2021-02-14T12:51:15Z</time>
      </trkpt>
      <trkpt lat="43.44213" lon="-5.596035">
        <ele>735.0</ele>
        <time>2021-02-14T12:51:16Z</time>
      </trkpt>
      <trkpt lat="43.442135" lon="-5.596038">
        <ele>735.0</ele>
        <time>2021-02-14T12:51:17Z</time>
      </trkpt>
      <trkpt lat="43.44214" lon="-5.596039">
        <ele>735.0</ele>
        <time>2021-02-14T12:51:18Z</time>
      </trkpt>
      <trkpt lat="43.442146" lon="-5.5960383">
        <ele>735.0</ele>
        <time>2021-02-14T12:51:19Z</time>
      </trkpt>
      <trkpt lat="43.44215" lon="-5.596037">
        <ele>735.0</ele>
        <time>2021-02-14T12:51:20Z</time>
      </trkpt>
      <trkpt lat="43.442154" lon="-5.5960383">
        <ele>735.0</ele>
        <time>2021-02-14T12:51:21Z</time>
      </trkpt>
      <trkpt lat="43.442165" lon="-5.5960407">
        <ele>735.0</ele>
        <time>2021-02-14T12:51:22Z</time>
      </trkpt>
      <trkpt lat="43.442177" lon="-5.5960436">
        <ele>734.0</ele>
        <time>2021-02-14T12:51:23Z</time>
      </trkpt>
      <trkpt lat="43.44218" lon="-5.5960455">
        <ele>734.0</ele>
        <time>2021-02-14T12:51:24Z</time>
      </trkpt>
      <trkpt lat="43.442196" lon="-5.596049">
        <ele>734.0</ele>
        <time>2021-02-14T12:51:25Z</time>
      </trkpt>
      <trkpt lat="43.442207" lon="-5.596055">
        <ele>734.0</ele>
        <time>2021-02-14T12:51:26Z</time>
      </trkpt>
      <trkpt lat="43.442226" lon="-5.5960627">
        <ele>734.0</ele>
        <time>2021-02-14T12:51:27Z</time>
      </trkpt>
      <trkpt lat="43.44224" lon="-5.596072">
        <ele>733.0</ele>
        <time>2021-02-14T12:51:28Z</time>
      </trkpt>
      <trkpt lat="43.442257" lon="-5.5960793">
        <ele>733.0</ele>
        <time>2021-02-14T12:51:29Z</time>
      </trkpt>
      <trkpt lat="43.442272" lon="-5.5960855">
        <ele>733.0</ele>
        <time>2021-02-14T12:51:30Z</time>
      </trkpt>
      <trkpt lat="43.442287" lon="-5.5960894">
        <ele>733.0</ele>
        <time>2021-02-14T12:51:31Z</time>
      </trkpt>
      <trkpt lat="43.4423" lon="-5.596094">
        <ele>733.0</ele>
        <time>2021-02-14T12:51:32Z</time>
      </trkpt>
      <trkpt lat="43.442314" lon="-5.5961">
        <ele>733.0</ele>
        <time>2021-02-14T12:51:33Z</time>
      </trkpt>
      <trkpt lat="43.44233" lon="-5.596105">
        <ele>732.0</ele>
        <time>2021-02-14T12:51:34Z</time>
      </trkpt>
      <trkpt lat="43.44234" lon="-5.5961127">
        <ele>732.0</ele>
        <time>2021-02-14T12:51:35Z</time>
      </trkpt>
      <trkpt lat="43.44235" lon="-5.5961204">
        <ele>732.0</ele>
        <time>2021-02-14T12:51:36Z</time>
      </trkpt>
      <trkpt lat="43.44236" lon="-5.5961256">
        <ele>732.0</ele>
        <time>2021-02-14T12:51:37Z</time>
      </trkpt>
      <trkpt lat="43.442364" lon="-5.5961294">
        <ele>732.0</ele>
        <time>2021-02-14T12:51:38Z</time>
      </trkpt>
      <trkpt lat="43.442375" lon="-5.5961275">
        <ele>732.0</ele>
        <time>2021-02-14T12:51:39Z</time>
      </trkpt>
      <trkpt lat="43.442387" lon="-5.5961246">
        <ele>731.0</ele>
        <time>2021-02-14T12:51:39Z</time>
      </trkpt>
      <trkpt lat="43.44239" lon="-5.5961227">
        <ele>731.0</ele>
        <time>2021-02-14T12:51:40Z</time>
      </trkpt>
      <trkpt lat="43.442394" lon="-5.5961237">
        <ele>731.0</ele>
        <time>2021-02-14T12:51:41Z</time>
      </trkpt>
      <trkpt lat="43.4424" lon="-5.59613">
        <ele>731.0</ele>
        <time>2021-02-14T12:51:42Z</time>
      </trkpt>
      <trkpt lat="43.442406" lon="-5.596137">
        <ele>731.0</ele>
        <time>2021-02-14T12:51:43Z</time>
      </trkpt>
      <trkpt lat="43.442413" lon="-5.5961432">
        <ele>731.0</ele>
        <time>2021-02-14T12:51:44Z</time>
      </trkpt>
      <trkpt lat="43.44242" lon="-5.5961485">
        <ele>731.0</ele>
        <time>2021-02-14T12:51:45Z</time>
      </trkpt>
      <trkpt lat="43.44243" lon="-5.5961537">
        <ele>731.0</ele>
        <time>2021-02-14T12:51:46Z</time>
      </trkpt>
      <trkpt lat="43.442436" lon="-5.5961595">
        <ele>731.0</ele>
        <time>2021-02-14T12:51:47Z</time>
      </trkpt>
      <trkpt lat="43.442448" lon="-5.596165">
        <ele>731.0</ele>
        <time>2021-02-14T12:51:48Z</time>
      </trkpt>
      <trkpt lat="43.44245" lon="-5.5961695">
        <ele>731.0</ele>
        <time>2021-02-14T12:51:49Z</time>
      </trkpt>
      <trkpt lat="43.442463" lon="-5.5961747">
        <ele>731.0</ele>
        <time>2021-02-14T12:51:50Z</time>
      </trkpt>
      <trkpt lat="43.442467" lon="-5.5961804">
        <ele>731.0</ele>
        <time>2021-02-14T12:51:51Z</time>
      </trkpt>
      <trkpt lat="43.44248" lon="-5.5961857">
        <ele>731.0</ele>
        <time>2021-02-14T12:51:52Z</time>
      </trkpt>
      <trkpt lat="43.44249" lon="-5.59619">
        <ele>731.0</ele>
        <time>2021-02-14T12:51:53Z</time>
      </trkpt>
      <trkpt lat="43.442493" lon="-5.5961947">
        <ele>731.0</ele>
        <time>2021-02-14T12:51:54Z</time>
      </trkpt>
      <trkpt lat="43.442505" lon="-5.596197">
        <ele>731.0</ele>
        <time>2021-02-14T12:51:55Z</time>
      </trkpt>
      <trkpt lat="43.44251" lon="-5.5962005">
        <ele>731.0</ele>
        <time>2021-02-14T12:51:56Z</time>
      </trkpt>
      <trkpt lat="43.44252" lon="-5.5962048">
        <ele>730.0</ele>
        <time>2021-02-14T12:51:57Z</time>
      </trkpt>
      <trkpt lat="43.442528" lon="-5.5962124">
        <ele>730.0</ele>
        <time>2021-02-14T12:51:58Z</time>
      </trkpt>
      <trkpt lat="43.44254" lon="-5.5962214">
        <ele>730.0</ele>
        <time>2021-02-14T12:51:59Z</time>
      </trkpt>
      <trkpt lat="43.44255" lon="-5.5962296">
        <ele>730.0</ele>
        <time>2021-02-14T12:52:00Z</time>
      </trkpt>
      <trkpt lat="43.442554" lon="-5.5962367">
        <ele>729.0</ele>
        <time>2021-02-14T12:52:01Z</time>
      </trkpt>
      <trkpt lat="43.442566" lon="-5.596244">
        <ele>729.0</ele>
        <time>2021-02-14T12:52:02Z</time>
      </trkpt>
      <trkpt lat="43.442574" lon="-5.59625">
        <ele>729.0</ele>
        <time>2021-02-14T12:52:03Z</time>
      </trkpt>
      <trkpt lat="43.442585" lon="-5.5962553">
        <ele>729.0</ele>
        <time>2021-02-14T12:52:04Z</time>
      </trkpt>
      <trkpt lat="43.442593" lon="-5.596261">
        <ele>729.0</ele>
        <time>2021-02-14T12:52:05Z</time>
      </trkpt>
      <trkpt lat="43.4426" lon="-5.5962667">
        <ele>728.0</ele>
        <time>2021-02-14T12:52:06Z</time>
      </trkpt>
      <trkpt lat="43.442608" lon="-5.5962715">
        <ele>728.0</ele>
        <time>2021-02-14T12:52:07Z</time>
      </trkpt>
      <trkpt lat="43.44261" lon="-5.5962763">
        <ele>728.0</ele>
        <time>2021-02-14T12:52:08Z</time>
      </trkpt>
      <trkpt lat="43.442623" lon="-5.596281">
        <ele>728.0</ele>
        <time>2021-02-14T12:52:09Z</time>
      </trkpt>
      <trkpt lat="43.442627" lon="-5.596285">
        <ele>728.0</ele>
        <time>2021-02-14T12:52:10Z</time>
      </trkpt>
      <trkpt lat="43.44264" lon="-5.596288">
        <ele>727.0</ele>
        <time>2021-02-14T12:52:11Z</time>
      </trkpt>
      <trkpt lat="43.442646" lon="-5.5962906">
        <ele>727.0</ele>
        <time>2021-02-14T12:52:12Z</time>
      </trkpt>
      <trkpt lat="43.442657" lon="-5.596294">
        <ele>727.0</ele>
        <time>2021-02-14T12:52:13Z</time>
      </trkpt>
      <trkpt lat="43.44267" lon="-5.5962963">
        <ele>727.0</ele>
        <time>2021-02-14T12:52:14Z</time>
      </trkpt>
      <trkpt lat="43.442684" lon="-5.5963">
        <ele>727.0</ele>
        <time>2021-02-14T12:52:15Z</time>
      </trkpt>
      <trkpt lat="43.4427" lon="-5.5963073">
        <ele>726.0</ele>
        <time>2021-02-14T12:52:16Z</time>
      </trkpt>
      <trkpt lat="43.442707" lon="-5.5963163">
        <ele>726.0</ele>
        <time>2021-02-14T12:52:17Z</time>
      </trkpt>
      <trkpt lat="43.442722" lon="-5.596323">
        <ele>726.0</ele>
        <time>2021-02-14T12:52:18Z</time>
      </trkpt>
      <trkpt lat="43.442734" lon="-5.5963287">
        <ele>726.0</ele>
        <time>2021-02-14T12:52:19Z</time>
      </trkpt>
      <trkpt lat="43.442738" lon="-5.596332">
        <ele>726.0</ele>
        <time>2021-02-14T12:52:20Z</time>
      </trkpt>
      <trkpt lat="43.44275" lon="-5.596333">
        <ele>725.0</ele>
        <time>2021-02-14T12:52:21Z</time>
      </trkpt>
      <trkpt lat="43.44276" lon="-5.5963316">
        <ele>725.0</ele>
        <time>2021-02-14T12:52:22Z</time>
      </trkpt>
      <trkpt lat="43.442776" lon="-5.5963306">
        <ele>725.0</ele>
        <time>2021-02-14T12:52:23Z</time>
      </trkpt>
      <trkpt lat="43.442787" lon="-5.5963316">
        <ele>725.0</ele>
        <time>2021-02-14T12:52:24Z</time>
      </trkpt>
      <trkpt lat="43.442795" lon="-5.596334">
        <ele>725.0</ele>
        <time>2021-02-14T12:52:25Z</time>
      </trkpt>
      <trkpt lat="43.442802" lon="-5.5963373">
        <ele>725.0</ele>
        <time>2021-02-14T12:52:26Z</time>
      </trkpt>
      <trkpt lat="43.442818" lon="-5.5963407">
        <ele>725.0</ele>
        <time>2021-02-14T12:52:27Z</time>
      </trkpt>
      <trkpt lat="43.442833" lon="-5.5963473">
        <ele>725.0</ele>
        <time>2021-02-14T12:52:28Z</time>
      </trkpt>
      <trkpt lat="43.44285" lon="-5.5963554">
        <ele>724.0</ele>
        <time>2021-02-14T12:52:29Z</time>
      </trkpt>
      <trkpt lat="43.442863" lon="-5.5963635">
        <ele>724.0</ele>
        <time>2021-02-14T12:52:30Z</time>
      </trkpt>
      <trkpt lat="43.44288" lon="-5.5963697">
        <ele>724.0</ele>
        <time>2021-02-14T12:52:31Z</time>
      </trkpt>
      <trkpt lat="43.442894" lon="-5.5963755">
        <ele>724.0</ele>
        <time>2021-02-14T12:52:32Z</time>
      </trkpt>
      <trkpt lat="43.4429" lon="-5.5963817">
        <ele>723.0</ele>
        <time>2021-02-14T12:52:33Z</time>
      </trkpt>
      <trkpt lat="43.442917" lon="-5.5963864">
        <ele>723.0</ele>
        <time>2021-02-14T12:52:34Z</time>
      </trkpt>
      <trkpt lat="43.44293" lon="-5.59639">
        <ele>723.0</ele>
        <time>2021-02-14T12:52:35Z</time>
      </trkpt>
      <trkpt lat="43.44294" lon="-5.5963917">
        <ele>723.0</ele>
        <time>2021-02-14T12:52:36Z</time>
      </trkpt>
      <trkpt lat="43.442947" lon="-5.596392">
        <ele>723.0</ele>
        <time>2021-02-14T12:52:37Z</time>
      </trkpt>
      <trkpt lat="43.442955" lon="-5.59639">
        <ele>722.0</ele>
        <time>2021-02-14T12:52:38Z</time>
      </trkpt>
      <trkpt lat="43.442963" lon="-5.5963864">
        <ele>722.0</ele>
        <time>2021-02-14T12:52:39Z</time>
      </trkpt>
      <trkpt lat="43.442974" lon="-5.5963817">
        <ele>722.0</ele>
        <time>2021-02-14T12:52:40Z</time>
      </trkpt>
      <trkpt lat="43.442986" lon="-5.596377">
        <ele>722.0</ele>
        <time>2021-02-14T12:52:41Z</time>
      </trkpt>
      <trkpt lat="43.443" lon="-5.596373">
        <ele>721.0</ele>
        <time>2021-02-14T12:52:42Z</time>
      </trkpt>
      <trkpt lat="43.443005" lon="-5.5963693">
        <ele>721.0</ele>
        <time>2021-02-14T12:52:43Z</time>
      </trkpt>
      <trkpt lat="43.443016" lon="-5.5963655">
        <ele>721.0</ele>
        <time>2021-02-14T12:52:44Z</time>
      </trkpt>
      <trkpt lat="43.44302" lon="-5.5963616">
        <ele>721.0</ele>
        <time>2021-02-14T12:52:45Z</time>
      </trkpt>
      <trkpt lat="43.44302" lon="-5.596356">
        <ele>720.0</ele>
        <time>2021-02-14T12:52:46Z</time>
      </trkpt>
      <trkpt lat="43.443027" lon="-5.5963492">
        <ele>720.0</ele>
        <time>2021-02-14T12:52:47Z</time>
      </trkpt>
      <trkpt lat="43.443027" lon="-5.5963445">
        <ele>720.0</ele>
        <time>2021-02-14T12:52:48Z</time>
      </trkpt>
      <trkpt lat="43.44303" lon="-5.596339">
        <ele>720.0</ele>
        <time>2021-02-14T12:52:49Z</time>
      </trkpt>
      <trkpt lat="43.443035" lon="-5.596333">
        <ele>720.0</ele>
        <time>2021-02-14T12:52:50Z</time>
      </trkpt>
      <trkpt lat="43.443043" lon="-5.5963264">
        <ele>719.0</ele>
        <time>2021-02-14T12:52:51Z</time>
      </trkpt>
      <trkpt lat="43.44305" lon="-5.596321">
        <ele>719.0</ele>
        <time>2021-02-14T12:52:52Z</time>
      </trkpt>
      <trkpt lat="43.44306" lon="-5.5963154">
        <ele>719.0</ele>
        <time>2021-02-14T12:52:53Z</time>
      </trkpt>
      <trkpt lat="43.443073" lon="-5.5963106">
        <ele>719.0</ele>
        <time>2021-02-14T12:52:54Z</time>
      </trkpt>
      <trkpt lat="43.44308" lon="-5.596306">
        <ele>718.0</ele>
        <time>2021-02-14T12:52:55Z</time>
      </trkpt>
      <trkpt lat="43.443092" lon="-5.5963016">
        <ele>718.0</ele>
        <time>2021-02-14T12:52:56Z</time>
      </trkpt>
      <trkpt lat="43.443104" lon="-5.5962987">
        <ele>718.0</ele>
        <time>2021-02-14T12:52:57Z</time>
      </trkpt>
      <trkpt lat="43.44312" lon="-5.596297">
        <ele>718.0</ele>
        <time>2021-02-14T12:52:58Z</time>
      </trkpt>
      <trkpt lat="43.443127" lon="-5.5962963">
        <ele>718.0</ele>
        <time>2021-02-14T12:52:59Z</time>
      </trkpt>
      <trkpt lat="43.44314" lon="-5.5962963">
        <ele>718.0</ele>
        <time>2021-02-14T12:53:00Z</time>
      </trkpt>
      <trkpt lat="43.443153" lon="-5.596296">
        <ele>718.0</ele>
        <time>2021-02-14T12:53:01Z</time>
      </trkpt>
      <trkpt lat="43.443165" lon="-5.596295">
        <ele>717.0</ele>
        <time>2021-02-14T12:53:02Z</time>
      </trkpt>
      <trkpt lat="43.443176" lon="-5.596292">
        <ele>717.0</ele>
        <time>2021-02-14T12:53:03Z</time>
      </trkpt>
      <trkpt lat="43.443184" lon="-5.596289">
        <ele>717.0</ele>
        <time>2021-02-14T12:53:04Z</time>
      </trkpt>
      <trkpt lat="43.443195" lon="-5.5962873">
        <ele>717.0</ele>
        <time>2021-02-14T12:53:05Z</time>
      </trkpt>
      <trkpt lat="43.443207" lon="-5.5962853">
        <ele>716.0</ele>
        <time>2021-02-14T12:53:06Z</time>
      </trkpt>
      <trkpt lat="43.443214" lon="-5.596283">
        <ele>716.0</ele>
        <time>2021-02-14T12:53:07Z</time>
      </trkpt>
      <trkpt lat="43.443226" lon="-5.5962796">
        <ele>716.0</ele>
        <time>2021-02-14T12:53:08Z</time>
      </trkpt>
      <trkpt lat="43.44323" lon="-5.5962763">
        <ele>716.0</ele>
        <time>2021-02-14T12:53:09Z</time>
      </trkpt>
      <trkpt lat="43.443237" lon="-5.596276">
        <ele>715.0</ele>
        <time>2021-02-14T12:53:10Z</time>
      </trkpt>
      <trkpt lat="43.443245" lon="-5.5962763">
        <ele>715.0</ele>
        <time>2021-02-14T12:53:11Z</time>
      </trkpt>
      <trkpt lat="43.443256" lon="-5.596278">
        <ele>715.0</ele>
        <time>2021-02-14T12:53:12Z</time>
      </trkpt>
      <trkpt lat="43.44327" lon="-5.596283">
        <ele>715.0</ele>
        <time>2021-02-14T12:53:13Z</time>
      </trkpt>
      <trkpt lat="43.44329" lon="-5.5962873">
        <ele>714.0</ele>
        <time>2021-02-14T12:53:14Z</time>
      </trkpt>
      <trkpt lat="43.443306" lon="-5.5962887">
        <ele>714.0</ele>
        <time>2021-02-14T12:53:15Z</time>
      </trkpt>
      <trkpt lat="43.443317" lon="-5.596291">
        <ele>714.0</ele>
        <time>2021-02-14T12:53:16Z</time>
      </trkpt>
      <trkpt lat="43.443333" lon="-5.596295">
        <ele>714.0</ele>
        <time>2021-02-14T12:53:17Z</time>
      </trkpt>
      <trkpt lat="43.443344" lon="-5.596297">
        <ele>713.0</ele>
        <time>2021-02-14T12:53:18Z</time>
      </trkpt>
      <trkpt lat="43.44335" lon="-5.5962987">
        <ele>713.0</ele>
        <time>2021-02-14T12:53:19Z</time>
      </trkpt>
      <trkpt lat="43.44336" lon="-5.5963006">
        <ele>713.0</ele>
        <time>2021-02-14T12:53:20Z</time>
      </trkpt>
      <trkpt lat="43.44337" lon="-5.596302">
        <ele>713.0</ele>
        <time>2021-02-14T12:53:21Z</time>
      </trkpt>
      <trkpt lat="43.443375" lon="-5.5963035">
        <ele>712.0</ele>
        <time>2021-02-14T12:53:22Z</time>
      </trkpt>
      <trkpt lat="43.44338" lon="-5.5963044">
        <ele>712.0</ele>
        <time>2021-02-14T12:53:23Z</time>
      </trkpt>
      <trkpt lat="43.44339" lon="-5.5963073">
        <ele>712.0</ele>
        <time>2021-02-14T12:53:24Z</time>
      </trkpt>
      <trkpt lat="43.4434" lon="-5.596311">
        <ele>712.0</ele>
        <time>2021-02-14T12:53:25Z</time>
      </trkpt>
      <trkpt lat="43.443405" lon="-5.596317">
        <ele>711.0</ele>
        <time>2021-02-14T12:53:26Z</time>
      </trkpt>
      <trkpt lat="43.443417" lon="-5.596326">
        <ele>711.0</ele>
        <time>2021-02-14T12:53:27Z</time>
      </trkpt>
      <trkpt lat="43.443424" lon="-5.596336">
        <ele>711.0</ele>
        <time>2021-02-14T12:53:28Z</time>
      </trkpt>
      <trkpt lat="43.443436" lon="-5.596349">
        <ele>711.0</ele>
        <time>2021-02-14T12:53:29Z</time>
      </trkpt>
      <trkpt lat="43.443447" lon="-5.5963616">
        <ele>711.0</ele>
        <time>2021-02-14T12:53:30Z</time>
      </trkpt>
      <trkpt lat="43.44345" lon="-5.5963726">
        <ele>710.0</ele>
        <time>2021-02-14T12:53:31Z</time>
      </trkpt>
      <trkpt lat="43.443455" lon="-5.5963817">
        <ele>710.0</ele>
        <time>2021-02-14T12:53:32Z</time>
      </trkpt>
      <trkpt lat="43.443462" lon="-5.5963883">
        <ele>710.0</ele>
        <time>2021-02-14T12:53:33Z</time>
      </trkpt>
      <trkpt lat="43.44347" lon="-5.5963936">
        <ele>710.0</ele>
        <time>2021-02-14T12:53:34Z</time>
      </trkpt>
      <trkpt lat="43.443478" lon="-5.596399">
        <ele>710.0</ele>
        <time>2021-02-14T12:53:35Z</time>
      </trkpt>
      <trkpt lat="43.443478" lon="-5.596404">
        <ele>710.0</ele>
        <time>2021-02-14T12:53:36Z</time>
      </trkpt>
      <trkpt lat="43.443478" lon="-5.5964103">
        <ele>710.0</ele>
        <time>2021-02-14T12:53:37Z</time>
      </trkpt>
      <trkpt lat="43.443478" lon="-5.596418">
        <ele>710.0</ele>
        <time>2021-02-14T12:53:38Z</time>
      </trkpt>
      <trkpt lat="43.44348" lon="-5.5964236">
        <ele>710.0</ele>
        <time>2021-02-14T12:53:39Z</time>
      </trkpt>
      <trkpt lat="43.44348" lon="-5.5964313">
        <ele>709.0</ele>
        <time>2021-02-14T12:53:40Z</time>
      </trkpt>
      <trkpt lat="43.443493" lon="-5.596439">
        <ele>709.0</ele>
        <time>2021-02-14T12:53:41Z</time>
      </trkpt>
      <trkpt lat="43.443497" lon="-5.5964465">
        <ele>709.0</ele>
        <time>2021-02-14T12:53:42Z</time>
      </trkpt>
      <trkpt lat="43.44351" lon="-5.5964527">
        <ele>709.0</ele>
        <time>2021-02-14T12:53:43Z</time>
      </trkpt>
      <trkpt lat="43.443512" lon="-5.5964556">
        <ele>709.0</ele>
        <time>2021-02-14T12:53:44Z</time>
      </trkpt>
      <trkpt lat="43.443523" lon="-5.5964594">
        <ele>708.0</ele>
        <time>2021-02-14T12:53:45Z</time>
      </trkpt>
      <trkpt lat="43.443527" lon="-5.5964622">
        <ele>708.0</ele>
        <time>2021-02-14T12:53:46Z</time>
      </trkpt>
      <trkpt lat="43.44354" lon="-5.5964646">
        <ele>708.0</ele>
        <time>2021-02-14T12:53:47Z</time>
      </trkpt>
      <trkpt lat="43.443542" lon="-5.5964665">
        <ele>708.0</ele>
        <time>2021-02-14T12:53:48Z</time>
      </trkpt>
      <trkpt lat="43.443554" lon="-5.59647">
        <ele>707.0</ele>
        <time>2021-02-14T12:53:49Z</time>
      </trkpt>
      <trkpt lat="43.443558" lon="-5.5964727">
        <ele>707.0</ele>
        <time>2021-02-14T12:53:50Z</time>
      </trkpt>
      <trkpt lat="43.443565" lon="-5.5964746">
        <ele>707.0</ele>
        <time>2021-02-14T12:53:51Z</time>
      </trkpt>
      <trkpt lat="43.44357" lon="-5.5964775">
        <ele>707.0</ele>
        <time>2021-02-14T12:53:52Z</time>
      </trkpt>
      <trkpt lat="43.44357" lon="-5.5964794">
        <ele>706.0</ele>
        <time>2021-02-14T12:53:53Z</time>
      </trkpt>
      <trkpt lat="43.443573" lon="-5.5964828">
        <ele>706.0</ele>
        <time>2021-02-14T12:53:54Z</time>
      </trkpt>
      <trkpt lat="43.44358" lon="-5.5964847">
        <ele>706.0</ele>
        <time>2021-02-14T12:53:55Z</time>
      </trkpt>
      <trkpt lat="43.443584" lon="-5.5964866">
        <ele>706.0</ele>
        <time>2021-02-14T12:53:56Z</time>
      </trkpt>
      <trkpt lat="43.44359" lon="-5.5964885">
        <ele>705.0</ele>
        <time>2021-02-14T12:53:57Z</time>
      </trkpt>
      <trkpt lat="43.4436" lon="-5.5964913">
        <ele>705.0</ele>
        <time>2021-02-14T12:53:58Z</time>
      </trkpt>
      <trkpt lat="43.44361" lon="-5.596498">
        <ele>705.0</ele>
        <time>2021-02-14T12:53:59Z</time>
      </trkpt>
      <trkpt lat="43.443626" lon="-5.5965037">
        <ele>704.0</ele>
        <time>2021-02-14T12:54:00Z</time>
      </trkpt>
      <trkpt lat="43.443634" lon="-5.596509">
        <ele>704.0</ele>
        <time>2021-02-14T12:54:01Z</time>
      </trkpt>
      <trkpt lat="43.44365" lon="-5.596512">
        <ele>704.0</ele>
        <time>2021-02-14T12:54:02Z</time>
      </trkpt>
      <trkpt lat="43.44366" lon="-5.596515">
        <ele>704.0</ele>
        <time>2021-02-14T12:54:03Z</time>
      </trkpt>
      <trkpt lat="43.443676" lon="-5.5965166">
        <ele>704.0</ele>
        <time>2021-02-14T12:54:04Z</time>
      </trkpt>
      <trkpt lat="43.443687" lon="-5.596519">
        <ele>704.0</ele>
        <time>2021-02-14T12:54:05Z</time>
      </trkpt>
      <trkpt lat="43.443695" lon="-5.596523">
        <ele>704.0</ele>
        <time>2021-02-14T12:54:06Z</time>
      </trkpt>
      <trkpt lat="43.44371" lon="-5.5965266">
        <ele>703.0</ele>
        <time>2021-02-14T12:54:07Z</time>
      </trkpt>
      <trkpt lat="43.44372" lon="-5.5965314">
        <ele>703.0</ele>
        <time>2021-02-14T12:54:08Z</time>
      </trkpt>
      <trkpt lat="43.443737" lon="-5.596537">
        <ele>703.0</ele>
        <time>2021-02-14T12:54:09Z</time>
      </trkpt>
      <trkpt lat="43.443752" lon="-5.596544">
        <ele>703.0</ele>
        <time>2021-02-14T12:54:10Z</time>
      </trkpt>
      <trkpt lat="43.443764" lon="-5.596553">
        <ele>702.0</ele>
        <time>2021-02-14T12:54:11Z</time>
      </trkpt>
      <trkpt lat="43.443775" lon="-5.5965624">
        <ele>702.0</ele>
        <time>2021-02-14T12:54:12Z</time>
      </trkpt>
      <trkpt lat="43.443783" lon="-5.5965714">
        <ele>702.0</ele>
        <time>2021-02-14T12:54:13Z</time>
      </trkpt>
      <trkpt lat="43.443794" lon="-5.596579">
        <ele>701.0</ele>
        <time>2021-02-14T12:54:14Z</time>
      </trkpt>
      <trkpt lat="43.443798" lon="-5.5965858">
        <ele>701.0</ele>
        <time>2021-02-14T12:54:15Z</time>
      </trkpt>
      <trkpt lat="43.443806" lon="-5.59659">
        <ele>701.0</ele>
        <time>2021-02-14T12:54:16Z</time>
      </trkpt>
      <trkpt lat="43.443813" lon="-5.5965934">
        <ele>701.0</ele>
        <time>2021-02-14T12:54:17Z</time>
      </trkpt>
      <trkpt lat="43.443825" lon="-5.596597">
        <ele>700.0</ele>
        <time>2021-02-14T12:54:18Z</time>
      </trkpt>
      <trkpt lat="43.443836" lon="-5.596603">
        <ele>700.0</ele>
        <time>2021-02-14T12:54:19Z</time>
      </trkpt>
      <trkpt lat="43.44385" lon="-5.59661">
        <ele>700.0</ele>
        <time>2021-02-14T12:54:20Z</time>
      </trkpt>
      <trkpt lat="43.44386" lon="-5.596618">
        <ele>699.0</ele>
        <time>2021-02-14T12:54:21Z</time>
      </trkpt>
      <trkpt lat="43.443874" lon="-5.5966253">
        <ele>699.0</ele>
        <time>2021-02-14T12:54:22Z</time>
      </trkpt>
      <trkpt lat="43.443886" lon="-5.5966315">
        <ele>699.0</ele>
        <time>2021-02-14T12:54:23Z</time>
      </trkpt>
      <trkpt lat="43.443897" lon="-5.596639">
        <ele>699.0</ele>
        <time>2021-02-14T12:54:24Z</time>
      </trkpt>
      <trkpt lat="43.4439" lon="-5.596648">
        <ele>698.0</ele>
        <time>2021-02-14T12:54:25Z</time>
      </trkpt>
      <trkpt lat="43.443913" lon="-5.596657">
        <ele>698.0</ele>
        <time>2021-02-14T12:54:26Z</time>
      </trkpt>
      <trkpt lat="43.443916" lon="-5.5966635">
        <ele>698.0</ele>
        <time>2021-02-14T12:54:27Z</time>
      </trkpt>
      <trkpt lat="43.44392" lon="-5.5966706">
        <ele>698.0</ele>
        <time>2021-02-14T12:54:28Z</time>
      </trkpt>
      <trkpt lat="43.44393" lon="-5.5966773">
        <ele>697.0</ele>
        <time>2021-02-14T12:54:29Z</time>
      </trkpt>
      <trkpt lat="43.443935" lon="-5.596683">
        <ele>697.0</ele>
        <time>2021-02-14T12:54:30Z</time>
      </trkpt>
      <trkpt lat="43.44397" lon="-5.596698">
        <ele>697.0</ele>
        <time>2021-02-14T12:54:32Z</time>
      </trkpt>
      <trkpt lat="43.443974" lon="-5.596698">
        <ele>697.0</ele>
        <time>2021-02-14T12:54:33Z</time>
      </trkpt>
      <trkpt lat="43.443977" lon="-5.5966983">
        <ele>697.0</ele>
        <time>2021-02-14T12:54:34Z</time>
      </trkpt>
      <trkpt lat="43.44399" lon="-5.5966997">
        <ele>697.0</ele>
        <time>2021-02-14T12:54:35Z</time>
      </trkpt>
      <trkpt lat="43.444004" lon="-5.5967016">
        <ele>696.0</ele>
        <time>2021-02-14T12:54:36Z</time>
      </trkpt>
      <trkpt lat="43.444016" lon="-5.596702">
        <ele>696.0</ele>
        <time>2021-02-14T12:54:37Z</time>
      </trkpt>
      <trkpt lat="43.444023" lon="-5.5967007">
        <ele>696.0</ele>
        <time>2021-02-14T12:54:38Z</time>
      </trkpt>
      <trkpt lat="43.44404" lon="-5.596697">
        <ele>695.0</ele>
        <time>2021-02-14T12:54:39Z</time>
      </trkpt>
      <trkpt lat="43.44405" lon="-5.5966907">
        <ele>695.0</ele>
        <time>2021-02-14T12:54:40Z</time>
      </trkpt>
      <trkpt lat="43.444065" lon="-5.5966854">
        <ele>695.0</ele>
        <time>2021-02-14T12:54:41Z</time>
      </trkpt>
      <trkpt lat="43.444084" lon="-5.59668">
        <ele>695.0</ele>
        <time>2021-02-14T12:54:42Z</time>
      </trkpt>
      <trkpt lat="43.444107" lon="-5.5966763">
        <ele>694.0</ele>
        <time>2021-02-14T12:54:43Z</time>
      </trkpt>
      <trkpt lat="43.444122" lon="-5.5966735">
        <ele>694.0</ele>
        <time>2021-02-14T12:54:44Z</time>
      </trkpt>
      <trkpt lat="43.444138" lon="-5.5966682">
        <ele>694.0</ele>
        <time>2021-02-14T12:54:45Z</time>
      </trkpt>
      <trkpt lat="43.444153" lon="-5.596665">
        <ele>694.0</ele>
        <time>2021-02-14T12:54:46Z</time>
      </trkpt>
      <trkpt lat="43.444168" lon="-5.596663">
        <ele>694.0</ele>
        <time>2021-02-14T12:54:47Z</time>
      </trkpt>
      <trkpt lat="43.44418" lon="-5.5966635">
        <ele>693.0</ele>
        <time>2021-02-14T12:54:48Z</time>
      </trkpt>
      <trkpt lat="43.444187" lon="-5.596665">
        <ele>693.0</ele>
        <time>2021-02-14T12:54:49Z</time>
      </trkpt>
      <trkpt lat="43.444195" lon="-5.5966654">
        <ele>693.0</ele>
        <time>2021-02-14T12:54:50Z</time>
      </trkpt>
      <trkpt lat="43.444202" lon="-5.5966663">
        <ele>693.0</ele>
        <time>2021-02-14T12:54:51Z</time>
      </trkpt>
      <trkpt lat="43.44421" lon="-5.596665">
        <ele>692.0</ele>
        <time>2021-02-14T12:54:52Z</time>
      </trkpt>
      <trkpt lat="43.444218" lon="-5.596663">
        <ele>692.0</ele>
        <time>2021-02-14T12:54:53Z</time>
      </trkpt>
      <trkpt lat="43.44423" lon="-5.5966597">
        <ele>692.0</ele>
        <time>2021-02-14T12:54:54Z</time>
      </trkpt>
      <trkpt lat="43.444233" lon="-5.5966578">
        <ele>692.0</ele>
        <time>2021-02-14T12:54:55Z</time>
      </trkpt>
      <trkpt lat="43.44424" lon="-5.596655">
        <ele>691.0</ele>
        <time>2021-02-14T12:54:56Z</time>
      </trkpt>
      <trkpt lat="43.44425" lon="-5.596651">
        <ele>691.0</ele>
        <time>2021-02-14T12:54:57Z</time>
      </trkpt>
      <trkpt lat="43.444263" lon="-5.596649">
        <ele>691.0</ele>
        <time>2021-02-14T12:54:58Z</time>
      </trkpt>
      <trkpt lat="43.44428" lon="-5.596649">
        <ele>691.0</ele>
        <time>2021-02-14T12:54:59Z</time>
      </trkpt>
      <trkpt lat="43.4443" lon="-5.5966516">
        <ele>690.0</ele>
        <time>2021-02-14T12:55:00Z</time>
      </trkpt>
      <trkpt lat="43.44431" lon="-5.596652">
        <ele>690.0</ele>
        <time>2021-02-14T12:55:01Z</time>
      </trkpt>
      <trkpt lat="43.44432" lon="-5.596652">
        <ele>690.0</ele>
        <time>2021-02-14T12:55:02Z</time>
      </trkpt>
      <trkpt lat="43.444332" lon="-5.5966477">
        <ele>690.0</ele>
        <time>2021-02-14T12:55:03Z</time>
      </trkpt>
      <trkpt lat="43.444344" lon="-5.596641">
        <ele>689.0</ele>
        <time>2021-02-14T12:55:04Z</time>
      </trkpt>
      <trkpt lat="43.44435" lon="-5.5966334">
        <ele>689.0</ele>
        <time>2021-02-14T12:55:05Z</time>
      </trkpt>
      <trkpt lat="43.444363" lon="-5.5966268">
        <ele>689.0</ele>
        <time>2021-02-14T12:55:06Z</time>
      </trkpt>
      <trkpt lat="43.444378" lon="-5.596622">
        <ele>689.0</ele>
        <time>2021-02-14T12:55:07Z</time>
      </trkpt>
      <trkpt lat="43.44439" lon="-5.596618">
        <ele>688.0</ele>
        <time>2021-02-14T12:55:08Z</time>
      </trkpt>
      <trkpt lat="43.444405" lon="-5.596615">
        <ele>688.0</ele>
        <time>2021-02-14T12:55:09Z</time>
      </trkpt>
      <trkpt lat="43.44442" lon="-5.596613">
        <ele>688.0</ele>
        <time>2021-02-14T12:55:10Z</time>
      </trkpt>
      <trkpt lat="43.444435" lon="-5.596609">
        <ele>688.0</ele>
        <time>2021-02-14T12:55:11Z</time>
      </trkpt>
      <trkpt lat="43.444443" lon="-5.5966086">
        <ele>688.0</ele>
        <time>2021-02-14T12:55:12Z</time>
      </trkpt>
      <trkpt lat="43.444458" lon="-5.596607">
        <ele>688.0</ele>
        <time>2021-02-14T12:55:13Z</time>
      </trkpt>
      <trkpt lat="43.444473" lon="-5.5966053">
        <ele>688.0</ele>
        <time>2021-02-14T12:55:14Z</time>
      </trkpt>
      <trkpt lat="43.44449" lon="-5.5966043">
        <ele>688.0</ele>
        <time>2021-02-14T12:55:15Z</time>
      </trkpt>
      <trkpt lat="43.444504" lon="-5.5966043">
        <ele>687.0</ele>
        <time>2021-02-14T12:55:16Z</time>
      </trkpt>
      <trkpt lat="43.444523" lon="-5.596605">
        <ele>687.0</ele>
        <time>2021-02-14T12:55:17Z</time>
      </trkpt>
      <trkpt lat="43.44453" lon="-5.5966063">
        <ele>687.0</ele>
        <time>2021-02-14T12:55:18Z</time>
      </trkpt>
      <trkpt lat="43.44454" lon="-5.5966063">
        <ele>687.0</ele>
        <time>2021-02-14T12:55:19Z</time>
      </trkpt>
      <trkpt lat="43.444546" lon="-5.5966043">
        <ele>686.0</ele>
        <time>2021-02-14T12:55:20Z</time>
      </trkpt>
      <trkpt lat="43.444557" lon="-5.5966005">
        <ele>686.0</ele>
        <time>2021-02-14T12:55:21Z</time>
      </trkpt>
      <trkpt lat="43.44456" lon="-5.5965953">
        <ele>686.0</ele>
        <time>2021-02-14T12:55:22Z</time>
      </trkpt>
      <trkpt lat="43.44457" lon="-5.59659">
        <ele>686.0</ele>
        <time>2021-02-14T12:55:23Z</time>
      </trkpt>
      <trkpt lat="43.444572" lon="-5.596586">
        <ele>685.0</ele>
        <time>2021-02-14T12:55:24Z</time>
      </trkpt>
      <trkpt lat="43.444576" lon="-5.596583">
        <ele>685.0</ele>
        <time>2021-02-14T12:55:25Z</time>
      </trkpt>
      <trkpt lat="43.444584" lon="-5.59658">
        <ele>685.0</ele>
        <time>2021-02-14T12:55:26Z</time>
      </trkpt>
      <trkpt lat="43.444584" lon="-5.5965767">
        <ele>685.0</ele>
        <time>2021-02-14T12:55:27Z</time>
      </trkpt>
      <trkpt lat="43.44459" lon="-5.5965734">
        <ele>684.0</ele>
        <time>2021-02-14T12:55:28Z</time>
      </trkpt>
      <trkpt lat="43.4446" lon="-5.596571">
        <ele>684.0</ele>
        <time>2021-02-14T12:55:29Z</time>
      </trkpt>
      <trkpt lat="43.444607" lon="-5.596568">
        <ele>684.0</ele>
        <time>2021-02-14T12:55:30Z</time>
      </trkpt>
      <trkpt lat="43.44462" lon="-5.596564">
        <ele>683.0</ele>
        <time>2021-02-14T12:55:31Z</time>
      </trkpt>
      <trkpt lat="43.444622" lon="-5.5965595">
        <ele>683.0</ele>
        <time>2021-02-14T12:55:32Z</time>
      </trkpt>
      <trkpt lat="43.444645" lon="-5.596551">
        <ele>683.0</ele>
        <time>2021-02-14T12:55:34Z</time>
      </trkpt>
      <trkpt lat="43.444645" lon="-5.59655">
        <ele>682.0</ele>
        <time>2021-02-14T12:55:36Z</time>
      </trkpt>
      <trkpt lat="43.444645" lon="-5.5965505">
        <ele>682.0</ele>
        <time>2021-02-14T12:55:37Z</time>
      </trkpt>
      <trkpt lat="43.444653" lon="-5.596551">
        <ele>682.0</ele>
        <time>2021-02-14T12:55:41Z</time>
      </trkpt>
      <trkpt lat="43.444653" lon="-5.596543">
        <ele>681.0</ele>
        <time>2021-02-14T12:55:43Z</time>
      </trkpt>
      <trkpt lat="43.444653" lon="-5.596542">
        <ele>681.0</ele>
        <time>2021-02-14T12:55:44Z</time>
      </trkpt>
      <trkpt lat="43.444653" lon="-5.596541">
        <ele>681.0</ele>
        <time>2021-02-14T12:55:45Z</time>
      </trkpt>
      <trkpt lat="43.44466" lon="-5.5965395">
        <ele>681.0</ele>
        <time>2021-02-14T12:55:46Z</time>
      </trkpt>
      <trkpt lat="43.44466" lon="-5.596538">
        <ele>681.0</ele>
        <time>2021-02-14T12:55:47Z</time>
      </trkpt>
      <trkpt lat="43.44466" lon="-5.596536">
        <ele>681.0</ele>
        <time>2021-02-14T12:55:48Z</time>
      </trkpt>
      <trkpt lat="43.444664" lon="-5.5965343">
        <ele>681.0</ele>
        <time>2021-02-14T12:55:49Z</time>
      </trkpt>
      <trkpt lat="43.444668" lon="-5.596534">
        <ele>681.0</ele>
        <time>2021-02-14T12:55:50Z</time>
      </trkpt>
      <trkpt lat="43.444668" lon="-5.5965333">
        <ele>681.0</ele>
        <time>2021-02-14T12:55:51Z</time>
      </trkpt>
      <trkpt lat="43.444664" lon="-5.5965323">
        <ele>681.0</ele>
        <time>2021-02-14T12:55:52Z</time>
      </trkpt>
      <trkpt lat="43.444664" lon="-5.5965314">
        <ele>681.0</ele>
        <time>2021-02-14T12:55:53Z</time>
      </trkpt>
      <trkpt lat="43.444653" lon="-5.5965195">
        <ele>681.0</ele>
        <time>2021-02-14T12:56:21Z</time>
      </trkpt>
      <trkpt lat="43.444653" lon="-5.5965185">
        <ele>681.0</ele>
        <time>2021-02-14T12:56:22Z</time>
      </trkpt>
      <trkpt lat="43.444653" lon="-5.596517">
        <ele>681.0</ele>
        <time>2021-02-14T12:56:23Z</time>
      </trkpt>
      <trkpt lat="43.444653" lon="-5.5965033">
        <ele>681.0</ele>
        <time>2021-02-14T12:56:38Z</time>
      </trkpt>
      <trkpt lat="43.44466" lon="-5.5965023">
        <ele>681.0</ele>
        <time>2021-02-14T12:56:39Z</time>
      </trkpt>
      <trkpt lat="43.44466" lon="-5.596502">
        <ele>681.0</ele>
        <time>2021-02-14T12:56:40Z</time>
      </trkpt>
      <trkpt lat="43.444675" lon="-5.596506">
        <ele>681.0</ele>
        <time>2021-02-14T12:57:15Z</time>
      </trkpt>
      <trkpt lat="43.444675" lon="-5.596507">
        <ele>681.0</ele>
        <time>2021-02-14T12:57:16Z</time>
      </trkpt>
      <trkpt lat="43.444675" lon="-5.5965075">
        <ele>681.0</ele>
        <time>2021-02-14T12:57:17Z</time>
      </trkpt>
      <trkpt lat="43.44468" lon="-5.596509">
        <ele>681.0</ele>
        <time>2021-02-14T12:57:18Z</time>
      </trkpt>
      <trkpt lat="43.44469" lon="-5.596512">
        <ele>681.0</ele>
        <time>2021-02-14T12:57:19Z</time>
      </trkpt>
      <trkpt lat="43.4447" lon="-5.596515">
        <ele>681.0</ele>
        <time>2021-02-14T12:57:20Z</time>
      </trkpt>
      <trkpt lat="43.444706" lon="-5.596517">
        <ele>681.0</ele>
        <time>2021-02-14T12:57:21Z</time>
      </trkpt>
      <trkpt lat="43.444717" lon="-5.596519">
        <ele>681.0</ele>
        <time>2021-02-14T12:57:22Z</time>
      </trkpt>
      <trkpt lat="43.44472" lon="-5.5965204">
        <ele>681.0</ele>
        <time>2021-02-14T12:57:23Z</time>
      </trkpt>
      <trkpt lat="43.444733" lon="-5.596523">
        <ele>681.0</ele>
        <time>2021-02-14T12:57:24Z</time>
      </trkpt>
      <trkpt lat="43.444736" lon="-5.5965257">
        <ele>681.0</ele>
        <time>2021-02-14T12:57:25Z</time>
      </trkpt>
      <trkpt lat="43.44474" lon="-5.5965266">
        <ele>681.0</ele>
        <time>2021-02-14T12:57:26Z</time>
      </trkpt>
      <trkpt lat="43.444756" lon="-5.596526">
        <ele>681.0</ele>
        <time>2021-02-14T12:57:28Z</time>
      </trkpt>
      <trkpt lat="43.444756" lon="-5.5965257">
        <ele>681.0</ele>
        <time>2021-02-14T12:57:29Z</time>
      </trkpt>
      <trkpt lat="43.444763" lon="-5.5965257">
        <ele>681.0</ele>
        <time>2021-02-14T12:57:30Z</time>
      </trkpt>
      <trkpt lat="43.444767" lon="-5.596526">
        <ele>681.0</ele>
        <time>2021-02-14T12:57:31Z</time>
      </trkpt>
      <trkpt lat="43.44477" lon="-5.5965257">
        <ele>681.0</ele>
        <time>2021-02-14T12:57:32Z</time>
      </trkpt>
      <trkpt lat="43.444782" lon="-5.596528">
        <ele>677.0</ele>
        <time>2021-02-14T12:57:33Z</time>
      </trkpt>
      <trkpt lat="43.444786" lon="-5.5965333">
        <ele>677.0</ele>
        <time>2021-02-14T12:57:34Z</time>
      </trkpt>
      <trkpt lat="43.4448" lon="-5.596536">
        <ele>677.0</ele>
        <time>2021-02-14T12:57:36Z</time>
      </trkpt>
      <trkpt lat="43.44481" lon="-5.5965343">
        <ele>677.0</ele>
        <time>2021-02-14T12:57:38Z</time>
      </trkpt>
      <trkpt lat="43.44481" lon="-5.5965323">
        <ele>676.0</ele>
        <time>2021-02-14T12:57:39Z</time>
      </trkpt>
      <trkpt lat="43.444817" lon="-5.5965295">
        <ele>676.0</ele>
        <time>2021-02-14T12:57:40Z</time>
      </trkpt>
      <trkpt lat="43.444824" lon="-5.5965266">
        <ele>676.0</ele>
        <time>2021-02-14T12:57:41Z</time>
      </trkpt>
      <trkpt lat="43.44483" lon="-5.5965195">
        <ele>676.0</ele>
        <time>2021-02-14T12:57:43Z</time>
      </trkpt>
      <trkpt lat="43.44484" lon="-5.5965166">
        <ele>676.0</ele>
        <time>2021-02-14T12:57:46Z</time>
      </trkpt>
      <trkpt lat="43.44484" lon="-5.596515">
        <ele>676.0</ele>
        <time>2021-02-14T12:57:47Z</time>
      </trkpt>
      <trkpt lat="43.444843" lon="-5.5965176">
        <ele>675.0</ele>
        <time>2021-02-14T12:57:49Z</time>
      </trkpt>
      <trkpt lat="43.444843" lon="-5.5965195">
        <ele>675.0</ele>
        <time>2021-02-14T12:57:51Z</time>
      </trkpt>
      <trkpt lat="43.444855" lon="-5.596523">
        <ele>675.0</ele>
        <time>2021-02-14T12:57:53Z</time>
      </trkpt>
      <trkpt lat="43.444855" lon="-5.5965233">
        <ele>675.0</ele>
        <time>2021-02-14T12:57:54Z</time>
      </trkpt>
      <trkpt lat="43.44486" lon="-5.5965247">
        <ele>674.0</ele>
        <time>2021-02-14T12:57:55Z</time>
      </trkpt>
      <trkpt lat="43.444862" lon="-5.5965257">
        <ele>674.0</ele>
        <time>2021-02-14T12:57:56Z</time>
      </trkpt>
      <trkpt lat="43.444874" lon="-5.5965314">
        <ele>674.0</ele>
        <time>2021-02-14T12:57:58Z</time>
      </trkpt>
      <trkpt lat="43.444874" lon="-5.5965304">
        <ele>674.0</ele>
        <time>2021-02-14T12:57:59Z</time>
      </trkpt>
      <trkpt lat="43.444878" lon="-5.5965314">
        <ele>674.0</ele>
        <time>2021-02-14T12:58:00Z</time>
      </trkpt>
      <trkpt lat="43.444878" lon="-5.5965314">
        <ele>673.0</ele>
        <time>2021-02-14T12:58:01Z</time>
      </trkpt>
      <trkpt lat="43.444878" lon="-5.5965276">
        <ele>673.0</ele>
        <time>2021-02-14T12:58:02Z</time>
      </trkpt>
      <trkpt lat="43.444885" lon="-5.5965242">
        <ele>673.0</ele>
        <time>2021-02-14T12:58:03Z</time>
      </trkpt>
      <trkpt lat="43.444885" lon="-5.5965214">
        <ele>673.0</ele>
        <time>2021-02-14T12:58:04Z</time>
      </trkpt>
      <trkpt lat="43.44489" lon="-5.5965185">
        <ele>673.0</ele>
        <time>2021-02-14T12:58:05Z</time>
      </trkpt>
      <trkpt lat="43.44489" lon="-5.5965157">
        <ele>673.0</ele>
        <time>2021-02-14T12:58:06Z</time>
      </trkpt>
      <trkpt lat="43.44489" lon="-5.596513">
        <ele>672.0</ele>
        <time>2021-02-14T12:58:07Z</time>
      </trkpt>
      <trkpt lat="43.44489" lon="-5.596513">
        <ele>672.0</ele>
        <time>2021-02-14T12:58:08Z</time>
      </trkpt>
      <trkpt lat="43.44489" lon="-5.596513">
        <ele>672.0</ele>
        <time>2021-02-14T12:58:09Z</time>
      </trkpt>
      <trkpt lat="43.444893" lon="-5.5965147">
        <ele>672.0</ele>
        <time>2021-02-14T12:58:10Z</time>
      </trkpt>
      <trkpt lat="43.444904" lon="-5.596519">
        <ele>671.0</ele>
        <time>2021-02-14T12:58:11Z</time>
      </trkpt>
      <trkpt lat="43.444912" lon="-5.5965247">
        <ele>671.0</ele>
        <time>2021-02-14T12:58:12Z</time>
      </trkpt>
      <trkpt lat="43.444927" lon="-5.5965304">
        <ele>671.0</ele>
        <time>2021-02-14T12:58:13Z</time>
      </trkpt>
      <trkpt lat="43.444935" lon="-5.5965343">
        <ele>671.0</ele>
        <time>2021-02-14T12:58:14Z</time>
      </trkpt>
      <trkpt lat="43.444946" lon="-5.596538">
        <ele>671.0</ele>
        <time>2021-02-14T12:58:15Z</time>
      </trkpt>
      <trkpt lat="43.44495" lon="-5.596542">
        <ele>671.0</ele>
        <time>2021-02-14T12:58:16Z</time>
      </trkpt>
      <trkpt lat="43.44496" lon="-5.596544">
        <ele>670.0</ele>
        <time>2021-02-14T12:58:17Z</time>
      </trkpt>
      <trkpt lat="43.444973" lon="-5.5965457">
        <ele>670.0</ele>
        <time>2021-02-14T12:58:18Z</time>
      </trkpt>
      <trkpt lat="43.44499" lon="-5.5965476">
        <ele>670.0</ele>
        <time>2021-02-14T12:58:19Z</time>
      </trkpt>
      <trkpt lat="43.445004" lon="-5.596549">
        <ele>670.0</ele>
        <time>2021-02-14T12:58:20Z</time>
      </trkpt>
      <trkpt lat="43.44501" lon="-5.5965524">
        <ele>670.0</ele>
        <time>2021-02-14T12:58:21Z</time>
      </trkpt>
      <trkpt lat="43.445023" lon="-5.5965567">
        <ele>670.0</ele>
        <time>2021-02-14T12:58:22Z</time>
      </trkpt>
      <trkpt lat="43.445038" lon="-5.5965624">
        <ele>670.0</ele>
        <time>2021-02-14T12:58:23Z</time>
      </trkpt>
      <trkpt lat="43.44505" lon="-5.5965695">
        <ele>669.0</ele>
        <time>2021-02-14T12:58:24Z</time>
      </trkpt>
      <trkpt lat="43.44508" lon="-5.596586">
        <ele>669.0</ele>
        <time>2021-02-14T12:58:26Z</time>
      </trkpt>
      <trkpt lat="43.44508" lon="-5.5965877">
        <ele>669.0</ele>
        <time>2021-02-14T12:58:27Z</time>
      </trkpt>
      <trkpt lat="43.44508" lon="-5.5965905">
        <ele>669.0</ele>
        <time>2021-02-14T12:58:28Z</time>
      </trkpt>
      <trkpt lat="43.445084" lon="-5.596594">
        <ele>668.0</ele>
        <time>2021-02-14T12:58:29Z</time>
      </trkpt>
      <trkpt lat="43.445084" lon="-5.596597">
        <ele>668.0</ele>
        <time>2021-02-14T12:58:30Z</time>
      </trkpt>
      <trkpt lat="43.445084" lon="-5.5966005">
        <ele>668.0</ele>
        <time>2021-02-14T12:58:31Z</time>
      </trkpt>
      <trkpt lat="43.445087" lon="-5.5966024">
        <ele>668.0</ele>
        <time>2021-02-14T12:58:32Z</time>
      </trkpt>
      <trkpt lat="43.4451" lon="-5.596608">
        <ele>668.0</ele>
        <time>2021-02-14T12:58:34Z</time>
      </trkpt>
      <trkpt lat="43.4451" lon="-5.596607">
        <ele>667.0</ele>
        <time>2021-02-14T12:58:35Z</time>
      </trkpt>
      <trkpt lat="43.445107" lon="-5.5966067">
        <ele>667.0</ele>
        <time>2021-02-14T12:58:36Z</time>
      </trkpt>
      <trkpt lat="43.44511" lon="-5.596609">
        <ele>667.0</ele>
        <time>2021-02-14T12:58:37Z</time>
      </trkpt>
      <trkpt lat="43.445126" lon="-5.596611">
        <ele>667.0</ele>
        <time>2021-02-14T12:58:38Z</time>
      </trkpt>
      <trkpt lat="43.44514" lon="-5.596614">
        <ele>667.0</ele>
        <time>2021-02-14T12:58:39Z</time>
      </trkpt>
      <trkpt lat="43.445152" lon="-5.596615">
        <ele>667.0</ele>
        <time>2021-02-14T12:58:40Z</time>
      </trkpt>
      <trkpt lat="43.445168" lon="-5.596614">
        <ele>667.0</ele>
        <time>2021-02-14T12:58:41Z</time>
      </trkpt>
      <trkpt lat="43.445175" lon="-5.596611">
        <ele>666.0</ele>
        <time>2021-02-14T12:58:42Z</time>
      </trkpt>
      <trkpt lat="43.445183" lon="-5.596611">
        <ele>666.0</ele>
        <time>2021-02-14T12:58:43Z</time>
      </trkpt>
      <trkpt lat="43.445187" lon="-5.596612">
        <ele>666.0</ele>
        <time>2021-02-14T12:58:44Z</time>
      </trkpt>
      <trkpt lat="43.44519" lon="-5.596612">
        <ele>666.0</ele>
        <time>2021-02-14T12:58:45Z</time>
      </trkpt>
      <trkpt lat="43.445198" lon="-5.596611">
        <ele>666.0</ele>
        <time>2021-02-14T12:58:46Z</time>
      </trkpt>
      <trkpt lat="43.445213" lon="-5.596613">
        <ele>666.0</ele>
        <time>2021-02-14T12:58:48Z</time>
      </trkpt>
      <trkpt lat="43.445217" lon="-5.596615">
        <ele>665.0</ele>
        <time>2021-02-14T12:58:49Z</time>
      </trkpt>
      <trkpt lat="43.44522" lon="-5.5966167">
        <ele>665.0</ele>
        <time>2021-02-14T12:58:50Z</time>
      </trkpt>
      <trkpt lat="43.445232" lon="-5.5966187">
        <ele>665.0</ele>
        <time>2021-02-14T12:58:51Z</time>
      </trkpt>
      <trkpt lat="43.445236" lon="-5.596622">
        <ele>664.0</ele>
        <time>2021-02-14T12:58:52Z</time>
      </trkpt>
      <trkpt lat="43.445248" lon="-5.596626">
        <ele>664.0</ele>
        <time>2021-02-14T12:58:53Z</time>
      </trkpt>
      <trkpt lat="43.44525" lon="-5.596631">
        <ele>664.0</ele>
        <time>2021-02-14T12:58:54Z</time>
      </trkpt>
      <trkpt lat="43.445263" lon="-5.5966363">
        <ele>664.0</ele>
        <time>2021-02-14T12:58:55Z</time>
      </trkpt>
      <trkpt lat="43.445267" lon="-5.596642">
        <ele>664.0</ele>
        <time>2021-02-14T12:58:56Z</time>
      </trkpt>
      <trkpt lat="43.445274" lon="-5.596649">
        <ele>663.0</ele>
        <time>2021-02-14T12:58:57Z</time>
      </trkpt>
      <trkpt lat="43.44528" lon="-5.5966554">
        <ele>663.0</ele>
        <time>2021-02-14T12:58:58Z</time>
      </trkpt>
      <trkpt lat="43.44529" lon="-5.5966606">
        <ele>663.0</ele>
        <time>2021-02-14T12:58:59Z</time>
      </trkpt>
      <trkpt lat="43.445293" lon="-5.5966644">
        <ele>663.0</ele>
        <time>2021-02-14T12:59:00Z</time>
      </trkpt>
      <trkpt lat="43.4453" lon="-5.596667">
        <ele>663.0</ele>
        <time>2021-02-14T12:59:01Z</time>
      </trkpt>
      <trkpt lat="43.445305" lon="-5.5966697">
        <ele>663.0</ele>
        <time>2021-02-14T12:59:02Z</time>
      </trkpt>
      <trkpt lat="43.445316" lon="-5.5966744">
        <ele>662.0</ele>
        <time>2021-02-14T12:59:03Z</time>
      </trkpt>
      <trkpt lat="43.44532" lon="-5.596679">
        <ele>662.0</ele>
        <time>2021-02-14T12:59:04Z</time>
      </trkpt>
      <trkpt lat="43.44533" lon="-5.596682">
        <ele>662.0</ele>
        <time>2021-02-14T12:59:05Z</time>
      </trkpt>
      <trkpt lat="43.44534" lon="-5.596687">
        <ele>662.0</ele>
        <time>2021-02-14T12:59:06Z</time>
      </trkpt>
      <trkpt lat="43.44535" lon="-5.596693">
        <ele>662.0</ele>
        <time>2021-02-14T12:59:07Z</time>
      </trkpt>
      <trkpt lat="43.445362" lon="-5.5967">
        <ele>662.0</ele>
        <time>2021-02-14T12:59:08Z</time>
      </trkpt>
      <trkpt lat="43.445377" lon="-5.5967093">
        <ele>661.0</ele>
        <time>2021-02-14T12:59:09Z</time>
      </trkpt>
      <trkpt lat="43.445385" lon="-5.596715">
        <ele>661.0</ele>
        <time>2021-02-14T12:59:10Z</time>
      </trkpt>
      <trkpt lat="43.445396" lon="-5.59672">
        <ele>661.0</ele>
        <time>2021-02-14T12:59:11Z</time>
      </trkpt>
      <trkpt lat="43.445408" lon="-5.596726">
        <ele>661.0</ele>
        <time>2021-02-14T12:59:12Z</time>
      </trkpt>
      <trkpt lat="43.445423" lon="-5.596729">
        <ele>661.0</ele>
        <time>2021-02-14T12:59:13Z</time>
      </trkpt>
      <trkpt lat="43.445427" lon="-5.596729">
        <ele>661.0</ele>
        <time>2021-02-14T12:59:14Z</time>
      </trkpt>
      <trkpt lat="43.445442" lon="-5.596728">
        <ele>661.0</ele>
        <time>2021-02-14T12:59:15Z</time>
      </trkpt>
      <trkpt lat="43.445457" lon="-5.596728">
        <ele>661.0</ele>
        <time>2021-02-14T12:59:16Z</time>
      </trkpt>
      <trkpt lat="43.445473" lon="-5.596728">
        <ele>661.0</ele>
        <time>2021-02-14T12:59:17Z</time>
      </trkpt>
      <trkpt lat="43.445488" lon="-5.596728">
        <ele>661.0</ele>
        <time>2021-02-14T12:59:18Z</time>
      </trkpt>
      <trkpt lat="43.4455" lon="-5.596728">
        <ele>661.0</ele>
        <time>2021-02-14T12:59:19Z</time>
      </trkpt>
      <trkpt lat="43.445503" lon="-5.596727">
        <ele>661.0</ele>
        <time>2021-02-14T12:59:20Z</time>
      </trkpt>
      <trkpt lat="43.445515" lon="-5.5967245">
        <ele>660.0</ele>
        <time>2021-02-14T12:59:21Z</time>
      </trkpt>
      <trkpt lat="43.445526" lon="-5.596722">
        <ele>660.0</ele>
        <time>2021-02-14T12:59:22Z</time>
      </trkpt>
      <trkpt lat="43.44553" lon="-5.596721">
        <ele>660.0</ele>
        <time>2021-02-14T12:59:23Z</time>
      </trkpt>
      <trkpt lat="43.445534" lon="-5.596722">
        <ele>660.0</ele>
        <time>2021-02-14T12:59:24Z</time>
      </trkpt>
      <trkpt lat="43.445545" lon="-5.596724">
        <ele>659.0</ele>
        <time>2021-02-14T12:59:25Z</time>
      </trkpt>
      <trkpt lat="43.44556" lon="-5.596726">
        <ele>659.0</ele>
        <time>2021-02-14T12:59:26Z</time>
      </trkpt>
      <trkpt lat="43.44557" lon="-5.5967264">
        <ele>659.0</ele>
        <time>2021-02-14T12:59:27Z</time>
      </trkpt>
      <trkpt lat="43.44558" lon="-5.5967245">
        <ele>659.0</ele>
        <time>2021-02-14T12:59:28Z</time>
      </trkpt>
      <trkpt lat="43.445595" lon="-5.596721">
        <ele>659.0</ele>
        <time>2021-02-14T12:59:29Z</time>
      </trkpt>
      <trkpt lat="43.445606" lon="-5.596719">
        <ele>659.0</ele>
        <time>2021-02-14T12:59:30Z</time>
      </trkpt>
      <trkpt lat="43.44561" lon="-5.5967135">
        <ele>659.0</ele>
        <time>2021-02-14T12:59:31Z</time>
      </trkpt>
      <trkpt lat="43.44562" lon="-5.5967093">
        <ele>658.0</ele>
        <time>2021-02-14T12:59:32Z</time>
      </trkpt>
      <trkpt lat="43.445625" lon="-5.596708">
        <ele>658.0</ele>
        <time>2021-02-14T12:59:33Z</time>
      </trkpt>
      <trkpt lat="43.445637" lon="-5.596708">
        <ele>658.0</ele>
        <time>2021-02-14T12:59:34Z</time>
      </trkpt>
      <trkpt lat="43.44565" lon="-5.5967097">
        <ele>658.0</ele>
        <time>2021-02-14T12:59:35Z</time>
      </trkpt>
      <trkpt lat="43.445652" lon="-5.596715">
        <ele>658.0</ele>
        <time>2021-02-14T12:59:36Z</time>
      </trkpt>
      <trkpt lat="43.445663" lon="-5.5967193">
        <ele>657.0</ele>
        <time>2021-02-14T12:59:37Z</time>
      </trkpt>
      <trkpt lat="43.44567" lon="-5.5967226">
        <ele>657.0</ele>
        <time>2021-02-14T12:59:38Z</time>
      </trkpt>
      <trkpt lat="43.44569" lon="-5.5967264">
        <ele>657.0</ele>
        <time>2021-02-14T12:59:39Z</time>
      </trkpt>
      <trkpt lat="43.445698" lon="-5.596729">
        <ele>657.0</ele>
        <time>2021-02-14T12:59:40Z</time>
      </trkpt>
      <trkpt lat="43.44571" lon="-5.59673">
        <ele>657.0</ele>
        <time>2021-02-14T12:59:41Z</time>
      </trkpt>
      <trkpt lat="43.445713" lon="-5.596732">
        <ele>657.0</ele>
        <time>2021-02-14T12:59:42Z</time>
      </trkpt>
      <trkpt lat="43.445724" lon="-5.5967345">
        <ele>656.0</ele>
        <time>2021-02-14T12:59:43Z</time>
      </trkpt>
      <trkpt lat="43.44573" lon="-5.596738">
        <ele>656.0</ele>
        <time>2021-02-14T12:59:44Z</time>
      </trkpt>
      <trkpt lat="43.445744" lon="-5.5967464">
        <ele>656.0</ele>
        <time>2021-02-14T12:59:46Z</time>
      </trkpt>
      <trkpt lat="43.445744" lon="-5.596747">
        <ele>656.0</ele>
        <time>2021-02-14T12:59:47Z</time>
      </trkpt>
      <trkpt lat="43.44575" lon="-5.5967474">
        <ele>656.0</ele>
        <time>2021-02-14T12:59:48Z</time>
      </trkpt>
      <trkpt lat="43.445766" lon="-5.5967484">
        <ele>656.0</ele>
        <time>2021-02-14T12:59:49Z</time>
      </trkpt>
      <trkpt lat="43.445774" lon="-5.5967474">
        <ele>656.0</ele>
        <time>2021-02-14T12:59:50Z</time>
      </trkpt>
      <trkpt lat="43.44579" lon="-5.596745">
        <ele>656.0</ele>
        <time>2021-02-14T12:59:51Z</time>
      </trkpt>
      <trkpt lat="43.445805" lon="-5.5967445">
        <ele>656.0</ele>
        <time>2021-02-14T12:59:52Z</time>
      </trkpt>
      <trkpt lat="43.44582" lon="-5.596745">
        <ele>655.0</ele>
        <time>2021-02-14T12:59:53Z</time>
      </trkpt>
      <trkpt lat="43.44583" lon="-5.5967455">
        <ele>655.0</ele>
        <time>2021-02-14T12:59:54Z</time>
      </trkpt>
      <trkpt lat="43.445866" lon="-5.5967445">
        <ele>655.0</ele>
        <time>2021-02-14T12:59:57Z</time>
      </trkpt>
      <trkpt lat="43.445866" lon="-5.596745">
        <ele>655.0</ele>
        <time>2021-02-14T12:59:58Z</time>
      </trkpt>
      <trkpt lat="43.445877" lon="-5.5967445">
        <ele>654.0</ele>
        <time>2021-02-14T12:59:59Z</time>
      </trkpt>
      <trkpt lat="43.44589" lon="-5.5967445">
        <ele>654.0</ele>
        <time>2021-02-14T13:00:00Z</time>
      </trkpt>
      <trkpt lat="43.4459" lon="-5.5967445">
        <ele>654.0</ele>
        <time>2021-02-14T13:00:01Z</time>
      </trkpt>
      <trkpt lat="43.445908" lon="-5.596743">
        <ele>654.0</ele>
        <time>2021-02-14T13:00:02Z</time>
      </trkpt>
      <trkpt lat="43.445923" lon="-5.5967402">
        <ele>653.0</ele>
        <time>2021-02-14T13:00:03Z</time>
      </trkpt>
      <trkpt lat="43.445934" lon="-5.596736">
        <ele>653.0</ele>
        <time>2021-02-14T13:00:04Z</time>
      </trkpt>
      <trkpt lat="43.445946" lon="-5.59673">
        <ele>653.0</ele>
        <time>2021-02-14T13:00:05Z</time>
      </trkpt>
      <trkpt lat="43.445953" lon="-5.5967245">
        <ele>653.0</ele>
        <time>2021-02-14T13:00:06Z</time>
      </trkpt>
      <trkpt lat="43.44597" lon="-5.5967174">
        <ele>652.0</ele>
        <time>2021-02-14T13:00:07Z</time>
      </trkpt>
      <trkpt lat="43.445984" lon="-5.5967097">
        <ele>652.0</ele>
        <time>2021-02-14T13:00:08Z</time>
      </trkpt>
      <trkpt lat="43.446" lon="-5.5967035">
        <ele>652.0</ele>
        <time>2021-02-14T13:00:09Z</time>
      </trkpt>
      <trkpt lat="43.446022" lon="-5.5966964">
        <ele>652.0</ele>
        <time>2021-02-14T13:00:09Z</time>
      </trkpt>
      <trkpt lat="43.446037" lon="-5.5966907">
        <ele>652.0</ele>
        <time>2021-02-14T13:00:10Z</time>
      </trkpt>
      <trkpt lat="43.446053" lon="-5.5966873">
        <ele>651.0</ele>
        <time>2021-02-14T13:00:11Z</time>
      </trkpt>
      <trkpt lat="43.446068" lon="-5.5966854">
        <ele>651.0</ele>
        <time>2021-02-14T13:00:12Z</time>
      </trkpt>
      <trkpt lat="43.44608" lon="-5.5966854">
        <ele>651.0</ele>
        <time>2021-02-14T13:00:13Z</time>
      </trkpt>
      <trkpt lat="43.446083" lon="-5.596684">
        <ele>651.0</ele>
        <time>2021-02-14T13:00:14Z</time>
      </trkpt>
      <trkpt lat="43.446095" lon="-5.5966835">
        <ele>650.0</ele>
        <time>2021-02-14T13:00:15Z</time>
      </trkpt>
      <trkpt lat="43.446102" lon="-5.5966835">
        <ele>650.0</ele>
        <time>2021-02-14T13:00:16Z</time>
      </trkpt>
      <trkpt lat="43.44611" lon="-5.596682">
        <ele>650.0</ele>
        <time>2021-02-14T13:00:17Z</time>
      </trkpt>
      <trkpt lat="43.446117" lon="-5.59668">
        <ele>650.0</ele>
        <time>2021-02-14T13:00:18Z</time>
      </trkpt>
      <trkpt lat="43.44613" lon="-5.5966797">
        <ele>650.0</ele>
        <time>2021-02-14T13:00:19Z</time>
      </trkpt>
      <trkpt lat="43.446133" lon="-5.59668">
        <ele>649.0</ele>
        <time>2021-02-14T13:00:20Z</time>
      </trkpt>
      <trkpt lat="43.446148" lon="-5.596679">
        <ele>649.0</ele>
        <time>2021-02-14T13:00:21Z</time>
      </trkpt>
      <trkpt lat="43.446156" lon="-5.596678">
        <ele>649.0</ele>
        <time>2021-02-14T13:00:22Z</time>
      </trkpt>
      <trkpt lat="43.446163" lon="-5.5966754">
        <ele>649.0</ele>
        <time>2021-02-14T13:00:23Z</time>
      </trkpt>
      <trkpt lat="43.446175" lon="-5.5966744">
        <ele>649.0</ele>
        <time>2021-02-14T13:00:24Z</time>
      </trkpt>
      <trkpt lat="43.44619" lon="-5.5966754">
        <ele>649.0</ele>
        <time>2021-02-14T13:00:25Z</time>
      </trkpt>
      <trkpt lat="43.446205" lon="-5.5966773">
        <ele>649.0</ele>
        <time>2021-02-14T13:00:26Z</time>
      </trkpt>
      <trkpt lat="43.446217" lon="-5.5966783">
        <ele>649.0</ele>
        <time>2021-02-14T13:00:27Z</time>
      </trkpt>
      <trkpt lat="43.44623" lon="-5.596678">
        <ele>649.0</ele>
        <time>2021-02-14T13:00:28Z</time>
      </trkpt>
      <trkpt lat="43.44624" lon="-5.596682">
        <ele>649.0</ele>
        <time>2021-02-14T13:00:29Z</time>
      </trkpt>
      <trkpt lat="43.44626" lon="-5.5966873">
        <ele>648.0</ele>
        <time>2021-02-14T13:00:30Z</time>
      </trkpt>
      <trkpt lat="43.446274" lon="-5.596693">
        <ele>648.0</ele>
        <time>2021-02-14T13:00:31Z</time>
      </trkpt>
      <trkpt lat="43.44629" lon="-5.5966983">
        <ele>648.0</ele>
        <time>2021-02-14T13:00:32Z</time>
      </trkpt>
      <trkpt lat="43.446297" lon="-5.5967035">
        <ele>648.0</ele>
        <time>2021-02-14T13:00:33Z</time>
      </trkpt>
      <trkpt lat="43.44631" lon="-5.5967064">
        <ele>648.0</ele>
        <time>2021-02-14T13:00:34Z</time>
      </trkpt>
      <trkpt lat="43.446323" lon="-5.5967083">
        <ele>648.0</ele>
        <time>2021-02-14T13:00:35Z</time>
      </trkpt>
      <trkpt lat="43.44634" lon="-5.5967097">
        <ele>647.0</ele>
        <time>2021-02-14T13:00:36Z</time>
      </trkpt>
      <trkpt lat="43.446354" lon="-5.596712">
        <ele>647.0</ele>
        <time>2021-02-14T13:00:37Z</time>
      </trkpt>
      <trkpt lat="43.44637" lon="-5.5967155">
        <ele>647.0</ele>
        <time>2021-02-14T13:00:38Z</time>
      </trkpt>
      <trkpt lat="43.44639" lon="-5.59672">
        <ele>647.0</ele>
        <time>2021-02-14T13:00:39Z</time>
      </trkpt>
      <trkpt lat="43.446404" lon="-5.596726">
        <ele>647.0</ele>
        <time>2021-02-14T13:00:40Z</time>
      </trkpt>
      <trkpt lat="43.44642" lon="-5.5967298">
        <ele>647.0</ele>
        <time>2021-02-14T13:00:41Z</time>
      </trkpt>
      <trkpt lat="43.44643" lon="-5.5967317">
        <ele>647.0</ele>
        <time>2021-02-14T13:00:42Z</time>
      </trkpt>
      <trkpt lat="43.446445" lon="-5.596732">
        <ele>647.0</ele>
        <time>2021-02-14T13:00:43Z</time>
      </trkpt>
      <trkpt lat="43.446457" lon="-5.59673">
        <ele>646.0</ele>
        <time>2021-02-14T13:00:44Z</time>
      </trkpt>
      <trkpt lat="43.44647" lon="-5.5967283">
        <ele>646.0</ele>
        <time>2021-02-14T13:00:45Z</time>
      </trkpt>
      <trkpt lat="43.446484" lon="-5.596727">
        <ele>646.0</ele>
        <time>2021-02-14T13:00:46Z</time>
      </trkpt>
      <trkpt lat="43.44649" lon="-5.596728">
        <ele>646.0</ele>
        <time>2021-02-14T13:00:47Z</time>
      </trkpt>
      <trkpt lat="43.446507" lon="-5.596728">
        <ele>646.0</ele>
        <time>2021-02-14T13:00:48Z</time>
      </trkpt>
      <trkpt lat="43.44652" lon="-5.5967298">
        <ele>646.0</ele>
        <time>2021-02-14T13:00:49Z</time>
      </trkpt>
      <trkpt lat="43.446533" lon="-5.5967317">
        <ele>646.0</ele>
        <time>2021-02-14T13:00:50Z</time>
      </trkpt>
      <trkpt lat="43.44655" lon="-5.5967326">
        <ele>646.0</ele>
        <time>2021-02-14T13:00:51Z</time>
      </trkpt>
      <trkpt lat="43.446564" lon="-5.596734">
        <ele>646.0</ele>
        <time>2021-02-14T13:00:52Z</time>
      </trkpt>
      <trkpt lat="43.446568" lon="-5.5967326">
        <ele>646.0</ele>
        <time>2021-02-14T13:00:53Z</time>
      </trkpt>
      <trkpt lat="43.44658" lon="-5.5967307">
        <ele>646.0</ele>
        <time>2021-02-14T13:00:54Z</time>
      </trkpt>
      <trkpt lat="43.44659" lon="-5.5967298">
        <ele>645.0</ele>
        <time>2021-02-14T13:00:55Z</time>
      </trkpt>
      <trkpt lat="43.446606" lon="-5.5967283">
        <ele>645.0</ele>
        <time>2021-02-14T13:00:56Z</time>
      </trkpt>
      <trkpt lat="43.44662" lon="-5.596726">
        <ele>645.0</ele>
        <time>2021-02-14T13:00:57Z</time>
      </trkpt>
      <trkpt lat="43.446636" lon="-5.596724">
        <ele>645.0</ele>
        <time>2021-02-14T13:00:58Z</time>
      </trkpt>
      <trkpt lat="43.44665" lon="-5.596722">
        <ele>645.0</ele>
        <time>2021-02-14T13:00:59Z</time>
      </trkpt>
      <trkpt lat="43.446667" lon="-5.5967207">
        <ele>645.0</ele>
        <time>2021-02-14T13:01:00Z</time>
      </trkpt>
      <trkpt lat="43.44668" lon="-5.59672">
        <ele>645.0</ele>
        <time>2021-02-14T13:01:01Z</time>
      </trkpt>
      <trkpt lat="43.446693" lon="-5.5967193">
        <ele>644.0</ele>
        <time>2021-02-14T13:01:02Z</time>
      </trkpt>
      <trkpt lat="43.4467" lon="-5.596719">
        <ele>644.0</ele>
        <time>2021-02-14T13:01:03Z</time>
      </trkpt>
      <trkpt lat="43.446712" lon="-5.596717">
        <ele>644.0</ele>
        <time>2021-02-14T13:01:04Z</time>
      </trkpt>
      <trkpt lat="43.446724" lon="-5.596715">
        <ele>644.0</ele>
        <time>2021-02-14T13:01:05Z</time>
      </trkpt>
      <trkpt lat="43.44674" lon="-5.596713">
        <ele>644.0</ele>
        <time>2021-02-14T13:01:06Z</time>
      </trkpt>
      <trkpt lat="43.446754" lon="-5.596711">
        <ele>644.0</ele>
        <time>2021-02-14T13:01:07Z</time>
      </trkpt>
      <trkpt lat="43.446762" lon="-5.596708">
        <ele>643.0</ele>
        <time>2021-02-14T13:01:08Z</time>
      </trkpt>
      <trkpt lat="43.446774" lon="-5.5967035">
        <ele>643.0</ele>
        <time>2021-02-14T13:01:09Z</time>
      </trkpt>
      <trkpt lat="43.446785" lon="-5.5966988">
        <ele>643.0</ele>
        <time>2021-02-14T13:01:10Z</time>
      </trkpt>
      <trkpt lat="43.4468" lon="-5.5966916">
        <ele>643.0</ele>
        <time>2021-02-14T13:01:11Z</time>
      </trkpt>
      <trkpt lat="43.446808" lon="-5.596684">
        <ele>643.0</ele>
        <time>2021-02-14T13:01:12Z</time>
      </trkpt>
      <trkpt lat="43.446823" lon="-5.596681">
        <ele>643.0</ele>
        <time>2021-02-14T13:01:13Z</time>
      </trkpt>
      <trkpt lat="43.446842" lon="-5.59668">
        <ele>643.0</ele>
        <time>2021-02-14T13:01:14Z</time>
      </trkpt>
      <trkpt lat="43.446857" lon="-5.5966754">
        <ele>643.0</ele>
        <time>2021-02-14T13:01:15Z</time>
      </trkpt>
      <trkpt lat="43.446865" lon="-5.5966706">
        <ele>643.0</ele>
        <time>2021-02-14T13:01:16Z</time>
      </trkpt>
      <trkpt lat="43.44688" lon="-5.5966654">
        <ele>643.0</ele>
        <time>2021-02-14T13:01:17Z</time>
      </trkpt>
      <trkpt lat="43.44689" lon="-5.5966616">
        <ele>643.0</ele>
        <time>2021-02-14T13:01:18Z</time>
      </trkpt>
      <trkpt lat="43.446903" lon="-5.5966587">
        <ele>643.0</ele>
        <time>2021-02-14T13:01:19Z</time>
      </trkpt>
      <trkpt lat="43.44691" lon="-5.596656">
        <ele>643.0</ele>
        <time>2021-02-14T13:01:20Z</time>
      </trkpt>
      <trkpt lat="43.446922" lon="-5.596655">
        <ele>643.0</ele>
        <time>2021-02-14T13:01:21Z</time>
      </trkpt>
      <trkpt lat="43.446926" lon="-5.596655">
        <ele>643.0</ele>
        <time>2021-02-14T13:01:22Z</time>
      </trkpt>
      <trkpt lat="43.446938" lon="-5.596655">
        <ele>643.0</ele>
        <time>2021-02-14T13:01:23Z</time>
      </trkpt>
      <trkpt lat="43.44694" lon="-5.5966573">
        <ele>643.0</ele>
        <time>2021-02-14T13:01:24Z</time>
      </trkpt>
      <trkpt lat="43.446953" lon="-5.5966616">
        <ele>643.0</ele>
        <time>2021-02-14T13:01:25Z</time>
      </trkpt>
      <trkpt lat="43.446957" lon="-5.5966663">
        <ele>642.0</ele>
        <time>2021-02-14T13:01:26Z</time>
      </trkpt>
      <trkpt lat="43.446968" lon="-5.5966697">
        <ele>642.0</ele>
        <time>2021-02-14T13:01:27Z</time>
      </trkpt>
      <trkpt lat="43.44698" lon="-5.5966725">
        <ele>642.0</ele>
        <time>2021-02-14T13:01:28Z</time>
      </trkpt>
      <trkpt lat="43.446987" lon="-5.596676">
        <ele>641.0</ele>
        <time>2021-02-14T13:01:29Z</time>
      </trkpt>
      <trkpt lat="43.446995" lon="-5.5966797">
        <ele>641.0</ele>
        <time>2021-02-14T13:01:30Z</time>
      </trkpt>
      <trkpt lat="43.447002" lon="-5.5966835">
        <ele>641.0</ele>
        <time>2021-02-14T13:01:31Z</time>
      </trkpt>
      <trkpt lat="43.44701" lon="-5.596687">
        <ele>641.0</ele>
        <time>2021-02-14T13:01:32Z</time>
      </trkpt>
      <trkpt lat="43.447014" lon="-5.596688">
        <ele>641.0</ele>
        <time>2021-02-14T13:01:33Z</time>
      </trkpt>
      <trkpt lat="43.447018" lon="-5.596688">
        <ele>641.0</ele>
        <time>2021-02-14T13:01:34Z</time>
      </trkpt>
      <trkpt lat="43.447018" lon="-5.596687">
        <ele>640.0</ele>
        <time>2021-02-14T13:01:35Z</time>
      </trkpt>
      <trkpt lat="43.447025" lon="-5.596689">
        <ele>640.0</ele>
        <time>2021-02-14T13:01:36Z</time>
      </trkpt>
      <trkpt lat="43.447037" lon="-5.5966907">
        <ele>640.0</ele>
        <time>2021-02-14T13:01:37Z</time>
      </trkpt>
      <trkpt lat="43.447044" lon="-5.5966926">
        <ele>640.0</ele>
        <time>2021-02-14T13:01:38Z</time>
      </trkpt>
      <trkpt lat="43.447056" lon="-5.596696">
        <ele>640.0</ele>
        <time>2021-02-14T13:01:39Z</time>
      </trkpt>
      <trkpt lat="43.44706" lon="-5.5966997">
        <ele>640.0</ele>
        <time>2021-02-14T13:01:40Z</time>
      </trkpt>
      <trkpt lat="43.447067" lon="-5.5967035">
        <ele>639.0</ele>
        <time>2021-02-14T13:01:41Z</time>
      </trkpt>
      <trkpt lat="43.44707" lon="-5.5967064">
        <ele>639.0</ele>
        <time>2021-02-14T13:01:42Z</time>
      </trkpt>
      <trkpt lat="43.447083" lon="-5.596712">
        <ele>639.0</ele>
        <time>2021-02-14T13:01:43Z</time>
      </trkpt>
      <trkpt lat="43.44709" lon="-5.5967183">
        <ele>639.0</ele>
        <time>2021-02-14T13:01:44Z</time>
      </trkpt>
      <trkpt lat="43.4471" lon="-5.5967245">
        <ele>639.0</ele>
        <time>2021-02-14T13:01:45Z</time>
      </trkpt>
      <trkpt lat="43.447113" lon="-5.5967307">
        <ele>638.0</ele>
        <time>2021-02-14T13:01:46Z</time>
      </trkpt>
      <trkpt lat="43.44712" lon="-5.5967345">
        <ele>638.0</ele>
        <time>2021-02-14T13:01:47Z</time>
      </trkpt>
      <trkpt lat="43.447132" lon="-5.596738">
        <ele>638.0</ele>
        <time>2021-02-14T13:01:48Z</time>
      </trkpt>
      <trkpt lat="43.447136" lon="-5.59674">
        <ele>638.0</ele>
        <time>2021-02-14T13:01:49Z</time>
      </trkpt>
      <trkpt lat="43.447144" lon="-5.5967417">
        <ele>637.0</ele>
        <time>2021-02-14T13:01:50Z</time>
      </trkpt>
      <trkpt lat="43.44715" lon="-5.596745">
        <ele>637.0</ele>
        <time>2021-02-14T13:01:51Z</time>
      </trkpt>
      <trkpt lat="43.447163" lon="-5.596749">
        <ele>637.0</ele>
        <time>2021-02-14T13:01:52Z</time>
      </trkpt>
      <trkpt lat="43.447166" lon="-5.596753">
        <ele>637.0</ele>
        <time>2021-02-14T13:01:53Z</time>
      </trkpt>
      <trkpt lat="43.447178" lon="-5.596759">
        <ele>637.0</ele>
        <time>2021-02-14T13:01:54Z</time>
      </trkpt>
      <trkpt lat="43.44718" lon="-5.596764">
        <ele>637.0</ele>
        <time>2021-02-14T13:01:55Z</time>
      </trkpt>
      <trkpt lat="43.44719" lon="-5.5967693">
        <ele>637.0</ele>
        <time>2021-02-14T13:01:56Z</time>
      </trkpt>
      <trkpt lat="43.447193" lon="-5.5967736">
        <ele>637.0</ele>
        <time>2021-02-14T13:01:57Z</time>
      </trkpt>
      <trkpt lat="43.447205" lon="-5.5967784">
        <ele>636.0</ele>
        <time>2021-02-14T13:01:58Z</time>
      </trkpt>
      <trkpt lat="43.44721" lon="-5.596782">
        <ele>636.0</ele>
        <time>2021-02-14T13:01:59Z</time>
      </trkpt>
      <trkpt lat="43.44722" lon="-5.596787">
        <ele>636.0</ele>
        <time>2021-02-14T13:02:00Z</time>
      </trkpt>
      <trkpt lat="43.44723" lon="-5.5967917">
        <ele>636.0</ele>
        <time>2021-02-14T13:02:01Z</time>
      </trkpt>
      <trkpt lat="43.447247" lon="-5.596797">
        <ele>636.0</ele>
        <time>2021-02-14T13:02:02Z</time>
      </trkpt>
      <trkpt lat="43.447254" lon="-5.5968018">
        <ele>635.0</ele>
        <time>2021-02-14T13:02:03Z</time>
      </trkpt>
      <trkpt lat="43.447266" lon="-5.5968075">
        <ele>635.0</ele>
        <time>2021-02-14T13:02:04Z</time>
      </trkpt>
      <trkpt lat="43.447277" lon="-5.5968122">
        <ele>635.0</ele>
        <time>2021-02-14T13:02:05Z</time>
      </trkpt>
      <trkpt lat="43.447285" lon="-5.596816">
        <ele>635.0</ele>
        <time>2021-02-14T13:02:06Z</time>
      </trkpt>
      <trkpt lat="43.4473" lon="-5.5968194">
        <ele>634.0</ele>
        <time>2021-02-14T13:02:07Z</time>
      </trkpt>
      <trkpt lat="43.447315" lon="-5.596823">
        <ele>634.0</ele>
        <time>2021-02-14T13:02:08Z</time>
      </trkpt>
      <trkpt lat="43.447327" lon="-5.596827">
        <ele>634.0</ele>
        <time>2021-02-14T13:02:09Z</time>
      </trkpt>
      <trkpt lat="43.447342" lon="-5.596831">
        <ele>633.0</ele>
        <time>2021-02-14T13:02:10Z</time>
      </trkpt>
      <trkpt lat="43.447353" lon="-5.596835">
        <ele>633.0</ele>
        <time>2021-02-14T13:02:11Z</time>
      </trkpt>
      <trkpt lat="43.44736" lon="-5.5968385">
        <ele>633.0</ele>
        <time>2021-02-14T13:02:12Z</time>
      </trkpt>
      <trkpt lat="43.447372" lon="-5.596841">
        <ele>633.0</ele>
        <time>2021-02-14T13:02:13Z</time>
      </trkpt>
      <trkpt lat="43.447388" lon="-5.596841">
        <ele>632.0</ele>
        <time>2021-02-14T13:02:14Z</time>
      </trkpt>
      <trkpt lat="43.4474" lon="-5.596841">
        <ele>632.0</ele>
        <time>2021-02-14T13:02:15Z</time>
      </trkpt>
      <trkpt lat="43.447407" lon="-5.59684">
        <ele>632.0</ele>
        <time>2021-02-14T13:02:16Z</time>
      </trkpt>
      <trkpt lat="43.44743" lon="-5.59684">
        <ele>632.0</ele>
        <time>2021-02-14T13:02:17Z</time>
      </trkpt>
      <trkpt lat="43.447445" lon="-5.596843">
        <ele>632.0</ele>
        <time>2021-02-14T13:02:18Z</time>
      </trkpt>
      <trkpt lat="43.447464" lon="-5.596846">
        <ele>631.0</ele>
        <time>2021-02-14T13:02:19Z</time>
      </trkpt>
      <trkpt lat="43.44748" lon="-5.5968475">
        <ele>631.0</ele>
        <time>2021-02-14T13:02:20Z</time>
      </trkpt>
      <trkpt lat="43.447495" lon="-5.5968494">
        <ele>631.0</ele>
        <time>2021-02-14T13:02:21Z</time>
      </trkpt>
      <trkpt lat="43.44751" lon="-5.5968523">
        <ele>631.0</ele>
        <time>2021-02-14T13:02:22Z</time>
      </trkpt>
      <trkpt lat="43.447525" lon="-5.596852">
        <ele>631.0</ele>
        <time>2021-02-14T13:02:23Z</time>
      </trkpt>
      <trkpt lat="43.447536" lon="-5.596848">
        <ele>631.0</ele>
        <time>2021-02-14T13:02:24Z</time>
      </trkpt>
      <trkpt lat="43.44755" lon="-5.5968447">
        <ele>631.0</ele>
        <time>2021-02-14T13:02:25Z</time>
      </trkpt>
      <trkpt lat="43.447563" lon="-5.596843">
        <ele>630.0</ele>
        <time>2021-02-14T13:02:26Z</time>
      </trkpt>
      <trkpt lat="43.447567" lon="-5.5968437">
        <ele>630.0</ele>
        <time>2021-02-14T13:02:27Z</time>
      </trkpt>
      <trkpt lat="43.44758" lon="-5.5968437">
        <ele>630.0</ele>
        <time>2021-02-14T13:02:28Z</time>
      </trkpt>
      <trkpt lat="43.447586" lon="-5.5968437">
        <ele>630.0</ele>
        <time>2021-02-14T13:02:29Z</time>
      </trkpt>
      <trkpt lat="43.447594" lon="-5.596844">
        <ele>630.0</ele>
        <time>2021-02-14T13:02:30Z</time>
      </trkpt>
      <trkpt lat="43.4476" lon="-5.5968437">
        <ele>630.0</ele>
        <time>2021-02-14T13:02:31Z</time>
      </trkpt>
      <trkpt lat="43.44761" lon="-5.5968404">
        <ele>630.0</ele>
        <time>2021-02-14T13:02:32Z</time>
      </trkpt>
      <trkpt lat="43.447613" lon="-5.5968366">
        <ele>630.0</ele>
        <time>2021-02-14T13:02:33Z</time>
      </trkpt>
      <trkpt lat="43.447624" lon="-5.596832">
        <ele>630.0</ele>
        <time>2021-02-14T13:02:34Z</time>
      </trkpt>
      <trkpt lat="43.447628" lon="-5.596829">
        <ele>629.0</ele>
        <time>2021-02-14T13:02:35Z</time>
      </trkpt>
      <trkpt lat="43.44764" lon="-5.596827">
        <ele>629.0</ele>
        <time>2021-02-14T13:02:36Z</time>
      </trkpt>
      <trkpt lat="43.44765" lon="-5.596825">
        <ele>629.0</ele>
        <time>2021-02-14T13:02:37Z</time>
      </trkpt>
      <trkpt lat="43.44766" lon="-5.596823">
        <ele>629.0</ele>
        <time>2021-02-14T13:02:38Z</time>
      </trkpt>
      <trkpt lat="43.44767" lon="-5.596822">
        <ele>629.0</ele>
        <time>2021-02-14T13:02:39Z</time>
      </trkpt>
      <trkpt lat="43.44768" lon="-5.5968213">
        <ele>628.0</ele>
        <time>2021-02-14T13:02:40Z</time>
      </trkpt>
      <trkpt lat="43.447697" lon="-5.5968213">
        <ele>628.0</ele>
        <time>2021-02-14T13:02:41Z</time>
      </trkpt>
      <trkpt lat="43.447704" lon="-5.5968213">
        <ele>628.0</ele>
        <time>2021-02-14T13:02:42Z</time>
      </trkpt>
      <trkpt lat="43.447716" lon="-5.596822">
        <ele>628.0</ele>
        <time>2021-02-14T13:02:43Z</time>
      </trkpt>
      <trkpt lat="43.447727" lon="-5.5968204">
        <ele>628.0</ele>
        <time>2021-02-14T13:02:44Z</time>
      </trkpt>
      <trkpt lat="43.447735" lon="-5.5968184">
        <ele>627.0</ele>
        <time>2021-02-14T13:02:45Z</time>
      </trkpt>
      <trkpt lat="43.447746" lon="-5.596814">
        <ele>627.0</ele>
        <time>2021-02-14T13:02:46Z</time>
      </trkpt>
      <trkpt lat="43.447758" lon="-5.5968094">
        <ele>627.0</ele>
        <time>2021-02-14T13:02:47Z</time>
      </trkpt>
      <trkpt lat="43.44776" lon="-5.5968065">
        <ele>627.0</ele>
        <time>2021-02-14T13:02:48Z</time>
      </trkpt>
      <trkpt lat="43.447773" lon="-5.596805">
        <ele>626.0</ele>
        <time>2021-02-14T13:02:49Z</time>
      </trkpt>
      <trkpt lat="43.44778" lon="-5.5968046">
        <ele>626.0</ele>
        <time>2021-02-14T13:02:50Z</time>
      </trkpt>
      <trkpt lat="43.447792" lon="-5.5968027">
        <ele>626.0</ele>
        <time>2021-02-14T13:02:51Z</time>
      </trkpt>
      <trkpt lat="43.447815" lon="-5.5968056">
        <ele>626.0</ele>
        <time>2021-02-14T13:02:53Z</time>
      </trkpt>
      <trkpt lat="43.447815" lon="-5.596807">
        <ele>625.0</ele>
        <time>2021-02-14T13:02:54Z</time>
      </trkpt>
      <trkpt lat="43.447815" lon="-5.596809">
        <ele>625.0</ele>
        <time>2021-02-14T13:02:55Z</time>
      </trkpt>
      <trkpt lat="43.447823" lon="-5.5968127">
        <ele>625.0</ele>
        <time>2021-02-14T13:02:56Z</time>
      </trkpt>
      <trkpt lat="43.447834" lon="-5.5968165">
        <ele>625.0</ele>
        <time>2021-02-14T13:02:57Z</time>
      </trkpt>
      <trkpt lat="43.44785" lon="-5.5968213">
        <ele>624.0</ele>
        <time>2021-02-14T13:02:58Z</time>
      </trkpt>
      <trkpt lat="43.447865" lon="-5.596824">
        <ele>624.0</ele>
        <time>2021-02-14T13:02:59Z</time>
      </trkpt>
      <trkpt lat="43.447876" lon="-5.596827">
        <ele>624.0</ele>
        <time>2021-02-14T13:03:00Z</time>
      </trkpt>
      <trkpt lat="43.44788" lon="-5.596829">
        <ele>624.0</ele>
        <time>2021-02-14T13:03:01Z</time>
      </trkpt>
      <trkpt lat="43.44789" lon="-5.5968328">
        <ele>623.0</ele>
        <time>2021-02-14T13:03:02Z</time>
      </trkpt>
      <trkpt lat="43.44789" lon="-5.5968385">
        <ele>623.0</ele>
        <time>2021-02-14T13:03:03Z</time>
      </trkpt>
      <trkpt lat="43.447895" lon="-5.596841">
        <ele>623.0</ele>
        <time>2021-02-14T13:03:04Z</time>
      </trkpt>
      <trkpt lat="43.4479" lon="-5.596844">
        <ele>622.0</ele>
        <time>2021-02-14T13:03:05Z</time>
      </trkpt>
      <trkpt lat="43.447906" lon="-5.5968475">
        <ele>622.0</ele>
        <time>2021-02-14T13:03:06Z</time>
      </trkpt>
      <trkpt lat="43.44791" lon="-5.59685">
        <ele>622.0</ele>
        <time>2021-02-14T13:03:07Z</time>
      </trkpt>
      <trkpt lat="43.44792" lon="-5.5968523">
        <ele>622.0</ele>
        <time>2021-02-14T13:03:08Z</time>
      </trkpt>
      <trkpt lat="43.44793" lon="-5.596855">
        <ele>621.0</ele>
        <time>2021-02-14T13:03:09Z</time>
      </trkpt>
      <trkpt lat="43.44794" lon="-5.5968595">
        <ele>621.0</ele>
        <time>2021-02-14T13:03:10Z</time>
      </trkpt>
      <trkpt lat="43.447952" lon="-5.596864">
        <ele>621.0</ele>
        <time>2021-02-14T13:03:11Z</time>
      </trkpt>
      <trkpt lat="43.447968" lon="-5.59687">
        <ele>621.0</ele>
        <time>2021-02-14T13:03:12Z</time>
      </trkpt>
      <trkpt lat="43.447975" lon="-5.5968747">
        <ele>621.0</ele>
        <time>2021-02-14T13:03:13Z</time>
      </trkpt>
      <trkpt lat="43.447987" lon="-5.5968785">
        <ele>621.0</ele>
        <time>2021-02-14T13:03:14Z</time>
      </trkpt>
      <trkpt lat="43.447998" lon="-5.59688">
        <ele>620.0</ele>
        <time>2021-02-14T13:03:15Z</time>
      </trkpt>
      <trkpt lat="43.44801" lon="-5.596882">
        <ele>620.0</ele>
        <time>2021-02-14T13:03:16Z</time>
      </trkpt>
      <trkpt lat="43.448013" lon="-5.596884">
        <ele>620.0</ele>
        <time>2021-02-14T13:03:17Z</time>
      </trkpt>
      <trkpt lat="43.448025" lon="-5.596884">
        <ele>620.0</ele>
        <time>2021-02-14T13:03:18Z</time>
      </trkpt>
      <trkpt lat="43.448032" lon="-5.5968833">
        <ele>619.0</ele>
        <time>2021-02-14T13:03:19Z</time>
      </trkpt>
      <trkpt lat="43.448044" lon="-5.5968814">
        <ele>619.0</ele>
        <time>2021-02-14T13:03:20Z</time>
      </trkpt>
      <trkpt lat="43.448048" lon="-5.5968785">
        <ele>619.0</ele>
        <time>2021-02-14T13:03:21Z</time>
      </trkpt>
      <trkpt lat="43.44806" lon="-5.596876">
        <ele>619.0</ele>
        <time>2021-02-14T13:03:22Z</time>
      </trkpt>
      <trkpt lat="43.44807" lon="-5.596874">
        <ele>619.0</ele>
        <time>2021-02-14T13:03:23Z</time>
      </trkpt>
      <trkpt lat="43.44808" lon="-5.5968757">
        <ele>618.0</ele>
        <time>2021-02-14T13:03:24Z</time>
      </trkpt>
      <trkpt lat="43.44809" lon="-5.5968776">
        <ele>618.0</ele>
        <time>2021-02-14T13:03:25Z</time>
      </trkpt>
      <trkpt lat="43.4481" lon="-5.596878">
        <ele>618.0</ele>
        <time>2021-02-14T13:03:26Z</time>
      </trkpt>
      <trkpt lat="43.448105" lon="-5.5968766">
        <ele>618.0</ele>
        <time>2021-02-14T13:03:27Z</time>
      </trkpt>
      <trkpt lat="43.44812" lon="-5.596868">
        <ele>618.0</ele>
        <time>2021-02-14T13:03:29Z</time>
      </trkpt>
      <trkpt lat="43.44812" lon="-5.5968666">
        <ele>618.0</ele>
        <time>2021-02-14T13:03:30Z</time>
      </trkpt>
      <trkpt lat="43.448124" lon="-5.596865">
        <ele>618.0</ele>
        <time>2021-02-14T13:03:31Z</time>
      </trkpt>
      <trkpt lat="43.44814" lon="-5.596861">
        <ele>618.0</ele>
        <time>2021-02-14T13:03:32Z</time>
      </trkpt>
      <trkpt lat="43.448154" lon="-5.5968556">
        <ele>617.0</ele>
        <time>2021-02-14T13:03:33Z</time>
      </trkpt>
      <trkpt lat="43.448177" lon="-5.59685">
        <ele>617.0</ele>
        <time>2021-02-14T13:03:34Z</time>
      </trkpt>
      <trkpt lat="43.448196" lon="-5.596843">
        <ele>617.0</ele>
        <time>2021-02-14T13:03:35Z</time>
      </trkpt>
      <trkpt lat="43.44822" lon="-5.5968328">
        <ele>617.0</ele>
        <time>2021-02-14T13:03:36Z</time>
      </trkpt>
      <trkpt lat="43.44824" lon="-5.596823">
        <ele>617.0</ele>
        <time>2021-02-14T13:03:37Z</time>
      </trkpt>
      <trkpt lat="43.448265" lon="-5.596813">
        <ele>617.0</ele>
        <time>2021-02-14T13:03:38Z</time>
      </trkpt>
      <trkpt lat="43.448284" lon="-5.596805">
        <ele>617.0</ele>
        <time>2021-02-14T13:03:39Z</time>
      </trkpt>
      <trkpt lat="43.4483" lon="-5.596796">
        <ele>617.0</ele>
        <time>2021-02-14T13:03:40Z</time>
      </trkpt>
      <trkpt lat="43.448315" lon="-5.596788">
        <ele>617.0</ele>
        <time>2021-02-14T13:03:41Z</time>
      </trkpt>
      <trkpt lat="43.44833" lon="-5.5967813">
        <ele>617.0</ele>
        <time>2021-02-14T13:03:42Z</time>
      </trkpt>
      <trkpt lat="43.448345" lon="-5.5967774">
        <ele>617.0</ele>
        <time>2021-02-14T13:03:43Z</time>
      </trkpt>
      <trkpt lat="43.44836" lon="-5.5967774">
        <ele>617.0</ele>
        <time>2021-02-14T13:03:44Z</time>
      </trkpt>
      <trkpt lat="43.448376" lon="-5.596779">
        <ele>617.0</ele>
        <time>2021-02-14T13:03:45Z</time>
      </trkpt>
      <trkpt lat="43.44839" lon="-5.5967803">
        <ele>617.0</ele>
        <time>2021-02-14T13:03:46Z</time>
      </trkpt>
      <trkpt lat="43.448406" lon="-5.5967784">
        <ele>617.0</ele>
        <time>2021-02-14T13:03:47Z</time>
      </trkpt>
      <trkpt lat="43.44842" lon="-5.5967746">
        <ele>617.0</ele>
        <time>2021-02-14T13:03:48Z</time>
      </trkpt>
      <trkpt lat="43.448433" lon="-5.596771">
        <ele>617.0</ele>
        <time>2021-02-14T13:03:49Z</time>
      </trkpt>
      <trkpt lat="43.44845" lon="-5.596769">
        <ele>617.0</ele>
        <time>2021-02-14T13:03:50Z</time>
      </trkpt>
      <trkpt lat="43.44846" lon="-5.596768">
        <ele>617.0</ele>
        <time>2021-02-14T13:03:51Z</time>
      </trkpt>
      <trkpt lat="43.448467" lon="-5.59677">
        <ele>616.0</ele>
        <time>2021-02-14T13:03:52Z</time>
      </trkpt>
      <trkpt lat="43.448475" lon="-5.5967712">
        <ele>616.0</ele>
        <time>2021-02-14T13:03:53Z</time>
      </trkpt>
      <trkpt lat="43.44849" lon="-5.5967717">
        <ele>616.0</ele>
        <time>2021-02-14T13:03:54Z</time>
      </trkpt>
      <trkpt lat="43.448498" lon="-5.5967727">
        <ele>616.0</ele>
        <time>2021-02-14T13:03:55Z</time>
      </trkpt>
      <trkpt lat="43.44851" lon="-5.59677">
        <ele>616.0</ele>
        <time>2021-02-14T13:03:56Z</time>
      </trkpt>
      <trkpt lat="43.44852" lon="-5.596769">
        <ele>616.0</ele>
        <time>2021-02-14T13:03:57Z</time>
      </trkpt>
      <trkpt lat="43.448524" lon="-5.596768">
        <ele>616.0</ele>
        <time>2021-02-14T13:03:58Z</time>
      </trkpt>
      <trkpt lat="43.44853" lon="-5.596766">
        <ele>616.0</ele>
        <time>2021-02-14T13:03:59Z</time>
      </trkpt>
      <trkpt lat="43.44854" lon="-5.5967655">
        <ele>616.0</ele>
        <time>2021-02-14T13:04:00Z</time>
      </trkpt>
      <trkpt lat="43.44855" lon="-5.5967655">
        <ele>616.0</ele>
        <time>2021-02-14T13:04:01Z</time>
      </trkpt>
      <trkpt lat="43.448555" lon="-5.596764">
        <ele>616.0</ele>
        <time>2021-02-14T13:04:02Z</time>
      </trkpt>
      <trkpt lat="43.448566" lon="-5.5967627">
        <ele>616.0</ele>
        <time>2021-02-14T13:04:03Z</time>
      </trkpt>
      <trkpt lat="43.44857" lon="-5.5967636">
        <ele>616.0</ele>
        <time>2021-02-14T13:04:04Z</time>
      </trkpt>
      <trkpt lat="43.448586" lon="-5.5967727">
        <ele>616.0</ele>
        <time>2021-02-14T13:04:06Z</time>
      </trkpt>
      <trkpt lat="43.448593" lon="-5.596773">
        <ele>616.0</ele>
        <time>2021-02-14T13:04:07Z</time>
      </trkpt>
      <trkpt lat="43.448593" lon="-5.596775">
        <ele>616.0</ele>
        <time>2021-02-14T13:04:08Z</time>
      </trkpt>
      <trkpt lat="43.448597" lon="-5.596777">
        <ele>616.0</ele>
        <time>2021-02-14T13:04:09Z</time>
      </trkpt>
      <trkpt lat="43.448597" lon="-5.5967803">
        <ele>616.0</ele>
        <time>2021-02-14T13:04:10Z</time>
      </trkpt>
      <trkpt lat="43.4486" lon="-5.596784">
        <ele>616.0</ele>
        <time>2021-02-14T13:04:11Z</time>
      </trkpt>
      <trkpt lat="43.4486" lon="-5.596788">
        <ele>616.0</ele>
        <time>2021-02-14T13:04:12Z</time>
      </trkpt>
      <trkpt lat="43.448612" lon="-5.596794">
        <ele>616.0</ele>
        <time>2021-02-14T13:04:14Z</time>
      </trkpt>
      <trkpt lat="43.448612" lon="-5.596795">
        <ele>616.0</ele>
        <time>2021-02-14T13:04:15Z</time>
      </trkpt>
      <trkpt lat="43.448627" lon="-5.596796">
        <ele>616.0</ele>
        <time>2021-02-14T13:04:17Z</time>
      </trkpt>
      <trkpt lat="43.448627" lon="-5.596795">
        <ele>616.0</ele>
        <time>2021-02-14T13:04:18Z</time>
      </trkpt>
      <trkpt lat="43.44864" lon="-5.596789">
        <ele>616.0</ele>
        <time>2021-02-14T13:04:20Z</time>
      </trkpt>
      <trkpt lat="43.44864" lon="-5.596789">
        <ele>616.0</ele>
        <time>2021-02-14T13:04:21Z</time>
      </trkpt>
      <trkpt lat="43.44864" lon="-5.5967803">
        <ele>616.0</ele>
        <time>2021-02-14T13:04:22Z</time>
      </trkpt>
      <trkpt lat="43.44864" lon="-5.59677">
        <ele>616.0</ele>
        <time>2021-02-14T13:04:23Z</time>
      </trkpt>
      <trkpt lat="43.44864" lon="-5.5967617">
        <ele>616.0</ele>
        <time>2021-02-14T13:04:24Z</time>
      </trkpt>
      <trkpt lat="43.44864" lon="-5.5967526">
        <ele>616.0</ele>
        <time>2021-02-14T13:04:24Z</time>
      </trkpt>
      <trkpt lat="43.44863" lon="-5.5967455">
        <ele>616.0</ele>
        <time>2021-02-14T13:04:25Z</time>
      </trkpt>
      <trkpt lat="43.44863" lon="-5.5967393">
        <ele>616.0</ele>
        <time>2021-02-14T13:04:26Z</time>
      </trkpt>
      <trkpt lat="43.448627" lon="-5.596738">
        <ele>616.0</ele>
        <time>2021-02-14T13:04:27Z</time>
      </trkpt>
      <trkpt lat="43.448624" lon="-5.5967383">
        <ele>616.0</ele>
        <time>2021-02-14T13:04:28Z</time>
      </trkpt>
      <trkpt lat="43.448612" lon="-5.596741">
        <ele>616.0</ele>
        <time>2021-02-14T13:04:29Z</time>
      </trkpt>
      <trkpt lat="43.44861" lon="-5.596745">
        <ele>616.0</ele>
        <time>2021-02-14T13:04:30Z</time>
      </trkpt>
      <trkpt lat="43.44861" lon="-5.5967503">
        <ele>616.0</ele>
        <time>2021-02-14T13:04:31Z</time>
      </trkpt>
      <trkpt lat="43.4486" lon="-5.5967565">
        <ele>616.0</ele>
        <time>2021-02-14T13:04:32Z</time>
      </trkpt>
      <trkpt lat="43.44861" lon="-5.5967627">
        <ele>616.0</ele>
        <time>2021-02-14T13:04:33Z</time>
      </trkpt>
      <trkpt lat="43.44861" lon="-5.596769">
        <ele>616.0</ele>
        <time>2021-02-14T13:04:34Z</time>
      </trkpt>
      <trkpt lat="43.448616" lon="-5.596771">
        <ele>616.0</ele>
        <time>2021-02-14T13:04:35Z</time>
      </trkpt>
      <trkpt lat="43.448627" lon="-5.5967727">
        <ele>616.0</ele>
        <time>2021-02-14T13:04:36Z</time>
      </trkpt>
      <trkpt lat="43.44864" lon="-5.5967693">
        <ele>616.0</ele>
        <time>2021-02-14T13:04:37Z</time>
      </trkpt>
      <trkpt lat="43.448654" lon="-5.5967646">
        <ele>616.0</ele>
        <time>2021-02-14T13:04:38Z</time>
      </trkpt>
      <trkpt lat="43.44866" lon="-5.596759">
        <ele>616.0</ele>
        <time>2021-02-14T13:04:39Z</time>
      </trkpt>
      <trkpt lat="43.44867" lon="-5.5967507">
        <ele>616.0</ele>
        <time>2021-02-14T13:04:40Z</time>
      </trkpt>
      <trkpt lat="43.448677" lon="-5.5967417">
        <ele>616.0</ele>
        <time>2021-02-14T13:04:41Z</time>
      </trkpt>
      <trkpt lat="43.448685" lon="-5.5967355">
        <ele>616.0</ele>
        <time>2021-02-14T13:04:42Z</time>
      </trkpt>
      <trkpt lat="43.448692" lon="-5.5967336">
        <ele>616.0</ele>
        <time>2021-02-14T13:04:43Z</time>
      </trkpt>
      <trkpt lat="43.448704" lon="-5.5967336">
        <ele>616.0</ele>
        <time>2021-02-14T13:04:44Z</time>
      </trkpt>
      <trkpt lat="43.448715" lon="-5.5967393">
        <ele>616.0</ele>
        <time>2021-02-14T13:04:45Z</time>
      </trkpt>
      <trkpt lat="43.44873" lon="-5.5967436">
        <ele>616.0</ele>
        <time>2021-02-14T13:04:46Z</time>
      </trkpt>
      <trkpt lat="43.44874" lon="-5.596745">
        <ele>616.0</ele>
        <time>2021-02-14T13:04:47Z</time>
      </trkpt>
      <trkpt lat="43.44875" lon="-5.596745">
        <ele>616.0</ele>
        <time>2021-02-14T13:04:48Z</time>
      </trkpt>
      <trkpt lat="43.448753" lon="-5.5967445">
        <ele>614.0</ele>
        <time>2021-02-14T13:04:49Z</time>
      </trkpt>
      <trkpt lat="43.448765" lon="-5.5967417">
        <ele>614.0</ele>
        <time>2021-02-14T13:04:50Z</time>
      </trkpt>
      <trkpt lat="43.448776" lon="-5.59674">
        <ele>614.0</ele>
        <time>2021-02-14T13:04:51Z</time>
      </trkpt>
      <trkpt lat="43.448788" lon="-5.596738">
        <ele>614.0</ele>
        <time>2021-02-14T13:04:52Z</time>
      </trkpt>
      <trkpt lat="43.448795" lon="-5.5967364">
        <ele>614.0</ele>
        <time>2021-02-14T13:04:53Z</time>
      </trkpt>
      <trkpt lat="43.44881" lon="-5.596736">
        <ele>614.0</ele>
        <time>2021-02-14T13:04:54Z</time>
      </trkpt>
      <trkpt lat="43.448822" lon="-5.5967374">
        <ele>614.0</ele>
        <time>2021-02-14T13:04:55Z</time>
      </trkpt>
      <trkpt lat="43.448826" lon="-5.5967383">
        <ele>613.0</ele>
        <time>2021-02-14T13:04:56Z</time>
      </trkpt>
      <trkpt lat="43.448837" lon="-5.59674">
        <ele>613.0</ele>
        <time>2021-02-14T13:04:57Z</time>
      </trkpt>
      <trkpt lat="43.44885" lon="-5.596741">
        <ele>613.0</ele>
        <time>2021-02-14T13:04:58Z</time>
      </trkpt>
      <trkpt lat="43.448856" lon="-5.596743">
        <ele>613.0</ele>
        <time>2021-02-14T13:04:59Z</time>
      </trkpt>
      <trkpt lat="43.448868" lon="-5.596747">
        <ele>613.0</ele>
        <time>2021-02-14T13:05:00Z</time>
      </trkpt>
      <trkpt lat="43.44888" lon="-5.5967503">
        <ele>613.0</ele>
        <time>2021-02-14T13:05:01Z</time>
      </trkpt>
      <trkpt lat="43.448887" lon="-5.5967507">
        <ele>613.0</ele>
        <time>2021-02-14T13:05:02Z</time>
      </trkpt>
      <trkpt lat="43.4489" lon="-5.5967493">
        <ele>613.0</ele>
        <time>2021-02-14T13:05:03Z</time>
      </trkpt>
      <trkpt lat="43.44891" lon="-5.596747">
        <ele>612.0</ele>
        <time>2021-02-14T13:05:04Z</time>
      </trkpt>
      <trkpt lat="43.448917" lon="-5.5967402">
        <ele>612.0</ele>
        <time>2021-02-14T13:05:05Z</time>
      </trkpt>
      <trkpt lat="43.448925" lon="-5.5967336">
        <ele>612.0</ele>
        <time>2021-02-14T13:05:06Z</time>
      </trkpt>
      <trkpt lat="43.448933" lon="-5.596728">
        <ele>612.0</ele>
        <time>2021-02-14T13:05:07Z</time>
      </trkpt>
      <trkpt lat="43.448944" lon="-5.596724">
        <ele>612.0</ele>
        <time>2021-02-14T13:05:08Z</time>
      </trkpt>
      <trkpt lat="43.448956" lon="-5.596722">
        <ele>612.0</ele>
        <time>2021-02-14T13:05:09Z</time>
      </trkpt>
      <trkpt lat="43.44897" lon="-5.596722">
        <ele>612.0</ele>
        <time>2021-02-14T13:05:10Z</time>
      </trkpt>
      <trkpt lat="43.448986" lon="-5.596723">
        <ele>612.0</ele>
        <time>2021-02-14T13:05:11Z</time>
      </trkpt>
      <trkpt lat="43.448997" lon="-5.596724">
        <ele>612.0</ele>
        <time>2021-02-14T13:05:12Z</time>
      </trkpt>
      <trkpt lat="43.449013" lon="-5.596724">
        <ele>612.0</ele>
        <time>2021-02-14T13:05:13Z</time>
      </trkpt>
      <trkpt lat="43.44902" lon="-5.596726">
        <ele>612.0</ele>
        <time>2021-02-14T13:05:14Z</time>
      </trkpt>
      <trkpt lat="43.449036" lon="-5.596728">
        <ele>612.0</ele>
        <time>2021-02-14T13:05:15Z</time>
      </trkpt>
      <trkpt lat="43.44905" lon="-5.59673">
        <ele>612.0</ele>
        <time>2021-02-14T13:05:16Z</time>
      </trkpt>
      <trkpt lat="43.449062" lon="-5.596734">
        <ele>612.0</ele>
        <time>2021-02-14T13:05:17Z</time>
      </trkpt>
      <trkpt lat="43.449074" lon="-5.5967393">
        <ele>612.0</ele>
        <time>2021-02-14T13:05:18Z</time>
      </trkpt>
      <trkpt lat="43.44908" lon="-5.5967426">
        <ele>612.0</ele>
        <time>2021-02-14T13:05:19Z</time>
      </trkpt>
      <trkpt lat="43.449093" lon="-5.596745">
        <ele>612.0</ele>
        <time>2021-02-14T13:05:20Z</time>
      </trkpt>
      <trkpt lat="43.449104" lon="-5.596747">
        <ele>612.0</ele>
        <time>2021-02-14T13:05:21Z</time>
      </trkpt>
      <trkpt lat="43.449112" lon="-5.5967484">
        <ele>612.0</ele>
        <time>2021-02-14T13:05:22Z</time>
      </trkpt>
      <trkpt lat="43.449123" lon="-5.5967493">
        <ele>612.0</ele>
        <time>2021-02-14T13:05:23Z</time>
      </trkpt>
      <trkpt lat="43.44914" lon="-5.596754">
        <ele>612.0</ele>
        <time>2021-02-14T13:05:24Z</time>
      </trkpt>
      <trkpt lat="43.449154" lon="-5.59676">
        <ele>612.0</ele>
        <time>2021-02-14T13:05:25Z</time>
      </trkpt>
      <trkpt lat="43.449165" lon="-5.596767">
        <ele>612.0</ele>
        <time>2021-02-14T13:05:26Z</time>
      </trkpt>
      <trkpt lat="43.44918" lon="-5.5967736">
        <ele>612.0</ele>
        <time>2021-02-14T13:05:27Z</time>
      </trkpt>
      <trkpt lat="43.449192" lon="-5.5967793">
        <ele>612.0</ele>
        <time>2021-02-14T13:05:28Z</time>
      </trkpt>
      <trkpt lat="43.4492" lon="-5.596785">
        <ele>612.0</ele>
        <time>2021-02-14T13:05:29Z</time>
      </trkpt>
      <trkpt lat="43.449215" lon="-5.5967903">
        <ele>612.0</ele>
        <time>2021-02-14T13:05:30Z</time>
      </trkpt>
      <trkpt lat="43.449226" lon="-5.5967956">
        <ele>612.0</ele>
        <time>2021-02-14T13:05:31Z</time>
      </trkpt>
      <trkpt lat="43.449238" lon="-5.5968013">
        <ele>612.0</ele>
        <time>2021-02-14T13:05:32Z</time>
      </trkpt>
      <trkpt lat="43.449245" lon="-5.596807">
        <ele>612.0</ele>
        <time>2021-02-14T13:05:33Z</time>
      </trkpt>
      <trkpt lat="43.449257" lon="-5.5968113">
        <ele>612.0</ele>
        <time>2021-02-14T13:05:34Z</time>
      </trkpt>
      <trkpt lat="43.44927" lon="-5.5968165">
        <ele>612.0</ele>
        <time>2021-02-14T13:05:35Z</time>
      </trkpt>
      <trkpt lat="43.449272" lon="-5.596822">
        <ele>612.0</ele>
        <time>2021-02-14T13:05:36Z</time>
      </trkpt>
      <trkpt lat="43.449276" lon="-5.596827">
        <ele>612.0</ele>
        <time>2021-02-14T13:05:37Z</time>
      </trkpt>
      <trkpt lat="43.449287" lon="-5.5968313">
        <ele>612.0</ele>
        <time>2021-02-14T13:05:38Z</time>
      </trkpt>
      <trkpt lat="43.4493" lon="-5.596835">
        <ele>612.0</ele>
        <time>2021-02-14T13:05:39Z</time>
      </trkpt>
      <trkpt lat="43.449306" lon="-5.596839">
        <ele>612.0</ele>
        <time>2021-02-14T13:05:40Z</time>
      </trkpt>
      <trkpt lat="43.449314" lon="-5.596842">
        <ele>612.0</ele>
        <time>2021-02-14T13:05:41Z</time>
      </trkpt>
      <trkpt lat="43.44932" lon="-5.596844">
        <ele>612.0</ele>
        <time>2021-02-14T13:05:42Z</time>
      </trkpt>
      <trkpt lat="43.449333" lon="-5.5968447">
        <ele>612.0</ele>
        <time>2021-02-14T13:05:43Z</time>
      </trkpt>
      <trkpt lat="43.449345" lon="-5.5968475">
        <ele>612.0</ele>
        <time>2021-02-14T13:05:44Z</time>
      </trkpt>
      <trkpt lat="43.449356" lon="-5.59685">
        <ele>611.0</ele>
        <time>2021-02-14T13:05:45Z</time>
      </trkpt>
      <trkpt lat="43.449364" lon="-5.5968533">
        <ele>611.0</ele>
        <time>2021-02-14T13:05:46Z</time>
      </trkpt>
      <trkpt lat="43.44938" lon="-5.596858">
        <ele>611.0</ele>
        <time>2021-02-14T13:05:47Z</time>
      </trkpt>
      <trkpt lat="43.449394" lon="-5.5968623">
        <ele>611.0</ele>
        <time>2021-02-14T13:05:48Z</time>
      </trkpt>
      <trkpt lat="43.44941" lon="-5.5968666">
        <ele>611.0</ele>
        <time>2021-02-14T13:05:49Z</time>
      </trkpt>
      <trkpt lat="43.44942" lon="-5.5968704">
        <ele>611.0</ele>
        <time>2021-02-14T13:05:50Z</time>
      </trkpt>
      <trkpt lat="43.449436" lon="-5.5968738">
        <ele>610.0</ele>
        <time>2021-02-14T13:05:51Z</time>
      </trkpt>
      <trkpt lat="43.44945" lon="-5.5968766">
        <ele>610.0</ele>
        <time>2021-02-14T13:05:52Z</time>
      </trkpt>
      <trkpt lat="43.449467" lon="-5.5968814">
        <ele>610.0</ele>
        <time>2021-02-14T13:05:53Z</time>
      </trkpt>
      <trkpt lat="43.449482" lon="-5.596887">
        <ele>610.0</ele>
        <time>2021-02-14T13:05:54Z</time>
      </trkpt>
      <trkpt lat="43.449493" lon="-5.596891">
        <ele>610.0</ele>
        <time>2021-02-14T13:05:55Z</time>
      </trkpt>
      <trkpt lat="43.4495" lon="-5.5968924">
        <ele>610.0</ele>
        <time>2021-02-14T13:05:56Z</time>
      </trkpt>
      <trkpt lat="43.449512" lon="-5.5968947">
        <ele>610.0</ele>
        <time>2021-02-14T13:05:57Z</time>
      </trkpt>
      <trkpt lat="43.449524" lon="-5.5968966">
        <ele>610.0</ele>
        <time>2021-02-14T13:05:58Z</time>
      </trkpt>
      <trkpt lat="43.44953" lon="-5.596898">
        <ele>610.0</ele>
        <time>2021-02-14T13:05:59Z</time>
      </trkpt>
      <trkpt lat="43.449543" lon="-5.5968986">
        <ele>610.0</ele>
        <time>2021-02-14T13:06:00Z</time>
      </trkpt>
      <trkpt lat="43.449554" lon="-5.5969005">
        <ele>610.0</ele>
        <time>2021-02-14T13:06:01Z</time>
      </trkpt>
      <trkpt lat="43.44956" lon="-5.5969043">
        <ele>610.0</ele>
        <time>2021-02-14T13:06:02Z</time>
      </trkpt>
      <trkpt lat="43.44957" lon="-5.5969067">
        <ele>610.0</ele>
        <time>2021-02-14T13:06:03Z</time>
      </trkpt>
      <trkpt lat="43.44958" lon="-5.596911">
        <ele>610.0</ele>
        <time>2021-02-14T13:06:04Z</time>
      </trkpt>
      <trkpt lat="43.449596" lon="-5.5969152">
        <ele>610.0</ele>
        <time>2021-02-14T13:06:05Z</time>
      </trkpt>
      <trkpt lat="43.449604" lon="-5.5969186">
        <ele>610.0</ele>
        <time>2021-02-14T13:06:06Z</time>
      </trkpt>
      <trkpt lat="43.449615" lon="-5.5969205">
        <ele>610.0</ele>
        <time>2021-02-14T13:06:07Z</time>
      </trkpt>
      <trkpt lat="43.449627" lon="-5.5969214">
        <ele>610.0</ele>
        <time>2021-02-14T13:06:08Z</time>
      </trkpt>
      <trkpt lat="43.449642" lon="-5.596925">
        <ele>610.0</ele>
        <time>2021-02-14T13:06:09Z</time>
      </trkpt>
      <trkpt lat="43.449646" lon="-5.5969267">
        <ele>610.0</ele>
        <time>2021-02-14T13:06:10Z</time>
      </trkpt>
      <trkpt lat="43.449657" lon="-5.596927">
        <ele>610.0</ele>
        <time>2021-02-14T13:06:11Z</time>
      </trkpt>
      <trkpt lat="43.449665" lon="-5.596927">
        <ele>610.0</ele>
        <time>2021-02-14T13:06:12Z</time>
      </trkpt>
      <trkpt lat="43.44968" lon="-5.5969253">
        <ele>610.0</ele>
        <time>2021-02-14T13:06:13Z</time>
      </trkpt>
      <trkpt lat="43.44969" lon="-5.5969243">
        <ele>610.0</ele>
        <time>2021-02-14T13:06:14Z</time>
      </trkpt>
      <trkpt lat="43.449703" lon="-5.5969253">
        <ele>610.0</ele>
        <time>2021-02-14T13:06:15Z</time>
      </trkpt>
      <trkpt lat="43.44972" lon="-5.5969234">
        <ele>610.0</ele>
        <time>2021-02-14T13:06:16Z</time>
      </trkpt>
      <trkpt lat="43.449734" lon="-5.5969214">
        <ele>610.0</ele>
        <time>2021-02-14T13:06:17Z</time>
      </trkpt>
      <trkpt lat="43.449745" lon="-5.5969186">
        <ele>610.0</ele>
        <time>2021-02-14T13:06:18Z</time>
      </trkpt>
      <trkpt lat="43.449753" lon="-5.5969157">
        <ele>610.0</ele>
        <time>2021-02-14T13:06:19Z</time>
      </trkpt>
      <trkpt lat="43.449764" lon="-5.596913">
        <ele>610.0</ele>
        <time>2021-02-14T13:06:20Z</time>
      </trkpt>
      <trkpt lat="43.449776" lon="-5.596911">
        <ele>610.0</ele>
        <time>2021-02-14T13:06:21Z</time>
      </trkpt>
      <trkpt lat="43.449783" lon="-5.5969095">
        <ele>610.0</ele>
        <time>2021-02-14T13:06:22Z</time>
      </trkpt>
      <trkpt lat="43.449795" lon="-5.596908">
        <ele>610.0</ele>
        <time>2021-02-14T13:06:23Z</time>
      </trkpt>
      <trkpt lat="43.4498" lon="-5.596906">
        <ele>610.0</ele>
        <time>2021-02-14T13:06:24Z</time>
      </trkpt>
      <trkpt lat="43.449806" lon="-5.5969043">
        <ele>610.0</ele>
        <time>2021-02-14T13:06:25Z</time>
      </trkpt>
      <trkpt lat="43.449814" lon="-5.596901">
        <ele>610.0</ele>
        <time>2021-02-14T13:06:26Z</time>
      </trkpt>
      <trkpt lat="43.449825" lon="-5.596898">
        <ele>610.0</ele>
        <time>2021-02-14T13:06:27Z</time>
      </trkpt>
      <trkpt lat="43.449837" lon="-5.5968947">
        <ele>610.0</ele>
        <time>2021-02-14T13:06:28Z</time>
      </trkpt>
      <trkpt lat="43.44984" lon="-5.5968914">
        <ele>610.0</ele>
        <time>2021-02-14T13:06:29Z</time>
      </trkpt>
      <trkpt lat="43.449852" lon="-5.5968876">
        <ele>610.0</ele>
        <time>2021-02-14T13:06:30Z</time>
      </trkpt>
      <trkpt lat="43.449856" lon="-5.5968823">
        <ele>610.0</ele>
        <time>2021-02-14T13:06:31Z</time>
      </trkpt>
      <trkpt lat="43.449867" lon="-5.596878">
        <ele>610.0</ele>
        <time>2021-02-14T13:06:32Z</time>
      </trkpt>
      <trkpt lat="43.44987" lon="-5.596874">
        <ele>610.0</ele>
        <time>2021-02-14T13:06:33Z</time>
      </trkpt>
      <trkpt lat="43.449883" lon="-5.59687">
        <ele>610.0</ele>
        <time>2021-02-14T13:06:34Z</time>
      </trkpt>
      <trkpt lat="43.44989" lon="-5.596866">
        <ele>610.0</ele>
        <time>2021-02-14T13:06:35Z</time>
      </trkpt>
      <trkpt lat="43.4499" lon="-5.596863">
        <ele>611.0</ele>
        <time>2021-02-14T13:06:36Z</time>
      </trkpt>
      <trkpt lat="43.449913" lon="-5.596858">
        <ele>611.0</ele>
        <time>2021-02-14T13:06:37Z</time>
      </trkpt>
      <trkpt lat="43.44992" lon="-5.596854">
        <ele>611.0</ele>
        <time>2021-02-14T13:06:38Z</time>
      </trkpt>
      <trkpt lat="43.44994" lon="-5.596852">
        <ele>611.0</ele>
        <time>2021-02-14T13:06:39Z</time>
      </trkpt>
      <trkpt lat="43.449955" lon="-5.5968513">
        <ele>611.0</ele>
        <time>2021-02-14T13:06:40Z</time>
      </trkpt>
      <trkpt lat="43.449963" lon="-5.596848">
        <ele>611.0</ele>
        <time>2021-02-14T13:06:41Z</time>
      </trkpt>
      <trkpt lat="43.449978" lon="-5.596844">
        <ele>611.0</ele>
        <time>2021-02-14T13:06:42Z</time>
      </trkpt>
      <trkpt lat="43.449993" lon="-5.596839">
        <ele>612.0</ele>
        <time>2021-02-14T13:06:43Z</time>
      </trkpt>
      <trkpt lat="43.45001" lon="-5.596833">
        <ele>612.0</ele>
        <time>2021-02-14T13:06:44Z</time>
      </trkpt>
      <trkpt lat="43.45003" lon="-5.596831">
        <ele>612.0</ele>
        <time>2021-02-14T13:06:45Z</time>
      </trkpt>
      <trkpt lat="43.450047" lon="-5.59683">
        <ele>612.0</ele>
        <time>2021-02-14T13:06:46Z</time>
      </trkpt>
      <trkpt lat="43.45006" lon="-5.59683">
        <ele>612.0</ele>
        <time>2021-02-14T13:06:47Z</time>
      </trkpt>
      <trkpt lat="43.450077" lon="-5.596831">
        <ele>612.0</ele>
        <time>2021-02-14T13:06:48Z</time>
      </trkpt>
      <trkpt lat="43.450085" lon="-5.596832">
        <ele>612.0</ele>
        <time>2021-02-14T13:06:49Z</time>
      </trkpt>
      <trkpt lat="43.4501" lon="-5.5968337">
        <ele>612.0</ele>
        <time>2021-02-14T13:06:50Z</time>
      </trkpt>
      <trkpt lat="43.45012" lon="-5.5968347">
        <ele>612.0</ele>
        <time>2021-02-14T13:06:51Z</time>
      </trkpt>
      <trkpt lat="43.450127" lon="-5.5968328">
        <ele>612.0</ele>
        <time>2021-02-14T13:06:52Z</time>
      </trkpt>
      <trkpt lat="43.450138" lon="-5.5968294">
        <ele>612.0</ele>
        <time>2021-02-14T13:06:53Z</time>
      </trkpt>
      <trkpt lat="43.450153" lon="-5.5968256">
        <ele>612.0</ele>
        <time>2021-02-14T13:06:54Z</time>
      </trkpt>
      <trkpt lat="43.450165" lon="-5.596823">
        <ele>612.0</ele>
        <time>2021-02-14T13:06:55Z</time>
      </trkpt>
      <trkpt lat="43.450172" lon="-5.5968194">
        <ele>612.0</ele>
        <time>2021-02-14T13:06:56Z</time>
      </trkpt>
      <trkpt lat="43.45018" lon="-5.596813">
        <ele>612.0</ele>
        <time>2021-02-14T13:06:57Z</time>
      </trkpt>
      <trkpt lat="43.450188" lon="-5.596809">
        <ele>612.0</ele>
        <time>2021-02-14T13:06:58Z</time>
      </trkpt>
      <trkpt lat="43.4502" lon="-5.596805">
        <ele>612.0</ele>
        <time>2021-02-14T13:06:59Z</time>
      </trkpt>
      <trkpt lat="43.45021" lon="-5.596799">
        <ele>612.0</ele>
        <time>2021-02-14T13:07:00Z</time>
      </trkpt>
      <trkpt lat="43.45022" lon="-5.5967903">
        <ele>612.0</ele>
        <time>2021-02-14T13:07:01Z</time>
      </trkpt>
      <trkpt lat="43.450226" lon="-5.5967827">
        <ele>612.0</ele>
        <time>2021-02-14T13:07:02Z</time>
      </trkpt>
      <trkpt lat="43.45023" lon="-5.5967765">
        <ele>612.0</ele>
        <time>2021-02-14T13:07:03Z</time>
      </trkpt>
      <trkpt lat="43.450233" lon="-5.5967693">
        <ele>612.0</ele>
        <time>2021-02-14T13:07:04Z</time>
      </trkpt>
      <trkpt lat="43.45024" lon="-5.596762">
        <ele>612.0</ele>
        <time>2021-02-14T13:07:05Z</time>
      </trkpt>
      <trkpt lat="43.45025" lon="-5.596756">
        <ele>612.0</ele>
        <time>2021-02-14T13:07:06Z</time>
      </trkpt>
      <trkpt lat="43.45026" lon="-5.5967503">
        <ele>612.0</ele>
        <time>2021-02-14T13:07:07Z</time>
      </trkpt>
      <trkpt lat="43.450264" lon="-5.5967464">
        <ele>612.0</ele>
        <time>2021-02-14T13:07:08Z</time>
      </trkpt>
      <trkpt lat="43.45028" lon="-5.596745">
        <ele>612.0</ele>
        <time>2021-02-14T13:07:09Z</time>
      </trkpt>
      <trkpt lat="43.45029" lon="-5.596745">
        <ele>612.0</ele>
        <time>2021-02-14T13:07:10Z</time>
      </trkpt>
      <trkpt lat="43.450306" lon="-5.596745">
        <ele>612.0</ele>
        <time>2021-02-14T13:07:11Z</time>
      </trkpt>
      <trkpt lat="43.450317" lon="-5.5967436">
        <ele>612.0</ele>
        <time>2021-02-14T13:07:12Z</time>
      </trkpt>
      <trkpt lat="43.450333" lon="-5.5967426">
        <ele>612.0</ele>
        <time>2021-02-14T13:07:13Z</time>
      </trkpt>
      <trkpt lat="43.450344" lon="-5.5967393">
        <ele>612.0</ele>
        <time>2021-02-14T13:07:14Z</time>
      </trkpt>
      <trkpt lat="43.45035" lon="-5.5967383">
        <ele>612.0</ele>
        <time>2021-02-14T13:07:15Z</time>
      </trkpt>
      <trkpt lat="43.45036" lon="-5.5967417">
        <ele>612.0</ele>
        <time>2021-02-14T13:07:16Z</time>
      </trkpt>
      <trkpt lat="43.450363" lon="-5.5967464">
        <ele>612.0</ele>
        <time>2021-02-14T13:07:17Z</time>
      </trkpt>
      <trkpt lat="43.450367" lon="-5.5967526">
        <ele>612.0</ele>
        <time>2021-02-14T13:07:18Z</time>
      </trkpt>
      <trkpt lat="43.450382" lon="-5.59676">
        <ele>612.0</ele>
        <time>2021-02-14T13:07:19Z</time>
      </trkpt>
      <trkpt lat="43.450394" lon="-5.596768">
        <ele>612.0</ele>
        <time>2021-02-14T13:07:20Z</time>
      </trkpt>
      <trkpt lat="43.450397" lon="-5.596773">
        <ele>612.0</ele>
        <time>2021-02-14T13:07:21Z</time>
      </trkpt>
      <trkpt lat="43.45041" lon="-5.5967765">
        <ele>612.0</ele>
        <time>2021-02-14T13:07:22Z</time>
      </trkpt>
      <trkpt lat="43.45042" lon="-5.596779">
        <ele>612.0</ele>
        <time>2021-02-14T13:07:23Z</time>
      </trkpt>
      <trkpt lat="43.450428" lon="-5.5967827">
        <ele>612.0</ele>
        <time>2021-02-14T13:07:24Z</time>
      </trkpt>
      <trkpt lat="43.450436" lon="-5.596784">
        <ele>612.0</ele>
        <time>2021-02-14T13:07:25Z</time>
      </trkpt>
      <trkpt lat="43.450455" lon="-5.5967913">
        <ele>610.0</ele>
        <time>2021-02-14T13:07:27Z</time>
      </trkpt>
      <trkpt lat="43.450455" lon="-5.596793">
        <ele>610.0</ele>
        <time>2021-02-14T13:07:28Z</time>
      </trkpt>
      <trkpt lat="43.45046" lon="-5.596795">
        <ele>610.0</ele>
        <time>2021-02-14T13:07:29Z</time>
      </trkpt>
      <trkpt lat="43.45046" lon="-5.596794">
        <ele>610.0</ele>
        <time>2021-02-14T13:07:30Z</time>
      </trkpt>
      <trkpt lat="43.450466" lon="-5.59679">
        <ele>610.0</ele>
        <time>2021-02-14T13:07:31Z</time>
      </trkpt>
      <trkpt lat="43.45047" lon="-5.596788">
        <ele>609.0</ele>
        <time>2021-02-14T13:07:32Z</time>
      </trkpt>
      <trkpt lat="43.45048" lon="-5.59679">
        <ele>609.0</ele>
        <time>2021-02-14T13:07:33Z</time>
      </trkpt>
      <trkpt lat="43.45049" lon="-5.596793">
        <ele>609.0</ele>
        <time>2021-02-14T13:07:34Z</time>
      </trkpt>
      <trkpt lat="43.4505" lon="-5.596797">
        <ele>609.0</ele>
        <time>2021-02-14T13:07:35Z</time>
      </trkpt>
      <trkpt lat="43.450516" lon="-5.5968013">
        <ele>608.0</ele>
        <time>2021-02-14T13:07:36Z</time>
      </trkpt>
      <trkpt lat="43.45053" lon="-5.596811">
        <ele>608.0</ele>
        <time>2021-02-14T13:07:37Z</time>
      </trkpt>
      <trkpt lat="43.450546" lon="-5.5968237">
        <ele>608.0</ele>
        <time>2021-02-14T13:07:38Z</time>
      </trkpt>
      <trkpt lat="43.45057" lon="-5.596837">
        <ele>608.0</ele>
        <time>2021-02-14T13:07:39Z</time>
      </trkpt>
      <trkpt lat="43.450584" lon="-5.5968504">
        <ele>607.0</ele>
        <time>2021-02-14T13:07:40Z</time>
      </trkpt>
      <trkpt lat="43.4506" lon="-5.5968614">
        <ele>607.0</ele>
        <time>2021-02-14T13:07:41Z</time>
      </trkpt>
      <trkpt lat="43.450615" lon="-5.59687">
        <ele>607.0</ele>
        <time>2021-02-14T13:07:42Z</time>
      </trkpt>
      <trkpt lat="43.450623" lon="-5.596873">
        <ele>607.0</ele>
        <time>2021-02-14T13:07:43Z</time>
      </trkpt>
      <trkpt lat="43.450634" lon="-5.5968738">
        <ele>607.0</ele>
        <time>2021-02-14T13:07:44Z</time>
      </trkpt>
      <trkpt lat="43.45065" lon="-5.5968723">
        <ele>607.0</ele>
        <time>2021-02-14T13:07:45Z</time>
      </trkpt>
      <trkpt lat="43.450665" lon="-5.596871">
        <ele>607.0</ele>
        <time>2021-02-14T13:07:46Z</time>
      </trkpt>
      <trkpt lat="43.45068" lon="-5.5968685">
        <ele>606.0</ele>
        <time>2021-02-14T13:07:47Z</time>
      </trkpt>
      <trkpt lat="43.45069" lon="-5.596867">
        <ele>606.0</ele>
        <time>2021-02-14T13:07:48Z</time>
      </trkpt>
      <trkpt lat="43.450706" lon="-5.5968666">
        <ele>606.0</ele>
        <time>2021-02-14T13:07:49Z</time>
      </trkpt>
      <trkpt lat="43.450718" lon="-5.5968647">
        <ele>606.0</ele>
        <time>2021-02-14T13:07:50Z</time>
      </trkpt>
      <trkpt lat="43.45072" lon="-5.5968614">
        <ele>606.0</ele>
        <time>2021-02-14T13:07:51Z</time>
      </trkpt>
      <trkpt lat="43.450733" lon="-5.5968614">
        <ele>606.0</ele>
        <time>2021-02-14T13:07:52Z</time>
      </trkpt>
      <trkpt lat="43.45075" lon="-5.596864">
        <ele>606.0</ele>
        <time>2021-02-14T13:07:53Z</time>
      </trkpt>
      <trkpt lat="43.450756" lon="-5.5968685">
        <ele>606.0</ele>
        <time>2021-02-14T13:07:54Z</time>
      </trkpt>
      <trkpt lat="43.450768" lon="-5.5968747">
        <ele>606.0</ele>
        <time>2021-02-14T13:07:55Z</time>
      </trkpt>
      <trkpt lat="43.45078" lon="-5.5968804">
        <ele>606.0</ele>
        <time>2021-02-14T13:07:56Z</time>
      </trkpt>
      <trkpt lat="43.450787" lon="-5.596884">
        <ele>606.0</ele>
        <time>2021-02-14T13:07:57Z</time>
      </trkpt>
      <trkpt lat="43.450798" lon="-5.5968843">
        <ele>606.0</ele>
        <time>2021-02-14T13:07:58Z</time>
      </trkpt>
      <trkpt lat="43.45081" lon="-5.5968857">
        <ele>606.0</ele>
        <time>2021-02-14T13:07:59Z</time>
      </trkpt>
      <trkpt lat="43.450817" lon="-5.596887">
        <ele>606.0</ele>
        <time>2021-02-14T13:08:00Z</time>
      </trkpt>
      <trkpt lat="43.45083" lon="-5.5968876">
        <ele>606.0</ele>
        <time>2021-02-14T13:08:01Z</time>
      </trkpt>
      <trkpt lat="43.450844" lon="-5.5968866">
        <ele>606.0</ele>
        <time>2021-02-14T13:08:02Z</time>
      </trkpt>
      <trkpt lat="43.450863" lon="-5.5968857">
        <ele>606.0</ele>
        <time>2021-02-14T13:08:03Z</time>
      </trkpt>
      <trkpt lat="43.45088" lon="-5.596887">
        <ele>606.0</ele>
        <time>2021-02-14T13:08:04Z</time>
      </trkpt>
      <trkpt lat="43.4509" lon="-5.5968876">
        <ele>606.0</ele>
        <time>2021-02-14T13:08:05Z</time>
      </trkpt>
      <trkpt lat="43.45092" lon="-5.596887">
        <ele>606.0</ele>
        <time>2021-02-14T13:08:06Z</time>
      </trkpt>
      <trkpt lat="43.450935" lon="-5.5968857">
        <ele>606.0</ele>
        <time>2021-02-14T13:08:07Z</time>
      </trkpt>
      <trkpt lat="43.45095" lon="-5.5968833">
        <ele>606.0</ele>
        <time>2021-02-14T13:08:08Z</time>
      </trkpt>
      <trkpt lat="43.450966" lon="-5.5968804">
        <ele>606.0</ele>
        <time>2021-02-14T13:08:09Z</time>
      </trkpt>
      <trkpt lat="43.450977" lon="-5.5968795">
        <ele>606.0</ele>
        <time>2021-02-14T13:08:10Z</time>
      </trkpt>
      <trkpt lat="43.45099" lon="-5.5968785">
        <ele>606.0</ele>
        <time>2021-02-14T13:08:11Z</time>
      </trkpt>
      <trkpt lat="43.450996" lon="-5.5968804">
        <ele>606.0</ele>
        <time>2021-02-14T13:08:12Z</time>
      </trkpt>
      <trkpt lat="43.451008" lon="-5.5968843">
        <ele>606.0</ele>
        <time>2021-02-14T13:08:13Z</time>
      </trkpt>
      <trkpt lat="43.451023" lon="-5.5968885">
        <ele>606.0</ele>
        <time>2021-02-14T13:08:14Z</time>
      </trkpt>
      <trkpt lat="43.451035" lon="-5.596891">
        <ele>606.0</ele>
        <time>2021-02-14T13:08:15Z</time>
      </trkpt>
      <trkpt lat="43.45104" lon="-5.596891">
        <ele>606.0</ele>
        <time>2021-02-14T13:08:16Z</time>
      </trkpt>
      <trkpt lat="43.45105" lon="-5.5968904">
        <ele>606.0</ele>
        <time>2021-02-14T13:08:17Z</time>
      </trkpt>
      <trkpt lat="43.451054" lon="-5.5968885">
        <ele>606.0</ele>
        <time>2021-02-14T13:08:18Z</time>
      </trkpt>
      <trkpt lat="43.451065" lon="-5.596887">
        <ele>606.0</ele>
        <time>2021-02-14T13:08:19Z</time>
      </trkpt>
      <trkpt lat="43.45107" lon="-5.5968876">
        <ele>608.0</ele>
        <time>2021-02-14T13:08:20Z</time>
      </trkpt>
      <trkpt lat="43.45108" lon="-5.596891">
        <ele>608.0</ele>
        <time>2021-02-14T13:08:21Z</time>
      </trkpt>
      <trkpt lat="43.45109" lon="-5.5968933">
        <ele>608.0</ele>
        <time>2021-02-14T13:08:22Z</time>
      </trkpt>
      <trkpt lat="43.4511" lon="-5.596898">
        <ele>608.0</ele>
        <time>2021-02-14T13:08:23Z</time>
      </trkpt>
      <trkpt lat="43.451107" lon="-5.596904">
        <ele>608.0</ele>
        <time>2021-02-14T13:08:24Z</time>
      </trkpt>
      <trkpt lat="43.451115" lon="-5.596911">
        <ele>608.0</ele>
        <time>2021-02-14T13:08:25Z</time>
      </trkpt>
      <trkpt lat="43.451126" lon="-5.596914">
        <ele>608.0</ele>
        <time>2021-02-14T13:08:26Z</time>
      </trkpt>
      <trkpt lat="43.451138" lon="-5.596914">
        <ele>608.0</ele>
        <time>2021-02-14T13:08:27Z</time>
      </trkpt>
      <trkpt lat="43.45114" lon="-5.59691">
        <ele>608.0</ele>
        <time>2021-02-14T13:08:28Z</time>
      </trkpt>
      <trkpt lat="43.451153" lon="-5.5969057">
        <ele>608.0</ele>
        <time>2021-02-14T13:08:29Z</time>
      </trkpt>
      <trkpt lat="43.45116" lon="-5.596903">
        <ele>608.0</ele>
        <time>2021-02-14T13:08:30Z</time>
      </trkpt>
      <trkpt lat="43.45117" lon="-5.596901">
        <ele>609.0</ele>
        <time>2021-02-14T13:08:31Z</time>
      </trkpt>
      <trkpt lat="43.451176" lon="-5.596899">
        <ele>609.0</ele>
        <time>2021-02-14T13:08:32Z</time>
      </trkpt>
      <trkpt lat="43.451187" lon="-5.596898">
        <ele>609.0</ele>
        <time>2021-02-14T13:08:33Z</time>
      </trkpt>
      <trkpt lat="43.4512" lon="-5.5968986">
        <ele>609.0</ele>
        <time>2021-02-14T13:08:34Z</time>
      </trkpt>
      <trkpt lat="43.451214" lon="-5.596897">
        <ele>609.0</ele>
        <time>2021-02-14T13:08:35Z</time>
      </trkpt>
      <trkpt lat="43.451233" lon="-5.596896">
        <ele>609.0</ele>
        <time>2021-02-14T13:08:36Z</time>
      </trkpt>
      <trkpt lat="43.451252" lon="-5.596895">
        <ele>609.0</ele>
        <time>2021-02-14T13:08:37Z</time>
      </trkpt>
      <trkpt lat="43.451267" lon="-5.596895">
        <ele>609.0</ele>
        <time>2021-02-14T13:08:38Z</time>
      </trkpt>
      <trkpt lat="43.451286" lon="-5.5968986">
        <ele>609.0</ele>
        <time>2021-02-14T13:08:39Z</time>
      </trkpt>
      <trkpt lat="43.4513" lon="-5.596902">
        <ele>609.0</ele>
        <time>2021-02-14T13:08:39Z</time>
      </trkpt>
      <trkpt lat="43.45131" lon="-5.596904">
        <ele>609.0</ele>
        <time>2021-02-14T13:08:40Z</time>
      </trkpt>
      <trkpt lat="43.45132" lon="-5.5969057">
        <ele>609.0</ele>
        <time>2021-02-14T13:08:41Z</time>
      </trkpt>
      <trkpt lat="43.451332" lon="-5.5969076">
        <ele>609.0</ele>
        <time>2021-02-14T13:08:42Z</time>
      </trkpt>
      <trkpt lat="43.451347" lon="-5.59691">
        <ele>609.0</ele>
        <time>2021-02-14T13:08:43Z</time>
      </trkpt>
      <trkpt lat="43.451363" lon="-5.596911">
        <ele>609.0</ele>
        <time>2021-02-14T13:08:44Z</time>
      </trkpt>
      <trkpt lat="43.451378" lon="-5.5969067">
        <ele>609.0</ele>
        <time>2021-02-14T13:08:45Z</time>
      </trkpt>
      <trkpt lat="43.451385" lon="-5.5969005">
        <ele>609.0</ele>
        <time>2021-02-14T13:08:46Z</time>
      </trkpt>
      <trkpt lat="43.451397" lon="-5.5968933">
        <ele>609.0</ele>
        <time>2021-02-14T13:08:47Z</time>
      </trkpt>
      <trkpt lat="43.4514" lon="-5.5968876">
        <ele>609.0</ele>
        <time>2021-02-14T13:08:48Z</time>
      </trkpt>
      <trkpt lat="43.451412" lon="-5.5968833">
        <ele>609.0</ele>
        <time>2021-02-14T13:08:49Z</time>
      </trkpt>
      <trkpt lat="43.451424" lon="-5.5968795">
        <ele>609.0</ele>
        <time>2021-02-14T13:08:50Z</time>
      </trkpt>
      <trkpt lat="43.45143" lon="-5.5968776">
        <ele>609.0</ele>
        <time>2021-02-14T13:08:51Z</time>
      </trkpt>
      <trkpt lat="43.451443" lon="-5.596876">
        <ele>609.0</ele>
        <time>2021-02-14T13:08:52Z</time>
      </trkpt>
      <trkpt lat="43.451454" lon="-5.5968757">
        <ele>609.0</ele>
        <time>2021-02-14T13:08:53Z</time>
      </trkpt>
      <trkpt lat="43.45146" lon="-5.5968757">
        <ele>609.0</ele>
        <time>2021-02-14T13:08:54Z</time>
      </trkpt>
      <trkpt lat="43.45148" lon="-5.5968757">
        <ele>609.0</ele>
        <time>2021-02-14T13:08:55Z</time>
      </trkpt>
      <trkpt lat="43.45149" lon="-5.5968738">
        <ele>609.0</ele>
        <time>2021-02-14T13:08:56Z</time>
      </trkpt>
      <trkpt lat="43.4515" lon="-5.596871">
        <ele>608.0</ele>
        <time>2021-02-14T13:08:57Z</time>
      </trkpt>
      <trkpt lat="43.451504" lon="-5.5968685">
        <ele>608.0</ele>
        <time>2021-02-14T13:08:58Z</time>
      </trkpt>
      <trkpt lat="43.451515" lon="-5.5968666">
        <ele>608.0</ele>
        <time>2021-02-14T13:08:59Z</time>
      </trkpt>
      <trkpt lat="43.45152" lon="-5.596865">
        <ele>608.0</ele>
        <time>2021-02-14T13:09:00Z</time>
      </trkpt>
      <trkpt lat="43.45153" lon="-5.596866">
        <ele>608.0</ele>
        <time>2021-02-14T13:09:01Z</time>
      </trkpt>
      <trkpt lat="43.45154" lon="-5.5968666">
        <ele>608.0</ele>
        <time>2021-02-14T13:09:02Z</time>
      </trkpt>
      <trkpt lat="43.45155" lon="-5.5968685">
        <ele>608.0</ele>
        <time>2021-02-14T13:09:03Z</time>
      </trkpt>
      <trkpt lat="43.451565" lon="-5.59687">
        <ele>608.0</ele>
        <time>2021-02-14T13:09:04Z</time>
      </trkpt>
      <trkpt lat="43.45158" lon="-5.596871">
        <ele>608.0</ele>
        <time>2021-02-14T13:09:05Z</time>
      </trkpt>
      <trkpt lat="43.451595" lon="-5.5968723">
        <ele>608.0</ele>
        <time>2021-02-14T13:09:06Z</time>
      </trkpt>
      <trkpt lat="43.451607" lon="-5.5968738">
        <ele>608.0</ele>
        <time>2021-02-14T13:09:07Z</time>
      </trkpt>
      <trkpt lat="43.45162" lon="-5.5968747">
        <ele>608.0</ele>
        <time>2021-02-14T13:09:08Z</time>
      </trkpt>
      <trkpt lat="43.451622" lon="-5.5968738">
        <ele>608.0</ele>
        <time>2021-02-14T13:09:09Z</time>
      </trkpt>
      <trkpt lat="43.451626" lon="-5.5968738">
        <ele>608.0</ele>
        <time>2021-02-14T13:09:10Z</time>
      </trkpt>
      <trkpt lat="43.451633" lon="-5.5968738">
        <ele>608.0</ele>
        <time>2021-02-14T13:09:11Z</time>
      </trkpt>
      <trkpt lat="43.451637" lon="-5.5968738">
        <ele>608.0</ele>
        <time>2021-02-14T13:09:12Z</time>
      </trkpt>
      <trkpt lat="43.45165" lon="-5.596872">
        <ele>608.0</ele>
        <time>2021-02-14T13:09:13Z</time>
      </trkpt>
      <trkpt lat="43.451656" lon="-5.5968685">
        <ele>608.0</ele>
        <time>2021-02-14T13:09:14Z</time>
      </trkpt>
      <trkpt lat="43.451668" lon="-5.596866">
        <ele>608.0</ele>
        <time>2021-02-14T13:09:15Z</time>
      </trkpt>
      <trkpt lat="43.45168" lon="-5.5968623">
        <ele>608.0</ele>
        <time>2021-02-14T13:09:16Z</time>
      </trkpt>
      <trkpt lat="43.45169" lon="-5.596857">
        <ele>608.0</ele>
        <time>2021-02-14T13:09:17Z</time>
      </trkpt>
      <trkpt lat="43.451706" lon="-5.5968513">
        <ele>608.0</ele>
        <time>2021-02-14T13:09:18Z</time>
      </trkpt>
      <trkpt lat="43.45172" lon="-5.596846">
        <ele>608.0</ele>
        <time>2021-02-14T13:09:19Z</time>
      </trkpt>
      <trkpt lat="43.451736" lon="-5.59684">
        <ele>608.0</ele>
        <time>2021-02-14T13:09:20Z</time>
      </trkpt>
      <trkpt lat="43.451744" lon="-5.596832">
        <ele>608.0</ele>
        <time>2021-02-14T13:09:21Z</time>
      </trkpt>
      <trkpt lat="43.45176" lon="-5.596825">
        <ele>608.0</ele>
        <time>2021-02-14T13:09:22Z</time>
      </trkpt>
      <trkpt lat="43.45177" lon="-5.5968204">
        <ele>608.0</ele>
        <time>2021-02-14T13:09:23Z</time>
      </trkpt>
      <trkpt lat="43.451775" lon="-5.596816">
        <ele>608.0</ele>
        <time>2021-02-14T13:09:24Z</time>
      </trkpt>
      <trkpt lat="43.451786" lon="-5.5968113">
        <ele>608.0</ele>
        <time>2021-02-14T13:09:25Z</time>
      </trkpt>
      <trkpt lat="43.4518" lon="-5.5968075">
        <ele>608.0</ele>
        <time>2021-02-14T13:09:26Z</time>
      </trkpt>
      <trkpt lat="43.451813" lon="-5.596805">
        <ele>608.0</ele>
        <time>2021-02-14T13:09:27Z</time>
      </trkpt>
      <trkpt lat="43.451828" lon="-5.596801">
        <ele>608.0</ele>
        <time>2021-02-14T13:09:28Z</time>
      </trkpt>
      <trkpt lat="43.451843" lon="-5.5967975">
        <ele>608.0</ele>
        <time>2021-02-14T13:09:29Z</time>
      </trkpt>
      <trkpt lat="43.45186" lon="-5.596796">
        <ele>606.0</ele>
        <time>2021-02-14T13:09:30Z</time>
      </trkpt>
      <trkpt lat="43.45187" lon="-5.596795">
        <ele>606.0</ele>
        <time>2021-02-14T13:09:31Z</time>
      </trkpt>
      <trkpt lat="43.451878" lon="-5.5967937">
        <ele>606.0</ele>
        <time>2021-02-14T13:09:32Z</time>
      </trkpt>
      <trkpt lat="43.45189" lon="-5.5967917">
        <ele>606.0</ele>
        <time>2021-02-14T13:09:33Z</time>
      </trkpt>
      <trkpt lat="43.451904" lon="-5.5967917">
        <ele>606.0</ele>
        <time>2021-02-14T13:09:34Z</time>
      </trkpt>
      <trkpt lat="43.451916" lon="-5.596793">
        <ele>606.0</ele>
        <time>2021-02-14T13:09:35Z</time>
      </trkpt>
      <trkpt lat="43.45193" lon="-5.596793">
        <ele>606.0</ele>
        <time>2021-02-14T13:09:36Z</time>
      </trkpt>
      <trkpt lat="43.451946" lon="-5.596793">
        <ele>606.0</ele>
        <time>2021-02-14T13:09:37Z</time>
      </trkpt>
      <trkpt lat="43.451965" lon="-5.5967937">
        <ele>606.0</ele>
        <time>2021-02-14T13:09:38Z</time>
      </trkpt>
      <trkpt lat="43.451984" lon="-5.596795">
        <ele>606.0</ele>
        <time>2021-02-14T13:09:39Z</time>
      </trkpt>
      <trkpt lat="43.452007" lon="-5.596793">
        <ele>606.0</ele>
        <time>2021-02-14T13:09:40Z</time>
      </trkpt>
      <trkpt lat="43.45203" lon="-5.5967903">
        <ele>606.0</ele>
        <time>2021-02-14T13:09:41Z</time>
      </trkpt>
      <trkpt lat="43.45205" lon="-5.596787">
        <ele>606.0</ele>
        <time>2021-02-14T13:09:42Z</time>
      </trkpt>
      <trkpt lat="43.452057" lon="-5.596784">
        <ele>606.0</ele>
        <time>2021-02-14T13:09:43Z</time>
      </trkpt>
      <trkpt lat="43.45207" lon="-5.596784">
        <ele>606.0</ele>
        <time>2021-02-14T13:09:44Z</time>
      </trkpt>
      <trkpt lat="43.45208" lon="-5.596786">
        <ele>606.0</ele>
        <time>2021-02-14T13:09:45Z</time>
      </trkpt>
      <trkpt lat="43.452087" lon="-5.5967884">
        <ele>606.0</ele>
        <time>2021-02-14T13:09:46Z</time>
      </trkpt>
      <trkpt lat="43.4521" lon="-5.59679">
        <ele>606.0</ele>
        <time>2021-02-14T13:09:47Z</time>
      </trkpt>
      <trkpt lat="43.452114" lon="-5.596789">
        <ele>605.0</ele>
        <time>2021-02-14T13:09:48Z</time>
      </trkpt>
      <trkpt lat="43.452118" lon="-5.596789">
        <ele>605.0</ele>
        <time>2021-02-14T13:09:49Z</time>
      </trkpt>
      <trkpt lat="43.45213" lon="-5.59679">
        <ele>605.0</ele>
        <time>2021-02-14T13:09:50Z</time>
      </trkpt>
      <trkpt lat="43.452133" lon="-5.59679">
        <ele>605.0</ele>
        <time>2021-02-14T13:09:51Z</time>
      </trkpt>
      <trkpt lat="43.45214" lon="-5.5967913">
        <ele>605.0</ele>
        <time>2021-02-14T13:09:52Z</time>
      </trkpt>
      <trkpt lat="43.45215" lon="-5.5967917">
        <ele>605.0</ele>
        <time>2021-02-14T13:09:53Z</time>
      </trkpt>
      <trkpt lat="43.45216" lon="-5.596792">
        <ele>605.0</ele>
        <time>2021-02-14T13:09:54Z</time>
      </trkpt>
      <trkpt lat="43.45217" lon="-5.596793">
        <ele>605.0</ele>
        <time>2021-02-14T13:09:55Z</time>
      </trkpt>
      <trkpt lat="43.45218" lon="-5.596793">
        <ele>605.0</ele>
        <time>2021-02-14T13:09:56Z</time>
      </trkpt>
      <trkpt lat="43.45219" lon="-5.596794">
        <ele>605.0</ele>
        <time>2021-02-14T13:09:57Z</time>
      </trkpt>
      <trkpt lat="43.4522" lon="-5.596796">
        <ele>605.0</ele>
        <time>2021-02-14T13:09:58Z</time>
      </trkpt>
      <trkpt lat="43.452217" lon="-5.596797">
        <ele>605.0</ele>
        <time>2021-02-14T13:09:59Z</time>
      </trkpt>
      <trkpt lat="43.452225" lon="-5.596799">
        <ele>604.0</ele>
        <time>2021-02-14T13:10:00Z</time>
      </trkpt>
      <trkpt lat="43.452244" lon="-5.596801">
        <ele>604.0</ele>
        <time>2021-02-14T13:10:01Z</time>
      </trkpt>
      <trkpt lat="43.45226" lon="-5.5968037">
        <ele>604.0</ele>
        <time>2021-02-14T13:10:02Z</time>
      </trkpt>
      <trkpt lat="43.452267" lon="-5.5968084">
        <ele>604.0</ele>
        <time>2021-02-14T13:10:03Z</time>
      </trkpt>
      <trkpt lat="43.452282" lon="-5.5968122">
        <ele>604.0</ele>
        <time>2021-02-14T13:10:04Z</time>
      </trkpt>
      <trkpt lat="43.452293" lon="-5.5968156">
        <ele>604.0</ele>
        <time>2021-02-14T13:10:05Z</time>
      </trkpt>
      <trkpt lat="43.45231" lon="-5.5968184">
        <ele>604.0</ele>
        <time>2021-02-14T13:10:06Z</time>
      </trkpt>
      <trkpt lat="43.45232" lon="-5.596823">
        <ele>604.0</ele>
        <time>2021-02-14T13:10:07Z</time>
      </trkpt>
      <trkpt lat="43.452328" lon="-5.596826">
        <ele>604.0</ele>
        <time>2021-02-14T13:10:08Z</time>
      </trkpt>
      <trkpt lat="43.452343" lon="-5.596828">
        <ele>604.0</ele>
        <time>2021-02-14T13:10:09Z</time>
      </trkpt>
      <trkpt lat="43.45236" lon="-5.596827">
        <ele>604.0</ele>
        <time>2021-02-14T13:10:10Z</time>
      </trkpt>
      <trkpt lat="43.45237" lon="-5.596824">
        <ele>604.0</ele>
        <time>2021-02-14T13:10:11Z</time>
      </trkpt>
      <trkpt lat="43.452385" lon="-5.596823">
        <ele>604.0</ele>
        <time>2021-02-14T13:10:12Z</time>
      </trkpt>
      <trkpt lat="43.4524" lon="-5.5968223">
        <ele>604.0</ele>
        <time>2021-02-14T13:10:13Z</time>
      </trkpt>
      <trkpt lat="43.452415" lon="-5.5968237">
        <ele>604.0</ele>
        <time>2021-02-14T13:10:14Z</time>
      </trkpt>
      <trkpt lat="43.45243" lon="-5.5968313">
        <ele>604.0</ele>
        <time>2021-02-14T13:10:15Z</time>
      </trkpt>
      <trkpt lat="43.452446" lon="-5.5968404">
        <ele>604.0</ele>
        <time>2021-02-14T13:10:16Z</time>
      </trkpt>
      <trkpt lat="43.45246" lon="-5.5968475">
        <ele>604.0</ele>
        <time>2021-02-14T13:10:17Z</time>
      </trkpt>
      <trkpt lat="43.452477" lon="-5.5968504">
        <ele>604.0</ele>
        <time>2021-02-14T13:10:18Z</time>
      </trkpt>
      <trkpt lat="43.45249" lon="-5.5968575">
        <ele>604.0</ele>
        <time>2021-02-14T13:10:19Z</time>
      </trkpt>
      <trkpt lat="43.452507" lon="-5.596866">
        <ele>604.0</ele>
        <time>2021-02-14T13:10:20Z</time>
      </trkpt>
      <trkpt lat="43.452522" lon="-5.5968738">
        <ele>604.0</ele>
        <time>2021-02-14T13:10:21Z</time>
      </trkpt>
      <trkpt lat="43.452538" lon="-5.596882">
        <ele>604.0</ele>
        <time>2021-02-14T13:10:22Z</time>
      </trkpt>
      <trkpt lat="43.45255" lon="-5.596891">
        <ele>604.0</ele>
        <time>2021-02-14T13:10:23Z</time>
      </trkpt>
      <trkpt lat="43.452564" lon="-5.5969">
        <ele>604.0</ele>
        <time>2021-02-14T13:10:24Z</time>
      </trkpt>
      <trkpt lat="43.452576" lon="-5.5969076">
        <ele>604.0</ele>
        <time>2021-02-14T13:10:25Z</time>
      </trkpt>
      <trkpt lat="43.45258" lon="-5.596914">
        <ele>604.0</ele>
        <time>2021-02-14T13:10:26Z</time>
      </trkpt>
      <trkpt lat="43.452583" lon="-5.596921">
        <ele>604.0</ele>
        <time>2021-02-14T13:10:27Z</time>
      </trkpt>
      <trkpt lat="43.452606" lon="-5.596939">
        <ele>604.0</ele>
        <time>2021-02-14T13:10:29Z</time>
      </trkpt>
      <trkpt lat="43.452606" lon="-5.5969396">
        <ele>604.0</ele>
        <time>2021-02-14T13:10:30Z</time>
      </trkpt>
      <trkpt lat="43.45261" lon="-5.596942">
        <ele>604.0</ele>
        <time>2021-02-14T13:10:31Z</time>
      </trkpt>
      <trkpt lat="43.452614" lon="-5.5969477">
        <ele>604.0</ele>
        <time>2021-02-14T13:10:32Z</time>
      </trkpt>
      <trkpt lat="43.452625" lon="-5.5969553">
        <ele>604.0</ele>
        <time>2021-02-14T13:10:33Z</time>
      </trkpt>
      <trkpt lat="43.452637" lon="-5.5969634">
        <ele>604.0</ele>
        <time>2021-02-14T13:10:34Z</time>
      </trkpt>
      <trkpt lat="43.45264" lon="-5.5969696">
        <ele>604.0</ele>
        <time>2021-02-14T13:10:35Z</time>
      </trkpt>
      <trkpt lat="43.45265" lon="-5.596975">
        <ele>604.0</ele>
        <time>2021-02-14T13:10:36Z</time>
      </trkpt>
      <trkpt lat="43.452656" lon="-5.596979">
        <ele>604.0</ele>
        <time>2021-02-14T13:10:37Z</time>
      </trkpt>
      <trkpt lat="43.452663" lon="-5.596985">
        <ele>605.0</ele>
        <time>2021-02-14T13:10:38Z</time>
      </trkpt>
      <trkpt lat="43.45267" lon="-5.5969915">
        <ele>605.0</ele>
        <time>2021-02-14T13:10:39Z</time>
      </trkpt>
      <trkpt lat="43.452682" lon="-5.5969973">
        <ele>605.0</ele>
        <time>2021-02-14T13:10:40Z</time>
      </trkpt>
      <trkpt lat="43.452694" lon="-5.5970016">
        <ele>605.0</ele>
        <time>2021-02-14T13:10:41Z</time>
      </trkpt>
      <trkpt lat="43.4527" lon="-5.597005">
        <ele>605.0</ele>
        <time>2021-02-14T13:10:42Z</time>
      </trkpt>
      <trkpt lat="43.452713" lon="-5.597008">
        <ele>605.0</ele>
        <time>2021-02-14T13:10:43Z</time>
      </trkpt>
      <trkpt lat="43.452724" lon="-5.59701">
        <ele>605.0</ele>
        <time>2021-02-14T13:10:44Z</time>
      </trkpt>
      <trkpt lat="43.452732" lon="-5.597013">
        <ele>605.0</ele>
        <time>2021-02-14T13:10:45Z</time>
      </trkpt>
      <trkpt lat="43.452747" lon="-5.5970182">
        <ele>605.0</ele>
        <time>2021-02-14T13:10:46Z</time>
      </trkpt>
      <trkpt lat="43.452763" lon="-5.5970206">
        <ele>605.0</ele>
        <time>2021-02-14T13:10:47Z</time>
      </trkpt>
      <trkpt lat="43.452785" lon="-5.5970206">
        <ele>605.0</ele>
        <time>2021-02-14T13:10:48Z</time>
      </trkpt>
      <trkpt lat="43.4528" lon="-5.5970197">
        <ele>605.0</ele>
        <time>2021-02-14T13:10:49Z</time>
      </trkpt>
      <trkpt lat="43.45281" lon="-5.5970187">
        <ele>605.0</ele>
        <time>2021-02-14T13:10:50Z</time>
      </trkpt>
      <trkpt lat="43.45282" lon="-5.5970206">
        <ele>605.0</ele>
        <time>2021-02-14T13:10:51Z</time>
      </trkpt>
      <trkpt lat="43.452827" lon="-5.597024">
        <ele>605.0</ele>
        <time>2021-02-14T13:10:52Z</time>
      </trkpt>
      <trkpt lat="43.452827" lon="-5.597029">
        <ele>605.0</ele>
        <time>2021-02-14T13:10:53Z</time>
      </trkpt>
      <trkpt lat="43.45283" lon="-5.5970364">
        <ele>605.0</ele>
        <time>2021-02-14T13:10:54Z</time>
      </trkpt>
      <trkpt lat="43.45283" lon="-5.5970426">
        <ele>606.0</ele>
        <time>2021-02-14T13:10:55Z</time>
      </trkpt>
      <trkpt lat="43.452835" lon="-5.597045">
        <ele>606.0</ele>
        <time>2021-02-14T13:10:56Z</time>
      </trkpt>
      <trkpt lat="43.452843" lon="-5.5970483">
        <ele>606.0</ele>
        <time>2021-02-14T13:10:57Z</time>
      </trkpt>
      <trkpt lat="43.45285" lon="-5.59705">
        <ele>606.0</ele>
        <time>2021-02-14T13:10:58Z</time>
      </trkpt>
      <trkpt lat="43.452866" lon="-5.597052">
        <ele>606.0</ele>
        <time>2021-02-14T13:10:59Z</time>
      </trkpt>
      <trkpt lat="43.45288" lon="-5.5970526">
        <ele>606.0</ele>
        <time>2021-02-14T13:11:00Z</time>
      </trkpt>
      <trkpt lat="43.452896" lon="-5.5970526">
        <ele>606.0</ele>
        <time>2021-02-14T13:11:01Z</time>
      </trkpt>
      <trkpt lat="43.45291" lon="-5.5970526">
        <ele>606.0</ele>
        <time>2021-02-14T13:11:02Z</time>
      </trkpt>
      <trkpt lat="43.452927" lon="-5.5970526">
        <ele>606.0</ele>
        <time>2021-02-14T13:11:03Z</time>
      </trkpt>
      <trkpt lat="43.45294" lon="-5.597055">
        <ele>606.0</ele>
        <time>2021-02-14T13:11:04Z</time>
      </trkpt>
      <trkpt lat="43.452957" lon="-5.597059">
        <ele>606.0</ele>
        <time>2021-02-14T13:11:05Z</time>
      </trkpt>
      <trkpt lat="43.45297" lon="-5.5970616">
        <ele>606.0</ele>
        <time>2021-02-14T13:11:06Z</time>
      </trkpt>
      <trkpt lat="43.452984" lon="-5.5970654">
        <ele>606.0</ele>
        <time>2021-02-14T13:11:07Z</time>
      </trkpt>
      <trkpt lat="43.452988" lon="-5.597071">
        <ele>606.0</ele>
        <time>2021-02-14T13:11:08Z</time>
      </trkpt>
      <trkpt lat="43.453" lon="-5.597077">
        <ele>606.0</ele>
        <time>2021-02-14T13:11:09Z</time>
      </trkpt>
      <trkpt lat="43.453026" lon="-5.5970855">
        <ele>606.0</ele>
        <time>2021-02-14T13:11:11Z</time>
      </trkpt>
      <trkpt lat="43.45303" lon="-5.597085">
        <ele>606.0</ele>
        <time>2021-02-14T13:11:12Z</time>
      </trkpt>
      <trkpt lat="43.453037" lon="-5.5970836">
        <ele>606.0</ele>
        <time>2021-02-14T13:11:13Z</time>
      </trkpt>
      <trkpt lat="43.45304" lon="-5.5970817">
        <ele>606.0</ele>
        <time>2021-02-14T13:11:14Z</time>
      </trkpt>
      <trkpt lat="43.453053" lon="-5.597078">
        <ele>606.0</ele>
        <time>2021-02-14T13:11:15Z</time>
      </trkpt>
      <trkpt lat="43.45306" lon="-5.5970745">
        <ele>606.0</ele>
        <time>2021-02-14T13:11:16Z</time>
      </trkpt>
      <trkpt lat="43.453075" lon="-5.597071">
        <ele>606.0</ele>
        <time>2021-02-14T13:11:17Z</time>
      </trkpt>
      <trkpt lat="43.453087" lon="-5.597067">
        <ele>606.0</ele>
        <time>2021-02-14T13:11:18Z</time>
      </trkpt>
      <trkpt lat="43.453102" lon="-5.5970654">
        <ele>606.0</ele>
        <time>2021-02-14T13:11:19Z</time>
      </trkpt>
      <trkpt lat="43.453114" lon="-5.5970645">
        <ele>606.0</ele>
        <time>2021-02-14T13:11:20Z</time>
      </trkpt>
      <trkpt lat="43.45313" lon="-5.5970635">
        <ele>606.0</ele>
        <time>2021-02-14T13:11:21Z</time>
      </trkpt>
      <trkpt lat="43.453136" lon="-5.597065">
        <ele>606.0</ele>
        <time>2021-02-14T13:11:22Z</time>
      </trkpt>
      <trkpt lat="43.453148" lon="-5.5970645">
        <ele>606.0</ele>
        <time>2021-02-14T13:11:23Z</time>
      </trkpt>
      <trkpt lat="43.45316" lon="-5.5970616">
        <ele>606.0</ele>
        <time>2021-02-14T13:11:24Z</time>
      </trkpt>
      <trkpt lat="43.453167" lon="-5.597059">
        <ele>606.0</ele>
        <time>2021-02-14T13:11:25Z</time>
      </trkpt>
      <trkpt lat="43.453175" lon="-5.597055">
        <ele>606.0</ele>
        <time>2021-02-14T13:11:26Z</time>
      </trkpt>
      <trkpt lat="43.45319" lon="-5.59705">
        <ele>606.0</ele>
        <time>2021-02-14T13:11:27Z</time>
      </trkpt>
      <trkpt lat="43.453197" lon="-5.597046">
        <ele>606.0</ele>
        <time>2021-02-14T13:11:28Z</time>
      </trkpt>
      <trkpt lat="43.45321" lon="-5.597043">
        <ele>606.0</ele>
        <time>2021-02-14T13:11:29Z</time>
      </trkpt>
      <trkpt lat="43.453224" lon="-5.597041">
        <ele>606.0</ele>
        <time>2021-02-14T13:11:30Z</time>
      </trkpt>
      <trkpt lat="43.453236" lon="-5.597039">
        <ele>606.0</ele>
        <time>2021-02-14T13:11:31Z</time>
      </trkpt>
      <trkpt lat="43.45325" lon="-5.597035">
        <ele>606.0</ele>
        <time>2021-02-14T13:11:32Z</time>
      </trkpt>
      <trkpt lat="43.453266" lon="-5.597033">
        <ele>605.0</ele>
        <time>2021-02-14T13:11:33Z</time>
      </trkpt>
      <trkpt lat="43.453278" lon="-5.597031">
        <ele>605.0</ele>
        <time>2021-02-14T13:11:34Z</time>
      </trkpt>
      <trkpt lat="43.45328" lon="-5.597029">
        <ele>605.0</ele>
        <time>2021-02-14T13:11:35Z</time>
      </trkpt>
      <trkpt lat="43.453293" lon="-5.5970273">
        <ele>605.0</ele>
        <time>2021-02-14T13:11:36Z</time>
      </trkpt>
      <trkpt lat="43.453297" lon="-5.5970244">
        <ele>604.0</ele>
        <time>2021-02-14T13:11:37Z</time>
      </trkpt>
      <trkpt lat="43.4533" lon="-5.5970235">
        <ele>604.0</ele>
        <time>2021-02-14T13:11:38Z</time>
      </trkpt>
      <trkpt lat="43.453312" lon="-5.5970216">
        <ele>604.0</ele>
        <time>2021-02-14T13:11:39Z</time>
      </trkpt>
      <trkpt lat="43.453316" lon="-5.597017">
        <ele>604.0</ele>
        <time>2021-02-14T13:11:40Z</time>
      </trkpt>
      <trkpt lat="43.453327" lon="-5.597008">
        <ele>604.0</ele>
        <time>2021-02-14T13:11:41Z</time>
      </trkpt>
      <trkpt lat="43.45333" lon="-5.596999">
        <ele>603.0</ele>
        <time>2021-02-14T13:11:42Z</time>
      </trkpt>
      <trkpt lat="43.45334" lon="-5.5969915">
        <ele>603.0</ele>
        <time>2021-02-14T13:11:43Z</time>
      </trkpt>
      <trkpt lat="43.453342" lon="-5.5969863">
        <ele>603.0</ele>
        <time>2021-02-14T13:11:44Z</time>
      </trkpt>
      <trkpt lat="43.453342" lon="-5.5969825">
        <ele>603.0</ele>
        <time>2021-02-14T13:11:45Z</time>
      </trkpt>
      <trkpt lat="43.453346" lon="-5.596979">
        <ele>602.0</ele>
        <time>2021-02-14T13:11:46Z</time>
      </trkpt>
      <trkpt lat="43.453358" lon="-5.5969753">
        <ele>602.0</ele>
        <time>2021-02-14T13:11:47Z</time>
      </trkpt>
      <trkpt lat="43.45336" lon="-5.596972">
        <ele>602.0</ele>
        <time>2021-02-14T13:11:48Z</time>
      </trkpt>
      <trkpt lat="43.453373" lon="-5.596968">
        <ele>602.0</ele>
        <time>2021-02-14T13:11:49Z</time>
      </trkpt>
      <trkpt lat="43.453384" lon="-5.596964">
        <ele>602.0</ele>
        <time>2021-02-14T13:11:50Z</time>
      </trkpt>
      <trkpt lat="43.453392" lon="-5.59696">
        <ele>602.0</ele>
        <time>2021-02-14T13:11:51Z</time>
      </trkpt>
      <trkpt lat="43.45341" lon="-5.5969567">
        <ele>601.0</ele>
        <time>2021-02-14T13:11:52Z</time>
      </trkpt>
      <trkpt lat="43.45342" lon="-5.5969534">
        <ele>601.0</ele>
        <time>2021-02-14T13:11:53Z</time>
      </trkpt>
      <trkpt lat="43.45343" lon="-5.596951">
        <ele>601.0</ele>
        <time>2021-02-14T13:11:54Z</time>
      </trkpt>
      <trkpt lat="43.45344" lon="-5.5969496">
        <ele>601.0</ele>
        <time>2021-02-14T13:11:55Z</time>
      </trkpt>
      <trkpt lat="43.45345" lon="-5.5969505">
        <ele>601.0</ele>
        <time>2021-02-14T13:11:56Z</time>
      </trkpt>
      <trkpt lat="43.453457" lon="-5.5969515">
        <ele>600.0</ele>
        <time>2021-02-14T13:11:57Z</time>
      </trkpt>
      <trkpt lat="43.453465" lon="-5.5969534">
        <ele>600.0</ele>
        <time>2021-02-14T13:11:58Z</time>
      </trkpt>
      <trkpt lat="43.453476" lon="-5.5969534">
        <ele>600.0</ele>
        <time>2021-02-14T13:11:59Z</time>
      </trkpt>
      <trkpt lat="43.453487" lon="-5.596953">
        <ele>600.0</ele>
        <time>2021-02-14T13:12:00Z</time>
      </trkpt>
      <trkpt lat="43.453503" lon="-5.5969515">
        <ele>599.0</ele>
        <time>2021-02-14T13:12:01Z</time>
      </trkpt>
      <trkpt lat="43.45351" lon="-5.596951">
        <ele>599.0</ele>
        <time>2021-02-14T13:12:02Z</time>
      </trkpt>
      <trkpt lat="43.453518" lon="-5.5969515">
        <ele>599.0</ele>
        <time>2021-02-14T13:12:03Z</time>
      </trkpt>
      <trkpt lat="43.45352" lon="-5.5969543">
        <ele>599.0</ele>
        <time>2021-02-14T13:12:04Z</time>
      </trkpt>
      <trkpt lat="43.453533" lon="-5.596957">
        <ele>599.0</ele>
        <time>2021-02-14T13:12:05Z</time>
      </trkpt>
      <trkpt lat="43.45354" lon="-5.5969615">
        <ele>599.0</ele>
        <time>2021-02-14T13:12:06Z</time>
      </trkpt>
      <trkpt lat="43.45355" lon="-5.596968">
        <ele>599.0</ele>
        <time>2021-02-14T13:12:07Z</time>
      </trkpt>
      <trkpt lat="43.453556" lon="-5.5969768">
        <ele>599.0</ele>
        <time>2021-02-14T13:12:08Z</time>
      </trkpt>
      <trkpt lat="43.453564" lon="-5.596984">
        <ele>598.0</ele>
        <time>2021-02-14T13:12:09Z</time>
      </trkpt>
      <trkpt lat="43.45357" lon="-5.5969896">
        <ele>598.0</ele>
        <time>2021-02-14T13:12:10Z</time>
      </trkpt>
      <trkpt lat="43.453583" lon="-5.596996">
        <ele>598.0</ele>
        <time>2021-02-14T13:12:11Z</time>
      </trkpt>
      <trkpt lat="43.453594" lon="-5.5970016">
        <ele>597.0</ele>
        <time>2021-02-14T13:12:12Z</time>
      </trkpt>
      <trkpt lat="43.453606" lon="-5.597006">
        <ele>597.0</ele>
        <time>2021-02-14T13:12:13Z</time>
      </trkpt>
      <trkpt lat="43.45362" lon="-5.597012">
        <ele>597.0</ele>
        <time>2021-02-14T13:12:14Z</time>
      </trkpt>
      <trkpt lat="43.45363" lon="-5.597016">
        <ele>597.0</ele>
        <time>2021-02-14T13:12:15Z</time>
      </trkpt>
      <trkpt lat="43.45364" lon="-5.5970206">
        <ele>597.0</ele>
        <time>2021-02-14T13:12:16Z</time>
      </trkpt>
      <trkpt lat="43.45365" lon="-5.597031">
        <ele>597.0</ele>
        <time>2021-02-14T13:12:17Z</time>
      </trkpt>
      <trkpt lat="43.45366" lon="-5.597039">
        <ele>596.0</ele>
        <time>2021-02-14T13:12:18Z</time>
      </trkpt>
      <trkpt lat="43.453674" lon="-5.597047">
        <ele>596.0</ele>
        <time>2021-02-14T13:12:19Z</time>
      </trkpt>
      <trkpt lat="43.45369" lon="-5.5970526">
        <ele>596.0</ele>
        <time>2021-02-14T13:12:20Z</time>
      </trkpt>
      <trkpt lat="43.453705" lon="-5.5970597">
        <ele>596.0</ele>
        <time>2021-02-14T13:12:21Z</time>
      </trkpt>
      <trkpt lat="43.453716" lon="-5.597067">
        <ele>596.0</ele>
        <time>2021-02-14T13:12:22Z</time>
      </trkpt>
      <trkpt lat="43.453728" lon="-5.597071">
        <ele>595.0</ele>
        <time>2021-02-14T13:12:23Z</time>
      </trkpt>
      <trkpt lat="43.453743" lon="-5.597073">
        <ele>595.0</ele>
        <time>2021-02-14T13:12:24Z</time>
      </trkpt>
      <trkpt lat="43.45375" lon="-5.597076">
        <ele>595.0</ele>
        <time>2021-02-14T13:12:25Z</time>
      </trkpt>
      <trkpt lat="43.453762" lon="-5.5970783">
        <ele>595.0</ele>
        <time>2021-02-14T13:12:26Z</time>
      </trkpt>
      <trkpt lat="43.453777" lon="-5.59708">
        <ele>594.0</ele>
        <time>2021-02-14T13:12:27Z</time>
      </trkpt>
      <trkpt lat="43.4538" lon="-5.597081">
        <ele>594.0</ele>
        <time>2021-02-14T13:12:28Z</time>
      </trkpt>
      <trkpt lat="43.453815" lon="-5.597082">
        <ele>594.0</ele>
        <time>2021-02-14T13:12:29Z</time>
      </trkpt>
      <trkpt lat="43.45383" lon="-5.597085">
        <ele>594.0</ele>
        <time>2021-02-14T13:12:30Z</time>
      </trkpt>
      <trkpt lat="43.45385" lon="-5.5970874">
        <ele>594.0</ele>
        <time>2021-02-14T13:12:31Z</time>
      </trkpt>
      <trkpt lat="43.45386" lon="-5.597089">
        <ele>593.0</ele>
        <time>2021-02-14T13:12:32Z</time>
      </trkpt>
      <trkpt lat="43.453876" lon="-5.5970907">
        <ele>593.0</ele>
        <time>2021-02-14T13:12:33Z</time>
      </trkpt>
      <trkpt lat="43.453884" lon="-5.5970926">
        <ele>593.0</ele>
        <time>2021-02-14T13:12:34Z</time>
      </trkpt>
      <trkpt lat="43.4539" lon="-5.597095">
        <ele>593.0</ele>
        <time>2021-02-14T13:12:35Z</time>
      </trkpt>
      <trkpt lat="43.453915" lon="-5.597097">
        <ele>593.0</ele>
        <time>2021-02-14T13:12:36Z</time>
      </trkpt>
      <trkpt lat="43.453926" lon="-5.597099">
        <ele>593.0</ele>
        <time>2021-02-14T13:12:37Z</time>
      </trkpt>
      <trkpt lat="43.45394" lon="-5.597101">
        <ele>592.0</ele>
        <time>2021-02-14T13:12:38Z</time>
      </trkpt>
      <trkpt lat="43.453957" lon="-5.597104">
        <ele>592.0</ele>
        <time>2021-02-14T13:12:39Z</time>
      </trkpt>
      <trkpt lat="43.45397" lon="-5.5971093">
        <ele>592.0</ele>
        <time>2021-02-14T13:12:40Z</time>
      </trkpt>
      <trkpt lat="43.453983" lon="-5.597112">
        <ele>592.0</ele>
        <time>2021-02-14T13:12:41Z</time>
      </trkpt>
      <trkpt lat="43.454" lon="-5.597114">
        <ele>592.0</ele>
        <time>2021-02-14T13:12:42Z</time>
      </trkpt>
      <trkpt lat="43.454014" lon="-5.597115">
        <ele>592.0</ele>
        <time>2021-02-14T13:12:43Z</time>
      </trkpt>
      <trkpt lat="43.454025" lon="-5.5971136">
        <ele>592.0</ele>
        <time>2021-02-14T13:12:44Z</time>
      </trkpt>
      <trkpt lat="43.45404" lon="-5.597111">
        <ele>592.0</ele>
        <time>2021-02-14T13:12:45Z</time>
      </trkpt>
      <trkpt lat="43.45405" lon="-5.5971084">
        <ele>592.0</ele>
        <time>2021-02-14T13:12:46Z</time>
      </trkpt>
      <trkpt lat="43.45406" lon="-5.597108">
        <ele>592.0</ele>
        <time>2021-02-14T13:12:47Z</time>
      </trkpt>
      <trkpt lat="43.45407" lon="-5.5971074">
        <ele>591.0</ele>
        <time>2021-02-14T13:12:48Z</time>
      </trkpt>
      <trkpt lat="43.45408" lon="-5.5971065">
        <ele>591.0</ele>
        <time>2021-02-14T13:12:49Z</time>
      </trkpt>
      <trkpt lat="43.454086" lon="-5.5971065">
        <ele>591.0</ele>
        <time>2021-02-14T13:12:50Z</time>
      </trkpt>
      <trkpt lat="43.454094" lon="-5.5971065">
        <ele>591.0</ele>
        <time>2021-02-14T13:12:51Z</time>
      </trkpt>
      <trkpt lat="43.45411" lon="-5.5971055">
        <ele>591.0</ele>
        <time>2021-02-14T13:12:52Z</time>
      </trkpt>
      <trkpt lat="43.454124" lon="-5.597101">
        <ele>591.0</ele>
        <time>2021-02-14T13:12:53Z</time>
      </trkpt>
      <trkpt lat="43.454147" lon="-5.5970974">
        <ele>591.0</ele>
        <time>2021-02-14T13:12:54Z</time>
      </trkpt>
      <trkpt lat="43.454163" lon="-5.5970945">
        <ele>591.0</ele>
        <time>2021-02-14T13:12:54Z</time>
      </trkpt>
      <trkpt lat="43.454166" lon="-5.5970936">
        <ele>591.0</ele>
        <time>2021-02-14T13:12:55Z</time>
      </trkpt>
      <trkpt lat="43.45418" lon="-5.5970936">
        <ele>590.0</ele>
        <time>2021-02-14T13:12:56Z</time>
      </trkpt>
      <trkpt lat="43.454193" lon="-5.5970936">
        <ele>590.0</ele>
        <time>2021-02-14T13:12:57Z</time>
      </trkpt>
      <trkpt lat="43.45421" lon="-5.5970926">
        <ele>590.0</ele>
        <time>2021-02-14T13:12:58Z</time>
      </trkpt>
      <trkpt lat="43.45422" lon="-5.597091">
        <ele>590.0</ele>
        <time>2021-02-14T13:12:59Z</time>
      </trkpt>
      <trkpt lat="43.454227" lon="-5.59709">
        <ele>590.0</ele>
        <time>2021-02-14T13:13:00Z</time>
      </trkpt>
      <trkpt lat="43.45424" lon="-5.5970893">
        <ele>590.0</ele>
        <time>2021-02-14T13:13:01Z</time>
      </trkpt>
      <trkpt lat="43.454243" lon="-5.597091">
        <ele>589.0</ele>
        <time>2021-02-14T13:13:02Z</time>
      </trkpt>
      <trkpt lat="43.45425" lon="-5.597093">
        <ele>589.0</ele>
        <time>2021-02-14T13:13:03Z</time>
      </trkpt>
      <trkpt lat="43.454254" lon="-5.5970945">
        <ele>589.0</ele>
        <time>2021-02-14T13:13:04Z</time>
      </trkpt>
      <trkpt lat="43.454258" lon="-5.5970945">
        <ele>589.0</ele>
        <time>2021-02-14T13:13:05Z</time>
      </trkpt>
      <trkpt lat="43.45427" lon="-5.5970917">
        <ele>589.0</ele>
        <time>2021-02-14T13:13:06Z</time>
      </trkpt>
      <trkpt lat="43.45427" lon="-5.597089">
        <ele>589.0</ele>
        <time>2021-02-14T13:13:07Z</time>
      </trkpt>
      <trkpt lat="43.45428" lon="-5.597086">
        <ele>589.0</ele>
        <time>2021-02-14T13:13:08Z</time>
      </trkpt>
      <trkpt lat="43.45429" lon="-5.5970874">
        <ele>589.0</ele>
        <time>2021-02-14T13:13:09Z</time>
      </trkpt>
      <trkpt lat="43.454296" lon="-5.59709">
        <ele>588.0</ele>
        <time>2021-02-14T13:13:10Z</time>
      </trkpt>
      <trkpt lat="43.45431" lon="-5.5970945">
        <ele>588.0</ele>
        <time>2021-02-14T13:13:11Z</time>
      </trkpt>
      <trkpt lat="43.45432" lon="-5.597099">
        <ele>588.0</ele>
        <time>2021-02-14T13:13:12Z</time>
      </trkpt>
      <trkpt lat="43.45433" lon="-5.5971045">
        <ele>588.0</ele>
        <time>2021-02-14T13:13:13Z</time>
      </trkpt>
      <trkpt lat="43.454346" lon="-5.5971103">
        <ele>587.0</ele>
        <time>2021-02-14T13:13:14Z</time>
      </trkpt>
      <trkpt lat="43.454357" lon="-5.5971155">
        <ele>587.0</ele>
        <time>2021-02-14T13:13:15Z</time>
      </trkpt>
      <trkpt lat="43.45437" lon="-5.5971217">
        <ele>587.0</ele>
        <time>2021-02-14T13:13:16Z</time>
      </trkpt>
      <trkpt lat="43.454376" lon="-5.5971284">
        <ele>587.0</ele>
        <time>2021-02-14T13:13:17Z</time>
      </trkpt>
      <trkpt lat="43.454388" lon="-5.5971317">
        <ele>587.0</ele>
        <time>2021-02-14T13:13:18Z</time>
      </trkpt>
      <trkpt lat="43.4544" lon="-5.5971346">
        <ele>587.0</ele>
        <time>2021-02-14T13:13:19Z</time>
      </trkpt>
      <trkpt lat="43.454403" lon="-5.5971375">
        <ele>586.0</ele>
        <time>2021-02-14T13:13:20Z</time>
      </trkpt>
      <trkpt lat="43.454407" lon="-5.5971394">
        <ele>586.0</ele>
        <time>2021-02-14T13:13:21Z</time>
      </trkpt>
      <trkpt lat="43.454414" lon="-5.5971417">
        <ele>586.0</ele>
        <time>2021-02-14T13:13:22Z</time>
      </trkpt>
      <trkpt lat="43.45442" lon="-5.597146">
        <ele>586.0</ele>
        <time>2021-02-14T13:13:23Z</time>
      </trkpt>
      <trkpt lat="43.454422" lon="-5.5971527">
        <ele>586.0</ele>
        <time>2021-02-14T13:13:24Z</time>
      </trkpt>
      <trkpt lat="43.454422" lon="-5.597157">
        <ele>586.0</ele>
        <time>2021-02-14T13:13:25Z</time>
      </trkpt>
      <trkpt lat="43.45443" lon="-5.5971637">
        <ele>585.0</ele>
        <time>2021-02-14T13:13:26Z</time>
      </trkpt>
      <trkpt lat="43.454437" lon="-5.597168">
        <ele>585.0</ele>
        <time>2021-02-14T13:13:27Z</time>
      </trkpt>
      <trkpt lat="43.45445" lon="-5.597174">
        <ele>585.0</ele>
        <time>2021-02-14T13:13:28Z</time>
      </trkpt>
      <trkpt lat="43.454453" lon="-5.5971828">
        <ele>585.0</ele>
        <time>2021-02-14T13:13:29Z</time>
      </trkpt>
      <trkpt lat="43.45446" lon="-5.597192">
        <ele>585.0</ele>
        <time>2021-02-14T13:13:30Z</time>
      </trkpt>
      <trkpt lat="43.454464" lon="-5.5972037">
        <ele>585.0</ele>
        <time>2021-02-14T13:13:31Z</time>
      </trkpt>
      <trkpt lat="43.454468" lon="-5.597218">
        <ele>585.0</ele>
        <time>2021-02-14T13:13:32Z</time>
      </trkpt>
      <trkpt lat="43.454475" lon="-5.597231">
        <ele>585.0</ele>
        <time>2021-02-14T13:13:33Z</time>
      </trkpt>
      <trkpt lat="43.454483" lon="-5.5972433">
        <ele>585.0</ele>
        <time>2021-02-14T13:13:34Z</time>
      </trkpt>
      <trkpt lat="43.454494" lon="-5.5972557">
        <ele>585.0</ele>
        <time>2021-02-14T13:13:35Z</time>
      </trkpt>
      <trkpt lat="43.454506" lon="-5.5972667">
        <ele>585.0</ele>
        <time>2021-02-14T13:13:36Z</time>
      </trkpt>
      <trkpt lat="43.454514" lon="-5.5972767">
        <ele>585.0</ele>
        <time>2021-02-14T13:13:37Z</time>
      </trkpt>
      <trkpt lat="43.454525" lon="-5.5972857">
        <ele>585.0</ele>
        <time>2021-02-14T13:13:38Z</time>
      </trkpt>
      <trkpt lat="43.45453" lon="-5.5972934">
        <ele>585.0</ele>
        <time>2021-02-14T13:13:39Z</time>
      </trkpt>
      <trkpt lat="43.45454" lon="-5.5973005">
        <ele>585.0</ele>
        <time>2021-02-14T13:13:40Z</time>
      </trkpt>
      <trkpt lat="43.454544" lon="-5.597305">
        <ele>584.0</ele>
        <time>2021-02-14T13:13:41Z</time>
      </trkpt>
      <trkpt lat="43.454556" lon="-5.59731">
        <ele>584.0</ele>
        <time>2021-02-14T13:13:42Z</time>
      </trkpt>
      <trkpt lat="43.454563" lon="-5.597316">
        <ele>584.0</ele>
        <time>2021-02-14T13:13:43Z</time>
      </trkpt>
      <trkpt lat="43.45457" lon="-5.5973215">
        <ele>584.0</ele>
        <time>2021-02-14T13:13:44Z</time>
      </trkpt>
      <trkpt lat="43.45458" lon="-5.5973253">
        <ele>584.0</ele>
        <time>2021-02-14T13:13:45Z</time>
      </trkpt>
      <trkpt lat="43.454586" lon="-5.59733">
        <ele>584.0</ele>
        <time>2021-02-14T13:13:46Z</time>
      </trkpt>
      <trkpt lat="43.454597" lon="-5.597336">
        <ele>583.0</ele>
        <time>2021-02-14T13:13:47Z</time>
      </trkpt>
      <trkpt lat="43.45461" lon="-5.597345">
        <ele>583.0</ele>
        <time>2021-02-14T13:13:48Z</time>
      </trkpt>
      <trkpt lat="43.454624" lon="-5.597355">
        <ele>583.0</ele>
        <time>2021-02-14T13:13:49Z</time>
      </trkpt>
      <trkpt lat="43.45463" lon="-5.597364">
        <ele>583.0</ele>
        <time>2021-02-14T13:13:50Z</time>
      </trkpt>
      <trkpt lat="43.45464" lon="-5.5973697">
        <ele>583.0</ele>
        <time>2021-02-14T13:13:51Z</time>
      </trkpt>
      <trkpt lat="43.454643" lon="-5.5973735">
        <ele>583.0</ele>
        <time>2021-02-14T13:13:52Z</time>
      </trkpt>
      <trkpt lat="43.45467" lon="-5.5973835">
        <ele>582.0</ele>
        <time>2021-02-14T13:13:54Z</time>
      </trkpt>
      <trkpt lat="43.454674" lon="-5.5973845">
        <ele>582.0</ele>
        <time>2021-02-14T13:13:55Z</time>
      </trkpt>
      <trkpt lat="43.454685" lon="-5.597385">
        <ele>582.0</ele>
        <time>2021-02-14T13:13:56Z</time>
      </trkpt>
      <trkpt lat="43.4547" lon="-5.5973864">
        <ele>582.0</ele>
        <time>2021-02-14T13:13:57Z</time>
      </trkpt>
      <trkpt lat="43.454716" lon="-5.597387">
        <ele>582.0</ele>
        <time>2021-02-14T13:13:58Z</time>
      </trkpt>
      <trkpt lat="43.45473" lon="-5.597387">
        <ele>582.0</ele>
        <time>2021-02-14T13:13:59Z</time>
      </trkpt>
      <trkpt lat="43.454746" lon="-5.597385">
        <ele>581.0</ele>
        <time>2021-02-14T13:14:00Z</time>
      </trkpt>
      <trkpt lat="43.454765" lon="-5.5973825">
        <ele>581.0</ele>
        <time>2021-02-14T13:14:01Z</time>
      </trkpt>
      <trkpt lat="43.45478" lon="-5.597378">
        <ele>581.0</ele>
        <time>2021-02-14T13:14:02Z</time>
      </trkpt>
      <trkpt lat="43.454796" lon="-5.597375">
        <ele>581.0</ele>
        <time>2021-02-14T13:14:03Z</time>
      </trkpt>
      <trkpt lat="43.454807" lon="-5.5973716">
        <ele>581.0</ele>
        <time>2021-02-14T13:14:04Z</time>
      </trkpt>
      <trkpt lat="43.45482" lon="-5.5973682">
        <ele>581.0</ele>
        <time>2021-02-14T13:14:05Z</time>
      </trkpt>
      <trkpt lat="43.454826" lon="-5.597365">
        <ele>581.0</ele>
        <time>2021-02-14T13:14:06Z</time>
      </trkpt>
      <trkpt lat="43.454838" lon="-5.597363">
        <ele>581.0</ele>
        <time>2021-02-14T13:14:07Z</time>
      </trkpt>
      <trkpt lat="43.45484" lon="-5.597363">
        <ele>581.0</ele>
        <time>2021-02-14T13:14:08Z</time>
      </trkpt>
      <trkpt lat="43.454853" lon="-5.597366">
        <ele>580.0</ele>
        <time>2021-02-14T13:14:09Z</time>
      </trkpt>
      <trkpt lat="43.454865" lon="-5.5973663">
        <ele>580.0</ele>
        <time>2021-02-14T13:14:10Z</time>
      </trkpt>
      <trkpt lat="43.45487" lon="-5.597367">
        <ele>580.0</ele>
        <time>2021-02-14T13:14:11Z</time>
      </trkpt>
      <trkpt lat="43.454887" lon="-5.5973587">
        <ele>580.0</ele>
        <time>2021-02-14T13:14:13Z</time>
      </trkpt>
      <trkpt lat="43.454887" lon="-5.5973563">
        <ele>580.0</ele>
        <time>2021-02-14T13:14:14Z</time>
      </trkpt>
      <trkpt lat="43.454895" lon="-5.5973525">
        <ele>580.0</ele>
        <time>2021-02-14T13:14:15Z</time>
      </trkpt>
      <trkpt lat="43.454903" lon="-5.5973487">
        <ele>580.0</ele>
        <time>2021-02-14T13:14:16Z</time>
      </trkpt>
      <trkpt lat="43.45491" lon="-5.597346">
        <ele>580.0</ele>
        <time>2021-02-14T13:14:17Z</time>
      </trkpt>
      <trkpt lat="43.454918" lon="-5.597345">
        <ele>580.0</ele>
        <time>2021-02-14T13:14:18Z</time>
      </trkpt>
      <trkpt lat="43.454926" lon="-5.597344">
        <ele>580.0</ele>
        <time>2021-02-14T13:14:19Z</time>
      </trkpt>
      <trkpt lat="43.45493" lon="-5.59734">
        <ele>580.0</ele>
        <time>2021-02-14T13:14:20Z</time>
      </trkpt>
      <trkpt lat="43.45494" lon="-5.597334">
        <ele>580.0</ele>
        <time>2021-02-14T13:14:21Z</time>
      </trkpt>
      <trkpt lat="43.454945" lon="-5.5973287">
        <ele>580.0</ele>
        <time>2021-02-14T13:14:22Z</time>
      </trkpt>
      <trkpt lat="43.454952" lon="-5.597325">
        <ele>580.0</ele>
        <time>2021-02-14T13:14:23Z</time>
      </trkpt>
      <trkpt lat="43.454956" lon="-5.597321">
        <ele>580.0</ele>
        <time>2021-02-14T13:14:24Z</time>
      </trkpt>
      <trkpt lat="43.454956" lon="-5.597319">
        <ele>580.0</ele>
        <time>2021-02-14T13:14:25Z</time>
      </trkpt>
      <trkpt lat="43.45496" lon="-5.597318">
        <ele>580.0</ele>
        <time>2021-02-14T13:14:26Z</time>
      </trkpt>
      <trkpt lat="43.454967" lon="-5.5973153">
        <ele>580.0</ele>
        <time>2021-02-14T13:14:27Z</time>
      </trkpt>
      <trkpt lat="43.45497" lon="-5.597312">
        <ele>580.0</ele>
        <time>2021-02-14T13:14:28Z</time>
      </trkpt>
      <trkpt lat="43.45497" lon="-5.5973105">
        <ele>580.0</ele>
        <time>2021-02-14T13:14:29Z</time>
      </trkpt>
      <trkpt lat="43.454987" lon="-5.597312">
        <ele>580.0</ele>
        <time>2021-02-14T13:14:31Z</time>
      </trkpt>
      <trkpt lat="43.454987" lon="-5.5973115">
        <ele>580.0</ele>
        <time>2021-02-14T13:14:32Z</time>
      </trkpt>
      <trkpt lat="43.454987" lon="-5.5973134">
        <ele>580.0</ele>
        <time>2021-02-14T13:14:33Z</time>
      </trkpt>
      <trkpt lat="43.454987" lon="-5.597316">
        <ele>580.0</ele>
        <time>2021-02-14T13:14:34Z</time>
      </trkpt>
      <trkpt lat="43.45499" lon="-5.597318">
        <ele>580.0</ele>
        <time>2021-02-14T13:14:35Z</time>
      </trkpt>
      <trkpt lat="43.454998" lon="-5.5973196">
        <ele>580.0</ele>
        <time>2021-02-14T13:14:36Z</time>
      </trkpt>
      <trkpt lat="43.454998" lon="-5.597323">
        <ele>580.0</ele>
        <time>2021-02-14T13:14:37Z</time>
      </trkpt>
      <trkpt lat="43.455" lon="-5.597327">
        <ele>580.0</ele>
        <time>2021-02-14T13:14:38Z</time>
      </trkpt>
      <trkpt lat="43.455013" lon="-5.5973325">
        <ele>580.0</ele>
        <time>2021-02-14T13:14:39Z</time>
      </trkpt>
      <trkpt lat="43.455017" lon="-5.597334">
        <ele>580.0</ele>
        <time>2021-02-14T13:14:40Z</time>
      </trkpt>
      <trkpt lat="43.45503" lon="-5.597335">
        <ele>580.0</ele>
        <time>2021-02-14T13:14:41Z</time>
      </trkpt>
      <trkpt lat="43.455036" lon="-5.597337">
        <ele>580.0</ele>
        <time>2021-02-14T13:14:42Z</time>
      </trkpt>
      <trkpt lat="43.455044" lon="-5.5973377">
        <ele>580.0</ele>
        <time>2021-02-14T13:14:43Z</time>
      </trkpt>
      <trkpt lat="43.45506" lon="-5.5973363">
        <ele>580.0</ele>
        <time>2021-02-14T13:14:44Z</time>
      </trkpt>
      <trkpt lat="43.455067" lon="-5.597334">
        <ele>580.0</ele>
        <time>2021-02-14T13:14:45Z</time>
      </trkpt>
      <trkpt lat="43.455082" lon="-5.597332">
        <ele>580.0</ele>
        <time>2021-02-14T13:14:46Z</time>
      </trkpt>
      <trkpt lat="43.455097" lon="-5.5973287">
        <ele>580.0</ele>
        <time>2021-02-14T13:14:47Z</time>
      </trkpt>
      <trkpt lat="43.45511" lon="-5.5973244">
        <ele>580.0</ele>
        <time>2021-02-14T13:14:48Z</time>
      </trkpt>
      <trkpt lat="43.455124" lon="-5.597321">
        <ele>580.0</ele>
        <time>2021-02-14T13:14:49Z</time>
      </trkpt>
      <trkpt lat="43.45514" lon="-5.5973177">
        <ele>580.0</ele>
        <time>2021-02-14T13:14:50Z</time>
      </trkpt>
      <trkpt lat="43.45515" lon="-5.597316">
        <ele>580.0</ele>
        <time>2021-02-14T13:14:51Z</time>
      </trkpt>
      <trkpt lat="43.455162" lon="-5.5973177">
        <ele>580.0</ele>
        <time>2021-02-14T13:14:52Z</time>
      </trkpt>
      <trkpt lat="43.45517" lon="-5.5973234">
        <ele>580.0</ele>
        <time>2021-02-14T13:14:53Z</time>
      </trkpt>
      <trkpt lat="43.455177" lon="-5.597329">
        <ele>580.0</ele>
        <time>2021-02-14T13:14:54Z</time>
      </trkpt>
      <trkpt lat="43.455185" lon="-5.5973363">
        <ele>580.0</ele>
        <time>2021-02-14T13:14:55Z</time>
      </trkpt>
      <trkpt lat="43.4552" lon="-5.5973434">
        <ele>580.0</ele>
        <time>2021-02-14T13:14:56Z</time>
      </trkpt>
      <trkpt lat="43.455215" lon="-5.5973477">
        <ele>580.0</ele>
        <time>2021-02-14T13:14:57Z</time>
      </trkpt>
      <trkpt lat="43.455227" lon="-5.5973525">
        <ele>580.0</ele>
        <time>2021-02-14T13:14:58Z</time>
      </trkpt>
      <trkpt lat="43.455242" lon="-5.5973563">
        <ele>580.0</ele>
        <time>2021-02-14T13:14:59Z</time>
      </trkpt>
      <trkpt lat="43.455254" lon="-5.5973587">
        <ele>580.0</ele>
        <time>2021-02-14T13:15:00Z</time>
      </trkpt>
      <trkpt lat="43.45526" lon="-5.5973625">
        <ele>580.0</ele>
        <time>2021-02-14T13:15:01Z</time>
      </trkpt>
      <trkpt lat="43.455273" lon="-5.5973663">
        <ele>580.0</ele>
        <time>2021-02-14T13:15:02Z</time>
      </trkpt>
      <trkpt lat="43.455284" lon="-5.597369">
        <ele>580.0</ele>
        <time>2021-02-14T13:15:03Z</time>
      </trkpt>
      <trkpt lat="43.4553" lon="-5.597374">
        <ele>580.0</ele>
        <time>2021-02-14T13:15:04Z</time>
      </trkpt>
      <trkpt lat="43.455307" lon="-5.597378">
        <ele>580.0</ele>
        <time>2021-02-14T13:15:05Z</time>
      </trkpt>
      <trkpt lat="43.455322" lon="-5.5973825">
        <ele>580.0</ele>
        <time>2021-02-14T13:15:06Z</time>
      </trkpt>
      <trkpt lat="43.455334" lon="-5.597381">
        <ele>580.0</ele>
        <time>2021-02-14T13:15:07Z</time>
      </trkpt>
      <trkpt lat="43.45535" lon="-5.5973816">
        <ele>580.0</ele>
        <time>2021-02-14T13:15:08Z</time>
      </trkpt>
      <trkpt lat="43.45536" lon="-5.5973825">
        <ele>580.0</ele>
        <time>2021-02-14T13:15:09Z</time>
      </trkpt>
      <trkpt lat="43.45537" lon="-5.597383">
        <ele>580.0</ele>
        <time>2021-02-14T13:15:10Z</time>
      </trkpt>
      <trkpt lat="43.45538" lon="-5.597385">
        <ele>580.0</ele>
        <time>2021-02-14T13:15:11Z</time>
      </trkpt>
      <trkpt lat="43.455406" lon="-5.5973887">
        <ele>580.0</ele>
        <time>2021-02-14T13:15:13Z</time>
      </trkpt>
      <trkpt lat="43.455406" lon="-5.5974">
        <ele>580.0</ele>
        <time>2021-02-14T13:15:15Z</time>
      </trkpt>
      <trkpt lat="43.455406" lon="-5.597403">
        <ele>580.0</ele>
        <time>2021-02-14T13:15:16Z</time>
      </trkpt>
      <trkpt lat="43.455406" lon="-5.597409">
        <ele>580.0</ele>
        <time>2021-02-14T13:15:17Z</time>
      </trkpt>
      <trkpt lat="43.45541" lon="-5.597415">
        <ele>580.0</ele>
        <time>2021-02-14T13:15:18Z</time>
      </trkpt>
      <trkpt lat="43.45541" lon="-5.5974197">
        <ele>580.0</ele>
        <time>2021-02-14T13:15:19Z</time>
      </trkpt>
      <trkpt lat="43.455418" lon="-5.5974226">
        <ele>580.0</ele>
        <time>2021-02-14T13:15:20Z</time>
      </trkpt>
      <trkpt lat="43.45542" lon="-5.5974236">
        <ele>580.0</ele>
        <time>2021-02-14T13:15:21Z</time>
      </trkpt>
      <trkpt lat="43.455425" lon="-5.5974245">
        <ele>580.0</ele>
        <time>2021-02-14T13:15:22Z</time>
      </trkpt>
      <trkpt lat="43.45544" lon="-5.5974245">
        <ele>580.0</ele>
        <time>2021-02-14T13:15:23Z</time>
      </trkpt>
      <trkpt lat="43.455456" lon="-5.5974216">
        <ele>580.0</ele>
        <time>2021-02-14T13:15:24Z</time>
      </trkpt>
      <trkpt lat="43.45548" lon="-5.597417">
        <ele>580.0</ele>
        <time>2021-02-14T13:15:25Z</time>
      </trkpt>
      <trkpt lat="43.455498" lon="-5.5974126">
        <ele>580.0</ele>
        <time>2021-02-14T13:15:26Z</time>
      </trkpt>
      <trkpt lat="43.455517" lon="-5.597409">
        <ele>580.0</ele>
        <time>2021-02-14T13:15:27Z</time>
      </trkpt>
      <trkpt lat="43.455536" lon="-5.597404">
        <ele>580.0</ele>
        <time>2021-02-14T13:15:28Z</time>
      </trkpt>
      <trkpt lat="43.455544" lon="-5.5974">
        <ele>580.0</ele>
        <time>2021-02-14T13:15:29Z</time>
      </trkpt>
      <trkpt lat="43.45556" lon="-5.5973973">
        <ele>580.0</ele>
        <time>2021-02-14T13:15:30Z</time>
      </trkpt>
      <trkpt lat="43.45557" lon="-5.5973945">
        <ele>580.0</ele>
        <time>2021-02-14T13:15:31Z</time>
      </trkpt>
      <trkpt lat="43.45558" lon="-5.5973935">
        <ele>580.0</ele>
        <time>2021-02-14T13:15:32Z</time>
      </trkpt>
      <trkpt lat="43.45559" lon="-5.597394">
        <ele>580.0</ele>
        <time>2021-02-14T13:15:33Z</time>
      </trkpt>
      <trkpt lat="43.4556" lon="-5.5973964">
        <ele>580.0</ele>
        <time>2021-02-14T13:15:34Z</time>
      </trkpt>
      <trkpt lat="43.455612" lon="-5.5973983">
        <ele>580.0</ele>
        <time>2021-02-14T13:15:35Z</time>
      </trkpt>
      <trkpt lat="43.45562" lon="-5.597401">
        <ele>580.0</ele>
        <time>2021-02-14T13:15:36Z</time>
      </trkpt>
      <trkpt lat="43.45563" lon="-5.5974035">
        <ele>579.0</ele>
        <time>2021-02-14T13:15:37Z</time>
      </trkpt>
      <trkpt lat="43.455643" lon="-5.597406">
        <ele>579.0</ele>
        <time>2021-02-14T13:15:38Z</time>
      </trkpt>
      <trkpt lat="43.455666" lon="-5.5974135">
        <ele>579.0</ele>
        <time>2021-02-14T13:15:40Z</time>
      </trkpt>
      <trkpt lat="43.455666" lon="-5.597413">
        <ele>579.0</ele>
        <time>2021-02-14T13:15:41Z</time>
      </trkpt>
      <trkpt lat="43.455673" lon="-5.5974107">
        <ele>579.0</ele>
        <time>2021-02-14T13:15:42Z</time>
      </trkpt>
      <trkpt lat="43.455673" lon="-5.597408">
        <ele>579.0</ele>
        <time>2021-02-14T13:15:43Z</time>
      </trkpt>
      <trkpt lat="43.455677" lon="-5.5974054">
        <ele>579.0</ele>
        <time>2021-02-14T13:15:44Z</time>
      </trkpt>
      <trkpt lat="43.45569" lon="-5.597403">
        <ele>579.0</ele>
        <time>2021-02-14T13:15:45Z</time>
      </trkpt>
      <trkpt lat="43.455692" lon="-5.597401">
        <ele>579.0</ele>
        <time>2021-02-14T13:15:46Z</time>
      </trkpt>
      <trkpt lat="43.455696" lon="-5.5974">
        <ele>579.0</ele>
        <time>2021-02-14T13:15:47Z</time>
      </trkpt>
      <trkpt lat="43.455708" lon="-5.597401">
        <ele>578.0</ele>
        <time>2021-02-14T13:15:48Z</time>
      </trkpt>
      <trkpt lat="43.455715" lon="-5.597404">
        <ele>578.0</ele>
        <time>2021-02-14T13:15:49Z</time>
      </trkpt>
      <trkpt lat="43.455723" lon="-5.597407">
        <ele>578.0</ele>
        <time>2021-02-14T13:15:50Z</time>
      </trkpt>
      <trkpt lat="43.455734" lon="-5.597408">
        <ele>578.0</ele>
        <time>2021-02-14T13:15:51Z</time>
      </trkpt>
      <trkpt lat="43.455746" lon="-5.5974073">
        <ele>578.0</ele>
        <time>2021-02-14T13:15:52Z</time>
      </trkpt>
      <trkpt lat="43.455753" lon="-5.597404">
        <ele>578.0</ele>
        <time>2021-02-14T13:15:53Z</time>
      </trkpt>
      <trkpt lat="43.455765" lon="-5.597403">
        <ele>578.0</ele>
        <time>2021-02-14T13:15:54Z</time>
      </trkpt>
      <trkpt lat="43.455776" lon="-5.5974035">
        <ele>577.0</ele>
        <time>2021-02-14T13:15:55Z</time>
      </trkpt>
      <trkpt lat="43.455784" lon="-5.597404">
        <ele>577.0</ele>
        <time>2021-02-14T13:15:56Z</time>
      </trkpt>
      <trkpt lat="43.455795" lon="-5.597406">
        <ele>577.0</ele>
        <time>2021-02-14T13:15:57Z</time>
      </trkpt>
      <trkpt lat="43.45581" lon="-5.5974073">
        <ele>577.0</ele>
        <time>2021-02-14T13:15:58Z</time>
      </trkpt>
      <trkpt lat="43.455822" lon="-5.597409">
        <ele>577.0</ele>
        <time>2021-02-14T13:15:59Z</time>
      </trkpt>
      <trkpt lat="43.455826" lon="-5.5974092">
        <ele>577.0</ele>
        <time>2021-02-14T13:16:00Z</time>
      </trkpt>
      <trkpt lat="43.455837" lon="-5.597411">
        <ele>576.0</ele>
        <time>2021-02-14T13:16:02Z</time>
      </trkpt>
      <trkpt lat="43.455845" lon="-5.5974126">
        <ele>576.0</ele>
        <time>2021-02-14T13:16:02Z</time>
      </trkpt>
      <trkpt lat="43.455856" lon="-5.5974183">
        <ele>576.0</ele>
        <time>2021-02-14T13:16:03Z</time>
      </trkpt>
      <trkpt lat="43.45587" lon="-5.5974264">
        <ele>576.0</ele>
        <time>2021-02-14T13:16:04Z</time>
      </trkpt>
      <trkpt lat="43.455887" lon="-5.5974374">
        <ele>576.0</ele>
        <time>2021-02-14T13:16:05Z</time>
      </trkpt>
      <trkpt lat="43.45589" lon="-5.5974464">
        <ele>576.0</ele>
        <time>2021-02-14T13:16:06Z</time>
      </trkpt>
      <trkpt lat="43.45591" lon="-5.5974636">
        <ele>575.0</ele>
        <time>2021-02-14T13:16:08Z</time>
      </trkpt>
      <trkpt lat="43.45591" lon="-5.5974636">
        <ele>575.0</ele>
        <time>2021-02-14T13:16:09Z</time>
      </trkpt>
      <trkpt lat="43.455914" lon="-5.597464">
        <ele>575.0</ele>
        <time>2021-02-14T13:16:10Z</time>
      </trkpt>
      <trkpt lat="43.455917" lon="-5.5974674">
        <ele>575.0</ele>
        <time>2021-02-14T13:16:11Z</time>
      </trkpt>
      <trkpt lat="43.45593" lon="-5.5974727">
        <ele>575.0</ele>
        <time>2021-02-14T13:16:12Z</time>
      </trkpt>
      <trkpt lat="43.45594" lon="-5.5974784">
        <ele>574.0</ele>
        <time>2021-02-14T13:16:13Z</time>
      </trkpt>
      <trkpt lat="43.455948" lon="-5.597482">
        <ele>574.0</ele>
        <time>2021-02-14T13:16:14Z</time>
      </trkpt>
      <trkpt lat="43.455956" lon="-5.5974874">
        <ele>574.0</ele>
        <time>2021-02-14T13:16:15Z</time>
      </trkpt>
      <trkpt lat="43.455963" lon="-5.5974913">
        <ele>574.0</ele>
        <time>2021-02-14T13:16:16Z</time>
      </trkpt>
      <trkpt lat="43.45597" lon="-5.597495">
        <ele>574.0</ele>
        <time>2021-02-14T13:16:17Z</time>
      </trkpt>
      <trkpt lat="43.45598" lon="-5.5974975">
        <ele>574.0</ele>
        <time>2021-02-14T13:16:19Z</time>
      </trkpt>
      <trkpt lat="43.455986" lon="-5.597503">
        <ele>574.0</ele>
        <time>2021-02-14T13:16:19Z</time>
      </trkpt>
      <trkpt lat="43.455994" lon="-5.59751">
        <ele>574.0</ele>
        <time>2021-02-14T13:16:20Z</time>
      </trkpt>
      <trkpt lat="43.456005" lon="-5.5975175">
        <ele>574.0</ele>
        <time>2021-02-14T13:16:21Z</time>
      </trkpt>
      <trkpt lat="43.45601" lon="-5.597525">
        <ele>574.0</ele>
        <time>2021-02-14T13:16:22Z</time>
      </trkpt>
      <trkpt lat="43.45602" lon="-5.597534">
        <ele>574.0</ele>
        <time>2021-02-14T13:16:23Z</time>
      </trkpt>
      <trkpt lat="43.45603" lon="-5.5975423">
        <ele>574.0</ele>
        <time>2021-02-14T13:16:24Z</time>
      </trkpt>
      <trkpt lat="43.456047" lon="-5.59755">
        <ele>573.0</ele>
        <time>2021-02-14T13:16:25Z</time>
      </trkpt>
      <trkpt lat="43.456062" lon="-5.597555">
        <ele>573.0</ele>
        <time>2021-02-14T13:16:26Z</time>
      </trkpt>
      <trkpt lat="43.456078" lon="-5.597561">
        <ele>573.0</ele>
        <time>2021-02-14T13:16:27Z</time>
      </trkpt>
      <trkpt lat="43.456093" lon="-5.5975695">
        <ele>573.0</ele>
        <time>2021-02-14T13:16:28Z</time>
      </trkpt>
      <trkpt lat="43.45611" lon="-5.5975795">
        <ele>573.0</ele>
        <time>2021-02-14T13:16:29Z</time>
      </trkpt>
      <trkpt lat="43.456127" lon="-5.5975885">
        <ele>572.0</ele>
        <time>2021-02-14T13:16:30Z</time>
      </trkpt>
      <trkpt lat="43.456142" lon="-5.5975966">
        <ele>572.0</ele>
        <time>2021-02-14T13:16:31Z</time>
      </trkpt>
      <trkpt lat="43.456158" lon="-5.5976043">
        <ele>572.0</ele>
        <time>2021-02-14T13:16:32Z</time>
      </trkpt>
      <trkpt lat="43.45617" lon="-5.5976105">
        <ele>572.0</ele>
        <time>2021-02-14T13:16:33Z</time>
      </trkpt>
      <trkpt lat="43.45618" lon="-5.5976167">
        <ele>572.0</ele>
        <time>2021-02-14T13:16:34Z</time>
      </trkpt>
      <trkpt lat="43.456184" lon="-5.597624">
        <ele>571.0</ele>
        <time>2021-02-14T13:16:35Z</time>
      </trkpt>
      <trkpt lat="43.456196" lon="-5.5976315">
        <ele>571.0</ele>
        <time>2021-02-14T13:16:36Z</time>
      </trkpt>
      <trkpt lat="43.4562" lon="-5.5976386">
        <ele>571.0</ele>
        <time>2021-02-14T13:16:37Z</time>
      </trkpt>
      <trkpt lat="43.45621" lon="-5.597645">
        <ele>571.0</ele>
        <time>2021-02-14T13:16:38Z</time>
      </trkpt>
      <trkpt lat="43.456215" lon="-5.5976505">
        <ele>571.0</ele>
        <time>2021-02-14T13:16:39Z</time>
      </trkpt>
      <trkpt lat="43.456226" lon="-5.5976577">
        <ele>570.0</ele>
        <time>2021-02-14T13:16:40Z</time>
      </trkpt>
      <trkpt lat="43.456234" lon="-5.597664">
        <ele>570.0</ele>
        <time>2021-02-14T13:16:41Z</time>
      </trkpt>
      <trkpt lat="43.45624" lon="-5.5976696">
        <ele>570.0</ele>
        <time>2021-02-14T13:16:42Z</time>
      </trkpt>
      <trkpt lat="43.45625" lon="-5.597675">
        <ele>570.0</ele>
        <time>2021-02-14T13:16:43Z</time>
      </trkpt>
      <trkpt lat="43.45626" lon="-5.5976806">
        <ele>570.0</ele>
        <time>2021-02-14T13:16:44Z</time>
      </trkpt>
      <trkpt lat="43.456272" lon="-5.5976863">
        <ele>570.0</ele>
        <time>2021-02-14T13:16:45Z</time>
      </trkpt>
      <trkpt lat="43.456287" lon="-5.597693">
        <ele>569.0</ele>
        <time>2021-02-14T13:16:46Z</time>
      </trkpt>
      <trkpt lat="43.4563" lon="-5.597703">
        <ele>569.0</ele>
        <time>2021-02-14T13:16:47Z</time>
      </trkpt>
      <trkpt lat="43.456306" lon="-5.5977173">
        <ele>569.0</ele>
        <time>2021-02-14T13:16:48Z</time>
      </trkpt>
      <trkpt lat="43.456318" lon="-5.597733">
        <ele>569.0</ele>
        <time>2021-02-14T13:16:49Z</time>
      </trkpt>
      <trkpt lat="43.456333" lon="-5.5977497">
        <ele>569.0</ele>
        <time>2021-02-14T13:16:50Z</time>
      </trkpt>
      <trkpt lat="43.45635" lon="-5.597768">
        <ele>568.0</ele>
        <time>2021-02-14T13:16:51Z</time>
      </trkpt>
      <trkpt lat="43.456364" lon="-5.597785">
        <ele>568.0</ele>
        <time>2021-02-14T13:16:52Z</time>
      </trkpt>
      <trkpt lat="43.456375" lon="-5.5978007">
        <ele>568.0</ele>
        <time>2021-02-14T13:16:53Z</time>
      </trkpt>
      <trkpt lat="43.456383" lon="-5.5978117">
        <ele>568.0</ele>
        <time>2021-02-14T13:16:54Z</time>
      </trkpt>
      <trkpt lat="43.456394" lon="-5.597823">
        <ele>568.0</ele>
        <time>2021-02-14T13:16:55Z</time>
      </trkpt>
      <trkpt lat="43.456406" lon="-5.5978336">
        <ele>568.0</ele>
        <time>2021-02-14T13:16:56Z</time>
      </trkpt>
      <trkpt lat="43.456413" lon="-5.5978436">
        <ele>568.0</ele>
        <time>2021-02-14T13:16:57Z</time>
      </trkpt>
      <trkpt lat="43.45642" lon="-5.5978556">
        <ele>568.0</ele>
        <time>2021-02-14T13:16:58Z</time>
      </trkpt>
      <trkpt lat="43.45643" lon="-5.597866">
        <ele>567.0</ele>
        <time>2021-02-14T13:16:59Z</time>
      </trkpt>
      <trkpt lat="43.45644" lon="-5.5978785">
        <ele>567.0</ele>
        <time>2021-02-14T13:17:00Z</time>
      </trkpt>
      <trkpt lat="43.45645" lon="-5.5978894">
        <ele>567.0</ele>
        <time>2021-02-14T13:17:01Z</time>
      </trkpt>
      <trkpt lat="43.456455" lon="-5.5978975">
        <ele>567.0</ele>
        <time>2021-02-14T13:17:02Z</time>
      </trkpt>
      <trkpt lat="43.456467" lon="-5.5979047">
        <ele>567.0</ele>
        <time>2021-02-14T13:17:03Z</time>
      </trkpt>
      <trkpt lat="43.45647" lon="-5.5979104">
        <ele>567.0</ele>
        <time>2021-02-14T13:17:04Z</time>
      </trkpt>
      <trkpt lat="43.456482" lon="-5.5979176">
        <ele>567.0</ele>
        <time>2021-02-14T13:17:05Z</time>
      </trkpt>
      <trkpt lat="43.456493" lon="-5.5979266">
        <ele>567.0</ele>
        <time>2021-02-14T13:17:06Z</time>
      </trkpt>
      <trkpt lat="43.456497" lon="-5.5979366">
        <ele>567.0</ele>
        <time>2021-02-14T13:17:07Z</time>
      </trkpt>
      <trkpt lat="43.45651" lon="-5.597949">
        <ele>566.0</ele>
        <time>2021-02-14T13:17:08Z</time>
      </trkpt>
      <trkpt lat="43.456516" lon="-5.597959">
        <ele>566.0</ele>
        <time>2021-02-14T13:17:09Z</time>
      </trkpt>
      <trkpt lat="43.456524" lon="-5.597969">
        <ele>566.0</ele>
        <time>2021-02-14T13:17:09Z</time>
      </trkpt>
      <trkpt lat="43.45653" lon="-5.5979795">
        <ele>566.0</ele>
        <time>2021-02-14T13:17:10Z</time>
      </trkpt>
      <trkpt lat="43.456543" lon="-5.597989">
        <ele>565.0</ele>
        <time>2021-02-14T13:17:11Z</time>
      </trkpt>
      <trkpt lat="43.45656" lon="-5.597996">
        <ele>565.0</ele>
        <time>2021-02-14T13:17:12Z</time>
      </trkpt>
      <trkpt lat="43.45657" lon="-5.5980034">
        <ele>565.0</ele>
        <time>2021-02-14T13:17:13Z</time>
      </trkpt>
      <trkpt lat="43.456585" lon="-5.598007">
        <ele>565.0</ele>
        <time>2021-02-14T13:17:14Z</time>
      </trkpt>
      <trkpt lat="43.456593" lon="-5.598012">
        <ele>565.0</ele>
        <time>2021-02-14T13:17:15Z</time>
      </trkpt>
      <trkpt lat="43.4566" lon="-5.598017">
        <ele>564.0</ele>
        <time>2021-02-14T13:17:16Z</time>
      </trkpt>
      <trkpt lat="43.456608" lon="-5.598024">
        <ele>564.0</ele>
        <time>2021-02-14T13:17:17Z</time>
      </trkpt>
      <trkpt lat="43.45662" lon="-5.5980325">
        <ele>564.0</ele>
        <time>2021-02-14T13:17:18Z</time>
      </trkpt>
      <trkpt lat="43.45663" lon="-5.598043">
        <ele>564.0</ele>
        <time>2021-02-14T13:17:19Z</time>
      </trkpt>
      <trkpt lat="43.456635" lon="-5.5980544">
        <ele>564.0</ele>
        <time>2021-02-14T13:17:20Z</time>
      </trkpt>
      <trkpt lat="43.456646" lon="-5.598062">
        <ele>563.0</ele>
        <time>2021-02-14T13:17:21Z</time>
      </trkpt>
      <trkpt lat="43.45665" lon="-5.598069">
        <ele>563.0</ele>
        <time>2021-02-14T13:17:22Z</time>
      </trkpt>
      <trkpt lat="43.45666" lon="-5.5980754">
        <ele>563.0</ele>
        <time>2021-02-14T13:17:23Z</time>
      </trkpt>
      <trkpt lat="43.45667" lon="-5.598083">
        <ele>563.0</ele>
        <time>2021-02-14T13:17:24Z</time>
      </trkpt>
      <trkpt lat="43.456676" lon="-5.598093">
        <ele>563.0</ele>
        <time>2021-02-14T13:17:25Z</time>
      </trkpt>
      <trkpt lat="43.456688" lon="-5.5981073">
        <ele>563.0</ele>
        <time>2021-02-14T13:17:26Z</time>
      </trkpt>
      <trkpt lat="43.45669" lon="-5.598122">
        <ele>563.0</ele>
        <time>2021-02-14T13:17:27Z</time>
      </trkpt>
      <trkpt lat="43.456696" lon="-5.5981374">
        <ele>562.0</ele>
        <time>2021-02-14T13:17:28Z</time>
      </trkpt>
      <trkpt lat="43.456703" lon="-5.598151">
        <ele>562.0</ele>
        <time>2021-02-14T13:17:29Z</time>
      </trkpt>
      <trkpt lat="43.45671" lon="-5.5981617">
        <ele>562.0</ele>
        <time>2021-02-14T13:17:30Z</time>
      </trkpt>
      <trkpt lat="43.45672" lon="-5.5981708">
        <ele>562.0</ele>
        <time>2021-02-14T13:17:31Z</time>
      </trkpt>
      <trkpt lat="43.456722" lon="-5.598178">
        <ele>561.0</ele>
        <time>2021-02-14T13:17:32Z</time>
      </trkpt>
      <trkpt lat="43.456726" lon="-5.598186">
        <ele>561.0</ele>
        <time>2021-02-14T13:17:33Z</time>
      </trkpt>
      <trkpt lat="43.456734" lon="-5.598193">
        <ele>561.0</ele>
        <time>2021-02-14T13:17:34Z</time>
      </trkpt>
      <trkpt lat="43.456738" lon="-5.5982003">
        <ele>561.0</ele>
        <time>2021-02-14T13:17:35Z</time>
      </trkpt>
      <trkpt lat="43.45674" lon="-5.598206">
        <ele>561.0</ele>
        <time>2021-02-14T13:17:36Z</time>
      </trkpt>
      <trkpt lat="43.45675" lon="-5.598213">
        <ele>561.0</ele>
        <time>2021-02-14T13:17:37Z</time>
      </trkpt>
      <trkpt lat="43.456757" lon="-5.598219">
        <ele>561.0</ele>
        <time>2021-02-14T13:17:38Z</time>
      </trkpt>
      <trkpt lat="43.456764" lon="-5.5982246">
        <ele>561.0</ele>
        <time>2021-02-14T13:17:39Z</time>
      </trkpt>
      <trkpt lat="43.456768" lon="-5.5982304">
        <ele>561.0</ele>
        <time>2021-02-14T13:17:40Z</time>
      </trkpt>
      <trkpt lat="43.45677" lon="-5.598238">
        <ele>561.0</ele>
        <time>2021-02-14T13:17:41Z</time>
      </trkpt>
      <trkpt lat="43.45677" lon="-5.5982456">
        <ele>560.0</ele>
        <time>2021-02-14T13:17:42Z</time>
      </trkpt>
      <trkpt lat="43.45678" lon="-5.598253">
        <ele>560.0</ele>
        <time>2021-02-14T13:17:43Z</time>
      </trkpt>
      <trkpt lat="43.456783" lon="-5.598262">
        <ele>560.0</ele>
        <time>2021-02-14T13:17:44Z</time>
      </trkpt>
      <trkpt lat="43.456787" lon="-5.598271">
        <ele>560.0</ele>
        <time>2021-02-14T13:17:45Z</time>
      </trkpt>
      <trkpt lat="43.456795" lon="-5.5982776">
        <ele>560.0</ele>
        <time>2021-02-14T13:17:46Z</time>
      </trkpt>
      <trkpt lat="43.456802" lon="-5.5982857">
        <ele>559.0</ele>
        <time>2021-02-14T13:17:47Z</time>
      </trkpt>
      <trkpt lat="43.456814" lon="-5.598294">
        <ele>559.0</ele>
        <time>2021-02-14T13:17:48Z</time>
      </trkpt>
      <trkpt lat="43.456825" lon="-5.598303">
        <ele>559.0</ele>
        <time>2021-02-14T13:17:49Z</time>
      </trkpt>
      <trkpt lat="43.45683" lon="-5.598311">
        <ele>559.0</ele>
        <time>2021-02-14T13:17:50Z</time>
      </trkpt>
      <trkpt lat="43.45684" lon="-5.5983167">
        <ele>559.0</ele>
        <time>2021-02-14T13:17:51Z</time>
      </trkpt>
      <trkpt lat="43.45685" lon="-5.5983186">
        <ele>558.0</ele>
        <time>2021-02-14T13:17:52Z</time>
      </trkpt>
      <trkpt lat="43.45686" lon="-5.5983176">
        <ele>558.0</ele>
        <time>2021-02-14T13:17:53Z</time>
      </trkpt>
      <trkpt lat="43.45687" lon="-5.598315">
        <ele>558.0</ele>
        <time>2021-02-14T13:17:54Z</time>
      </trkpt>
      <trkpt lat="43.456882" lon="-5.598314">
        <ele>558.0</ele>
        <time>2021-02-14T13:17:55Z</time>
      </trkpt>
      <trkpt lat="43.45689" lon="-5.598312">
        <ele>558.0</ele>
        <time>2021-02-14T13:17:56Z</time>
      </trkpt>
      <trkpt lat="43.4569" lon="-5.598314">
        <ele>557.0</ele>
        <time>2021-02-14T13:17:57Z</time>
      </trkpt>
      <trkpt lat="43.456905" lon="-5.5983186">
        <ele>557.0</ele>
        <time>2021-02-14T13:17:58Z</time>
      </trkpt>
      <trkpt lat="43.456917" lon="-5.5983233">
        <ele>557.0</ele>
        <time>2021-02-14T13:17:59Z</time>
      </trkpt>
      <trkpt lat="43.456936" lon="-5.598343">
        <ele>557.0</ele>
        <time>2021-02-14T13:18:01Z</time>
      </trkpt>
      <trkpt lat="43.456944" lon="-5.598346">
        <ele>557.0</ele>
        <time>2021-02-14T13:18:02Z</time>
      </trkpt>
      <trkpt lat="43.456944" lon="-5.5983515">
        <ele>556.0</ele>
        <time>2021-02-14T13:18:03Z</time>
      </trkpt>
      <trkpt lat="43.456947" lon="-5.598359">
        <ele>556.0</ele>
        <time>2021-02-14T13:18:04Z</time>
      </trkpt>
      <trkpt lat="43.45696" lon="-5.5983686">
        <ele>556.0</ele>
        <time>2021-02-14T13:18:05Z</time>
      </trkpt>
      <trkpt lat="43.456963" lon="-5.598378">
        <ele>556.0</ele>
        <time>2021-02-14T13:18:06Z</time>
      </trkpt>
      <trkpt lat="43.456974" lon="-5.5983853">
        <ele>556.0</ele>
        <time>2021-02-14T13:18:07Z</time>
      </trkpt>
      <trkpt lat="43.456978" lon="-5.598391">
        <ele>556.0</ele>
        <time>2021-02-14T13:18:08Z</time>
      </trkpt>
      <trkpt lat="43.45698" lon="-5.598398">
        <ele>556.0</ele>
        <time>2021-02-14T13:18:09Z</time>
      </trkpt>
      <trkpt lat="43.45699" lon="-5.598403">
        <ele>556.0</ele>
        <time>2021-02-14T13:18:10Z</time>
      </trkpt>
      <trkpt lat="43.457012" lon="-5.5984197">
        <ele>556.0</ele>
        <time>2021-02-14T13:18:12Z</time>
      </trkpt>
      <trkpt lat="43.457012" lon="-5.5984216">
        <ele>556.0</ele>
        <time>2021-02-14T13:18:13Z</time>
      </trkpt>
      <trkpt lat="43.457024" lon="-5.5984244">
        <ele>556.0</ele>
        <time>2021-02-14T13:18:14Z</time>
      </trkpt>
      <trkpt lat="43.457035" lon="-5.5984287">
        <ele>555.0</ele>
        <time>2021-02-14T13:18:15Z</time>
      </trkpt>
      <trkpt lat="43.457043" lon="-5.5984344">
        <ele>555.0</ele>
        <time>2021-02-14T13:18:16Z</time>
      </trkpt>
      <trkpt lat="43.457054" lon="-5.5984383">
        <ele>555.0</ele>
        <time>2021-02-14T13:18:17Z</time>
      </trkpt>
      <trkpt lat="43.457066" lon="-5.5984454">
        <ele>555.0</ele>
        <time>2021-02-14T13:18:18Z</time>
      </trkpt>
      <trkpt lat="43.45707" lon="-5.5984535">
        <ele>555.0</ele>
        <time>2021-02-14T13:18:19Z</time>
      </trkpt>
      <trkpt lat="43.45708" lon="-5.5984607">
        <ele>554.0</ele>
        <time>2021-02-14T13:18:20Z</time>
      </trkpt>
      <trkpt lat="43.457085" lon="-5.5984674">
        <ele>554.0</ele>
        <time>2021-02-14T13:18:21Z</time>
      </trkpt>
      <trkpt lat="43.457096" lon="-5.598474">
        <ele>554.0</ele>
        <time>2021-02-14T13:18:22Z</time>
      </trkpt>
      <trkpt lat="43.457108" lon="-5.5984793">
        <ele>554.0</ele>
        <time>2021-02-14T13:18:23Z</time>
      </trkpt>
      <trkpt lat="43.45711" lon="-5.598482">
        <ele>554.0</ele>
        <time>2021-02-14T13:18:24Z</time>
      </trkpt>
      <trkpt lat="43.457127" lon="-5.598485">
        <ele>553.0</ele>
        <time>2021-02-14T13:18:25Z</time>
      </trkpt>
      <trkpt lat="43.457138" lon="-5.598489">
        <ele>553.0</ele>
        <time>2021-02-14T13:18:26Z</time>
      </trkpt>
      <trkpt lat="43.457153" lon="-5.598494">
        <ele>553.0</ele>
        <time>2021-02-14T13:18:27Z</time>
      </trkpt>
      <trkpt lat="43.45717" lon="-5.5985026">
        <ele>553.0</ele>
        <time>2021-02-14T13:18:28Z</time>
      </trkpt>
      <trkpt lat="43.457176" lon="-5.598513">
        <ele>553.0</ele>
        <time>2021-02-14T13:18:29Z</time>
      </trkpt>
      <trkpt lat="43.45719" lon="-5.5985274">
        <ele>553.0</ele>
        <time>2021-02-14T13:18:30Z</time>
      </trkpt>
      <trkpt lat="43.457203" lon="-5.5985394">
        <ele>552.0</ele>
        <time>2021-02-14T13:18:31Z</time>
      </trkpt>
      <trkpt lat="43.45722" lon="-5.598553">
        <ele>552.0</ele>
        <time>2021-02-14T13:18:32Z</time>
      </trkpt>
      <trkpt lat="43.457233" lon="-5.5985656">
        <ele>552.0</ele>
        <time>2021-02-14T13:18:33Z</time>
      </trkpt>
      <trkpt lat="43.45725" lon="-5.5985756">
        <ele>552.0</ele>
        <time>2021-02-14T13:18:34Z</time>
      </trkpt>
      <trkpt lat="43.45726" lon="-5.598584">
        <ele>552.0</ele>
        <time>2021-02-14T13:18:35Z</time>
      </trkpt>
      <trkpt lat="43.45727" lon="-5.5985928">
        <ele>552.0</ele>
        <time>2021-02-14T13:18:36Z</time>
      </trkpt>
      <trkpt lat="43.45728" lon="-5.598601">
        <ele>551.0</ele>
        <time>2021-02-14T13:18:37Z</time>
      </trkpt>
      <trkpt lat="43.457294" lon="-5.5986085">
        <ele>551.0</ele>
        <time>2021-02-14T13:18:38Z</time>
      </trkpt>
      <trkpt lat="43.457306" lon="-5.598615">
        <ele>551.0</ele>
        <time>2021-02-14T13:18:39Z</time>
      </trkpt>
      <trkpt lat="43.457317" lon="-5.5986195">
        <ele>551.0</ele>
        <time>2021-02-14T13:18:40Z</time>
      </trkpt>
      <trkpt lat="43.457333" lon="-5.598626">
        <ele>551.0</ele>
        <time>2021-02-14T13:18:41Z</time>
      </trkpt>
      <trkpt lat="43.45734" lon="-5.598633">
        <ele>551.0</ele>
        <time>2021-02-14T13:18:42Z</time>
      </trkpt>
      <trkpt lat="43.457355" lon="-5.5986414">
        <ele>551.0</ele>
        <time>2021-02-14T13:18:43Z</time>
      </trkpt>
      <trkpt lat="43.45737" lon="-5.5986505">
        <ele>551.0</ele>
        <time>2021-02-14T13:18:44Z</time>
      </trkpt>
      <trkpt lat="43.457386" lon="-5.598661">
        <ele>551.0</ele>
        <time>2021-02-14T13:18:45Z</time>
      </trkpt>
      <trkpt lat="43.4574" lon="-5.5986767">
        <ele>551.0</ele>
        <time>2021-02-14T13:18:46Z</time>
      </trkpt>
      <trkpt lat="43.457417" lon="-5.598694">
        <ele>550.0</ele>
        <time>2021-02-14T13:18:47Z</time>
      </trkpt>
      <trkpt lat="43.45744" lon="-5.5987096">
        <ele>550.0</ele>
        <time>2021-02-14T13:18:48Z</time>
      </trkpt>
      <trkpt lat="43.457455" lon="-5.5987234">
        <ele>550.0</ele>
        <time>2021-02-14T13:18:49Z</time>
      </trkpt>
      <trkpt lat="43.45747" lon="-5.598737">
        <ele>550.0</ele>
        <time>2021-02-14T13:18:50Z</time>
      </trkpt>
      <trkpt lat="43.457485" lon="-5.598748">
        <ele>550.0</ele>
        <time>2021-02-14T13:18:51Z</time>
      </trkpt>
      <trkpt lat="43.4575" lon="-5.598759">
        <ele>550.0</ele>
        <time>2021-02-14T13:18:52Z</time>
      </trkpt>
      <trkpt lat="43.45751" lon="-5.5987687">
        <ele>550.0</ele>
        <time>2021-02-14T13:18:53Z</time>
      </trkpt>
      <trkpt lat="43.457527" lon="-5.598775">
        <ele>550.0</ele>
        <time>2021-02-14T13:18:54Z</time>
      </trkpt>
      <trkpt lat="43.457535" lon="-5.5987806">
        <ele>550.0</ele>
        <time>2021-02-14T13:18:55Z</time>
      </trkpt>
      <trkpt lat="43.457542" lon="-5.598786">
        <ele>550.0</ele>
        <time>2021-02-14T13:18:56Z</time>
      </trkpt>
      <trkpt lat="43.457546" lon="-5.598789">
        <ele>550.0</ele>
        <time>2021-02-14T13:18:57Z</time>
      </trkpt>
      <trkpt lat="43.457558" lon="-5.5987916">
        <ele>550.0</ele>
        <time>2021-02-14T13:18:58Z</time>
      </trkpt>
      <trkpt lat="43.457565" lon="-5.5987983">
        <ele>550.0</ele>
        <time>2021-02-14T13:18:59Z</time>
      </trkpt>
      <trkpt lat="43.457573" lon="-5.598806">
        <ele>550.0</ele>
        <time>2021-02-14T13:19:00Z</time>
      </trkpt>
      <trkpt lat="43.45758" lon="-5.598812">
        <ele>550.0</ele>
        <time>2021-02-14T13:19:01Z</time>
      </trkpt>
      <trkpt lat="43.457592" lon="-5.598817">
        <ele>550.0</ele>
        <time>2021-02-14T13:19:02Z</time>
      </trkpt>
      <trkpt lat="43.457596" lon="-5.5988197">
        <ele>550.0</ele>
        <time>2021-02-14T13:19:03Z</time>
      </trkpt>
      <trkpt lat="43.457607" lon="-5.5988216">
        <ele>550.0</ele>
        <time>2021-02-14T13:19:04Z</time>
      </trkpt>
      <trkpt lat="43.45762" lon="-5.5988264">
        <ele>550.0</ele>
        <time>2021-02-14T13:19:05Z</time>
      </trkpt>
      <trkpt lat="43.457626" lon="-5.5988293">
        <ele>550.0</ele>
        <time>2021-02-14T13:19:06Z</time>
      </trkpt>
      <trkpt lat="43.457638" lon="-5.598832">
        <ele>550.0</ele>
        <time>2021-02-14T13:19:07Z</time>
      </trkpt>
      <trkpt lat="43.45765" lon="-5.598831">
        <ele>550.0</ele>
        <time>2021-02-14T13:19:08Z</time>
      </trkpt>
      <trkpt lat="43.457664" lon="-5.5988293">
        <ele>550.0</ele>
        <time>2021-02-14T13:19:09Z</time>
      </trkpt>
      <trkpt lat="43.45768" lon="-5.5988255">
        <ele>550.0</ele>
        <time>2021-02-14T13:19:10Z</time>
      </trkpt>
      <trkpt lat="43.45769" lon="-5.598821">
        <ele>550.0</ele>
        <time>2021-02-14T13:19:11Z</time>
      </trkpt>
      <trkpt lat="43.457706" lon="-5.598819">
        <ele>550.0</ele>
        <time>2021-02-14T13:19:12Z</time>
      </trkpt>
      <trkpt lat="43.457714" lon="-5.598816">
        <ele>550.0</ele>
        <time>2021-02-14T13:19:13Z</time>
      </trkpt>
      <trkpt lat="43.457726" lon="-5.5988135">
        <ele>550.0</ele>
        <time>2021-02-14T13:19:14Z</time>
      </trkpt>
      <trkpt lat="43.457737" lon="-5.5988116">
        <ele>550.0</ele>
        <time>2021-02-14T13:19:15Z</time>
      </trkpt>
      <trkpt lat="43.457752" lon="-5.59881">
        <ele>550.0</ele>
        <time>2021-02-14T13:19:16Z</time>
      </trkpt>
      <trkpt lat="43.45776" lon="-5.5988083">
        <ele>550.0</ele>
        <time>2021-02-14T13:19:17Z</time>
      </trkpt>
      <trkpt lat="43.457775" lon="-5.5988064">
        <ele>550.0</ele>
        <time>2021-02-14T13:19:18Z</time>
      </trkpt>
      <trkpt lat="43.45779" lon="-5.598803">
        <ele>550.0</ele>
        <time>2021-02-14T13:19:19Z</time>
      </trkpt>
      <trkpt lat="43.457806" lon="-5.598799">
        <ele>550.0</ele>
        <time>2021-02-14T13:19:20Z</time>
      </trkpt>
      <trkpt lat="43.45782" lon="-5.5987964">
        <ele>550.0</ele>
        <time>2021-02-14T13:19:21Z</time>
      </trkpt>
      <trkpt lat="43.45784" lon="-5.598793">
        <ele>550.0</ele>
        <time>2021-02-14T13:19:22Z</time>
      </trkpt>
      <trkpt lat="43.457855" lon="-5.5987897">
        <ele>550.0</ele>
        <time>2021-02-14T13:19:23Z</time>
      </trkpt>
      <trkpt lat="43.457863" lon="-5.5987873">
        <ele>550.0</ele>
        <time>2021-02-14T13:19:24Z</time>
      </trkpt>
      <trkpt lat="43.457874" lon="-5.598786">
        <ele>550.0</ele>
        <time>2021-02-14T13:19:25Z</time>
      </trkpt>
      <trkpt lat="43.457886" lon="-5.5987854">
        <ele>550.0</ele>
        <time>2021-02-14T13:19:26Z</time>
      </trkpt>
      <trkpt lat="43.45789" lon="-5.5987854">
        <ele>550.0</ele>
        <time>2021-02-14T13:19:27Z</time>
      </trkpt>
      <trkpt lat="43.457893" lon="-5.598784">
        <ele>550.0</ele>
        <time>2021-02-14T13:19:28Z</time>
      </trkpt>
      <trkpt lat="43.457905" lon="-5.5987806">
        <ele>550.0</ele>
        <time>2021-02-14T13:19:29Z</time>
      </trkpt>
      <trkpt lat="43.45791" lon="-5.5987763">
        <ele>550.0</ele>
        <time>2021-02-14T13:19:30Z</time>
      </trkpt>
      <trkpt lat="43.45792" lon="-5.5987687">
        <ele>550.0</ele>
        <time>2021-02-14T13:19:31Z</time>
      </trkpt>
      <trkpt lat="43.45793" lon="-5.5987597">
        <ele>550.0</ele>
        <time>2021-02-14T13:19:32Z</time>
      </trkpt>
      <trkpt lat="43.45794" lon="-5.5987535">
        <ele>550.0</ele>
        <time>2021-02-14T13:19:33Z</time>
      </trkpt>
      <trkpt lat="43.45795" lon="-5.5987496">
        <ele>550.0</ele>
        <time>2021-02-14T13:19:34Z</time>
      </trkpt>
      <trkpt lat="43.45797" lon="-5.598745">
        <ele>550.0</ele>
        <time>2021-02-14T13:19:36Z</time>
      </trkpt>
      <trkpt lat="43.45797" lon="-5.598745">
        <ele>550.0</ele>
        <time>2021-02-14T13:19:37Z</time>
      </trkpt>
      <trkpt lat="43.457993" lon="-5.5987515">
        <ele>550.0</ele>
        <time>2021-02-14T13:19:44Z</time>
      </trkpt>
      <trkpt lat="43.457996" lon="-5.5987535">
        <ele>550.0</ele>
        <time>2021-02-14T13:19:46Z</time>
      </trkpt>
      <trkpt lat="43.458" lon="-5.5987515">
        <ele>550.0</ele>
        <time>2021-02-14T13:20:04Z</time>
      </trkpt>
      <trkpt lat="43.458" lon="-5.5987506">
        <ele>550.0</ele>
        <time>2021-02-14T13:20:05Z</time>
      </trkpt>
      <trkpt lat="43.458008" lon="-5.5987463">
        <ele>550.0</ele>
        <time>2021-02-14T13:20:10Z</time>
      </trkpt>
      <trkpt lat="43.458008" lon="-5.598743">
        <ele>550.0</ele>
        <time>2021-02-14T13:20:12Z</time>
      </trkpt>
      <trkpt lat="43.45801" lon="-5.5987377">
        <ele>550.0</ele>
        <time>2021-02-14T13:20:15Z</time>
      </trkpt>
      <trkpt lat="43.45801" lon="-5.598733">
        <ele>550.0</ele>
        <time>2021-02-14T13:20:19Z</time>
      </trkpt>
      <trkpt lat="43.45801" lon="-5.598728">
        <ele>550.0</ele>
        <time>2021-02-14T13:20:21Z</time>
      </trkpt>
      <trkpt lat="43.45801" lon="-5.598727">
        <ele>550.0</ele>
        <time>2021-02-14T13:20:22Z</time>
      </trkpt>
      <trkpt lat="43.458023" lon="-5.5987163">
        <ele>550.0</ele>
        <time>2021-02-14T13:20:30Z</time>
      </trkpt>
      <trkpt lat="43.458027" lon="-5.5987163">
        <ele>550.0</ele>
        <time>2021-02-14T13:20:32Z</time>
      </trkpt>
      <trkpt lat="43.458027" lon="-5.5987153">
        <ele>550.0</ele>
        <time>2021-02-14T13:20:33Z</time>
      </trkpt>
      <trkpt lat="43.458035" lon="-5.5987153">
        <ele>550.0</ele>
        <time>2021-02-14T13:20:34Z</time>
      </trkpt>
      <trkpt lat="43.45804" lon="-5.598715">
        <ele>550.0</ele>
        <time>2021-02-14T13:20:35Z</time>
      </trkpt>
      <trkpt lat="43.458054" lon="-5.5987115">
        <ele>550.0</ele>
        <time>2021-02-14T13:20:39Z</time>
      </trkpt>
      <trkpt lat="43.458054" lon="-5.598711">
        <ele>550.0</ele>
        <time>2021-02-14T13:20:40Z</time>
      </trkpt>
      <trkpt lat="43.458065" lon="-5.5987067">
        <ele>550.0</ele>
        <time>2021-02-14T13:20:45Z</time>
      </trkpt>
      <trkpt lat="43.458065" lon="-5.5986996">
        <ele>550.0</ele>
        <time>2021-02-14T13:20:54Z</time>
      </trkpt>
      <trkpt lat="43.458065" lon="-5.598691">
        <ele>550.0</ele>
        <time>2021-02-14T13:20:58Z</time>
      </trkpt>
      <trkpt lat="43.458065" lon="-5.5986905">
        <ele>550.0</ele>
        <time>2021-02-14T13:20:59Z</time>
      </trkpt>
      <trkpt lat="43.458065" lon="-5.5986886">
        <ele>550.0</ele>
        <time>2021-02-14T13:21:00Z</time>
      </trkpt>
      <trkpt lat="43.458065" lon="-5.5986795">
        <ele>550.0</ele>
        <time>2021-02-14T13:21:05Z</time>
      </trkpt>
      <trkpt lat="43.458065" lon="-5.598675">
        <ele>550.0</ele>
        <time>2021-02-14T13:21:10Z</time>
      </trkpt>
      <trkpt lat="43.458057" lon="-5.598675">
        <ele>550.0</ele>
        <time>2021-02-14T13:21:11Z</time>
      </trkpt>
      <trkpt lat="43.458057" lon="-5.598675">
        <ele>550.0</ele>
        <time>2021-02-14T13:21:12Z</time>
      </trkpt>
      <trkpt lat="43.458042" lon="-5.598675">
        <ele>550.0</ele>
        <time>2021-02-14T13:21:14Z</time>
      </trkpt>
      <trkpt lat="43.458042" lon="-5.598675">
        <ele>550.0</ele>
        <time>2021-02-14T13:21:15Z</time>
      </trkpt>
      <trkpt lat="43.45804" lon="-5.59867">
        <ele>550.0</ele>
        <time>2021-02-14T13:21:17Z</time>
      </trkpt>
      <trkpt lat="43.458035" lon="-5.598666">
        <ele>550.0</ele>
        <time>2021-02-14T13:21:20Z</time>
      </trkpt>
      <trkpt lat="43.458027" lon="-5.598666">
        <ele>550.0</ele>
        <time>2021-02-14T13:21:22Z</time>
      </trkpt>
      <trkpt lat="43.458023" lon="-5.598666">
        <ele>550.0</ele>
        <time>2021-02-14T13:21:25Z</time>
      </trkpt>
      <trkpt lat="43.458008" lon="-5.598666">
        <ele>550.0</ele>
        <time>2021-02-14T13:21:27Z</time>
      </trkpt>
      <trkpt lat="43.458008" lon="-5.598666">
        <ele>550.0</ele>
        <time>2021-02-14T13:21:28Z</time>
      </trkpt>
      <trkpt lat="43.458008" lon="-5.598666">
        <ele>550.0</ele>
        <time>2021-02-14T13:21:29Z</time>
      </trkpt>
      <trkpt lat="43.457985" lon="-5.59867">
        <ele>550.0</ele>
        <time>2021-02-14T13:21:34Z</time>
      </trkpt>
      <trkpt lat="43.45797" lon="-5.598675">
        <ele>550.0</ele>
        <time>2021-02-14T13:21:36Z</time>
      </trkpt>
      <trkpt lat="43.45794" lon="-5.5986953">
        <ele>550.0</ele>
        <time>2021-02-14T13:21:44Z</time>
      </trkpt>
      <trkpt lat="43.457935" lon="-5.598696">
        <ele>550.0</ele>
        <time>2021-02-14T13:21:46Z</time>
      </trkpt>
      <trkpt lat="43.457935" lon="-5.5986953">
        <ele>550.0</ele>
        <time>2021-02-14T13:21:47Z</time>
      </trkpt>
      <trkpt lat="43.457947" lon="-5.598692">
        <ele>550.0</ele>
        <time>2021-02-14T13:21:50Z</time>
      </trkpt>
      <trkpt lat="43.45794" lon="-5.598688">
        <ele>550.0</ele>
        <time>2021-02-14T13:21:53Z</time>
      </trkpt>
      <trkpt lat="43.457935" lon="-5.598688">
        <ele>550.0</ele>
        <time>2021-02-14T13:21:54Z</time>
      </trkpt>
      <trkpt lat="43.457935" lon="-5.5986886">
        <ele>550.0</ele>
        <time>2021-02-14T13:21:55Z</time>
      </trkpt>
      <trkpt lat="43.45792" lon="-5.598698">
        <ele>550.0</ele>
        <time>2021-02-14T13:21:57Z</time>
      </trkpt>
      <trkpt lat="43.457924" lon="-5.598718">
        <ele>550.0</ele>
        <time>2021-02-14T13:22:27Z</time>
      </trkpt>
      <trkpt lat="43.45793" lon="-5.598718">
        <ele>550.0</ele>
        <time>2021-02-14T13:22:29Z</time>
      </trkpt>
      <trkpt lat="43.45793" lon="-5.598718">
        <ele>550.0</ele>
        <time>2021-02-14T13:22:30Z</time>
      </trkpt>
      <trkpt lat="43.457935" lon="-5.598718">
        <ele>550.0</ele>
        <time>2021-02-14T13:22:31Z</time>
      </trkpt>
      <trkpt lat="43.45795" lon="-5.598718">
        <ele>550.0</ele>
        <time>2021-02-14T13:22:37Z</time>
      </trkpt>
      <trkpt lat="43.45795" lon="-5.598718">
        <ele>550.0</ele>
        <time>2021-02-14T13:22:38Z</time>
      </trkpt>
      <trkpt lat="43.457962" lon="-5.598718">
        <ele>550.0</ele>
        <time>2021-02-14T13:22:42Z</time>
      </trkpt>
      <trkpt lat="43.457962" lon="-5.598718">
        <ele>550.0</ele>
        <time>2021-02-14T13:22:43Z</time>
      </trkpt>
      <trkpt lat="43.457977" lon="-5.5987167">
        <ele>550.0</ele>
        <time>2021-02-14T13:23:15Z</time>
      </trkpt>
      <trkpt lat="43.45798" lon="-5.598718">
        <ele>550.0</ele>
        <time>2021-02-14T13:23:18Z</time>
      </trkpt>
      <trkpt lat="43.457993" lon="-5.59872">
        <ele>550.0</ele>
        <time>2021-02-14T13:23:30Z</time>
      </trkpt>
      <trkpt lat="43.45801" lon="-5.5987234">
        <ele>550.0</ele>
        <time>2021-02-14T13:23:57Z</time>
      </trkpt>
      <trkpt lat="43.45801" lon="-5.5987234">
        <ele>550.0</ele>
        <time>2021-02-14T13:23:58Z</time>
      </trkpt>
      <trkpt lat="43.45801" lon="-5.5987253">
        <ele>550.0</ele>
        <time>2021-02-14T13:23:59Z</time>
      </trkpt>
      <trkpt lat="43.458015" lon="-5.598727">
        <ele>550.0</ele>
        <time>2021-02-14T13:24:00Z</time>
      </trkpt>
      <trkpt lat="43.458015" lon="-5.598729">
        <ele>550.0</ele>
        <time>2021-02-14T13:24:01Z</time>
      </trkpt>
      <trkpt lat="43.458015" lon="-5.598731">
        <ele>550.0</ele>
        <time>2021-02-14T13:24:02Z</time>
      </trkpt>
      <trkpt lat="43.458027" lon="-5.5987415">
        <ele>550.0</ele>
        <time>2021-02-14T13:24:13Z</time>
      </trkpt>
      <trkpt lat="43.458035" lon="-5.5987463">
        <ele>550.0</ele>
        <time>2021-02-14T13:24:22Z</time>
      </trkpt>
      <trkpt lat="43.45804" lon="-5.59875">
        <ele>550.0</ele>
        <time>2021-02-14T13:24:24Z</time>
      </trkpt>
      <trkpt lat="43.458042" lon="-5.5987415">
        <ele>550.0</ele>
        <time>2021-02-14T13:24:34Z</time>
      </trkpt>
      <trkpt lat="43.458042" lon="-5.5987353">
        <ele>550.0</ele>
        <time>2021-02-14T13:24:35Z</time>
      </trkpt>
      <trkpt lat="43.458042" lon="-5.5987234">
        <ele>550.0</ele>
        <time>2021-02-14T13:24:36Z</time>
      </trkpt>
      <trkpt lat="43.45804" lon="-5.598707">
        <ele>550.0</ele>
        <time>2021-02-14T13:24:37Z</time>
      </trkpt>
      <trkpt lat="43.45804" lon="-5.598691">
        <ele>550.0</ele>
        <time>2021-02-14T13:24:38Z</time>
      </trkpt>
      <trkpt lat="43.45804" lon="-5.5986776">
        <ele>549.0</ele>
        <time>2021-02-14T13:24:39Z</time>
      </trkpt>
      <trkpt lat="43.458042" lon="-5.598664">
        <ele>549.0</ele>
        <time>2021-02-14T13:24:40Z</time>
      </trkpt>
      <trkpt lat="43.45805" lon="-5.5986524">
        <ele>549.0</ele>
        <time>2021-02-14T13:24:41Z</time>
      </trkpt>
      <trkpt lat="43.458054" lon="-5.5986414">
        <ele>549.0</ele>
        <time>2021-02-14T13:24:42Z</time>
      </trkpt>
      <trkpt lat="43.458054" lon="-5.59863">
        <ele>549.0</ele>
        <time>2021-02-14T13:24:43Z</time>
      </trkpt>
      <trkpt lat="43.458065" lon="-5.5986066">
        <ele>549.0</ele>
        <time>2021-02-14T13:24:47Z</time>
      </trkpt>
      <trkpt lat="43.458065" lon="-5.5986">
        <ele>549.0</ele>
        <time>2021-02-14T13:24:51Z</time>
      </trkpt>
      <trkpt lat="43.458065" lon="-5.5985937">
        <ele>549.0</ele>
        <time>2021-02-14T13:24:52Z</time>
      </trkpt>
      <trkpt lat="43.458065" lon="-5.598585">
        <ele>549.0</ele>
        <time>2021-02-14T13:24:53Z</time>
      </trkpt>
      <trkpt lat="43.458073" lon="-5.598574">
        <ele>549.0</ele>
        <time>2021-02-14T13:24:54Z</time>
      </trkpt>
      <trkpt lat="43.458084" lon="-5.5985594">
        <ele>549.0</ele>
        <time>2021-02-14T13:24:55Z</time>
      </trkpt>
      <trkpt lat="43.458088" lon="-5.5985427">
        <ele>549.0</ele>
        <time>2021-02-14T13:24:56Z</time>
      </trkpt>
      <trkpt lat="43.4581" lon="-5.598526">
        <ele>549.0</ele>
        <time>2021-02-14T13:24:57Z</time>
      </trkpt>
      <trkpt lat="43.45811" lon="-5.598507">
        <ele>549.0</ele>
        <time>2021-02-14T13:24:58Z</time>
      </trkpt>
      <trkpt lat="43.45812" lon="-5.598487">
        <ele>549.0</ele>
        <time>2021-02-14T13:24:59Z</time>
      </trkpt>
      <trkpt lat="43.45813" lon="-5.598468">
        <ele>548.0</ele>
        <time>2021-02-14T13:25:00Z</time>
      </trkpt>
      <trkpt lat="43.458134" lon="-5.5984497">
        <ele>548.0</ele>
        <time>2021-02-14T13:25:01Z</time>
      </trkpt>
      <trkpt lat="43.45814" lon="-5.5984354">
        <ele>548.0</ele>
        <time>2021-02-14T13:25:02Z</time>
      </trkpt>
      <trkpt lat="43.45815" lon="-5.5984206">
        <ele>548.0</ele>
        <time>2021-02-14T13:25:03Z</time>
      </trkpt>
      <trkpt lat="43.458157" lon="-5.598405">
        <ele>548.0</ele>
        <time>2021-02-14T13:25:04Z</time>
      </trkpt>
      <trkpt lat="43.45816" lon="-5.5983906">
        <ele>548.0</ele>
        <time>2021-02-14T13:25:05Z</time>
      </trkpt>
      <trkpt lat="43.458164" lon="-5.5983768">
        <ele>547.0</ele>
        <time>2021-02-14T13:25:06Z</time>
      </trkpt>
      <trkpt lat="43.45817" lon="-5.5983634">
        <ele>547.0</ele>
        <time>2021-02-14T13:25:07Z</time>
      </trkpt>
      <trkpt lat="43.458176" lon="-5.5983534">
        <ele>547.0</ele>
        <time>2021-02-14T13:25:08Z</time>
      </trkpt>
      <trkpt lat="43.45818" lon="-5.598342">
        <ele>547.0</ele>
        <time>2021-02-14T13:25:09Z</time>
      </trkpt>
      <trkpt lat="43.45818" lon="-5.598327">
        <ele>547.0</ele>
        <time>2021-02-14T13:25:10Z</time>
      </trkpt>
      <trkpt lat="43.458187" lon="-5.59831">
        <ele>547.0</ele>
        <time>2021-02-14T13:25:11Z</time>
      </trkpt>
      <trkpt lat="43.458187" lon="-5.598292">
        <ele>547.0</ele>
        <time>2021-02-14T13:25:12Z</time>
      </trkpt>
      <trkpt lat="43.45818" lon="-5.598272">
        <ele>547.0</ele>
        <time>2021-02-14T13:25:13Z</time>
      </trkpt>
      <trkpt lat="43.45817" lon="-5.5982533">
        <ele>547.0</ele>
        <time>2021-02-14T13:25:14Z</time>
      </trkpt>
      <trkpt lat="43.458164" lon="-5.5982356">
        <ele>547.0</ele>
        <time>2021-02-14T13:25:15Z</time>
      </trkpt>
      <trkpt lat="43.45816" lon="-5.598219">
        <ele>547.0</ele>
        <time>2021-02-14T13:25:16Z</time>
      </trkpt>
      <trkpt lat="43.458157" lon="-5.5982027">
        <ele>547.0</ele>
        <time>2021-02-14T13:25:17Z</time>
      </trkpt>
      <trkpt lat="43.45815" lon="-5.598187">
        <ele>547.0</ele>
        <time>2021-02-14T13:25:18Z</time>
      </trkpt>
      <trkpt lat="43.458145" lon="-5.5981717">
        <ele>547.0</ele>
        <time>2021-02-14T13:25:19Z</time>
      </trkpt>
      <trkpt lat="43.458145" lon="-5.5981574">
        <ele>547.0</ele>
        <time>2021-02-14T13:25:20Z</time>
      </trkpt>
      <trkpt lat="43.45814" lon="-5.598144">
        <ele>546.0</ele>
        <time>2021-02-14T13:25:21Z</time>
      </trkpt>
      <trkpt lat="43.45814" lon="-5.598131">
        <ele>546.0</ele>
        <time>2021-02-14T13:25:22Z</time>
      </trkpt>
      <trkpt lat="43.45814" lon="-5.598118">
        <ele>546.0</ele>
        <time>2021-02-14T13:25:23Z</time>
      </trkpt>
      <trkpt lat="43.45814" lon="-5.5981045">
        <ele>546.0</ele>
        <time>2021-02-14T13:25:24Z</time>
      </trkpt>
      <trkpt lat="43.45814" lon="-5.59809">
        <ele>546.0</ele>
        <time>2021-02-14T13:25:25Z</time>
      </trkpt>
      <trkpt lat="43.45814" lon="-5.5980744">
        <ele>546.0</ele>
        <time>2021-02-14T13:25:26Z</time>
      </trkpt>
      <trkpt lat="43.45814" lon="-5.5980563">
        <ele>545.0</ele>
        <time>2021-02-14T13:25:27Z</time>
      </trkpt>
      <trkpt lat="43.458145" lon="-5.5980363">
        <ele>545.0</ele>
        <time>2021-02-14T13:25:28Z</time>
      </trkpt>
      <trkpt lat="43.458145" lon="-5.5980153">
        <ele>545.0</ele>
        <time>2021-02-14T13:25:29Z</time>
      </trkpt>
      <trkpt lat="43.45815" lon="-5.597993">
        <ele>545.0</ele>
        <time>2021-02-14T13:25:30Z</time>
      </trkpt>
      <trkpt lat="43.458157" lon="-5.597969">
        <ele>545.0</ele>
        <time>2021-02-14T13:25:31Z</time>
      </trkpt>
      <trkpt lat="43.458164" lon="-5.5979447">
        <ele>545.0</ele>
        <time>2021-02-14T13:25:32Z</time>
      </trkpt>
      <trkpt lat="43.45818" lon="-5.5979204">
        <ele>545.0</ele>
        <time>2021-02-14T13:25:33Z</time>
      </trkpt>
      <trkpt lat="43.45819" lon="-5.597897">
        <ele>544.0</ele>
        <time>2021-02-14T13:25:34Z</time>
      </trkpt>
      <trkpt lat="43.458195" lon="-5.5978746">
        <ele>544.0</ele>
        <time>2021-02-14T13:25:35Z</time>
      </trkpt>
      <trkpt lat="43.458202" lon="-5.5978537">
        <ele>544.0</ele>
        <time>2021-02-14T13:25:36Z</time>
      </trkpt>
      <trkpt lat="43.458202" lon="-5.597833">
        <ele>544.0</ele>
        <time>2021-02-14T13:25:37Z</time>
      </trkpt>
      <trkpt lat="43.458202" lon="-5.597815">
        <ele>544.0</ele>
        <time>2021-02-14T13:25:38Z</time>
      </trkpt>
      <trkpt lat="43.458206" lon="-5.5978007">
        <ele>544.0</ele>
        <time>2021-02-14T13:25:39Z</time>
      </trkpt>
      <trkpt lat="43.45821" lon="-5.5977874">
        <ele>543.0</ele>
        <time>2021-02-14T13:25:39Z</time>
      </trkpt>
      <trkpt lat="43.458218" lon="-5.5977774">
        <ele>543.0</ele>
        <time>2021-02-14T13:25:40Z</time>
      </trkpt>
      <trkpt lat="43.45822" lon="-5.5977683">
        <ele>543.0</ele>
        <time>2021-02-14T13:25:41Z</time>
      </trkpt>
      <trkpt lat="43.45822" lon="-5.5977592">
        <ele>543.0</ele>
        <time>2021-02-14T13:25:42Z</time>
      </trkpt>
      <trkpt lat="43.45823" lon="-5.5977497">
        <ele>543.0</ele>
        <time>2021-02-14T13:25:43Z</time>
      </trkpt>
      <trkpt lat="43.45823" lon="-5.597738">
        <ele>543.0</ele>
        <time>2021-02-14T13:25:44Z</time>
      </trkpt>
      <trkpt lat="43.45823" lon="-5.597724">
        <ele>543.0</ele>
        <time>2021-02-14T13:25:45Z</time>
      </trkpt>
      <trkpt lat="43.458233" lon="-5.5977097">
        <ele>543.0</ele>
        <time>2021-02-14T13:25:46Z</time>
      </trkpt>
      <trkpt lat="43.458233" lon="-5.597694">
        <ele>543.0</ele>
        <time>2021-02-14T13:25:47Z</time>
      </trkpt>
      <trkpt lat="43.458237" lon="-5.5976787">
        <ele>543.0</ele>
        <time>2021-02-14T13:25:48Z</time>
      </trkpt>
      <trkpt lat="43.458244" lon="-5.5976653">
        <ele>543.0</ele>
        <time>2021-02-14T13:25:49Z</time>
      </trkpt>
      <trkpt lat="43.45825" lon="-5.597653">
        <ele>543.0</ele>
        <time>2021-02-14T13:25:50Z</time>
      </trkpt>
      <trkpt lat="43.458252" lon="-5.5976405">
        <ele>543.0</ele>
        <time>2021-02-14T13:25:51Z</time>
      </trkpt>
      <trkpt lat="43.458252" lon="-5.5976267">
        <ele>543.0</ele>
        <time>2021-02-14T13:25:52Z</time>
      </trkpt>
      <trkpt lat="43.458252" lon="-5.5976133">
        <ele>543.0</ele>
        <time>2021-02-14T13:25:53Z</time>
      </trkpt>
      <trkpt lat="43.458252" lon="-5.5976">
        <ele>543.0</ele>
        <time>2021-02-14T13:25:54Z</time>
      </trkpt>
      <trkpt lat="43.458252" lon="-5.597585">
        <ele>543.0</ele>
        <time>2021-02-14T13:25:55Z</time>
      </trkpt>
      <trkpt lat="43.45826" lon="-5.59757">
        <ele>543.0</ele>
        <time>2021-02-14T13:25:56Z</time>
      </trkpt>
      <trkpt lat="43.458263" lon="-5.5975533">
        <ele>542.0</ele>
        <time>2021-02-14T13:25:57Z</time>
      </trkpt>
      <trkpt lat="43.458275" lon="-5.5975385">
        <ele>542.0</ele>
        <time>2021-02-14T13:25:58Z</time>
      </trkpt>
      <trkpt lat="43.45828" lon="-5.5975266">
        <ele>542.0</ele>
        <time>2021-02-14T13:25:59Z</time>
      </trkpt>
      <trkpt lat="43.45829" lon="-5.5975156">
        <ele>542.0</ele>
        <time>2021-02-14T13:26:00Z</time>
      </trkpt>
      <trkpt lat="43.458298" lon="-5.597505">
        <ele>542.0</ele>
        <time>2021-02-14T13:26:01Z</time>
      </trkpt>
      <trkpt lat="43.45831" lon="-5.5974956">
        <ele>542.0</ele>
        <time>2021-02-14T13:26:02Z</time>
      </trkpt>
      <trkpt lat="43.45832" lon="-5.5974836">
        <ele>541.0</ele>
        <time>2021-02-14T13:26:03Z</time>
      </trkpt>
      <trkpt lat="43.45833" lon="-5.5974703">
        <ele>541.0</ele>
        <time>2021-02-14T13:26:04Z</time>
      </trkpt>
      <trkpt lat="43.45834" lon="-5.5974555">
        <ele>541.0</ele>
        <time>2021-02-14T13:26:05Z</time>
      </trkpt>
      <trkpt lat="43.45835" lon="-5.59744">
        <ele>541.0</ele>
        <time>2021-02-14T13:26:06Z</time>
      </trkpt>
      <trkpt lat="43.458355" lon="-5.5974245">
        <ele>540.0</ele>
        <time>2021-02-14T13:26:07Z</time>
      </trkpt>
      <trkpt lat="43.458366" lon="-5.5974107">
        <ele>540.0</ele>
        <time>2021-02-14T13:26:08Z</time>
      </trkpt>
      <trkpt lat="43.45837" lon="-5.597396">
        <ele>540.0</ele>
        <time>2021-02-14T13:26:09Z</time>
      </trkpt>
      <trkpt lat="43.45838" lon="-5.597381">
        <ele>540.0</ele>
        <time>2021-02-14T13:26:10Z</time>
      </trkpt>
      <trkpt lat="43.458385" lon="-5.5973682">
        <ele>540.0</ele>
        <time>2021-02-14T13:26:11Z</time>
      </trkpt>
      <trkpt lat="43.458397" lon="-5.5973573">
        <ele>540.0</ele>
        <time>2021-02-14T13:26:12Z</time>
      </trkpt>
      <trkpt lat="43.4584" lon="-5.5973454">
        <ele>539.0</ele>
        <time>2021-02-14T13:26:13Z</time>
      </trkpt>
      <trkpt lat="43.458405" lon="-5.597332">
        <ele>539.0</ele>
        <time>2021-02-14T13:26:14Z</time>
      </trkpt>
      <trkpt lat="43.458405" lon="-5.597321">
        <ele>539.0</ele>
        <time>2021-02-14T13:26:15Z</time>
      </trkpt>
      <trkpt lat="43.458412" lon="-5.5973105">
        <ele>539.0</ele>
        <time>2021-02-14T13:26:16Z</time>
      </trkpt>
      <trkpt lat="43.458416" lon="-5.5973">
        <ele>538.0</ele>
        <time>2021-02-14T13:26:17Z</time>
      </trkpt>
      <trkpt lat="43.458416" lon="-5.59729">
        <ele>538.0</ele>
        <time>2021-02-14T13:26:18Z</time>
      </trkpt>
      <trkpt lat="43.458416" lon="-5.5972786">
        <ele>538.0</ele>
        <time>2021-02-14T13:26:19Z</time>
      </trkpt>
      <trkpt lat="43.458412" lon="-5.597267">
        <ele>538.0</ele>
        <time>2021-02-14T13:26:20Z</time>
      </trkpt>
      <trkpt lat="43.458412" lon="-5.597255">
        <ele>537.0</ele>
        <time>2021-02-14T13:26:21Z</time>
      </trkpt>
      <trkpt lat="43.458405" lon="-5.597243">
        <ele>537.0</ele>
        <time>2021-02-14T13:26:22Z</time>
      </trkpt>
      <trkpt lat="43.4584" lon="-5.597228">
        <ele>537.0</ele>
        <time>2021-02-14T13:26:23Z</time>
      </trkpt>
      <trkpt lat="43.4584" lon="-5.597213">
        <ele>537.0</ele>
        <time>2021-02-14T13:26:24Z</time>
      </trkpt>
      <trkpt lat="43.458397" lon="-5.597198">
        <ele>537.0</ele>
        <time>2021-02-14T13:26:25Z</time>
      </trkpt>
      <trkpt lat="43.458397" lon="-5.597184">
        <ele>537.0</ele>
        <time>2021-02-14T13:26:26Z</time>
      </trkpt>
      <trkpt lat="43.45839" lon="-5.5971694">
        <ele>537.0</ele>
        <time>2021-02-14T13:26:27Z</time>
      </trkpt>
      <trkpt lat="43.458385" lon="-5.597156">
        <ele>537.0</ele>
        <time>2021-02-14T13:26:28Z</time>
      </trkpt>
      <trkpt lat="43.45838" lon="-5.5971437">
        <ele>537.0</ele>
        <time>2021-02-14T13:26:29Z</time>
      </trkpt>
      <trkpt lat="43.458374" lon="-5.597132">
        <ele>537.0</ele>
        <time>2021-02-14T13:26:30Z</time>
      </trkpt>
      <trkpt lat="43.458366" lon="-5.5971212">
        <ele>537.0</ele>
        <time>2021-02-14T13:26:31Z</time>
      </trkpt>
      <trkpt lat="43.458355" lon="-5.5971103">
        <ele>537.0</ele>
        <time>2021-02-14T13:26:32Z</time>
      </trkpt>
      <trkpt lat="43.45835" lon="-5.5971007">
        <ele>537.0</ele>
        <time>2021-02-14T13:26:33Z</time>
      </trkpt>
      <trkpt lat="43.45835" lon="-5.59709">
        <ele>537.0</ele>
        <time>2021-02-14T13:26:34Z</time>
      </trkpt>
      <trkpt lat="43.458344" lon="-5.59708">
        <ele>537.0</ele>
        <time>2021-02-14T13:26:35Z</time>
      </trkpt>
      <trkpt lat="43.45834" lon="-5.5970707">
        <ele>537.0</ele>
        <time>2021-02-14T13:26:36Z</time>
      </trkpt>
      <trkpt lat="43.458336" lon="-5.5970616">
        <ele>536.0</ele>
        <time>2021-02-14T13:26:37Z</time>
      </trkpt>
      <trkpt lat="43.45833" lon="-5.597052">
        <ele>536.0</ele>
        <time>2021-02-14T13:26:38Z</time>
      </trkpt>
      <trkpt lat="43.458324" lon="-5.597042">
        <ele>536.0</ele>
        <time>2021-02-14T13:26:39Z</time>
      </trkpt>
      <trkpt lat="43.458313" lon="-5.5970297">
        <ele>536.0</ele>
        <time>2021-02-14T13:26:40Z</time>
      </trkpt>
      <trkpt lat="43.45831" lon="-5.597018">
        <ele>536.0</ele>
        <time>2021-02-14T13:26:41Z</time>
      </trkpt>
      <trkpt lat="43.458305" lon="-5.597006">
        <ele>536.0</ele>
        <time>2021-02-14T13:26:42Z</time>
      </trkpt>
      <trkpt lat="43.458298" lon="-5.5969934">
        <ele>535.0</ele>
        <time>2021-02-14T13:26:43Z</time>
      </trkpt>
      <trkpt lat="43.458298" lon="-5.596983">
        <ele>535.0</ele>
        <time>2021-02-14T13:26:44Z</time>
      </trkpt>
      <trkpt lat="43.458294" lon="-5.5969734">
        <ele>535.0</ele>
        <time>2021-02-14T13:26:45Z</time>
      </trkpt>
      <trkpt lat="43.458294" lon="-5.596964">
        <ele>535.0</ele>
        <time>2021-02-14T13:26:46Z</time>
      </trkpt>
      <trkpt lat="43.45829" lon="-5.596955">
        <ele>535.0</ele>
        <time>2021-02-14T13:26:47Z</time>
      </trkpt>
      <trkpt lat="43.45829" lon="-5.596945">
        <ele>535.0</ele>
        <time>2021-02-14T13:26:48Z</time>
      </trkpt>
      <trkpt lat="43.45829" lon="-5.596932">
        <ele>535.0</ele>
        <time>2021-02-14T13:26:49Z</time>
      </trkpt>
      <trkpt lat="43.45829" lon="-5.596921">
        <ele>534.0</ele>
        <time>2021-02-14T13:26:50Z</time>
      </trkpt>
      <trkpt lat="43.45829" lon="-5.596912">
        <ele>534.0</ele>
        <time>2021-02-14T13:26:51Z</time>
      </trkpt>
      <trkpt lat="43.45829" lon="-5.5969043">
        <ele>534.0</ele>
        <time>2021-02-14T13:26:52Z</time>
      </trkpt>
      <trkpt lat="43.45829" lon="-5.596898">
        <ele>534.0</ele>
        <time>2021-02-14T13:26:53Z</time>
      </trkpt>
      <trkpt lat="43.45829" lon="-5.5968924">
        <ele>534.0</ele>
        <time>2021-02-14T13:26:54Z</time>
      </trkpt>
      <trkpt lat="43.45829" lon="-5.5968876">
        <ele>534.0</ele>
        <time>2021-02-14T13:26:55Z</time>
      </trkpt>
      <trkpt lat="43.458298" lon="-5.5968924">
        <ele>534.0</ele>
        <time>2021-02-14T13:26:58Z</time>
      </trkpt>
      <trkpt lat="43.458298" lon="-5.596893">
        <ele>534.0</ele>
        <time>2021-02-14T13:26:59Z</time>
      </trkpt>
      <trkpt lat="43.458298" lon="-5.5968914">
        <ele>534.0</ele>
        <time>2021-02-14T13:27:00Z</time>
      </trkpt>
      <trkpt lat="43.458294" lon="-5.596887">
        <ele>534.0</ele>
        <time>2021-02-14T13:27:02Z</time>
      </trkpt>
      <trkpt lat="43.45829" lon="-5.596887">
        <ele>534.0</ele>
        <time>2021-02-14T13:27:05Z</time>
      </trkpt>
      <trkpt lat="43.458294" lon="-5.5968857">
        <ele>533.0</ele>
        <time>2021-02-14T13:27:07Z</time>
      </trkpt>
      <trkpt lat="43.458298" lon="-5.5968857">
        <ele>533.0</ele>
        <time>2021-02-14T13:27:08Z</time>
      </trkpt>
      <trkpt lat="43.458298" lon="-5.5968843">
        <ele>533.0</ele>
        <time>2021-02-14T13:27:09Z</time>
      </trkpt>
      <trkpt lat="43.458298" lon="-5.596882">
        <ele>533.0</ele>
        <time>2021-02-14T13:27:10Z</time>
      </trkpt>
      <trkpt lat="43.458298" lon="-5.596878">
        <ele>533.0</ele>
        <time>2021-02-14T13:27:11Z</time>
      </trkpt>
      <trkpt lat="43.458294" lon="-5.596872">
        <ele>533.0</ele>
        <time>2021-02-14T13:27:12Z</time>
      </trkpt>
      <trkpt lat="43.458294" lon="-5.5968623">
        <ele>533.0</ele>
        <time>2021-02-14T13:27:13Z</time>
      </trkpt>
      <trkpt lat="43.458294" lon="-5.5968513">
        <ele>533.0</ele>
        <time>2021-02-14T13:27:14Z</time>
      </trkpt>
      <trkpt lat="43.458294" lon="-5.5968404">
        <ele>533.0</ele>
        <time>2021-02-14T13:27:15Z</time>
      </trkpt>
      <trkpt lat="43.458294" lon="-5.5968313">
        <ele>533.0</ele>
        <time>2021-02-14T13:27:16Z</time>
      </trkpt>
      <trkpt lat="43.458294" lon="-5.596823">
        <ele>533.0</ele>
        <time>2021-02-14T13:27:17Z</time>
      </trkpt>
      <trkpt lat="43.45829" lon="-5.596813">
        <ele>533.0</ele>
        <time>2021-02-14T13:27:18Z</time>
      </trkpt>
      <trkpt lat="43.45829" lon="-5.5968027">
        <ele>533.0</ele>
        <time>2021-02-14T13:27:19Z</time>
      </trkpt>
      <trkpt lat="43.45828" lon="-5.596793">
        <ele>533.0</ele>
        <time>2021-02-14T13:27:20Z</time>
      </trkpt>
      <trkpt lat="43.458275" lon="-5.5967827">
        <ele>533.0</ele>
        <time>2021-02-14T13:27:21Z</time>
      </trkpt>
      <trkpt lat="43.458267" lon="-5.5967712">
        <ele>532.0</ele>
        <time>2021-02-14T13:27:22Z</time>
      </trkpt>
      <trkpt lat="43.458267" lon="-5.59676">
        <ele>532.0</ele>
        <time>2021-02-14T13:27:23Z</time>
      </trkpt>
      <trkpt lat="43.458267" lon="-5.5967474">
        <ele>532.0</ele>
        <time>2021-02-14T13:27:24Z</time>
      </trkpt>
      <trkpt lat="43.458263" lon="-5.5967355">
        <ele>532.0</ele>
        <time>2021-02-14T13:27:25Z</time>
      </trkpt>
      <trkpt lat="43.45826" lon="-5.5967207">
        <ele>532.0</ele>
        <time>2021-02-14T13:27:26Z</time>
      </trkpt>
      <trkpt lat="43.458252" lon="-5.5967054">
        <ele>532.0</ele>
        <time>2021-02-14T13:27:27Z</time>
      </trkpt>
      <trkpt lat="43.458244" lon="-5.5966907">
        <ele>531.0</ele>
        <time>2021-02-14T13:27:28Z</time>
      </trkpt>
      <trkpt lat="43.458237" lon="-5.596676">
        <ele>531.0</ele>
        <time>2021-02-14T13:27:29Z</time>
      </trkpt>
      <trkpt lat="43.458233" lon="-5.5966597">
        <ele>531.0</ele>
        <time>2021-02-14T13:27:30Z</time>
      </trkpt>
      <trkpt lat="43.45822" lon="-5.5966444">
        <ele>531.0</ele>
        <time>2021-02-14T13:27:31Z</time>
      </trkpt>
      <trkpt lat="43.45822" lon="-5.5966306">
        <ele>531.0</ele>
        <time>2021-02-14T13:27:32Z</time>
      </trkpt>
      <trkpt lat="43.45822" lon="-5.5966177">
        <ele>531.0</ele>
        <time>2021-02-14T13:27:33Z</time>
      </trkpt>
      <trkpt lat="43.45822" lon="-5.596607">
        <ele>531.0</ele>
        <time>2021-02-14T13:27:34Z</time>
      </trkpt>
      <trkpt lat="43.45822" lon="-5.5965996">
        <ele>530.0</ele>
        <time>2021-02-14T13:27:35Z</time>
      </trkpt>
      <trkpt lat="43.458218" lon="-5.596592">
        <ele>530.0</ele>
        <time>2021-02-14T13:27:36Z</time>
      </trkpt>
      <trkpt lat="43.458218" lon="-5.596585">
        <ele>530.0</ele>
        <time>2021-02-14T13:27:37Z</time>
      </trkpt>
      <trkpt lat="43.458206" lon="-5.596572">
        <ele>530.0</ele>
        <time>2021-02-14T13:27:39Z</time>
      </trkpt>
      <trkpt lat="43.458202" lon="-5.596571">
        <ele>530.0</ele>
        <time>2021-02-14T13:27:40Z</time>
      </trkpt>
      <trkpt lat="43.458195" lon="-5.5965695">
        <ele>530.0</ele>
        <time>2021-02-14T13:27:41Z</time>
      </trkpt>
      <trkpt lat="43.45819" lon="-5.5965676">
        <ele>530.0</ele>
        <time>2021-02-14T13:27:42Z</time>
      </trkpt>
      <trkpt lat="43.458187" lon="-5.596567">
        <ele>530.0</ele>
        <time>2021-02-14T13:27:43Z</time>
      </trkpt>
      <trkpt lat="43.45818" lon="-5.596566">
        <ele>530.0</ele>
        <time>2021-02-14T13:27:44Z</time>
      </trkpt>
      <trkpt lat="43.458157" lon="-5.5965543">
        <ele>530.0</ele>
        <time>2021-02-14T13:27:46Z</time>
      </trkpt>
      <trkpt lat="43.458157" lon="-5.596554">
        <ele>530.0</ele>
        <time>2021-02-14T13:27:47Z</time>
      </trkpt>
      <trkpt lat="43.45815" lon="-5.596553">
        <ele>530.0</ele>
        <time>2021-02-14T13:27:48Z</time>
      </trkpt>
      <trkpt lat="43.458145" lon="-5.59655">
        <ele>530.0</ele>
        <time>2021-02-14T13:27:49Z</time>
      </trkpt>
      <trkpt lat="43.45814" lon="-5.5965447">
        <ele>530.0</ele>
        <time>2021-02-14T13:27:50Z</time>
      </trkpt>
      <trkpt lat="43.45813" lon="-5.596539">
        <ele>530.0</ele>
        <time>2021-02-14T13:27:51Z</time>
      </trkpt>
      <trkpt lat="43.458126" lon="-5.5965343">
        <ele>530.0</ele>
        <time>2021-02-14T13:27:52Z</time>
      </trkpt>
      <trkpt lat="43.45812" lon="-5.59653">
        <ele>529.0</ele>
        <time>2021-02-14T13:27:53Z</time>
      </trkpt>
      <trkpt lat="43.45811" lon="-5.596526">
        <ele>529.0</ele>
        <time>2021-02-14T13:27:54Z</time>
      </trkpt>
      <trkpt lat="43.458103" lon="-5.5965247">
        <ele>529.0</ele>
        <time>2021-02-14T13:27:55Z</time>
      </trkpt>
      <trkpt lat="43.458096" lon="-5.5965257">
        <ele>529.0</ele>
        <time>2021-02-14T13:27:56Z</time>
      </trkpt>
      <trkpt lat="43.458088" lon="-5.5965266">
        <ele>529.0</ele>
        <time>2021-02-14T13:27:57Z</time>
      </trkpt>
      <trkpt lat="43.45808" lon="-5.596528">
        <ele>529.0</ele>
        <time>2021-02-14T13:27:58Z</time>
      </trkpt>
      <trkpt lat="43.45807" lon="-5.5965295">
        <ele>529.0</ele>
        <time>2021-02-14T13:27:59Z</time>
      </trkpt>
      <trkpt lat="43.458057" lon="-5.5965333">
        <ele>529.0</ele>
        <time>2021-02-14T13:28:00Z</time>
      </trkpt>
      <trkpt lat="43.458042" lon="-5.596539">
        <ele>529.0</ele>
        <time>2021-02-14T13:28:01Z</time>
      </trkpt>
      <trkpt lat="43.458027" lon="-5.596544">
        <ele>529.0</ele>
        <time>2021-02-14T13:28:02Z</time>
      </trkpt>
      <trkpt lat="43.458015" lon="-5.5965466">
        <ele>529.0</ele>
        <time>2021-02-14T13:28:03Z</time>
      </trkpt>
      <trkpt lat="43.458" lon="-5.596547">
        <ele>529.0</ele>
        <time>2021-02-14T13:28:05Z</time>
      </trkpt>
      <trkpt lat="43.457996" lon="-5.5965466">
        <ele>528.0</ele>
        <time>2021-02-14T13:28:06Z</time>
      </trkpt>
      <trkpt lat="43.457993" lon="-5.5965457">
        <ele>528.0</ele>
        <time>2021-02-14T13:28:07Z</time>
      </trkpt>
      <trkpt lat="43.45798" lon="-5.596544">
        <ele>528.0</ele>
        <time>2021-02-14T13:28:08Z</time>
      </trkpt>
      <trkpt lat="43.45797" lon="-5.596542">
        <ele>528.0</ele>
        <time>2021-02-14T13:28:09Z</time>
      </trkpt>
      <trkpt lat="43.457954" lon="-5.5965395">
        <ele>528.0</ele>
        <time>2021-02-14T13:28:10Z</time>
      </trkpt>
      <trkpt lat="43.45794" lon="-5.596539">
        <ele>528.0</ele>
        <time>2021-02-14T13:28:11Z</time>
      </trkpt>
      <trkpt lat="43.457924" lon="-5.5965395">
        <ele>528.0</ele>
        <time>2021-02-14T13:28:12Z</time>
      </trkpt>
      <trkpt lat="43.457905" lon="-5.5965395">
        <ele>528.0</ele>
        <time>2021-02-14T13:28:13Z</time>
      </trkpt>
      <trkpt lat="43.457886" lon="-5.59654">
        <ele>528.0</ele>
        <time>2021-02-14T13:28:14Z</time>
      </trkpt>
      <trkpt lat="43.457863" lon="-5.596541">
        <ele>528.0</ele>
        <time>2021-02-14T13:28:15Z</time>
      </trkpt>
      <trkpt lat="43.457848" lon="-5.5965414">
        <ele>528.0</ele>
        <time>2021-02-14T13:28:16Z</time>
      </trkpt>
      <trkpt lat="43.45783" lon="-5.596542">
        <ele>528.0</ele>
        <time>2021-02-14T13:28:17Z</time>
      </trkpt>
      <trkpt lat="43.457813" lon="-5.596542">
        <ele>528.0</ele>
        <time>2021-02-14T13:28:18Z</time>
      </trkpt>
      <trkpt lat="43.45779" lon="-5.596539">
        <ele>528.0</ele>
        <time>2021-02-14T13:28:19Z</time>
      </trkpt>
      <trkpt lat="43.45777" lon="-5.596535">
        <ele>528.0</ele>
        <time>2021-02-14T13:28:20Z</time>
      </trkpt>
      <trkpt lat="43.457752" lon="-5.59653">
        <ele>528.0</ele>
        <time>2021-02-14T13:28:21Z</time>
      </trkpt>
      <trkpt lat="43.45773" lon="-5.596526">
        <ele>528.0</ele>
        <time>2021-02-14T13:28:22Z</time>
      </trkpt>
      <trkpt lat="43.457714" lon="-5.5965242">
        <ele>528.0</ele>
        <time>2021-02-14T13:28:23Z</time>
      </trkpt>
      <trkpt lat="43.4577" lon="-5.5965242">
        <ele>528.0</ele>
        <time>2021-02-14T13:28:24Z</time>
      </trkpt>
      <trkpt lat="43.457684" lon="-5.5965223">
        <ele>528.0</ele>
        <time>2021-02-14T13:28:25Z</time>
      </trkpt>
      <trkpt lat="43.457676" lon="-5.5965195">
        <ele>528.0</ele>
        <time>2021-02-14T13:28:26Z</time>
      </trkpt>
      <trkpt lat="43.45767" lon="-5.5965137">
        <ele>528.0</ele>
        <time>2021-02-14T13:28:27Z</time>
      </trkpt>
      <trkpt lat="43.45766" lon="-5.596506">
        <ele>528.0</ele>
        <time>2021-02-14T13:28:28Z</time>
      </trkpt>
      <trkpt lat="43.45765" lon="-5.5964985">
        <ele>528.0</ele>
        <time>2021-02-14T13:28:29Z</time>
      </trkpt>
      <trkpt lat="43.457638" lon="-5.596491">
        <ele>528.0</ele>
        <time>2021-02-14T13:28:30Z</time>
      </trkpt>
      <trkpt lat="43.457634" lon="-5.596483">
        <ele>528.0</ele>
        <time>2021-02-14T13:28:31Z</time>
      </trkpt>
      <trkpt lat="43.457623" lon="-5.5964756">
        <ele>528.0</ele>
        <time>2021-02-14T13:28:32Z</time>
      </trkpt>
      <trkpt lat="43.457623" lon="-5.5964684">
        <ele>528.0</ele>
        <time>2021-02-14T13:28:33Z</time>
      </trkpt>
      <trkpt lat="43.45762" lon="-5.596461">
        <ele>528.0</ele>
        <time>2021-02-14T13:28:34Z</time>
      </trkpt>
      <trkpt lat="43.45762" lon="-5.5964537">
        <ele>528.0</ele>
        <time>2021-02-14T13:28:35Z</time>
      </trkpt>
      <trkpt lat="43.45762" lon="-5.5964456">
        <ele>528.0</ele>
        <time>2021-02-14T13:28:36Z</time>
      </trkpt>
      <trkpt lat="43.45762" lon="-5.596435">
        <ele>528.0</ele>
        <time>2021-02-14T13:28:37Z</time>
      </trkpt>
      <trkpt lat="43.45762" lon="-5.596424">
        <ele>528.0</ele>
        <time>2021-02-14T13:28:38Z</time>
      </trkpt>
      <trkpt lat="43.45761" lon="-5.596414">
        <ele>528.0</ele>
        <time>2021-02-14T13:28:39Z</time>
      </trkpt>
      <trkpt lat="43.45761" lon="-5.596404">
        <ele>528.0</ele>
        <time>2021-02-14T13:28:40Z</time>
      </trkpt>
      <trkpt lat="43.457607" lon="-5.596392">
        <ele>528.0</ele>
        <time>2021-02-14T13:28:41Z</time>
      </trkpt>
      <trkpt lat="43.457607" lon="-5.59638">
        <ele>528.0</ele>
        <time>2021-02-14T13:28:42Z</time>
      </trkpt>
      <trkpt lat="43.457603" lon="-5.5963674">
        <ele>528.0</ele>
        <time>2021-02-14T13:28:43Z</time>
      </trkpt>
      <trkpt lat="43.457596" lon="-5.5963545">
        <ele>528.0</ele>
        <time>2021-02-14T13:28:44Z</time>
      </trkpt>
      <trkpt lat="43.457596" lon="-5.5963426">
        <ele>528.0</ele>
        <time>2021-02-14T13:28:45Z</time>
      </trkpt>
      <trkpt lat="43.45759" lon="-5.5963297">
        <ele>528.0</ele>
        <time>2021-02-14T13:28:46Z</time>
      </trkpt>
      <trkpt lat="43.45758" lon="-5.5963187">
        <ele>528.0</ele>
        <time>2021-02-14T13:28:47Z</time>
      </trkpt>
      <trkpt lat="43.457573" lon="-5.5963078">
        <ele>528.0</ele>
        <time>2021-02-14T13:28:48Z</time>
      </trkpt>
      <trkpt lat="43.457558" lon="-5.596297">
        <ele>528.0</ele>
        <time>2021-02-14T13:28:49Z</time>
      </trkpt>
      <trkpt lat="43.457542" lon="-5.5962863">
        <ele>528.0</ele>
        <time>2021-02-14T13:28:50Z</time>
      </trkpt>
      <trkpt lat="43.457527" lon="-5.5962744">
        <ele>527.0</ele>
        <time>2021-02-14T13:28:51Z</time>
      </trkpt>
      <trkpt lat="43.45751" lon="-5.596261">
        <ele>527.0</ele>
        <time>2021-02-14T13:28:52Z</time>
      </trkpt>
      <trkpt lat="43.4575" lon="-5.5962462">
        <ele>527.0</ele>
        <time>2021-02-14T13:28:53Z</time>
      </trkpt>
      <trkpt lat="43.457497" lon="-5.596231">
        <ele>527.0</ele>
        <time>2021-02-14T13:28:54Z</time>
      </trkpt>
      <trkpt lat="43.457485" lon="-5.596219">
        <ele>527.0</ele>
        <time>2021-02-14T13:28:55Z</time>
      </trkpt>
      <trkpt lat="43.457474" lon="-5.596206">
        <ele>527.0</ele>
        <time>2021-02-14T13:28:56Z</time>
      </trkpt>
      <trkpt lat="43.457466" lon="-5.5961947">
        <ele>527.0</ele>
        <time>2021-02-14T13:28:57Z</time>
      </trkpt>
      <trkpt lat="43.45745" lon="-5.596184">
        <ele>527.0</ele>
        <time>2021-02-14T13:28:58Z</time>
      </trkpt>
      <trkpt lat="43.45744" lon="-5.5961723">
        <ele>527.0</ele>
        <time>2021-02-14T13:28:59Z</time>
      </trkpt>
      <trkpt lat="43.457428" lon="-5.596162">
        <ele>527.0</ele>
        <time>2021-02-14T13:29:00Z</time>
      </trkpt>
      <trkpt lat="43.457417" lon="-5.596153">
        <ele>527.0</ele>
        <time>2021-02-14T13:29:01Z</time>
      </trkpt>
      <trkpt lat="43.4574" lon="-5.5961447">
        <ele>527.0</ele>
        <time>2021-02-14T13:29:02Z</time>
      </trkpt>
      <trkpt lat="43.457397" lon="-5.596136">
        <ele>527.0</ele>
        <time>2021-02-14T13:29:03Z</time>
      </trkpt>
      <trkpt lat="43.457386" lon="-5.596128">
        <ele>527.0</ele>
        <time>2021-02-14T13:29:04Z</time>
      </trkpt>
      <trkpt lat="43.45738" lon="-5.59612">
        <ele>527.0</ele>
        <time>2021-02-14T13:29:05Z</time>
      </trkpt>
      <trkpt lat="43.45737" lon="-5.596113">
        <ele>527.0</ele>
        <time>2021-02-14T13:29:06Z</time>
      </trkpt>
      <trkpt lat="43.457363" lon="-5.5961075">
        <ele>527.0</ele>
        <time>2021-02-14T13:29:07Z</time>
      </trkpt>
      <trkpt lat="43.457348" lon="-5.5961018">
        <ele>527.0</ele>
        <time>2021-02-14T13:29:08Z</time>
      </trkpt>
      <trkpt lat="43.457333" lon="-5.596096">
        <ele>527.0</ele>
        <time>2021-02-14T13:29:09Z</time>
      </trkpt>
      <trkpt lat="43.45732" lon="-5.596092">
        <ele>527.0</ele>
        <time>2021-02-14T13:29:10Z</time>
      </trkpt>
      <trkpt lat="43.45731" lon="-5.596085">
        <ele>527.0</ele>
        <time>2021-02-14T13:29:11Z</time>
      </trkpt>
      <trkpt lat="43.457302" lon="-5.5960755">
        <ele>527.0</ele>
        <time>2021-02-14T13:29:12Z</time>
      </trkpt>
      <trkpt lat="43.457302" lon="-5.596064">
        <ele>527.0</ele>
        <time>2021-02-14T13:29:13Z</time>
      </trkpt>
      <trkpt lat="43.45729" lon="-5.596051">
        <ele>527.0</ele>
        <time>2021-02-14T13:29:14Z</time>
      </trkpt>
      <trkpt lat="43.457287" lon="-5.596039">
        <ele>527.0</ele>
        <time>2021-02-14T13:29:15Z</time>
      </trkpt>
      <trkpt lat="43.45727" lon="-5.5960264">
        <ele>527.0</ele>
        <time>2021-02-14T13:29:16Z</time>
      </trkpt>
      <trkpt lat="43.457253" lon="-5.596012">
        <ele>527.0</ele>
        <time>2021-02-14T13:29:17Z</time>
      </trkpt>
      <trkpt lat="43.457245" lon="-5.5959983">
        <ele>527.0</ele>
        <time>2021-02-14T13:29:18Z</time>
      </trkpt>
      <trkpt lat="43.457233" lon="-5.5959826">
        <ele>527.0</ele>
        <time>2021-02-14T13:29:19Z</time>
      </trkpt>
      <trkpt lat="43.457222" lon="-5.5959687">
        <ele>527.0</ele>
        <time>2021-02-14T13:29:20Z</time>
      </trkpt>
      <trkpt lat="43.457214" lon="-5.5959573">
        <ele>527.0</ele>
        <time>2021-02-14T13:29:21Z</time>
      </trkpt>
      <trkpt lat="43.457203" lon="-5.595946">
        <ele>526.0</ele>
        <time>2021-02-14T13:29:22Z</time>
      </trkpt>
      <trkpt lat="43.4572" lon="-5.5959315">
        <ele>526.0</ele>
        <time>2021-02-14T13:29:23Z</time>
      </trkpt>
      <trkpt lat="43.457188" lon="-5.595917">
        <ele>526.0</ele>
        <time>2021-02-14T13:29:24Z</time>
      </trkpt>
      <trkpt lat="43.457184" lon="-5.595906">
        <ele>526.0</ele>
        <time>2021-02-14T13:29:25Z</time>
      </trkpt>
      <trkpt lat="43.457172" lon="-5.595896">
        <ele>526.0</ele>
        <time>2021-02-14T13:29:26Z</time>
      </trkpt>
      <trkpt lat="43.45716" lon="-5.5958853">
        <ele>526.0</ele>
        <time>2021-02-14T13:29:27Z</time>
      </trkpt>
      <trkpt lat="43.457157" lon="-5.5958753">
        <ele>525.0</ele>
        <time>2021-02-14T13:29:28Z</time>
      </trkpt>
      <trkpt lat="43.457146" lon="-5.595861">
        <ele>525.0</ele>
        <time>2021-02-14T13:29:29Z</time>
      </trkpt>
      <trkpt lat="43.45714" lon="-5.595844">
        <ele>525.0</ele>
        <time>2021-02-14T13:29:30Z</time>
      </trkpt>
      <trkpt lat="43.457138" lon="-5.595825">
        <ele>525.0</ele>
        <time>2021-02-14T13:29:31Z</time>
      </trkpt>
      <trkpt lat="43.457127" lon="-5.5958076">
        <ele>525.0</ele>
        <time>2021-02-14T13:29:32Z</time>
      </trkpt>
      <trkpt lat="43.457115" lon="-5.5957913">
        <ele>525.0</ele>
        <time>2021-02-14T13:29:33Z</time>
      </trkpt>
      <trkpt lat="43.4571" lon="-5.59578">
        <ele>524.0</ele>
        <time>2021-02-14T13:29:34Z</time>
      </trkpt>
      <trkpt lat="43.457092" lon="-5.5957727">
        <ele>524.0</ele>
        <time>2021-02-14T13:29:35Z</time>
      </trkpt>
      <trkpt lat="43.457077" lon="-5.5957675">
        <ele>524.0</ele>
        <time>2021-02-14T13:29:36Z</time>
      </trkpt>
      <trkpt lat="43.457066" lon="-5.595759">
        <ele>524.0</ele>
        <time>2021-02-14T13:29:37Z</time>
      </trkpt>
      <trkpt lat="43.457054" lon="-5.59575">
        <ele>524.0</ele>
        <time>2021-02-14T13:29:38Z</time>
      </trkpt>
      <trkpt lat="43.45705" lon="-5.595739">
        <ele>524.0</ele>
        <time>2021-02-14T13:29:39Z</time>
      </trkpt>
      <trkpt lat="43.457043" lon="-5.595728">
        <ele>523.0</ele>
        <time>2021-02-14T13:29:40Z</time>
      </trkpt>
      <trkpt lat="43.45704" lon="-5.595716">
        <ele>523.0</ele>
        <time>2021-02-14T13:29:41Z</time>
      </trkpt>
      <trkpt lat="43.457035" lon="-5.595705">
        <ele>523.0</ele>
        <time>2021-02-14T13:29:42Z</time>
      </trkpt>
      <trkpt lat="43.457024" lon="-5.5956926">
        <ele>523.0</ele>
        <time>2021-02-14T13:29:43Z</time>
      </trkpt>
      <trkpt lat="43.45702" lon="-5.595681">
        <ele>523.0</ele>
        <time>2021-02-14T13:29:44Z</time>
      </trkpt>
      <trkpt lat="43.457012" lon="-5.595671">
        <ele>522.0</ele>
        <time>2021-02-14T13:29:45Z</time>
      </trkpt>
      <trkpt lat="43.45701" lon="-5.595662">
        <ele>522.0</ele>
        <time>2021-02-14T13:29:46Z</time>
      </trkpt>
      <trkpt lat="43.457005" lon="-5.5956526">
        <ele>522.0</ele>
        <time>2021-02-14T13:29:47Z</time>
      </trkpt>
      <trkpt lat="43.456997" lon="-5.5956397">
        <ele>522.0</ele>
        <time>2021-02-14T13:29:48Z</time>
      </trkpt>
      <trkpt lat="43.456993" lon="-5.595627">
        <ele>522.0</ele>
        <time>2021-02-14T13:29:49Z</time>
      </trkpt>
      <trkpt lat="43.45698" lon="-5.595617">
        <ele>522.0</ele>
        <time>2021-02-14T13:29:50Z</time>
      </trkpt>
      <trkpt lat="43.456974" lon="-5.595607">
        <ele>521.0</ele>
        <time>2021-02-14T13:29:51Z</time>
      </trkpt>
      <trkpt lat="43.456963" lon="-5.595599">
        <ele>521.0</ele>
        <time>2021-02-14T13:29:52Z</time>
      </trkpt>
      <trkpt lat="43.45696" lon="-5.5955896">
        <ele>521.0</ele>
        <time>2021-02-14T13:29:53Z</time>
      </trkpt>
      <trkpt lat="43.456947" lon="-5.595578">
        <ele>521.0</ele>
        <time>2021-02-14T13:29:54Z</time>
      </trkpt>
      <trkpt lat="43.456932" lon="-5.595567">
        <ele>521.0</ele>
        <time>2021-02-14T13:29:54Z</time>
      </trkpt>
      <trkpt lat="43.45693" lon="-5.5955563">
        <ele>521.0</ele>
        <time>2021-02-14T13:29:55Z</time>
      </trkpt>
      <trkpt lat="43.456917" lon="-5.5955443">
        <ele>521.0</ele>
        <time>2021-02-14T13:29:56Z</time>
      </trkpt>
      <trkpt lat="43.456913" lon="-5.595531">
        <ele>521.0</ele>
        <time>2021-02-14T13:29:57Z</time>
      </trkpt>
      <trkpt lat="43.4569" lon="-5.595516">
        <ele>521.0</ele>
        <time>2021-02-14T13:29:58Z</time>
      </trkpt>
      <trkpt lat="43.456898" lon="-5.595502">
        <ele>520.0</ele>
        <time>2021-02-14T13:29:59Z</time>
      </trkpt>
      <trkpt lat="43.456886" lon="-5.5954885">
        <ele>520.0</ele>
        <time>2021-02-14T13:30:00Z</time>
      </trkpt>
      <trkpt lat="43.456882" lon="-5.595477">
        <ele>520.0</ele>
        <time>2021-02-14T13:30:01Z</time>
      </trkpt>
      <trkpt lat="43.456875" lon="-5.595467">
        <ele>520.0</ele>
        <time>2021-02-14T13:30:02Z</time>
      </trkpt>
      <trkpt lat="43.45687" lon="-5.5954585">
        <ele>520.0</ele>
        <time>2021-02-14T13:30:03Z</time>
      </trkpt>
      <trkpt lat="43.456863" lon="-5.595453">
        <ele>520.0</ele>
        <time>2021-02-14T13:30:04Z</time>
      </trkpt>
      <trkpt lat="43.456863" lon="-5.5954466">
        <ele>520.0</ele>
        <time>2021-02-14T13:30:05Z</time>
      </trkpt>
      <trkpt lat="43.456863" lon="-5.595439">
        <ele>520.0</ele>
        <time>2021-02-14T13:30:06Z</time>
      </trkpt>
      <trkpt lat="43.45686" lon="-5.595428">
        <ele>520.0</ele>
        <time>2021-02-14T13:30:07Z</time>
      </trkpt>
      <trkpt lat="43.456856" lon="-5.5954137">
        <ele>520.0</ele>
        <time>2021-02-14T13:30:08Z</time>
      </trkpt>
      <trkpt lat="43.45685" lon="-5.5954003">
        <ele>520.0</ele>
        <time>2021-02-14T13:30:09Z</time>
      </trkpt>
      <trkpt lat="43.45684" lon="-5.5953875">
        <ele>520.0</ele>
        <time>2021-02-14T13:30:10Z</time>
      </trkpt>
      <trkpt lat="43.456833" lon="-5.595378">
        <ele>520.0</ele>
        <time>2021-02-14T13:30:11Z</time>
      </trkpt>
      <trkpt lat="43.456825" lon="-5.5953717">
        <ele>520.0</ele>
        <time>2021-02-14T13:30:12Z</time>
      </trkpt>
      <trkpt lat="43.456814" lon="-5.5953665">
        <ele>520.0</ele>
        <time>2021-02-14T13:30:13Z</time>
      </trkpt>
      <trkpt lat="43.45681" lon="-5.5953617">
        <ele>520.0</ele>
        <time>2021-02-14T13:30:14Z</time>
      </trkpt>
      <trkpt lat="43.4568" lon="-5.5953574">
        <ele>519.0</ele>
        <time>2021-02-14T13:30:15Z</time>
      </trkpt>
      <trkpt lat="43.456795" lon="-5.595353">
        <ele>519.0</ele>
        <time>2021-02-14T13:30:16Z</time>
      </trkpt>
      <trkpt lat="43.456783" lon="-5.595348">
        <ele>519.0</ele>
        <time>2021-02-14T13:30:17Z</time>
      </trkpt>
      <trkpt lat="43.456768" lon="-5.595342">
        <ele>519.0</ele>
        <time>2021-02-14T13:30:18Z</time>
      </trkpt>
      <trkpt lat="43.456753" lon="-5.5953393">
        <ele>519.0</ele>
        <time>2021-02-14T13:30:19Z</time>
      </trkpt>
      <trkpt lat="43.456738" lon="-5.595339">
        <ele>518.0</ele>
        <time>2021-02-14T13:30:20Z</time>
      </trkpt>
      <trkpt lat="43.456726" lon="-5.5953393">
        <ele>518.0</ele>
        <time>2021-02-14T13:30:21Z</time>
      </trkpt>
      <trkpt lat="43.45672" lon="-5.5953403">
        <ele>518.0</ele>
        <time>2021-02-14T13:30:22Z</time>
      </trkpt>
      <trkpt lat="43.45671" lon="-5.5953426">
        <ele>518.0</ele>
        <time>2021-02-14T13:30:23Z</time>
      </trkpt>
      <trkpt lat="43.456707" lon="-5.5953436">
        <ele>518.0</ele>
        <time>2021-02-14T13:30:24Z</time>
      </trkpt>
      <trkpt lat="43.456703" lon="-5.595341">
        <ele>517.0</ele>
        <time>2021-02-14T13:30:25Z</time>
      </trkpt>
      <trkpt lat="43.456703" lon="-5.595342">
        <ele>517.0</ele>
        <time>2021-02-14T13:30:26Z</time>
      </trkpt>
      <trkpt lat="43.456703" lon="-5.595346">
        <ele>517.0</ele>
        <time>2021-02-14T13:30:27Z</time>
      </trkpt>
      <trkpt lat="43.456703" lon="-5.595351">
        <ele>517.0</ele>
        <time>2021-02-14T13:30:28Z</time>
      </trkpt>
      <trkpt lat="43.456696" lon="-5.5953536">
        <ele>517.0</ele>
        <time>2021-02-14T13:30:29Z</time>
      </trkpt>
      <trkpt lat="43.456696" lon="-5.595353">
        <ele>517.0</ele>
        <time>2021-02-14T13:30:30Z</time>
      </trkpt>
      <trkpt lat="43.456696" lon="-5.595351">
        <ele>516.0</ele>
        <time>2021-02-14T13:30:31Z</time>
      </trkpt>
      <trkpt lat="43.456696" lon="-5.5953503">
        <ele>516.0</ele>
        <time>2021-02-14T13:30:32Z</time>
      </trkpt>
      <trkpt lat="43.45669" lon="-5.5953503">
        <ele>516.0</ele>
        <time>2021-02-14T13:30:33Z</time>
      </trkpt>
      <trkpt lat="43.45669" lon="-5.5953503">
        <ele>516.0</ele>
        <time>2021-02-14T13:30:34Z</time>
      </trkpt>
      <trkpt lat="43.456688" lon="-5.595346">
        <ele>516.0</ele>
        <time>2021-02-14T13:30:35Z</time>
      </trkpt>
      <trkpt lat="43.456688" lon="-5.5953374">
        <ele>516.0</ele>
        <time>2021-02-14T13:30:36Z</time>
      </trkpt>
      <trkpt lat="43.45668" lon="-5.595326">
        <ele>516.0</ele>
        <time>2021-02-14T13:30:37Z</time>
      </trkpt>
      <trkpt lat="43.456676" lon="-5.595318">
        <ele>516.0</ele>
        <time>2021-02-14T13:30:38Z</time>
      </trkpt>
      <trkpt lat="43.45667" lon="-5.5953107">
        <ele>516.0</ele>
        <time>2021-02-14T13:30:39Z</time>
      </trkpt>
      <trkpt lat="43.45666" lon="-5.5953054">
        <ele>516.0</ele>
        <time>2021-02-14T13:30:40Z</time>
      </trkpt>
      <trkpt lat="43.456646" lon="-5.5953007">
        <ele>516.0</ele>
        <time>2021-02-14T13:30:41Z</time>
      </trkpt>
      <trkpt lat="43.456635" lon="-5.595295">
        <ele>516.0</ele>
        <time>2021-02-14T13:30:42Z</time>
      </trkpt>
      <trkpt lat="43.45662" lon="-5.59529">
        <ele>516.0</ele>
        <time>2021-02-14T13:30:43Z</time>
      </trkpt>
      <trkpt lat="43.456615" lon="-5.595284">
        <ele>516.0</ele>
        <time>2021-02-14T13:30:44Z</time>
      </trkpt>
      <trkpt lat="43.456604" lon="-5.5952773">
        <ele>516.0</ele>
        <time>2021-02-14T13:30:45Z</time>
      </trkpt>
      <trkpt lat="43.4566" lon="-5.5952725">
        <ele>516.0</ele>
        <time>2021-02-14T13:30:46Z</time>
      </trkpt>
      <trkpt lat="43.45659" lon="-5.595268">
        <ele>516.0</ele>
        <time>2021-02-14T13:30:47Z</time>
      </trkpt>
      <trkpt lat="43.456573" lon="-5.5952644">
        <ele>516.0</ele>
        <time>2021-02-14T13:30:48Z</time>
      </trkpt>
      <trkpt lat="43.456562" lon="-5.5952625">
        <ele>516.0</ele>
        <time>2021-02-14T13:30:49Z</time>
      </trkpt>
      <trkpt lat="43.45656" lon="-5.5952616">
        <ele>516.0</ele>
        <time>2021-02-14T13:30:50Z</time>
      </trkpt>
      <trkpt lat="43.45653" lon="-5.59525">
        <ele>516.0</ele>
        <time>2021-02-14T13:30:52Z</time>
      </trkpt>
      <trkpt lat="43.456528" lon="-5.5952473">
        <ele>516.0</ele>
        <time>2021-02-14T13:30:53Z</time>
      </trkpt>
      <trkpt lat="43.456524" lon="-5.595242">
        <ele>516.0</ele>
        <time>2021-02-14T13:30:54Z</time>
      </trkpt>
      <trkpt lat="43.456512" lon="-5.5952344">
        <ele>516.0</ele>
        <time>2021-02-14T13:30:55Z</time>
      </trkpt>
      <trkpt lat="43.4565" lon="-5.595224">
        <ele>516.0</ele>
        <time>2021-02-14T13:30:56Z</time>
      </trkpt>
      <trkpt lat="43.456486" lon="-5.595212">
        <ele>516.0</ele>
        <time>2021-02-14T13:30:57Z</time>
      </trkpt>
      <trkpt lat="43.456482" lon="-5.5952">
        <ele>516.0</ele>
        <time>2021-02-14T13:30:58Z</time>
      </trkpt>
      <trkpt lat="43.45647" lon="-5.5951858">
        <ele>516.0</ele>
        <time>2021-02-14T13:30:59Z</time>
      </trkpt>
      <trkpt lat="43.45646" lon="-5.595168">
        <ele>516.0</ele>
        <time>2021-02-14T13:31:00Z</time>
      </trkpt>
      <trkpt lat="43.456444" lon="-5.595151">
        <ele>516.0</ele>
        <time>2021-02-14T13:31:01Z</time>
      </trkpt>
      <trkpt lat="43.456436" lon="-5.595138">
        <ele>516.0</ele>
        <time>2021-02-14T13:31:02Z</time>
      </trkpt>
      <trkpt lat="43.456425" lon="-5.5951266">
        <ele>516.0</ele>
        <time>2021-02-14T13:31:03Z</time>
      </trkpt>
      <trkpt lat="43.456413" lon="-5.595114">
        <ele>515.0</ele>
        <time>2021-02-14T13:31:04Z</time>
      </trkpt>
      <trkpt lat="43.456406" lon="-5.5951">
        <ele>515.0</ele>
        <time>2021-02-14T13:31:05Z</time>
      </trkpt>
      <trkpt lat="43.456394" lon="-5.5950856">
        <ele>515.0</ele>
        <time>2021-02-14T13:31:06Z</time>
      </trkpt>
      <trkpt lat="43.456383" lon="-5.595068">
        <ele>515.0</ele>
        <time>2021-02-14T13:31:07Z</time>
      </trkpt>
      <trkpt lat="43.456367" lon="-5.5950446">
        <ele>515.0</ele>
        <time>2021-02-14T13:31:08Z</time>
      </trkpt>
      <trkpt lat="43.45636" lon="-5.5950184">
        <ele>515.0</ele>
        <time>2021-02-14T13:31:09Z</time>
      </trkpt>
      <trkpt lat="43.456345" lon="-5.594996">
        <ele>515.0</ele>
        <time>2021-02-14T13:31:10Z</time>
      </trkpt>
      <trkpt lat="43.45633" lon="-5.5949807">
        <ele>515.0</ele>
        <time>2021-02-14T13:31:11Z</time>
      </trkpt>
      <trkpt lat="43.456318" lon="-5.5949683">
        <ele>515.0</ele>
        <time>2021-02-14T13:31:12Z</time>
      </trkpt>
      <trkpt lat="43.456314" lon="-5.5949593">
        <ele>515.0</ele>
        <time>2021-02-14T13:31:13Z</time>
      </trkpt>
      <trkpt lat="43.456306" lon="-5.5949497">
        <ele>514.0</ele>
        <time>2021-02-14T13:31:14Z</time>
      </trkpt>
      <trkpt lat="43.456303" lon="-5.5949435">
        <ele>514.0</ele>
        <time>2021-02-14T13:31:15Z</time>
      </trkpt>
      <trkpt lat="43.45629" lon="-5.594931">
        <ele>514.0</ele>
        <time>2021-02-14T13:31:22Z</time>
      </trkpt>
      <trkpt lat="43.45629" lon="-5.5949297">
        <ele>514.0</ele>
        <time>2021-02-14T13:31:23Z</time>
      </trkpt>
      <trkpt lat="43.45629" lon="-5.594926">
        <ele>514.0</ele>
        <time>2021-02-14T13:31:24Z</time>
      </trkpt>
      <trkpt lat="43.45629" lon="-5.594919">
        <ele>514.0</ele>
        <time>2021-02-14T13:31:25Z</time>
      </trkpt>
      <trkpt lat="43.45629" lon="-5.5949116">
        <ele>514.0</ele>
        <time>2021-02-14T13:31:26Z</time>
      </trkpt>
      <trkpt lat="43.4563" lon="-5.5949035">
        <ele>514.0</ele>
        <time>2021-02-14T13:31:27Z</time>
      </trkpt>
      <trkpt lat="43.456303" lon="-5.5948973">
        <ele>514.0</ele>
        <time>2021-02-14T13:31:28Z</time>
      </trkpt>
      <trkpt lat="43.456303" lon="-5.594894">
        <ele>514.0</ele>
        <time>2021-02-14T13:31:29Z</time>
      </trkpt>
      <trkpt lat="43.456306" lon="-5.59489">
        <ele>514.0</ele>
        <time>2021-02-14T13:31:30Z</time>
      </trkpt>
      <trkpt lat="43.456306" lon="-5.594888">
        <ele>514.0</ele>
        <time>2021-02-14T13:31:31Z</time>
      </trkpt>
      <trkpt lat="43.456303" lon="-5.594888">
        <ele>514.0</ele>
        <time>2021-02-14T13:31:32Z</time>
      </trkpt>
      <trkpt lat="43.456306" lon="-5.5948915">
        <ele>514.0</ele>
        <time>2021-02-14T13:31:34Z</time>
      </trkpt>
      <trkpt lat="43.456314" lon="-5.594892">
        <ele>514.0</ele>
        <time>2021-02-14T13:31:35Z</time>
      </trkpt>
      <trkpt lat="43.456314" lon="-5.594895">
        <ele>514.0</ele>
        <time>2021-02-14T13:31:36Z</time>
      </trkpt>
      <trkpt lat="43.456318" lon="-5.5948997">
        <ele>514.0</ele>
        <time>2021-02-14T13:31:37Z</time>
      </trkpt>
      <trkpt lat="43.45632" lon="-5.5949044">
        <ele>514.0</ele>
        <time>2021-02-14T13:31:38Z</time>
      </trkpt>
      <trkpt lat="43.45632" lon="-5.5949087">
        <ele>514.0</ele>
        <time>2021-02-14T13:31:39Z</time>
      </trkpt>
      <trkpt lat="43.45633" lon="-5.594912">
        <ele>514.0</ele>
        <time>2021-02-14T13:31:40Z</time>
      </trkpt>
      <trkpt lat="43.456333" lon="-5.5949154">
        <ele>514.0</ele>
        <time>2021-02-14T13:31:41Z</time>
      </trkpt>
      <trkpt lat="43.456345" lon="-5.594916">
        <ele>514.0</ele>
        <time>2021-02-14T13:31:42Z</time>
      </trkpt>
      <trkpt lat="43.456352" lon="-5.594918">
        <ele>513.0</ele>
        <time>2021-02-14T13:31:43Z</time>
      </trkpt>
      <trkpt lat="43.45636" lon="-5.5949216">
        <ele>513.0</ele>
        <time>2021-02-14T13:31:44Z</time>
      </trkpt>
      <trkpt lat="43.456364" lon="-5.594925">
        <ele>513.0</ele>
        <time>2021-02-14T13:31:45Z</time>
      </trkpt>
      <trkpt lat="43.45638" lon="-5.5949316">
        <ele>513.0</ele>
        <time>2021-02-14T13:31:48Z</time>
      </trkpt>
      <trkpt lat="43.45638" lon="-5.594931">
        <ele>513.0</ele>
        <time>2021-02-14T13:31:49Z</time>
      </trkpt>
      <trkpt lat="43.45638" lon="-5.594929">
        <ele>513.0</ele>
        <time>2021-02-14T13:31:50Z</time>
      </trkpt>
      <trkpt lat="43.45638" lon="-5.594923">
        <ele>513.0</ele>
        <time>2021-02-14T13:31:51Z</time>
      </trkpt>
      <trkpt lat="43.456375" lon="-5.5949154">
        <ele>513.0</ele>
        <time>2021-02-14T13:31:52Z</time>
      </trkpt>
      <trkpt lat="43.456367" lon="-5.5949054">
        <ele>513.0</ele>
        <time>2021-02-14T13:31:53Z</time>
      </trkpt>
      <trkpt lat="43.456364" lon="-5.594899">
        <ele>513.0</ele>
        <time>2021-02-14T13:31:54Z</time>
      </trkpt>
      <trkpt lat="43.45636" lon="-5.5948935">
        <ele>513.0</ele>
        <time>2021-02-14T13:31:55Z</time>
      </trkpt>
      <trkpt lat="43.456352" lon="-5.5948896">
        <ele>513.0</ele>
        <time>2021-02-14T13:31:56Z</time>
      </trkpt>
      <trkpt lat="43.456345" lon="-5.594883">
        <ele>513.0</ele>
        <time>2021-02-14T13:31:58Z</time>
      </trkpt>
      <trkpt lat="43.456345" lon="-5.594884">
        <ele>513.0</ele>
        <time>2021-02-14T13:31:59Z</time>
      </trkpt>
      <trkpt lat="43.456345" lon="-5.594883">
        <ele>513.0</ele>
        <time>2021-02-14T13:32:00Z</time>
      </trkpt>
      <trkpt lat="43.456333" lon="-5.594878">
        <ele>513.0</ele>
        <time>2021-02-14T13:32:29Z</time>
      </trkpt>
      <trkpt lat="43.456333" lon="-5.5948772">
        <ele>513.0</ele>
        <time>2021-02-14T13:32:30Z</time>
      </trkpt>
      <trkpt lat="43.456333" lon="-5.594877">
        <ele>513.0</ele>
        <time>2021-02-14T13:32:31Z</time>
      </trkpt>
      <trkpt lat="43.45633" lon="-5.5948734">
        <ele>513.0</ele>
        <time>2021-02-14T13:32:37Z</time>
      </trkpt>
      <trkpt lat="43.45633" lon="-5.5948725">
        <ele>513.0</ele>
        <time>2021-02-14T13:32:38Z</time>
      </trkpt>
      <trkpt lat="43.456318" lon="-5.5948696">
        <ele>513.0</ele>
        <time>2021-02-14T13:32:39Z</time>
      </trkpt>
      <trkpt lat="43.456306" lon="-5.594867">
        <ele>513.0</ele>
        <time>2021-02-14T13:32:40Z</time>
      </trkpt>
      <trkpt lat="43.45629" lon="-5.594865">
        <ele>513.0</ele>
        <time>2021-02-14T13:32:41Z</time>
      </trkpt>
      <trkpt lat="43.456272" lon="-5.5948615">
        <ele>513.0</ele>
        <time>2021-02-14T13:32:42Z</time>
      </trkpt>
      <trkpt lat="43.456257" lon="-5.5948586">
        <ele>513.0</ele>
        <time>2021-02-14T13:32:43Z</time>
      </trkpt>
      <trkpt lat="43.456234" lon="-5.5948544">
        <ele>513.0</ele>
        <time>2021-02-14T13:32:44Z</time>
      </trkpt>
      <trkpt lat="43.456215" lon="-5.594848">
        <ele>513.0</ele>
        <time>2021-02-14T13:32:45Z</time>
      </trkpt>
      <trkpt lat="43.4562" lon="-5.5948386">
        <ele>513.0</ele>
        <time>2021-02-14T13:32:46Z</time>
      </trkpt>
      <trkpt lat="43.45619" lon="-5.5948257">
        <ele>513.0</ele>
        <time>2021-02-14T13:32:47Z</time>
      </trkpt>
      <trkpt lat="43.45618" lon="-5.5948124">
        <ele>513.0</ele>
        <time>2021-02-14T13:32:48Z</time>
      </trkpt>
      <trkpt lat="43.45617" lon="-5.5948">
        <ele>513.0</ele>
        <time>2021-02-14T13:32:49Z</time>
      </trkpt>
      <trkpt lat="43.456158" lon="-5.59479">
        <ele>513.0</ele>
        <time>2021-02-14T13:32:50Z</time>
      </trkpt>
      <trkpt lat="43.456154" lon="-5.594778">
        <ele>513.0</ele>
        <time>2021-02-14T13:32:51Z</time>
      </trkpt>
      <trkpt lat="43.456142" lon="-5.5947676">
        <ele>513.0</ele>
        <time>2021-02-14T13:32:52Z</time>
      </trkpt>
      <trkpt lat="43.45614" lon="-5.5947585">
        <ele>513.0</ele>
        <time>2021-02-14T13:32:53Z</time>
      </trkpt>
      <trkpt lat="43.456135" lon="-5.5947495">
        <ele>513.0</ele>
        <time>2021-02-14T13:32:54Z</time>
      </trkpt>
      <trkpt lat="43.456123" lon="-5.59474">
        <ele>513.0</ele>
        <time>2021-02-14T13:32:55Z</time>
      </trkpt>
      <trkpt lat="43.45612" lon="-5.5947275">
        <ele>513.0</ele>
        <time>2021-02-14T13:32:56Z</time>
      </trkpt>
      <trkpt lat="43.456112" lon="-5.5947156">
        <ele>513.0</ele>
        <time>2021-02-14T13:32:57Z</time>
      </trkpt>
      <trkpt lat="43.456104" lon="-5.5947013">
        <ele>513.0</ele>
        <time>2021-02-14T13:32:58Z</time>
      </trkpt>
      <trkpt lat="43.456097" lon="-5.59469">
        <ele>513.0</ele>
        <time>2021-02-14T13:32:59Z</time>
      </trkpt>
      <trkpt lat="43.456093" lon="-5.5946765">
        <ele>513.0</ele>
        <time>2021-02-14T13:33:00Z</time>
      </trkpt>
      <trkpt lat="43.456085" lon="-5.5946617">
        <ele>513.0</ele>
        <time>2021-02-14T13:33:01Z</time>
      </trkpt>
      <trkpt lat="43.45607" lon="-5.5946484">
        <ele>513.0</ele>
        <time>2021-02-14T13:33:02Z</time>
      </trkpt>
      <trkpt lat="43.456062" lon="-5.5946393">
        <ele>513.0</ele>
        <time>2021-02-14T13:33:03Z</time>
      </trkpt>
      <trkpt lat="43.456055" lon="-5.594632">
        <ele>513.0</ele>
        <time>2021-02-14T13:33:04Z</time>
      </trkpt>
      <trkpt lat="43.45605" lon="-5.5946226">
        <ele>513.0</ele>
        <time>2021-02-14T13:33:05Z</time>
      </trkpt>
      <trkpt lat="43.456047" lon="-5.594615">
        <ele>513.0</ele>
        <time>2021-02-14T13:33:06Z</time>
      </trkpt>
      <trkpt lat="43.45604" lon="-5.5946074">
        <ele>513.0</ele>
        <time>2021-02-14T13:33:07Z</time>
      </trkpt>
      <trkpt lat="43.456036" lon="-5.5945997">
        <ele>513.0</ele>
        <time>2021-02-14T13:33:08Z</time>
      </trkpt>
      <trkpt lat="43.456036" lon="-5.5945926">
        <ele>513.0</ele>
        <time>2021-02-14T13:33:09Z</time>
      </trkpt>
      <trkpt lat="43.456024" lon="-5.5945854">
        <ele>513.0</ele>
        <time>2021-02-14T13:33:10Z</time>
      </trkpt>
      <trkpt lat="43.45602" lon="-5.594577">
        <ele>513.0</ele>
        <time>2021-02-14T13:33:11Z</time>
      </trkpt>
      <trkpt lat="43.456005" lon="-5.594567">
        <ele>513.0</ele>
        <time>2021-02-14T13:33:12Z</time>
      </trkpt>
      <trkpt lat="43.45599" lon="-5.594555">
        <ele>513.0</ele>
        <time>2021-02-14T13:33:13Z</time>
      </trkpt>
      <trkpt lat="43.45598" lon="-5.59454">
        <ele>513.0</ele>
        <time>2021-02-14T13:33:14Z</time>
      </trkpt>
      <trkpt lat="43.455963" lon="-5.5945263">
        <ele>513.0</ele>
        <time>2021-02-14T13:33:15Z</time>
      </trkpt>
      <trkpt lat="43.455956" lon="-5.5945125">
        <ele>513.0</ele>
        <time>2021-02-14T13:33:16Z</time>
      </trkpt>
      <trkpt lat="43.45594" lon="-5.594502">
        <ele>513.0</ele>
        <time>2021-02-14T13:33:17Z</time>
      </trkpt>
      <trkpt lat="43.45593" lon="-5.594491">
        <ele>513.0</ele>
        <time>2021-02-14T13:33:18Z</time>
      </trkpt>
      <trkpt lat="43.455925" lon="-5.59448">
        <ele>513.0</ele>
        <time>2021-02-14T13:33:19Z</time>
      </trkpt>
      <trkpt lat="43.455914" lon="-5.5944695">
        <ele>513.0</ele>
        <time>2021-02-14T13:33:20Z</time>
      </trkpt>
      <trkpt lat="43.45591" lon="-5.594459">
        <ele>513.0</ele>
        <time>2021-02-14T13:33:21Z</time>
      </trkpt>
      <trkpt lat="43.455902" lon="-5.594448">
        <ele>513.0</ele>
        <time>2021-02-14T13:33:22Z</time>
      </trkpt>
      <trkpt lat="43.4559" lon="-5.5944357">
        <ele>513.0</ele>
        <time>2021-02-14T13:33:23Z</time>
      </trkpt>
      <trkpt lat="43.455887" lon="-5.594424">
        <ele>513.0</ele>
        <time>2021-02-14T13:33:24Z</time>
      </trkpt>
      <trkpt lat="43.455883" lon="-5.5944114">
        <ele>513.0</ele>
        <time>2021-02-14T13:33:25Z</time>
      </trkpt>
      <trkpt lat="43.45587" lon="-5.594402">
        <ele>513.0</ele>
        <time>2021-02-14T13:33:26Z</time>
      </trkpt>
      <trkpt lat="43.455868" lon="-5.594394">
        <ele>513.0</ele>
        <time>2021-02-14T13:33:27Z</time>
      </trkpt>
      <trkpt lat="43.455856" lon="-5.59439">
        <ele>513.0</ele>
        <time>2021-02-14T13:33:28Z</time>
      </trkpt>
      <trkpt lat="43.455845" lon="-5.594387">
        <ele>513.0</ele>
        <time>2021-02-14T13:33:29Z</time>
      </trkpt>
      <trkpt lat="43.45584" lon="-5.5943832">
        <ele>513.0</ele>
        <time>2021-02-14T13:33:30Z</time>
      </trkpt>
      <trkpt lat="43.455837" lon="-5.5943804">
        <ele>513.0</ele>
        <time>2021-02-14T13:33:31Z</time>
      </trkpt>
      <trkpt lat="43.45583" lon="-5.594376">
        <ele>513.0</ele>
        <time>2021-02-14T13:33:32Z</time>
      </trkpt>
      <trkpt lat="43.455822" lon="-5.5943713">
        <ele>513.0</ele>
        <time>2021-02-14T13:33:33Z</time>
      </trkpt>
      <trkpt lat="43.45581" lon="-5.594366">
        <ele>513.0</ele>
        <time>2021-02-14T13:33:34Z</time>
      </trkpt>
      <trkpt lat="43.4558" lon="-5.594361">
        <ele>514.0</ele>
        <time>2021-02-14T13:33:35Z</time>
      </trkpt>
      <trkpt lat="43.45579" lon="-5.59436">
        <ele>514.0</ele>
        <time>2021-02-14T13:33:36Z</time>
      </trkpt>
      <trkpt lat="43.455776" lon="-5.5943637">
        <ele>514.0</ele>
        <time>2021-02-14T13:33:37Z</time>
      </trkpt>
      <trkpt lat="43.455753" lon="-5.5943666">
        <ele>514.0</ele>
        <time>2021-02-14T13:33:38Z</time>
      </trkpt>
      <trkpt lat="43.455738" lon="-5.5943694">
        <ele>514.0</ele>
        <time>2021-02-14T13:33:39Z</time>
      </trkpt>
      <trkpt lat="43.455723" lon="-5.594372">
        <ele>514.0</ele>
        <time>2021-02-14T13:33:40Z</time>
      </trkpt>
      <trkpt lat="43.455715" lon="-5.5943723">
        <ele>514.0</ele>
        <time>2021-02-14T13:33:41Z</time>
      </trkpt>
      <trkpt lat="43.455696" lon="-5.5943723">
        <ele>514.0</ele>
        <time>2021-02-14T13:33:42Z</time>
      </trkpt>
      <trkpt lat="43.45568" lon="-5.594372">
        <ele>514.0</ele>
        <time>2021-02-14T13:33:43Z</time>
      </trkpt>
      <trkpt lat="43.455673" lon="-5.5943704">
        <ele>514.0</ele>
        <time>2021-02-14T13:33:44Z</time>
      </trkpt>
      <trkpt lat="43.455658" lon="-5.5943694">
        <ele>514.0</ele>
        <time>2021-02-14T13:33:45Z</time>
      </trkpt>
      <trkpt lat="43.455647" lon="-5.5943675">
        <ele>514.0</ele>
        <time>2021-02-14T13:33:46Z</time>
      </trkpt>
      <trkpt lat="43.45563" lon="-5.5943646">
        <ele>514.0</ele>
        <time>2021-02-14T13:33:47Z</time>
      </trkpt>
      <trkpt lat="43.455612" lon="-5.5943584">
        <ele>514.0</ele>
        <time>2021-02-14T13:33:48Z</time>
      </trkpt>
      <trkpt lat="43.455597" lon="-5.594346">
        <ele>514.0</ele>
        <time>2021-02-14T13:33:49Z</time>
      </trkpt>
      <trkpt lat="43.45558" lon="-5.594336">
        <ele>514.0</ele>
        <time>2021-02-14T13:33:50Z</time>
      </trkpt>
      <trkpt lat="43.455566" lon="-5.5943284">
        <ele>514.0</ele>
        <time>2021-02-14T13:33:51Z</time>
      </trkpt>
      <trkpt lat="43.455555" lon="-5.5943246">
        <ele>514.0</ele>
        <time>2021-02-14T13:33:52Z</time>
      </trkpt>
      <trkpt lat="43.455544" lon="-5.5943236">
        <ele>514.0</ele>
        <time>2021-02-14T13:33:53Z</time>
      </trkpt>
      <trkpt lat="43.455536" lon="-5.5943236">
        <ele>514.0</ele>
        <time>2021-02-14T13:33:54Z</time>
      </trkpt>
      <trkpt lat="43.455517" lon="-5.5943246">
        <ele>514.0</ele>
        <time>2021-02-14T13:33:55Z</time>
      </trkpt>
      <trkpt lat="43.4555" lon="-5.594325">
        <ele>514.0</ele>
        <time>2021-02-14T13:33:56Z</time>
      </trkpt>
      <trkpt lat="43.455486" lon="-5.594325">
        <ele>514.0</ele>
        <time>2021-02-14T13:33:57Z</time>
      </trkpt>
      <trkpt lat="43.45548" lon="-5.594327">
        <ele>514.0</ele>
        <time>2021-02-14T13:33:58Z</time>
      </trkpt>
      <trkpt lat="43.455467" lon="-5.5943317">
        <ele>514.0</ele>
        <time>2021-02-14T13:33:59Z</time>
      </trkpt>
      <trkpt lat="43.455456" lon="-5.5943346">
        <ele>514.0</ele>
        <time>2021-02-14T13:34:00Z</time>
      </trkpt>
      <trkpt lat="43.45545" lon="-5.594338">
        <ele>514.0</ele>
        <time>2021-02-14T13:34:01Z</time>
      </trkpt>
      <trkpt lat="43.455437" lon="-5.59434">
        <ele>514.0</ele>
        <time>2021-02-14T13:34:02Z</time>
      </trkpt>
      <trkpt lat="43.455425" lon="-5.594343">
        <ele>514.0</ele>
        <time>2021-02-14T13:34:03Z</time>
      </trkpt>
      <trkpt lat="43.455418" lon="-5.594345">
        <ele>514.0</ele>
        <time>2021-02-14T13:34:04Z</time>
      </trkpt>
      <trkpt lat="43.455406" lon="-5.594348">
        <ele>514.0</ele>
        <time>2021-02-14T13:34:05Z</time>
      </trkpt>
      <trkpt lat="43.455395" lon="-5.594353">
        <ele>514.0</ele>
        <time>2021-02-14T13:34:06Z</time>
      </trkpt>
      <trkpt lat="43.45538" lon="-5.594359">
        <ele>514.0</ele>
        <time>2021-02-14T13:34:07Z</time>
      </trkpt>
      <trkpt lat="43.45537" lon="-5.5943646">
        <ele>514.0</ele>
        <time>2021-02-14T13:34:08Z</time>
      </trkpt>
      <trkpt lat="43.455364" lon="-5.594368">
        <ele>514.0</ele>
        <time>2021-02-14T13:34:09Z</time>
      </trkpt>
      <trkpt lat="43.45536" lon="-5.5943704">
        <ele>514.0</ele>
        <time>2021-02-14T13:34:09Z</time>
      </trkpt>
      <trkpt lat="43.455357" lon="-5.5943713">
        <ele>514.0</ele>
        <time>2021-02-14T13:34:10Z</time>
      </trkpt>
      <trkpt lat="43.455345" lon="-5.594372">
        <ele>514.0</ele>
        <time>2021-02-14T13:34:11Z</time>
      </trkpt>
      <trkpt lat="43.455334" lon="-5.59437">
        <ele>512.0</ele>
        <time>2021-02-14T13:34:12Z</time>
      </trkpt>
      <trkpt lat="43.455322" lon="-5.5943675">
        <ele>512.0</ele>
        <time>2021-02-14T13:34:13Z</time>
      </trkpt>
      <trkpt lat="43.455315" lon="-5.594364">
        <ele>512.0</ele>
        <time>2021-02-14T13:34:14Z</time>
      </trkpt>
      <trkpt lat="43.455307" lon="-5.594361">
        <ele>512.0</ele>
        <time>2021-02-14T13:34:15Z</time>
      </trkpt>
      <trkpt lat="43.4553" lon="-5.594357">
        <ele>512.0</ele>
        <time>2021-02-14T13:34:16Z</time>
      </trkpt>
      <trkpt lat="43.45529" lon="-5.5943546">
        <ele>511.0</ele>
        <time>2021-02-14T13:34:17Z</time>
      </trkpt>
      <trkpt lat="43.455284" lon="-5.5943546">
        <ele>511.0</ele>
        <time>2021-02-14T13:34:18Z</time>
      </trkpt>
      <trkpt lat="43.455273" lon="-5.594355">
        <ele>511.0</ele>
        <time>2021-02-14T13:34:19Z</time>
      </trkpt>
      <trkpt lat="43.45527" lon="-5.5943565">
        <ele>511.0</ele>
        <time>2021-02-14T13:34:20Z</time>
      </trkpt>
      <trkpt lat="43.455257" lon="-5.594357">
        <ele>511.0</ele>
        <time>2021-02-14T13:34:21Z</time>
      </trkpt>
      <trkpt lat="43.455254" lon="-5.594359">
        <ele>511.0</ele>
        <time>2021-02-14T13:34:22Z</time>
      </trkpt>
      <trkpt lat="43.455254" lon="-5.594361">
        <ele>511.0</ele>
        <time>2021-02-14T13:34:23Z</time>
      </trkpt>
      <trkpt lat="43.455246" lon="-5.594362">
        <ele>511.0</ele>
        <time>2021-02-14T13:34:24Z</time>
      </trkpt>
      <trkpt lat="43.455246" lon="-5.5943623">
        <ele>511.0</ele>
        <time>2021-02-14T13:34:25Z</time>
      </trkpt>
      <trkpt lat="43.455242" lon="-5.5943637">
        <ele>511.0</ele>
        <time>2021-02-14T13:34:26Z</time>
      </trkpt>
      <trkpt lat="43.455242" lon="-5.5943646">
        <ele>511.0</ele>
        <time>2021-02-14T13:34:27Z</time>
      </trkpt>
      <trkpt lat="43.45523" lon="-5.594368">
        <ele>511.0</ele>
        <time>2021-02-14T13:34:28Z</time>
      </trkpt>
      <trkpt lat="43.455223" lon="-5.5943737">
        <ele>511.0</ele>
        <time>2021-02-14T13:34:29Z</time>
      </trkpt>
      <trkpt lat="43.45521" lon="-5.5943775">
        <ele>511.0</ele>
        <time>2021-02-14T13:34:30Z</time>
      </trkpt>
      <trkpt lat="43.4552" lon="-5.594381">
        <ele>511.0</ele>
        <time>2021-02-14T13:34:31Z</time>
      </trkpt>
      <trkpt lat="43.455193" lon="-5.594384">
        <ele>511.0</ele>
        <time>2021-02-14T13:34:32Z</time>
      </trkpt>
      <trkpt lat="43.455177" lon="-5.594387">
        <ele>511.0</ele>
        <time>2021-02-14T13:34:33Z</time>
      </trkpt>
      <trkpt lat="43.455166" lon="-5.594389">
        <ele>511.0</ele>
        <time>2021-02-14T13:34:34Z</time>
      </trkpt>
      <trkpt lat="43.45515" lon="-5.59439">
        <ele>511.0</ele>
        <time>2021-02-14T13:34:35Z</time>
      </trkpt>
      <trkpt lat="43.45514" lon="-5.594392">
        <ele>511.0</ele>
        <time>2021-02-14T13:34:36Z</time>
      </trkpt>
      <trkpt lat="43.455124" lon="-5.5943947">
        <ele>511.0</ele>
        <time>2021-02-14T13:34:37Z</time>
      </trkpt>
      <trkpt lat="43.455112" lon="-5.594398">
        <ele>511.0</ele>
        <time>2021-02-14T13:34:38Z</time>
      </trkpt>
      <trkpt lat="43.455097" lon="-5.5944">
        <ele>511.0</ele>
        <time>2021-02-14T13:34:39Z</time>
      </trkpt>
      <trkpt lat="43.455082" lon="-5.5944014">
        <ele>511.0</ele>
        <time>2021-02-14T13:34:40Z</time>
      </trkpt>
      <trkpt lat="43.455067" lon="-5.5944">
        <ele>511.0</ele>
        <time>2021-02-14T13:34:41Z</time>
      </trkpt>
      <trkpt lat="43.45506" lon="-5.5943995">
        <ele>510.0</ele>
        <time>2021-02-14T13:34:42Z</time>
      </trkpt>
      <trkpt lat="43.455044" lon="-5.5943975">
        <ele>510.0</ele>
        <time>2021-02-14T13:34:43Z</time>
      </trkpt>
      <trkpt lat="43.455032" lon="-5.5943956">
        <ele>510.0</ele>
        <time>2021-02-14T13:34:44Z</time>
      </trkpt>
      <trkpt lat="43.45502" lon="-5.5943937">
        <ele>510.0</ele>
        <time>2021-02-14T13:34:45Z</time>
      </trkpt>
      <trkpt lat="43.455006" lon="-5.594391">
        <ele>510.0</ele>
        <time>2021-02-14T13:34:46Z</time>
      </trkpt>
      <trkpt lat="43.454998" lon="-5.594388">
        <ele>510.0</ele>
        <time>2021-02-14T13:34:47Z</time>
      </trkpt>
      <trkpt lat="43.454983" lon="-5.5943823">
        <ele>510.0</ele>
        <time>2021-02-14T13:34:48Z</time>
      </trkpt>
      <trkpt lat="43.454967" lon="-5.594375">
        <ele>510.0</ele>
        <time>2021-02-14T13:34:49Z</time>
      </trkpt>
      <trkpt lat="43.454952" lon="-5.5943685">
        <ele>510.0</ele>
        <time>2021-02-14T13:34:50Z</time>
      </trkpt>
      <trkpt lat="43.45493" lon="-5.5943627">
        <ele>510.0</ele>
        <time>2021-02-14T13:34:51Z</time>
      </trkpt>
      <trkpt lat="43.454914" lon="-5.594355">
        <ele>510.0</ele>
        <time>2021-02-14T13:34:52Z</time>
      </trkpt>
      <trkpt lat="43.4549" lon="-5.594345">
        <ele>510.0</ele>
        <time>2021-02-14T13:34:53Z</time>
      </trkpt>
      <trkpt lat="43.454884" lon="-5.594332">
        <ele>510.0</ele>
        <time>2021-02-14T13:34:54Z</time>
      </trkpt>
      <trkpt lat="43.454872" lon="-5.594316">
        <ele>510.0</ele>
        <time>2021-02-14T13:34:55Z</time>
      </trkpt>
      <trkpt lat="43.454865" lon="-5.5943003">
        <ele>510.0</ele>
        <time>2021-02-14T13:34:56Z</time>
      </trkpt>
      <trkpt lat="43.454853" lon="-5.594286">
        <ele>510.0</ele>
        <time>2021-02-14T13:34:57Z</time>
      </trkpt>
      <trkpt lat="43.45484" lon="-5.594276">
        <ele>510.0</ele>
        <time>2021-02-14T13:34:58Z</time>
      </trkpt>
      <trkpt lat="43.454834" lon="-5.5942655">
        <ele>510.0</ele>
        <time>2021-02-14T13:34:59Z</time>
      </trkpt>
      <trkpt lat="43.454826" lon="-5.594256">
        <ele>510.0</ele>
        <time>2021-02-14T13:35:00Z</time>
      </trkpt>
      <trkpt lat="43.45482" lon="-5.594246">
        <ele>510.0</ele>
        <time>2021-02-14T13:35:01Z</time>
      </trkpt>
      <trkpt lat="43.45481" lon="-5.5942354">
        <ele>510.0</ele>
        <time>2021-02-14T13:35:02Z</time>
      </trkpt>
      <trkpt lat="43.454803" lon="-5.5942245">
        <ele>510.0</ele>
        <time>2021-02-14T13:35:03Z</time>
      </trkpt>
      <trkpt lat="43.454792" lon="-5.594215">
        <ele>510.0</ele>
        <time>2021-02-14T13:35:04Z</time>
      </trkpt>
      <trkpt lat="43.45478" lon="-5.594206">
        <ele>510.0</ele>
        <time>2021-02-14T13:35:05Z</time>
      </trkpt>
      <trkpt lat="43.454773" lon="-5.5941973">
        <ele>510.0</ele>
        <time>2021-02-14T13:35:06Z</time>
      </trkpt>
      <trkpt lat="43.45476" lon="-5.5941863">
        <ele>510.0</ele>
        <time>2021-02-14T13:35:07Z</time>
      </trkpt>
      <trkpt lat="43.45475" lon="-5.5941734">
        <ele>510.0</ele>
        <time>2021-02-14T13:35:08Z</time>
      </trkpt>
      <trkpt lat="43.45474" lon="-5.594162">
        <ele>510.0</ele>
        <time>2021-02-14T13:35:09Z</time>
      </trkpt>
      <trkpt lat="43.454735" lon="-5.594151">
        <ele>510.0</ele>
        <time>2021-02-14T13:35:10Z</time>
      </trkpt>
      <trkpt lat="43.454723" lon="-5.594144">
        <ele>510.0</ele>
        <time>2021-02-14T13:35:11Z</time>
      </trkpt>
      <trkpt lat="43.454716" lon="-5.5941377">
        <ele>510.0</ele>
        <time>2021-02-14T13:35:12Z</time>
      </trkpt>
      <trkpt lat="43.45471" lon="-5.594133">
        <ele>510.0</ele>
        <time>2021-02-14T13:35:13Z</time>
      </trkpt>
      <trkpt lat="43.454704" lon="-5.5941267">
        <ele>510.0</ele>
        <time>2021-02-14T13:35:14Z</time>
      </trkpt>
      <trkpt lat="43.4547" lon="-5.5941167">
        <ele>510.0</ele>
        <time>2021-02-14T13:35:15Z</time>
      </trkpt>
      <trkpt lat="43.454693" lon="-5.594103">
        <ele>510.0</ele>
        <time>2021-02-14T13:35:16Z</time>
      </trkpt>
      <trkpt lat="43.454693" lon="-5.594089">
        <ele>510.0</ele>
        <time>2021-02-14T13:35:17Z</time>
      </trkpt>
      <trkpt lat="43.45469" lon="-5.5940742">
        <ele>510.0</ele>
        <time>2021-02-14T13:35:18Z</time>
      </trkpt>
      <trkpt lat="43.454685" lon="-5.5940595">
        <ele>510.0</ele>
        <time>2021-02-14T13:35:19Z</time>
      </trkpt>
      <trkpt lat="43.454678" lon="-5.5940456">
        <ele>508.0</ele>
        <time>2021-02-14T13:35:20Z</time>
      </trkpt>
      <trkpt lat="43.45467" lon="-5.594033">
        <ele>508.0</ele>
        <time>2021-02-14T13:35:21Z</time>
      </trkpt>
      <trkpt lat="43.454662" lon="-5.5940185">
        <ele>508.0</ele>
        <time>2021-02-14T13:35:22Z</time>
      </trkpt>
      <trkpt lat="43.45466" lon="-5.5940046">
        <ele>508.0</ele>
        <time>2021-02-14T13:35:23Z</time>
      </trkpt>
      <trkpt lat="43.454655" lon="-5.59399">
        <ele>508.0</ele>
        <time>2021-02-14T13:35:24Z</time>
      </trkpt>
      <trkpt lat="43.454647" lon="-5.593973">
        <ele>508.0</ele>
        <time>2021-02-14T13:35:25Z</time>
      </trkpt>
      <trkpt lat="43.454643" lon="-5.593954">
        <ele>507.0</ele>
        <time>2021-02-14T13:35:26Z</time>
      </trkpt>
      <trkpt lat="43.454643" lon="-5.5939345">
        <ele>507.0</ele>
        <time>2021-02-14T13:35:27Z</time>
      </trkpt>
      <trkpt lat="43.45463" lon="-5.5939174">
        <ele>507.0</ele>
        <time>2021-02-14T13:35:28Z</time>
      </trkpt>
      <trkpt lat="43.454628" lon="-5.593902">
        <ele>507.0</ele>
        <time>2021-02-14T13:35:29Z</time>
      </trkpt>
      <trkpt lat="43.454617" lon="-5.593888">
        <ele>507.0</ele>
        <time>2021-02-14T13:35:30Z</time>
      </trkpt>
      <trkpt lat="43.454613" lon="-5.5938764">
        <ele>506.0</ele>
        <time>2021-02-14T13:35:31Z</time>
      </trkpt>
      <trkpt lat="43.4546" lon="-5.5938635">
        <ele>506.0</ele>
        <time>2021-02-14T13:35:32Z</time>
      </trkpt>
      <trkpt lat="43.454594" lon="-5.59385">
        <ele>506.0</ele>
        <time>2021-02-14T13:35:33Z</time>
      </trkpt>
      <trkpt lat="43.454582" lon="-5.5938387">
        <ele>506.0</ele>
        <time>2021-02-14T13:35:34Z</time>
      </trkpt>
      <trkpt lat="43.45458" lon="-5.593826">
        <ele>506.0</ele>
        <time>2021-02-14T13:35:35Z</time>
      </trkpt>
      <trkpt lat="43.45457" lon="-5.593813">
        <ele>506.0</ele>
        <time>2021-02-14T13:35:36Z</time>
      </trkpt>
      <trkpt lat="43.454563" lon="-5.593801">
        <ele>506.0</ele>
        <time>2021-02-14T13:35:37Z</time>
      </trkpt>
      <trkpt lat="43.454556" lon="-5.5937905">
        <ele>506.0</ele>
        <time>2021-02-14T13:35:38Z</time>
      </trkpt>
      <trkpt lat="43.454544" lon="-5.593779">
        <ele>506.0</ele>
        <time>2021-02-14T13:35:39Z</time>
      </trkpt>
      <trkpt lat="43.454536" lon="-5.593769">
        <ele>506.0</ele>
        <time>2021-02-14T13:35:40Z</time>
      </trkpt>
      <trkpt lat="43.45453" lon="-5.593758">
        <ele>506.0</ele>
        <time>2021-02-14T13:35:41Z</time>
      </trkpt>
      <trkpt lat="43.45452" lon="-5.593745">
        <ele>506.0</ele>
        <time>2021-02-14T13:35:42Z</time>
      </trkpt>
      <trkpt lat="43.454514" lon="-5.5937314">
        <ele>505.0</ele>
        <time>2021-02-14T13:35:43Z</time>
      </trkpt>
      <trkpt lat="43.45451" lon="-5.5937204">
        <ele>505.0</ele>
        <time>2021-02-14T13:35:44Z</time>
      </trkpt>
      <trkpt lat="43.454506" lon="-5.5937076">
        <ele>505.0</ele>
        <time>2021-02-14T13:35:45Z</time>
      </trkpt>
      <trkpt lat="43.454506" lon="-5.593695">
        <ele>505.0</ele>
        <time>2021-02-14T13:35:46Z</time>
      </trkpt>
      <trkpt lat="43.454494" lon="-5.593685">
        <ele>505.0</ele>
        <time>2021-02-14T13:35:47Z</time>
      </trkpt>
      <trkpt lat="43.45449" lon="-5.5936766">
        <ele>505.0</ele>
        <time>2021-02-14T13:35:48Z</time>
      </trkpt>
      <trkpt lat="43.45448" lon="-5.59367">
        <ele>505.0</ele>
        <time>2021-02-14T13:35:49Z</time>
      </trkpt>
      <trkpt lat="43.454468" lon="-5.5936613">
        <ele>505.0</ele>
        <time>2021-02-14T13:35:50Z</time>
      </trkpt>
      <trkpt lat="43.454464" lon="-5.593653">
        <ele>505.0</ele>
        <time>2021-02-14T13:35:51Z</time>
      </trkpt>
      <trkpt lat="43.45446" lon="-5.5936456">
        <ele>505.0</ele>
        <time>2021-02-14T13:35:52Z</time>
      </trkpt>
      <trkpt lat="43.454453" lon="-5.59364">
        <ele>505.0</ele>
        <time>2021-02-14T13:35:53Z</time>
      </trkpt>
      <trkpt lat="43.45445" lon="-5.593636">
        <ele>505.0</ele>
        <time>2021-02-14T13:35:54Z</time>
      </trkpt>
      <trkpt lat="43.454437" lon="-5.5936327">
        <ele>505.0</ele>
        <time>2021-02-14T13:35:55Z</time>
      </trkpt>
      <trkpt lat="43.45443" lon="-5.593631">
        <ele>505.0</ele>
        <time>2021-02-14T13:35:56Z</time>
      </trkpt>
      <trkpt lat="43.454414" lon="-5.593622">
        <ele>505.0</ele>
        <time>2021-02-14T13:35:57Z</time>
      </trkpt>
      <trkpt lat="43.4544" lon="-5.593612">
        <ele>505.0</ele>
        <time>2021-02-14T13:35:58Z</time>
      </trkpt>
      <trkpt lat="43.454388" lon="-5.593603">
        <ele>505.0</ele>
        <time>2021-02-14T13:35:59Z</time>
      </trkpt>
      <trkpt lat="43.454372" lon="-5.593599">
        <ele>505.0</ele>
        <time>2021-02-14T13:36:00Z</time>
      </trkpt>
      <trkpt lat="43.454357" lon="-5.5935974">
        <ele>505.0</ele>
        <time>2021-02-14T13:36:01Z</time>
      </trkpt>
      <trkpt lat="43.45433" lon="-5.593597">
        <ele>504.0</ele>
        <time>2021-02-14T13:36:02Z</time>
      </trkpt>
      <trkpt lat="43.45431" lon="-5.5935974">
        <ele>504.0</ele>
        <time>2021-02-14T13:36:03Z</time>
      </trkpt>
      <trkpt lat="43.454296" lon="-5.593598">
        <ele>504.0</ele>
        <time>2021-02-14T13:36:04Z</time>
      </trkpt>
      <trkpt lat="43.454273" lon="-5.593597">
        <ele>504.0</ele>
        <time>2021-02-14T13:36:05Z</time>
      </trkpt>
      <trkpt lat="43.454258" lon="-5.593597">
        <ele>504.0</ele>
        <time>2021-02-14T13:36:06Z</time>
      </trkpt>
      <trkpt lat="43.454243" lon="-5.593598">
        <ele>504.0</ele>
        <time>2021-02-14T13:36:07Z</time>
      </trkpt>
      <trkpt lat="43.454235" lon="-5.5936">
        <ele>504.0</ele>
        <time>2021-02-14T13:36:08Z</time>
      </trkpt>
      <trkpt lat="43.45422" lon="-5.5935993">
        <ele>504.0</ele>
        <time>2021-02-14T13:36:09Z</time>
      </trkpt>
      <trkpt lat="43.45421" lon="-5.5935974">
        <ele>504.0</ele>
        <time>2021-02-14T13:36:10Z</time>
      </trkpt>
      <trkpt lat="43.454197" lon="-5.593595">
        <ele>504.0</ele>
        <time>2021-02-14T13:36:11Z</time>
      </trkpt>
      <trkpt lat="43.45419" lon="-5.593592">
        <ele>504.0</ele>
        <time>2021-02-14T13:36:12Z</time>
      </trkpt>
      <trkpt lat="43.454174" lon="-5.59359">
        <ele>504.0</ele>
        <time>2021-02-14T13:36:13Z</time>
      </trkpt>
      <trkpt lat="43.454163" lon="-5.5935903">
        <ele>504.0</ele>
        <time>2021-02-14T13:36:14Z</time>
      </trkpt>
      <trkpt lat="43.454147" lon="-5.593591">
        <ele>504.0</ele>
        <time>2021-02-14T13:36:15Z</time>
      </trkpt>
      <trkpt lat="43.454132" lon="-5.5935936">
        <ele>504.0</ele>
        <time>2021-02-14T13:36:16Z</time>
      </trkpt>
      <trkpt lat="43.454117" lon="-5.593597">
        <ele>504.0</ele>
        <time>2021-02-14T13:36:17Z</time>
      </trkpt>
      <trkpt lat="43.454105" lon="-5.5935993">
        <ele>504.0</ele>
        <time>2021-02-14T13:36:18Z</time>
      </trkpt>
      <trkpt lat="43.45409" lon="-5.5935993">
        <ele>504.0</ele>
        <time>2021-02-14T13:36:19Z</time>
      </trkpt>
      <trkpt lat="43.45408" lon="-5.5936">
        <ele>504.0</ele>
        <time>2021-02-14T13:36:20Z</time>
      </trkpt>
      <trkpt lat="43.454063" lon="-5.5935993">
        <ele>504.0</ele>
        <time>2021-02-14T13:36:21Z</time>
      </trkpt>
      <trkpt lat="43.454056" lon="-5.593598">
        <ele>504.0</ele>
        <time>2021-02-14T13:36:22Z</time>
      </trkpt>
      <trkpt lat="43.454044" lon="-5.5935955">
        <ele>504.0</ele>
        <time>2021-02-14T13:36:23Z</time>
      </trkpt>
      <trkpt lat="43.45403" lon="-5.593592">
        <ele>504.0</ele>
        <time>2021-02-14T13:36:24Z</time>
      </trkpt>
      <trkpt lat="43.454025" lon="-5.593592">
        <ele>504.0</ele>
        <time>2021-02-14T13:36:25Z</time>
      </trkpt>
      <trkpt lat="43.454014" lon="-5.5935936">
        <ele>504.0</ele>
        <time>2021-02-14T13:36:26Z</time>
      </trkpt>
      <trkpt lat="43.454002" lon="-5.593597">
        <ele>504.0</ele>
        <time>2021-02-14T13:36:27Z</time>
      </trkpt>
      <trkpt lat="43.453995" lon="-5.593599">
        <ele>504.0</ele>
        <time>2021-02-14T13:36:28Z</time>
      </trkpt>
      <trkpt lat="43.453987" lon="-5.5936">
        <ele>504.0</ele>
        <time>2021-02-14T13:36:29Z</time>
      </trkpt>
      <trkpt lat="43.45398" lon="-5.5936027">
        <ele>504.0</ele>
        <time>2021-02-14T13:36:30Z</time>
      </trkpt>
      <trkpt lat="43.453968" lon="-5.5936036">
        <ele>504.0</ele>
        <time>2021-02-14T13:36:31Z</time>
      </trkpt>
      <trkpt lat="43.453957" lon="-5.593605">
        <ele>504.0</ele>
        <time>2021-02-14T13:36:32Z</time>
      </trkpt>
      <trkpt lat="43.453945" lon="-5.593606">
        <ele>504.0</ele>
        <time>2021-02-14T13:36:33Z</time>
      </trkpt>
      <trkpt lat="43.453938" lon="-5.5936065">
        <ele>504.0</ele>
        <time>2021-02-14T13:36:34Z</time>
      </trkpt>
      <trkpt lat="43.453926" lon="-5.593609">
        <ele>504.0</ele>
        <time>2021-02-14T13:36:35Z</time>
      </trkpt>
      <trkpt lat="43.45391" lon="-5.59361">
        <ele>504.0</ele>
        <time>2021-02-14T13:36:36Z</time>
      </trkpt>
      <trkpt lat="43.453896" lon="-5.593609">
        <ele>504.0</ele>
        <time>2021-02-14T13:36:37Z</time>
      </trkpt>
      <trkpt lat="43.45388" lon="-5.5936084">
        <ele>504.0</ele>
        <time>2021-02-14T13:36:38Z</time>
      </trkpt>
      <trkpt lat="43.453865" lon="-5.593607">
        <ele>503.0</ele>
        <time>2021-02-14T13:36:39Z</time>
      </trkpt>
      <trkpt lat="43.45385" lon="-5.593607">
        <ele>503.0</ele>
        <time>2021-02-14T13:36:40Z</time>
      </trkpt>
      <trkpt lat="43.45384" lon="-5.593609">
        <ele>503.0</ele>
        <time>2021-02-14T13:36:41Z</time>
      </trkpt>
      <trkpt lat="43.45383" lon="-5.5936117">
        <ele>503.0</ele>
        <time>2021-02-14T13:36:42Z</time>
      </trkpt>
      <trkpt lat="43.453815" lon="-5.5936136">
        <ele>503.0</ele>
        <time>2021-02-14T13:36:43Z</time>
      </trkpt>
      <trkpt lat="43.453804" lon="-5.593616">
        <ele>503.0</ele>
        <time>2021-02-14T13:36:44Z</time>
      </trkpt>
      <trkpt lat="43.453793" lon="-5.5936174">
        <ele>503.0</ele>
        <time>2021-02-14T13:36:45Z</time>
      </trkpt>
      <trkpt lat="43.453785" lon="-5.5936184">
        <ele>503.0</ele>
        <time>2021-02-14T13:36:46Z</time>
      </trkpt>
      <trkpt lat="43.453773" lon="-5.593623">
        <ele>503.0</ele>
        <time>2021-02-14T13:36:47Z</time>
      </trkpt>
      <trkpt lat="43.45376" lon="-5.593629">
        <ele>503.0</ele>
        <time>2021-02-14T13:36:48Z</time>
      </trkpt>
      <trkpt lat="43.453747" lon="-5.593633">
        <ele>503.0</ele>
        <time>2021-02-14T13:36:49Z</time>
      </trkpt>
      <trkpt lat="43.453735" lon="-5.593635">
        <ele>502.0</ele>
        <time>2021-02-14T13:36:50Z</time>
      </trkpt>
      <trkpt lat="43.453728" lon="-5.593636">
        <ele>502.0</ele>
        <time>2021-02-14T13:36:51Z</time>
      </trkpt>
      <trkpt lat="43.453716" lon="-5.593634">
        <ele>502.0</ele>
        <time>2021-02-14T13:36:52Z</time>
      </trkpt>
      <trkpt lat="43.453705" lon="-5.5936294">
        <ele>502.0</ele>
        <time>2021-02-14T13:36:53Z</time>
      </trkpt>
      <trkpt lat="43.453697" lon="-5.593623">
        <ele>502.0</ele>
        <time>2021-02-14T13:36:54Z</time>
      </trkpt>
      <trkpt lat="43.45369" lon="-5.593614">
        <ele>502.0</ele>
        <time>2021-02-14T13:36:55Z</time>
      </trkpt>
      <trkpt lat="43.453682" lon="-5.5936065">
        <ele>502.0</ele>
        <time>2021-02-14T13:36:56Z</time>
      </trkpt>
      <trkpt lat="43.453674" lon="-5.5936007">
        <ele>502.0</ele>
        <time>2021-02-14T13:36:57Z</time>
      </trkpt>
      <trkpt lat="43.45367" lon="-5.5935955">
        <ele>501.0</ele>
        <time>2021-02-14T13:36:58Z</time>
      </trkpt>
      <trkpt lat="43.45366" lon="-5.593591">
        <ele>501.0</ele>
        <time>2021-02-14T13:36:59Z</time>
      </trkpt>
      <trkpt lat="43.45365" lon="-5.5935864">
        <ele>501.0</ele>
        <time>2021-02-14T13:37:00Z</time>
      </trkpt>
      <trkpt lat="43.453636" lon="-5.593584">
        <ele>501.0</ele>
        <time>2021-02-14T13:37:01Z</time>
      </trkpt>
      <trkpt lat="43.45362" lon="-5.5935817">
        <ele>501.0</ele>
        <time>2021-02-14T13:37:02Z</time>
      </trkpt>
      <trkpt lat="43.45361" lon="-5.5935774">
        <ele>501.0</ele>
        <time>2021-02-14T13:37:03Z</time>
      </trkpt>
      <trkpt lat="43.453594" lon="-5.5935707">
        <ele>501.0</ele>
        <time>2021-02-14T13:37:04Z</time>
      </trkpt>
      <trkpt lat="43.453583" lon="-5.593561">
        <ele>501.0</ele>
        <time>2021-02-14T13:37:05Z</time>
      </trkpt>
      <trkpt lat="43.45357" lon="-5.593551">
        <ele>501.0</ele>
        <time>2021-02-14T13:37:06Z</time>
      </trkpt>
      <trkpt lat="43.453564" lon="-5.593543">
        <ele>501.0</ele>
        <time>2021-02-14T13:37:07Z</time>
      </trkpt>
      <trkpt lat="43.453552" lon="-5.5935354">
        <ele>500.0</ele>
        <time>2021-02-14T13:37:08Z</time>
      </trkpt>
      <trkpt lat="43.45354" lon="-5.593527">
        <ele>500.0</ele>
        <time>2021-02-14T13:37:09Z</time>
      </trkpt>
      <trkpt lat="43.453533" lon="-5.5935187">
        <ele>500.0</ele>
        <time>2021-02-14T13:37:10Z</time>
      </trkpt>
      <trkpt lat="43.453526" lon="-5.5935097">
        <ele>500.0</ele>
        <time>2021-02-14T13:37:11Z</time>
      </trkpt>
      <trkpt lat="43.453518" lon="-5.5935025">
        <ele>500.0</ele>
        <time>2021-02-14T13:37:12Z</time>
      </trkpt>
      <trkpt lat="43.45351" lon="-5.5934963">
        <ele>500.0</ele>
        <time>2021-02-14T13:37:13Z</time>
      </trkpt>
      <trkpt lat="43.453503" lon="-5.5934887">
        <ele>500.0</ele>
        <time>2021-02-14T13:37:14Z</time>
      </trkpt>
      <trkpt lat="43.453495" lon="-5.593483">
        <ele>500.0</ele>
        <time>2021-02-14T13:37:15Z</time>
      </trkpt>
      <trkpt lat="43.453487" lon="-5.5934777">
        <ele>500.0</ele>
        <time>2021-02-14T13:37:16Z</time>
      </trkpt>
      <trkpt lat="43.453476" lon="-5.593474">
        <ele>500.0</ele>
        <time>2021-02-14T13:37:17Z</time>
      </trkpt>
      <trkpt lat="43.453472" lon="-5.59347">
        <ele>500.0</ele>
        <time>2021-02-14T13:37:18Z</time>
      </trkpt>
      <trkpt lat="43.45346" lon="-5.593466">
        <ele>499.0</ele>
        <time>2021-02-14T13:37:19Z</time>
      </trkpt>
      <trkpt lat="43.453445" lon="-5.5934606">
        <ele>499.0</ele>
        <time>2021-02-14T13:37:20Z</time>
      </trkpt>
      <trkpt lat="43.453434" lon="-5.593453">
        <ele>499.0</ele>
        <time>2021-02-14T13:37:21Z</time>
      </trkpt>
      <trkpt lat="43.453426" lon="-5.5934434">
        <ele>499.0</ele>
        <time>2021-02-14T13:37:22Z</time>
      </trkpt>
      <trkpt lat="43.453415" lon="-5.593433">
        <ele>499.0</ele>
        <time>2021-02-14T13:37:23Z</time>
      </trkpt>
      <trkpt lat="43.45341" lon="-5.5934234">
        <ele>498.0</ele>
        <time>2021-02-14T13:37:24Z</time>
      </trkpt>
      <trkpt lat="43.4534" lon="-5.5934143">
        <ele>498.0</ele>
        <time>2021-02-14T13:37:25Z</time>
      </trkpt>
      <trkpt lat="43.45339" lon="-5.5934052">
        <ele>498.0</ele>
        <time>2021-02-14T13:37:26Z</time>
      </trkpt>
      <trkpt lat="43.453377" lon="-5.593397">
        <ele>498.0</ele>
        <time>2021-02-14T13:37:27Z</time>
      </trkpt>
      <trkpt lat="43.453373" lon="-5.59339">
        <ele>497.0</ele>
        <time>2021-02-14T13:37:28Z</time>
      </trkpt>
      <trkpt lat="43.45336" lon="-5.593382">
        <ele>497.0</ele>
        <time>2021-02-14T13:37:29Z</time>
      </trkpt>
      <trkpt lat="43.453354" lon="-5.5933743">
        <ele>497.0</ele>
        <time>2021-02-14T13:37:30Z</time>
      </trkpt>
      <trkpt lat="43.453342" lon="-5.5933647">
        <ele>497.0</ele>
        <time>2021-02-14T13:37:31Z</time>
      </trkpt>
      <trkpt lat="43.45334" lon="-5.593353">
        <ele>496.0</ele>
        <time>2021-02-14T13:37:32Z</time>
      </trkpt>
      <trkpt lat="43.453327" lon="-5.5933414">
        <ele>496.0</ele>
        <time>2021-02-14T13:37:33Z</time>
      </trkpt>
      <trkpt lat="43.453323" lon="-5.5933313">
        <ele>496.0</ele>
        <time>2021-02-14T13:37:34Z</time>
      </trkpt>
      <trkpt lat="43.453316" lon="-5.5933228">
        <ele>496.0</ele>
        <time>2021-02-14T13:37:35Z</time>
      </trkpt>
      <trkpt lat="43.45331" lon="-5.593315">
        <ele>496.0</ele>
        <time>2021-02-14T13:37:36Z</time>
      </trkpt>
      <trkpt lat="43.4533" lon="-5.593308">
        <ele>496.0</ele>
        <time>2021-02-14T13:37:37Z</time>
      </trkpt>
      <trkpt lat="43.453297" lon="-5.593302">
        <ele>496.0</ele>
        <time>2021-02-14T13:37:38Z</time>
      </trkpt>
      <trkpt lat="43.453293" lon="-5.593294">
        <ele>495.0</ele>
        <time>2021-02-14T13:37:39Z</time>
      </trkpt>
      <trkpt lat="43.453285" lon="-5.593285">
        <ele>495.0</ele>
        <time>2021-02-14T13:37:40Z</time>
      </trkpt>
      <trkpt lat="43.45328" lon="-5.593274">
        <ele>495.0</ele>
        <time>2021-02-14T13:37:41Z</time>
      </trkpt>
      <trkpt lat="43.453278" lon="-5.5932627">
        <ele>495.0</ele>
        <time>2021-02-14T13:37:42Z</time>
      </trkpt>
      <trkpt lat="43.45327" lon="-5.5932517">
        <ele>495.0</ele>
        <time>2021-02-14T13:37:43Z</time>
      </trkpt>
      <trkpt lat="43.453262" lon="-5.593238">
        <ele>495.0</ele>
        <time>2021-02-14T13:37:44Z</time>
      </trkpt>
      <trkpt lat="43.453255" lon="-5.5932236">
        <ele>495.0</ele>
        <time>2021-02-14T13:37:45Z</time>
      </trkpt>
      <trkpt lat="43.45325" lon="-5.593216">
        <ele>495.0</ele>
        <time>2021-02-14T13:37:46Z</time>
      </trkpt>
      <trkpt lat="43.45324" lon="-5.593209">
        <ele>495.0</ele>
        <time>2021-02-14T13:37:47Z</time>
      </trkpt>
      <trkpt lat="43.453236" lon="-5.593201">
        <ele>494.0</ele>
        <time>2021-02-14T13:37:48Z</time>
      </trkpt>
      <trkpt lat="43.45323" lon="-5.5931935">
        <ele>494.0</ele>
        <time>2021-02-14T13:37:49Z</time>
      </trkpt>
      <trkpt lat="43.453224" lon="-5.5931845">
        <ele>494.0</ele>
        <time>2021-02-14T13:37:50Z</time>
      </trkpt>
      <trkpt lat="43.453217" lon="-5.593174">
        <ele>494.0</ele>
        <time>2021-02-14T13:37:51Z</time>
      </trkpt>
      <trkpt lat="43.453205" lon="-5.593164">
        <ele>494.0</ele>
        <time>2021-02-14T13:37:52Z</time>
      </trkpt>
      <trkpt lat="43.453197" lon="-5.5931582">
        <ele>494.0</ele>
        <time>2021-02-14T13:37:53Z</time>
      </trkpt>
      <trkpt lat="43.453194" lon="-5.5931506">
        <ele>493.0</ele>
        <time>2021-02-14T13:37:54Z</time>
      </trkpt>
      <trkpt lat="43.45319" lon="-5.5931377">
        <ele>493.0</ele>
        <time>2021-02-14T13:37:55Z</time>
      </trkpt>
      <trkpt lat="43.45318" lon="-5.5931263">
        <ele>493.0</ele>
        <time>2021-02-14T13:37:56Z</time>
      </trkpt>
      <trkpt lat="43.453175" lon="-5.5931168">
        <ele>493.0</ele>
        <time>2021-02-14T13:37:57Z</time>
      </trkpt>
      <trkpt lat="43.453167" lon="-5.5931087">
        <ele>493.0</ele>
        <time>2021-02-14T13:37:58Z</time>
      </trkpt>
      <trkpt lat="43.453163" lon="-5.5931015">
        <ele>492.0</ele>
        <time>2021-02-14T13:37:59Z</time>
      </trkpt>
      <trkpt lat="43.45316" lon="-5.593093">
        <ele>492.0</ele>
        <time>2021-02-14T13:38:00Z</time>
      </trkpt>
      <trkpt lat="43.45315" lon="-5.5930834">
        <ele>492.0</ele>
        <time>2021-02-14T13:38:01Z</time>
      </trkpt>
      <trkpt lat="43.453148" lon="-5.5930753">
        <ele>491.0</ele>
        <time>2021-02-14T13:38:02Z</time>
      </trkpt>
      <trkpt lat="43.453144" lon="-5.5930676">
        <ele>491.0</ele>
        <time>2021-02-14T13:38:03Z</time>
      </trkpt>
      <trkpt lat="43.453136" lon="-5.593061">
        <ele>491.0</ele>
        <time>2021-02-14T13:38:04Z</time>
      </trkpt>
      <trkpt lat="43.45313" lon="-5.5930543">
        <ele>491.0</ele>
        <time>2021-02-14T13:38:05Z</time>
      </trkpt>
      <trkpt lat="43.45312" lon="-5.5930457">
        <ele>491.0</ele>
        <time>2021-02-14T13:38:06Z</time>
      </trkpt>
      <trkpt lat="43.453114" lon="-5.5930386">
        <ele>491.0</ele>
        <time>2021-02-14T13:38:07Z</time>
      </trkpt>
      <trkpt lat="43.453102" lon="-5.593032">
        <ele>490.0</ele>
        <time>2021-02-14T13:38:08Z</time>
      </trkpt>
      <trkpt lat="43.4531" lon="-5.5930247">
        <ele>490.0</ele>
        <time>2021-02-14T13:38:09Z</time>
      </trkpt>
      <trkpt lat="43.45309" lon="-5.5930176">
        <ele>490.0</ele>
        <time>2021-02-14T13:38:10Z</time>
      </trkpt>
      <trkpt lat="43.453087" lon="-5.59301">
        <ele>490.0</ele>
        <time>2021-02-14T13:38:11Z</time>
      </trkpt>
      <trkpt lat="43.453075" lon="-5.5930014">
        <ele>489.0</ele>
        <time>2021-02-14T13:38:12Z</time>
      </trkpt>
      <trkpt lat="43.45307" lon="-5.5929947">
        <ele>489.0</ele>
        <time>2021-02-14T13:38:13Z</time>
      </trkpt>
      <trkpt lat="43.45306" lon="-5.5929894">
        <ele>489.0</ele>
        <time>2021-02-14T13:38:14Z</time>
      </trkpt>
      <trkpt lat="43.453056" lon="-5.5929832">
        <ele>489.0</ele>
        <time>2021-02-14T13:38:15Z</time>
      </trkpt>
      <trkpt lat="43.453053" lon="-5.592976">
        <ele>489.0</ele>
        <time>2021-02-14T13:38:16Z</time>
      </trkpt>
      <trkpt lat="43.45304" lon="-5.5929646">
        <ele>488.0</ele>
        <time>2021-02-14T13:38:17Z</time>
      </trkpt>
      <trkpt lat="43.45303" lon="-5.5929503">
        <ele>488.0</ele>
        <time>2021-02-14T13:38:18Z</time>
      </trkpt>
      <trkpt lat="43.453022" lon="-5.5929394">
        <ele>488.0</ele>
        <time>2021-02-14T13:38:19Z</time>
      </trkpt>
      <trkpt lat="43.45301" lon="-5.592931">
        <ele>488.0</ele>
        <time>2021-02-14T13:38:20Z</time>
      </trkpt>
      <trkpt lat="43.453" lon="-5.5929236">
        <ele>488.0</ele>
        <time>2021-02-14T13:38:21Z</time>
      </trkpt>
      <trkpt lat="43.452988" lon="-5.592917">
        <ele>488.0</ele>
        <time>2021-02-14T13:38:22Z</time>
      </trkpt>
      <trkpt lat="43.45298" lon="-5.5929112">
        <ele>487.0</ele>
        <time>2021-02-14T13:38:23Z</time>
      </trkpt>
      <trkpt lat="43.452972" lon="-5.592905">
        <ele>487.0</ele>
        <time>2021-02-14T13:38:24Z</time>
      </trkpt>
      <trkpt lat="43.452965" lon="-5.5929">
        <ele>487.0</ele>
        <time>2021-02-14T13:38:24Z</time>
      </trkpt>
      <trkpt lat="43.452957" lon="-5.5928936">
        <ele>487.0</ele>
        <time>2021-02-14T13:38:25Z</time>
      </trkpt>
      <trkpt lat="43.45295" lon="-5.5928903">
        <ele>487.0</ele>
        <time>2021-02-14T13:38:26Z</time>
      </trkpt>
      <trkpt lat="43.452938" lon="-5.592888">
        <ele>487.0</ele>
        <time>2021-02-14T13:38:27Z</time>
      </trkpt>
      <trkpt lat="43.452927" lon="-5.592884">
        <ele>487.0</ele>
        <time>2021-02-14T13:38:28Z</time>
      </trkpt>
      <trkpt lat="43.45291" lon="-5.592879">
        <ele>486.0</ele>
        <time>2021-02-14T13:38:29Z</time>
      </trkpt>
      <trkpt lat="43.452904" lon="-5.5928717">
        <ele>486.0</ele>
        <time>2021-02-14T13:38:30Z</time>
      </trkpt>
      <trkpt lat="43.45289" lon="-5.5928655">
        <ele>486.0</ele>
        <time>2021-02-14T13:38:31Z</time>
      </trkpt>
      <trkpt lat="43.452873" lon="-5.592857">
        <ele>486.0</ele>
        <time>2021-02-14T13:38:32Z</time>
      </trkpt>
      <trkpt lat="43.45286" lon="-5.592849">
        <ele>486.0</ele>
        <time>2021-02-14T13:38:33Z</time>
      </trkpt>
      <trkpt lat="43.45285" lon="-5.592841">
        <ele>486.0</ele>
        <time>2021-02-14T13:38:34Z</time>
      </trkpt>
      <trkpt lat="43.452843" lon="-5.592834">
        <ele>486.0</ele>
        <time>2021-02-14T13:38:35Z</time>
      </trkpt>
      <trkpt lat="43.45283" lon="-5.5928273">
        <ele>486.0</ele>
        <time>2021-02-14T13:38:36Z</time>
      </trkpt>
      <trkpt lat="43.452816" lon="-5.592821">
        <ele>486.0</ele>
        <time>2021-02-14T13:38:37Z</time>
      </trkpt>
      <trkpt lat="43.452805" lon="-5.592815">
        <ele>486.0</ele>
        <time>2021-02-14T13:38:38Z</time>
      </trkpt>
      <trkpt lat="43.452793" lon="-5.5928082">
        <ele>485.0</ele>
        <time>2021-02-14T13:38:39Z</time>
      </trkpt>
      <trkpt lat="43.452785" lon="-5.592802">
        <ele>485.0</ele>
        <time>2021-02-14T13:38:40Z</time>
      </trkpt>
      <trkpt lat="43.452774" lon="-5.592795">
        <ele>485.0</ele>
        <time>2021-02-14T13:38:41Z</time>
      </trkpt>
      <trkpt lat="43.452763" lon="-5.592787">
        <ele>484.0</ele>
        <time>2021-02-14T13:38:42Z</time>
      </trkpt>
      <trkpt lat="43.452755" lon="-5.592778">
        <ele>484.0</ele>
        <time>2021-02-14T13:38:43Z</time>
      </trkpt>
      <trkpt lat="43.452747" lon="-5.59277">
        <ele>484.0</ele>
        <time>2021-02-14T13:38:44Z</time>
      </trkpt>
      <trkpt lat="43.452744" lon="-5.592761">
        <ele>484.0</ele>
        <time>2021-02-14T13:38:45Z</time>
      </trkpt>
      <trkpt lat="43.452732" lon="-5.592752">
        <ele>483.0</ele>
        <time>2021-02-14T13:38:46Z</time>
      </trkpt>
      <trkpt lat="43.45273" lon="-5.592743">
        <ele>483.0</ele>
        <time>2021-02-14T13:38:47Z</time>
      </trkpt>
      <trkpt lat="43.452724" lon="-5.592734">
        <ele>483.0</ele>
        <time>2021-02-14T13:38:48Z</time>
      </trkpt>
      <trkpt lat="43.452717" lon="-5.592727">
        <ele>483.0</ele>
        <time>2021-02-14T13:38:49Z</time>
      </trkpt>
      <trkpt lat="43.45271" lon="-5.5927215">
        <ele>483.0</ele>
        <time>2021-02-14T13:38:50Z</time>
      </trkpt>
      <trkpt lat="43.4527" lon="-5.592715">
        <ele>482.0</ele>
        <time>2021-02-14T13:38:51Z</time>
      </trkpt>
      <trkpt lat="43.452694" lon="-5.592711">
        <ele>482.0</ele>
        <time>2021-02-14T13:38:52Z</time>
      </trkpt>
      <trkpt lat="43.452686" lon="-5.5927076">
        <ele>482.0</ele>
        <time>2021-02-14T13:38:53Z</time>
      </trkpt>
      <trkpt lat="43.45268" lon="-5.5927057">
        <ele>481.0</ele>
        <time>2021-02-14T13:38:54Z</time>
      </trkpt>
      <trkpt lat="43.45267" lon="-5.592703">
        <ele>481.0</ele>
        <time>2021-02-14T13:38:55Z</time>
      </trkpt>
      <trkpt lat="43.452663" lon="-5.592698">
        <ele>481.0</ele>
        <time>2021-02-14T13:38:56Z</time>
      </trkpt>
      <trkpt lat="43.452652" lon="-5.592692">
        <ele>481.0</ele>
        <time>2021-02-14T13:38:57Z</time>
      </trkpt>
      <trkpt lat="43.45264" lon="-5.5926847">
        <ele>480.0</ele>
        <time>2021-02-14T13:38:58Z</time>
      </trkpt>
      <trkpt lat="43.452625" lon="-5.5926766">
        <ele>480.0</ele>
        <time>2021-02-14T13:38:59Z</time>
      </trkpt>
      <trkpt lat="43.452614" lon="-5.5926695">
        <ele>480.0</ele>
        <time>2021-02-14T13:39:00Z</time>
      </trkpt>
      <trkpt lat="43.452606" lon="-5.5926642">
        <ele>480.0</ele>
        <time>2021-02-14T13:39:01Z</time>
      </trkpt>
      <trkpt lat="43.452595" lon="-5.592656">
        <ele>479.0</ele>
        <time>2021-02-14T13:39:02Z</time>
      </trkpt>
      <trkpt lat="43.452583" lon="-5.5926437">
        <ele>479.0</ele>
        <time>2021-02-14T13:39:03Z</time>
      </trkpt>
      <trkpt lat="43.452576" lon="-5.592631">
        <ele>479.0</ele>
        <time>2021-02-14T13:39:04Z</time>
      </trkpt>
      <trkpt lat="43.452568" lon="-5.592617">
        <ele>479.0</ele>
        <time>2021-02-14T13:39:05Z</time>
      </trkpt>
      <trkpt lat="43.45256" lon="-5.592602">
        <ele>478.0</ele>
        <time>2021-02-14T13:39:06Z</time>
      </trkpt>
      <trkpt lat="43.452553" lon="-5.592589">
        <ele>478.0</ele>
        <time>2021-02-14T13:39:07Z</time>
      </trkpt>
      <trkpt lat="43.45255" lon="-5.5925756">
        <ele>478.0</ele>
        <time>2021-02-14T13:39:08Z</time>
      </trkpt>
      <trkpt lat="43.452545" lon="-5.5925617">
        <ele>477.0</ele>
        <time>2021-02-14T13:39:09Z</time>
      </trkpt>
      <trkpt lat="43.452545" lon="-5.5925484">
        <ele>477.0</ele>
        <time>2021-02-14T13:39:10Z</time>
      </trkpt>
      <trkpt lat="43.452538" lon="-5.5925355">
        <ele>477.0</ele>
        <time>2021-02-14T13:39:11Z</time>
      </trkpt>
      <trkpt lat="43.452534" lon="-5.592522">
        <ele>477.0</ele>
        <time>2021-02-14T13:39:12Z</time>
      </trkpt>
      <trkpt lat="43.452534" lon="-5.59251">
        <ele>476.0</ele>
        <time>2021-02-14T13:39:13Z</time>
      </trkpt>
      <trkpt lat="43.452534" lon="-5.5924973">
        <ele>476.0</ele>
        <time>2021-02-14T13:39:14Z</time>
      </trkpt>
      <trkpt lat="43.452538" lon="-5.592485">
        <ele>476.0</ele>
        <time>2021-02-14T13:39:15Z</time>
      </trkpt>
      <trkpt lat="43.452538" lon="-5.592473">
        <ele>476.0</ele>
        <time>2021-02-14T13:39:16Z</time>
      </trkpt>
      <trkpt lat="43.452545" lon="-5.5924625">
        <ele>476.0</ele>
        <time>2021-02-14T13:39:17Z</time>
      </trkpt>
      <trkpt lat="43.45255" lon="-5.5924525">
        <ele>476.0</ele>
        <time>2021-02-14T13:39:18Z</time>
      </trkpt>
      <trkpt lat="43.452553" lon="-5.5924416">
        <ele>476.0</ele>
        <time>2021-02-14T13:39:19Z</time>
      </trkpt>
      <trkpt lat="43.45256" lon="-5.5924306">
        <ele>476.0</ele>
        <time>2021-02-14T13:39:20Z</time>
      </trkpt>
      <trkpt lat="43.45256" lon="-5.5924177">
        <ele>476.0</ele>
        <time>2021-02-14T13:39:21Z</time>
      </trkpt>
      <trkpt lat="43.452564" lon="-5.5924053">
        <ele>476.0</ele>
        <time>2021-02-14T13:39:22Z</time>
      </trkpt>
      <trkpt lat="43.452568" lon="-5.592393">
        <ele>475.0</ele>
        <time>2021-02-14T13:39:23Z</time>
      </trkpt>
      <trkpt lat="43.452576" lon="-5.592382">
        <ele>475.0</ele>
        <time>2021-02-14T13:39:24Z</time>
      </trkpt>
      <trkpt lat="43.45258" lon="-5.5923724">
        <ele>475.0</ele>
        <time>2021-02-14T13:39:25Z</time>
      </trkpt>
      <trkpt lat="43.45259" lon="-5.5923643">
        <ele>475.0</ele>
        <time>2021-02-14T13:39:26Z</time>
      </trkpt>
      <trkpt lat="43.452595" lon="-5.5923567">
        <ele>475.0</ele>
        <time>2021-02-14T13:39:27Z</time>
      </trkpt>
      <trkpt lat="43.4526" lon="-5.5923476">
        <ele>475.0</ele>
        <time>2021-02-14T13:39:28Z</time>
      </trkpt>
      <trkpt lat="43.4526" lon="-5.5923386">
        <ele>475.0</ele>
        <time>2021-02-14T13:39:29Z</time>
      </trkpt>
      <trkpt lat="43.452606" lon="-5.5923305">
        <ele>475.0</ele>
        <time>2021-02-14T13:39:30Z</time>
      </trkpt>
      <trkpt lat="43.45261" lon="-5.592324">
        <ele>475.0</ele>
        <time>2021-02-14T13:39:31Z</time>
      </trkpt>
      <trkpt lat="43.452614" lon="-5.5923185">
        <ele>474.0</ele>
        <time>2021-02-14T13:39:32Z</time>
      </trkpt>
      <trkpt lat="43.452625" lon="-5.5923166">
        <ele>474.0</ele>
        <time>2021-02-14T13:39:33Z</time>
      </trkpt>
      <trkpt lat="43.452637" lon="-5.5923157">
        <ele>474.0</ele>
        <time>2021-02-14T13:39:34Z</time>
      </trkpt>
      <trkpt lat="43.45265" lon="-5.5923142">
        <ele>474.0</ele>
        <time>2021-02-14T13:39:35Z</time>
      </trkpt>
      <trkpt lat="43.452656" lon="-5.5923123">
        <ele>474.0</ele>
        <time>2021-02-14T13:39:36Z</time>
      </trkpt>
      <trkpt lat="43.452667" lon="-5.592309">
        <ele>474.0</ele>
        <time>2021-02-14T13:39:37Z</time>
      </trkpt>
      <trkpt lat="43.45268" lon="-5.5923047">
        <ele>474.0</ele>
        <time>2021-02-14T13:39:38Z</time>
      </trkpt>
      <trkpt lat="43.452686" lon="-5.592301">
        <ele>474.0</ele>
        <time>2021-02-14T13:39:39Z</time>
      </trkpt>
      <trkpt lat="43.452698" lon="-5.5922976">
        <ele>474.0</ele>
        <time>2021-02-14T13:39:40Z</time>
      </trkpt>
      <trkpt lat="43.452713" lon="-5.592294">
        <ele>474.0</ele>
        <time>2021-02-14T13:39:41Z</time>
      </trkpt>
      <trkpt lat="43.452724" lon="-5.5922933">
        <ele>474.0</ele>
        <time>2021-02-14T13:39:42Z</time>
      </trkpt>
      <trkpt lat="43.452732" lon="-5.5922923">
        <ele>474.0</ele>
        <time>2021-02-14T13:39:43Z</time>
      </trkpt>
      <trkpt lat="43.452744" lon="-5.592292">
        <ele>474.0</ele>
        <time>2021-02-14T13:39:44Z</time>
      </trkpt>
      <trkpt lat="43.452755" lon="-5.5922914">
        <ele>474.0</ele>
        <time>2021-02-14T13:39:45Z</time>
      </trkpt>
      <trkpt lat="43.45276" lon="-5.5922904">
        <ele>474.0</ele>
        <time>2021-02-14T13:39:46Z</time>
      </trkpt>
      <trkpt lat="43.45276" lon="-5.59229">
        <ele>474.0</ele>
        <time>2021-02-14T13:39:49Z</time>
      </trkpt>
      <trkpt lat="43.45276" lon="-5.59229">
        <ele>474.0</ele>
        <time>2021-02-14T13:39:50Z</time>
      </trkpt>
      <trkpt lat="43.45276" lon="-5.5922885">
        <ele>474.0</ele>
        <time>2021-02-14T13:39:51Z</time>
      </trkpt>
      <trkpt lat="43.45276" lon="-5.5922856">
        <ele>473.0</ele>
        <time>2021-02-14T13:39:52Z</time>
      </trkpt>
      <trkpt lat="43.452763" lon="-5.592281">
        <ele>473.0</ele>
        <time>2021-02-14T13:39:53Z</time>
      </trkpt>
      <trkpt lat="43.452774" lon="-5.5922747">
        <ele>473.0</ele>
        <time>2021-02-14T13:39:54Z</time>
      </trkpt>
      <trkpt lat="43.452785" lon="-5.592268">
        <ele>473.0</ele>
        <time>2021-02-14T13:39:55Z</time>
      </trkpt>
      <trkpt lat="43.452793" lon="-5.592262">
        <ele>473.0</ele>
        <time>2021-02-14T13:39:56Z</time>
      </trkpt>
      <trkpt lat="43.452805" lon="-5.5922565">
        <ele>473.0</ele>
        <time>2021-02-14T13:39:57Z</time>
      </trkpt>
      <trkpt lat="43.452816" lon="-5.5922494">
        <ele>473.0</ele>
        <time>2021-02-14T13:39:58Z</time>
      </trkpt>
      <trkpt lat="43.45283" lon="-5.5922446">
        <ele>473.0</ele>
        <time>2021-02-14T13:39:59Z</time>
      </trkpt>
      <trkpt lat="43.452843" lon="-5.592242">
        <ele>473.0</ele>
        <time>2021-02-14T13:40:00Z</time>
      </trkpt>
      <trkpt lat="43.45285" lon="-5.5922394">
        <ele>473.0</ele>
        <time>2021-02-14T13:40:01Z</time>
      </trkpt>
      <trkpt lat="43.452866" lon="-5.592232">
        <ele>473.0</ele>
        <time>2021-02-14T13:40:02Z</time>
      </trkpt>
      <trkpt lat="43.452877" lon="-5.592222">
        <ele>473.0</ele>
        <time>2021-02-14T13:40:03Z</time>
      </trkpt>
      <trkpt lat="43.452892" lon="-5.5922127">
        <ele>472.0</ele>
        <time>2021-02-14T13:40:04Z</time>
      </trkpt>
      <trkpt lat="43.452904" lon="-5.592207">
        <ele>472.0</ele>
        <time>2021-02-14T13:40:05Z</time>
      </trkpt>
      <trkpt lat="43.45291" lon="-5.592202">
        <ele>472.0</ele>
        <time>2021-02-14T13:40:06Z</time>
      </trkpt>
      <trkpt lat="43.452923" lon="-5.592197">
        <ele>472.0</ele>
        <time>2021-02-14T13:40:07Z</time>
      </trkpt>
      <trkpt lat="43.452934" lon="-5.5921946">
        <ele>472.0</ele>
        <time>2021-02-14T13:40:08Z</time>
      </trkpt>
      <trkpt lat="43.45294" lon="-5.5921926">
        <ele>472.0</ele>
        <time>2021-02-14T13:40:09Z</time>
      </trkpt>
      <trkpt lat="43.452953" lon="-5.592191">
        <ele>472.0</ele>
        <time>2021-02-14T13:40:10Z</time>
      </trkpt>
      <trkpt lat="43.452965" lon="-5.5921907">
        <ele>472.0</ele>
        <time>2021-02-14T13:40:11Z</time>
      </trkpt>
      <trkpt lat="43.45297" lon="-5.5921893">
        <ele>472.0</ele>
        <time>2021-02-14T13:40:13Z</time>
      </trkpt>
      <trkpt lat="43.45298" lon="-5.5921874">
        <ele>472.0</ele>
        <time>2021-02-14T13:40:13Z</time>
      </trkpt>
      <trkpt lat="43.452988" lon="-5.5921884">
        <ele>472.0</ele>
        <time>2021-02-14T13:40:14Z</time>
      </trkpt>
      <trkpt lat="43.453" lon="-5.5921903">
        <ele>472.0</ele>
        <time>2021-02-14T13:40:15Z</time>
      </trkpt>
      <trkpt lat="43.45301" lon="-5.5921926">
        <ele>472.0</ele>
        <time>2021-02-14T13:40:16Z</time>
      </trkpt>
      <trkpt lat="43.453014" lon="-5.592196">
        <ele>472.0</ele>
        <time>2021-02-14T13:40:17Z</time>
      </trkpt>
      <trkpt lat="43.453026" lon="-5.5922">
        <ele>471.0</ele>
        <time>2021-02-14T13:40:18Z</time>
      </trkpt>
      <trkpt lat="43.45303" lon="-5.5922008">
        <ele>471.0</ele>
        <time>2021-02-14T13:40:19Z</time>
      </trkpt>
      <trkpt lat="43.45304" lon="-5.5922003">
        <ele>471.0</ele>
        <time>2021-02-14T13:40:20Z</time>
      </trkpt>
      <trkpt lat="43.453053" lon="-5.5922008">
        <ele>471.0</ele>
        <time>2021-02-14T13:40:21Z</time>
      </trkpt>
      <trkpt lat="43.45306" lon="-5.5922003">
        <ele>471.0</ele>
        <time>2021-02-14T13:40:22Z</time>
      </trkpt>
      <trkpt lat="43.45307" lon="-5.5922">
        <ele>471.0</ele>
        <time>2021-02-14T13:40:23Z</time>
      </trkpt>
      <trkpt lat="43.453075" lon="-5.5922">
        <ele>471.0</ele>
        <time>2021-02-14T13:40:24Z</time>
      </trkpt>
      <trkpt lat="43.453087" lon="-5.5922003">
        <ele>471.0</ele>
        <time>2021-02-14T13:40:25Z</time>
      </trkpt>
      <trkpt lat="43.45309" lon="-5.5922003">
        <ele>471.0</ele>
        <time>2021-02-14T13:40:26Z</time>
      </trkpt>
      <trkpt lat="43.453106" lon="-5.5922">
        <ele>471.0</ele>
        <time>2021-02-14T13:40:27Z</time>
      </trkpt>
      <trkpt lat="43.453117" lon="-5.592198">
        <ele>471.0</ele>
        <time>2021-02-14T13:40:28Z</time>
      </trkpt>
      <trkpt lat="43.45312" lon="-5.5921965">
        <ele>471.0</ele>
        <time>2021-02-14T13:40:29Z</time>
      </trkpt>
      <trkpt lat="43.453133" lon="-5.592191">
        <ele>471.0</ele>
        <time>2021-02-14T13:40:37Z</time>
      </trkpt>
      <trkpt lat="43.453136" lon="-5.592192">
        <ele>471.0</ele>
        <time>2021-02-14T13:40:38Z</time>
      </trkpt>
      <trkpt lat="43.453136" lon="-5.5921926">
        <ele>471.0</ele>
        <time>2021-02-14T13:40:39Z</time>
      </trkpt>
      <trkpt lat="43.453144" lon="-5.592194">
        <ele>471.0</ele>
        <time>2021-02-14T13:40:40Z</time>
      </trkpt>
      <trkpt lat="43.453144" lon="-5.5921946">
        <ele>471.0</ele>
        <time>2021-02-14T13:40:41Z</time>
      </trkpt>
      <trkpt lat="43.453148" lon="-5.592194">
        <ele>471.0</ele>
        <time>2021-02-14T13:40:42Z</time>
      </trkpt>
      <trkpt lat="43.45316" lon="-5.592194">
        <ele>471.0</ele>
        <time>2021-02-14T13:40:43Z</time>
      </trkpt>
      <trkpt lat="43.453163" lon="-5.5921946">
        <ele>471.0</ele>
        <time>2021-02-14T13:40:44Z</time>
      </trkpt>
      <trkpt lat="43.453167" lon="-5.5921965">
        <ele>471.0</ele>
        <time>2021-02-14T13:40:45Z</time>
      </trkpt>
      <trkpt lat="43.453175" lon="-5.592199">
        <ele>471.0</ele>
        <time>2021-02-14T13:40:46Z</time>
      </trkpt>
      <trkpt lat="43.453175" lon="-5.5922017">
        <ele>471.0</ele>
        <time>2021-02-14T13:40:47Z</time>
      </trkpt>
      <trkpt lat="43.45319" lon="-5.5922046">
        <ele>471.0</ele>
        <time>2021-02-14T13:40:49Z</time>
      </trkpt>
      <trkpt lat="43.45319" lon="-5.5922046">
        <ele>471.0</ele>
        <time>2021-02-14T13:40:50Z</time>
      </trkpt>
      <trkpt lat="43.45319" lon="-5.5922055">
        <ele>471.0</ele>
        <time>2021-02-14T13:40:51Z</time>
      </trkpt>
      <trkpt lat="43.45319" lon="-5.5922055">
        <ele>471.0</ele>
        <time>2021-02-14T13:40:52Z</time>
      </trkpt>
      <trkpt lat="43.453205" lon="-5.5922017">
        <ele>471.0</ele>
        <time>2021-02-14T13:40:55Z</time>
      </trkpt>
      <trkpt lat="43.453205" lon="-5.5922003">
        <ele>471.0</ele>
        <time>2021-02-14T13:40:56Z</time>
      </trkpt>
      <trkpt lat="43.45321" lon="-5.5922">
        <ele>471.0</ele>
        <time>2021-02-14T13:40:57Z</time>
      </trkpt>
      <trkpt lat="43.453217" lon="-5.592199">
        <ele>471.0</ele>
        <time>2021-02-14T13:40:58Z</time>
      </trkpt>
      <trkpt lat="43.453224" lon="-5.592198">
        <ele>471.0</ele>
        <time>2021-02-14T13:40:59Z</time>
      </trkpt>
      <trkpt lat="43.45323" lon="-5.592197">
        <ele>471.0</ele>
        <time>2021-02-14T13:41:00Z</time>
      </trkpt>
      <trkpt lat="43.45324" lon="-5.592199">
        <ele>470.0</ele>
        <time>2021-02-14T13:41:01Z</time>
      </trkpt>
      <trkpt lat="43.453247" lon="-5.5922003">
        <ele>470.0</ele>
        <time>2021-02-14T13:41:02Z</time>
      </trkpt>
      <trkpt lat="43.453255" lon="-5.5922017">
        <ele>470.0</ele>
        <time>2021-02-14T13:41:03Z</time>
      </trkpt>
      <trkpt lat="43.453266" lon="-5.592202">
        <ele>470.0</ele>
        <time>2021-02-14T13:41:04Z</time>
      </trkpt>
      <trkpt lat="43.453278" lon="-5.5922027">
        <ele>470.0</ele>
        <time>2021-02-14T13:41:05Z</time>
      </trkpt>
      <trkpt lat="43.45328" lon="-5.592204">
        <ele>469.0</ele>
        <time>2021-02-14T13:41:06Z</time>
      </trkpt>
      <trkpt lat="43.453293" lon="-5.592207">
        <ele>469.0</ele>
        <time>2021-02-14T13:41:07Z</time>
      </trkpt>
      <trkpt lat="43.453297" lon="-5.5922093">
        <ele>469.0</ele>
        <time>2021-02-14T13:41:08Z</time>
      </trkpt>
      <trkpt lat="43.45331" lon="-5.592213">
        <ele>469.0</ele>
        <time>2021-02-14T13:41:09Z</time>
      </trkpt>
      <trkpt lat="43.453312" lon="-5.5922203">
        <ele>469.0</ele>
        <time>2021-02-14T13:41:10Z</time>
      </trkpt>
      <trkpt lat="43.453323" lon="-5.592227">
        <ele>469.0</ele>
        <time>2021-02-14T13:41:11Z</time>
      </trkpt>
      <trkpt lat="43.45333" lon="-5.592232">
        <ele>468.0</ele>
        <time>2021-02-14T13:41:12Z</time>
      </trkpt>
      <trkpt lat="43.45334" lon="-5.592235">
        <ele>468.0</ele>
        <time>2021-02-14T13:41:13Z</time>
      </trkpt>
      <trkpt lat="43.453354" lon="-5.5922356">
        <ele>468.0</ele>
        <time>2021-02-14T13:41:14Z</time>
      </trkpt>
      <trkpt lat="43.45336" lon="-5.5922337">
        <ele>468.0</ele>
        <time>2021-02-14T13:41:15Z</time>
      </trkpt>
      <trkpt lat="43.453373" lon="-5.5922303">
        <ele>468.0</ele>
        <time>2021-02-14T13:41:16Z</time>
      </trkpt>
      <trkpt lat="43.45339" lon="-5.592227">
        <ele>467.0</ele>
        <time>2021-02-14T13:41:17Z</time>
      </trkpt>
      <trkpt lat="43.453403" lon="-5.592225">
        <ele>467.0</ele>
        <time>2021-02-14T13:41:18Z</time>
      </trkpt>
      <trkpt lat="43.45342" lon="-5.5922246">
        <ele>467.0</ele>
        <time>2021-02-14T13:41:19Z</time>
      </trkpt>
      <trkpt lat="43.45343" lon="-5.592224">
        <ele>467.0</ele>
        <time>2021-02-14T13:41:20Z</time>
      </trkpt>
      <trkpt lat="43.453445" lon="-5.592224">
        <ele>466.0</ele>
        <time>2021-02-14T13:41:21Z</time>
      </trkpt>
      <trkpt lat="43.45345" lon="-5.5922227">
        <ele>466.0</ele>
        <time>2021-02-14T13:41:22Z</time>
      </trkpt>
      <trkpt lat="43.45346" lon="-5.592224">
        <ele>466.0</ele>
        <time>2021-02-14T13:41:23Z</time>
      </trkpt>
      <trkpt lat="43.453465" lon="-5.592225">
        <ele>466.0</ele>
        <time>2021-02-14T13:41:24Z</time>
      </trkpt>
      <trkpt lat="43.453472" lon="-5.592227">
        <ele>466.0</ele>
        <time>2021-02-14T13:41:25Z</time>
      </trkpt>
      <trkpt lat="43.45349" lon="-5.592236">
        <ele>466.0</ele>
        <time>2021-02-14T13:41:27Z</time>
      </trkpt>
      <trkpt lat="43.453495" lon="-5.592239">
        <ele>465.0</ele>
        <time>2021-02-14T13:41:28Z</time>
      </trkpt>
      <trkpt lat="43.453495" lon="-5.5922446">
        <ele>465.0</ele>
        <time>2021-02-14T13:41:29Z</time>
      </trkpt>
      <trkpt lat="43.453495" lon="-5.592254">
        <ele>465.0</ele>
        <time>2021-02-14T13:41:30Z</time>
      </trkpt>
      <trkpt lat="43.453503" lon="-5.5922656">
        <ele>465.0</ele>
        <time>2021-02-14T13:41:31Z</time>
      </trkpt>
      <trkpt lat="43.453503" lon="-5.592277">
        <ele>464.0</ele>
        <time>2021-02-14T13:41:32Z</time>
      </trkpt>
      <trkpt lat="43.453533" lon="-5.5923233">
        <ele>464.0</ele>
        <time>2021-02-14T13:41:34Z</time>
      </trkpt>
      <trkpt lat="43.453533" lon="-5.592325">
        <ele>464.0</ele>
        <time>2021-02-14T13:41:35Z</time>
      </trkpt>
      <trkpt lat="43.453537" lon="-5.5923295">
        <ele>464.0</ele>
        <time>2021-02-14T13:41:36Z</time>
      </trkpt>
      <trkpt lat="43.45354" lon="-5.5923347">
        <ele>464.0</ele>
        <time>2021-02-14T13:41:37Z</time>
      </trkpt>
      <trkpt lat="43.453556" lon="-5.5923386">
        <ele>463.0</ele>
        <time>2021-02-14T13:41:38Z</time>
      </trkpt>
      <trkpt lat="43.453568" lon="-5.5923405">
        <ele>463.0</ele>
        <time>2021-02-14T13:41:39Z</time>
      </trkpt>
      <trkpt lat="43.453583" lon="-5.5923424">
        <ele>463.0</ele>
        <time>2021-02-14T13:41:40Z</time>
      </trkpt>
      <trkpt lat="43.453598" lon="-5.5923443">
        <ele>463.0</ele>
        <time>2021-02-14T13:41:41Z</time>
      </trkpt>
      <trkpt lat="43.453613" lon="-5.5923443">
        <ele>463.0</ele>
        <time>2021-02-14T13:41:42Z</time>
      </trkpt>
      <trkpt lat="43.45363" lon="-5.5923457">
        <ele>463.0</ele>
        <time>2021-02-14T13:41:43Z</time>
      </trkpt>
      <trkpt lat="43.45365" lon="-5.5923448">
        <ele>463.0</ele>
        <time>2021-02-14T13:41:44Z</time>
      </trkpt>
      <trkpt lat="43.453667" lon="-5.592344">
        <ele>463.0</ele>
        <time>2021-02-14T13:41:45Z</time>
      </trkpt>
      <trkpt lat="43.453682" lon="-5.592344">
        <ele>463.0</ele>
        <time>2021-02-14T13:41:46Z</time>
      </trkpt>
      <trkpt lat="43.45369" lon="-5.5923424">
        <ele>463.0</ele>
        <time>2021-02-14T13:41:47Z</time>
      </trkpt>
      <trkpt lat="43.4537" lon="-5.5923386">
        <ele>463.0</ele>
        <time>2021-02-14T13:41:48Z</time>
      </trkpt>
      <trkpt lat="43.453716" lon="-5.592333">
        <ele>463.0</ele>
        <time>2021-02-14T13:41:49Z</time>
      </trkpt>
      <trkpt lat="43.45373" lon="-5.592326">
        <ele>463.0</ele>
        <time>2021-02-14T13:41:50Z</time>
      </trkpt>
      <trkpt lat="43.453747" lon="-5.59232">
        <ele>462.0</ele>
        <time>2021-02-14T13:41:51Z</time>
      </trkpt>
      <trkpt lat="43.453762" lon="-5.5923142">
        <ele>462.0</ele>
        <time>2021-02-14T13:41:52Z</time>
      </trkpt>
      <trkpt lat="43.453777" lon="-5.592308">
        <ele>462.0</ele>
        <time>2021-02-14T13:41:53Z</time>
      </trkpt>
      <trkpt lat="43.45379" lon="-5.592298">
        <ele>462.0</ele>
        <time>2021-02-14T13:41:54Z</time>
      </trkpt>
      <trkpt lat="43.4538" lon="-5.5922875">
        <ele>462.0</ele>
        <time>2021-02-14T13:41:55Z</time>
      </trkpt>
      <trkpt lat="43.453804" lon="-5.5922766">
        <ele>462.0</ele>
        <time>2021-02-14T13:41:56Z</time>
      </trkpt>
      <trkpt lat="43.453815" lon="-5.592267">
        <ele>462.0</ele>
        <time>2021-02-14T13:41:57Z</time>
      </trkpt>
      <trkpt lat="43.453823" lon="-5.592258">
        <ele>462.0</ele>
        <time>2021-02-14T13:41:58Z</time>
      </trkpt>
      <trkpt lat="43.453835" lon="-5.5922494">
        <ele>462.0</ele>
        <time>2021-02-14T13:41:59Z</time>
      </trkpt>
      <trkpt lat="43.453846" lon="-5.5922413">
        <ele>461.0</ele>
        <time>2021-02-14T13:42:00Z</time>
      </trkpt>
      <trkpt lat="43.453854" lon="-5.592233">
        <ele>461.0</ele>
        <time>2021-02-14T13:42:01Z</time>
      </trkpt>
      <trkpt lat="43.453865" lon="-5.592223">
        <ele>461.0</ele>
        <time>2021-02-14T13:42:02Z</time>
      </trkpt>
      <trkpt lat="43.45388" lon="-5.5922117">
        <ele>461.0</ele>
        <time>2021-02-14T13:42:03Z</time>
      </trkpt>
      <trkpt lat="43.45389" lon="-5.5922">
        <ele>461.0</ele>
        <time>2021-02-14T13:42:04Z</time>
      </trkpt>
      <trkpt lat="43.4539" lon="-5.5921874">
        <ele>461.0</ele>
        <time>2021-02-14T13:42:05Z</time>
      </trkpt>
      <trkpt lat="43.453915" lon="-5.5921764">
        <ele>461.0</ele>
        <time>2021-02-14T13:42:06Z</time>
      </trkpt>
      <trkpt lat="43.453922" lon="-5.592166">
        <ele>461.0</ele>
        <time>2021-02-14T13:42:07Z</time>
      </trkpt>
      <trkpt lat="43.45393" lon="-5.5921555">
        <ele>461.0</ele>
        <time>2021-02-14T13:42:08Z</time>
      </trkpt>
      <trkpt lat="43.45394" lon="-5.59215">
        <ele>461.0</ele>
        <time>2021-02-14T13:42:09Z</time>
      </trkpt>
      <trkpt lat="43.453953" lon="-5.5921474">
        <ele>461.0</ele>
        <time>2021-02-14T13:42:10Z</time>
      </trkpt>
      <trkpt lat="43.45396" lon="-5.5921445">
        <ele>461.0</ele>
        <time>2021-02-14T13:42:11Z</time>
      </trkpt>
      <trkpt lat="43.453968" lon="-5.592142">
        <ele>461.0</ele>
        <time>2021-02-14T13:42:12Z</time>
      </trkpt>
      <trkpt lat="43.45398" lon="-5.5921383">
        <ele>461.0</ele>
        <time>2021-02-14T13:42:13Z</time>
      </trkpt>
      <trkpt lat="43.453983" lon="-5.5921364">
        <ele>461.0</ele>
        <time>2021-02-14T13:42:14Z</time>
      </trkpt>
      <trkpt lat="43.453995" lon="-5.592135">
        <ele>461.0</ele>
        <time>2021-02-14T13:42:15Z</time>
      </trkpt>
      <trkpt lat="43.454002" lon="-5.592133">
        <ele>460.0</ele>
        <time>2021-02-14T13:42:16Z</time>
      </trkpt>
      <trkpt lat="43.454014" lon="-5.5921273">
        <ele>460.0</ele>
        <time>2021-02-14T13:42:17Z</time>
      </trkpt>
      <trkpt lat="43.454018" lon="-5.59212">
        <ele>460.0</ele>
        <time>2021-02-14T13:42:18Z</time>
      </trkpt>
      <trkpt lat="43.45403" lon="-5.592114">
        <ele>460.0</ele>
        <time>2021-02-14T13:42:19Z</time>
      </trkpt>
      <trkpt lat="43.45404" lon="-5.592109">
        <ele>460.0</ele>
        <time>2021-02-14T13:42:20Z</time>
      </trkpt>
      <trkpt lat="43.45405" lon="-5.5921044">
        <ele>460.0</ele>
        <time>2021-02-14T13:42:21Z</time>
      </trkpt>
      <trkpt lat="43.454063" lon="-5.5920997">
        <ele>460.0</ele>
        <time>2021-02-14T13:42:22Z</time>
      </trkpt>
      <trkpt lat="43.454075" lon="-5.592094">
        <ele>460.0</ele>
        <time>2021-02-14T13:42:23Z</time>
      </trkpt>
      <trkpt lat="43.45408" lon="-5.5920897">
        <ele>460.0</ele>
        <time>2021-02-14T13:42:24Z</time>
      </trkpt>
      <trkpt lat="43.45409" lon="-5.592082">
        <ele>460.0</ele>
        <time>2021-02-14T13:42:25Z</time>
      </trkpt>
      <trkpt lat="43.454094" lon="-5.5920763">
        <ele>460.0</ele>
        <time>2021-02-14T13:42:26Z</time>
      </trkpt>
      <trkpt lat="43.454105" lon="-5.592073">
        <ele>460.0</ele>
        <time>2021-02-14T13:42:27Z</time>
      </trkpt>
      <trkpt lat="43.45412" lon="-5.5920725">
        <ele>459.0</ele>
        <time>2021-02-14T13:42:28Z</time>
      </trkpt>
      <trkpt lat="43.454132" lon="-5.5920725">
        <ele>459.0</ele>
        <time>2021-02-14T13:42:29Z</time>
      </trkpt>
      <trkpt lat="43.45414" lon="-5.5920725">
        <ele>459.0</ele>
        <time>2021-02-14T13:42:30Z</time>
      </trkpt>
      <trkpt lat="43.45415" lon="-5.5920715">
        <ele>459.0</ele>
        <time>2021-02-14T13:42:31Z</time>
      </trkpt>
      <trkpt lat="43.454163" lon="-5.5920687">
        <ele>459.0</ele>
        <time>2021-02-14T13:42:32Z</time>
      </trkpt>
      <trkpt lat="43.454174" lon="-5.592063">
        <ele>459.0</ele>
        <time>2021-02-14T13:42:33Z</time>
      </trkpt>
      <trkpt lat="43.45418" lon="-5.5920568">
        <ele>458.0</ele>
        <time>2021-02-14T13:42:34Z</time>
      </trkpt>
      <trkpt lat="43.454193" lon="-5.5920525">
        <ele>458.0</ele>
        <time>2021-02-14T13:42:35Z</time>
      </trkpt>
      <trkpt lat="43.454205" lon="-5.592047">
        <ele>458.0</ele>
        <time>2021-02-14T13:42:36Z</time>
      </trkpt>
      <trkpt lat="43.454212" lon="-5.5920424">
        <ele>458.0</ele>
        <time>2021-02-14T13:42:37Z</time>
      </trkpt>
      <trkpt lat="43.454224" lon="-5.5920386">
        <ele>458.0</ele>
        <time>2021-02-14T13:42:38Z</time>
      </trkpt>
      <trkpt lat="43.454235" lon="-5.592034">
        <ele>458.0</ele>
        <time>2021-02-14T13:42:39Z</time>
      </trkpt>
      <trkpt lat="43.45425" lon="-5.592032">
        <ele>458.0</ele>
        <time>2021-02-14T13:42:39Z</time>
      </trkpt>
      <trkpt lat="43.454258" lon="-5.5920286">
        <ele>458.0</ele>
        <time>2021-02-14T13:42:40Z</time>
      </trkpt>
      <trkpt lat="43.454273" lon="-5.5920267">
        <ele>458.0</ele>
        <time>2021-02-14T13:42:41Z</time>
      </trkpt>
      <trkpt lat="43.454285" lon="-5.5920258">
        <ele>458.0</ele>
        <time>2021-02-14T13:42:42Z</time>
      </trkpt>
      <trkpt lat="43.4543" lon="-5.592025">
        <ele>458.0</ele>
        <time>2021-02-14T13:42:43Z</time>
      </trkpt>
      <trkpt lat="43.45431" lon="-5.592025">
        <ele>458.0</ele>
        <time>2021-02-14T13:42:44Z</time>
      </trkpt>
      <trkpt lat="43.45432" lon="-5.5920258">
        <ele>458.0</ele>
        <time>2021-02-14T13:42:45Z</time>
      </trkpt>
      <trkpt lat="43.454327" lon="-5.5920267">
        <ele>457.0</ele>
        <time>2021-02-14T13:42:46Z</time>
      </trkpt>
      <trkpt lat="43.454334" lon="-5.5920258">
        <ele>457.0</ele>
        <time>2021-02-14T13:42:47Z</time>
      </trkpt>
      <trkpt lat="43.454346" lon="-5.592023">
        <ele>457.0</ele>
        <time>2021-02-14T13:42:48Z</time>
      </trkpt>
      <trkpt lat="43.454357" lon="-5.5920205">
        <ele>457.0</ele>
        <time>2021-02-14T13:42:49Z</time>
      </trkpt>
      <trkpt lat="43.45437" lon="-5.5920186">
        <ele>457.0</ele>
        <time>2021-02-14T13:42:50Z</time>
      </trkpt>
      <trkpt lat="43.454384" lon="-5.592018">
        <ele>457.0</ele>
        <time>2021-02-14T13:42:51Z</time>
      </trkpt>
      <trkpt lat="43.45439" lon="-5.592018">
        <ele>457.0</ele>
        <time>2021-02-14T13:42:52Z</time>
      </trkpt>
      <trkpt lat="43.454407" lon="-5.5920205">
        <ele>457.0</ele>
        <time>2021-02-14T13:42:53Z</time>
      </trkpt>
      <trkpt lat="43.45442" lon="-5.592021">
        <ele>456.0</ele>
        <time>2021-02-14T13:42:54Z</time>
      </trkpt>
      <trkpt lat="43.45443" lon="-5.592022">
        <ele>456.0</ele>
        <time>2021-02-14T13:42:55Z</time>
      </trkpt>
      <trkpt lat="43.454433" lon="-5.5920224">
        <ele>456.0</ele>
        <time>2021-02-14T13:42:56Z</time>
      </trkpt>
      <trkpt lat="43.454445" lon="-5.592023">
        <ele>456.0</ele>
        <time>2021-02-14T13:42:57Z</time>
      </trkpt>
      <trkpt lat="43.45446" lon="-5.592025">
        <ele>456.0</ele>
        <time>2021-02-14T13:42:58Z</time>
      </trkpt>
      <trkpt lat="43.45448" lon="-5.5920267">
        <ele>456.0</ele>
        <time>2021-02-14T13:42:59Z</time>
      </trkpt>
      <trkpt lat="43.454494" lon="-5.5920286">
        <ele>456.0</ele>
        <time>2021-02-14T13:43:00Z</time>
      </trkpt>
      <trkpt lat="43.45451" lon="-5.5920286">
        <ele>456.0</ele>
        <time>2021-02-14T13:43:01Z</time>
      </trkpt>
      <trkpt lat="43.454525" lon="-5.5920296">
        <ele>455.0</ele>
        <time>2021-02-14T13:43:02Z</time>
      </trkpt>
      <trkpt lat="43.454536" lon="-5.5920305">
        <ele>455.0</ele>
        <time>2021-02-14T13:43:03Z</time>
      </trkpt>
      <trkpt lat="43.45455" lon="-5.5920305">
        <ele>455.0</ele>
        <time>2021-02-14T13:43:04Z</time>
      </trkpt>
      <trkpt lat="43.454563" lon="-5.5920296">
        <ele>455.0</ele>
        <time>2021-02-14T13:43:05Z</time>
      </trkpt>
      <trkpt lat="43.45457" lon="-5.59203">
        <ele>455.0</ele>
        <time>2021-02-14T13:43:06Z</time>
      </trkpt>
      <trkpt lat="43.454582" lon="-5.5920324">
        <ele>455.0</ele>
        <time>2021-02-14T13:43:07Z</time>
      </trkpt>
      <trkpt lat="43.454594" lon="-5.5920362">
        <ele>454.0</ele>
        <time>2021-02-14T13:43:08Z</time>
      </trkpt>
      <trkpt lat="43.454597" lon="-5.5920377">
        <ele>454.0</ele>
        <time>2021-02-14T13:43:09Z</time>
      </trkpt>
      <trkpt lat="43.45461" lon="-5.5920405">
        <ele>454.0</ele>
        <time>2021-02-14T13:43:10Z</time>
      </trkpt>
      <trkpt lat="43.454613" lon="-5.5920424">
        <ele>454.0</ele>
        <time>2021-02-14T13:43:11Z</time>
      </trkpt>
      <trkpt lat="43.454617" lon="-5.5920444">
        <ele>454.0</ele>
        <time>2021-02-14T13:43:12Z</time>
      </trkpt>
      <trkpt lat="43.454628" lon="-5.592047">
        <ele>453.0</ele>
        <time>2021-02-14T13:43:13Z</time>
      </trkpt>
      <trkpt lat="43.45464" lon="-5.59205">
        <ele>453.0</ele>
        <time>2021-02-14T13:43:14Z</time>
      </trkpt>
      <trkpt lat="43.454647" lon="-5.5920506">
        <ele>453.0</ele>
        <time>2021-02-14T13:43:15Z</time>
      </trkpt>
      <trkpt lat="43.45466" lon="-5.592051">
        <ele>453.0</ele>
        <time>2021-02-14T13:43:16Z</time>
      </trkpt>
      <trkpt lat="43.454674" lon="-5.5920486">
        <ele>453.0</ele>
        <time>2021-02-14T13:43:17Z</time>
      </trkpt>
      <trkpt lat="43.454678" lon="-5.5920467">
        <ele>453.0</ele>
        <time>2021-02-14T13:43:18Z</time>
      </trkpt>
      <trkpt lat="43.45469" lon="-5.5920453">
        <ele>453.0</ele>
        <time>2021-02-14T13:43:19Z</time>
      </trkpt>
      <trkpt lat="43.454693" lon="-5.5920444">
        <ele>452.0</ele>
        <time>2021-02-14T13:43:20Z</time>
      </trkpt>
      <trkpt lat="43.4547" lon="-5.5920434">
        <ele>452.0</ele>
        <time>2021-02-14T13:43:21Z</time>
      </trkpt>
      <trkpt lat="43.45472" lon="-5.5920434">
        <ele>452.0</ele>
        <time>2021-02-14T13:43:25Z</time>
      </trkpt>
      <trkpt lat="43.45472" lon="-5.5920424">
        <ele>452.0</ele>
        <time>2021-02-14T13:43:26Z</time>
      </trkpt>
      <trkpt lat="43.45472" lon="-5.592039">
        <ele>452.0</ele>
        <time>2021-02-14T13:43:27Z</time>
      </trkpt>
      <trkpt lat="43.45472" lon="-5.592032">
        <ele>452.0</ele>
        <time>2021-02-14T13:43:28Z</time>
      </trkpt>
      <trkpt lat="43.45472" lon="-5.592024">
        <ele>452.0</ele>
        <time>2021-02-14T13:43:29Z</time>
      </trkpt>
      <trkpt lat="43.454723" lon="-5.5920143">
        <ele>452.0</ele>
        <time>2021-02-14T13:43:30Z</time>
      </trkpt>
      <trkpt lat="43.454723" lon="-5.5920053">
        <ele>452.0</ele>
        <time>2021-02-14T13:43:31Z</time>
      </trkpt>
      <trkpt lat="43.45472" lon="-5.591996">
        <ele>452.0</ele>
        <time>2021-02-14T13:43:32Z</time>
      </trkpt>
      <trkpt lat="43.454716" lon="-5.5919876">
        <ele>452.0</ele>
        <time>2021-02-14T13:43:33Z</time>
      </trkpt>
      <trkpt lat="43.45471" lon="-5.591978">
        <ele>452.0</ele>
        <time>2021-02-14T13:43:34Z</time>
      </trkpt>
      <trkpt lat="43.454704" lon="-5.591968">
        <ele>452.0</ele>
        <time>2021-02-14T13:43:35Z</time>
      </trkpt>
      <trkpt lat="43.4547" lon="-5.5919557">
        <ele>452.0</ele>
        <time>2021-02-14T13:43:36Z</time>
      </trkpt>
      <trkpt lat="43.45469" lon="-5.5919423">
        <ele>452.0</ele>
        <time>2021-02-14T13:43:37Z</time>
      </trkpt>
      <trkpt lat="43.454685" lon="-5.5919294">
        <ele>452.0</ele>
        <time>2021-02-14T13:43:38Z</time>
      </trkpt>
      <trkpt lat="43.454678" lon="-5.5919175">
        <ele>452.0</ele>
        <time>2021-02-14T13:43:39Z</time>
      </trkpt>
      <trkpt lat="43.45467" lon="-5.591905">
        <ele>452.0</ele>
        <time>2021-02-14T13:43:40Z</time>
      </trkpt>
      <trkpt lat="43.454662" lon="-5.5918903">
        <ele>451.0</ele>
        <time>2021-02-14T13:43:41Z</time>
      </trkpt>
      <trkpt lat="43.454655" lon="-5.5918765">
        <ele>451.0</ele>
        <time>2021-02-14T13:43:42Z</time>
      </trkpt>
      <trkpt lat="43.454643" lon="-5.591864">
        <ele>451.0</ele>
        <time>2021-02-14T13:43:43Z</time>
      </trkpt>
      <trkpt lat="43.45463" lon="-5.5918536">
        <ele>451.0</ele>
        <time>2021-02-14T13:43:44Z</time>
      </trkpt>
      <trkpt lat="43.454628" lon="-5.591843">
        <ele>451.0</ele>
        <time>2021-02-14T13:43:45Z</time>
      </trkpt>
      <trkpt lat="43.454624" lon="-5.591833">
        <ele>451.0</ele>
        <time>2021-02-14T13:43:46Z</time>
      </trkpt>
      <trkpt lat="43.454613" lon="-5.5918207">
        <ele>451.0</ele>
        <time>2021-02-14T13:43:47Z</time>
      </trkpt>
      <trkpt lat="43.45461" lon="-5.5918097">
        <ele>451.0</ele>
        <time>2021-02-14T13:43:48Z</time>
      </trkpt>
      <trkpt lat="43.4546" lon="-5.5917993">
        <ele>451.0</ele>
        <time>2021-02-14T13:43:49Z</time>
      </trkpt>
      <trkpt lat="43.454594" lon="-5.591791">
        <ele>450.0</ele>
        <time>2021-02-14T13:43:50Z</time>
      </trkpt>
      <trkpt lat="43.454586" lon="-5.5917845">
        <ele>450.0</ele>
        <time>2021-02-14T13:43:51Z</time>
      </trkpt>
      <trkpt lat="43.454582" lon="-5.5917773">
        <ele>450.0</ele>
        <time>2021-02-14T13:43:52Z</time>
      </trkpt>
      <trkpt lat="43.45457" lon="-5.59177">
        <ele>450.0</ele>
        <time>2021-02-14T13:43:53Z</time>
      </trkpt>
      <trkpt lat="43.454563" lon="-5.5917606">
        <ele>450.0</ele>
        <time>2021-02-14T13:43:54Z</time>
      </trkpt>
      <trkpt lat="43.45455" lon="-5.5917487">
        <ele>450.0</ele>
        <time>2021-02-14T13:43:55Z</time>
      </trkpt>
      <trkpt lat="43.45454" lon="-5.591737">
        <ele>450.0</ele>
        <time>2021-02-14T13:43:56Z</time>
      </trkpt>
      <trkpt lat="43.45453" lon="-5.5917244">
        <ele>450.0</ele>
        <time>2021-02-14T13:43:57Z</time>
      </trkpt>
      <trkpt lat="43.45452" lon="-5.5917134">
        <ele>450.0</ele>
        <time>2021-02-14T13:43:58Z</time>
      </trkpt>
      <trkpt lat="43.45451" lon="-5.5917044">
        <ele>450.0</ele>
        <time>2021-02-14T13:43:59Z</time>
      </trkpt>
      <trkpt lat="43.4545" lon="-5.591696">
        <ele>449.0</ele>
        <time>2021-02-14T13:44:00Z</time>
      </trkpt>
      <trkpt lat="43.45449" lon="-5.5916877">
        <ele>449.0</ele>
        <time>2021-02-14T13:44:01Z</time>
      </trkpt>
      <trkpt lat="43.45448" lon="-5.5916796">
        <ele>449.0</ele>
        <time>2021-02-14T13:44:02Z</time>
      </trkpt>
      <trkpt lat="43.454468" lon="-5.591671">
        <ele>449.0</ele>
        <time>2021-02-14T13:44:03Z</time>
      </trkpt>
      <trkpt lat="43.454464" lon="-5.591664">
        <ele>449.0</ele>
        <time>2021-02-14T13:44:04Z</time>
      </trkpt>
      <trkpt lat="43.454453" lon="-5.5916543">
        <ele>449.0</ele>
        <time>2021-02-14T13:44:05Z</time>
      </trkpt>
      <trkpt lat="43.45445" lon="-5.5916433">
        <ele>449.0</ele>
        <time>2021-02-14T13:44:06Z</time>
      </trkpt>
      <trkpt lat="43.454437" lon="-5.591634">
        <ele>448.0</ele>
        <time>2021-02-14T13:44:07Z</time>
      </trkpt>
      <trkpt lat="43.45443" lon="-5.5916243">
        <ele>448.0</ele>
        <time>2021-02-14T13:44:08Z</time>
      </trkpt>
      <trkpt lat="43.454422" lon="-5.5916133">
        <ele>448.0</ele>
        <time>2021-02-14T13:44:09Z</time>
      </trkpt>
      <trkpt lat="43.454414" lon="-5.5916038">
        <ele>448.0</ele>
        <time>2021-02-14T13:44:10Z</time>
      </trkpt>
      <trkpt lat="43.454407" lon="-5.5915966">
        <ele>448.0</ele>
        <time>2021-02-14T13:44:11Z</time>
      </trkpt>
      <trkpt lat="43.454403" lon="-5.591591">
        <ele>448.0</ele>
        <time>2021-02-14T13:44:12Z</time>
      </trkpt>
      <trkpt lat="43.45439" lon="-5.591585">
        <ele>448.0</ele>
        <time>2021-02-14T13:44:13Z</time>
      </trkpt>
      <trkpt lat="43.454388" lon="-5.591583">
        <ele>448.0</ele>
        <time>2021-02-14T13:44:14Z</time>
      </trkpt>
      <trkpt lat="43.454384" lon="-5.5915775">
        <ele>448.0</ele>
        <time>2021-02-14T13:44:15Z</time>
      </trkpt>
      <trkpt lat="43.454384" lon="-5.591573">
        <ele>448.0</ele>
        <time>2021-02-14T13:44:16Z</time>
      </trkpt>
      <trkpt lat="43.454376" lon="-5.5915704">
        <ele>447.0</ele>
        <time>2021-02-14T13:44:17Z</time>
      </trkpt>
      <trkpt lat="43.45437" lon="-5.5915666">
        <ele>447.0</ele>
        <time>2021-02-14T13:44:18Z</time>
      </trkpt>
      <trkpt lat="43.45436" lon="-5.591561">
        <ele>447.0</ele>
        <time>2021-02-14T13:44:19Z</time>
      </trkpt>
      <trkpt lat="43.454357" lon="-5.591555">
        <ele>447.0</ele>
        <time>2021-02-14T13:44:20Z</time>
      </trkpt>
      <trkpt lat="43.454346" lon="-5.591551">
        <ele>447.0</ele>
        <time>2021-02-14T13:44:21Z</time>
      </trkpt>
      <trkpt lat="43.45434" lon="-5.5915456">
        <ele>447.0</ele>
        <time>2021-02-14T13:44:22Z</time>
      </trkpt>
      <trkpt lat="43.45433" lon="-5.5915384">
        <ele>447.0</ele>
        <time>2021-02-14T13:44:23Z</time>
      </trkpt>
      <trkpt lat="43.454327" lon="-5.5915303">
        <ele>447.0</ele>
        <time>2021-02-14T13:44:24Z</time>
      </trkpt>
      <trkpt lat="43.45432" lon="-5.5915213">
        <ele>447.0</ele>
        <time>2021-02-14T13:44:25Z</time>
      </trkpt>
      <trkpt lat="43.45431" lon="-5.591512">
        <ele>446.0</ele>
        <time>2021-02-14T13:44:26Z</time>
      </trkpt>
      <trkpt lat="43.454304" lon="-5.591505">
        <ele>446.0</ele>
        <time>2021-02-14T13:44:27Z</time>
      </trkpt>
      <trkpt lat="43.454304" lon="-5.5914974">
        <ele>446.0</ele>
        <time>2021-02-14T13:44:28Z</time>
      </trkpt>
      <trkpt lat="43.454296" lon="-5.5914907">
        <ele>446.0</ele>
        <time>2021-02-14T13:44:29Z</time>
      </trkpt>
      <trkpt lat="43.45429" lon="-5.591482">
        <ele>446.0</ele>
        <time>2021-02-14T13:44:30Z</time>
      </trkpt>
      <trkpt lat="43.45428" lon="-5.591475">
        <ele>445.0</ele>
        <time>2021-02-14T13:44:31Z</time>
      </trkpt>
      <trkpt lat="43.45427" lon="-5.591469">
        <ele>445.0</ele>
        <time>2021-02-14T13:44:32Z</time>
      </trkpt>
      <trkpt lat="43.454254" lon="-5.591458">
        <ele>445.0</ele>
        <time>2021-02-14T13:44:33Z</time>
      </trkpt>
      <trkpt lat="43.454243" lon="-5.591447">
        <ele>445.0</ele>
        <time>2021-02-14T13:44:34Z</time>
      </trkpt>
      <trkpt lat="43.454235" lon="-5.591437">
        <ele>445.0</ele>
        <time>2021-02-14T13:44:35Z</time>
      </trkpt>
      <trkpt lat="43.454224" lon="-5.591426">
        <ele>444.0</ele>
        <time>2021-02-14T13:44:36Z</time>
      </trkpt>
      <trkpt lat="43.454212" lon="-5.591414">
        <ele>444.0</ele>
        <time>2021-02-14T13:44:37Z</time>
      </trkpt>
      <trkpt lat="43.454205" lon="-5.591401">
        <ele>444.0</ele>
        <time>2021-02-14T13:44:38Z</time>
      </trkpt>
      <trkpt lat="43.454197" lon="-5.5913887">
        <ele>444.0</ele>
        <time>2021-02-14T13:44:39Z</time>
      </trkpt>
      <trkpt lat="43.45419" lon="-5.5913787">
        <ele>444.0</ele>
        <time>2021-02-14T13:44:40Z</time>
      </trkpt>
      <trkpt lat="43.45418" lon="-5.5913677">
        <ele>443.0</ele>
        <time>2021-02-14T13:44:41Z</time>
      </trkpt>
      <trkpt lat="43.454178" lon="-5.591359">
        <ele>443.0</ele>
        <time>2021-02-14T13:44:42Z</time>
      </trkpt>
      <trkpt lat="43.454166" lon="-5.5913506">
        <ele>443.0</ele>
        <time>2021-02-14T13:44:43Z</time>
      </trkpt>
      <trkpt lat="43.454163" lon="-5.591342">
        <ele>443.0</ele>
        <time>2021-02-14T13:44:44Z</time>
      </trkpt>
      <trkpt lat="43.45415" lon="-5.5913343">
        <ele>443.0</ele>
        <time>2021-02-14T13:44:45Z</time>
      </trkpt>
      <trkpt lat="43.45414" lon="-5.591328">
        <ele>442.0</ele>
        <time>2021-02-14T13:44:46Z</time>
      </trkpt>
      <trkpt lat="43.454132" lon="-5.5913224">
        <ele>442.0</ele>
        <time>2021-02-14T13:44:47Z</time>
      </trkpt>
      <trkpt lat="43.45412" lon="-5.5913167">
        <ele>442.0</ele>
        <time>2021-02-14T13:44:48Z</time>
      </trkpt>
      <trkpt lat="43.454117" lon="-5.5913115">
        <ele>442.0</ele>
        <time>2021-02-14T13:44:49Z</time>
      </trkpt>
      <trkpt lat="43.45411" lon="-5.5913076">
        <ele>442.0</ele>
        <time>2021-02-14T13:44:50Z</time>
      </trkpt>
      <trkpt lat="43.4541" lon="-5.5913043">
        <ele>442.0</ele>
        <time>2021-02-14T13:44:51Z</time>
      </trkpt>
      <trkpt lat="43.45409" lon="-5.591303">
        <ele>442.0</ele>
        <time>2021-02-14T13:44:52Z</time>
      </trkpt>
      <trkpt lat="43.454086" lon="-5.591302">
        <ele>442.0</ele>
        <time>2021-02-14T13:44:53Z</time>
      </trkpt>
      <trkpt lat="43.454075" lon="-5.591301">
        <ele>442.0</ele>
        <time>2021-02-14T13:44:54Z</time>
      </trkpt>
      <trkpt lat="43.454063" lon="-5.5913">
        <ele>441.0</ele>
        <time>2021-02-14T13:44:55Z</time>
      </trkpt>
      <trkpt lat="43.45405" lon="-5.591296">
        <ele>441.0</ele>
        <time>2021-02-14T13:44:56Z</time>
      </trkpt>
      <trkpt lat="43.45404" lon="-5.5912914">
        <ele>441.0</ele>
        <time>2021-02-14T13:44:57Z</time>
      </trkpt>
      <trkpt lat="43.454025" lon="-5.5912857">
        <ele>441.0</ele>
        <time>2021-02-14T13:44:58Z</time>
      </trkpt>
      <trkpt lat="43.45401" lon="-5.5912805">
        <ele>441.0</ele>
        <time>2021-02-14T13:44:59Z</time>
      </trkpt>
      <trkpt lat="43.453995" lon="-5.5912747">
        <ele>441.0</ele>
        <time>2021-02-14T13:45:00Z</time>
      </trkpt>
      <trkpt lat="43.453983" lon="-5.59127">
        <ele>441.0</ele>
        <time>2021-02-14T13:45:01Z</time>
      </trkpt>
      <trkpt lat="43.453968" lon="-5.591264">
        <ele>441.0</ele>
        <time>2021-02-14T13:45:02Z</time>
      </trkpt>
      <trkpt lat="43.453957" lon="-5.591258">
        <ele>440.0</ele>
        <time>2021-02-14T13:45:03Z</time>
      </trkpt>
      <trkpt lat="43.453953" lon="-5.5912523">
        <ele>440.0</ele>
        <time>2021-02-14T13:45:04Z</time>
      </trkpt>
      <trkpt lat="43.45394" lon="-5.5912457">
        <ele>440.0</ele>
        <time>2021-02-14T13:45:05Z</time>
      </trkpt>
      <trkpt lat="43.453938" lon="-5.591239">
        <ele>440.0</ele>
        <time>2021-02-14T13:45:06Z</time>
      </trkpt>
      <trkpt lat="43.453926" lon="-5.591233">
        <ele>440.0</ele>
        <time>2021-02-14T13:45:07Z</time>
      </trkpt>
      <trkpt lat="43.453922" lon="-5.591225">
        <ele>440.0</ele>
        <time>2021-02-14T13:45:08Z</time>
      </trkpt>
      <trkpt lat="43.453922" lon="-5.5912175">
        <ele>439.0</ele>
        <time>2021-02-14T13:45:09Z</time>
      </trkpt>
      <trkpt lat="43.453922" lon="-5.591203">
        <ele>439.0</ele>
        <time>2021-02-14T13:45:10Z</time>
      </trkpt>
      <trkpt lat="43.453922" lon="-5.591187">
        <ele>439.0</ele>
        <time>2021-02-14T13:45:11Z</time>
      </trkpt>
      <trkpt lat="43.453922" lon="-5.5911713">
        <ele>439.0</ele>
        <time>2021-02-14T13:45:12Z</time>
      </trkpt>
      <trkpt lat="43.453915" lon="-5.591155">
        <ele>438.0</ele>
        <time>2021-02-14T13:45:13Z</time>
      </trkpt>
      <trkpt lat="43.453915" lon="-5.5911393">
        <ele>438.0</ele>
        <time>2021-02-14T13:45:14Z</time>
      </trkpt>
      <trkpt lat="43.45391" lon="-5.5911264">
        <ele>438.0</ele>
        <time>2021-02-14T13:45:15Z</time>
      </trkpt>
      <trkpt lat="43.45391" lon="-5.591116">
        <ele>438.0</ele>
        <time>2021-02-14T13:45:16Z</time>
      </trkpt>
      <trkpt lat="43.45391" lon="-5.5911083">
        <ele>437.0</ele>
        <time>2021-02-14T13:45:17Z</time>
      </trkpt>
      <trkpt lat="43.453915" lon="-5.591102">
        <ele>437.0</ele>
        <time>2021-02-14T13:45:18Z</time>
      </trkpt>
      <trkpt lat="43.453922" lon="-5.5910964">
        <ele>437.0</ele>
        <time>2021-02-14T13:45:19Z</time>
      </trkpt>
      <trkpt lat="43.453926" lon="-5.591091">
        <ele>437.0</ele>
        <time>2021-02-14T13:45:20Z</time>
      </trkpt>
      <trkpt lat="43.45393" lon="-5.5910835">
        <ele>437.0</ele>
        <time>2021-02-14T13:45:21Z</time>
      </trkpt>
      <trkpt lat="43.453938" lon="-5.5910754">
        <ele>436.0</ele>
        <time>2021-02-14T13:45:22Z</time>
      </trkpt>
      <trkpt lat="43.45394" lon="-5.5910687">
        <ele>436.0</ele>
        <time>2021-02-14T13:45:23Z</time>
      </trkpt>
      <trkpt lat="43.453953" lon="-5.591065">
        <ele>436.0</ele>
        <time>2021-02-14T13:45:24Z</time>
      </trkpt>
      <trkpt lat="43.453957" lon="-5.5910645">
        <ele>436.0</ele>
        <time>2021-02-14T13:45:25Z</time>
      </trkpt>
      <trkpt lat="43.453968" lon="-5.5910654">
        <ele>436.0</ele>
        <time>2021-02-14T13:45:26Z</time>
      </trkpt>
      <trkpt lat="43.45398" lon="-5.5910673">
        <ele>436.0</ele>
        <time>2021-02-14T13:45:27Z</time>
      </trkpt>
      <trkpt lat="43.453987" lon="-5.5910673">
        <ele>436.0</ele>
        <time>2021-02-14T13:45:28Z</time>
      </trkpt>
      <trkpt lat="43.454" lon="-5.591067">
        <ele>436.0</ele>
        <time>2021-02-14T13:45:29Z</time>
      </trkpt>
      <trkpt lat="43.454014" lon="-5.591067">
        <ele>436.0</ele>
        <time>2021-02-14T13:45:30Z</time>
      </trkpt>
      <trkpt lat="43.454025" lon="-5.591067">
        <ele>436.0</ele>
        <time>2021-02-14T13:45:31Z</time>
      </trkpt>
      <trkpt lat="43.45403" lon="-5.5910654">
        <ele>436.0</ele>
        <time>2021-02-14T13:45:32Z</time>
      </trkpt>
      <trkpt lat="43.454044" lon="-5.591063">
        <ele>436.0</ele>
        <time>2021-02-14T13:45:33Z</time>
      </trkpt>
      <trkpt lat="43.454056" lon="-5.5910625">
        <ele>436.0</ele>
        <time>2021-02-14T13:45:34Z</time>
      </trkpt>
      <trkpt lat="43.454063" lon="-5.5910597">
        <ele>436.0</ele>
        <time>2021-02-14T13:45:35Z</time>
      </trkpt>
      <trkpt lat="43.454075" lon="-5.591055">
        <ele>435.0</ele>
        <time>2021-02-14T13:45:36Z</time>
      </trkpt>
      <trkpt lat="43.454086" lon="-5.591049">
        <ele>435.0</ele>
        <time>2021-02-14T13:45:37Z</time>
      </trkpt>
      <trkpt lat="43.454094" lon="-5.5910444">
        <ele>435.0</ele>
        <time>2021-02-14T13:45:38Z</time>
      </trkpt>
      <trkpt lat="43.454105" lon="-5.591041">
        <ele>435.0</ele>
        <time>2021-02-14T13:45:39Z</time>
      </trkpt>
      <trkpt lat="43.454117" lon="-5.5910387">
        <ele>435.0</ele>
        <time>2021-02-14T13:45:40Z</time>
      </trkpt>
      <trkpt lat="43.454124" lon="-5.5910335">
        <ele>435.0</ele>
        <time>2021-02-14T13:45:41Z</time>
      </trkpt>
      <trkpt lat="43.454136" lon="-5.5910296">
        <ele>434.0</ele>
        <time>2021-02-14T13:45:42Z</time>
      </trkpt>
      <trkpt lat="43.454147" lon="-5.591027">
        <ele>434.0</ele>
        <time>2021-02-14T13:45:43Z</time>
      </trkpt>
      <trkpt lat="43.454155" lon="-5.5910225">
        <ele>434.0</ele>
        <time>2021-02-14T13:45:44Z</time>
      </trkpt>
      <trkpt lat="43.454166" lon="-5.591018">
        <ele>434.0</ele>
        <time>2021-02-14T13:45:45Z</time>
      </trkpt>
      <trkpt lat="43.454193" lon="-5.5910125">
        <ele>434.0</ele>
        <time>2021-02-14T13:45:47Z</time>
      </trkpt>
      <trkpt lat="43.454197" lon="-5.591011">
        <ele>434.0</ele>
        <time>2021-02-14T13:45:48Z</time>
      </trkpt>
      <trkpt lat="43.454197" lon="-5.591012">
        <ele>433.0</ele>
        <time>2021-02-14T13:45:49Z</time>
      </trkpt>
      <trkpt lat="43.45421" lon="-5.5910106">
        <ele>433.0</ele>
        <time>2021-02-14T13:45:50Z</time>
      </trkpt>
      <trkpt lat="43.454212" lon="-5.591008">
        <ele>433.0</ele>
        <time>2021-02-14T13:45:51Z</time>
      </trkpt>
      <trkpt lat="43.454224" lon="-5.591001">
        <ele>433.0</ele>
        <time>2021-02-14T13:45:52Z</time>
      </trkpt>
      <trkpt lat="43.454235" lon="-5.590992">
        <ele>433.0</ele>
        <time>2021-02-14T13:45:53Z</time>
      </trkpt>
      <trkpt lat="43.45425" lon="-5.5909824">
        <ele>433.0</ele>
        <time>2021-02-14T13:45:54Z</time>
      </trkpt>
      <trkpt lat="43.454258" lon="-5.5909753">
        <ele>432.0</ele>
        <time>2021-02-14T13:45:55Z</time>
      </trkpt>
      <trkpt lat="43.454273" lon="-5.590971">
        <ele>432.0</ele>
        <time>2021-02-14T13:45:56Z</time>
      </trkpt>
      <trkpt lat="43.454285" lon="-5.5909696">
        <ele>432.0</ele>
        <time>2021-02-14T13:45:57Z</time>
      </trkpt>
      <trkpt lat="43.4543" lon="-5.5909696">
        <ele>432.0</ele>
        <time>2021-02-14T13:45:58Z</time>
      </trkpt>
      <trkpt lat="43.454315" lon="-5.5909696">
        <ele>432.0</ele>
        <time>2021-02-14T13:45:59Z</time>
      </trkpt>
      <trkpt lat="43.45433" lon="-5.5909696">
        <ele>432.0</ele>
        <time>2021-02-14T13:46:00Z</time>
      </trkpt>
      <trkpt lat="43.45434" lon="-5.590972">
        <ele>432.0</ele>
        <time>2021-02-14T13:46:01Z</time>
      </trkpt>
      <trkpt lat="43.45435" lon="-5.590976">
        <ele>432.0</ele>
        <time>2021-02-14T13:46:02Z</time>
      </trkpt>
      <trkpt lat="43.45436" lon="-5.5909805">
        <ele>432.0</ele>
        <time>2021-02-14T13:46:03Z</time>
      </trkpt>
      <trkpt lat="43.454372" lon="-5.590986">
        <ele>432.0</ele>
        <time>2021-02-14T13:46:04Z</time>
      </trkpt>
      <trkpt lat="43.454384" lon="-5.59099">
        <ele>432.0</ele>
        <time>2021-02-14T13:46:05Z</time>
      </trkpt>
      <trkpt lat="43.454388" lon="-5.590992">
        <ele>432.0</ele>
        <time>2021-02-14T13:46:06Z</time>
      </trkpt>
      <trkpt lat="43.4544" lon="-5.590994">
        <ele>431.0</ele>
        <time>2021-02-14T13:46:07Z</time>
      </trkpt>
      <trkpt lat="43.454407" lon="-5.5909963">
        <ele>431.0</ele>
        <time>2021-02-14T13:46:08Z</time>
      </trkpt>
      <trkpt lat="43.45442" lon="-5.5909977">
        <ele>431.0</ele>
        <time>2021-02-14T13:46:09Z</time>
      </trkpt>
      <trkpt lat="43.45443" lon="-5.5909977">
        <ele>431.0</ele>
        <time>2021-02-14T13:46:10Z</time>
      </trkpt>
      <trkpt lat="43.454437" lon="-5.590997">
        <ele>431.0</ele>
        <time>2021-02-14T13:46:11Z</time>
      </trkpt>
      <trkpt lat="43.45445" lon="-5.5909963">
        <ele>431.0</ele>
        <time>2021-02-14T13:46:12Z</time>
      </trkpt>
      <trkpt lat="43.45446" lon="-5.5909953">
        <ele>431.0</ele>
        <time>2021-02-14T13:46:13Z</time>
      </trkpt>
      <trkpt lat="43.454468" lon="-5.5909977">
        <ele>431.0</ele>
        <time>2021-02-14T13:46:14Z</time>
      </trkpt>
      <trkpt lat="43.45448" lon="-5.590998">
        <ele>431.0</ele>
        <time>2021-02-14T13:46:15Z</time>
      </trkpt>
      <trkpt lat="43.454483" lon="-5.590998">
        <ele>431.0</ele>
        <time>2021-02-14T13:46:16Z</time>
      </trkpt>
      <trkpt lat="43.454494" lon="-5.590997">
        <ele>431.0</ele>
        <time>2021-02-14T13:46:17Z</time>
      </trkpt>
      <trkpt lat="43.4545" lon="-5.5909944">
        <ele>431.0</ele>
        <time>2021-02-14T13:46:18Z</time>
      </trkpt>
      <trkpt lat="43.45451" lon="-5.5909925">
        <ele>431.0</ele>
        <time>2021-02-14T13:46:19Z</time>
      </trkpt>
      <trkpt lat="43.45452" lon="-5.5909915">
        <ele>431.0</ele>
        <time>2021-02-14T13:46:20Z</time>
      </trkpt>
      <trkpt lat="43.45453" lon="-5.59099">
        <ele>431.0</ele>
        <time>2021-02-14T13:46:21Z</time>
      </trkpt>
      <trkpt lat="43.454544" lon="-5.5909896">
        <ele>431.0</ele>
        <time>2021-02-14T13:46:22Z</time>
      </trkpt>
      <trkpt lat="43.454556" lon="-5.5909886">
        <ele>431.0</ele>
        <time>2021-02-14T13:46:23Z</time>
      </trkpt>
      <trkpt lat="43.45457" lon="-5.590983">
        <ele>431.0</ele>
        <time>2021-02-14T13:46:24Z</time>
      </trkpt>
      <trkpt lat="43.454586" lon="-5.59098">
        <ele>431.0</ele>
        <time>2021-02-14T13:46:25Z</time>
      </trkpt>
      <trkpt lat="43.454597" lon="-5.5909715">
        <ele>431.0</ele>
        <time>2021-02-14T13:46:26Z</time>
      </trkpt>
      <trkpt lat="43.454613" lon="-5.590964">
        <ele>431.0</ele>
        <time>2021-02-14T13:46:27Z</time>
      </trkpt>
      <trkpt lat="43.454628" lon="-5.5909567">
        <ele>430.0</ele>
        <time>2021-02-14T13:46:28Z</time>
      </trkpt>
      <trkpt lat="43.45464" lon="-5.5909495">
        <ele>430.0</ele>
        <time>2021-02-14T13:46:29Z</time>
      </trkpt>
      <trkpt lat="43.454647" lon="-5.590944">
        <ele>430.0</ele>
        <time>2021-02-14T13:46:30Z</time>
      </trkpt>
      <trkpt lat="43.45466" lon="-5.5909395">
        <ele>430.0</ele>
        <time>2021-02-14T13:46:31Z</time>
      </trkpt>
      <trkpt lat="43.45467" lon="-5.590936">
        <ele>430.0</ele>
        <time>2021-02-14T13:46:32Z</time>
      </trkpt>
      <trkpt lat="43.454678" lon="-5.5909343">
        <ele>430.0</ele>
        <time>2021-02-14T13:46:33Z</time>
      </trkpt>
      <trkpt lat="43.45469" lon="-5.5909324">
        <ele>430.0</ele>
        <time>2021-02-14T13:46:34Z</time>
      </trkpt>
      <trkpt lat="43.454693" lon="-5.5909314">
        <ele>429.0</ele>
        <time>2021-02-14T13:46:35Z</time>
      </trkpt>
      <trkpt lat="43.454704" lon="-5.59093">
        <ele>429.0</ele>
        <time>2021-02-14T13:46:36Z</time>
      </trkpt>
      <trkpt lat="43.45471" lon="-5.590928">
        <ele>429.0</ele>
        <time>2021-02-14T13:46:37Z</time>
      </trkpt>
      <trkpt lat="43.45472" lon="-5.590926">
        <ele>429.0</ele>
        <time>2021-02-14T13:46:38Z</time>
      </trkpt>
      <trkpt lat="43.454735" lon="-5.5909233">
        <ele>429.0</ele>
        <time>2021-02-14T13:46:39Z</time>
      </trkpt>
      <trkpt lat="43.45475" lon="-5.5909176">
        <ele>429.0</ele>
        <time>2021-02-14T13:46:40Z</time>
      </trkpt>
      <trkpt lat="43.45476" lon="-5.590913">
        <ele>429.0</ele>
        <time>2021-02-14T13:46:41Z</time>
      </trkpt>
      <trkpt lat="43.454777" lon="-5.5909095">
        <ele>429.0</ele>
        <time>2021-02-14T13:46:42Z</time>
      </trkpt>
      <trkpt lat="43.454792" lon="-5.590906">
        <ele>429.0</ele>
        <time>2021-02-14T13:46:43Z</time>
      </trkpt>
      <trkpt lat="43.454807" lon="-5.5909038">
        <ele>428.0</ele>
        <time>2021-02-14T13:46:44Z</time>
      </trkpt>
      <trkpt lat="43.454823" lon="-5.590902">
        <ele>428.0</ele>
        <time>2021-02-14T13:46:45Z</time>
      </trkpt>
      <trkpt lat="43.45484" lon="-5.590899">
        <ele>428.0</ele>
        <time>2021-02-14T13:46:46Z</time>
      </trkpt>
      <trkpt lat="43.454857" lon="-5.590899">
        <ele>428.0</ele>
        <time>2021-02-14T13:46:47Z</time>
      </trkpt>
      <trkpt lat="43.45487" lon="-5.590899">
        <ele>428.0</ele>
        <time>2021-02-14T13:46:48Z</time>
      </trkpt>
      <trkpt lat="43.45488" lon="-5.590897">
        <ele>428.0</ele>
        <time>2021-02-14T13:46:49Z</time>
      </trkpt>
      <trkpt lat="43.454887" lon="-5.590894">
        <ele>427.0</ele>
        <time>2021-02-14T13:46:50Z</time>
      </trkpt>
      <trkpt lat="43.454903" lon="-5.590891">
        <ele>427.0</ele>
        <time>2021-02-14T13:46:51Z</time>
      </trkpt>
      <trkpt lat="43.454914" lon="-5.590889">
        <ele>427.0</ele>
        <time>2021-02-14T13:46:52Z</time>
      </trkpt>
      <trkpt lat="43.454926" lon="-5.5908875">
        <ele>427.0</ele>
        <time>2021-02-14T13:46:53Z</time>
      </trkpt>
      <trkpt lat="43.454933" lon="-5.5908875">
        <ele>427.0</ele>
        <time>2021-02-14T13:46:54Z</time>
      </trkpt>
      <trkpt lat="43.454945" lon="-5.590891">
        <ele>426.0</ele>
        <time>2021-02-14T13:46:54Z</time>
      </trkpt>
      <trkpt lat="43.454956" lon="-5.5908947">
        <ele>426.0</ele>
        <time>2021-02-14T13:46:55Z</time>
      </trkpt>
      <trkpt lat="43.454967" lon="-5.590898">
        <ele>426.0</ele>
        <time>2021-02-14T13:46:56Z</time>
      </trkpt>
      <trkpt lat="43.454983" lon="-5.5909">
        <ele>426.0</ele>
        <time>2021-02-14T13:46:57Z</time>
      </trkpt>
      <trkpt lat="43.454998" lon="-5.5909004">
        <ele>426.0</ele>
        <time>2021-02-14T13:46:58Z</time>
      </trkpt>
      <trkpt lat="43.455013" lon="-5.5909">
        <ele>426.0</ele>
        <time>2021-02-14T13:46:59Z</time>
      </trkpt>
      <trkpt lat="43.455032" lon="-5.5909004">
        <ele>425.0</ele>
        <time>2021-02-14T13:47:00Z</time>
      </trkpt>
      <trkpt lat="43.45505" lon="-5.590902">
        <ele>425.0</ele>
        <time>2021-02-14T13:47:01Z</time>
      </trkpt>
      <trkpt lat="43.455067" lon="-5.5909038">
        <ele>425.0</ele>
        <time>2021-02-14T13:47:02Z</time>
      </trkpt>
      <trkpt lat="43.455082" lon="-5.5909057">
        <ele>425.0</ele>
        <time>2021-02-14T13:47:03Z</time>
      </trkpt>
      <trkpt lat="43.455093" lon="-5.590907">
        <ele>425.0</ele>
        <time>2021-02-14T13:47:04Z</time>
      </trkpt>
      <trkpt lat="43.455105" lon="-5.590908">
        <ele>425.0</ele>
        <time>2021-02-14T13:47:05Z</time>
      </trkpt>
      <trkpt lat="43.455112" lon="-5.590911">
        <ele>425.0</ele>
        <time>2021-02-14T13:47:06Z</time>
      </trkpt>
      <trkpt lat="43.45512" lon="-5.590914">
        <ele>425.0</ele>
        <time>2021-02-14T13:47:07Z</time>
      </trkpt>
      <trkpt lat="43.455128" lon="-5.5909166">
        <ele>425.0</ele>
        <time>2021-02-14T13:47:08Z</time>
      </trkpt>
      <trkpt lat="43.45514" lon="-5.590919">
        <ele>425.0</ele>
        <time>2021-02-14T13:47:09Z</time>
      </trkpt>
      <trkpt lat="43.45515" lon="-5.590923">
        <ele>425.0</ele>
        <time>2021-02-14T13:47:10Z</time>
      </trkpt>
      <trkpt lat="43.455162" lon="-5.5909266">
        <ele>425.0</ele>
        <time>2021-02-14T13:47:11Z</time>
      </trkpt>
      <trkpt lat="43.45517" lon="-5.59093">
        <ele>425.0</ele>
        <time>2021-02-14T13:47:12Z</time>
      </trkpt>
      <trkpt lat="43.45518" lon="-5.5909333">
        <ele>425.0</ele>
        <time>2021-02-14T13:47:13Z</time>
      </trkpt>
      <trkpt lat="43.455193" lon="-5.590936">
        <ele>425.0</ele>
        <time>2021-02-14T13:47:14Z</time>
      </trkpt>
      <trkpt lat="43.4552" lon="-5.59094">
        <ele>425.0</ele>
        <time>2021-02-14T13:47:15Z</time>
      </trkpt>
      <trkpt lat="43.45521" lon="-5.5909433">
        <ele>425.0</ele>
        <time>2021-02-14T13:47:16Z</time>
      </trkpt>
      <trkpt lat="43.455223" lon="-5.590947">
        <ele>425.0</ele>
        <time>2021-02-14T13:47:17Z</time>
      </trkpt>
      <trkpt lat="43.45523" lon="-5.590949">
        <ele>425.0</ele>
        <time>2021-02-14T13:47:18Z</time>
      </trkpt>
      <trkpt lat="43.45524" lon="-5.5909505">
        <ele>425.0</ele>
        <time>2021-02-14T13:47:19Z</time>
      </trkpt>
      <trkpt lat="43.455246" lon="-5.5909524">
        <ele>425.0</ele>
        <time>2021-02-14T13:47:20Z</time>
      </trkpt>
      <trkpt lat="43.455257" lon="-5.590956">
        <ele>426.0</ele>
        <time>2021-02-14T13:47:21Z</time>
      </trkpt>
      <trkpt lat="43.45526" lon="-5.5909595">
        <ele>426.0</ele>
        <time>2021-02-14T13:47:22Z</time>
      </trkpt>
      <trkpt lat="43.455273" lon="-5.590964">
        <ele>426.0</ele>
        <time>2021-02-14T13:47:23Z</time>
      </trkpt>
      <trkpt lat="43.455276" lon="-5.5909657">
        <ele>426.0</ele>
        <time>2021-02-14T13:47:24Z</time>
      </trkpt>
      <trkpt lat="43.455288" lon="-5.590967">
        <ele>426.0</ele>
        <time>2021-02-14T13:47:25Z</time>
      </trkpt>
      <trkpt lat="43.4553" lon="-5.590969">
        <ele>426.0</ele>
        <time>2021-02-14T13:47:26Z</time>
      </trkpt>
      <trkpt lat="43.455307" lon="-5.590971">
        <ele>426.0</ele>
        <time>2021-02-14T13:47:27Z</time>
      </trkpt>
      <trkpt lat="43.45532" lon="-5.590973">
        <ele>426.0</ele>
        <time>2021-02-14T13:47:28Z</time>
      </trkpt>
      <trkpt lat="43.455322" lon="-5.590975">
        <ele>426.0</ele>
        <time>2021-02-14T13:47:29Z</time>
      </trkpt>
      <trkpt lat="43.45534" lon="-5.590975">
        <ele>426.0</ele>
        <time>2021-02-14T13:47:30Z</time>
      </trkpt>
      <trkpt lat="43.45535" lon="-5.5909734">
        <ele>426.0</ele>
        <time>2021-02-14T13:47:31Z</time>
      </trkpt>
      <trkpt lat="43.455357" lon="-5.590971">
        <ele>426.0</ele>
        <time>2021-02-14T13:47:32Z</time>
      </trkpt>
      <trkpt lat="43.45536" lon="-5.5909696">
        <ele>427.0</ele>
        <time>2021-02-14T13:47:33Z</time>
      </trkpt>
      <trkpt lat="43.45537" lon="-5.590967">
        <ele>427.0</ele>
        <time>2021-02-14T13:47:34Z</time>
      </trkpt>
      <trkpt lat="43.45538" lon="-5.5909643">
        <ele>427.0</ele>
        <time>2021-02-14T13:47:35Z</time>
      </trkpt>
      <trkpt lat="43.455395" lon="-5.5909595">
        <ele>427.0</ele>
        <time>2021-02-14T13:47:36Z</time>
      </trkpt>
      <trkpt lat="43.455406" lon="-5.590954">
        <ele>427.0</ele>
        <time>2021-02-14T13:47:37Z</time>
      </trkpt>
      <trkpt lat="43.455418" lon="-5.5909495">
        <ele>428.0</ele>
        <time>2021-02-14T13:47:38Z</time>
      </trkpt>
      <trkpt lat="43.455425" lon="-5.590947">
        <ele>428.0</ele>
        <time>2021-02-14T13:47:39Z</time>
      </trkpt>
      <trkpt lat="43.455437" lon="-5.5909433">
        <ele>428.0</ele>
        <time>2021-02-14T13:47:40Z</time>
      </trkpt>
      <trkpt lat="43.45545" lon="-5.590943">
        <ele>428.0</ele>
        <time>2021-02-14T13:47:41Z</time>
      </trkpt>
      <trkpt lat="43.455452" lon="-5.590942">
        <ele>428.0</ele>
        <time>2021-02-14T13:47:42Z</time>
      </trkpt>
      <trkpt lat="43.455463" lon="-5.590942">
        <ele>429.0</ele>
        <time>2021-02-14T13:47:43Z</time>
      </trkpt>
      <trkpt lat="43.45547" lon="-5.5909414">
        <ele>429.0</ele>
        <time>2021-02-14T13:47:44Z</time>
      </trkpt>
      <trkpt lat="43.455482" lon="-5.59094">
        <ele>429.0</ele>
        <time>2021-02-14T13:47:45Z</time>
      </trkpt>
      <trkpt lat="43.455486" lon="-5.590941">
        <ele>429.0</ele>
        <time>2021-02-14T13:47:46Z</time>
      </trkpt>
      <trkpt lat="43.455494" lon="-5.590942">
        <ele>429.0</ele>
        <time>2021-02-14T13:47:47Z</time>
      </trkpt>
      <trkpt lat="43.455524" lon="-5.590941">
        <ele>429.0</ele>
        <time>2021-02-14T13:47:49Z</time>
      </trkpt>
      <trkpt lat="43.455524" lon="-5.590939">
        <ele>429.0</ele>
        <time>2021-02-14T13:47:50Z</time>
      </trkpt>
      <trkpt lat="43.455536" lon="-5.590935">
        <ele>430.0</ele>
        <time>2021-02-14T13:47:51Z</time>
      </trkpt>
      <trkpt lat="43.45555" lon="-5.59093">
        <ele>430.0</ele>
        <time>2021-02-14T13:47:52Z</time>
      </trkpt>
      <trkpt lat="43.45556" lon="-5.590925">
        <ele>430.0</ele>
        <time>2021-02-14T13:47:53Z</time>
      </trkpt>
      <trkpt lat="43.455574" lon="-5.5909214">
        <ele>430.0</ele>
        <time>2021-02-14T13:47:54Z</time>
      </trkpt>
      <trkpt lat="43.455585" lon="-5.590919">
        <ele>430.0</ele>
        <time>2021-02-14T13:47:55Z</time>
      </trkpt>
      <trkpt lat="43.455597" lon="-5.5909185">
        <ele>430.0</ele>
        <time>2021-02-14T13:47:56Z</time>
      </trkpt>
      <trkpt lat="43.455605" lon="-5.5909176">
        <ele>430.0</ele>
        <time>2021-02-14T13:47:57Z</time>
      </trkpt>
      <trkpt lat="43.455616" lon="-5.5909147">
        <ele>430.0</ele>
        <time>2021-02-14T13:47:58Z</time>
      </trkpt>
      <trkpt lat="43.455627" lon="-5.59091">
        <ele>430.0</ele>
        <time>2021-02-14T13:47:59Z</time>
      </trkpt>
      <trkpt lat="43.455643" lon="-5.5909076">
        <ele>431.0</ele>
        <time>2021-02-14T13:48:00Z</time>
      </trkpt>
      <trkpt lat="43.455658" lon="-5.590902">
        <ele>431.0</ele>
        <time>2021-02-14T13:48:01Z</time>
      </trkpt>
      <trkpt lat="43.455666" lon="-5.5908947">
        <ele>431.0</ele>
        <time>2021-02-14T13:48:02Z</time>
      </trkpt>
      <trkpt lat="43.455677" lon="-5.5908875">
        <ele>431.0</ele>
        <time>2021-02-14T13:48:03Z</time>
      </trkpt>
      <trkpt lat="43.455692" lon="-5.590883">
        <ele>431.0</ele>
        <time>2021-02-14T13:48:04Z</time>
      </trkpt>
      <trkpt lat="43.455708" lon="-5.5908766">
        <ele>431.0</ele>
        <time>2021-02-14T13:48:05Z</time>
      </trkpt>
      <trkpt lat="43.45573" lon="-5.5908704">
        <ele>431.0</ele>
        <time>2021-02-14T13:48:06Z</time>
      </trkpt>
      <trkpt lat="43.45575" lon="-5.5908628">
        <ele>431.0</ele>
        <time>2021-02-14T13:48:07Z</time>
      </trkpt>
      <trkpt lat="43.45577" lon="-5.590857">
        <ele>431.0</ele>
        <time>2021-02-14T13:48:08Z</time>
      </trkpt>
      <trkpt lat="43.455784" lon="-5.5908513">
        <ele>431.0</ele>
        <time>2021-02-14T13:48:09Z</time>
      </trkpt>
      <trkpt lat="43.4558" lon="-5.5908465">
        <ele>431.0</ele>
        <time>2021-02-14T13:48:10Z</time>
      </trkpt>
      <trkpt lat="43.45581" lon="-5.5908427">
        <ele>431.0</ele>
        <time>2021-02-14T13:48:11Z</time>
      </trkpt>
      <trkpt lat="43.455822" lon="-5.5908403">
        <ele>431.0</ele>
        <time>2021-02-14T13:48:12Z</time>
      </trkpt>
      <trkpt lat="43.455837" lon="-5.590837">
        <ele>431.0</ele>
        <time>2021-02-14T13:48:13Z</time>
      </trkpt>
      <trkpt lat="43.455845" lon="-5.5908346">
        <ele>432.0</ele>
        <time>2021-02-14T13:48:14Z</time>
      </trkpt>
      <trkpt lat="43.455853" lon="-5.5908294">
        <ele>432.0</ele>
        <time>2021-02-14T13:48:15Z</time>
      </trkpt>
      <trkpt lat="43.45586" lon="-5.590825">
        <ele>432.0</ele>
        <time>2021-02-14T13:48:16Z</time>
      </trkpt>
      <trkpt lat="43.455868" lon="-5.59082">
        <ele>432.0</ele>
        <time>2021-02-14T13:48:17Z</time>
      </trkpt>
      <trkpt lat="43.45587" lon="-5.5908165">
        <ele>432.0</ele>
        <time>2021-02-14T13:48:18Z</time>
      </trkpt>
      <trkpt lat="43.455875" lon="-5.5908136">
        <ele>432.0</ele>
        <time>2021-02-14T13:48:19Z</time>
      </trkpt>
      <trkpt lat="43.455887" lon="-5.59081">
        <ele>432.0</ele>
        <time>2021-02-14T13:48:20Z</time>
      </trkpt>
      <trkpt lat="43.4559" lon="-5.590805">
        <ele>432.0</ele>
        <time>2021-02-14T13:48:21Z</time>
      </trkpt>
      <trkpt lat="43.45591" lon="-5.590801">
        <ele>432.0</ele>
        <time>2021-02-14T13:48:22Z</time>
      </trkpt>
      <trkpt lat="43.455917" lon="-5.590796">
        <ele>432.0</ele>
        <time>2021-02-14T13:48:23Z</time>
      </trkpt>
      <trkpt lat="43.455933" lon="-5.590791">
        <ele>432.0</ele>
        <time>2021-02-14T13:48:24Z</time>
      </trkpt>
      <trkpt lat="43.455944" lon="-5.5907874">
        <ele>432.0</ele>
        <time>2021-02-14T13:48:25Z</time>
      </trkpt>
      <trkpt lat="43.455956" lon="-5.590782">
        <ele>432.0</ele>
        <time>2021-02-14T13:48:26Z</time>
      </trkpt>
      <trkpt lat="43.45597" lon="-5.5907793">
        <ele>432.0</ele>
        <time>2021-02-14T13:48:27Z</time>
      </trkpt>
      <trkpt lat="43.455986" lon="-5.5907774">
        <ele>432.0</ele>
        <time>2021-02-14T13:48:28Z</time>
      </trkpt>
      <trkpt lat="43.456" lon="-5.5907755">
        <ele>432.0</ele>
        <time>2021-02-14T13:48:29Z</time>
      </trkpt>
      <trkpt lat="43.456017" lon="-5.59077">
        <ele>432.0</ele>
        <time>2021-02-14T13:48:30Z</time>
      </trkpt>
      <trkpt lat="43.456024" lon="-5.5907617">
        <ele>433.0</ele>
        <time>2021-02-14T13:48:31Z</time>
      </trkpt>
      <trkpt lat="43.45604" lon="-5.5907545">
        <ele>433.0</ele>
        <time>2021-02-14T13:48:32Z</time>
      </trkpt>
      <trkpt lat="43.456047" lon="-5.590749">
        <ele>433.0</ele>
        <time>2021-02-14T13:48:33Z</time>
      </trkpt>
      <trkpt lat="43.456055" lon="-5.590741">
        <ele>433.0</ele>
        <time>2021-02-14T13:48:34Z</time>
      </trkpt>
      <trkpt lat="43.456066" lon="-5.5907335">
        <ele>433.0</ele>
        <time>2021-02-14T13:48:35Z</time>
      </trkpt>
      <trkpt lat="43.456078" lon="-5.5907283">
        <ele>434.0</ele>
        <time>2021-02-14T13:48:36Z</time>
      </trkpt>
      <trkpt lat="43.456085" lon="-5.590726">
        <ele>434.0</ele>
        <time>2021-02-14T13:48:37Z</time>
      </trkpt>
      <trkpt lat="43.456097" lon="-5.590723">
        <ele>434.0</ele>
        <time>2021-02-14T13:48:38Z</time>
      </trkpt>
      <trkpt lat="43.45611" lon="-5.5907173">
        <ele>434.0</ele>
        <time>2021-02-14T13:48:39Z</time>
      </trkpt>
      <trkpt lat="43.45612" lon="-5.5907116">
        <ele>434.0</ele>
        <time>2021-02-14T13:48:40Z</time>
      </trkpt>
      <trkpt lat="43.456127" lon="-5.590706">
        <ele>435.0</ele>
        <time>2021-02-14T13:48:41Z</time>
      </trkpt>
      <trkpt lat="43.45614" lon="-5.5907025">
        <ele>435.0</ele>
        <time>2021-02-14T13:48:42Z</time>
      </trkpt>
      <trkpt lat="43.45615" lon="-5.590702">
        <ele>435.0</ele>
        <time>2021-02-14T13:48:43Z</time>
      </trkpt>
      <trkpt lat="43.456158" lon="-5.590702">
        <ele>435.0</ele>
        <time>2021-02-14T13:48:44Z</time>
      </trkpt>
      <trkpt lat="43.456165" lon="-5.5907016">
        <ele>435.0</ele>
        <time>2021-02-14T13:48:45Z</time>
      </trkpt>
      <trkpt lat="43.456173" lon="-5.5906997">
        <ele>436.0</ele>
        <time>2021-02-14T13:48:46Z</time>
      </trkpt>
      <trkpt lat="43.45618" lon="-5.5906963">
        <ele>436.0</ele>
        <time>2021-02-14T13:48:47Z</time>
      </trkpt>
      <trkpt lat="43.456184" lon="-5.590693">
        <ele>436.0</ele>
        <time>2021-02-14T13:48:48Z</time>
      </trkpt>
      <trkpt lat="43.456196" lon="-5.5906887">
        <ele>436.0</ele>
        <time>2021-02-14T13:48:49Z</time>
      </trkpt>
      <trkpt lat="43.456203" lon="-5.590684">
        <ele>436.0</ele>
        <time>2021-02-14T13:48:50Z</time>
      </trkpt>
      <trkpt lat="43.45621" lon="-5.590679">
        <ele>436.0</ele>
        <time>2021-02-14T13:48:51Z</time>
      </trkpt>
      <trkpt lat="43.456226" lon="-5.5906734">
        <ele>437.0</ele>
        <time>2021-02-14T13:48:52Z</time>
      </trkpt>
      <trkpt lat="43.456234" lon="-5.590665">
        <ele>437.0</ele>
        <time>2021-02-14T13:48:53Z</time>
      </trkpt>
      <trkpt lat="43.45625" lon="-5.590656">
        <ele>437.0</ele>
        <time>2021-02-14T13:48:54Z</time>
      </trkpt>
      <trkpt lat="43.45626" lon="-5.590648">
        <ele>437.0</ele>
        <time>2021-02-14T13:48:55Z</time>
      </trkpt>
      <trkpt lat="43.456272" lon="-5.590642">
        <ele>437.0</ele>
        <time>2021-02-14T13:48:56Z</time>
      </trkpt>
      <trkpt lat="43.45628" lon="-5.590633">
        <ele>438.0</ele>
        <time>2021-02-14T13:48:57Z</time>
      </trkpt>
      <trkpt lat="43.456287" lon="-5.5906215">
        <ele>438.0</ele>
        <time>2021-02-14T13:48:58Z</time>
      </trkpt>
      <trkpt lat="43.4563" lon="-5.5906086">
        <ele>438.0</ele>
        <time>2021-02-14T13:48:59Z</time>
      </trkpt>
      <trkpt lat="43.456306" lon="-5.5905967">
        <ele>438.0</ele>
        <time>2021-02-14T13:49:00Z</time>
      </trkpt>
      <trkpt lat="43.456318" lon="-5.5905843">
        <ele>438.0</ele>
        <time>2021-02-14T13:49:01Z</time>
      </trkpt>
      <trkpt lat="43.456333" lon="-5.5905747">
        <ele>438.0</ele>
        <time>2021-02-14T13:49:02Z</time>
      </trkpt>
      <trkpt lat="43.45635" lon="-5.5905666">
        <ele>438.0</ele>
        <time>2021-02-14T13:49:03Z</time>
      </trkpt>
      <trkpt lat="43.456364" lon="-5.5905595">
        <ele>438.0</ele>
        <time>2021-02-14T13:49:04Z</time>
      </trkpt>
      <trkpt lat="43.456375" lon="-5.5905557">
        <ele>439.0</ele>
        <time>2021-02-14T13:49:05Z</time>
      </trkpt>
      <trkpt lat="43.456383" lon="-5.5905538">
        <ele>439.0</ele>
        <time>2021-02-14T13:49:06Z</time>
      </trkpt>
      <trkpt lat="43.456394" lon="-5.5905547">
        <ele>439.0</ele>
        <time>2021-02-14T13:49:07Z</time>
      </trkpt>
      <trkpt lat="43.456406" lon="-5.5905557">
        <ele>439.0</ele>
        <time>2021-02-14T13:49:08Z</time>
      </trkpt>
      <trkpt lat="43.456413" lon="-5.590558">
        <ele>439.0</ele>
        <time>2021-02-14T13:49:09Z</time>
      </trkpt>
      <trkpt lat="43.456425" lon="-5.59056">
        <ele>439.0</ele>
        <time>2021-02-14T13:49:10Z</time>
      </trkpt>
      <trkpt lat="43.45643" lon="-5.59056">
        <ele>439.0</ele>
        <time>2021-02-14T13:49:11Z</time>
      </trkpt>
      <trkpt lat="43.45644" lon="-5.59056">
        <ele>439.0</ele>
        <time>2021-02-14T13:49:12Z</time>
      </trkpt>
      <trkpt lat="43.45645" lon="-5.5905604">
        <ele>439.0</ele>
        <time>2021-02-14T13:49:13Z</time>
      </trkpt>
      <trkpt lat="43.456455" lon="-5.590565">
        <ele>439.0</ele>
        <time>2021-02-14T13:49:14Z</time>
      </trkpt>
      <trkpt lat="43.456467" lon="-5.590573">
        <ele>439.0</ele>
        <time>2021-02-14T13:49:15Z</time>
      </trkpt>
      <trkpt lat="43.45647" lon="-5.5905824">
        <ele>439.0</ele>
        <time>2021-02-14T13:49:16Z</time>
      </trkpt>
      <trkpt lat="43.456474" lon="-5.5905914">
        <ele>439.0</ele>
        <time>2021-02-14T13:49:17Z</time>
      </trkpt>
      <trkpt lat="43.456482" lon="-5.5905986">
        <ele>439.0</ele>
        <time>2021-02-14T13:49:18Z</time>
      </trkpt>
      <trkpt lat="43.456493" lon="-5.590607">
        <ele>439.0</ele>
        <time>2021-02-14T13:49:19Z</time>
      </trkpt>
      <trkpt lat="43.456497" lon="-5.590616">
        <ele>439.0</ele>
        <time>2021-02-14T13:49:20Z</time>
      </trkpt>
      <trkpt lat="43.4565" lon="-5.590625">
        <ele>439.0</ele>
        <time>2021-02-14T13:49:21Z</time>
      </trkpt>
      <trkpt lat="43.45651" lon="-5.5906286">
        <ele>439.0</ele>
        <time>2021-02-14T13:49:22Z</time>
      </trkpt>
      <trkpt lat="43.456524" lon="-5.590631">
        <ele>439.0</ele>
        <time>2021-02-14T13:49:24Z</time>
      </trkpt>
      <trkpt lat="43.456516" lon="-5.5906396">
        <ele>439.0</ele>
        <time>2021-02-14T13:49:28Z</time>
      </trkpt>
      <trkpt lat="43.456516" lon="-5.590638">
        <ele>439.0</ele>
        <time>2021-02-14T13:49:29Z</time>
      </trkpt>
      <trkpt lat="43.456516" lon="-5.590638">
        <ele>439.0</ele>
        <time>2021-02-14T13:49:30Z</time>
      </trkpt>
      <trkpt lat="43.456516" lon="-5.5906444">
        <ele>439.0</ele>
        <time>2021-02-14T13:49:31Z</time>
      </trkpt>
      <trkpt lat="43.456516" lon="-5.590656">
        <ele>439.0</ele>
        <time>2021-02-14T13:49:32Z</time>
      </trkpt>
      <trkpt lat="43.456516" lon="-5.590668">
        <ele>439.0</ele>
        <time>2021-02-14T13:49:33Z</time>
      </trkpt>
      <trkpt lat="43.456516" lon="-5.5906796">
        <ele>439.0</ele>
        <time>2021-02-14T13:49:34Z</time>
      </trkpt>
      <trkpt lat="43.456524" lon="-5.5906925">
        <ele>439.0</ele>
        <time>2021-02-14T13:49:35Z</time>
      </trkpt>
      <trkpt lat="43.456528" lon="-5.5907035">
        <ele>439.0</ele>
        <time>2021-02-14T13:49:36Z</time>
      </trkpt>
      <trkpt lat="43.456528" lon="-5.5907125">
        <ele>439.0</ele>
        <time>2021-02-14T13:49:37Z</time>
      </trkpt>
      <trkpt lat="43.45653" lon="-5.5907226">
        <ele>439.0</ele>
        <time>2021-02-14T13:49:38Z</time>
      </trkpt>
      <trkpt lat="43.45654" lon="-5.5907316">
        <ele>439.0</ele>
        <time>2021-02-14T13:49:39Z</time>
      </trkpt>
      <trkpt lat="43.456547" lon="-5.5907393">
        <ele>439.0</ele>
        <time>2021-02-14T13:49:40Z</time>
      </trkpt>
      <trkpt lat="43.456554" lon="-5.5907454">
        <ele>439.0</ele>
        <time>2021-02-14T13:49:41Z</time>
      </trkpt>
      <trkpt lat="43.456562" lon="-5.5907507">
        <ele>439.0</ele>
        <time>2021-02-14T13:49:42Z</time>
      </trkpt>
      <trkpt lat="43.456573" lon="-5.590754">
        <ele>439.0</ele>
        <time>2021-02-14T13:49:43Z</time>
      </trkpt>
      <trkpt lat="43.456585" lon="-5.590758">
        <ele>439.0</ele>
        <time>2021-02-14T13:49:44Z</time>
      </trkpt>
      <trkpt lat="43.456593" lon="-5.590765">
        <ele>439.0</ele>
        <time>2021-02-14T13:49:45Z</time>
      </trkpt>
      <trkpt lat="43.456604" lon="-5.5907745">
        <ele>439.0</ele>
        <time>2021-02-14T13:49:46Z</time>
      </trkpt>
      <trkpt lat="43.456615" lon="-5.590782">
        <ele>439.0</ele>
        <time>2021-02-14T13:49:47Z</time>
      </trkpt>
      <trkpt lat="43.456623" lon="-5.5907884">
        <ele>439.0</ele>
        <time>2021-02-14T13:49:48Z</time>
      </trkpt>
      <trkpt lat="43.456635" lon="-5.590793">
        <ele>439.0</ele>
        <time>2021-02-14T13:49:49Z</time>
      </trkpt>
      <trkpt lat="43.456646" lon="-5.5907955">
        <ele>439.0</ele>
        <time>2021-02-14T13:49:50Z</time>
      </trkpt>
      <trkpt lat="43.456654" lon="-5.590796">
        <ele>439.0</ele>
        <time>2021-02-14T13:49:51Z</time>
      </trkpt>
      <trkpt lat="43.456665" lon="-5.590792">
        <ele>439.0</ele>
        <time>2021-02-14T13:49:52Z</time>
      </trkpt>
      <trkpt lat="43.456676" lon="-5.590786">
        <ele>439.0</ele>
        <time>2021-02-14T13:49:53Z</time>
      </trkpt>
      <trkpt lat="43.456688" lon="-5.5907774">
        <ele>439.0</ele>
        <time>2021-02-14T13:49:54Z</time>
      </trkpt>
      <trkpt lat="43.456696" lon="-5.5907707">
        <ele>439.0</ele>
        <time>2021-02-14T13:49:55Z</time>
      </trkpt>
      <trkpt lat="43.456707" lon="-5.590764">
        <ele>439.0</ele>
        <time>2021-02-14T13:49:56Z</time>
      </trkpt>
      <trkpt lat="43.456722" lon="-5.5907598">
        <ele>439.0</ele>
        <time>2021-02-14T13:49:57Z</time>
      </trkpt>
      <trkpt lat="43.456734" lon="-5.590757">
        <ele>439.0</ele>
        <time>2021-02-14T13:49:58Z</time>
      </trkpt>
      <trkpt lat="43.45674" lon="-5.5907593">
        <ele>439.0</ele>
        <time>2021-02-14T13:49:59Z</time>
      </trkpt>
      <trkpt lat="43.456753" lon="-5.590763">
        <ele>439.0</ele>
        <time>2021-02-14T13:50:00Z</time>
      </trkpt>
      <trkpt lat="43.456764" lon="-5.590768">
        <ele>439.0</ele>
        <time>2021-02-14T13:50:01Z</time>
      </trkpt>
      <trkpt lat="43.456768" lon="-5.5907755">
        <ele>439.0</ele>
        <time>2021-02-14T13:50:02Z</time>
      </trkpt>
      <trkpt lat="43.45678" lon="-5.590786">
        <ele>439.0</ele>
        <time>2021-02-14T13:50:03Z</time>
      </trkpt>
      <trkpt lat="43.456787" lon="-5.590794">
        <ele>439.0</ele>
        <time>2021-02-14T13:50:04Z</time>
      </trkpt>
      <trkpt lat="43.4568" lon="-5.590799">
        <ele>439.0</ele>
        <time>2021-02-14T13:50:05Z</time>
      </trkpt>
      <trkpt lat="43.456814" lon="-5.590803">
        <ele>439.0</ele>
        <time>2021-02-14T13:50:06Z</time>
      </trkpt>
      <trkpt lat="43.45683" lon="-5.5908084">
        <ele>439.0</ele>
        <time>2021-02-14T13:50:07Z</time>
      </trkpt>
      <trkpt lat="43.456844" lon="-5.5908117">
        <ele>439.0</ele>
        <time>2021-02-14T13:50:08Z</time>
      </trkpt>
      <trkpt lat="43.456856" lon="-5.590814">
        <ele>439.0</ele>
        <time>2021-02-14T13:50:10Z</time>
      </trkpt>
      <trkpt lat="43.456863" lon="-5.5908146">
        <ele>439.0</ele>
        <time>2021-02-14T13:50:10Z</time>
      </trkpt>
      <trkpt lat="43.456875" lon="-5.590818">
        <ele>438.0</ele>
        <time>2021-02-14T13:50:11Z</time>
      </trkpt>
      <trkpt lat="43.45689" lon="-5.590824">
        <ele>438.0</ele>
        <time>2021-02-14T13:50:12Z</time>
      </trkpt>
      <trkpt lat="43.4569" lon="-5.590827">
        <ele>438.0</ele>
        <time>2021-02-14T13:50:13Z</time>
      </trkpt>
      <trkpt lat="43.45692" lon="-5.59083">
        <ele>438.0</ele>
        <time>2021-02-14T13:50:14Z</time>
      </trkpt>
      <trkpt lat="43.456936" lon="-5.5908365">
        <ele>438.0</ele>
        <time>2021-02-14T13:50:15Z</time>
      </trkpt>
      <trkpt lat="43.45695" lon="-5.5908427">
        <ele>438.0</ele>
        <time>2021-02-14T13:50:16Z</time>
      </trkpt>
      <trkpt lat="43.456966" lon="-5.5908475">
        <ele>438.0</ele>
        <time>2021-02-14T13:50:17Z</time>
      </trkpt>
      <trkpt lat="43.45698" lon="-5.590852">
        <ele>438.0</ele>
        <time>2021-02-14T13:50:18Z</time>
      </trkpt>
      <trkpt lat="43.456997" lon="-5.590857">
        <ele>438.0</ele>
        <time>2021-02-14T13:50:19Z</time>
      </trkpt>
      <trkpt lat="43.45701" lon="-5.5908613">
        <ele>438.0</ele>
        <time>2021-02-14T13:50:20Z</time>
      </trkpt>
      <trkpt lat="43.457024" lon="-5.5908685">
        <ele>438.0</ele>
        <time>2021-02-14T13:50:21Z</time>
      </trkpt>
      <trkpt lat="43.457043" lon="-5.590876">
        <ele>438.0</ele>
        <time>2021-02-14T13:50:22Z</time>
      </trkpt>
      <trkpt lat="43.457058" lon="-5.590882">
        <ele>438.0</ele>
        <time>2021-02-14T13:50:23Z</time>
      </trkpt>
      <trkpt lat="43.45707" lon="-5.5908866">
        <ele>438.0</ele>
        <time>2021-02-14T13:50:24Z</time>
      </trkpt>
      <trkpt lat="43.457085" lon="-5.5908895">
        <ele>438.0</ele>
        <time>2021-02-14T13:50:25Z</time>
      </trkpt>
      <trkpt lat="43.457096" lon="-5.590891">
        <ele>438.0</ele>
        <time>2021-02-14T13:50:26Z</time>
      </trkpt>
      <trkpt lat="43.457108" lon="-5.590891">
        <ele>437.0</ele>
        <time>2021-02-14T13:50:27Z</time>
      </trkpt>
      <trkpt lat="43.457123" lon="-5.5908885">
        <ele>437.0</ele>
        <time>2021-02-14T13:50:28Z</time>
      </trkpt>
      <trkpt lat="43.45713" lon="-5.590883">
        <ele>437.0</ele>
        <time>2021-02-14T13:50:29Z</time>
      </trkpt>
      <trkpt lat="43.457146" lon="-5.590881">
        <ele>437.0</ele>
        <time>2021-02-14T13:50:30Z</time>
      </trkpt>
      <trkpt lat="43.457157" lon="-5.5908794">
        <ele>437.0</ele>
        <time>2021-02-14T13:50:31Z</time>
      </trkpt>
      <trkpt lat="43.45717" lon="-5.5908794">
        <ele>437.0</ele>
        <time>2021-02-14T13:50:32Z</time>
      </trkpt>
      <trkpt lat="43.457176" lon="-5.59088">
        <ele>437.0</ele>
        <time>2021-02-14T13:50:33Z</time>
      </trkpt>
      <trkpt lat="43.457188" lon="-5.590881">
        <ele>436.0</ele>
        <time>2021-02-14T13:50:34Z</time>
      </trkpt>
      <trkpt lat="43.457203" lon="-5.590881">
        <ele>436.0</ele>
        <time>2021-02-14T13:50:35Z</time>
      </trkpt>
      <trkpt lat="43.457214" lon="-5.590883">
        <ele>436.0</ele>
        <time>2021-02-14T13:50:36Z</time>
      </trkpt>
      <trkpt lat="43.45723" lon="-5.5908875">
        <ele>436.0</ele>
        <time>2021-02-14T13:50:37Z</time>
      </trkpt>
      <trkpt lat="43.457245" lon="-5.5908933">
        <ele>436.0</ele>
        <time>2021-02-14T13:50:38Z</time>
      </trkpt>
      <trkpt lat="43.45726" lon="-5.5909023">
        <ele>436.0</ele>
        <time>2021-02-14T13:50:39Z</time>
      </trkpt>
      <trkpt lat="43.457275" lon="-5.590914">
        <ele>436.0</ele>
        <time>2021-02-14T13:50:40Z</time>
      </trkpt>
      <trkpt lat="43.457287" lon="-5.5909247">
        <ele>435.0</ele>
        <time>2021-02-14T13:50:41Z</time>
      </trkpt>
      <trkpt lat="43.457302" lon="-5.5909324">
        <ele>435.0</ele>
        <time>2021-02-14T13:50:42Z</time>
      </trkpt>
      <trkpt lat="43.457317" lon="-5.590938">
        <ele>435.0</ele>
        <time>2021-02-14T13:50:43Z</time>
      </trkpt>
      <trkpt lat="43.457333" lon="-5.590941">
        <ele>435.0</ele>
        <time>2021-02-14T13:50:44Z</time>
      </trkpt>
      <trkpt lat="43.457348" lon="-5.5909457">
        <ele>435.0</ele>
        <time>2021-02-14T13:50:45Z</time>
      </trkpt>
      <trkpt lat="43.457363" lon="-5.590951">
        <ele>435.0</ele>
        <time>2021-02-14T13:50:46Z</time>
      </trkpt>
      <trkpt lat="43.457382" lon="-5.5909557">
        <ele>435.0</ele>
        <time>2021-02-14T13:50:47Z</time>
      </trkpt>
      <trkpt lat="43.457394" lon="-5.590958">
        <ele>435.0</ele>
        <time>2021-02-14T13:50:49Z</time>
      </trkpt>
      <trkpt lat="43.45741" lon="-5.5909586">
        <ele>435.0</ele>
        <time>2021-02-14T13:50:49Z</time>
      </trkpt>
      <trkpt lat="43.457417" lon="-5.590956">
        <ele>435.0</ele>
        <time>2021-02-14T13:50:50Z</time>
      </trkpt>
      <trkpt lat="43.457428" lon="-5.5909514">
        <ele>434.0</ele>
        <time>2021-02-14T13:50:51Z</time>
      </trkpt>
      <trkpt lat="43.45744" lon="-5.5909467">
        <ele>434.0</ele>
        <time>2021-02-14T13:50:52Z</time>
      </trkpt>
      <trkpt lat="43.45745" lon="-5.590938">
        <ele>434.0</ele>
        <time>2021-02-14T13:50:53Z</time>
      </trkpt>
      <trkpt lat="43.45746" lon="-5.5909295">
        <ele>434.0</ele>
        <time>2021-02-14T13:50:54Z</time>
      </trkpt>
      <trkpt lat="43.45747" lon="-5.590923">
        <ele>434.0</ele>
        <time>2021-02-14T13:50:55Z</time>
      </trkpt>
      <trkpt lat="43.457485" lon="-5.5909195">
        <ele>433.0</ele>
        <time>2021-02-14T13:50:56Z</time>
      </trkpt>
      <trkpt lat="43.457497" lon="-5.5909176">
        <ele>433.0</ele>
        <time>2021-02-14T13:50:57Z</time>
      </trkpt>
      <trkpt lat="43.45751" lon="-5.590915">
        <ele>433.0</ele>
        <time>2021-02-14T13:50:58Z</time>
      </trkpt>
      <trkpt lat="43.457527" lon="-5.590913">
        <ele>433.0</ele>
        <time>2021-02-14T13:50:59Z</time>
      </trkpt>
      <trkpt lat="43.457542" lon="-5.590909">
        <ele>433.0</ele>
        <time>2021-02-14T13:51:00Z</time>
      </trkpt>
      <trkpt lat="43.45755" lon="-5.590905">
        <ele>432.0</ele>
        <time>2021-02-14T13:51:01Z</time>
      </trkpt>
      <trkpt lat="43.45756" lon="-5.5909004">
        <ele>432.0</ele>
        <time>2021-02-14T13:51:02Z</time>
      </trkpt>
      <trkpt lat="43.457573" lon="-5.5908966">
        <ele>432.0</ele>
        <time>2021-02-14T13:51:03Z</time>
      </trkpt>
      <trkpt lat="43.45758" lon="-5.590893">
        <ele>432.0</ele>
        <time>2021-02-14T13:51:04Z</time>
      </trkpt>
      <trkpt lat="43.457596" lon="-5.5908904">
        <ele>432.0</ele>
        <time>2021-02-14T13:51:05Z</time>
      </trkpt>
      <trkpt lat="43.457607" lon="-5.5908904">
        <ele>431.0</ele>
        <time>2021-02-14T13:51:06Z</time>
      </trkpt>
      <trkpt lat="43.457623" lon="-5.5908904">
        <ele>431.0</ele>
        <time>2021-02-14T13:51:07Z</time>
      </trkpt>
      <trkpt lat="43.457634" lon="-5.5908923">
        <ele>431.0</ele>
        <time>2021-02-14T13:51:08Z</time>
      </trkpt>
      <trkpt lat="43.45765" lon="-5.590894">
        <ele>431.0</ele>
        <time>2021-02-14T13:51:09Z</time>
      </trkpt>
      <trkpt lat="43.45766" lon="-5.590898">
        <ele>431.0</ele>
        <time>2021-02-14T13:51:09Z</time>
      </trkpt>
      <trkpt lat="43.457676" lon="-5.590903">
        <ele>431.0</ele>
        <time>2021-02-14T13:51:10Z</time>
      </trkpt>
      <trkpt lat="43.457684" lon="-5.590907">
        <ele>431.0</ele>
        <time>2021-02-14T13:51:11Z</time>
      </trkpt>
      <trkpt lat="43.457695" lon="-5.590909">
        <ele>431.0</ele>
        <time>2021-02-14T13:51:12Z</time>
      </trkpt>
      <trkpt lat="43.457706" lon="-5.59091">
        <ele>430.0</ele>
        <time>2021-02-14T13:51:13Z</time>
      </trkpt>
      <trkpt lat="43.45771" lon="-5.590911">
        <ele>430.0</ele>
        <time>2021-02-14T13:51:14Z</time>
      </trkpt>
      <trkpt lat="43.45772" lon="-5.590914">
        <ele>430.0</ele>
        <time>2021-02-14T13:51:15Z</time>
      </trkpt>
      <trkpt lat="43.457726" lon="-5.5909166">
        <ele>430.0</ele>
        <time>2021-02-14T13:51:16Z</time>
      </trkpt>
      <trkpt lat="43.457737" lon="-5.590917">
        <ele>430.0</ele>
        <time>2021-02-14T13:51:17Z</time>
      </trkpt>
      <trkpt lat="43.45774" lon="-5.590919">
        <ele>430.0</ele>
        <time>2021-02-14T13:51:18Z</time>
      </trkpt>
      <trkpt lat="43.457752" lon="-5.5909243">
        <ele>430.0</ele>
        <time>2021-02-14T13:51:19Z</time>
      </trkpt>
      <trkpt lat="43.457756" lon="-5.590932">
        <ele>430.0</ele>
        <time>2021-02-14T13:51:20Z</time>
      </trkpt>
      <trkpt lat="43.457767" lon="-5.590939">
        <ele>430.0</ele>
        <time>2021-02-14T13:51:21Z</time>
      </trkpt>
      <trkpt lat="43.457775" lon="-5.5909486">
        <ele>430.0</ele>
        <time>2021-02-14T13:51:22Z</time>
      </trkpt>
      <trkpt lat="43.457787" lon="-5.5909586">
        <ele>430.0</ele>
        <time>2021-02-14T13:51:23Z</time>
      </trkpt>
      <trkpt lat="43.4578" lon="-5.5909677">
        <ele>430.0</ele>
        <time>2021-02-14T13:51:24Z</time>
      </trkpt>
      <trkpt lat="43.457813" lon="-5.590975">
        <ele>430.0</ele>
        <time>2021-02-14T13:51:25Z</time>
      </trkpt>
      <trkpt lat="43.45782" lon="-5.5909824">
        <ele>430.0</ele>
        <time>2021-02-14T13:51:26Z</time>
      </trkpt>
      <trkpt lat="43.457832" lon="-5.5909905">
        <ele>430.0</ele>
        <time>2021-02-14T13:51:27Z</time>
      </trkpt>
      <trkpt lat="43.457848" lon="-5.5910006">
        <ele>430.0</ele>
        <time>2021-02-14T13:51:28Z</time>
      </trkpt>
      <trkpt lat="43.457863" lon="-5.59101">
        <ele>430.0</ele>
        <time>2021-02-14T13:51:29Z</time>
      </trkpt>
      <trkpt lat="43.457874" lon="-5.59102">
        <ele>430.0</ele>
        <time>2021-02-14T13:51:30Z</time>
      </trkpt>
      <trkpt lat="43.45789" lon="-5.5910316">
        <ele>430.0</ele>
        <time>2021-02-14T13:51:31Z</time>
      </trkpt>
      <trkpt lat="43.457905" lon="-5.591045">
        <ele>430.0</ele>
        <time>2021-02-14T13:51:32Z</time>
      </trkpt>
      <trkpt lat="43.45792" lon="-5.591058">
        <ele>430.0</ele>
        <time>2021-02-14T13:51:33Z</time>
      </trkpt>
      <trkpt lat="43.45793" lon="-5.5910735">
        <ele>430.0</ele>
        <time>2021-02-14T13:51:34Z</time>
      </trkpt>
      <trkpt lat="43.457947" lon="-5.5910897">
        <ele>430.0</ele>
        <time>2021-02-14T13:51:35Z</time>
      </trkpt>
      <trkpt lat="43.457954" lon="-5.5911083">
        <ele>430.0</ele>
        <time>2021-02-14T13:51:36Z</time>
      </trkpt>
      <trkpt lat="43.457966" lon="-5.591127">
        <ele>430.0</ele>
        <time>2021-02-14T13:51:37Z</time>
      </trkpt>
      <trkpt lat="43.45798" lon="-5.591143">
        <ele>430.0</ele>
        <time>2021-02-14T13:51:38Z</time>
      </trkpt>
      <trkpt lat="43.457993" lon="-5.5911546">
        <ele>430.0</ele>
        <time>2021-02-14T13:51:39Z</time>
      </trkpt>
      <trkpt lat="43.458" lon="-5.5911617">
        <ele>430.0</ele>
        <time>2021-02-14T13:51:40Z</time>
      </trkpt>
      <trkpt lat="43.458015" lon="-5.5911665">
        <ele>430.0</ele>
        <time>2021-02-14T13:51:41Z</time>
      </trkpt>
      <trkpt lat="43.458035" lon="-5.591171">
        <ele>430.0</ele>
        <time>2021-02-14T13:51:42Z</time>
      </trkpt>
      <trkpt lat="43.45805" lon="-5.5911736">
        <ele>430.0</ele>
        <time>2021-02-14T13:51:43Z</time>
      </trkpt>
      <trkpt lat="43.458065" lon="-5.591177">
        <ele>430.0</ele>
        <time>2021-02-14T13:51:44Z</time>
      </trkpt>
      <trkpt lat="43.45808" lon="-5.5911794">
        <ele>430.0</ele>
        <time>2021-02-14T13:51:45Z</time>
      </trkpt>
      <trkpt lat="43.458088" lon="-5.591181">
        <ele>430.0</ele>
        <time>2021-02-14T13:51:46Z</time>
      </trkpt>
      <trkpt lat="43.458103" lon="-5.5911813">
        <ele>429.0</ele>
        <time>2021-02-14T13:51:47Z</time>
      </trkpt>
      <trkpt lat="43.458115" lon="-5.5911813">
        <ele>429.0</ele>
        <time>2021-02-14T13:51:48Z</time>
      </trkpt>
      <trkpt lat="43.458126" lon="-5.591182">
        <ele>429.0</ele>
        <time>2021-02-14T13:51:49Z</time>
      </trkpt>
      <trkpt lat="43.458134" lon="-5.591182">
        <ele>429.0</ele>
        <time>2021-02-14T13:51:50Z</time>
      </trkpt>
      <trkpt lat="43.458145" lon="-5.591182">
        <ele>429.0</ele>
        <time>2021-02-14T13:51:51Z</time>
      </trkpt>
      <trkpt lat="43.458157" lon="-5.591182">
        <ele>429.0</ele>
        <time>2021-02-14T13:51:52Z</time>
      </trkpt>
      <trkpt lat="43.458164" lon="-5.591182">
        <ele>429.0</ele>
        <time>2021-02-14T13:51:53Z</time>
      </trkpt>
      <trkpt lat="43.45819" lon="-5.591189">
        <ele>429.0</ele>
        <time>2021-02-14T13:51:55Z</time>
      </trkpt>
      <trkpt lat="43.45819" lon="-5.5911884">
        <ele>429.0</ele>
        <time>2021-02-14T13:51:56Z</time>
      </trkpt>
      <trkpt lat="43.458206" lon="-5.591189">
        <ele>429.0</ele>
        <time>2021-02-14T13:51:59Z</time>
      </trkpt>
      <trkpt lat="43.45821" lon="-5.59119">
        <ele>429.0</ele>
        <time>2021-02-14T13:52:00Z</time>
      </trkpt>
      <trkpt lat="43.458218" lon="-5.591189">
        <ele>429.0</ele>
        <time>2021-02-14T13:52:01Z</time>
      </trkpt>
      <trkpt lat="43.45823" lon="-5.59119">
        <ele>429.0</ele>
        <time>2021-02-14T13:52:02Z</time>
      </trkpt>
      <trkpt lat="43.458237" lon="-5.591191">
        <ele>429.0</ele>
        <time>2021-02-14T13:52:03Z</time>
      </trkpt>
      <trkpt lat="43.45825" lon="-5.591194">
        <ele>429.0</ele>
        <time>2021-02-14T13:52:04Z</time>
      </trkpt>
      <trkpt lat="43.45826" lon="-5.5911994">
        <ele>429.0</ele>
        <time>2021-02-14T13:52:05Z</time>
      </trkpt>
      <trkpt lat="43.458267" lon="-5.5912056">
        <ele>429.0</ele>
        <time>2021-02-14T13:52:06Z</time>
      </trkpt>
      <trkpt lat="43.45828" lon="-5.5912127">
        <ele>428.0</ele>
        <time>2021-02-14T13:52:07Z</time>
      </trkpt>
      <trkpt lat="43.458294" lon="-5.5912194">
        <ele>428.0</ele>
        <time>2021-02-14T13:52:08Z</time>
      </trkpt>
      <trkpt lat="43.458305" lon="-5.591224">
        <ele>428.0</ele>
        <time>2021-02-14T13:52:09Z</time>
      </trkpt>
      <trkpt lat="43.458313" lon="-5.591227">
        <ele>428.0</ele>
        <time>2021-02-14T13:52:10Z</time>
      </trkpt>
      <trkpt lat="43.458324" lon="-5.5912313">
        <ele>428.0</ele>
        <time>2021-02-14T13:52:11Z</time>
      </trkpt>
      <trkpt lat="43.45834" lon="-5.5912356">
        <ele>427.0</ele>
        <time>2021-02-14T13:52:12Z</time>
      </trkpt>
      <trkpt lat="43.45835" lon="-5.5912404">
        <ele>427.0</ele>
        <time>2021-02-14T13:52:13Z</time>
      </trkpt>
      <trkpt lat="43.45836" lon="-5.591246">
        <ele>427.0</ele>
        <time>2021-02-14T13:52:14Z</time>
      </trkpt>
      <trkpt lat="43.458374" lon="-5.5912495">
        <ele>427.0</ele>
        <time>2021-02-14T13:52:15Z</time>
      </trkpt>
      <trkpt lat="43.458385" lon="-5.59125">
        <ele>427.0</ele>
        <time>2021-02-14T13:52:16Z</time>
      </trkpt>
      <trkpt lat="43.4584" lon="-5.5912495">
        <ele>427.0</ele>
        <time>2021-02-14T13:52:17Z</time>
      </trkpt>
      <trkpt lat="43.458416" lon="-5.591248">
        <ele>426.0</ele>
        <time>2021-02-14T13:52:18Z</time>
      </trkpt>
      <trkpt lat="43.458427" lon="-5.591248">
        <ele>426.0</ele>
        <time>2021-02-14T13:52:19Z</time>
      </trkpt>
      <trkpt lat="43.45844" lon="-5.591248">
        <ele>426.0</ele>
        <time>2021-02-14T13:52:20Z</time>
      </trkpt>
      <trkpt lat="43.458447" lon="-5.5912485">
        <ele>426.0</ele>
        <time>2021-02-14T13:52:21Z</time>
      </trkpt>
      <trkpt lat="43.458458" lon="-5.5912504">
        <ele>426.0</ele>
        <time>2021-02-14T13:52:22Z</time>
      </trkpt>
      <trkpt lat="43.45847" lon="-5.5912538">
        <ele>426.0</ele>
        <time>2021-02-14T13:52:23Z</time>
      </trkpt>
      <trkpt lat="43.458477" lon="-5.591257">
        <ele>426.0</ele>
        <time>2021-02-14T13:52:24Z</time>
      </trkpt>
      <trkpt lat="43.45849" lon="-5.591262">
        <ele>426.0</ele>
        <time>2021-02-14T13:52:25Z</time>
      </trkpt>
      <trkpt lat="43.458504" lon="-5.5912666">
        <ele>426.0</ele>
        <time>2021-02-14T13:52:26Z</time>
      </trkpt>
      <trkpt lat="43.45852" lon="-5.5912724">
        <ele>426.0</ele>
        <time>2021-02-14T13:52:27Z</time>
      </trkpt>
      <trkpt lat="43.458534" lon="-5.5912757">
        <ele>426.0</ele>
        <time>2021-02-14T13:52:28Z</time>
      </trkpt>
      <trkpt lat="43.45855" lon="-5.5912795">
        <ele>426.0</ele>
        <time>2021-02-14T13:52:29Z</time>
      </trkpt>
      <trkpt lat="43.45856" lon="-5.5912814">
        <ele>426.0</ele>
        <time>2021-02-14T13:52:30Z</time>
      </trkpt>
      <trkpt lat="43.458576" lon="-5.59128">
        <ele>426.0</ele>
        <time>2021-02-14T13:52:31Z</time>
      </trkpt>
      <trkpt lat="43.45859" lon="-5.5912766">
        <ele>426.0</ele>
        <time>2021-02-14T13:52:32Z</time>
      </trkpt>
      <trkpt lat="43.458607" lon="-5.5912743">
        <ele>425.0</ele>
        <time>2021-02-14T13:52:33Z</time>
      </trkpt>
      <trkpt lat="43.458626" lon="-5.591271">
        <ele>425.0</ele>
        <time>2021-02-14T13:52:34Z</time>
      </trkpt>
      <trkpt lat="43.458637" lon="-5.591266">
        <ele>425.0</ele>
        <time>2021-02-14T13:52:35Z</time>
      </trkpt>
      <trkpt lat="43.458652" lon="-5.5912614">
        <ele>425.0</ele>
        <time>2021-02-14T13:52:36Z</time>
      </trkpt>
      <trkpt lat="43.458668" lon="-5.5912576">
        <ele>425.0</ele>
        <time>2021-02-14T13:52:37Z</time>
      </trkpt>
      <trkpt lat="43.458683" lon="-5.591255">
        <ele>424.0</ele>
        <time>2021-02-14T13:52:38Z</time>
      </trkpt>
      <trkpt lat="43.458694" lon="-5.5912533">
        <ele>424.0</ele>
        <time>2021-02-14T13:52:39Z</time>
      </trkpt>
      <trkpt lat="43.458702" lon="-5.5912514">
        <ele>424.0</ele>
        <time>2021-02-14T13:52:40Z</time>
      </trkpt>
      <trkpt lat="43.458714" lon="-5.5912504">
        <ele>424.0</ele>
        <time>2021-02-14T13:52:41Z</time>
      </trkpt>
      <trkpt lat="43.458725" lon="-5.5912485">
        <ele>423.0</ele>
        <time>2021-02-14T13:52:42Z</time>
      </trkpt>
      <trkpt lat="43.458733" lon="-5.5912476">
        <ele>423.0</ele>
        <time>2021-02-14T13:52:43Z</time>
      </trkpt>
      <trkpt lat="43.458744" lon="-5.5912476">
        <ele>423.0</ele>
        <time>2021-02-14T13:52:44Z</time>
      </trkpt>
      <trkpt lat="43.458755" lon="-5.591248">
        <ele>423.0</ele>
        <time>2021-02-14T13:52:45Z</time>
      </trkpt>
      <trkpt lat="43.458763" lon="-5.59125">
        <ele>423.0</ele>
        <time>2021-02-14T13:52:46Z</time>
      </trkpt>
      <trkpt lat="43.458775" lon="-5.591252">
        <ele>422.0</ele>
        <time>2021-02-14T13:52:47Z</time>
      </trkpt>
      <trkpt lat="43.458786" lon="-5.591254">
        <ele>422.0</ele>
        <time>2021-02-14T13:52:48Z</time>
      </trkpt>
      <trkpt lat="43.458794" lon="-5.591257">
        <ele>422.0</ele>
        <time>2021-02-14T13:52:49Z</time>
      </trkpt>
      <trkpt lat="43.458805" lon="-5.591259">
        <ele>422.0</ele>
        <time>2021-02-14T13:52:50Z</time>
      </trkpt>
      <trkpt lat="43.45882" lon="-5.591259">
        <ele>421.0</ele>
        <time>2021-02-14T13:52:51Z</time>
      </trkpt>
      <trkpt lat="43.45883" lon="-5.591256">
        <ele>421.0</ele>
        <time>2021-02-14T13:52:52Z</time>
      </trkpt>
      <trkpt lat="43.458843" lon="-5.5912533">
        <ele>421.0</ele>
        <time>2021-02-14T13:52:53Z</time>
      </trkpt>
      <trkpt lat="43.45886" lon="-5.591254">
        <ele>420.0</ele>
        <time>2021-02-14T13:52:54Z</time>
      </trkpt>
      <trkpt lat="43.458874" lon="-5.5912576">
        <ele>420.0</ele>
        <time>2021-02-14T13:52:55Z</time>
      </trkpt>
      <trkpt lat="43.45888" lon="-5.591259">
        <ele>420.0</ele>
        <time>2021-02-14T13:52:56Z</time>
      </trkpt>
      <trkpt lat="43.45889" lon="-5.591261">
        <ele>420.0</ele>
        <time>2021-02-14T13:52:57Z</time>
      </trkpt>
      <trkpt lat="43.458897" lon="-5.5912633">
        <ele>420.0</ele>
        <time>2021-02-14T13:52:58Z</time>
      </trkpt>
      <trkpt lat="43.458904" lon="-5.591267">
        <ele>420.0</ele>
        <time>2021-02-14T13:52:59Z</time>
      </trkpt>
      <trkpt lat="43.45891" lon="-5.5912704">
        <ele>420.0</ele>
        <time>2021-02-14T13:53:00Z</time>
      </trkpt>
      <trkpt lat="43.458923" lon="-5.5912757">
        <ele>419.0</ele>
        <time>2021-02-14T13:53:01Z</time>
      </trkpt>
      <trkpt lat="43.45894" lon="-5.5912805">
        <ele>419.0</ele>
        <time>2021-02-14T13:53:02Z</time>
      </trkpt>
      <trkpt lat="43.45895" lon="-5.5912857">
        <ele>419.0</ele>
        <time>2021-02-14T13:53:03Z</time>
      </trkpt>
      <trkpt lat="43.458958" lon="-5.591289">
        <ele>419.0</ele>
        <time>2021-02-14T13:53:04Z</time>
      </trkpt>
      <trkpt lat="43.45897" lon="-5.5912905">
        <ele>418.0</ele>
        <time>2021-02-14T13:53:05Z</time>
      </trkpt>
      <trkpt lat="43.458973" lon="-5.5912933">
        <ele>418.0</ele>
        <time>2021-02-14T13:53:06Z</time>
      </trkpt>
      <trkpt lat="43.458984" lon="-5.591297">
        <ele>418.0</ele>
        <time>2021-02-14T13:53:07Z</time>
      </trkpt>
      <trkpt lat="43.458996" lon="-5.591301">
        <ele>418.0</ele>
        <time>2021-02-14T13:53:08Z</time>
      </trkpt>
      <trkpt lat="43.459007" lon="-5.5913057">
        <ele>418.0</ele>
        <time>2021-02-14T13:53:09Z</time>
      </trkpt>
      <trkpt lat="43.459015" lon="-5.5913086">
        <ele>418.0</ele>
        <time>2021-02-14T13:53:10Z</time>
      </trkpt>
      <trkpt lat="43.459026" lon="-5.591312">
        <ele>417.0</ele>
        <time>2021-02-14T13:53:11Z</time>
      </trkpt>
      <trkpt lat="43.459038" lon="-5.591315">
        <ele>417.0</ele>
        <time>2021-02-14T13:53:12Z</time>
      </trkpt>
      <trkpt lat="43.459045" lon="-5.5913177">
        <ele>417.0</ele>
        <time>2021-02-14T13:53:13Z</time>
      </trkpt>
      <trkpt lat="43.459057" lon="-5.5913215">
        <ele>417.0</ele>
        <time>2021-02-14T13:53:14Z</time>
      </trkpt>
      <trkpt lat="43.45907" lon="-5.5913234">
        <ele>417.0</ele>
        <time>2021-02-14T13:53:15Z</time>
      </trkpt>
      <trkpt lat="43.459084" lon="-5.5913253">
        <ele>417.0</ele>
        <time>2021-02-14T13:53:16Z</time>
      </trkpt>
      <trkpt lat="43.45909" lon="-5.5913253">
        <ele>417.0</ele>
        <time>2021-02-14T13:53:17Z</time>
      </trkpt>
      <trkpt lat="43.459103" lon="-5.5913234">
        <ele>417.0</ele>
        <time>2021-02-14T13:53:18Z</time>
      </trkpt>
      <trkpt lat="43.459114" lon="-5.5913224">
        <ele>417.0</ele>
        <time>2021-02-14T13:53:19Z</time>
      </trkpt>
      <trkpt lat="43.45912" lon="-5.591321">
        <ele>417.0</ele>
        <time>2021-02-14T13:53:20Z</time>
      </trkpt>
      <trkpt lat="43.459133" lon="-5.5913196">
        <ele>417.0</ele>
        <time>2021-02-14T13:53:21Z</time>
      </trkpt>
      <trkpt lat="43.459145" lon="-5.591317">
        <ele>417.0</ele>
        <time>2021-02-14T13:53:22Z</time>
      </trkpt>
      <trkpt lat="43.459152" lon="-5.5913157">
        <ele>417.0</ele>
        <time>2021-02-14T13:53:23Z</time>
      </trkpt>
      <trkpt lat="43.459167" lon="-5.5913153">
        <ele>417.0</ele>
        <time>2021-02-14T13:53:24Z</time>
      </trkpt>
      <trkpt lat="43.459183" lon="-5.591315">
        <ele>417.0</ele>
        <time>2021-02-14T13:53:25Z</time>
      </trkpt>
      <trkpt lat="43.4592" lon="-5.591312">
        <ele>417.0</ele>
        <time>2021-02-14T13:53:26Z</time>
      </trkpt>
      <trkpt lat="43.459217" lon="-5.5913086">
        <ele>417.0</ele>
        <time>2021-02-14T13:53:27Z</time>
      </trkpt>
      <trkpt lat="43.459232" lon="-5.5913076">
        <ele>417.0</ele>
        <time>2021-02-14T13:53:28Z</time>
      </trkpt>
      <trkpt lat="43.45925" lon="-5.591306">
        <ele>417.0</ele>
        <time>2021-02-14T13:53:29Z</time>
      </trkpt>
      <trkpt lat="43.459263" lon="-5.591305">
        <ele>416.0</ele>
        <time>2021-02-14T13:53:30Z</time>
      </trkpt>
      <trkpt lat="43.459282" lon="-5.591302">
        <ele>416.0</ele>
        <time>2021-02-14T13:53:31Z</time>
      </trkpt>
      <trkpt lat="43.459293" lon="-5.5912967">
        <ele>416.0</ele>
        <time>2021-02-14T13:53:32Z</time>
      </trkpt>
      <trkpt lat="43.45931" lon="-5.5912924">
        <ele>416.0</ele>
        <time>2021-02-14T13:53:33Z</time>
      </trkpt>
      <trkpt lat="43.459324" lon="-5.591287">
        <ele>416.0</ele>
        <time>2021-02-14T13:53:34Z</time>
      </trkpt>
      <trkpt lat="43.45933" lon="-5.5912814">
        <ele>416.0</ele>
        <time>2021-02-14T13:53:35Z</time>
      </trkpt>
      <trkpt lat="43.459347" lon="-5.5912766">
        <ele>416.0</ele>
        <time>2021-02-14T13:53:36Z</time>
      </trkpt>
      <trkpt lat="43.45936" lon="-5.5912743">
        <ele>416.0</ele>
        <time>2021-02-14T13:53:37Z</time>
      </trkpt>
      <trkpt lat="43.459373" lon="-5.591271">
        <ele>416.0</ele>
        <time>2021-02-14T13:53:38Z</time>
      </trkpt>
      <trkpt lat="43.45939" lon="-5.5912685">
        <ele>415.0</ele>
        <time>2021-02-14T13:53:39Z</time>
      </trkpt>
      <trkpt lat="43.4594" lon="-5.591268">
        <ele>415.0</ele>
        <time>2021-02-14T13:53:40Z</time>
      </trkpt>
      <trkpt lat="43.45941" lon="-5.591267">
        <ele>415.0</ele>
        <time>2021-02-14T13:53:41Z</time>
      </trkpt>
      <trkpt lat="43.45942" lon="-5.591266">
        <ele>415.0</ele>
        <time>2021-02-14T13:53:42Z</time>
      </trkpt>
      <trkpt lat="43.45943" lon="-5.5912647">
        <ele>415.0</ele>
        <time>2021-02-14T13:53:43Z</time>
      </trkpt>
      <trkpt lat="43.459442" lon="-5.591263">
        <ele>415.0</ele>
        <time>2021-02-14T13:53:44Z</time>
      </trkpt>
      <trkpt lat="43.459446" lon="-5.591261">
        <ele>415.0</ele>
        <time>2021-02-14T13:53:45Z</time>
      </trkpt>
      <trkpt lat="43.459457" lon="-5.591256">
        <ele>415.0</ele>
        <time>2021-02-14T13:53:46Z</time>
      </trkpt>
      <trkpt lat="43.459465" lon="-5.5912504">
        <ele>415.0</ele>
        <time>2021-02-14T13:53:47Z</time>
      </trkpt>
      <trkpt lat="43.459476" lon="-5.5912457">
        <ele>415.0</ele>
        <time>2021-02-14T13:53:48Z</time>
      </trkpt>
      <trkpt lat="43.45949" lon="-5.5912395">
        <ele>414.0</ele>
        <time>2021-02-14T13:53:49Z</time>
      </trkpt>
      <trkpt lat="43.459503" lon="-5.591235">
        <ele>414.0</ele>
        <time>2021-02-14T13:53:50Z</time>
      </trkpt>
      <trkpt lat="43.45952" lon="-5.5912313">
        <ele>414.0</ele>
        <time>2021-02-14T13:53:51Z</time>
      </trkpt>
      <trkpt lat="43.459534" lon="-5.591228">
        <ele>414.0</ele>
        <time>2021-02-14T13:53:52Z</time>
      </trkpt>
      <trkpt lat="43.45955" lon="-5.591224">
        <ele>414.0</ele>
        <time>2021-02-14T13:53:53Z</time>
      </trkpt>
      <trkpt lat="43.459557" lon="-5.591222">
        <ele>414.0</ele>
        <time>2021-02-14T13:53:54Z</time>
      </trkpt>
      <trkpt lat="43.459568" lon="-5.591215">
        <ele>414.0</ele>
        <time>2021-02-14T13:53:55Z</time>
      </trkpt>
      <trkpt lat="43.45958" lon="-5.5912104">
        <ele>414.0</ele>
        <time>2021-02-14T13:53:56Z</time>
      </trkpt>
      <trkpt lat="43.45959" lon="-5.591209">
        <ele>413.0</ele>
        <time>2021-02-14T13:53:57Z</time>
      </trkpt>
      <trkpt lat="43.4596" lon="-5.5912075">
        <ele>413.0</ele>
        <time>2021-02-14T13:53:58Z</time>
      </trkpt>
      <trkpt lat="43.459606" lon="-5.591207">
        <ele>413.0</ele>
        <time>2021-02-14T13:53:59Z</time>
      </trkpt>
      <trkpt lat="43.459614" lon="-5.591203">
        <ele>413.0</ele>
        <time>2021-02-14T13:54:00Z</time>
      </trkpt>
      <trkpt lat="43.45962" lon="-5.591199">
        <ele>412.0</ele>
        <time>2021-02-14T13:54:01Z</time>
      </trkpt>
      <trkpt lat="43.45963" lon="-5.591196">
        <ele>412.0</ele>
        <time>2021-02-14T13:54:02Z</time>
      </trkpt>
      <trkpt lat="43.45964" lon="-5.591197">
        <ele>412.0</ele>
        <time>2021-02-14T13:54:03Z</time>
      </trkpt>
      <trkpt lat="43.459652" lon="-5.591199">
        <ele>412.0</ele>
        <time>2021-02-14T13:54:04Z</time>
      </trkpt>
      <trkpt lat="43.45966" lon="-5.5912013">
        <ele>412.0</ele>
        <time>2021-02-14T13:54:05Z</time>
      </trkpt>
      <trkpt lat="43.45967" lon="-5.5912027">
        <ele>412.0</ele>
        <time>2021-02-14T13:54:06Z</time>
      </trkpt>
      <trkpt lat="43.459682" lon="-5.5912037">
        <ele>412.0</ele>
        <time>2021-02-14T13:54:07Z</time>
      </trkpt>
      <trkpt lat="43.45969" lon="-5.5912066">
        <ele>412.0</ele>
        <time>2021-02-14T13:54:08Z</time>
      </trkpt>
      <trkpt lat="43.459705" lon="-5.591209">
        <ele>412.0</ele>
        <time>2021-02-14T13:54:09Z</time>
      </trkpt>
      <trkpt lat="43.459717" lon="-5.5912104">
        <ele>412.0</ele>
        <time>2021-02-14T13:54:10Z</time>
      </trkpt>
      <trkpt lat="43.45973" lon="-5.591211">
        <ele>412.0</ele>
        <time>2021-02-14T13:54:11Z</time>
      </trkpt>
      <trkpt lat="43.459736" lon="-5.5912104">
        <ele>411.0</ele>
        <time>2021-02-14T13:54:12Z</time>
      </trkpt>
      <trkpt lat="43.45975" lon="-5.591209">
        <ele>411.0</ele>
        <time>2021-02-14T13:54:13Z</time>
      </trkpt>
      <trkpt lat="43.45976" lon="-5.5912104">
        <ele>411.0</ele>
        <time>2021-02-14T13:54:14Z</time>
      </trkpt>
      <trkpt lat="43.45977" lon="-5.5912113">
        <ele>411.0</ele>
        <time>2021-02-14T13:54:15Z</time>
      </trkpt>
      <trkpt lat="43.459778" lon="-5.5912113">
        <ele>411.0</ele>
        <time>2021-02-14T13:54:16Z</time>
      </trkpt>
      <trkpt lat="43.459785" lon="-5.5912113">
        <ele>411.0</ele>
        <time>2021-02-14T13:54:17Z</time>
      </trkpt>
      <trkpt lat="43.45979" lon="-5.5912094">
        <ele>410.0</ele>
        <time>2021-02-14T13:54:18Z</time>
      </trkpt>
      <trkpt lat="43.459793" lon="-5.591209">
        <ele>410.0</ele>
        <time>2021-02-14T13:54:19Z</time>
      </trkpt>
      <trkpt lat="43.459805" lon="-5.5912056">
        <ele>410.0</ele>
        <time>2021-02-14T13:54:21Z</time>
      </trkpt>
      <trkpt lat="43.459805" lon="-5.5912037">
        <ele>410.0</ele>
        <time>2021-02-14T13:54:24Z</time>
      </trkpt>
      <trkpt lat="43.45981" lon="-5.5912037">
        <ele>410.0</ele>
        <time>2021-02-14T13:54:25Z</time>
      </trkpt>
      <trkpt lat="43.45981" lon="-5.591203">
        <ele>410.0</ele>
        <time>2021-02-14T13:54:26Z</time>
      </trkpt>
      <trkpt lat="43.459816" lon="-5.5912">
        <ele>410.0</ele>
        <time>2021-02-14T13:54:27Z</time>
      </trkpt>
      <trkpt lat="43.45982" lon="-5.591196">
        <ele>410.0</ele>
        <time>2021-02-14T13:54:28Z</time>
      </trkpt>
      <trkpt lat="43.45983" lon="-5.591192">
        <ele>410.0</ele>
        <time>2021-02-14T13:54:29Z</time>
      </trkpt>
      <trkpt lat="43.459835" lon="-5.5911884">
        <ele>410.0</ele>
        <time>2021-02-14T13:54:30Z</time>
      </trkpt>
      <trkpt lat="43.459846" lon="-5.591185">
        <ele>410.0</ele>
        <time>2021-02-14T13:54:31Z</time>
      </trkpt>
      <trkpt lat="43.459854" lon="-5.591182">
        <ele>410.0</ele>
        <time>2021-02-14T13:54:32Z</time>
      </trkpt>
      <trkpt lat="43.45986" lon="-5.5911803">
        <ele>410.0</ele>
        <time>2021-02-14T13:54:33Z</time>
      </trkpt>
      <trkpt lat="43.45987" lon="-5.591177">
        <ele>409.0</ele>
        <time>2021-02-14T13:54:34Z</time>
      </trkpt>
      <trkpt lat="43.45988" lon="-5.591175">
        <ele>409.0</ele>
        <time>2021-02-14T13:54:35Z</time>
      </trkpt>
      <trkpt lat="43.459892" lon="-5.5911713">
        <ele>409.0</ele>
        <time>2021-02-14T13:54:36Z</time>
      </trkpt>
      <trkpt lat="43.459896" lon="-5.591166">
        <ele>409.0</ele>
        <time>2021-02-14T13:54:37Z</time>
      </trkpt>
      <trkpt lat="43.459908" lon="-5.591162">
        <ele>409.0</ele>
        <time>2021-02-14T13:54:38Z</time>
      </trkpt>
      <trkpt lat="43.459915" lon="-5.59116">
        <ele>409.0</ele>
        <time>2021-02-14T13:54:39Z</time>
      </trkpt>
      <trkpt lat="43.45993" lon="-5.591161">
        <ele>408.0</ele>
        <time>2021-02-14T13:54:40Z</time>
      </trkpt>
      <trkpt lat="43.459938" lon="-5.591161">
        <ele>408.0</ele>
        <time>2021-02-14T13:54:41Z</time>
      </trkpt>
      <trkpt lat="43.459946" lon="-5.5911603">
        <ele>408.0</ele>
        <time>2021-02-14T13:54:42Z</time>
      </trkpt>
      <trkpt lat="43.459957" lon="-5.591159">
        <ele>408.0</ele>
        <time>2021-02-14T13:54:43Z</time>
      </trkpt>
      <trkpt lat="43.459965" lon="-5.5911565">
        <ele>408.0</ele>
        <time>2021-02-14T13:54:44Z</time>
      </trkpt>
      <trkpt lat="43.45997" lon="-5.5911527">
        <ele>408.0</ele>
        <time>2021-02-14T13:54:45Z</time>
      </trkpt>
      <trkpt lat="43.459972" lon="-5.5911484">
        <ele>407.0</ele>
        <time>2021-02-14T13:54:46Z</time>
      </trkpt>
      <trkpt lat="43.459984" lon="-5.591142">
        <ele>407.0</ele>
        <time>2021-02-14T13:54:47Z</time>
      </trkpt>
      <trkpt lat="43.459988" lon="-5.5911374">
        <ele>407.0</ele>
        <time>2021-02-14T13:54:48Z</time>
      </trkpt>
      <trkpt lat="43.459995" lon="-5.591132">
        <ele>407.0</ele>
        <time>2021-02-14T13:54:49Z</time>
      </trkpt>
      <trkpt lat="43.460003" lon="-5.591127">
        <ele>407.0</ele>
        <time>2021-02-14T13:54:50Z</time>
      </trkpt>
      <trkpt lat="43.460014" lon="-5.5911264">
        <ele>407.0</ele>
        <time>2021-02-14T13:54:51Z</time>
      </trkpt>
      <trkpt lat="43.460026" lon="-5.591127">
        <ele>407.0</ele>
        <time>2021-02-14T13:54:52Z</time>
      </trkpt>
      <trkpt lat="43.460033" lon="-5.591126">
        <ele>407.0</ele>
        <time>2021-02-14T13:54:53Z</time>
      </trkpt>
      <trkpt lat="43.460045" lon="-5.5911245">
        <ele>407.0</ele>
        <time>2021-02-14T13:54:54Z</time>
      </trkpt>
      <trkpt lat="43.46005" lon="-5.591122">
        <ele>407.0</ele>
        <time>2021-02-14T13:54:55Z</time>
      </trkpt>
      <trkpt lat="43.46006" lon="-5.591117">
        <ele>407.0</ele>
        <time>2021-02-14T13:54:56Z</time>
      </trkpt>
      <trkpt lat="43.46007" lon="-5.59111">
        <ele>406.0</ele>
        <time>2021-02-14T13:54:57Z</time>
      </trkpt>
      <trkpt lat="43.460087" lon="-5.591102">
        <ele>406.0</ele>
        <time>2021-02-14T13:54:58Z</time>
      </trkpt>
      <trkpt lat="43.460094" lon="-5.5910935">
        <ele>406.0</ele>
        <time>2021-02-14T13:54:59Z</time>
      </trkpt>
      <trkpt lat="43.460106" lon="-5.5910854">
        <ele>406.0</ele>
        <time>2021-02-14T13:55:00Z</time>
      </trkpt>
      <trkpt lat="43.46011" lon="-5.5910773">
        <ele>405.0</ele>
        <time>2021-02-14T13:55:01Z</time>
      </trkpt>
      <trkpt lat="43.46012" lon="-5.5910687">
        <ele>405.0</ele>
        <time>2021-02-14T13:55:02Z</time>
      </trkpt>
      <trkpt lat="43.460133" lon="-5.5910616">
        <ele>405.0</ele>
        <time>2021-02-14T13:55:03Z</time>
      </trkpt>
      <trkpt lat="43.460136" lon="-5.591054">
        <ele>405.0</ele>
        <time>2021-02-14T13:55:04Z</time>
      </trkpt>
      <trkpt lat="43.460148" lon="-5.591046">
        <ele>405.0</ele>
        <time>2021-02-14T13:55:05Z</time>
      </trkpt>
      <trkpt lat="43.46015" lon="-5.591038">
        <ele>405.0</ele>
        <time>2021-02-14T13:55:06Z</time>
      </trkpt>
      <trkpt lat="43.460163" lon="-5.591031">
        <ele>404.0</ele>
        <time>2021-02-14T13:55:07Z</time>
      </trkpt>
      <trkpt lat="43.460167" lon="-5.5910254">
        <ele>404.0</ele>
        <time>2021-02-14T13:55:08Z</time>
      </trkpt>
      <trkpt lat="43.46018" lon="-5.5910206">
        <ele>404.0</ele>
        <time>2021-02-14T13:55:09Z</time>
      </trkpt>
      <trkpt lat="43.460182" lon="-5.591017">
        <ele>404.0</ele>
        <time>2021-02-14T13:55:10Z</time>
      </trkpt>
      <trkpt lat="43.460194" lon="-5.5910087">
        <ele>404.0</ele>
        <time>2021-02-14T13:55:11Z</time>
      </trkpt>
      <trkpt lat="43.46021" lon="-5.5910006">
        <ele>404.0</ele>
        <time>2021-02-14T13:55:12Z</time>
      </trkpt>
      <trkpt lat="43.46022" lon="-5.5909877">
        <ele>403.0</ele>
        <time>2021-02-14T13:55:13Z</time>
      </trkpt>
      <trkpt lat="43.460228" lon="-5.5909734">
        <ele>403.0</ele>
        <time>2021-02-14T13:55:14Z</time>
      </trkpt>
      <trkpt lat="43.460243" lon="-5.5909586">
        <ele>403.0</ele>
        <time>2021-02-14T13:55:15Z</time>
      </trkpt>
      <trkpt lat="43.46026" lon="-5.5909452">
        <ele>403.0</ele>
        <time>2021-02-14T13:55:16Z</time>
      </trkpt>
      <trkpt lat="43.46027" lon="-5.5909343">
        <ele>403.0</ele>
        <time>2021-02-14T13:55:17Z</time>
      </trkpt>
      <trkpt lat="43.460285" lon="-5.590926">
        <ele>403.0</ele>
        <time>2021-02-14T13:55:18Z</time>
      </trkpt>
      <trkpt lat="43.460297" lon="-5.590923">
        <ele>403.0</ele>
        <time>2021-02-14T13:55:19Z</time>
      </trkpt>
      <trkpt lat="43.46031" lon="-5.5909243">
        <ele>403.0</ele>
        <time>2021-02-14T13:55:20Z</time>
      </trkpt>
      <trkpt lat="43.46032" lon="-5.590927">
        <ele>403.0</ele>
        <time>2021-02-14T13:55:21Z</time>
      </trkpt>
      <trkpt lat="43.460335" lon="-5.5909305">
        <ele>404.0</ele>
        <time>2021-02-14T13:55:22Z</time>
      </trkpt>
      <trkpt lat="43.460346" lon="-5.590937">
        <ele>404.0</ele>
        <time>2021-02-14T13:55:23Z</time>
      </trkpt>
      <trkpt lat="43.460358" lon="-5.5909476">
        <ele>405.0</ele>
        <time>2021-02-14T13:55:24Z</time>
      </trkpt>
      <trkpt lat="43.46037" lon="-5.590962">
        <ele>405.0</ele>
        <time>2021-02-14T13:55:24Z</time>
      </trkpt>
      <trkpt lat="43.460384" lon="-5.590982">
        <ele>405.0</ele>
        <time>2021-02-14T13:55:25Z</time>
      </trkpt>
      <trkpt lat="43.460392" lon="-5.5910006">
        <ele>406.0</ele>
        <time>2021-02-14T13:55:26Z</time>
      </trkpt>
      <trkpt lat="43.460407" lon="-5.59102">
        <ele>406.0</ele>
        <time>2021-02-14T13:55:27Z</time>
      </trkpt>
      <trkpt lat="43.460423" lon="-5.5910406">
        <ele>407.0</ele>
        <time>2021-02-14T13:55:28Z</time>
      </trkpt>
      <trkpt lat="43.460434" lon="-5.5910606">
        <ele>407.0</ele>
        <time>2021-02-14T13:55:29Z</time>
      </trkpt>
      <trkpt lat="43.460445" lon="-5.591081">
        <ele>408.0</ele>
        <time>2021-02-14T13:55:30Z</time>
      </trkpt>
      <trkpt lat="43.460453" lon="-5.5911007">
        <ele>408.0</ele>
        <time>2021-02-14T13:55:31Z</time>
      </trkpt>
      <trkpt lat="43.46047" lon="-5.59112">
        <ele>409.0</ele>
        <time>2021-02-14T13:55:32Z</time>
      </trkpt>
      <trkpt lat="43.460484" lon="-5.5911374">
        <ele>409.0</ele>
        <time>2021-02-14T13:55:33Z</time>
      </trkpt>
      <trkpt lat="43.460495" lon="-5.5911527">
        <ele>410.0</ele>
        <time>2021-02-14T13:55:34Z</time>
      </trkpt>
      <trkpt lat="43.460506" lon="-5.591168">
        <ele>410.0</ele>
        <time>2021-02-14T13:55:35Z</time>
      </trkpt>
      <trkpt lat="43.460514" lon="-5.591185">
        <ele>410.0</ele>
        <time>2021-02-14T13:55:36Z</time>
      </trkpt>
      <trkpt lat="43.460526" lon="-5.591201">
        <ele>411.0</ele>
        <time>2021-02-14T13:55:37Z</time>
      </trkpt>
      <trkpt lat="43.46053" lon="-5.5912185">
        <ele>411.0</ele>
        <time>2021-02-14T13:55:38Z</time>
      </trkpt>
      <trkpt lat="43.460537" lon="-5.5912385">
        <ele>411.0</ele>
        <time>2021-02-14T13:55:39Z</time>
      </trkpt>
      <trkpt lat="43.460537" lon="-5.5912576">
        <ele>411.0</ele>
        <time>2021-02-14T13:55:40Z</time>
      </trkpt>
      <trkpt lat="43.46054" lon="-5.591276">
        <ele>411.0</ele>
        <time>2021-02-14T13:55:41Z</time>
      </trkpt>
      <trkpt lat="43.460552" lon="-5.591295">
        <ele>413.0</ele>
        <time>2021-02-14T13:55:42Z</time>
      </trkpt>
      <trkpt lat="43.460556" lon="-5.5913115">
        <ele>413.0</ele>
        <time>2021-02-14T13:55:43Z</time>
      </trkpt>
      <trkpt lat="43.460567" lon="-5.591326">
        <ele>413.0</ele>
        <time>2021-02-14T13:55:44Z</time>
      </trkpt>
      <trkpt lat="43.46058" lon="-5.591344">
        <ele>413.0</ele>
        <time>2021-02-14T13:55:45Z</time>
      </trkpt>
      <trkpt lat="43.460587" lon="-5.5913634">
        <ele>413.0</ele>
        <time>2021-02-14T13:55:46Z</time>
      </trkpt>
      <trkpt lat="43.460598" lon="-5.591383">
        <ele>413.0</ele>
        <time>2021-02-14T13:55:47Z</time>
      </trkpt>
      <trkpt lat="43.46061" lon="-5.5914">
        <ele>413.0</ele>
        <time>2021-02-14T13:55:48Z</time>
      </trkpt>
      <trkpt lat="43.460617" lon="-5.5914164">
        <ele>414.0</ele>
        <time>2021-02-14T13:55:49Z</time>
      </trkpt>
      <trkpt lat="43.46063" lon="-5.591432">
        <ele>414.0</ele>
        <time>2021-02-14T13:55:50Z</time>
      </trkpt>
      <trkpt lat="43.460644" lon="-5.591448">
        <ele>414.0</ele>
        <time>2021-02-14T13:55:51Z</time>
      </trkpt>
      <trkpt lat="43.460655" lon="-5.5914617">
        <ele>414.0</ele>
        <time>2021-02-14T13:55:52Z</time>
      </trkpt>
      <trkpt lat="43.46066" lon="-5.591476">
        <ele>414.0</ele>
        <time>2021-02-14T13:55:53Z</time>
      </trkpt>
      <trkpt lat="43.460663" lon="-5.5914893">
        <ele>415.0</ele>
        <time>2021-02-14T13:55:54Z</time>
      </trkpt>
      <trkpt lat="43.46067" lon="-5.5915027">
        <ele>415.0</ele>
        <time>2021-02-14T13:55:55Z</time>
      </trkpt>
      <trkpt lat="43.460674" lon="-5.5915117">
        <ele>415.0</ele>
        <time>2021-02-14T13:55:56Z</time>
      </trkpt>
      <trkpt lat="43.460686" lon="-5.5915194">
        <ele>415.0</ele>
        <time>2021-02-14T13:55:57Z</time>
      </trkpt>
      <trkpt lat="43.46069" lon="-5.5915236">
        <ele>415.0</ele>
        <time>2021-02-14T13:55:58Z</time>
      </trkpt>
      <trkpt lat="43.460693" lon="-5.5915265">
        <ele>416.0</ele>
        <time>2021-02-14T13:55:59Z</time>
      </trkpt>
      <trkpt lat="43.4607" lon="-5.591529">
        <ele>416.0</ele>
        <time>2021-02-14T13:56:01Z</time>
      </trkpt>
      <trkpt lat="43.4607" lon="-5.5915275">
        <ele>416.0</ele>
        <time>2021-02-14T13:56:02Z</time>
      </trkpt>
      <trkpt lat="43.4607" lon="-5.5915265">
        <ele>416.0</ele>
        <time>2021-02-14T13:56:03Z</time>
      </trkpt>
      <trkpt lat="43.4607" lon="-5.5915236">
        <ele>416.0</ele>
        <time>2021-02-14T13:56:04Z</time>
      </trkpt>
      <trkpt lat="43.460705" lon="-5.591523">
        <ele>416.0</ele>
        <time>2021-02-14T13:56:05Z</time>
      </trkpt>
      <trkpt lat="43.460705" lon="-5.59152">
        <ele>416.0</ele>
        <time>2021-02-14T13:56:06Z</time>
      </trkpt>
      <trkpt lat="43.46071" lon="-5.591519">
        <ele>416.0</ele>
        <time>2021-02-14T13:56:20Z</time>
      </trkpt>
      <trkpt lat="43.46071" lon="-5.591519">
        <ele>416.0</ele>
        <time>2021-02-14T13:56:21Z</time>
      </trkpt>
      <trkpt lat="43.460716" lon="-5.5915194">
        <ele>416.0</ele>
        <time>2021-02-14T13:56:22Z</time>
      </trkpt>
      <trkpt lat="43.460724" lon="-5.591519">
        <ele>416.0</ele>
        <time>2021-02-14T13:56:23Z</time>
      </trkpt>
      <trkpt lat="43.460735" lon="-5.591521">
        <ele>416.0</ele>
        <time>2021-02-14T13:56:24Z</time>
      </trkpt>
      <trkpt lat="43.460747" lon="-5.591523">
        <ele>416.0</ele>
        <time>2021-02-14T13:56:25Z</time>
      </trkpt>
      <trkpt lat="43.460777" lon="-5.591534">
        <ele>416.0</ele>
        <time>2021-02-14T13:56:27Z</time>
      </trkpt>
      <trkpt lat="43.460777" lon="-5.591534">
        <ele>416.0</ele>
        <time>2021-02-14T13:56:28Z</time>
      </trkpt>
      <trkpt lat="43.46078" lon="-5.5915346">
        <ele>416.0</ele>
        <time>2021-02-14T13:56:29Z</time>
      </trkpt>
      <trkpt lat="43.46079" lon="-5.591529">
        <ele>416.0</ele>
        <time>2021-02-14T13:56:31Z</time>
      </trkpt>
      <trkpt lat="43.46079" lon="-5.5915284">
        <ele>416.0</ele>
        <time>2021-02-14T13:56:32Z</time>
      </trkpt>
      <trkpt lat="43.46079" lon="-5.591531">
        <ele>416.0</ele>
        <time>2021-02-14T13:56:38Z</time>
      </trkpt>
      <trkpt lat="43.46079" lon="-5.5915318">
        <ele>416.0</ele>
        <time>2021-02-14T13:56:39Z</time>
      </trkpt>
      <trkpt lat="43.46079" lon="-5.5915327">
        <ele>416.0</ele>
        <time>2021-02-14T13:56:40Z</time>
      </trkpt>
      <trkpt lat="43.460793" lon="-5.591534">
        <ele>416.0</ele>
        <time>2021-02-14T13:56:41Z</time>
      </trkpt>
      <trkpt lat="43.460793" lon="-5.5915365">
        <ele>416.0</ele>
        <time>2021-02-14T13:56:42Z</time>
      </trkpt>
      <trkpt lat="43.460793" lon="-5.59154">
        <ele>416.0</ele>
        <time>2021-02-14T13:56:43Z</time>
      </trkpt>
      <trkpt lat="43.460796" lon="-5.591542">
        <ele>416.0</ele>
        <time>2021-02-14T13:56:44Z</time>
      </trkpt>
      <trkpt lat="43.460804" lon="-5.591545">
        <ele>416.0</ele>
        <time>2021-02-14T13:56:45Z</time>
      </trkpt>
      <trkpt lat="43.460808" lon="-5.591547">
        <ele>416.0</ele>
        <time>2021-02-14T13:56:46Z</time>
      </trkpt>
      <trkpt lat="43.46081" lon="-5.591551">
        <ele>416.0</ele>
        <time>2021-02-14T13:56:47Z</time>
      </trkpt>
      <trkpt lat="43.46082" lon="-5.591556">
        <ele>416.0</ele>
        <time>2021-02-14T13:56:48Z</time>
      </trkpt>
      <trkpt lat="43.460827" lon="-5.591561">
        <ele>416.0</ele>
        <time>2021-02-14T13:56:49Z</time>
      </trkpt>
      <trkpt lat="43.46084" lon="-5.591566">
        <ele>416.0</ele>
        <time>2021-02-14T13:56:50Z</time>
      </trkpt>
      <trkpt lat="43.46085" lon="-5.5915713">
        <ele>416.0</ele>
        <time>2021-02-14T13:56:51Z</time>
      </trkpt>
      <trkpt lat="43.460857" lon="-5.5915756">
        <ele>416.0</ele>
        <time>2021-02-14T13:56:52Z</time>
      </trkpt>
      <trkpt lat="43.46087" lon="-5.5915775">
        <ele>416.0</ele>
        <time>2021-02-14T13:56:53Z</time>
      </trkpt>
      <trkpt lat="43.460884" lon="-5.5915804">
        <ele>416.0</ele>
        <time>2021-02-14T13:56:54Z</time>
      </trkpt>
      <trkpt lat="43.460896" lon="-5.5915847">
        <ele>416.0</ele>
        <time>2021-02-14T13:56:55Z</time>
      </trkpt>
      <trkpt lat="43.460903" lon="-5.591591">
        <ele>416.0</ele>
        <time>2021-02-14T13:56:56Z</time>
      </trkpt>
      <trkpt lat="43.460915" lon="-5.5915976">
        <ele>416.0</ele>
        <time>2021-02-14T13:56:57Z</time>
      </trkpt>
      <trkpt lat="43.46092" lon="-5.5916023">
        <ele>416.0</ele>
        <time>2021-02-14T13:56:58Z</time>
      </trkpt>
      <trkpt lat="43.46093" lon="-5.5916085">
        <ele>416.0</ele>
        <time>2021-02-14T13:56:59Z</time>
      </trkpt>
      <trkpt lat="43.460938" lon="-5.591615">
        <ele>416.0</ele>
        <time>2021-02-14T13:57:00Z</time>
      </trkpt>
      <trkpt lat="43.46094" lon="-5.591621">
        <ele>416.0</ele>
        <time>2021-02-14T13:57:01Z</time>
      </trkpt>
      <trkpt lat="43.460953" lon="-5.591626">
        <ele>416.0</ele>
        <time>2021-02-14T13:57:02Z</time>
      </trkpt>
      <trkpt lat="43.460957" lon="-5.591632">
        <ele>416.0</ele>
        <time>2021-02-14T13:57:03Z</time>
      </trkpt>
      <trkpt lat="43.460968" lon="-5.5916386">
        <ele>416.0</ele>
        <time>2021-02-14T13:57:04Z</time>
      </trkpt>
      <trkpt lat="43.46097" lon="-5.5916467">
        <ele>416.0</ele>
        <time>2021-02-14T13:57:05Z</time>
      </trkpt>
      <trkpt lat="43.460976" lon="-5.5916553">
        <ele>416.0</ele>
        <time>2021-02-14T13:57:06Z</time>
      </trkpt>
      <trkpt lat="43.460987" lon="-5.591661">
        <ele>416.0</ele>
        <time>2021-02-14T13:57:07Z</time>
      </trkpt>
      <trkpt lat="43.46099" lon="-5.591664">
        <ele>416.0</ele>
        <time>2021-02-14T13:57:08Z</time>
      </trkpt>
      <trkpt lat="43.461002" lon="-5.591667">
        <ele>416.0</ele>
        <time>2021-02-14T13:57:09Z</time>
      </trkpt>
      <trkpt lat="43.461014" lon="-5.5916705">
        <ele>416.0</ele>
        <time>2021-02-14T13:57:10Z</time>
      </trkpt>
      <trkpt lat="43.46102" lon="-5.5916758">
        <ele>416.0</ele>
        <time>2021-02-14T13:57:11Z</time>
      </trkpt>
      <trkpt lat="43.461033" lon="-5.591682">
        <ele>416.0</ele>
        <time>2021-02-14T13:57:12Z</time>
      </trkpt>
      <trkpt lat="43.461044" lon="-5.591688">
        <ele>416.0</ele>
        <time>2021-02-14T13:57:13Z</time>
      </trkpt>
      <trkpt lat="43.46106" lon="-5.591693">
        <ele>416.0</ele>
        <time>2021-02-14T13:57:14Z</time>
      </trkpt>
      <trkpt lat="43.461067" lon="-5.5916977">
        <ele>416.0</ele>
        <time>2021-02-14T13:57:15Z</time>
      </trkpt>
      <trkpt lat="43.461082" lon="-5.591702">
        <ele>416.0</ele>
        <time>2021-02-14T13:57:16Z</time>
      </trkpt>
      <trkpt lat="43.461098" lon="-5.5917044">
        <ele>416.0</ele>
        <time>2021-02-14T13:57:17Z</time>
      </trkpt>
      <trkpt lat="43.461113" lon="-5.591706">
        <ele>415.0</ele>
        <time>2021-02-14T13:57:18Z</time>
      </trkpt>
      <trkpt lat="43.461124" lon="-5.591706">
        <ele>415.0</ele>
        <time>2021-02-14T13:57:19Z</time>
      </trkpt>
      <trkpt lat="43.46114" lon="-5.5917063">
        <ele>415.0</ele>
        <time>2021-02-14T13:57:20Z</time>
      </trkpt>
      <trkpt lat="43.46115" lon="-5.5917077">
        <ele>415.0</ele>
        <time>2021-02-14T13:57:21Z</time>
      </trkpt>
      <trkpt lat="43.461166" lon="-5.5917087">
        <ele>415.0</ele>
        <time>2021-02-14T13:57:22Z</time>
      </trkpt>
      <trkpt lat="43.461178" lon="-5.591714">
        <ele>415.0</ele>
        <time>2021-02-14T13:57:23Z</time>
      </trkpt>
      <trkpt lat="43.46118" lon="-5.591719">
        <ele>415.0</ele>
        <time>2021-02-14T13:57:24Z</time>
      </trkpt>
      <trkpt lat="43.461193" lon="-5.591722">
        <ele>415.0</ele>
        <time>2021-02-14T13:57:25Z</time>
      </trkpt>
      <trkpt lat="43.461197" lon="-5.591723">
        <ele>415.0</ele>
        <time>2021-02-14T13:57:26Z</time>
      </trkpt>
      <trkpt lat="43.46121" lon="-5.5917196">
        <ele>415.0</ele>
        <time>2021-02-14T13:57:27Z</time>
      </trkpt>
      <trkpt lat="43.461216" lon="-5.5917172">
        <ele>415.0</ele>
        <time>2021-02-14T13:57:28Z</time>
      </trkpt>
      <trkpt lat="43.461224" lon="-5.5917144">
        <ele>415.0</ele>
        <time>2021-02-14T13:57:29Z</time>
      </trkpt>
      <trkpt lat="43.46124" lon="-5.5917115">
        <ele>415.0</ele>
        <time>2021-02-14T13:57:30Z</time>
      </trkpt>
      <trkpt lat="43.461246" lon="-5.5917096">
        <ele>415.0</ele>
        <time>2021-02-14T13:57:31Z</time>
      </trkpt>
      <trkpt lat="43.461258" lon="-5.591708">
        <ele>415.0</ele>
        <time>2021-02-14T13:57:32Z</time>
      </trkpt>
      <trkpt lat="43.46127" lon="-5.591708">
        <ele>415.0</ele>
        <time>2021-02-14T13:57:33Z</time>
      </trkpt>
      <trkpt lat="43.461277" lon="-5.5917087">
        <ele>415.0</ele>
        <time>2021-02-14T13:57:34Z</time>
      </trkpt>
      <trkpt lat="43.46129" lon="-5.59171">
        <ele>415.0</ele>
        <time>2021-02-14T13:57:35Z</time>
      </trkpt>
      <trkpt lat="43.461304" lon="-5.591712">
        <ele>415.0</ele>
        <time>2021-02-14T13:57:36Z</time>
      </trkpt>
      <trkpt lat="43.461315" lon="-5.5917144">
        <ele>415.0</ele>
        <time>2021-02-14T13:57:37Z</time>
      </trkpt>
      <trkpt lat="43.461327" lon="-5.5917163">
        <ele>415.0</ele>
        <time>2021-02-14T13:57:38Z</time>
      </trkpt>
      <trkpt lat="43.461334" lon="-5.591718">
        <ele>415.0</ele>
        <time>2021-02-14T13:57:39Z</time>
      </trkpt>
      <trkpt lat="43.46135" lon="-5.591722">
        <ele>415.0</ele>
        <time>2021-02-14T13:57:40Z</time>
      </trkpt>
      <trkpt lat="43.46136" lon="-5.5917253">
        <ele>415.0</ele>
        <time>2021-02-14T13:57:41Z</time>
      </trkpt>
      <trkpt lat="43.461372" lon="-5.5917273">
        <ele>413.0</ele>
        <time>2021-02-14T13:57:42Z</time>
      </trkpt>
      <trkpt lat="43.46138" lon="-5.591728">
        <ele>413.0</ele>
        <time>2021-02-14T13:57:43Z</time>
      </trkpt>
      <trkpt lat="43.46139" lon="-5.5917253">
        <ele>413.0</ele>
        <time>2021-02-14T13:57:44Z</time>
      </trkpt>
      <trkpt lat="43.461403" lon="-5.5917196">
        <ele>413.0</ele>
        <time>2021-02-14T13:57:45Z</time>
      </trkpt>
      <trkpt lat="43.46141" lon="-5.591716">
        <ele>413.0</ele>
        <time>2021-02-14T13:57:46Z</time>
      </trkpt>
      <trkpt lat="43.461422" lon="-5.5917153">
        <ele>413.0</ele>
        <time>2021-02-14T13:57:47Z</time>
      </trkpt>
      <trkpt lat="43.461433" lon="-5.5917177">
        <ele>413.0</ele>
        <time>2021-02-14T13:57:48Z</time>
      </trkpt>
      <trkpt lat="43.46144" lon="-5.5917215">
        <ele>413.0</ele>
        <time>2021-02-14T13:57:49Z</time>
      </trkpt>
      <trkpt lat="43.461452" lon="-5.5917273">
        <ele>413.0</ele>
        <time>2021-02-14T13:57:50Z</time>
      </trkpt>
      <trkpt lat="43.461464" lon="-5.591731">
        <ele>413.0</ele>
        <time>2021-02-14T13:57:51Z</time>
      </trkpt>
      <trkpt lat="43.461468" lon="-5.5917344">
        <ele>412.0</ele>
        <time>2021-02-14T13:57:52Z</time>
      </trkpt>
      <trkpt lat="43.46148" lon="-5.591736">
        <ele>412.0</ele>
        <time>2021-02-14T13:57:53Z</time>
      </trkpt>
      <trkpt lat="43.461487" lon="-5.591738">
        <ele>412.0</ele>
        <time>2021-02-14T13:57:54Z</time>
      </trkpt>
      <trkpt lat="43.461506" lon="-5.5917416">
        <ele>412.0</ele>
        <time>2021-02-14T13:57:55Z</time>
      </trkpt>
      <trkpt lat="43.461514" lon="-5.5917444">
        <ele>412.0</ele>
        <time>2021-02-14T13:57:56Z</time>
      </trkpt>
      <trkpt lat="43.461525" lon="-5.5917487">
        <ele>412.0</ele>
        <time>2021-02-14T13:57:57Z</time>
      </trkpt>
      <trkpt lat="43.461536" lon="-5.5917516">
        <ele>411.0</ele>
        <time>2021-02-14T13:57:58Z</time>
      </trkpt>
      <trkpt lat="43.461544" lon="-5.5917563">
        <ele>411.0</ele>
        <time>2021-02-14T13:57:59Z</time>
      </trkpt>
      <trkpt lat="43.46156" lon="-5.5917606">
        <ele>411.0</ele>
        <time>2021-02-14T13:58:00Z</time>
      </trkpt>
      <trkpt lat="43.461575" lon="-5.591765">
        <ele>411.0</ele>
        <time>2021-02-14T13:58:01Z</time>
      </trkpt>
      <trkpt lat="43.46159" lon="-5.5917706">
        <ele>411.0</ele>
        <time>2021-02-14T13:58:02Z</time>
      </trkpt>
      <trkpt lat="43.4616" lon="-5.591777">
        <ele>411.0</ele>
        <time>2021-02-14T13:58:03Z</time>
      </trkpt>
      <trkpt lat="43.461613" lon="-5.5917816">
        <ele>411.0</ele>
        <time>2021-02-14T13:58:04Z</time>
      </trkpt>
      <trkpt lat="43.461617" lon="-5.591785">
        <ele>411.0</ele>
        <time>2021-02-14T13:58:05Z</time>
      </trkpt>
      <trkpt lat="43.46163" lon="-5.5917892">
        <ele>411.0</ele>
        <time>2021-02-14T13:58:06Z</time>
      </trkpt>
      <trkpt lat="43.461643" lon="-5.5917974">
        <ele>411.0</ele>
        <time>2021-02-14T13:58:07Z</time>
      </trkpt>
      <trkpt lat="43.46165" lon="-5.591803">
        <ele>411.0</ele>
        <time>2021-02-14T13:58:08Z</time>
      </trkpt>
      <trkpt lat="43.46168" lon="-5.5918255">
        <ele>411.0</ele>
        <time>2021-02-14T13:58:10Z</time>
      </trkpt>
      <trkpt lat="43.46169" lon="-5.591826">
        <ele>411.0</ele>
        <time>2021-02-14T13:58:11Z</time>
      </trkpt>
      <trkpt lat="43.461693" lon="-5.5918293">
        <ele>411.0</ele>
        <time>2021-02-14T13:58:12Z</time>
      </trkpt>
      <trkpt lat="43.4617" lon="-5.5918317">
        <ele>411.0</ele>
        <time>2021-02-14T13:58:13Z</time>
      </trkpt>
      <trkpt lat="43.461704" lon="-5.591838">
        <ele>411.0</ele>
        <time>2021-02-14T13:58:14Z</time>
      </trkpt>
      <trkpt lat="43.461704" lon="-5.591845">
        <ele>411.0</ele>
        <time>2021-02-14T13:58:15Z</time>
      </trkpt>
      <trkpt lat="43.461708" lon="-5.591852">
        <ele>411.0</ele>
        <time>2021-02-14T13:58:16Z</time>
      </trkpt>
      <trkpt lat="43.461708" lon="-5.5918584">
        <ele>411.0</ele>
        <time>2021-02-14T13:58:17Z</time>
      </trkpt>
      <trkpt lat="43.461716" lon="-5.5918655">
        <ele>411.0</ele>
        <time>2021-02-14T13:58:18Z</time>
      </trkpt>
      <trkpt lat="43.461723" lon="-5.5918727">
        <ele>412.0</ele>
        <time>2021-02-14T13:58:19Z</time>
      </trkpt>
      <trkpt lat="43.461735" lon="-5.591881">
        <ele>412.0</ele>
        <time>2021-02-14T13:58:20Z</time>
      </trkpt>
      <trkpt lat="43.46175" lon="-5.5918894">
        <ele>412.0</ele>
        <time>2021-02-14T13:58:21Z</time>
      </trkpt>
      <trkpt lat="43.461765" lon="-5.5919013">
        <ele>412.0</ele>
        <time>2021-02-14T13:58:22Z</time>
      </trkpt>
      <trkpt lat="43.461777" lon="-5.591917">
        <ele>412.0</ele>
        <time>2021-02-14T13:58:23Z</time>
      </trkpt>
      <trkpt lat="43.461784" lon="-5.5919304">
        <ele>413.0</ele>
        <time>2021-02-14T13:58:24Z</time>
      </trkpt>
      <trkpt lat="43.461796" lon="-5.5919433">
        <ele>413.0</ele>
        <time>2021-02-14T13:58:25Z</time>
      </trkpt>
      <trkpt lat="43.461807" lon="-5.5919566">
        <ele>413.0</ele>
        <time>2021-02-14T13:58:26Z</time>
      </trkpt>
      <trkpt lat="43.461815" lon="-5.591968">
        <ele>413.0</ele>
        <time>2021-02-14T13:58:27Z</time>
      </trkpt>
      <trkpt lat="43.461823" lon="-5.5919776">
        <ele>413.0</ele>
        <time>2021-02-14T13:58:28Z</time>
      </trkpt>
      <trkpt lat="43.461823" lon="-5.59199">
        <ele>414.0</ele>
        <time>2021-02-14T13:58:29Z</time>
      </trkpt>
      <trkpt lat="43.461826" lon="-5.592004">
        <ele>414.0</ele>
        <time>2021-02-14T13:58:30Z</time>
      </trkpt>
      <trkpt lat="43.461826" lon="-5.592017">
        <ele>414.0</ele>
        <time>2021-02-14T13:58:31Z</time>
      </trkpt>
      <trkpt lat="43.46183" lon="-5.59203">
        <ele>414.0</ele>
        <time>2021-02-14T13:58:32Z</time>
      </trkpt>
      <trkpt lat="43.46183" lon="-5.5920405">
        <ele>414.0</ele>
        <time>2021-02-14T13:58:33Z</time>
      </trkpt>
      <trkpt lat="43.461838" lon="-5.5920486">
        <ele>414.0</ele>
        <time>2021-02-14T13:58:34Z</time>
      </trkpt>
      <trkpt lat="43.46184" lon="-5.592058">
        <ele>414.0</ele>
        <time>2021-02-14T13:58:35Z</time>
      </trkpt>
      <trkpt lat="43.461845" lon="-5.5920672">
        <ele>414.0</ele>
        <time>2021-02-14T13:58:36Z</time>
      </trkpt>
      <trkpt lat="43.461857" lon="-5.5920763">
        <ele>414.0</ele>
        <time>2021-02-14T13:58:37Z</time>
      </trkpt>
      <trkpt lat="43.46186" lon="-5.5920863">
        <ele>414.0</ele>
        <time>2021-02-14T13:58:38Z</time>
      </trkpt>
      <trkpt lat="43.461872" lon="-5.592096">
        <ele>415.0</ele>
        <time>2021-02-14T13:58:39Z</time>
      </trkpt>
      <trkpt lat="43.461884" lon="-5.592107">
        <ele>415.0</ele>
        <time>2021-02-14T13:58:40Z</time>
      </trkpt>
      <trkpt lat="43.461887" lon="-5.592118">
        <ele>415.0</ele>
        <time>2021-02-14T13:58:41Z</time>
      </trkpt>
      <trkpt lat="43.4619" lon="-5.5921297">
        <ele>415.0</ele>
        <time>2021-02-14T13:58:42Z</time>
      </trkpt>
      <trkpt lat="43.46191" lon="-5.5921416">
        <ele>415.0</ele>
        <time>2021-02-14T13:58:43Z</time>
      </trkpt>
      <trkpt lat="43.461914" lon="-5.5921535">
        <ele>415.0</ele>
        <time>2021-02-14T13:58:44Z</time>
      </trkpt>
      <trkpt lat="43.461918" lon="-5.5921683">
        <ele>416.0</ele>
        <time>2021-02-14T13:58:45Z</time>
      </trkpt>
      <trkpt lat="43.46193" lon="-5.5921836">
        <ele>416.0</ele>
        <time>2021-02-14T13:58:46Z</time>
      </trkpt>
      <trkpt lat="43.461933" lon="-5.5921965">
        <ele>416.0</ele>
        <time>2021-02-14T13:58:47Z</time>
      </trkpt>
      <trkpt lat="43.461945" lon="-5.5922074">
        <ele>416.0</ele>
        <time>2021-02-14T13:58:48Z</time>
      </trkpt>
      <trkpt lat="43.46195" lon="-5.5922184">
        <ele>416.0</ele>
        <time>2021-02-14T13:58:49Z</time>
      </trkpt>
      <trkpt lat="43.46196" lon="-5.5922303">
        <ele>416.0</ele>
        <time>2021-02-14T13:58:50Z</time>
      </trkpt>
      <trkpt lat="43.461964" lon="-5.5922413">
        <ele>416.0</ele>
        <time>2021-02-14T13:58:51Z</time>
      </trkpt>
      <trkpt lat="43.461975" lon="-5.592251">
        <ele>416.0</ele>
        <time>2021-02-14T13:58:52Z</time>
      </trkpt>
      <trkpt lat="43.461987" lon="-5.5922766">
        <ele>417.0</ele>
        <time>2021-02-14T13:58:54Z</time>
      </trkpt>
      <trkpt lat="43.461987" lon="-5.592277">
        <ele>417.0</ele>
        <time>2021-02-14T13:58:55Z</time>
      </trkpt>
      <trkpt lat="43.461987" lon="-5.592279">
        <ele>417.0</ele>
        <time>2021-02-14T13:58:56Z</time>
      </trkpt>
      <trkpt lat="43.461987" lon="-5.5922823">
        <ele>417.0</ele>
        <time>2021-02-14T13:58:57Z</time>
      </trkpt>
      <trkpt lat="43.461987" lon="-5.5922866">
        <ele>417.0</ele>
        <time>2021-02-14T13:58:58Z</time>
      </trkpt>
      <trkpt lat="43.46199" lon="-5.5922923">
        <ele>417.0</ele>
        <time>2021-02-14T13:58:59Z</time>
      </trkpt>
      <trkpt lat="43.461994" lon="-5.5923">
        <ele>417.0</ele>
        <time>2021-02-14T13:59:00Z</time>
      </trkpt>
      <trkpt lat="43.462" lon="-5.59231">
        <ele>417.0</ele>
        <time>2021-02-14T13:59:02Z</time>
      </trkpt>
      <trkpt lat="43.462006" lon="-5.59232">
        <ele>417.0</ele>
        <time>2021-02-14T13:59:02Z</time>
      </trkpt>
      <trkpt lat="43.462017" lon="-5.592331">
        <ele>417.0</ele>
        <time>2021-02-14T13:59:03Z</time>
      </trkpt>
      <trkpt lat="43.46202" lon="-5.592341">
        <ele>417.0</ele>
        <time>2021-02-14T13:59:04Z</time>
      </trkpt>
      <trkpt lat="43.462025" lon="-5.5923486">
        <ele>417.0</ele>
        <time>2021-02-14T13:59:05Z</time>
      </trkpt>
      <trkpt lat="43.462036" lon="-5.5923553">
        <ele>417.0</ele>
        <time>2021-02-14T13:59:06Z</time>
      </trkpt>
      <trkpt lat="43.462048" lon="-5.592361">
        <ele>418.0</ele>
        <time>2021-02-14T13:59:07Z</time>
      </trkpt>
      <trkpt lat="43.46205" lon="-5.592367">
        <ele>418.0</ele>
        <time>2021-02-14T13:59:08Z</time>
      </trkpt>
      <trkpt lat="43.462063" lon="-5.5923758">
        <ele>418.0</ele>
        <time>2021-02-14T13:59:09Z</time>
      </trkpt>
      <trkpt lat="43.462067" lon="-5.5923853">
        <ele>418.0</ele>
        <time>2021-02-14T13:59:10Z</time>
      </trkpt>
      <trkpt lat="43.46207" lon="-5.592398">
        <ele>418.0</ele>
        <time>2021-02-14T13:59:11Z</time>
      </trkpt>
      <trkpt lat="43.46208" lon="-5.592411">
        <ele>418.0</ele>
        <time>2021-02-14T13:59:12Z</time>
      </trkpt>
      <trkpt lat="43.462082" lon="-5.592424">
        <ele>418.0</ele>
        <time>2021-02-14T13:59:13Z</time>
      </trkpt>
      <trkpt lat="43.46209" lon="-5.592436">
        <ele>418.0</ele>
        <time>2021-02-14T13:59:14Z</time>
      </trkpt>
      <trkpt lat="43.462093" lon="-5.592446">
        <ele>418.0</ele>
        <time>2021-02-14T13:59:15Z</time>
      </trkpt>
      <trkpt lat="43.462093" lon="-5.592457">
        <ele>418.0</ele>
        <time>2021-02-14T13:59:16Z</time>
      </trkpt>
      <trkpt lat="43.462097" lon="-5.592469">
        <ele>418.0</ele>
        <time>2021-02-14T13:59:17Z</time>
      </trkpt>
      <trkpt lat="43.46211" lon="-5.592482">
        <ele>418.0</ele>
        <time>2021-02-14T13:59:18Z</time>
      </trkpt>
      <trkpt lat="43.462112" lon="-5.5924945">
        <ele>418.0</ele>
        <time>2021-02-14T13:59:19Z</time>
      </trkpt>
      <trkpt lat="43.46212" lon="-5.5925083">
        <ele>418.0</ele>
        <time>2021-02-14T13:59:20Z</time>
      </trkpt>
      <trkpt lat="43.462124" lon="-5.592522">
        <ele>418.0</ele>
        <time>2021-02-14T13:59:21Z</time>
      </trkpt>
      <trkpt lat="43.462128" lon="-5.5925374">
        <ele>418.0</ele>
        <time>2021-02-14T13:59:22Z</time>
      </trkpt>
      <trkpt lat="43.462135" lon="-5.5925517">
        <ele>418.0</ele>
        <time>2021-02-14T13:59:23Z</time>
      </trkpt>
      <trkpt lat="43.46214" lon="-5.5925655">
        <ele>419.0</ele>
        <time>2021-02-14T13:59:24Z</time>
      </trkpt>
      <trkpt lat="43.462143" lon="-5.592578">
        <ele>419.0</ele>
        <time>2021-02-14T13:59:25Z</time>
      </trkpt>
      <trkpt lat="43.46215" lon="-5.5925913">
        <ele>419.0</ele>
        <time>2021-02-14T13:59:26Z</time>
      </trkpt>
      <trkpt lat="43.46216" lon="-5.592604">
        <ele>419.0</ele>
        <time>2021-02-14T13:59:27Z</time>
      </trkpt>
      <trkpt lat="43.462166" lon="-5.592617">
        <ele>419.0</ele>
        <time>2021-02-14T13:59:28Z</time>
      </trkpt>
      <trkpt lat="43.46217" lon="-5.592631">
        <ele>419.0</ele>
        <time>2021-02-14T13:59:29Z</time>
      </trkpt>
      <trkpt lat="43.462173" lon="-5.5926437">
        <ele>419.0</ele>
        <time>2021-02-14T13:59:30Z</time>
      </trkpt>
      <trkpt lat="43.462185" lon="-5.592654">
        <ele>419.0</ele>
        <time>2021-02-14T13:59:31Z</time>
      </trkpt>
      <trkpt lat="43.46219" lon="-5.592664">
        <ele>419.0</ele>
        <time>2021-02-14T13:59:32Z</time>
      </trkpt>
      <trkpt lat="43.4622" lon="-5.592674">
        <ele>419.0</ele>
        <time>2021-02-14T13:59:33Z</time>
      </trkpt>
      <trkpt lat="43.46221" lon="-5.592686">
        <ele>419.0</ele>
        <time>2021-02-14T13:59:34Z</time>
      </trkpt>
      <trkpt lat="43.462215" lon="-5.592696">
        <ele>419.0</ele>
        <time>2021-02-14T13:59:35Z</time>
      </trkpt>
      <trkpt lat="43.462227" lon="-5.5927067">
        <ele>419.0</ele>
        <time>2021-02-14T13:59:36Z</time>
      </trkpt>
      <trkpt lat="43.46223" lon="-5.5927176">
        <ele>419.0</ele>
        <time>2021-02-14T13:59:37Z</time>
      </trkpt>
      <trkpt lat="43.462242" lon="-5.592728">
        <ele>419.0</ele>
        <time>2021-02-14T13:59:38Z</time>
      </trkpt>
      <trkpt lat="43.46225" lon="-5.5927424">
        <ele>419.0</ele>
        <time>2021-02-14T13:59:39Z</time>
      </trkpt>
      <trkpt lat="43.46226" lon="-5.592757">
        <ele>419.0</ele>
        <time>2021-02-14T13:59:39Z</time>
      </trkpt>
      <trkpt lat="43.462273" lon="-5.592769">
        <ele>419.0</ele>
        <time>2021-02-14T13:59:40Z</time>
      </trkpt>
      <trkpt lat="43.462284" lon="-5.5927796">
        <ele>419.0</ele>
        <time>2021-02-14T13:59:41Z</time>
      </trkpt>
      <trkpt lat="43.46229" lon="-5.5927906">
        <ele>419.0</ele>
        <time>2021-02-14T13:59:42Z</time>
      </trkpt>
      <trkpt lat="43.462303" lon="-5.5928025">
        <ele>419.0</ele>
        <time>2021-02-14T13:59:43Z</time>
      </trkpt>
      <trkpt lat="43.462307" lon="-5.5928173">
        <ele>419.0</ele>
        <time>2021-02-14T13:59:44Z</time>
      </trkpt>
      <trkpt lat="43.462315" lon="-5.5928326">
        <ele>419.0</ele>
        <time>2021-02-14T13:59:45Z</time>
      </trkpt>
      <trkpt lat="43.462322" lon="-5.5928473">
        <ele>419.0</ele>
        <time>2021-02-14T13:59:46Z</time>
      </trkpt>
      <trkpt lat="43.46233" lon="-5.5928583">
        <ele>419.0</ele>
        <time>2021-02-14T13:59:47Z</time>
      </trkpt>
      <trkpt lat="43.462334" lon="-5.5928664">
        <ele>419.0</ele>
        <time>2021-02-14T13:59:48Z</time>
      </trkpt>
      <trkpt lat="43.462334" lon="-5.592874">
        <ele>419.0</ele>
        <time>2021-02-14T13:59:49Z</time>
      </trkpt>
      <trkpt lat="43.462337" lon="-5.592881">
        <ele>419.0</ele>
        <time>2021-02-14T13:59:50Z</time>
      </trkpt>
      <trkpt lat="43.462345" lon="-5.592887">
        <ele>419.0</ele>
        <time>2021-02-14T13:59:51Z</time>
      </trkpt>
      <trkpt lat="43.462353" lon="-5.5928936">
        <ele>417.0</ele>
        <time>2021-02-14T13:59:52Z</time>
      </trkpt>
      <trkpt lat="43.46236" lon="-5.5928993">
        <ele>417.0</ele>
        <time>2021-02-14T13:59:53Z</time>
      </trkpt>
      <trkpt lat="43.462368" lon="-5.592903">
        <ele>417.0</ele>
        <time>2021-02-14T13:59:54Z</time>
      </trkpt>
      <trkpt lat="43.46238" lon="-5.5929074">
        <ele>417.0</ele>
        <time>2021-02-14T13:59:55Z</time>
      </trkpt>
      <trkpt lat="43.46239" lon="-5.5929165">
        <ele>417.0</ele>
        <time>2021-02-14T13:59:56Z</time>
      </trkpt>
      <trkpt lat="43.4624" lon="-5.5929313">
        <ele>417.0</ele>
        <time>2021-02-14T13:59:57Z</time>
      </trkpt>
      <trkpt lat="43.46241" lon="-5.5929484">
        <ele>417.0</ele>
        <time>2021-02-14T13:59:58Z</time>
      </trkpt>
      <trkpt lat="43.46242" lon="-5.592965">
        <ele>417.0</ele>
        <time>2021-02-14T13:59:59Z</time>
      </trkpt>
      <trkpt lat="43.46243" lon="-5.59298">
        <ele>417.0</ele>
        <time>2021-02-14T14:00:00Z</time>
      </trkpt>
      <trkpt lat="43.46244" lon="-5.5929933">
        <ele>417.0</ele>
        <time>2021-02-14T14:00:01Z</time>
      </trkpt>
      <trkpt lat="43.462452" lon="-5.5930037">
        <ele>417.0</ele>
        <time>2021-02-14T14:00:02Z</time>
      </trkpt>
      <trkpt lat="43.46246" lon="-5.593012">
        <ele>416.0</ele>
        <time>2021-02-14T14:00:03Z</time>
      </trkpt>
      <trkpt lat="43.462467" lon="-5.593021">
        <ele>416.0</ele>
        <time>2021-02-14T14:00:04Z</time>
      </trkpt>
      <trkpt lat="43.46248" lon="-5.5930324">
        <ele>416.0</ele>
        <time>2021-02-14T14:00:05Z</time>
      </trkpt>
      <trkpt lat="43.462482" lon="-5.5930443">
        <ele>416.0</ele>
        <time>2021-02-14T14:00:06Z</time>
      </trkpt>
      <trkpt lat="43.462494" lon="-5.593058">
        <ele>416.0</ele>
        <time>2021-02-14T14:00:07Z</time>
      </trkpt>
      <trkpt lat="43.462498" lon="-5.593072">
        <ele>416.0</ele>
        <time>2021-02-14T14:00:08Z</time>
      </trkpt>
      <trkpt lat="43.4625" lon="-5.5930853">
        <ele>415.0</ele>
        <time>2021-02-14T14:00:09Z</time>
      </trkpt>
      <trkpt lat="43.46251" lon="-5.5931">
        <ele>415.0</ele>
        <time>2021-02-14T14:00:10Z</time>
      </trkpt>
      <trkpt lat="43.462517" lon="-5.593111">
        <ele>415.0</ele>
        <time>2021-02-14T14:00:11Z</time>
      </trkpt>
      <trkpt lat="43.462524" lon="-5.593121">
        <ele>415.0</ele>
        <time>2021-02-14T14:00:12Z</time>
      </trkpt>
      <trkpt lat="43.462532" lon="-5.5931315">
        <ele>415.0</ele>
        <time>2021-02-14T14:00:13Z</time>
      </trkpt>
      <trkpt lat="43.462543" lon="-5.5931425">
        <ele>415.0</ele>
        <time>2021-02-14T14:00:14Z</time>
      </trkpt>
      <trkpt lat="43.462555" lon="-5.5931516">
        <ele>415.0</ele>
        <time>2021-02-14T14:00:15Z</time>
      </trkpt>
      <trkpt lat="43.462563" lon="-5.593161">
        <ele>414.0</ele>
        <time>2021-02-14T14:00:16Z</time>
      </trkpt>
      <trkpt lat="43.46257" lon="-5.593171">
        <ele>414.0</ele>
        <time>2021-02-14T14:00:17Z</time>
      </trkpt>
      <trkpt lat="43.462578" lon="-5.59318">
        <ele>414.0</ele>
        <time>2021-02-14T14:00:18Z</time>
      </trkpt>
      <trkpt lat="43.462585" lon="-5.5931916">
        <ele>414.0</ele>
        <time>2021-02-14T14:00:19Z</time>
      </trkpt>
      <trkpt lat="43.462593" lon="-5.593203">
        <ele>414.0</ele>
        <time>2021-02-14T14:00:20Z</time>
      </trkpt>
      <trkpt lat="43.462605" lon="-5.5932136">
        <ele>414.0</ele>
        <time>2021-02-14T14:00:21Z</time>
      </trkpt>
      <trkpt lat="43.462616" lon="-5.5932236">
        <ele>414.0</ele>
        <time>2021-02-14T14:00:22Z</time>
      </trkpt>
      <trkpt lat="43.462624" lon="-5.593233">
        <ele>413.0</ele>
        <time>2021-02-14T14:00:23Z</time>
      </trkpt>
      <trkpt lat="43.46263" lon="-5.593244">
        <ele>413.0</ele>
        <time>2021-02-14T14:00:24Z</time>
      </trkpt>
      <trkpt lat="43.462635" lon="-5.5932546">
        <ele>413.0</ele>
        <time>2021-02-14T14:00:25Z</time>
      </trkpt>
      <trkpt lat="43.46264" lon="-5.593263">
        <ele>413.0</ele>
        <time>2021-02-14T14:00:26Z</time>
      </trkpt>
      <trkpt lat="43.46265" lon="-5.5932703">
        <ele>413.0</ele>
        <time>2021-02-14T14:00:27Z</time>
      </trkpt>
      <trkpt lat="43.462654" lon="-5.5932775">
        <ele>413.0</ele>
        <time>2021-02-14T14:00:28Z</time>
      </trkpt>
      <trkpt lat="43.462666" lon="-5.593285">
        <ele>413.0</ele>
        <time>2021-02-14T14:00:29Z</time>
      </trkpt>
      <trkpt lat="43.462677" lon="-5.593294">
        <ele>412.0</ele>
        <time>2021-02-14T14:00:30Z</time>
      </trkpt>
      <trkpt lat="43.46269" lon="-5.5933022">
        <ele>412.0</ele>
        <time>2021-02-14T14:00:31Z</time>
      </trkpt>
      <trkpt lat="43.462696" lon="-5.59331">
        <ele>412.0</ele>
        <time>2021-02-14T14:00:32Z</time>
      </trkpt>
      <trkpt lat="43.462708" lon="-5.593318">
        <ele>412.0</ele>
        <time>2021-02-14T14:00:33Z</time>
      </trkpt>
      <trkpt lat="43.46272" lon="-5.5933256">
        <ele>412.0</ele>
        <time>2021-02-14T14:00:34Z</time>
      </trkpt>
      <trkpt lat="43.462727" lon="-5.5933323">
        <ele>411.0</ele>
        <time>2021-02-14T14:00:35Z</time>
      </trkpt>
      <trkpt lat="43.462738" lon="-5.5933375">
        <ele>411.0</ele>
        <time>2021-02-14T14:00:36Z</time>
      </trkpt>
      <trkpt lat="43.46275" lon="-5.593341">
        <ele>411.0</ele>
        <time>2021-02-14T14:00:37Z</time>
      </trkpt>
      <trkpt lat="43.462765" lon="-5.593344">
        <ele>411.0</ele>
        <time>2021-02-14T14:00:38Z</time>
      </trkpt>
      <trkpt lat="43.462772" lon="-5.593348">
        <ele>411.0</ele>
        <time>2021-02-14T14:00:39Z</time>
      </trkpt>
      <trkpt lat="43.462784" lon="-5.593351">
        <ele>410.0</ele>
        <time>2021-02-14T14:00:40Z</time>
      </trkpt>
      <trkpt lat="43.462788" lon="-5.5933547">
        <ele>410.0</ele>
        <time>2021-02-14T14:00:41Z</time>
      </trkpt>
      <trkpt lat="43.4628" lon="-5.593356">
        <ele>410.0</ele>
        <time>2021-02-14T14:00:42Z</time>
      </trkpt>
      <trkpt lat="43.462803" lon="-5.593358">
        <ele>410.0</ele>
        <time>2021-02-14T14:00:43Z</time>
      </trkpt>
      <trkpt lat="43.462814" lon="-5.5933595">
        <ele>410.0</ele>
        <time>2021-02-14T14:00:44Z</time>
      </trkpt>
      <trkpt lat="43.46282" lon="-5.5933633">
        <ele>410.0</ele>
        <time>2021-02-14T14:00:45Z</time>
      </trkpt>
      <trkpt lat="43.462826" lon="-5.593367">
        <ele>410.0</ele>
        <time>2021-02-14T14:00:46Z</time>
      </trkpt>
      <trkpt lat="43.462833" lon="-5.5933723">
        <ele>409.0</ele>
        <time>2021-02-14T14:00:47Z</time>
      </trkpt>
      <trkpt lat="43.46284" lon="-5.59338">
        <ele>409.0</ele>
        <time>2021-02-14T14:00:48Z</time>
      </trkpt>
      <trkpt lat="43.46285" lon="-5.5933876">
        <ele>409.0</ele>
        <time>2021-02-14T14:00:49Z</time>
      </trkpt>
      <trkpt lat="43.462856" lon="-5.5933914">
        <ele>409.0</ele>
        <time>2021-02-14T14:00:50Z</time>
      </trkpt>
      <trkpt lat="43.462868" lon="-5.5933948">
        <ele>409.0</ele>
        <time>2021-02-14T14:00:51Z</time>
      </trkpt>
      <trkpt lat="43.46287" lon="-5.5933976">
        <ele>409.0</ele>
        <time>2021-02-14T14:00:52Z</time>
      </trkpt>
      <trkpt lat="43.462875" lon="-5.5934043">
        <ele>409.0</ele>
        <time>2021-02-14T14:00:53Z</time>
      </trkpt>
      <trkpt lat="43.462887" lon="-5.593409">
        <ele>409.0</ele>
        <time>2021-02-14T14:00:54Z</time>
      </trkpt>
      <trkpt lat="43.46289" lon="-5.5934153">
        <ele>409.0</ele>
        <time>2021-02-14T14:00:55Z</time>
      </trkpt>
      <trkpt lat="43.4629" lon="-5.593422">
        <ele>409.0</ele>
        <time>2021-02-14T14:00:56Z</time>
      </trkpt>
      <trkpt lat="43.462906" lon="-5.5934277">
        <ele>408.0</ele>
        <time>2021-02-14T14:00:57Z</time>
      </trkpt>
      <trkpt lat="43.462914" lon="-5.5934334">
        <ele>408.0</ele>
        <time>2021-02-14T14:00:58Z</time>
      </trkpt>
      <trkpt lat="43.46292" lon="-5.5934386">
        <ele>408.0</ele>
        <time>2021-02-14T14:00:59Z</time>
      </trkpt>
      <trkpt lat="43.46293" lon="-5.5934453">
        <ele>408.0</ele>
        <time>2021-02-14T14:01:00Z</time>
      </trkpt>
      <trkpt lat="43.462933" lon="-5.593454">
        <ele>408.0</ele>
        <time>2021-02-14T14:01:01Z</time>
      </trkpt>
      <trkpt lat="43.462936" lon="-5.5934596">
        <ele>407.0</ele>
        <time>2021-02-14T14:01:02Z</time>
      </trkpt>
      <trkpt lat="43.462944" lon="-5.593465">
        <ele>407.0</ele>
        <time>2021-02-14T14:01:03Z</time>
      </trkpt>
      <trkpt lat="43.462948" lon="-5.5934725">
        <ele>407.0</ele>
        <time>2021-02-14T14:01:04Z</time>
      </trkpt>
      <trkpt lat="43.46295" lon="-5.593479">
        <ele>407.0</ele>
        <time>2021-02-14T14:01:05Z</time>
      </trkpt>
      <trkpt lat="43.46296" lon="-5.5934863">
        <ele>407.0</ele>
        <time>2021-02-14T14:01:06Z</time>
      </trkpt>
      <trkpt lat="43.462967" lon="-5.5934944">
        <ele>406.0</ele>
        <time>2021-02-14T14:01:07Z</time>
      </trkpt>
      <trkpt lat="43.462975" lon="-5.5935006">
        <ele>406.0</ele>
        <time>2021-02-14T14:01:08Z</time>
      </trkpt>
      <trkpt lat="43.46299" lon="-5.5935063">
        <ele>406.0</ele>
        <time>2021-02-14T14:01:09Z</time>
      </trkpt>
      <trkpt lat="43.462997" lon="-5.593511">
        <ele>406.0</ele>
        <time>2021-02-14T14:01:10Z</time>
      </trkpt>
      <trkpt lat="43.463005" lon="-5.5935144">
        <ele>405.0</ele>
        <time>2021-02-14T14:01:11Z</time>
      </trkpt>
      <trkpt lat="43.463013" lon="-5.593513">
        <ele>405.0</ele>
        <time>2021-02-14T14:01:12Z</time>
      </trkpt>
      <trkpt lat="43.463024" lon="-5.593509">
        <ele>405.0</ele>
        <time>2021-02-14T14:01:13Z</time>
      </trkpt>
      <trkpt lat="43.463036" lon="-5.5935063">
        <ele>405.0</ele>
        <time>2021-02-14T14:01:14Z</time>
      </trkpt>
      <trkpt lat="43.463043" lon="-5.593504">
        <ele>404.0</ele>
        <time>2021-02-14T14:01:15Z</time>
      </trkpt>
      <trkpt lat="43.463062" lon="-5.5935016">
        <ele>404.0</ele>
        <time>2021-02-14T14:01:16Z</time>
      </trkpt>
      <trkpt lat="43.46307" lon="-5.5935016">
        <ele>404.0</ele>
        <time>2021-02-14T14:01:17Z</time>
      </trkpt>
      <trkpt lat="43.463085" lon="-5.5935025">
        <ele>404.0</ele>
        <time>2021-02-14T14:01:18Z</time>
      </trkpt>
      <trkpt lat="43.463097" lon="-5.5935035">
        <ele>403.0</ele>
        <time>2021-02-14T14:01:19Z</time>
      </trkpt>
      <trkpt lat="43.463108" lon="-5.5935063">
        <ele>403.0</ele>
        <time>2021-02-14T14:01:20Z</time>
      </trkpt>
      <trkpt lat="43.463116" lon="-5.593511">
        <ele>403.0</ele>
        <time>2021-02-14T14:01:21Z</time>
      </trkpt>
      <trkpt lat="43.463127" lon="-5.593517">
        <ele>403.0</ele>
        <time>2021-02-14T14:01:22Z</time>
      </trkpt>
      <trkpt lat="43.46314" lon="-5.593522">
        <ele>403.0</ele>
        <time>2021-02-14T14:01:23Z</time>
      </trkpt>
      <trkpt lat="43.463146" lon="-5.5935264">
        <ele>403.0</ele>
        <time>2021-02-14T14:01:24Z</time>
      </trkpt>
      <trkpt lat="43.463154" lon="-5.5935287">
        <ele>403.0</ele>
        <time>2021-02-14T14:01:25Z</time>
      </trkpt>
      <trkpt lat="43.463158" lon="-5.5935316">
        <ele>403.0</ele>
        <time>2021-02-14T14:01:26Z</time>
      </trkpt>
      <trkpt lat="43.46316" lon="-5.593534">
        <ele>403.0</ele>
        <time>2021-02-14T14:01:27Z</time>
      </trkpt>
      <trkpt lat="43.46317" lon="-5.593538">
        <ele>403.0</ele>
        <time>2021-02-14T14:01:28Z</time>
      </trkpt>
      <trkpt lat="43.46317" lon="-5.5935416">
        <ele>403.0</ele>
        <time>2021-02-14T14:01:29Z</time>
      </trkpt>
      <trkpt lat="43.463173" lon="-5.5935454">
        <ele>402.0</ele>
        <time>2021-02-14T14:01:30Z</time>
      </trkpt>
      <trkpt lat="43.463173" lon="-5.593549">
        <ele>402.0</ele>
        <time>2021-02-14T14:01:31Z</time>
      </trkpt>
      <trkpt lat="43.463177" lon="-5.593551">
        <ele>402.0</ele>
        <time>2021-02-14T14:01:32Z</time>
      </trkpt>
      <trkpt lat="43.463184" lon="-5.593554">
        <ele>402.0</ele>
        <time>2021-02-14T14:01:33Z</time>
      </trkpt>
      <trkpt lat="43.463184" lon="-5.5935574">
        <ele>402.0</ele>
        <time>2021-02-14T14:01:34Z</time>
      </trkpt>
      <trkpt lat="43.46319" lon="-5.5935574">
        <ele>401.0</ele>
        <time>2021-02-14T14:01:35Z</time>
      </trkpt>
      <trkpt lat="43.463203" lon="-5.593556">
        <ele>401.0</ele>
        <time>2021-02-14T14:01:37Z</time>
      </trkpt>
      <trkpt lat="43.463207" lon="-5.5935564">
        <ele>401.0</ele>
        <time>2021-02-14T14:01:38Z</time>
      </trkpt>
      <trkpt lat="43.463215" lon="-5.593556">
        <ele>401.0</ele>
        <time>2021-02-14T14:01:39Z</time>
      </trkpt>
      <trkpt lat="43.46322" lon="-5.593556">
        <ele>400.0</ele>
        <time>2021-02-14T14:01:40Z</time>
      </trkpt>
      <trkpt lat="43.463223" lon="-5.593556">
        <ele>400.0</ele>
        <time>2021-02-14T14:01:41Z</time>
      </trkpt>
      <trkpt lat="43.463234" lon="-5.593555">
        <ele>400.0</ele>
        <time>2021-02-14T14:01:42Z</time>
      </trkpt>
      <trkpt lat="43.46324" lon="-5.593553">
        <ele>400.0</ele>
        <time>2021-02-14T14:01:43Z</time>
      </trkpt>
      <trkpt lat="43.46324" lon="-5.5935464">
        <ele>399.0</ele>
        <time>2021-02-14T14:01:45Z</time>
      </trkpt>
      <trkpt lat="43.46324" lon="-5.5935454">
        <ele>399.0</ele>
        <time>2021-02-14T14:01:46Z</time>
      </trkpt>
      <trkpt lat="43.46324" lon="-5.593545">
        <ele>399.0</ele>
        <time>2021-02-14T14:01:47Z</time>
      </trkpt>
      <trkpt lat="43.46324" lon="-5.5935435">
        <ele>399.0</ele>
        <time>2021-02-14T14:01:48Z</time>
      </trkpt>
      <trkpt lat="43.46324" lon="-5.5935426">
        <ele>398.0</ele>
        <time>2021-02-14T14:01:49Z</time>
      </trkpt>
      <trkpt lat="43.463245" lon="-5.5935426">
        <ele>398.0</ele>
        <time>2021-02-14T14:01:50Z</time>
      </trkpt>
      <trkpt lat="43.46325" lon="-5.5935435">
        <ele>398.0</ele>
        <time>2021-02-14T14:01:51Z</time>
      </trkpt>
      <trkpt lat="43.46326" lon="-5.593547">
        <ele>397.0</ele>
        <time>2021-02-14T14:01:52Z</time>
      </trkpt>
      <trkpt lat="43.463264" lon="-5.59355">
        <ele>397.0</ele>
        <time>2021-02-14T14:01:53Z</time>
      </trkpt>
      <trkpt lat="43.463276" lon="-5.593553">
        <ele>397.0</ele>
        <time>2021-02-14T14:01:54Z</time>
      </trkpt>
      <trkpt lat="43.46328" lon="-5.593555">
        <ele>397.0</ele>
        <time>2021-02-14T14:01:55Z</time>
      </trkpt>
      <trkpt lat="43.46329" lon="-5.593555">
        <ele>396.0</ele>
        <time>2021-02-14T14:01:56Z</time>
      </trkpt>
      <trkpt lat="43.463303" lon="-5.593554">
        <ele>396.0</ele>
        <time>2021-02-14T14:01:57Z</time>
      </trkpt>
      <trkpt lat="43.46331" lon="-5.59355">
        <ele>396.0</ele>
        <time>2021-02-14T14:01:58Z</time>
      </trkpt>
      <trkpt lat="43.46332" lon="-5.593547">
        <ele>396.0</ele>
        <time>2021-02-14T14:01:59Z</time>
      </trkpt>
      <trkpt lat="43.46335" lon="-5.593556">
        <ele>396.0</ele>
        <time>2021-02-14T14:02:01Z</time>
      </trkpt>
      <trkpt lat="43.46335" lon="-5.5935564">
        <ele>396.0</ele>
        <time>2021-02-14T14:02:02Z</time>
      </trkpt>
      <trkpt lat="43.463352" lon="-5.593558">
        <ele>396.0</ele>
        <time>2021-02-14T14:02:04Z</time>
      </trkpt>
      <trkpt lat="43.463356" lon="-5.593558">
        <ele>396.0</ele>
        <time>2021-02-14T14:02:07Z</time>
      </trkpt>
      <trkpt lat="43.463356" lon="-5.593558">
        <ele>396.0</ele>
        <time>2021-02-14T14:02:08Z</time>
      </trkpt>
      <trkpt lat="43.463364" lon="-5.5935583">
        <ele>396.0</ele>
        <time>2021-02-14T14:02:09Z</time>
      </trkpt>
      <trkpt lat="43.463364" lon="-5.5935593">
        <ele>396.0</ele>
        <time>2021-02-14T14:02:10Z</time>
      </trkpt>
      <trkpt lat="43.463367" lon="-5.5935593">
        <ele>396.0</ele>
        <time>2021-02-14T14:02:11Z</time>
      </trkpt>
      <trkpt lat="43.46338" lon="-5.593561">
        <ele>396.0</ele>
        <time>2021-02-14T14:02:12Z</time>
      </trkpt>
      <trkpt lat="43.463383" lon="-5.5935636">
        <ele>396.0</ele>
        <time>2021-02-14T14:02:13Z</time>
      </trkpt>
      <trkpt lat="43.463394" lon="-5.593568">
        <ele>395.0</ele>
        <time>2021-02-14T14:02:14Z</time>
      </trkpt>
      <trkpt lat="43.46341" lon="-5.5935736">
        <ele>395.0</ele>
        <time>2021-02-14T14:02:15Z</time>
      </trkpt>
      <trkpt lat="43.463417" lon="-5.5935783">
        <ele>395.0</ele>
        <time>2021-02-14T14:02:16Z</time>
      </trkpt>
      <trkpt lat="43.46343" lon="-5.5935817">
        <ele>395.0</ele>
        <time>2021-02-14T14:02:17Z</time>
      </trkpt>
      <trkpt lat="43.46344" lon="-5.593584">
        <ele>395.0</ele>
        <time>2021-02-14T14:02:18Z</time>
      </trkpt>
      <trkpt lat="43.46345" lon="-5.5935874">
        <ele>395.0</ele>
        <time>2021-02-14T14:02:19Z</time>
      </trkpt>
      <trkpt lat="43.463455" lon="-5.59359">
        <ele>394.0</ele>
        <time>2021-02-14T14:02:20Z</time>
      </trkpt>
      <trkpt lat="43.463467" lon="-5.5935936">
        <ele>394.0</ele>
        <time>2021-02-14T14:02:21Z</time>
      </trkpt>
      <trkpt lat="43.463474" lon="-5.5935993">
        <ele>394.0</ele>
        <time>2021-02-14T14:02:22Z</time>
      </trkpt>
      <trkpt lat="43.463486" lon="-5.5936027">
        <ele>394.0</ele>
        <time>2021-02-14T14:02:23Z</time>
      </trkpt>
      <trkpt lat="43.46349" lon="-5.593607">
        <ele>394.0</ele>
        <time>2021-02-14T14:02:24Z</time>
      </trkpt>
      <trkpt lat="43.4635" lon="-5.593614">
        <ele>393.0</ele>
        <time>2021-02-14T14:02:25Z</time>
      </trkpt>
      <trkpt lat="43.463512" lon="-5.59362">
        <ele>393.0</ele>
        <time>2021-02-14T14:02:26Z</time>
      </trkpt>
      <trkpt lat="43.463516" lon="-5.593623">
        <ele>393.0</ele>
        <time>2021-02-14T14:02:27Z</time>
      </trkpt>
      <trkpt lat="43.463528" lon="-5.593626">
        <ele>393.0</ele>
        <time>2021-02-14T14:02:28Z</time>
      </trkpt>
      <trkpt lat="43.46353" lon="-5.5936303">
        <ele>393.0</ele>
        <time>2021-02-14T14:02:29Z</time>
      </trkpt>
      <trkpt lat="43.463535" lon="-5.593633">
        <ele>393.0</ele>
        <time>2021-02-14T14:02:30Z</time>
      </trkpt>
      <trkpt lat="43.463547" lon="-5.593638">
        <ele>392.0</ele>
        <time>2021-02-14T14:02:31Z</time>
      </trkpt>
      <trkpt lat="43.46355" lon="-5.5936403">
        <ele>392.0</ele>
        <time>2021-02-14T14:02:32Z</time>
      </trkpt>
      <trkpt lat="43.46356" lon="-5.5936437">
        <ele>392.0</ele>
        <time>2021-02-14T14:02:33Z</time>
      </trkpt>
      <trkpt lat="43.463566" lon="-5.5936465">
        <ele>392.0</ele>
        <time>2021-02-14T14:02:34Z</time>
      </trkpt>
      <trkpt lat="43.463573" lon="-5.5936503">
        <ele>392.0</ele>
        <time>2021-02-14T14:02:35Z</time>
      </trkpt>
      <trkpt lat="43.463577" lon="-5.593653">
        <ele>391.0</ele>
        <time>2021-02-14T14:02:36Z</time>
      </trkpt>
      <trkpt lat="43.46358" lon="-5.5936565">
        <ele>391.0</ele>
        <time>2021-02-14T14:02:37Z</time>
      </trkpt>
      <trkpt lat="43.463593" lon="-5.5936604">
        <ele>391.0</ele>
        <time>2021-02-14T14:02:38Z</time>
      </trkpt>
      <trkpt lat="43.463596" lon="-5.593663">
        <ele>391.0</ele>
        <time>2021-02-14T14:02:39Z</time>
      </trkpt>
      <trkpt lat="43.463608" lon="-5.593666">
        <ele>391.0</ele>
        <time>2021-02-14T14:02:40Z</time>
      </trkpt>
      <trkpt lat="43.46362" lon="-5.59367">
        <ele>391.0</ele>
        <time>2021-02-14T14:02:41Z</time>
      </trkpt>
      <trkpt lat="43.46363" lon="-5.5936728">
        <ele>390.0</ele>
        <time>2021-02-14T14:02:42Z</time>
      </trkpt>
      <trkpt lat="43.46364" lon="-5.593676">
        <ele>390.0</ele>
        <time>2021-02-14T14:02:43Z</time>
      </trkpt>
      <trkpt lat="43.46365" lon="-5.593679">
        <ele>390.0</ele>
        <time>2021-02-14T14:02:44Z</time>
      </trkpt>
      <trkpt lat="43.46366" lon="-5.59368">
        <ele>390.0</ele>
        <time>2021-02-14T14:02:45Z</time>
      </trkpt>
      <trkpt lat="43.46367" lon="-5.59368">
        <ele>390.0</ele>
        <time>2021-02-14T14:02:46Z</time>
      </trkpt>
      <trkpt lat="43.463684" lon="-5.5936813">
        <ele>390.0</ele>
        <time>2021-02-14T14:02:47Z</time>
      </trkpt>
      <trkpt lat="43.4637" lon="-5.5936832">
        <ele>389.0</ele>
        <time>2021-02-14T14:02:48Z</time>
      </trkpt>
      <trkpt lat="43.46371" lon="-5.593687">
        <ele>389.0</ele>
        <time>2021-02-14T14:02:49Z</time>
      </trkpt>
      <trkpt lat="43.463722" lon="-5.5936904">
        <ele>389.0</ele>
        <time>2021-02-14T14:02:50Z</time>
      </trkpt>
      <trkpt lat="43.46373" lon="-5.5936947">
        <ele>389.0</ele>
        <time>2021-02-14T14:02:51Z</time>
      </trkpt>
      <trkpt lat="43.46374" lon="-5.5937">
        <ele>389.0</ele>
        <time>2021-02-14T14:02:52Z</time>
      </trkpt>
      <trkpt lat="43.463753" lon="-5.593707">
        <ele>389.0</ele>
        <time>2021-02-14T14:02:53Z</time>
      </trkpt>
      <trkpt lat="43.46376" lon="-5.5937138">
        <ele>389.0</ele>
        <time>2021-02-14T14:02:54Z</time>
      </trkpt>
      <trkpt lat="43.46377" lon="-5.593723">
        <ele>389.0</ele>
        <time>2021-02-14T14:02:55Z</time>
      </trkpt>
      <trkpt lat="43.463783" lon="-5.5937276">
        <ele>389.0</ele>
        <time>2021-02-14T14:02:56Z</time>
      </trkpt>
      <trkpt lat="43.46379" lon="-5.593732">
        <ele>389.0</ele>
        <time>2021-02-14T14:02:57Z</time>
      </trkpt>
      <trkpt lat="43.463802" lon="-5.593735">
        <ele>389.0</ele>
        <time>2021-02-14T14:02:58Z</time>
      </trkpt>
      <trkpt lat="43.463814" lon="-5.59374">
        <ele>389.0</ele>
        <time>2021-02-14T14:02:59Z</time>
      </trkpt>
      <trkpt lat="43.463818" lon="-5.593745">
        <ele>388.0</ele>
        <time>2021-02-14T14:03:00Z</time>
      </trkpt>
      <trkpt lat="43.46383" lon="-5.593752">
        <ele>388.0</ele>
        <time>2021-02-14T14:03:01Z</time>
      </trkpt>
      <trkpt lat="43.46384" lon="-5.5937567">
        <ele>388.0</ele>
        <time>2021-02-14T14:03:02Z</time>
      </trkpt>
      <trkpt lat="43.46385" lon="-5.593762">
        <ele>388.0</ele>
        <time>2021-02-14T14:03:03Z</time>
      </trkpt>
      <trkpt lat="43.46386" lon="-5.5937653">
        <ele>388.0</ele>
        <time>2021-02-14T14:03:04Z</time>
      </trkpt>
      <trkpt lat="43.46387" lon="-5.5937657">
        <ele>387.0</ele>
        <time>2021-02-14T14:03:05Z</time>
      </trkpt>
      <trkpt lat="43.463886" lon="-5.5937643">
        <ele>387.0</ele>
        <time>2021-02-14T14:03:06Z</time>
      </trkpt>
      <trkpt lat="43.46389" lon="-5.5937653">
        <ele>387.0</ele>
        <time>2021-02-14T14:03:07Z</time>
      </trkpt>
      <trkpt lat="43.46392" lon="-5.5937657">
        <ele>387.0</ele>
        <time>2021-02-14T14:03:09Z</time>
      </trkpt>
      <trkpt lat="43.46392" lon="-5.593767">
        <ele>387.0</ele>
        <time>2021-02-14T14:03:10Z</time>
      </trkpt>
      <trkpt lat="43.463924" lon="-5.593769">
        <ele>387.0</ele>
        <time>2021-02-14T14:03:11Z</time>
      </trkpt>
      <trkpt lat="43.463936" lon="-5.593771">
        <ele>386.0</ele>
        <time>2021-02-14T14:03:12Z</time>
      </trkpt>
      <trkpt lat="43.463947" lon="-5.5937715">
        <ele>386.0</ele>
        <time>2021-02-14T14:03:13Z</time>
      </trkpt>
      <trkpt lat="43.463963" lon="-5.593775">
        <ele>386.0</ele>
        <time>2021-02-14T14:03:14Z</time>
      </trkpt>
      <trkpt lat="43.46397" lon="-5.593781">
        <ele>386.0</ele>
        <time>2021-02-14T14:03:15Z</time>
      </trkpt>
      <trkpt lat="43.46398" lon="-5.5937877">
        <ele>386.0</ele>
        <time>2021-02-14T14:03:16Z</time>
      </trkpt>
      <trkpt lat="43.463997" lon="-5.5937934">
        <ele>385.0</ele>
        <time>2021-02-14T14:03:17Z</time>
      </trkpt>
      <trkpt lat="43.46401" lon="-5.5937943">
        <ele>385.0</ele>
        <time>2021-02-14T14:03:18Z</time>
      </trkpt>
      <trkpt lat="43.464024" lon="-5.5937953">
        <ele>385.0</ele>
        <time>2021-02-14T14:03:19Z</time>
      </trkpt>
      <trkpt lat="43.464035" lon="-5.5937963">
        <ele>385.0</ele>
        <time>2021-02-14T14:03:20Z</time>
      </trkpt>
      <trkpt lat="43.464043" lon="-5.5938025">
        <ele>385.0</ele>
        <time>2021-02-14T14:03:21Z</time>
      </trkpt>
      <trkpt lat="43.46405" lon="-5.593807">
        <ele>385.0</ele>
        <time>2021-02-14T14:03:22Z</time>
      </trkpt>
      <trkpt lat="43.464058" lon="-5.593813">
        <ele>384.0</ele>
        <time>2021-02-14T14:03:23Z</time>
      </trkpt>
      <trkpt lat="43.464066" lon="-5.5938196">
        <ele>384.0</ele>
        <time>2021-02-14T14:03:24Z</time>
      </trkpt>
      <trkpt lat="43.464073" lon="-5.5938287">
        <ele>384.0</ele>
        <time>2021-02-14T14:03:25Z</time>
      </trkpt>
      <trkpt lat="43.464085" lon="-5.593835">
        <ele>384.0</ele>
        <time>2021-02-14T14:03:26Z</time>
      </trkpt>
      <trkpt lat="43.464096" lon="-5.5938363">
        <ele>384.0</ele>
        <time>2021-02-14T14:03:27Z</time>
      </trkpt>
      <trkpt lat="43.464104" lon="-5.5938344">
        <ele>384.0</ele>
        <time>2021-02-14T14:03:28Z</time>
      </trkpt>
      <trkpt lat="43.46412" lon="-5.593835">
        <ele>383.0</ele>
        <time>2021-02-14T14:03:29Z</time>
      </trkpt>
      <trkpt lat="43.46413" lon="-5.5938354">
        <ele>383.0</ele>
        <time>2021-02-14T14:03:30Z</time>
      </trkpt>
      <trkpt lat="43.46414" lon="-5.59384">
        <ele>383.0</ele>
        <time>2021-02-14T14:03:31Z</time>
      </trkpt>
      <trkpt lat="43.46415" lon="-5.593843">
        <ele>383.0</ele>
        <time>2021-02-14T14:03:32Z</time>
      </trkpt>
      <trkpt lat="43.46416" lon="-5.593846">
        <ele>383.0</ele>
        <time>2021-02-14T14:03:33Z</time>
      </trkpt>
      <trkpt lat="43.464172" lon="-5.5938473">
        <ele>383.0</ele>
        <time>2021-02-14T14:03:34Z</time>
      </trkpt>
      <trkpt lat="43.46418" lon="-5.5938535">
        <ele>383.0</ele>
        <time>2021-02-14T14:03:35Z</time>
      </trkpt>
      <trkpt lat="43.464188" lon="-5.593863">
        <ele>383.0</ele>
        <time>2021-02-14T14:03:36Z</time>
      </trkpt>
      <trkpt lat="43.464195" lon="-5.593869">
        <ele>383.0</ele>
        <time>2021-02-14T14:03:37Z</time>
      </trkpt>
      <trkpt lat="43.464207" lon="-5.593874">
        <ele>383.0</ele>
        <time>2021-02-14T14:03:38Z</time>
      </trkpt>
      <trkpt lat="43.464214" lon="-5.5938754">
        <ele>383.0</ele>
        <time>2021-02-14T14:03:39Z</time>
      </trkpt>
      <trkpt lat="43.464222" lon="-5.5938725">
        <ele>383.0</ele>
        <time>2021-02-14T14:03:40Z</time>
      </trkpt>
      <trkpt lat="43.464233" lon="-5.5938716">
        <ele>383.0</ele>
        <time>2021-02-14T14:03:41Z</time>
      </trkpt>
      <trkpt lat="43.464237" lon="-5.5938716">
        <ele>382.0</ele>
        <time>2021-02-14T14:03:42Z</time>
      </trkpt>
      <trkpt lat="43.46425" lon="-5.59387">
        <ele>382.0</ele>
        <time>2021-02-14T14:03:43Z</time>
      </trkpt>
      <trkpt lat="43.46426" lon="-5.5938735">
        <ele>382.0</ele>
        <time>2021-02-14T14:03:44Z</time>
      </trkpt>
      <trkpt lat="43.464275" lon="-5.5938816">
        <ele>382.0</ele>
        <time>2021-02-14T14:03:45Z</time>
      </trkpt>
      <trkpt lat="43.464283" lon="-5.5938897">
        <ele>382.0</ele>
        <time>2021-02-14T14:03:46Z</time>
      </trkpt>
      <trkpt lat="43.4643" lon="-5.593898">
        <ele>382.0</ele>
        <time>2021-02-14T14:03:47Z</time>
      </trkpt>
      <trkpt lat="43.46431" lon="-5.5939026">
        <ele>382.0</ele>
        <time>2021-02-14T14:03:48Z</time>
      </trkpt>
      <trkpt lat="43.464325" lon="-5.5939054">
        <ele>381.0</ele>
        <time>2021-02-14T14:03:49Z</time>
      </trkpt>
      <trkpt lat="43.464336" lon="-5.5939093">
        <ele>381.0</ele>
        <time>2021-02-14T14:03:51Z</time>
      </trkpt>
      <trkpt lat="43.46435" lon="-5.593913">
        <ele>381.0</ele>
        <time>2021-02-14T14:03:51Z</time>
      </trkpt>
      <trkpt lat="43.464367" lon="-5.593918">
        <ele>381.0</ele>
        <time>2021-02-14T14:03:52Z</time>
      </trkpt>
      <trkpt lat="43.464382" lon="-5.5939264">
        <ele>381.0</ele>
        <time>2021-02-14T14:03:53Z</time>
      </trkpt>
      <trkpt lat="43.46439" lon="-5.5939336">
        <ele>381.0</ele>
        <time>2021-02-14T14:03:54Z</time>
      </trkpt>
      <trkpt lat="43.46441" lon="-5.5939403">
        <ele>381.0</ele>
        <time>2021-02-14T14:03:54Z</time>
      </trkpt>
      <trkpt lat="43.464417" lon="-5.5939493">
        <ele>381.0</ele>
        <time>2021-02-14T14:03:55Z</time>
      </trkpt>
      <trkpt lat="43.46443" lon="-5.5939565">
        <ele>380.0</ele>
        <time>2021-02-14T14:03:56Z</time>
      </trkpt>
      <trkpt lat="43.464443" lon="-5.5939617">
        <ele>380.0</ele>
        <time>2021-02-14T14:03:57Z</time>
      </trkpt>
      <trkpt lat="43.464455" lon="-5.5939655">
        <ele>380.0</ele>
        <time>2021-02-14T14:03:58Z</time>
      </trkpt>
      <trkpt lat="43.464462" lon="-5.593969">
        <ele>380.0</ele>
        <time>2021-02-14T14:03:59Z</time>
      </trkpt>
      <trkpt lat="43.464474" lon="-5.593973">
        <ele>380.0</ele>
        <time>2021-02-14T14:04:00Z</time>
      </trkpt>
      <trkpt lat="43.46449" lon="-5.5939775">
        <ele>379.0</ele>
        <time>2021-02-14T14:04:01Z</time>
      </trkpt>
      <trkpt lat="43.4645" lon="-5.5939813">
        <ele>379.0</ele>
        <time>2021-02-14T14:04:02Z</time>
      </trkpt>
      <trkpt lat="43.464508" lon="-5.5939846">
        <ele>379.0</ele>
        <time>2021-02-14T14:04:03Z</time>
      </trkpt>
      <trkpt lat="43.46452" lon="-5.593987">
        <ele>379.0</ele>
        <time>2021-02-14T14:04:04Z</time>
      </trkpt>
      <trkpt lat="43.46453" lon="-5.5939903">
        <ele>379.0</ele>
        <time>2021-02-14T14:04:06Z</time>
      </trkpt>
      <trkpt lat="43.46454" lon="-5.5939937">
        <ele>378.0</ele>
        <time>2021-02-14T14:04:06Z</time>
      </trkpt>
      <trkpt lat="43.46455" lon="-5.5939975">
        <ele>378.0</ele>
        <time>2021-02-14T14:04:07Z</time>
      </trkpt>
      <trkpt lat="43.46456" lon="-5.594002">
        <ele>378.0</ele>
        <time>2021-02-14T14:04:08Z</time>
      </trkpt>
      <trkpt lat="43.46457" lon="-5.5940037">
        <ele>378.0</ele>
        <time>2021-02-14T14:04:09Z</time>
      </trkpt>
      <trkpt lat="43.46458" lon="-5.5940056">
        <ele>378.0</ele>
        <time>2021-02-14T14:04:10Z</time>
      </trkpt>
      <trkpt lat="43.464596" lon="-5.594009">
        <ele>378.0</ele>
        <time>2021-02-14T14:04:11Z</time>
      </trkpt>
      <trkpt lat="43.464607" lon="-5.5940123">
        <ele>378.0</ele>
        <time>2021-02-14T14:04:12Z</time>
      </trkpt>
      <trkpt lat="43.46462" lon="-5.594018">
        <ele>378.0</ele>
        <time>2021-02-14T14:04:13Z</time>
      </trkpt>
      <trkpt lat="43.464626" lon="-5.5940237">
        <ele>378.0</ele>
        <time>2021-02-14T14:04:14Z</time>
      </trkpt>
      <trkpt lat="43.464638" lon="-5.5940294">
        <ele>378.0</ele>
        <time>2021-02-14T14:04:15Z</time>
      </trkpt>
      <trkpt lat="43.46464" lon="-5.5940347">
        <ele>377.0</ele>
        <time>2021-02-14T14:04:16Z</time>
      </trkpt>
      <trkpt lat="43.46465" lon="-5.5940375">
        <ele>377.0</ele>
        <time>2021-02-14T14:04:17Z</time>
      </trkpt>
      <trkpt lat="43.464657" lon="-5.59404">
        <ele>377.0</ele>
        <time>2021-02-14T14:04:18Z</time>
      </trkpt>
      <trkpt lat="43.464664" lon="-5.594041">
        <ele>377.0</ele>
        <time>2021-02-14T14:04:19Z</time>
      </trkpt>
      <trkpt lat="43.46468" lon="-5.594042">
        <ele>377.0</ele>
        <time>2021-02-14T14:04:20Z</time>
      </trkpt>
      <trkpt lat="43.464687" lon="-5.5940456">
        <ele>376.0</ele>
        <time>2021-02-14T14:04:21Z</time>
      </trkpt>
      <trkpt lat="43.4647" lon="-5.5940504">
        <ele>376.0</ele>
        <time>2021-02-14T14:04:22Z</time>
      </trkpt>
      <trkpt lat="43.464703" lon="-5.5940557">
        <ele>376.0</ele>
        <time>2021-02-14T14:04:23Z</time>
      </trkpt>
      <trkpt lat="43.464714" lon="-5.594061">
        <ele>376.0</ele>
        <time>2021-02-14T14:04:24Z</time>
      </trkpt>
      <trkpt lat="43.464718" lon="-5.5940647">
        <ele>375.0</ele>
        <time>2021-02-14T14:04:25Z</time>
      </trkpt>
      <trkpt lat="43.46473" lon="-5.594067">
        <ele>375.0</ele>
        <time>2021-02-14T14:04:26Z</time>
      </trkpt>
      <trkpt lat="43.46474" lon="-5.594071">
        <ele>375.0</ele>
        <time>2021-02-14T14:04:27Z</time>
      </trkpt>
      <trkpt lat="43.46475" lon="-5.5940747">
        <ele>375.0</ele>
        <time>2021-02-14T14:04:28Z</time>
      </trkpt>
      <trkpt lat="43.464756" lon="-5.5940795">
        <ele>375.0</ele>
        <time>2021-02-14T14:04:29Z</time>
      </trkpt>
      <trkpt lat="43.46476" lon="-5.5940824">
        <ele>374.0</ele>
        <time>2021-02-14T14:04:30Z</time>
      </trkpt>
      <trkpt lat="43.46476" lon="-5.5940857">
        <ele>374.0</ele>
        <time>2021-02-14T14:04:31Z</time>
      </trkpt>
      <trkpt lat="43.46476" lon="-5.5940895">
        <ele>374.0</ele>
        <time>2021-02-14T14:04:32Z</time>
      </trkpt>
      <trkpt lat="43.464764" lon="-5.594093">
        <ele>374.0</ele>
        <time>2021-02-14T14:04:33Z</time>
      </trkpt>
      <trkpt lat="43.46477" lon="-5.594102">
        <ele>374.0</ele>
        <time>2021-02-14T14:04:35Z</time>
      </trkpt>
      <trkpt lat="43.46477" lon="-5.594103">
        <ele>374.0</ele>
        <time>2021-02-14T14:04:36Z</time>
      </trkpt>
      <trkpt lat="43.46477" lon="-5.5941067">
        <ele>374.0</ele>
        <time>2021-02-14T14:04:37Z</time>
      </trkpt>
      <trkpt lat="43.464775" lon="-5.594112">
        <ele>374.0</ele>
        <time>2021-02-14T14:04:38Z</time>
      </trkpt>
      <trkpt lat="43.46478" lon="-5.5941176">
        <ele>374.0</ele>
        <time>2021-02-14T14:04:39Z</time>
      </trkpt>
      <trkpt lat="43.46479" lon="-5.594125">
        <ele>374.0</ele>
        <time>2021-02-14T14:04:40Z</time>
      </trkpt>
      <trkpt lat="43.4648" lon="-5.594126">
        <ele>373.0</ele>
        <time>2021-02-14T14:04:41Z</time>
      </trkpt>
      <trkpt lat="43.464813" lon="-5.5941286">
        <ele>373.0</ele>
        <time>2021-02-14T14:04:42Z</time>
      </trkpt>
      <trkpt lat="43.46482" lon="-5.594134">
        <ele>373.0</ele>
        <time>2021-02-14T14:04:43Z</time>
      </trkpt>
      <trkpt lat="43.464832" lon="-5.594138">
        <ele>373.0</ele>
        <time>2021-02-14T14:04:44Z</time>
      </trkpt>
      <trkpt lat="43.464844" lon="-5.5941434">
        <ele>373.0</ele>
        <time>2021-02-14T14:04:45Z</time>
      </trkpt>
      <trkpt lat="43.46485" lon="-5.594149">
        <ele>373.0</ele>
        <time>2021-02-14T14:04:46Z</time>
      </trkpt>
      <trkpt lat="43.46486" lon="-5.5941567">
        <ele>373.0</ele>
        <time>2021-02-14T14:04:47Z</time>
      </trkpt>
      <trkpt lat="43.464863" lon="-5.5941644">
        <ele>373.0</ele>
        <time>2021-02-14T14:04:48Z</time>
      </trkpt>
      <trkpt lat="43.464863" lon="-5.594172">
        <ele>373.0</ele>
        <time>2021-02-14T14:04:49Z</time>
      </trkpt>
      <trkpt lat="43.464867" lon="-5.5941815">
        <ele>373.0</ele>
        <time>2021-02-14T14:04:50Z</time>
      </trkpt>
      <trkpt lat="43.464878" lon="-5.5941954">
        <ele>373.0</ele>
        <time>2021-02-14T14:04:51Z</time>
      </trkpt>
      <trkpt lat="43.46488" lon="-5.594209">
        <ele>373.0</ele>
        <time>2021-02-14T14:04:52Z</time>
      </trkpt>
      <trkpt lat="43.46489" lon="-5.5942235">
        <ele>373.0</ele>
        <time>2021-02-14T14:04:53Z</time>
      </trkpt>
      <trkpt lat="43.464893" lon="-5.594237">
        <ele>373.0</ele>
        <time>2021-02-14T14:04:54Z</time>
      </trkpt>
      <trkpt lat="43.464893" lon="-5.5942497">
        <ele>373.0</ele>
        <time>2021-02-14T14:04:55Z</time>
      </trkpt>
      <trkpt lat="43.464893" lon="-5.5942626">
        <ele>373.0</ele>
        <time>2021-02-14T14:04:56Z</time>
      </trkpt>
      <trkpt lat="43.464897" lon="-5.594276">
        <ele>373.0</ele>
        <time>2021-02-14T14:04:57Z</time>
      </trkpt>
      <trkpt lat="43.464897" lon="-5.594288">
        <ele>373.0</ele>
        <time>2021-02-14T14:04:58Z</time>
      </trkpt>
      <trkpt lat="43.464905" lon="-5.5943003">
        <ele>373.0</ele>
        <time>2021-02-14T14:04:59Z</time>
      </trkpt>
      <trkpt lat="43.464905" lon="-5.5943117">
        <ele>373.0</ele>
        <time>2021-02-14T14:05:00Z</time>
      </trkpt>
      <trkpt lat="43.46491" lon="-5.5943213">
        <ele>373.0</ele>
        <time>2021-02-14T14:05:01Z</time>
      </trkpt>
      <trkpt lat="43.464912" lon="-5.594331">
        <ele>373.0</ele>
        <time>2021-02-14T14:05:02Z</time>
      </trkpt>
      <trkpt lat="43.46492" lon="-5.594342">
        <ele>373.0</ele>
        <time>2021-02-14T14:05:03Z</time>
      </trkpt>
      <trkpt lat="43.464924" lon="-5.594355">
        <ele>373.0</ele>
        <time>2021-02-14T14:05:04Z</time>
      </trkpt>
      <trkpt lat="43.464924" lon="-5.59437">
        <ele>373.0</ele>
        <time>2021-02-14T14:05:05Z</time>
      </trkpt>
      <trkpt lat="43.464928" lon="-5.594384">
        <ele>373.0</ele>
        <time>2021-02-14T14:05:06Z</time>
      </trkpt>
      <trkpt lat="43.464928" lon="-5.594398">
        <ele>373.0</ele>
        <time>2021-02-14T14:05:07Z</time>
      </trkpt>
      <trkpt lat="43.464928" lon="-5.594411">
        <ele>374.0</ele>
        <time>2021-02-14T14:05:08Z</time>
      </trkpt>
      <trkpt lat="43.464935" lon="-5.5944242">
        <ele>374.0</ele>
        <time>2021-02-14T14:05:09Z</time>
      </trkpt>
      <trkpt lat="43.464943" lon="-5.594435">
        <ele>374.0</ele>
        <time>2021-02-14T14:05:10Z</time>
      </trkpt>
      <trkpt lat="43.46495" lon="-5.5944467">
        <ele>374.0</ele>
        <time>2021-02-14T14:05:11Z</time>
      </trkpt>
      <trkpt lat="43.46496" lon="-5.594459">
        <ele>374.0</ele>
        <time>2021-02-14T14:05:12Z</time>
      </trkpt>
      <trkpt lat="43.464966" lon="-5.594475">
        <ele>374.0</ele>
        <time>2021-02-14T14:05:13Z</time>
      </trkpt>
      <trkpt lat="43.464977" lon="-5.59449">
        <ele>375.0</ele>
        <time>2021-02-14T14:05:14Z</time>
      </trkpt>
      <trkpt lat="43.46498" lon="-5.594506">
        <ele>375.0</ele>
        <time>2021-02-14T14:05:15Z</time>
      </trkpt>
      <trkpt lat="43.464993" lon="-5.59452">
        <ele>375.0</ele>
        <time>2021-02-14T14:05:16Z</time>
      </trkpt>
      <trkpt lat="43.465" lon="-5.594532">
        <ele>375.0</ele>
        <time>2021-02-14T14:05:17Z</time>
      </trkpt>
      <trkpt lat="43.46501" lon="-5.594542">
        <ele>375.0</ele>
        <time>2021-02-14T14:05:18Z</time>
      </trkpt>
      <trkpt lat="43.465015" lon="-5.594551">
        <ele>375.0</ele>
        <time>2021-02-14T14:05:19Z</time>
      </trkpt>
      <trkpt lat="43.465023" lon="-5.5945582">
        <ele>375.0</ele>
        <time>2021-02-14T14:05:20Z</time>
      </trkpt>
      <trkpt lat="43.465027" lon="-5.594564">
        <ele>376.0</ele>
        <time>2021-02-14T14:05:21Z</time>
      </trkpt>
      <trkpt lat="43.465027" lon="-5.5945697">
        <ele>376.0</ele>
        <time>2021-02-14T14:05:22Z</time>
      </trkpt>
      <trkpt lat="43.46503" lon="-5.5945754">
        <ele>376.0</ele>
        <time>2021-02-14T14:05:23Z</time>
      </trkpt>
      <trkpt lat="43.46504" lon="-5.5945816">
        <ele>376.0</ele>
        <time>2021-02-14T14:05:24Z</time>
      </trkpt>
      <trkpt lat="43.465042" lon="-5.59459">
        <ele>376.0</ele>
        <time>2021-02-14T14:05:25Z</time>
      </trkpt>
      <trkpt lat="43.465046" lon="-5.5945997">
        <ele>376.0</ele>
        <time>2021-02-14T14:05:26Z</time>
      </trkpt>
      <trkpt lat="43.465057" lon="-5.594611">
        <ele>376.0</ele>
        <time>2021-02-14T14:05:27Z</time>
      </trkpt>
      <trkpt lat="43.465057" lon="-5.5946245">
        <ele>376.0</ele>
        <time>2021-02-14T14:05:28Z</time>
      </trkpt>
      <trkpt lat="43.46506" lon="-5.594636">
        <ele>376.0</ele>
        <time>2021-02-14T14:05:29Z</time>
      </trkpt>
      <trkpt lat="43.46507" lon="-5.594649">
        <ele>376.0</ele>
        <time>2021-02-14T14:05:30Z</time>
      </trkpt>
      <trkpt lat="43.465073" lon="-5.5946603">
        <ele>376.0</ele>
        <time>2021-02-14T14:05:31Z</time>
      </trkpt>
      <trkpt lat="43.465084" lon="-5.5946693">
        <ele>376.0</ele>
        <time>2021-02-14T14:05:32Z</time>
      </trkpt>
      <trkpt lat="43.465088" lon="-5.594677">
        <ele>376.0</ele>
        <time>2021-02-14T14:05:33Z</time>
      </trkpt>
      <trkpt lat="43.4651" lon="-5.594684">
        <ele>377.0</ele>
        <time>2021-02-14T14:05:34Z</time>
      </trkpt>
      <trkpt lat="43.465107" lon="-5.594693">
        <ele>377.0</ele>
        <time>2021-02-14T14:05:35Z</time>
      </trkpt>
      <trkpt lat="43.465115" lon="-5.5947022">
        <ele>377.0</ele>
        <time>2021-02-14T14:05:36Z</time>
      </trkpt>
      <trkpt lat="43.46512" lon="-5.594711">
        <ele>377.0</ele>
        <time>2021-02-14T14:05:37Z</time>
      </trkpt>
      <trkpt lat="43.465122" lon="-5.5947213">
        <ele>377.0</ele>
        <time>2021-02-14T14:05:38Z</time>
      </trkpt>
      <trkpt lat="43.465134" lon="-5.594731">
        <ele>377.0</ele>
        <time>2021-02-14T14:05:39Z</time>
      </trkpt>
      <trkpt lat="43.465137" lon="-5.594742">
        <ele>377.0</ele>
        <time>2021-02-14T14:05:40Z</time>
      </trkpt>
      <trkpt lat="43.465145" lon="-5.594752">
        <ele>377.0</ele>
        <time>2021-02-14T14:05:41Z</time>
      </trkpt>
      <trkpt lat="43.465153" lon="-5.5947638">
        <ele>377.0</ele>
        <time>2021-02-14T14:05:42Z</time>
      </trkpt>
      <trkpt lat="43.46516" lon="-5.5947742">
        <ele>377.0</ele>
        <time>2021-02-14T14:05:43Z</time>
      </trkpt>
      <trkpt lat="43.465164" lon="-5.5947866">
        <ele>377.0</ele>
        <time>2021-02-14T14:05:44Z</time>
      </trkpt>
      <trkpt lat="43.465176" lon="-5.5947976">
        <ele>378.0</ele>
        <time>2021-02-14T14:05:45Z</time>
      </trkpt>
      <trkpt lat="43.46518" lon="-5.594806">
        <ele>378.0</ele>
        <time>2021-02-14T14:05:46Z</time>
      </trkpt>
      <trkpt lat="43.46519" lon="-5.594815">
        <ele>378.0</ele>
        <time>2021-02-14T14:05:47Z</time>
      </trkpt>
      <trkpt lat="43.465202" lon="-5.594823">
        <ele>378.0</ele>
        <time>2021-02-14T14:05:48Z</time>
      </trkpt>
      <trkpt lat="43.465206" lon="-5.594832">
        <ele>378.0</ele>
        <time>2021-02-14T14:05:49Z</time>
      </trkpt>
      <trkpt lat="43.46521" lon="-5.5948434">
        <ele>378.0</ele>
        <time>2021-02-14T14:05:50Z</time>
      </trkpt>
      <trkpt lat="43.465218" lon="-5.5948567">
        <ele>378.0</ele>
        <time>2021-02-14T14:05:51Z</time>
      </trkpt>
      <trkpt lat="43.46522" lon="-5.5948744">
        <ele>378.0</ele>
        <time>2021-02-14T14:05:52Z</time>
      </trkpt>
      <trkpt lat="43.46522" lon="-5.5948915">
        <ele>378.0</ele>
        <time>2021-02-14T14:05:53Z</time>
      </trkpt>
      <trkpt lat="43.465225" lon="-5.5949073">
        <ele>378.0</ele>
        <time>2021-02-14T14:05:54Z</time>
      </trkpt>
      <trkpt lat="43.465233" lon="-5.594922">
        <ele>378.0</ele>
        <time>2021-02-14T14:05:55Z</time>
      </trkpt>
      <trkpt lat="43.465237" lon="-5.594935">
        <ele>378.0</ele>
        <time>2021-02-14T14:05:56Z</time>
      </trkpt>
      <trkpt lat="43.46525" lon="-5.594946">
        <ele>378.0</ele>
        <time>2021-02-14T14:05:57Z</time>
      </trkpt>
      <trkpt lat="43.465252" lon="-5.594954">
        <ele>378.0</ele>
        <time>2021-02-14T14:05:58Z</time>
      </trkpt>
      <trkpt lat="43.465263" lon="-5.594961">
        <ele>378.0</ele>
        <time>2021-02-14T14:05:59Z</time>
      </trkpt>
      <trkpt lat="43.46527" lon="-5.594968">
        <ele>378.0</ele>
        <time>2021-02-14T14:06:00Z</time>
      </trkpt>
      <trkpt lat="43.46528" lon="-5.5949745">
        <ele>378.0</ele>
        <time>2021-02-14T14:06:01Z</time>
      </trkpt>
      <trkpt lat="43.465282" lon="-5.5949826">
        <ele>378.0</ele>
        <time>2021-02-14T14:06:02Z</time>
      </trkpt>
      <trkpt lat="43.465286" lon="-5.5949907">
        <ele>378.0</ele>
        <time>2021-02-14T14:06:03Z</time>
      </trkpt>
      <trkpt lat="43.465294" lon="-5.594999">
        <ele>378.0</ele>
        <time>2021-02-14T14:06:04Z</time>
      </trkpt>
      <trkpt lat="43.465298" lon="-5.5950093">
        <ele>378.0</ele>
        <time>2021-02-14T14:06:05Z</time>
      </trkpt>
      <trkpt lat="43.46531" lon="-5.5950184">
        <ele>378.0</ele>
        <time>2021-02-14T14:06:06Z</time>
      </trkpt>
      <trkpt lat="43.465317" lon="-5.5950265">
        <ele>378.0</ele>
        <time>2021-02-14T14:06:07Z</time>
      </trkpt>
      <trkpt lat="43.465324" lon="-5.595033">
        <ele>378.0</ele>
        <time>2021-02-14T14:06:08Z</time>
      </trkpt>
      <trkpt lat="43.465332" lon="-5.5950394">
        <ele>378.0</ele>
        <time>2021-02-14T14:06:09Z</time>
      </trkpt>
      <trkpt lat="43.465343" lon="-5.5950456">
        <ele>378.0</ele>
        <time>2021-02-14T14:06:10Z</time>
      </trkpt>
      <trkpt lat="43.465355" lon="-5.5950527">
        <ele>378.0</ele>
        <time>2021-02-14T14:06:11Z</time>
      </trkpt>
      <trkpt lat="43.465366" lon="-5.595062">
        <ele>378.0</ele>
        <time>2021-02-14T14:06:12Z</time>
      </trkpt>
      <trkpt lat="43.465374" lon="-5.5950713">
        <ele>378.0</ele>
        <time>2021-02-14T14:06:13Z</time>
      </trkpt>
      <trkpt lat="43.46539" lon="-5.595081">
        <ele>378.0</ele>
        <time>2021-02-14T14:06:14Z</time>
      </trkpt>
      <trkpt lat="43.4654" lon="-5.5950885">
        <ele>378.0</ele>
        <time>2021-02-14T14:06:15Z</time>
      </trkpt>
      <trkpt lat="43.465416" lon="-5.595098">
        <ele>378.0</ele>
        <time>2021-02-14T14:06:16Z</time>
      </trkpt>
      <trkpt lat="43.465427" lon="-5.595111">
        <ele>378.0</ele>
        <time>2021-02-14T14:06:17Z</time>
      </trkpt>
      <trkpt lat="43.465435" lon="-5.595125">
        <ele>378.0</ele>
        <time>2021-02-14T14:06:18Z</time>
      </trkpt>
      <trkpt lat="43.465443" lon="-5.595139">
        <ele>378.0</ele>
        <time>2021-02-14T14:06:19Z</time>
      </trkpt>
      <trkpt lat="43.46545" lon="-5.5951514">
        <ele>378.0</ele>
        <time>2021-02-14T14:06:20Z</time>
      </trkpt>
      <trkpt lat="43.46546" lon="-5.5951643">
        <ele>378.0</ele>
        <time>2021-02-14T14:06:21Z</time>
      </trkpt>
      <trkpt lat="43.465477" lon="-5.595174">
        <ele>378.0</ele>
        <time>2021-02-14T14:06:22Z</time>
      </trkpt>
      <trkpt lat="43.465492" lon="-5.59518">
        <ele>378.0</ele>
        <time>2021-02-14T14:06:23Z</time>
      </trkpt>
      <trkpt lat="43.465508" lon="-5.5951886">
        <ele>378.0</ele>
        <time>2021-02-14T14:06:24Z</time>
      </trkpt>
      <trkpt lat="43.465523" lon="-5.5951996">
        <ele>378.0</ele>
        <time>2021-02-14T14:06:25Z</time>
      </trkpt>
      <trkpt lat="43.465534" lon="-5.59521">
        <ele>378.0</ele>
        <time>2021-02-14T14:06:26Z</time>
      </trkpt>
      <trkpt lat="43.46554" lon="-5.5952196">
        <ele>378.0</ele>
        <time>2021-02-14T14:06:27Z</time>
      </trkpt>
      <trkpt lat="43.465553" lon="-5.59523">
        <ele>378.0</ele>
        <time>2021-02-14T14:06:28Z</time>
      </trkpt>
      <trkpt lat="43.465565" lon="-5.5952415">
        <ele>378.0</ele>
        <time>2021-02-14T14:06:29Z</time>
      </trkpt>
      <trkpt lat="43.465576" lon="-5.5952525">
        <ele>378.0</ele>
        <time>2021-02-14T14:06:30Z</time>
      </trkpt>
      <trkpt lat="43.465584" lon="-5.5952606">
        <ele>378.0</ele>
        <time>2021-02-14T14:06:31Z</time>
      </trkpt>
      <trkpt lat="43.4656" lon="-5.5952663">
        <ele>378.0</ele>
        <time>2021-02-14T14:06:32Z</time>
      </trkpt>
      <trkpt lat="43.46561" lon="-5.5952754">
        <ele>378.0</ele>
        <time>2021-02-14T14:06:33Z</time>
      </trkpt>
      <trkpt lat="43.465626" lon="-5.595285">
        <ele>378.0</ele>
        <time>2021-02-14T14:06:34Z</time>
      </trkpt>
      <trkpt lat="43.465637" lon="-5.595295">
        <ele>378.0</ele>
        <time>2021-02-14T14:06:35Z</time>
      </trkpt>
      <trkpt lat="43.465652" lon="-5.5953045">
        <ele>378.0</ele>
        <time>2021-02-14T14:06:36Z</time>
      </trkpt>
      <trkpt lat="43.465668" lon="-5.595313">
        <ele>378.0</ele>
        <time>2021-02-14T14:06:37Z</time>
      </trkpt>
      <trkpt lat="43.465683" lon="-5.595328">
        <ele>378.0</ele>
        <time>2021-02-14T14:06:38Z</time>
      </trkpt>
      <trkpt lat="43.46569" lon="-5.5953436">
        <ele>378.0</ele>
        <time>2021-02-14T14:06:39Z</time>
      </trkpt>
      <trkpt lat="43.465702" lon="-5.595359">
        <ele>378.0</ele>
        <time>2021-02-14T14:06:40Z</time>
      </trkpt>
      <trkpt lat="43.465714" lon="-5.5953736">
        <ele>378.0</ele>
        <time>2021-02-14T14:06:41Z</time>
      </trkpt>
      <trkpt lat="43.46572" lon="-5.595387">
        <ele>378.0</ele>
        <time>2021-02-14T14:06:42Z</time>
      </trkpt>
      <trkpt lat="43.46572" lon="-5.595399">
        <ele>378.0</ele>
        <time>2021-02-14T14:06:43Z</time>
      </trkpt>
      <trkpt lat="43.46573" lon="-5.595412">
        <ele>378.0</ele>
        <time>2021-02-14T14:06:44Z</time>
      </trkpt>
      <trkpt lat="43.465733" lon="-5.5954227">
        <ele>378.0</ele>
        <time>2021-02-14T14:06:45Z</time>
      </trkpt>
      <trkpt lat="43.465736" lon="-5.5954356">
        <ele>378.0</ele>
        <time>2021-02-14T14:06:46Z</time>
      </trkpt>
      <trkpt lat="43.465744" lon="-5.595449">
        <ele>378.0</ele>
        <time>2021-02-14T14:06:47Z</time>
      </trkpt>
      <trkpt lat="43.465755" lon="-5.59546">
        <ele>377.0</ele>
        <time>2021-02-14T14:06:48Z</time>
      </trkpt>
      <trkpt lat="43.46576" lon="-5.5954695">
        <ele>377.0</ele>
        <time>2021-02-14T14:06:49Z</time>
      </trkpt>
      <trkpt lat="43.46577" lon="-5.5954766">
        <ele>377.0</ele>
        <time>2021-02-14T14:06:50Z</time>
      </trkpt>
      <trkpt lat="43.46578" lon="-5.5954814">
        <ele>377.0</ele>
        <time>2021-02-14T14:06:51Z</time>
      </trkpt>
      <trkpt lat="43.465794" lon="-5.595488">
        <ele>377.0</ele>
        <time>2021-02-14T14:06:52Z</time>
      </trkpt>
      <trkpt lat="43.46581" lon="-5.5954976">
        <ele>377.0</ele>
        <time>2021-02-14T14:06:53Z</time>
      </trkpt>
      <trkpt lat="43.46582" lon="-5.5955057">
        <ele>377.0</ele>
        <time>2021-02-14T14:06:54Z</time>
      </trkpt>
      <trkpt lat="43.46583" lon="-5.595512">
        <ele>377.0</ele>
        <time>2021-02-14T14:06:55Z</time>
      </trkpt>
      <trkpt lat="43.46584" lon="-5.5955167">
        <ele>377.0</ele>
        <time>2021-02-14T14:06:56Z</time>
      </trkpt>
      <trkpt lat="43.46585" lon="-5.5955224">
        <ele>377.0</ele>
        <time>2021-02-14T14:06:57Z</time>
      </trkpt>
      <trkpt lat="43.465866" lon="-5.5955276">
        <ele>377.0</ele>
        <time>2021-02-14T14:06:58Z</time>
      </trkpt>
      <trkpt lat="43.465878" lon="-5.595535">
        <ele>377.0</ele>
        <time>2021-02-14T14:06:59Z</time>
      </trkpt>
      <trkpt lat="43.465893" lon="-5.5955424">
        <ele>376.0</ele>
        <time>2021-02-14T14:07:00Z</time>
      </trkpt>
      <trkpt lat="43.4659" lon="-5.595552">
        <ele>376.0</ele>
        <time>2021-02-14T14:07:01Z</time>
      </trkpt>
      <trkpt lat="43.465916" lon="-5.5955625">
        <ele>376.0</ele>
        <time>2021-02-14T14:07:02Z</time>
      </trkpt>
      <trkpt lat="43.46593" lon="-5.595573">
        <ele>376.0</ele>
        <time>2021-02-14T14:07:03Z</time>
      </trkpt>
      <trkpt lat="43.46595" lon="-5.595587">
        <ele>376.0</ele>
        <time>2021-02-14T14:07:04Z</time>
      </trkpt>
      <trkpt lat="43.465958" lon="-5.5956">
        <ele>376.0</ele>
        <time>2021-02-14T14:07:05Z</time>
      </trkpt>
      <trkpt lat="43.46597" lon="-5.595611">
        <ele>376.0</ele>
        <time>2021-02-14T14:07:06Z</time>
      </trkpt>
      <trkpt lat="43.46598" lon="-5.595621">
        <ele>376.0</ele>
        <time>2021-02-14T14:07:07Z</time>
      </trkpt>
      <trkpt lat="43.46599" lon="-5.595631">
        <ele>376.0</ele>
        <time>2021-02-14T14:07:08Z</time>
      </trkpt>
      <trkpt lat="43.466" lon="-5.5956416">
        <ele>376.0</ele>
        <time>2021-02-14T14:07:09Z</time>
      </trkpt>
      <trkpt lat="43.46601" lon="-5.5956526">
        <ele>376.0</ele>
        <time>2021-02-14T14:07:10Z</time>
      </trkpt>
      <trkpt lat="43.466015" lon="-5.5956693">
        <ele>376.0</ele>
        <time>2021-02-14T14:07:11Z</time>
      </trkpt>
      <trkpt lat="43.46602" lon="-5.5956845">
        <ele>376.0</ele>
        <time>2021-02-14T14:07:12Z</time>
      </trkpt>
      <trkpt lat="43.466026" lon="-5.595698">
        <ele>376.0</ele>
        <time>2021-02-14T14:07:13Z</time>
      </trkpt>
      <trkpt lat="43.46603" lon="-5.595712">
        <ele>376.0</ele>
        <time>2021-02-14T14:07:14Z</time>
      </trkpt>
      <trkpt lat="43.466034" lon="-5.595726">
        <ele>376.0</ele>
        <time>2021-02-14T14:07:15Z</time>
      </trkpt>
      <trkpt lat="43.46604" lon="-5.5957403">
        <ele>375.0</ele>
        <time>2021-02-14T14:07:16Z</time>
      </trkpt>
      <trkpt lat="43.466045" lon="-5.595756">
        <ele>375.0</ele>
        <time>2021-02-14T14:07:17Z</time>
      </trkpt>
      <trkpt lat="43.46605" lon="-5.5957713">
        <ele>375.0</ele>
        <time>2021-02-14T14:07:18Z</time>
      </trkpt>
      <trkpt lat="43.46605" lon="-5.595784">
        <ele>375.0</ele>
        <time>2021-02-14T14:07:19Z</time>
      </trkpt>
      <trkpt lat="43.466057" lon="-5.5957937">
        <ele>375.0</ele>
        <time>2021-02-14T14:07:20Z</time>
      </trkpt>
      <trkpt lat="43.466057" lon="-5.595803">
        <ele>375.0</ele>
        <time>2021-02-14T14:07:21Z</time>
      </trkpt>
      <trkpt lat="43.46606" lon="-5.5958104">
        <ele>375.0</ele>
        <time>2021-02-14T14:07:22Z</time>
      </trkpt>
      <trkpt lat="43.466064" lon="-5.5958195">
        <ele>375.0</ele>
        <time>2021-02-14T14:07:23Z</time>
      </trkpt>
      <trkpt lat="43.466072" lon="-5.5958304">
        <ele>374.0</ele>
        <time>2021-02-14T14:07:24Z</time>
      </trkpt>
      <trkpt lat="43.466076" lon="-5.5958405">
        <ele>374.0</ele>
        <time>2021-02-14T14:07:25Z</time>
      </trkpt>
      <trkpt lat="43.466087" lon="-5.5958505">
        <ele>374.0</ele>
        <time>2021-02-14T14:07:26Z</time>
      </trkpt>
      <trkpt lat="43.46609" lon="-5.59586">
        <ele>374.0</ele>
        <time>2021-02-14T14:07:27Z</time>
      </trkpt>
      <trkpt lat="43.466103" lon="-5.5958714">
        <ele>374.0</ele>
        <time>2021-02-14T14:07:28Z</time>
      </trkpt>
      <trkpt lat="43.466106" lon="-5.595883">
        <ele>374.0</ele>
        <time>2021-02-14T14:07:29Z</time>
      </trkpt>
      <trkpt lat="43.46611" lon="-5.595895">
        <ele>373.0</ele>
        <time>2021-02-14T14:07:30Z</time>
      </trkpt>
      <trkpt lat="43.466118" lon="-5.5959067">
        <ele>373.0</ele>
        <time>2021-02-14T14:07:31Z</time>
      </trkpt>
      <trkpt lat="43.46612" lon="-5.595917">
        <ele>373.0</ele>
        <time>2021-02-14T14:07:32Z</time>
      </trkpt>
      <trkpt lat="43.466133" lon="-5.5959272">
        <ele>373.0</ele>
        <time>2021-02-14T14:07:33Z</time>
      </trkpt>
      <trkpt lat="43.466137" lon="-5.5959353">
        <ele>373.0</ele>
        <time>2021-02-14T14:07:34Z</time>
      </trkpt>
      <trkpt lat="43.466145" lon="-5.5959406">
        <ele>373.0</ele>
        <time>2021-02-14T14:07:35Z</time>
      </trkpt>
      <trkpt lat="43.466152" lon="-5.5959444">
        <ele>373.0</ele>
        <time>2021-02-14T14:07:36Z</time>
      </trkpt>
      <trkpt lat="43.46616" lon="-5.5959487">
        <ele>373.0</ele>
        <time>2021-02-14T14:07:37Z</time>
      </trkpt>
      <trkpt lat="43.466167" lon="-5.5959544">
        <ele>373.0</ele>
        <time>2021-02-14T14:07:38Z</time>
      </trkpt>
      <trkpt lat="43.466175" lon="-5.595962">
        <ele>373.0</ele>
        <time>2021-02-14T14:07:39Z</time>
      </trkpt>
      <trkpt lat="43.46618" lon="-5.595974">
        <ele>373.0</ele>
        <time>2021-02-14T14:07:40Z</time>
      </trkpt>
      <trkpt lat="43.466183" lon="-5.5959873">
        <ele>373.0</ele>
        <time>2021-02-14T14:07:41Z</time>
      </trkpt>
      <trkpt lat="43.46619" lon="-5.596002">
        <ele>373.0</ele>
        <time>2021-02-14T14:07:42Z</time>
      </trkpt>
      <trkpt lat="43.466194" lon="-5.5960164">
        <ele>372.0</ele>
        <time>2021-02-14T14:07:43Z</time>
      </trkpt>
      <trkpt lat="43.466198" lon="-5.59603">
        <ele>372.0</ele>
        <time>2021-02-14T14:07:44Z</time>
      </trkpt>
      <trkpt lat="43.466206" lon="-5.596044">
        <ele>372.0</ele>
        <time>2021-02-14T14:07:45Z</time>
      </trkpt>
      <trkpt lat="43.46621" lon="-5.596057">
        <ele>372.0</ele>
        <time>2021-02-14T14:07:46Z</time>
      </trkpt>
      <trkpt lat="43.466213" lon="-5.5960674">
        <ele>371.0</ele>
        <time>2021-02-14T14:07:47Z</time>
      </trkpt>
      <trkpt lat="43.466225" lon="-5.596073">
        <ele>371.0</ele>
        <time>2021-02-14T14:07:48Z</time>
      </trkpt>
      <trkpt lat="43.46623" lon="-5.596079">
        <ele>371.0</ele>
        <time>2021-02-14T14:07:49Z</time>
      </trkpt>
      <trkpt lat="43.46624" lon="-5.5960855">
        <ele>371.0</ele>
        <time>2021-02-14T14:07:50Z</time>
      </trkpt>
      <trkpt lat="43.466244" lon="-5.596094">
        <ele>371.0</ele>
        <time>2021-02-14T14:07:51Z</time>
      </trkpt>
      <trkpt lat="43.466255" lon="-5.596102">
        <ele>370.0</ele>
        <time>2021-02-14T14:07:52Z</time>
      </trkpt>
      <trkpt lat="43.46626" lon="-5.59611">
        <ele>370.0</ele>
        <time>2021-02-14T14:07:53Z</time>
      </trkpt>
      <trkpt lat="43.46627" lon="-5.596118">
        <ele>370.0</ele>
        <time>2021-02-14T14:07:54Z</time>
      </trkpt>
      <trkpt lat="43.466274" lon="-5.5961285">
        <ele>370.0</ele>
        <time>2021-02-14T14:07:55Z</time>
      </trkpt>
      <trkpt lat="43.46628" lon="-5.596141">
        <ele>370.0</ele>
        <time>2021-02-14T14:07:56Z</time>
      </trkpt>
      <trkpt lat="43.466286" lon="-5.5961547">
        <ele>369.0</ele>
        <time>2021-02-14T14:07:57Z</time>
      </trkpt>
      <trkpt lat="43.46629" lon="-5.596169">
        <ele>369.0</ele>
        <time>2021-02-14T14:07:58Z</time>
      </trkpt>
      <trkpt lat="43.466297" lon="-5.5961823">
        <ele>369.0</ele>
        <time>2021-02-14T14:07:59Z</time>
      </trkpt>
      <trkpt lat="43.4663" lon="-5.5961967">
        <ele>369.0</ele>
        <time>2021-02-14T14:08:00Z</time>
      </trkpt>
      <trkpt lat="43.466305" lon="-5.5962124">
        <ele>369.0</ele>
        <time>2021-02-14T14:08:01Z</time>
      </trkpt>
      <trkpt lat="43.466316" lon="-5.596227">
        <ele>368.0</ele>
        <time>2021-02-14T14:08:02Z</time>
      </trkpt>
      <trkpt lat="43.466316" lon="-5.5962424">
        <ele>368.0</ele>
        <time>2021-02-14T14:08:03Z</time>
      </trkpt>
      <trkpt lat="43.46632" lon="-5.596259">
        <ele>368.0</ele>
        <time>2021-02-14T14:08:04Z</time>
      </trkpt>
      <trkpt lat="43.466328" lon="-5.5962753">
        <ele>368.0</ele>
        <time>2021-02-14T14:08:05Z</time>
      </trkpt>
      <trkpt lat="43.46633" lon="-5.59629">
        <ele>368.0</ele>
        <time>2021-02-14T14:08:06Z</time>
      </trkpt>
      <trkpt lat="43.46634" lon="-5.5963006">
        <ele>368.0</ele>
        <time>2021-02-14T14:08:07Z</time>
      </trkpt>
      <trkpt lat="43.466347" lon="-5.596311">
        <ele>368.0</ele>
        <time>2021-02-14T14:08:08Z</time>
      </trkpt>
      <trkpt lat="43.46636" lon="-5.596319">
        <ele>368.0</ele>
        <time>2021-02-14T14:08:09Z</time>
      </trkpt>
      <trkpt lat="43.466362" lon="-5.5963283">
        <ele>368.0</ele>
        <time>2021-02-14T14:08:10Z</time>
      </trkpt>
      <trkpt lat="43.46637" lon="-5.596337">
        <ele>368.0</ele>
        <time>2021-02-14T14:08:10Z</time>
      </trkpt>
      <trkpt lat="43.466373" lon="-5.596345">
        <ele>367.0</ele>
        <time>2021-02-14T14:08:11Z</time>
      </trkpt>
      <trkpt lat="43.46639" lon="-5.5963798">
        <ele>367.0</ele>
        <time>2021-02-14T14:08:13Z</time>
      </trkpt>
      <trkpt lat="43.466393" lon="-5.5963826">
        <ele>367.0</ele>
        <time>2021-02-14T14:08:14Z</time>
      </trkpt>
      <trkpt lat="43.466393" lon="-5.5963893">
        <ele>367.0</ele>
        <time>2021-02-14T14:08:15Z</time>
      </trkpt>
      <trkpt lat="43.4664" lon="-5.5963974">
        <ele>367.0</ele>
        <time>2021-02-14T14:08:16Z</time>
      </trkpt>
      <trkpt lat="43.466404" lon="-5.596409">
        <ele>366.0</ele>
        <time>2021-02-14T14:08:17Z</time>
      </trkpt>
      <trkpt lat="43.466404" lon="-5.596423">
        <ele>366.0</ele>
        <time>2021-02-14T14:08:18Z</time>
      </trkpt>
      <trkpt lat="43.466404" lon="-5.5964384">
        <ele>366.0</ele>
        <time>2021-02-14T14:08:19Z</time>
      </trkpt>
      <trkpt lat="43.466408" lon="-5.59645">
        <ele>366.0</ele>
        <time>2021-02-14T14:08:20Z</time>
      </trkpt>
      <trkpt lat="43.466415" lon="-5.596459">
        <ele>366.0</ele>
        <time>2021-02-14T14:08:21Z</time>
      </trkpt>
      <trkpt lat="43.466423" lon="-5.5964684">
        <ele>365.0</ele>
        <time>2021-02-14T14:08:22Z</time>
      </trkpt>
      <trkpt lat="43.466434" lon="-5.5964756">
        <ele>365.0</ele>
        <time>2021-02-14T14:08:23Z</time>
      </trkpt>
      <trkpt lat="43.46644" lon="-5.5964794">
        <ele>365.0</ele>
        <time>2021-02-14T14:08:24Z</time>
      </trkpt>
      <trkpt lat="43.466446" lon="-5.5964828">
        <ele>365.0</ele>
        <time>2021-02-14T14:08:25Z</time>
      </trkpt>
      <trkpt lat="43.46645" lon="-5.5964885">
        <ele>365.0</ele>
        <time>2021-02-14T14:08:26Z</time>
      </trkpt>
      <trkpt lat="43.466454" lon="-5.596495">
        <ele>364.0</ele>
        <time>2021-02-14T14:08:27Z</time>
      </trkpt>
      <trkpt lat="43.46646" lon="-5.5965023">
        <ele>364.0</ele>
        <time>2021-02-14T14:08:28Z</time>
      </trkpt>
      <trkpt lat="43.466465" lon="-5.5965114">
        <ele>364.0</ele>
        <time>2021-02-14T14:08:29Z</time>
      </trkpt>
      <trkpt lat="43.466465" lon="-5.596519">
        <ele>364.0</ele>
        <time>2021-02-14T14:08:30Z</time>
      </trkpt>
      <trkpt lat="43.46647" lon="-5.5965276">
        <ele>364.0</ele>
        <time>2021-02-14T14:08:31Z</time>
      </trkpt>
      <trkpt lat="43.46647" lon="-5.596537">
        <ele>363.0</ele>
        <time>2021-02-14T14:08:32Z</time>
      </trkpt>
      <trkpt lat="43.466476" lon="-5.5965505">
        <ele>363.0</ele>
        <time>2021-02-14T14:08:33Z</time>
      </trkpt>
      <trkpt lat="43.46648" lon="-5.5965657">
        <ele>363.0</ele>
        <time>2021-02-14T14:08:34Z</time>
      </trkpt>
      <trkpt lat="43.466484" lon="-5.596579">
        <ele>363.0</ele>
        <time>2021-02-14T14:08:35Z</time>
      </trkpt>
      <trkpt lat="43.46649" lon="-5.596594">
        <ele>362.0</ele>
        <time>2021-02-14T14:08:36Z</time>
      </trkpt>
      <trkpt lat="43.4665" lon="-5.596607">
        <ele>362.0</ele>
        <time>2021-02-14T14:08:37Z</time>
      </trkpt>
      <trkpt lat="43.466507" lon="-5.5966187">
        <ele>362.0</ele>
        <time>2021-02-14T14:08:38Z</time>
      </trkpt>
      <trkpt lat="43.46651" lon="-5.596631">
        <ele>362.0</ele>
        <time>2021-02-14T14:08:39Z</time>
      </trkpt>
      <trkpt lat="43.466515" lon="-5.596644">
        <ele>362.0</ele>
        <time>2021-02-14T14:08:40Z</time>
      </trkpt>
      <trkpt lat="43.466522" lon="-5.5966587">
        <ele>361.0</ele>
        <time>2021-02-14T14:08:41Z</time>
      </trkpt>
      <trkpt lat="43.466526" lon="-5.5966735">
        <ele>361.0</ele>
        <time>2021-02-14T14:08:42Z</time>
      </trkpt>
      <trkpt lat="43.466526" lon="-5.5966907">
        <ele>361.0</ele>
        <time>2021-02-14T14:08:43Z</time>
      </trkpt>
      <trkpt lat="43.466534" lon="-5.5967064">
        <ele>361.0</ele>
        <time>2021-02-14T14:08:44Z</time>
      </trkpt>
      <trkpt lat="43.46654" lon="-5.5967193">
        <ele>361.0</ele>
        <time>2021-02-14T14:08:45Z</time>
      </trkpt>
      <trkpt lat="43.46655" lon="-5.5967283">
        <ele>361.0</ele>
        <time>2021-02-14T14:08:46Z</time>
      </trkpt>
      <trkpt lat="43.466553" lon="-5.5967355">
        <ele>361.0</ele>
        <time>2021-02-14T14:08:47Z</time>
      </trkpt>
      <trkpt lat="43.466557" lon="-5.596743">
        <ele>361.0</ele>
        <time>2021-02-14T14:08:48Z</time>
      </trkpt>
      <trkpt lat="43.466564" lon="-5.5967503">
        <ele>360.0</ele>
        <time>2021-02-14T14:08:49Z</time>
      </trkpt>
      <trkpt lat="43.466568" lon="-5.596759">
        <ele>360.0</ele>
        <time>2021-02-14T14:08:50Z</time>
      </trkpt>
      <trkpt lat="43.466568" lon="-5.5967674">
        <ele>360.0</ele>
        <time>2021-02-14T14:08:51Z</time>
      </trkpt>
      <trkpt lat="43.46657" lon="-5.596777">
        <ele>360.0</ele>
        <time>2021-02-14T14:08:52Z</time>
      </trkpt>
      <trkpt lat="43.46658" lon="-5.596787">
        <ele>359.0</ele>
        <time>2021-02-14T14:08:53Z</time>
      </trkpt>
      <trkpt lat="43.466583" lon="-5.596798">
        <ele>359.0</ele>
        <time>2021-02-14T14:08:54Z</time>
      </trkpt>
      <trkpt lat="43.466587" lon="-5.5968075">
        <ele>359.0</ele>
        <time>2021-02-14T14:08:55Z</time>
      </trkpt>
      <trkpt lat="43.466595" lon="-5.596818">
        <ele>359.0</ele>
        <time>2021-02-14T14:08:56Z</time>
      </trkpt>
      <trkpt lat="43.4666" lon="-5.596829">
        <ele>358.0</ele>
        <time>2021-02-14T14:08:57Z</time>
      </trkpt>
      <trkpt lat="43.466602" lon="-5.596841">
        <ele>358.0</ele>
        <time>2021-02-14T14:08:58Z</time>
      </trkpt>
      <trkpt lat="43.46661" lon="-5.5968533">
        <ele>358.0</ele>
        <time>2021-02-14T14:08:59Z</time>
      </trkpt>
      <trkpt lat="43.466614" lon="-5.5968647">
        <ele>358.0</ele>
        <time>2021-02-14T14:09:00Z</time>
      </trkpt>
      <trkpt lat="43.466618" lon="-5.596873">
        <ele>358.0</ele>
        <time>2021-02-14T14:09:01Z</time>
      </trkpt>
      <trkpt lat="43.46663" lon="-5.5968814">
        <ele>357.0</ele>
        <time>2021-02-14T14:09:02Z</time>
      </trkpt>
      <trkpt lat="43.466633" lon="-5.5968904">
        <ele>357.0</ele>
        <time>2021-02-14T14:09:03Z</time>
      </trkpt>
      <trkpt lat="43.46664" lon="-5.596898">
        <ele>357.0</ele>
        <time>2021-02-14T14:09:04Z</time>
      </trkpt>
      <trkpt lat="43.46665" lon="-5.5969057">
        <ele>357.0</ele>
        <time>2021-02-14T14:09:05Z</time>
      </trkpt>
      <trkpt lat="43.466656" lon="-5.596915">
        <ele>356.0</ele>
        <time>2021-02-14T14:09:06Z</time>
      </trkpt>
      <trkpt lat="43.466663" lon="-5.596923">
        <ele>356.0</ele>
        <time>2021-02-14T14:09:07Z</time>
      </trkpt>
      <trkpt lat="43.46667" lon="-5.596931">
        <ele>356.0</ele>
        <time>2021-02-14T14:09:08Z</time>
      </trkpt>
      <trkpt lat="43.466675" lon="-5.596938">
        <ele>356.0</ele>
        <time>2021-02-14T14:09:09Z</time>
      </trkpt>
      <trkpt lat="43.46668" lon="-5.5969477">
        <ele>356.0</ele>
        <time>2021-02-14T14:09:10Z</time>
      </trkpt>
      <trkpt lat="43.466686" lon="-5.596957">
        <ele>355.0</ele>
        <time>2021-02-14T14:09:11Z</time>
      </trkpt>
      <trkpt lat="43.46669" lon="-5.596966">
        <ele>355.0</ele>
        <time>2021-02-14T14:09:12Z</time>
      </trkpt>
      <trkpt lat="43.46669" lon="-5.5969734">
        <ele>355.0</ele>
        <time>2021-02-14T14:09:13Z</time>
      </trkpt>
      <trkpt lat="43.466694" lon="-5.596983">
        <ele>355.0</ele>
        <time>2021-02-14T14:09:14Z</time>
      </trkpt>
      <trkpt lat="43.466694" lon="-5.596992">
        <ele>355.0</ele>
        <time>2021-02-14T14:09:15Z</time>
      </trkpt>
      <trkpt lat="43.466694" lon="-5.597">
        <ele>355.0</ele>
        <time>2021-02-14T14:09:16Z</time>
      </trkpt>
      <trkpt lat="43.4667" lon="-5.5970125">
        <ele>355.0</ele>
        <time>2021-02-14T14:09:17Z</time>
      </trkpt>
      <trkpt lat="43.46671" lon="-5.5970254">
        <ele>355.0</ele>
        <time>2021-02-14T14:09:18Z</time>
      </trkpt>
      <trkpt lat="43.466717" lon="-5.59704">
        <ele>355.0</ele>
        <time>2021-02-14T14:09:19Z</time>
      </trkpt>
      <trkpt lat="43.46672" lon="-5.597055">
        <ele>355.0</ele>
        <time>2021-02-14T14:09:20Z</time>
      </trkpt>
      <trkpt lat="43.46673" lon="-5.5970693">
        <ele>354.0</ele>
        <time>2021-02-14T14:09:21Z</time>
      </trkpt>
      <trkpt lat="43.466732" lon="-5.597085">
        <ele>354.0</ele>
        <time>2021-02-14T14:09:22Z</time>
      </trkpt>
      <trkpt lat="43.466736" lon="-5.5970955">
        <ele>354.0</ele>
        <time>2021-02-14T14:09:23Z</time>
      </trkpt>
      <trkpt lat="43.466743" lon="-5.5971074">
        <ele>354.0</ele>
        <time>2021-02-14T14:09:24Z</time>
      </trkpt>
      <trkpt lat="43.46675" lon="-5.597118">
        <ele>354.0</ele>
        <time>2021-02-14T14:09:25Z</time>
      </trkpt>
      <trkpt lat="43.46676" lon="-5.597129">
        <ele>353.0</ele>
        <time>2021-02-14T14:09:26Z</time>
      </trkpt>
      <trkpt lat="43.466766" lon="-5.597142">
        <ele>353.0</ele>
        <time>2021-02-14T14:09:27Z</time>
      </trkpt>
      <trkpt lat="43.466774" lon="-5.597159">
        <ele>353.0</ele>
        <time>2021-02-14T14:09:28Z</time>
      </trkpt>
      <trkpt lat="43.46678" lon="-5.597173">
        <ele>353.0</ele>
        <time>2021-02-14T14:09:29Z</time>
      </trkpt>
      <trkpt lat="43.46679" lon="-5.5971885">
        <ele>353.0</ele>
        <time>2021-02-14T14:09:30Z</time>
      </trkpt>
      <trkpt lat="43.466793" lon="-5.5972047">
        <ele>352.0</ele>
        <time>2021-02-14T14:09:31Z</time>
      </trkpt>
      <trkpt lat="43.466793" lon="-5.5972204">
        <ele>352.0</ele>
        <time>2021-02-14T14:09:32Z</time>
      </trkpt>
      <trkpt lat="43.466793" lon="-5.5972347">
        <ele>352.0</ele>
        <time>2021-02-14T14:09:33Z</time>
      </trkpt>
      <trkpt lat="43.466797" lon="-5.597252">
        <ele>352.0</ele>
        <time>2021-02-14T14:09:34Z</time>
      </trkpt>
      <trkpt lat="43.466797" lon="-5.5972676">
        <ele>352.0</ele>
        <time>2021-02-14T14:09:35Z</time>
      </trkpt>
      <trkpt lat="43.466797" lon="-5.5972834">
        <ele>352.0</ele>
        <time>2021-02-14T14:09:36Z</time>
      </trkpt>
      <trkpt lat="43.466797" lon="-5.597301">
        <ele>351.0</ele>
        <time>2021-02-14T14:09:37Z</time>
      </trkpt>
      <trkpt lat="43.466805" lon="-5.5973163">
        <ele>351.0</ele>
        <time>2021-02-14T14:09:38Z</time>
      </trkpt>
      <trkpt lat="43.466805" lon="-5.597328">
        <ele>351.0</ele>
        <time>2021-02-14T14:09:39Z</time>
      </trkpt>
      <trkpt lat="43.46681" lon="-5.59734">
        <ele>351.0</ele>
        <time>2021-02-14T14:09:40Z</time>
      </trkpt>
      <trkpt lat="43.466812" lon="-5.597353">
        <ele>351.0</ele>
        <time>2021-02-14T14:09:41Z</time>
      </trkpt>
      <trkpt lat="43.46682" lon="-5.597365">
        <ele>351.0</ele>
        <time>2021-02-14T14:09:42Z</time>
      </trkpt>
      <trkpt lat="43.466824" lon="-5.5973787">
        <ele>350.0</ele>
        <time>2021-02-14T14:09:43Z</time>
      </trkpt>
      <trkpt lat="43.466835" lon="-5.5973907">
        <ele>350.0</ele>
        <time>2021-02-14T14:09:44Z</time>
      </trkpt>
      <trkpt lat="43.466835" lon="-5.5974016">
        <ele>350.0</ele>
        <time>2021-02-14T14:09:45Z</time>
      </trkpt>
      <trkpt lat="43.46684" lon="-5.597411">
        <ele>350.0</ele>
        <time>2021-02-14T14:09:46Z</time>
      </trkpt>
      <trkpt lat="43.46684" lon="-5.5974207">
        <ele>350.0</ele>
        <time>2021-02-14T14:09:47Z</time>
      </trkpt>
      <trkpt lat="43.46684" lon="-5.5974298">
        <ele>350.0</ele>
        <time>2021-02-14T14:09:48Z</time>
      </trkpt>
      <trkpt lat="43.466843" lon="-5.597437">
        <ele>350.0</ele>
        <time>2021-02-14T14:09:49Z</time>
      </trkpt>
      <trkpt lat="43.46685" lon="-5.597445">
        <ele>350.0</ele>
        <time>2021-02-14T14:09:50Z</time>
      </trkpt>
      <trkpt lat="43.466854" lon="-5.597456">
        <ele>350.0</ele>
        <time>2021-02-14T14:09:51Z</time>
      </trkpt>
      <trkpt lat="43.466858" lon="-5.5974693">
        <ele>349.0</ele>
        <time>2021-02-14T14:09:52Z</time>
      </trkpt>
      <trkpt lat="43.466866" lon="-5.5974855">
        <ele>349.0</ele>
        <time>2021-02-14T14:09:53Z</time>
      </trkpt>
      <trkpt lat="43.46687" lon="-5.597502">
        <ele>349.0</ele>
        <time>2021-02-14T14:09:54Z</time>
      </trkpt>
      <trkpt lat="43.466873" lon="-5.5975175">
        <ele>349.0</ele>
        <time>2021-02-14T14:09:55Z</time>
      </trkpt>
      <trkpt lat="43.46688" lon="-5.597533">
        <ele>348.0</ele>
        <time>2021-02-14T14:09:56Z</time>
      </trkpt>
      <trkpt lat="43.466885" lon="-5.5975494">
        <ele>348.0</ele>
        <time>2021-02-14T14:09:57Z</time>
      </trkpt>
      <trkpt lat="43.466885" lon="-5.5975647">
        <ele>348.0</ele>
        <time>2021-02-14T14:09:58Z</time>
      </trkpt>
      <trkpt lat="43.46689" lon="-5.5975776">
        <ele>347.0</ele>
        <time>2021-02-14T14:09:59Z</time>
      </trkpt>
      <trkpt lat="43.466896" lon="-5.5975904">
        <ele>347.0</ele>
        <time>2021-02-14T14:10:00Z</time>
      </trkpt>
      <trkpt lat="43.4669" lon="-5.5976057">
        <ele>347.0</ele>
        <time>2021-02-14T14:10:01Z</time>
      </trkpt>
      <trkpt lat="43.46691" lon="-5.5976224">
        <ele>347.0</ele>
        <time>2021-02-14T14:10:02Z</time>
      </trkpt>
      <trkpt lat="43.466915" lon="-5.5976405">
        <ele>346.0</ele>
        <time>2021-02-14T14:10:03Z</time>
      </trkpt>
      <trkpt lat="43.466927" lon="-5.597654">
        <ele>346.0</ele>
        <time>2021-02-14T14:10:04Z</time>
      </trkpt>
      <trkpt lat="43.466927" lon="-5.597667">
        <ele>346.0</ele>
        <time>2021-02-14T14:10:05Z</time>
      </trkpt>
      <trkpt lat="43.466927" lon="-5.597678">
        <ele>346.0</ele>
        <time>2021-02-14T14:10:06Z</time>
      </trkpt>
      <trkpt lat="43.466923" lon="-5.597688">
        <ele>345.0</ele>
        <time>2021-02-14T14:10:07Z</time>
      </trkpt>
      <trkpt lat="43.466923" lon="-5.5976973">
        <ele>345.0</ele>
        <time>2021-02-14T14:10:08Z</time>
      </trkpt>
      <trkpt lat="43.466915" lon="-5.5977054">
        <ele>345.0</ele>
        <time>2021-02-14T14:10:09Z</time>
      </trkpt>
      <trkpt lat="43.46691" lon="-5.5977144">
        <ele>345.0</ele>
        <time>2021-02-14T14:10:10Z</time>
      </trkpt>
      <trkpt lat="43.466908" lon="-5.597723">
        <ele>344.0</ele>
        <time>2021-02-14T14:10:11Z</time>
      </trkpt>
      <trkpt lat="43.466896" lon="-5.5977325">
        <ele>344.0</ele>
        <time>2021-02-14T14:10:12Z</time>
      </trkpt>
      <trkpt lat="43.46689" lon="-5.5977445">
        <ele>344.0</ele>
        <time>2021-02-14T14:10:13Z</time>
      </trkpt>
      <trkpt lat="43.46688" lon="-5.59776">
        <ele>344.0</ele>
        <time>2021-02-14T14:10:14Z</time>
      </trkpt>
      <trkpt lat="43.466873" lon="-5.5977764">
        <ele>343.0</ele>
        <time>2021-02-14T14:10:15Z</time>
      </trkpt>
      <trkpt lat="43.46687" lon="-5.5977907">
        <ele>343.0</ele>
        <time>2021-02-14T14:10:16Z</time>
      </trkpt>
      <trkpt lat="43.466858" lon="-5.597805">
        <ele>343.0</ele>
        <time>2021-02-14T14:10:17Z</time>
      </trkpt>
      <trkpt lat="43.46685" lon="-5.5978203">
        <ele>343.0</ele>
        <time>2021-02-14T14:10:18Z</time>
      </trkpt>
      <trkpt lat="43.466835" lon="-5.597835">
        <ele>343.0</ele>
        <time>2021-02-14T14:10:19Z</time>
      </trkpt>
      <trkpt lat="43.466824" lon="-5.5978527">
        <ele>342.0</ele>
        <time>2021-02-14T14:10:20Z</time>
      </trkpt>
      <trkpt lat="43.466824" lon="-5.597871">
        <ele>342.0</ele>
        <time>2021-02-14T14:10:21Z</time>
      </trkpt>
      <trkpt lat="43.466824" lon="-5.597886">
        <ele>342.0</ele>
        <time>2021-02-14T14:10:22Z</time>
      </trkpt>
      <trkpt lat="43.466824" lon="-5.597901">
        <ele>342.0</ele>
        <time>2021-02-14T14:10:23Z</time>
      </trkpt>
      <trkpt lat="43.466824" lon="-5.5979156">
        <ele>342.0</ele>
        <time>2021-02-14T14:10:24Z</time>
      </trkpt>
      <trkpt lat="43.466824" lon="-5.5979285">
        <ele>342.0</ele>
        <time>2021-02-14T14:10:25Z</time>
      </trkpt>
      <trkpt lat="43.466824" lon="-5.5979424">
        <ele>342.0</ele>
        <time>2021-02-14T14:10:26Z</time>
      </trkpt>
      <trkpt lat="43.466824" lon="-5.5979586">
        <ele>342.0</ele>
        <time>2021-02-14T14:10:27Z</time>
      </trkpt>
      <trkpt lat="43.466824" lon="-5.5979757">
        <ele>342.0</ele>
        <time>2021-02-14T14:10:28Z</time>
      </trkpt>
      <trkpt lat="43.466824" lon="-5.5979934">
        <ele>342.0</ele>
        <time>2021-02-14T14:10:29Z</time>
      </trkpt>
      <trkpt lat="43.466824" lon="-5.598012">
        <ele>342.0</ele>
        <time>2021-02-14T14:10:30Z</time>
      </trkpt>
      <trkpt lat="43.466827" lon="-5.59803">
        <ele>342.0</ele>
        <time>2021-02-14T14:10:31Z</time>
      </trkpt>
      <trkpt lat="43.466827" lon="-5.5980473">
        <ele>342.0</ele>
        <time>2021-02-14T14:10:32Z</time>
      </trkpt>
      <trkpt lat="43.466835" lon="-5.5980663">
        <ele>342.0</ele>
        <time>2021-02-14T14:10:33Z</time>
      </trkpt>
      <trkpt lat="43.466835" lon="-5.5980864">
        <ele>342.0</ele>
        <time>2021-02-14T14:10:34Z</time>
      </trkpt>
      <trkpt lat="43.466835" lon="-5.5981045">
        <ele>342.0</ele>
        <time>2021-02-14T14:10:35Z</time>
      </trkpt>
      <trkpt lat="43.466835" lon="-5.598122">
        <ele>341.0</ele>
        <time>2021-02-14T14:10:36Z</time>
      </trkpt>
      <trkpt lat="43.466835" lon="-5.5981402">
        <ele>341.0</ele>
        <time>2021-02-14T14:10:37Z</time>
      </trkpt>
      <trkpt lat="43.466835" lon="-5.59816">
        <ele>341.0</ele>
        <time>2021-02-14T14:10:38Z</time>
      </trkpt>
      <trkpt lat="43.46684" lon="-5.5981793">
        <ele>341.0</ele>
        <time>2021-02-14T14:10:39Z</time>
      </trkpt>
      <trkpt lat="43.466835" lon="-5.5981984">
        <ele>341.0</ele>
        <time>2021-02-14T14:10:40Z</time>
      </trkpt>
      <trkpt lat="43.466835" lon="-5.5982165">
        <ele>341.0</ele>
        <time>2021-02-14T14:10:41Z</time>
      </trkpt>
      <trkpt lat="43.466835" lon="-5.598232">
        <ele>341.0</ele>
        <time>2021-02-14T14:10:42Z</time>
      </trkpt>
      <trkpt lat="43.466835" lon="-5.598247">
        <ele>341.0</ele>
        <time>2021-02-14T14:10:43Z</time>
      </trkpt>
      <trkpt lat="43.466835" lon="-5.5982614">
        <ele>341.0</ele>
        <time>2021-02-14T14:10:44Z</time>
      </trkpt>
      <trkpt lat="43.466835" lon="-5.5982757">
        <ele>341.0</ele>
        <time>2021-02-14T14:10:45Z</time>
      </trkpt>
      <trkpt lat="43.466843" lon="-5.5982933">
        <ele>341.0</ele>
        <time>2021-02-14T14:10:46Z</time>
      </trkpt>
      <trkpt lat="43.46685" lon="-5.598309">
        <ele>341.0</ele>
        <time>2021-02-14T14:10:47Z</time>
      </trkpt>
      <trkpt lat="43.466858" lon="-5.5983257">
        <ele>341.0</ele>
        <time>2021-02-14T14:10:48Z</time>
      </trkpt>
      <trkpt lat="43.46687" lon="-5.598339">
        <ele>341.0</ele>
        <time>2021-02-14T14:10:49Z</time>
      </trkpt>
      <trkpt lat="43.46688" lon="-5.5983515">
        <ele>341.0</ele>
        <time>2021-02-14T14:10:50Z</time>
      </trkpt>
      <trkpt lat="43.46688" lon="-5.598359">
        <ele>341.0</ele>
        <time>2021-02-14T14:10:51Z</time>
      </trkpt>
      <trkpt lat="43.466885" lon="-5.5983653">
        <ele>341.0</ele>
        <time>2021-02-14T14:10:52Z</time>
      </trkpt>
      <trkpt lat="43.46689" lon="-5.5983725">
        <ele>341.0</ele>
        <time>2021-02-14T14:10:53Z</time>
      </trkpt>
      <trkpt lat="43.466896" lon="-5.598378">
        <ele>341.0</ele>
        <time>2021-02-14T14:10:54Z</time>
      </trkpt>
      <trkpt lat="43.46691" lon="-5.5983853">
        <ele>341.0</ele>
        <time>2021-02-14T14:10:55Z</time>
      </trkpt>
      <trkpt lat="43.466927" lon="-5.598395">
        <ele>341.0</ele>
        <time>2021-02-14T14:10:56Z</time>
      </trkpt>
      <trkpt lat="43.466938" lon="-5.5984077">
        <ele>341.0</ele>
        <time>2021-02-14T14:10:57Z</time>
      </trkpt>
      <trkpt lat="43.466953" lon="-5.598425">
        <ele>341.0</ele>
        <time>2021-02-14T14:10:58Z</time>
      </trkpt>
      <trkpt lat="43.46697" lon="-5.598444">
        <ele>341.0</ele>
        <time>2021-02-14T14:10:59Z</time>
      </trkpt>
      <trkpt lat="43.466984" lon="-5.5984616">
        <ele>341.0</ele>
        <time>2021-02-14T14:11:00Z</time>
      </trkpt>
      <trkpt lat="43.46699" lon="-5.5984774">
        <ele>341.0</ele>
        <time>2021-02-14T14:11:01Z</time>
      </trkpt>
      <trkpt lat="43.467003" lon="-5.598492">
        <ele>341.0</ele>
        <time>2021-02-14T14:11:02Z</time>
      </trkpt>
      <trkpt lat="43.467014" lon="-5.5985045">
        <ele>341.0</ele>
        <time>2021-02-14T14:11:03Z</time>
      </trkpt>
      <trkpt lat="43.46702" lon="-5.598517">
        <ele>341.0</ele>
        <time>2021-02-14T14:11:04Z</time>
      </trkpt>
      <trkpt lat="43.467022" lon="-5.5985346">
        <ele>341.0</ele>
        <time>2021-02-14T14:11:05Z</time>
      </trkpt>
      <trkpt lat="43.46703" lon="-5.5985513">
        <ele>341.0</ele>
        <time>2021-02-14T14:11:06Z</time>
      </trkpt>
      <trkpt lat="43.467033" lon="-5.598563">
        <ele>341.0</ele>
        <time>2021-02-14T14:11:07Z</time>
      </trkpt>
      <trkpt lat="43.467037" lon="-5.5985756">
        <ele>341.0</ele>
        <time>2021-02-14T14:11:08Z</time>
      </trkpt>
      <trkpt lat="43.467045" lon="-5.598587">
        <ele>341.0</ele>
        <time>2021-02-14T14:11:09Z</time>
      </trkpt>
      <trkpt lat="43.46705" lon="-5.5986004">
        <ele>341.0</ele>
        <time>2021-02-14T14:11:10Z</time>
      </trkpt>
      <trkpt lat="43.467052" lon="-5.598617">
        <ele>341.0</ele>
        <time>2021-02-14T14:11:11Z</time>
      </trkpt>
      <trkpt lat="43.467052" lon="-5.5986347">
        <ele>341.0</ele>
        <time>2021-02-14T14:11:12Z</time>
      </trkpt>
      <trkpt lat="43.467052" lon="-5.5986547">
        <ele>341.0</ele>
        <time>2021-02-14T14:11:13Z</time>
      </trkpt>
      <trkpt lat="43.46705" lon="-5.5986753">
        <ele>340.0</ele>
        <time>2021-02-14T14:11:14Z</time>
      </trkpt>
      <trkpt lat="43.46705" lon="-5.5986943">
        <ele>340.0</ele>
        <time>2021-02-14T14:11:15Z</time>
      </trkpt>
      <trkpt lat="43.46705" lon="-5.5987134">
        <ele>340.0</ele>
        <time>2021-02-14T14:11:16Z</time>
      </trkpt>
      <trkpt lat="43.46705" lon="-5.598733">
        <ele>340.0</ele>
        <time>2021-02-14T14:11:17Z</time>
      </trkpt>
      <trkpt lat="43.467052" lon="-5.5987515">
        <ele>340.0</ele>
        <time>2021-02-14T14:11:18Z</time>
      </trkpt>
      <trkpt lat="43.46706" lon="-5.5987725">
        <ele>340.0</ele>
        <time>2021-02-14T14:11:19Z</time>
      </trkpt>
      <trkpt lat="43.467064" lon="-5.5987945">
        <ele>340.0</ele>
        <time>2021-02-14T14:11:20Z</time>
      </trkpt>
      <trkpt lat="43.467075" lon="-5.5988193">
        <ele>340.0</ele>
        <time>2021-02-14T14:11:21Z</time>
      </trkpt>
      <trkpt lat="43.467083" lon="-5.5988455">
        <ele>340.0</ele>
        <time>2021-02-14T14:11:22Z</time>
      </trkpt>
      <trkpt lat="43.467102" lon="-5.5988684">
        <ele>340.0</ele>
        <time>2021-02-14T14:11:23Z</time>
      </trkpt>
      <trkpt lat="43.46711" lon="-5.5988903">
        <ele>340.0</ele>
        <time>2021-02-14T14:11:24Z</time>
      </trkpt>
      <trkpt lat="43.46712" lon="-5.5989094">
        <ele>340.0</ele>
        <time>2021-02-14T14:11:25Z</time>
      </trkpt>
      <trkpt lat="43.467125" lon="-5.598926">
        <ele>340.0</ele>
        <time>2021-02-14T14:11:26Z</time>
      </trkpt>
      <trkpt lat="43.467133" lon="-5.598943">
        <ele>340.0</ele>
        <time>2021-02-14T14:11:27Z</time>
      </trkpt>
      <trkpt lat="43.467136" lon="-5.598963">
        <ele>340.0</ele>
        <time>2021-02-14T14:11:28Z</time>
      </trkpt>
      <trkpt lat="43.467136" lon="-5.5989823">
        <ele>340.0</ele>
        <time>2021-02-14T14:11:29Z</time>
      </trkpt>
      <trkpt lat="43.467148" lon="-5.5990005">
        <ele>340.0</ele>
        <time>2021-02-14T14:11:30Z</time>
      </trkpt>
      <trkpt lat="43.467155" lon="-5.5990157">
        <ele>340.0</ele>
        <time>2021-02-14T14:11:31Z</time>
      </trkpt>
      <trkpt lat="43.467167" lon="-5.599029">
        <ele>340.0</ele>
        <time>2021-02-14T14:11:32Z</time>
      </trkpt>
      <trkpt lat="43.46718" lon="-5.599042">
        <ele>340.0</ele>
        <time>2021-02-14T14:11:33Z</time>
      </trkpt>
      <trkpt lat="43.467186" lon="-5.599056">
        <ele>340.0</ele>
        <time>2021-02-14T14:11:34Z</time>
      </trkpt>
      <trkpt lat="43.467194" lon="-5.5990696">
        <ele>340.0</ele>
        <time>2021-02-14T14:11:35Z</time>
      </trkpt>
      <trkpt lat="43.467197" lon="-5.5990844">
        <ele>340.0</ele>
        <time>2021-02-14T14:11:36Z</time>
      </trkpt>
      <trkpt lat="43.4672" lon="-5.599098">
        <ele>340.0</ele>
        <time>2021-02-14T14:11:37Z</time>
      </trkpt>
      <trkpt lat="43.46721" lon="-5.5991135">
        <ele>340.0</ele>
        <time>2021-02-14T14:11:38Z</time>
      </trkpt>
      <trkpt lat="43.46721" lon="-5.5991282">
        <ele>340.0</ele>
        <time>2021-02-14T14:11:39Z</time>
      </trkpt>
      <trkpt lat="43.467213" lon="-5.5991426">
        <ele>340.0</ele>
        <time>2021-02-14T14:11:40Z</time>
      </trkpt>
      <trkpt lat="43.467216" lon="-5.5991597">
        <ele>340.0</ele>
        <time>2021-02-14T14:11:41Z</time>
      </trkpt>
      <trkpt lat="43.467228" lon="-5.5991755">
        <ele>340.0</ele>
        <time>2021-02-14T14:11:42Z</time>
      </trkpt>
      <trkpt lat="43.46723" lon="-5.599192">
        <ele>340.0</ele>
        <time>2021-02-14T14:11:43Z</time>
      </trkpt>
      <trkpt lat="43.467247" lon="-5.599212">
        <ele>341.0</ele>
        <time>2021-02-14T14:11:44Z</time>
      </trkpt>
      <trkpt lat="43.46726" lon="-5.599235">
        <ele>341.0</ele>
        <time>2021-02-14T14:11:45Z</time>
      </trkpt>
      <trkpt lat="43.467274" lon="-5.5992584">
        <ele>341.0</ele>
        <time>2021-02-14T14:11:46Z</time>
      </trkpt>
      <trkpt lat="43.467285" lon="-5.599279">
        <ele>341.0</ele>
        <time>2021-02-14T14:11:47Z</time>
      </trkpt>
      <trkpt lat="43.467297" lon="-5.599298">
        <ele>341.0</ele>
        <time>2021-02-14T14:11:48Z</time>
      </trkpt>
      <trkpt lat="43.4673" lon="-5.599315">
        <ele>341.0</ele>
        <time>2021-02-14T14:11:49Z</time>
      </trkpt>
      <trkpt lat="43.46731" lon="-5.5993285">
        <ele>341.0</ele>
        <time>2021-02-14T14:11:50Z</time>
      </trkpt>
      <trkpt lat="43.46732" lon="-5.599341">
        <ele>342.0</ele>
        <time>2021-02-14T14:11:51Z</time>
      </trkpt>
      <trkpt lat="43.46733" lon="-5.599354">
        <ele>342.0</ele>
        <time>2021-02-14T14:11:52Z</time>
      </trkpt>
      <trkpt lat="43.467335" lon="-5.599367">
        <ele>342.0</ele>
        <time>2021-02-14T14:11:53Z</time>
      </trkpt>
      <trkpt lat="43.467342" lon="-5.599382">
        <ele>342.0</ele>
        <time>2021-02-14T14:11:54Z</time>
      </trkpt>
      <trkpt lat="43.467346" lon="-5.5993977">
        <ele>342.0</ele>
        <time>2021-02-14T14:11:55Z</time>
      </trkpt>
      <trkpt lat="43.46735" lon="-5.599416">
        <ele>342.0</ele>
        <time>2021-02-14T14:11:56Z</time>
      </trkpt>
      <trkpt lat="43.46735" lon="-5.599433">
        <ele>343.0</ele>
        <time>2021-02-14T14:11:57Z</time>
      </trkpt>
      <trkpt lat="43.467358" lon="-5.599452">
        <ele>343.0</ele>
        <time>2021-02-14T14:11:58Z</time>
      </trkpt>
      <trkpt lat="43.46736" lon="-5.5994697">
        <ele>343.0</ele>
        <time>2021-02-14T14:11:59Z</time>
      </trkpt>
      <trkpt lat="43.46736" lon="-5.5994854">
        <ele>343.0</ele>
        <time>2021-02-14T14:12:00Z</time>
      </trkpt>
      <trkpt lat="43.467365" lon="-5.5995054">
        <ele>343.0</ele>
        <time>2021-02-14T14:12:01Z</time>
      </trkpt>
      <trkpt lat="43.467365" lon="-5.5995245">
        <ele>343.0</ele>
        <time>2021-02-14T14:12:02Z</time>
      </trkpt>
      <trkpt lat="43.467373" lon="-5.599543">
        <ele>343.0</ele>
        <time>2021-02-14T14:12:03Z</time>
      </trkpt>
      <trkpt lat="43.467377" lon="-5.5995584">
        <ele>343.0</ele>
        <time>2021-02-14T14:12:04Z</time>
      </trkpt>
      <trkpt lat="43.46738" lon="-5.599571">
        <ele>343.0</ele>
        <time>2021-02-14T14:12:05Z</time>
      </trkpt>
      <trkpt lat="43.46739" lon="-5.599581">
        <ele>344.0</ele>
        <time>2021-02-14T14:12:06Z</time>
      </trkpt>
      <trkpt lat="43.467396" lon="-5.59959">
        <ele>344.0</ele>
        <time>2021-02-14T14:12:07Z</time>
      </trkpt>
      <trkpt lat="43.467403" lon="-5.599596">
        <ele>344.0</ele>
        <time>2021-02-14T14:12:08Z</time>
      </trkpt>
      <trkpt lat="43.467407" lon="-5.5996027">
        <ele>345.0</ele>
        <time>2021-02-14T14:12:09Z</time>
      </trkpt>
      <trkpt lat="43.467407" lon="-5.599607">
        <ele>345.0</ele>
        <time>2021-02-14T14:12:10Z</time>
      </trkpt>
      <trkpt lat="43.46741" lon="-5.5996113">
        <ele>345.0</ele>
        <time>2021-02-14T14:12:11Z</time>
      </trkpt>
      <trkpt lat="43.46742" lon="-5.599618">
        <ele>345.0</ele>
        <time>2021-02-14T14:12:12Z</time>
      </trkpt>
      <trkpt lat="43.467422" lon="-5.599623">
        <ele>346.0</ele>
        <time>2021-02-14T14:12:13Z</time>
      </trkpt>
      <trkpt lat="43.467426" lon="-5.5996275">
        <ele>346.0</ele>
        <time>2021-02-14T14:12:14Z</time>
      </trkpt>
      <trkpt lat="43.467434" lon="-5.5996346">
        <ele>346.0</ele>
        <time>2021-02-14T14:12:15Z</time>
      </trkpt>
      <trkpt lat="43.46744" lon="-5.5996423">
        <ele>346.0</ele>
        <time>2021-02-14T14:12:16Z</time>
      </trkpt>
      <trkpt lat="43.467453" lon="-5.599652">
        <ele>347.0</ele>
        <time>2021-02-14T14:12:17Z</time>
      </trkpt>
      <trkpt lat="43.467464" lon="-5.599655">
        <ele>347.0</ele>
        <time>2021-02-14T14:12:18Z</time>
      </trkpt>
      <trkpt lat="43.467484" lon="-5.599658">
        <ele>347.0</ele>
        <time>2021-02-14T14:12:19Z</time>
      </trkpt>
      <trkpt lat="43.4675" lon="-5.5996614">
        <ele>347.0</ele>
        <time>2021-02-14T14:12:20Z</time>
      </trkpt>
      <trkpt lat="43.46752" lon="-5.5996623">
        <ele>348.0</ele>
        <time>2021-02-14T14:12:21Z</time>
      </trkpt>
      <trkpt lat="43.467537" lon="-5.599663">
        <ele>348.0</ele>
        <time>2021-02-14T14:12:22Z</time>
      </trkpt>
      <trkpt lat="43.467545" lon="-5.5996666">
        <ele>348.0</ele>
        <time>2021-02-14T14:12:23Z</time>
      </trkpt>
      <trkpt lat="43.467556" lon="-5.599673">
        <ele>348.0</ele>
        <time>2021-02-14T14:12:24Z</time>
      </trkpt>
      <trkpt lat="43.467567" lon="-5.5996785">
        <ele>349.0</ele>
        <time>2021-02-14T14:12:24Z</time>
      </trkpt>
      <trkpt lat="43.467567" lon="-5.5996833">
        <ele>349.0</ele>
        <time>2021-02-14T14:12:25Z</time>
      </trkpt>
      <trkpt lat="43.467567" lon="-5.5996857">
        <ele>349.0</ele>
        <time>2021-02-14T14:12:26Z</time>
      </trkpt>
      <trkpt lat="43.46757" lon="-5.5996876">
        <ele>349.0</ele>
        <time>2021-02-14T14:12:27Z</time>
      </trkpt>
      <trkpt lat="43.46757" lon="-5.5996914">
        <ele>350.0</ele>
        <time>2021-02-14T14:12:28Z</time>
      </trkpt>
      <trkpt lat="43.467575" lon="-5.5996947">
        <ele>350.0</ele>
        <time>2021-02-14T14:12:29Z</time>
      </trkpt>
      <trkpt lat="43.467583" lon="-5.5997005">
        <ele>350.0</ele>
        <time>2021-02-14T14:12:30Z</time>
      </trkpt>
      <trkpt lat="43.467587" lon="-5.5997047">
        <ele>350.0</ele>
        <time>2021-02-14T14:12:31Z</time>
      </trkpt>
      <trkpt lat="43.467598" lon="-5.5997148">
        <ele>351.0</ele>
        <time>2021-02-14T14:12:32Z</time>
      </trkpt>
      <trkpt lat="43.467606" lon="-5.5997243">
        <ele>351.0</ele>
        <time>2021-02-14T14:12:33Z</time>
      </trkpt>
      <trkpt lat="43.46762" lon="-5.599737">
        <ele>351.0</ele>
        <time>2021-02-14T14:12:34Z</time>
      </trkpt>
      <trkpt lat="43.467632" lon="-5.599749">
        <ele>351.0</ele>
        <time>2021-02-14T14:12:35Z</time>
      </trkpt>
      <trkpt lat="43.467644" lon="-5.5997577">
        <ele>352.0</ele>
        <time>2021-02-14T14:12:36Z</time>
      </trkpt>
      <trkpt lat="43.467648" lon="-5.5997643">
        <ele>352.0</ele>
        <time>2021-02-14T14:12:37Z</time>
      </trkpt>
      <trkpt lat="43.46766" lon="-5.599772">
        <ele>352.0</ele>
        <time>2021-02-14T14:12:38Z</time>
      </trkpt>
      <trkpt lat="43.46766" lon="-5.599783">
        <ele>352.0</ele>
        <time>2021-02-14T14:12:39Z</time>
      </trkpt>
      <trkpt lat="43.46766" lon="-5.5997963">
        <ele>352.0</ele>
        <time>2021-02-14T14:12:40Z</time>
      </trkpt>
      <trkpt lat="43.467663" lon="-5.599812">
        <ele>352.0</ele>
        <time>2021-02-14T14:12:41Z</time>
      </trkpt>
      <trkpt lat="43.467663" lon="-5.5998254">
        <ele>352.0</ele>
        <time>2021-02-14T14:12:42Z</time>
      </trkpt>
      <trkpt lat="43.467674" lon="-5.5998373">
        <ele>353.0</ele>
        <time>2021-02-14T14:12:43Z</time>
      </trkpt>
      <trkpt lat="43.467678" lon="-5.599848">
        <ele>353.0</ele>
        <time>2021-02-14T14:12:44Z</time>
      </trkpt>
      <trkpt lat="43.46769" lon="-5.599857">
        <ele>353.0</ele>
        <time>2021-02-14T14:12:45Z</time>
      </trkpt>
      <trkpt lat="43.4677" lon="-5.5998635">
        <ele>353.0</ele>
        <time>2021-02-14T14:12:46Z</time>
      </trkpt>
      <trkpt lat="43.46771" lon="-5.599872">
        <ele>354.0</ele>
        <time>2021-02-14T14:12:47Z</time>
      </trkpt>
      <trkpt lat="43.46772" lon="-5.599881">
        <ele>354.0</ele>
        <time>2021-02-14T14:12:48Z</time>
      </trkpt>
      <trkpt lat="43.46773" lon="-5.599888">
        <ele>354.0</ele>
        <time>2021-02-14T14:12:49Z</time>
      </trkpt>
      <trkpt lat="43.467735" lon="-5.5998945">
        <ele>354.0</ele>
        <time>2021-02-14T14:12:50Z</time>
      </trkpt>
      <trkpt lat="43.46774" lon="-5.5999007">
        <ele>355.0</ele>
        <time>2021-02-14T14:12:51Z</time>
      </trkpt>
      <trkpt lat="43.467747" lon="-5.5999103">
        <ele>355.0</ele>
        <time>2021-02-14T14:12:52Z</time>
      </trkpt>
      <trkpt lat="43.46775" lon="-5.599918">
        <ele>355.0</ele>
        <time>2021-02-14T14:12:53Z</time>
      </trkpt>
      <trkpt lat="43.467754" lon="-5.5999284">
        <ele>355.0</ele>
        <time>2021-02-14T14:12:54Z</time>
      </trkpt>
      <trkpt lat="43.467766" lon="-5.5999436">
        <ele>355.0</ele>
        <time>2021-02-14T14:12:55Z</time>
      </trkpt>
      <trkpt lat="43.467777" lon="-5.599959">
        <ele>356.0</ele>
        <time>2021-02-14T14:12:56Z</time>
      </trkpt>
      <trkpt lat="43.46778" lon="-5.59997">
        <ele>356.0</ele>
        <time>2021-02-14T14:12:57Z</time>
      </trkpt>
      <trkpt lat="43.467785" lon="-5.5999756">
        <ele>356.0</ele>
        <time>2021-02-14T14:12:58Z</time>
      </trkpt>
      <trkpt lat="43.467785" lon="-5.5999813">
        <ele>356.0</ele>
        <time>2021-02-14T14:12:59Z</time>
      </trkpt>
      <trkpt lat="43.467785" lon="-5.599985">
        <ele>357.0</ele>
        <time>2021-02-14T14:13:00Z</time>
      </trkpt>
      <trkpt lat="43.467785" lon="-5.599994">
        <ele>357.0</ele>
        <time>2021-02-14T14:13:01Z</time>
      </trkpt>
      <trkpt lat="43.467785" lon="-5.6000037">
        <ele>357.0</ele>
        <time>2021-02-14T14:13:02Z</time>
      </trkpt>
      <trkpt lat="43.467785" lon="-5.600013">
        <ele>357.0</ele>
        <time>2021-02-14T14:13:03Z</time>
      </trkpt>
      <trkpt lat="43.467785" lon="-5.600021">
        <ele>357.0</ele>
        <time>2021-02-14T14:13:04Z</time>
      </trkpt>
      <trkpt lat="43.467785" lon="-5.600028">
        <ele>358.0</ele>
        <time>2021-02-14T14:13:05Z</time>
      </trkpt>
      <trkpt lat="43.467785" lon="-5.6000385">
        <ele>358.0</ele>
        <time>2021-02-14T14:13:06Z</time>
      </trkpt>
      <trkpt lat="43.467785" lon="-5.6000447">
        <ele>358.0</ele>
        <time>2021-02-14T14:13:07Z</time>
      </trkpt>
      <trkpt lat="43.467793" lon="-5.6000533">
        <ele>358.0</ele>
        <time>2021-02-14T14:13:08Z</time>
      </trkpt>
      <trkpt lat="43.467793" lon="-5.6000648">
        <ele>358.0</ele>
        <time>2021-02-14T14:13:09Z</time>
      </trkpt>
      <trkpt lat="43.467793" lon="-5.6000786">
        <ele>358.0</ele>
        <time>2021-02-14T14:13:10Z</time>
      </trkpt>
      <trkpt lat="43.467793" lon="-5.600096">
        <ele>358.0</ele>
        <time>2021-02-14T14:13:11Z</time>
      </trkpt>
      <trkpt lat="43.467793" lon="-5.600114">
        <ele>358.0</ele>
        <time>2021-02-14T14:13:12Z</time>
      </trkpt>
      <trkpt lat="43.467793" lon="-5.6001287">
        <ele>358.0</ele>
        <time>2021-02-14T14:13:13Z</time>
      </trkpt>
      <trkpt lat="43.467793" lon="-5.6001396">
        <ele>359.0</ele>
        <time>2021-02-14T14:13:14Z</time>
      </trkpt>
      <trkpt lat="43.467793" lon="-5.6001496">
        <ele>359.0</ele>
        <time>2021-02-14T14:13:15Z</time>
      </trkpt>
      <trkpt lat="43.467796" lon="-5.600162">
        <ele>359.0</ele>
        <time>2021-02-14T14:13:16Z</time>
      </trkpt>
      <trkpt lat="43.4678" lon="-5.6001754">
        <ele>359.0</ele>
        <time>2021-02-14T14:13:17Z</time>
      </trkpt>
      <trkpt lat="43.467808" lon="-5.600189">
        <ele>360.0</ele>
        <time>2021-02-14T14:13:18Z</time>
      </trkpt>
      <trkpt lat="43.46781" lon="-5.6002035">
        <ele>360.0</ele>
        <time>2021-02-14T14:13:19Z</time>
      </trkpt>
      <trkpt lat="43.467815" lon="-5.600218">
        <ele>360.0</ele>
        <time>2021-02-14T14:13:20Z</time>
      </trkpt>
      <trkpt lat="43.467823" lon="-5.600232">
        <ele>360.0</ele>
        <time>2021-02-14T14:13:21Z</time>
      </trkpt>
      <trkpt lat="43.467823" lon="-5.600248">
        <ele>361.0</ele>
        <time>2021-02-14T14:13:22Z</time>
      </trkpt>
      <trkpt lat="43.467827" lon="-5.60026">
        <ele>361.0</ele>
        <time>2021-02-14T14:13:23Z</time>
      </trkpt>
      <trkpt lat="43.467827" lon="-5.600277">
        <ele>361.0</ele>
        <time>2021-02-14T14:13:24Z</time>
      </trkpt>
      <trkpt lat="43.46783" lon="-5.6002936">
        <ele>361.0</ele>
        <time>2021-02-14T14:13:25Z</time>
      </trkpt>
      <trkpt lat="43.46783" lon="-5.600311">
        <ele>362.0</ele>
        <time>2021-02-14T14:13:26Z</time>
      </trkpt>
      <trkpt lat="43.467842" lon="-5.600325">
        <ele>362.0</ele>
        <time>2021-02-14T14:13:27Z</time>
      </trkpt>
      <trkpt lat="43.467846" lon="-5.6003356">
        <ele>362.0</ele>
        <time>2021-02-14T14:13:28Z</time>
      </trkpt>
      <trkpt lat="43.467854" lon="-5.6003437">
        <ele>363.0</ele>
        <time>2021-02-14T14:13:29Z</time>
      </trkpt>
      <trkpt lat="43.467857" lon="-5.6003556">
        <ele>363.0</ele>
        <time>2021-02-14T14:13:30Z</time>
      </trkpt>
      <trkpt lat="43.46786" lon="-5.6003704">
        <ele>363.0</ele>
        <time>2021-02-14T14:13:31Z</time>
      </trkpt>
      <trkpt lat="43.46787" lon="-5.6003866">
        <ele>363.0</ele>
        <time>2021-02-14T14:13:32Z</time>
      </trkpt>
      <trkpt lat="43.467873" lon="-5.6004033">
        <ele>363.0</ele>
        <time>2021-02-14T14:13:33Z</time>
      </trkpt>
      <trkpt lat="43.467884" lon="-5.6004186">
        <ele>363.0</ele>
        <time>2021-02-14T14:13:34Z</time>
      </trkpt>
      <trkpt lat="43.467896" lon="-5.600432">
        <ele>363.0</ele>
        <time>2021-02-14T14:13:35Z</time>
      </trkpt>
      <trkpt lat="43.467903" lon="-5.6004443">
        <ele>363.0</ele>
        <time>2021-02-14T14:13:36Z</time>
      </trkpt>
      <trkpt lat="43.46792" lon="-5.600454">
        <ele>364.0</ele>
        <time>2021-02-14T14:13:37Z</time>
      </trkpt>
      <trkpt lat="43.467926" lon="-5.600463">
        <ele>364.0</ele>
        <time>2021-02-14T14:13:38Z</time>
      </trkpt>
      <trkpt lat="43.46793" lon="-5.600471">
        <ele>364.0</ele>
        <time>2021-02-14T14:13:39Z</time>
      </trkpt>
      <trkpt lat="43.467934" lon="-5.600477">
        <ele>364.0</ele>
        <time>2021-02-14T14:13:40Z</time>
      </trkpt>
      <trkpt lat="43.467934" lon="-5.600493">
        <ele>364.0</ele>
        <time>2021-02-14T14:13:41Z</time>
      </trkpt>
      <trkpt lat="43.467934" lon="-5.6005044">
        <ele>365.0</ele>
        <time>2021-02-14T14:13:42Z</time>
      </trkpt>
      <trkpt lat="43.467945" lon="-5.600552">
        <ele>365.0</ele>
        <time>2021-02-14T14:13:44Z</time>
      </trkpt>
      <trkpt lat="43.46795" lon="-5.600555">
        <ele>365.0</ele>
        <time>2021-02-14T14:13:45Z</time>
      </trkpt>
      <trkpt lat="43.46795" lon="-5.600562">
        <ele>365.0</ele>
        <time>2021-02-14T14:13:46Z</time>
      </trkpt>
      <trkpt lat="43.467957" lon="-5.6005726">
        <ele>366.0</ele>
        <time>2021-02-14T14:13:47Z</time>
      </trkpt>
      <trkpt lat="43.46796" lon="-5.6005816">
        <ele>366.0</ele>
        <time>2021-02-14T14:13:48Z</time>
      </trkpt>
      <trkpt lat="43.46796" lon="-5.600589">
        <ele>366.0</ele>
        <time>2021-02-14T14:13:49Z</time>
      </trkpt>
      <trkpt lat="43.467964" lon="-5.600599">
        <ele>366.0</ele>
        <time>2021-02-14T14:13:50Z</time>
      </trkpt>
      <trkpt lat="43.46797" lon="-5.600611">
        <ele>367.0</ele>
        <time>2021-02-14T14:13:51Z</time>
      </trkpt>
      <trkpt lat="43.467976" lon="-5.600624">
        <ele>367.0</ele>
        <time>2021-02-14T14:13:52Z</time>
      </trkpt>
      <trkpt lat="43.46798" lon="-5.6006374">
        <ele>367.0</ele>
        <time>2021-02-14T14:13:53Z</time>
      </trkpt>
      <trkpt lat="43.467987" lon="-5.6006517">
        <ele>367.0</ele>
        <time>2021-02-14T14:13:54Z</time>
      </trkpt>
      <trkpt lat="43.46799" lon="-5.6006656">
        <ele>368.0</ele>
        <time>2021-02-14T14:13:55Z</time>
      </trkpt>
      <trkpt lat="43.46799" lon="-5.6006784">
        <ele>368.0</ele>
        <time>2021-02-14T14:13:56Z</time>
      </trkpt>
      <trkpt lat="43.46799" lon="-5.600692">
        <ele>368.0</ele>
        <time>2021-02-14T14:13:57Z</time>
      </trkpt>
      <trkpt lat="43.46799" lon="-5.600704">
        <ele>368.0</ele>
        <time>2021-02-14T14:13:58Z</time>
      </trkpt>
      <trkpt lat="43.467987" lon="-5.6007104">
        <ele>368.0</ele>
        <time>2021-02-14T14:13:59Z</time>
      </trkpt>
      <trkpt lat="43.46798" lon="-5.6007147">
        <ele>369.0</ele>
        <time>2021-02-14T14:14:00Z</time>
      </trkpt>
      <trkpt lat="43.46797" lon="-5.600718">
        <ele>369.0</ele>
        <time>2021-02-14T14:14:01Z</time>
      </trkpt>
      <trkpt lat="43.46797" lon="-5.6007233">
        <ele>369.0</ele>
        <time>2021-02-14T14:14:02Z</time>
      </trkpt>
      <trkpt lat="43.467964" lon="-5.600727">
        <ele>369.0</ele>
        <time>2021-02-14T14:14:03Z</time>
      </trkpt>
      <trkpt lat="43.467964" lon="-5.600734">
        <ele>370.0</ele>
        <time>2021-02-14T14:14:04Z</time>
      </trkpt>
      <trkpt lat="43.46797" lon="-5.6007423">
        <ele>370.0</ele>
        <time>2021-02-14T14:14:05Z</time>
      </trkpt>
      <trkpt lat="43.467976" lon="-5.6007586">
        <ele>370.0</ele>
        <time>2021-02-14T14:14:06Z</time>
      </trkpt>
      <trkpt lat="43.46798" lon="-5.600777">
        <ele>370.0</ele>
        <time>2021-02-14T14:14:07Z</time>
      </trkpt>
      <trkpt lat="43.467987" lon="-5.6007934">
        <ele>371.0</ele>
        <time>2021-02-14T14:14:08Z</time>
      </trkpt>
      <trkpt lat="43.467995" lon="-5.6008115">
        <ele>371.0</ele>
        <time>2021-02-14T14:14:09Z</time>
      </trkpt>
      <trkpt lat="43.468002" lon="-5.600826">
        <ele>371.0</ele>
        <time>2021-02-14T14:14:10Z</time>
      </trkpt>
      <trkpt lat="43.468006" lon="-5.6008377">
        <ele>371.0</ele>
        <time>2021-02-14T14:14:11Z</time>
      </trkpt>
      <trkpt lat="43.468006" lon="-5.6008434">
        <ele>371.0</ele>
        <time>2021-02-14T14:14:12Z</time>
      </trkpt>
      <trkpt lat="43.468006" lon="-5.6008506">
        <ele>371.0</ele>
        <time>2021-02-14T14:14:13Z</time>
      </trkpt>
      <trkpt lat="43.468002" lon="-5.600857">
        <ele>371.0</ele>
        <time>2021-02-14T14:14:14Z</time>
      </trkpt>
      <trkpt lat="43.468002" lon="-5.600871">
        <ele>371.0</ele>
        <time>2021-02-14T14:14:15Z</time>
      </trkpt>
      <trkpt lat="43.46801" lon="-5.600885">
        <ele>371.0</ele>
        <time>2021-02-14T14:14:16Z</time>
      </trkpt>
      <trkpt lat="43.46802" lon="-5.600898">
        <ele>372.0</ele>
        <time>2021-02-14T14:14:17Z</time>
      </trkpt>
      <trkpt lat="43.46804" lon="-5.60091">
        <ele>372.0</ele>
        <time>2021-02-14T14:14:18Z</time>
      </trkpt>
      <trkpt lat="43.468052" lon="-5.6009192">
        <ele>372.0</ele>
        <time>2021-02-14T14:14:19Z</time>
      </trkpt>
      <trkpt lat="43.468067" lon="-5.600928">
        <ele>372.0</ele>
        <time>2021-02-14T14:14:20Z</time>
      </trkpt>
      <trkpt lat="43.468082" lon="-5.6009383">
        <ele>372.0</ele>
        <time>2021-02-14T14:14:21Z</time>
      </trkpt>
      <trkpt lat="43.468098" lon="-5.6009574">
        <ele>373.0</ele>
        <time>2021-02-14T14:14:22Z</time>
      </trkpt>
      <trkpt lat="43.468113" lon="-5.6009774">
        <ele>373.0</ele>
        <time>2021-02-14T14:14:23Z</time>
      </trkpt>
      <trkpt lat="43.468124" lon="-5.600996">
        <ele>373.0</ele>
        <time>2021-02-14T14:14:24Z</time>
      </trkpt>
      <trkpt lat="43.468136" lon="-5.6010156">
        <ele>373.0</ele>
        <time>2021-02-14T14:14:25Z</time>
      </trkpt>
      <trkpt lat="43.468143" lon="-5.60103">
        <ele>373.0</ele>
        <time>2021-02-14T14:14:26Z</time>
      </trkpt>
      <trkpt lat="43.46815" lon="-5.601039">
        <ele>374.0</ele>
        <time>2021-02-14T14:14:27Z</time>
      </trkpt>
      <trkpt lat="43.468166" lon="-5.601045">
        <ele>374.0</ele>
        <time>2021-02-14T14:14:28Z</time>
      </trkpt>
      <trkpt lat="43.468174" lon="-5.6010523">
        <ele>374.0</ele>
        <time>2021-02-14T14:14:29Z</time>
      </trkpt>
      <trkpt lat="43.46819" lon="-5.6010594">
        <ele>374.0</ele>
        <time>2021-02-14T14:14:30Z</time>
      </trkpt>
      <trkpt lat="43.4682" lon="-5.601066">
        <ele>374.0</ele>
        <time>2021-02-14T14:14:31Z</time>
      </trkpt>
      <trkpt lat="43.468216" lon="-5.601073">
        <ele>375.0</ele>
        <time>2021-02-14T14:14:32Z</time>
      </trkpt>
      <trkpt lat="43.468227" lon="-5.6010823">
        <ele>375.0</ele>
        <time>2021-02-14T14:14:33Z</time>
      </trkpt>
      <trkpt lat="43.468235" lon="-5.601097">
        <ele>375.0</ele>
        <time>2021-02-14T14:14:34Z</time>
      </trkpt>
      <trkpt lat="43.468246" lon="-5.6011157">
        <ele>375.0</ele>
        <time>2021-02-14T14:14:35Z</time>
      </trkpt>
      <trkpt lat="43.46825" lon="-5.6011353">
        <ele>375.0</ele>
        <time>2021-02-14T14:14:36Z</time>
      </trkpt>
      <trkpt lat="43.468258" lon="-5.601154">
        <ele>376.0</ele>
        <time>2021-02-14T14:14:37Z</time>
      </trkpt>
      <trkpt lat="43.46826" lon="-5.601168">
        <ele>376.0</ele>
        <time>2021-02-14T14:14:38Z</time>
      </trkpt>
      <trkpt lat="43.46827" lon="-5.601178">
        <ele>376.0</ele>
        <time>2021-02-14T14:14:39Z</time>
      </trkpt>
      <trkpt lat="43.46827" lon="-5.601187">
        <ele>376.0</ele>
        <time>2021-02-14T14:14:40Z</time>
      </trkpt>
      <trkpt lat="43.468273" lon="-5.601197">
        <ele>377.0</ele>
        <time>2021-02-14T14:14:42Z</time>
      </trkpt>
      <trkpt lat="43.468277" lon="-5.6012044">
        <ele>377.0</ele>
        <time>2021-02-14T14:14:42Z</time>
      </trkpt>
      <trkpt lat="43.468285" lon="-5.60121">
        <ele>377.0</ele>
        <time>2021-02-14T14:14:43Z</time>
      </trkpt>
      <trkpt lat="43.46829" lon="-5.6012135">
        <ele>377.0</ele>
        <time>2021-02-14T14:14:44Z</time>
      </trkpt>
      <trkpt lat="43.468292" lon="-5.601215">
        <ele>377.0</ele>
        <time>2021-02-14T14:14:45Z</time>
      </trkpt>
      <trkpt lat="43.4683" lon="-5.6012206">
        <ele>378.0</ele>
        <time>2021-02-14T14:14:46Z</time>
      </trkpt>
      <trkpt lat="43.468304" lon="-5.601228">
        <ele>378.0</ele>
        <time>2021-02-14T14:14:47Z</time>
      </trkpt>
      <trkpt lat="43.468307" lon="-5.6012383">
        <ele>378.0</ele>
        <time>2021-02-14T14:14:48Z</time>
      </trkpt>
      <trkpt lat="43.468307" lon="-5.601251">
        <ele>378.0</ele>
        <time>2021-02-14T14:14:49Z</time>
      </trkpt>
      <trkpt lat="43.468307" lon="-5.601262">
        <ele>379.0</ele>
        <time>2021-02-14T14:14:50Z</time>
      </trkpt>
      <trkpt lat="43.468307" lon="-5.6012664">
        <ele>379.0</ele>
        <time>2021-02-14T14:14:51Z</time>
      </trkpt>
      <trkpt lat="43.468315" lon="-5.6012697">
        <ele>379.0</ele>
        <time>2021-02-14T14:14:52Z</time>
      </trkpt>
      <trkpt lat="43.46832" lon="-5.6012716">
        <ele>379.0</ele>
        <time>2021-02-14T14:14:53Z</time>
      </trkpt>
      <trkpt lat="43.46833" lon="-5.601274">
        <ele>379.0</ele>
        <time>2021-02-14T14:14:54Z</time>
      </trkpt>
      <trkpt lat="43.468334" lon="-5.6012764">
        <ele>379.0</ele>
        <time>2021-02-14T14:14:55Z</time>
      </trkpt>
      <trkpt lat="43.468338" lon="-5.6012764">
        <ele>379.0</ele>
        <time>2021-02-14T14:14:56Z</time>
      </trkpt>
      <trkpt lat="43.468346" lon="-5.6012764">
        <ele>379.0</ele>
        <time>2021-02-14T14:14:57Z</time>
      </trkpt>
      <trkpt lat="43.46836" lon="-5.6012807">
        <ele>379.0</ele>
        <time>2021-02-14T14:14:59Z</time>
      </trkpt>
      <trkpt lat="43.468365" lon="-5.6012826">
        <ele>379.0</ele>
        <time>2021-02-14T14:15:00Z</time>
      </trkpt>
      <trkpt lat="43.46837" lon="-5.601288">
        <ele>379.0</ele>
        <time>2021-02-14T14:15:01Z</time>
      </trkpt>
      <trkpt lat="43.46838" lon="-5.6012955">
        <ele>379.0</ele>
        <time>2021-02-14T14:15:02Z</time>
      </trkpt>
      <trkpt lat="43.468384" lon="-5.6013026">
        <ele>379.0</ele>
        <time>2021-02-14T14:15:03Z</time>
      </trkpt>
      <trkpt lat="43.468384" lon="-5.601309">
        <ele>379.0</ele>
        <time>2021-02-14T14:15:04Z</time>
      </trkpt>
      <trkpt lat="43.46838" lon="-5.601313">
        <ele>379.0</ele>
        <time>2021-02-14T14:15:05Z</time>
      </trkpt>
      <trkpt lat="43.468376" lon="-5.60132">
        <ele>379.0</ele>
        <time>2021-02-14T14:15:06Z</time>
      </trkpt>
      <trkpt lat="43.46837" lon="-5.6013255">
        <ele>379.0</ele>
        <time>2021-02-14T14:15:07Z</time>
      </trkpt>
      <trkpt lat="43.46837" lon="-5.60133">
        <ele>379.0</ele>
        <time>2021-02-14T14:15:08Z</time>
      </trkpt>
      <trkpt lat="43.468365" lon="-5.6013374">
        <ele>379.0</ele>
        <time>2021-02-14T14:15:09Z</time>
      </trkpt>
      <trkpt lat="43.468365" lon="-5.601348">
        <ele>379.0</ele>
        <time>2021-02-14T14:15:10Z</time>
      </trkpt>
      <trkpt lat="43.468365" lon="-5.601358">
        <ele>379.0</ele>
        <time>2021-02-14T14:15:11Z</time>
      </trkpt>
      <trkpt lat="43.46837" lon="-5.6013665">
        <ele>379.0</ele>
        <time>2021-02-14T14:15:12Z</time>
      </trkpt>
      <trkpt lat="43.46837" lon="-5.6013722">
        <ele>379.0</ele>
        <time>2021-02-14T14:15:13Z</time>
      </trkpt>
      <trkpt lat="43.46837" lon="-5.6013746">
        <ele>379.0</ele>
        <time>2021-02-14T14:15:14Z</time>
      </trkpt>
      <trkpt lat="43.468376" lon="-5.6013756">
        <ele>379.0</ele>
        <time>2021-02-14T14:15:15Z</time>
      </trkpt>
      <trkpt lat="43.468376" lon="-5.6013775">
        <ele>379.0</ele>
        <time>2021-02-14T14:15:16Z</time>
      </trkpt>
      <trkpt lat="43.46838" lon="-5.6013775">
        <ele>379.0</ele>
        <time>2021-02-14T14:15:18Z</time>
      </trkpt>
      <trkpt lat="43.46838" lon="-5.601378">
        <ele>379.0</ele>
        <time>2021-02-14T14:15:19Z</time>
      </trkpt>
      <trkpt lat="43.468376" lon="-5.601378">
        <ele>379.0</ele>
        <time>2021-02-14T14:15:20Z</time>
      </trkpt>
      <trkpt lat="43.46837" lon="-5.6013803">
        <ele>379.0</ele>
        <time>2021-02-14T14:15:21Z</time>
      </trkpt>
      <trkpt lat="43.46837" lon="-5.6013856">
        <ele>379.0</ele>
        <time>2021-02-14T14:15:22Z</time>
      </trkpt>
      <trkpt lat="43.46836" lon="-5.6014023">
        <ele>379.0</ele>
        <time>2021-02-14T14:15:25Z</time>
      </trkpt>
      <trkpt lat="43.46836" lon="-5.6014004">
        <ele>379.0</ele>
        <time>2021-02-14T14:15:26Z</time>
      </trkpt>
      <trkpt lat="43.46836" lon="-5.601399">
        <ele>379.0</ele>
        <time>2021-02-14T14:15:28Z</time>
      </trkpt>
      <trkpt lat="43.46836" lon="-5.601399">
        <ele>379.0</ele>
        <time>2021-02-14T14:15:29Z</time>
      </trkpt>
      <trkpt lat="43.46836" lon="-5.601401">
        <ele>379.0</ele>
        <time>2021-02-14T14:15:30Z</time>
      </trkpt>
      <trkpt lat="43.468365" lon="-5.601402">
        <ele>379.0</ele>
        <time>2021-02-14T14:15:31Z</time>
      </trkpt>
      <trkpt lat="43.46837" lon="-5.601419">
        <ele>379.0</ele>
        <time>2021-02-14T14:15:50Z</time>
      </trkpt>
      <trkpt lat="43.46837" lon="-5.601421">
        <ele>379.0</ele>
        <time>2021-02-14T14:15:51Z</time>
      </trkpt>
      <trkpt lat="43.468376" lon="-5.6014233">
        <ele>379.0</ele>
        <time>2021-02-14T14:15:52Z</time>
      </trkpt>
      <trkpt lat="43.468376" lon="-5.6014247">
        <ele>379.0</ele>
        <time>2021-02-14T14:15:53Z</time>
      </trkpt>
      <trkpt lat="43.468384" lon="-5.6014366">
        <ele>379.0</ele>
        <time>2021-02-14T14:16:00Z</time>
      </trkpt>
      <trkpt lat="43.468384" lon="-5.6014404">
        <ele>379.0</ele>
        <time>2021-02-14T14:16:02Z</time>
      </trkpt>
      <trkpt lat="43.468384" lon="-5.6014414">
        <ele>379.0</ele>
        <time>2021-02-14T14:16:03Z</time>
      </trkpt>
      <trkpt lat="43.468384" lon="-5.6014504">
        <ele>379.0</ele>
        <time>2021-02-14T14:16:07Z</time>
      </trkpt>
      <trkpt lat="43.468384" lon="-5.6014514">
        <ele>379.0</ele>
        <time>2021-02-14T14:16:08Z</time>
      </trkpt>
      <trkpt lat="43.46839" lon="-5.6014605">
        <ele>379.0</ele>
        <time>2021-02-14T14:16:10Z</time>
      </trkpt>
      <trkpt lat="43.46839" lon="-5.601461">
        <ele>379.0</ele>
        <time>2021-02-14T14:16:11Z</time>
      </trkpt>
      <trkpt lat="43.468395" lon="-5.6014667">
        <ele>379.0</ele>
        <time>2021-02-14T14:16:15Z</time>
      </trkpt>
      <trkpt lat="43.468395" lon="-5.6014667">
        <ele>379.0</ele>
        <time>2021-02-14T14:16:16Z</time>
      </trkpt>
      <trkpt lat="43.4684" lon="-5.6014676">
        <ele>379.0</ele>
        <time>2021-02-14T14:16:17Z</time>
      </trkpt>
      <trkpt lat="43.46841" lon="-5.6014786">
        <ele>379.0</ele>
        <time>2021-02-14T14:16:31Z</time>
      </trkpt>
      <trkpt lat="43.46841" lon="-5.6014853">
        <ele>379.0</ele>
        <time>2021-02-14T14:16:34Z</time>
      </trkpt>
      <trkpt lat="43.46841" lon="-5.601486">
        <ele>379.0</ele>
        <time>2021-02-14T14:16:35Z</time>
      </trkpt>
      <trkpt lat="43.46841" lon="-5.601487">
        <ele>379.0</ele>
        <time>2021-02-14T14:16:36Z</time>
      </trkpt>
      <trkpt lat="43.46841" lon="-5.60149">
        <ele>379.0</ele>
        <time>2021-02-14T14:16:37Z</time>
      </trkpt>
      <trkpt lat="43.46841" lon="-5.6014924">
        <ele>379.0</ele>
        <time>2021-02-14T14:16:38Z</time>
      </trkpt>
      <trkpt lat="43.46841" lon="-5.6015034">
        <ele>379.0</ele>
        <time>2021-02-14T14:16:39Z</time>
      </trkpt>
      <trkpt lat="43.46841" lon="-5.601504">
        <ele>379.0</ele>
        <time>2021-02-14T14:16:40Z</time>
      </trkpt>
      <trkpt lat="43.468414" lon="-5.6015115">
        <ele>379.0</ele>
        <time>2021-02-14T14:16:43Z</time>
      </trkpt>
      <trkpt lat="43.468414" lon="-5.6015134">
        <ele>379.0</ele>
        <time>2021-02-14T14:16:45Z</time>
      </trkpt>
      <trkpt lat="43.468414" lon="-5.601524">
        <ele>379.0</ele>
        <time>2021-02-14T14:16:54Z</time>
      </trkpt>
      <trkpt lat="43.468414" lon="-5.6015253">
        <ele>379.0</ele>
        <time>2021-02-14T14:16:56Z</time>
      </trkpt>
    </trkseg>
  </trk>
</gpx>
